<?xml version="1.0" encoding="UTF-8"?>
<gpx
version="1.1"
creator="Creado mediante My Tracks en Android."
xmlns="http://www.topografix.com/GPX/1/1"
xmlns:topografix="http://www.topografix.com/GPX/Private/TopoGrafix/0/1"
xmlns:xsi="http://www.w3.org/2001/XMLSchema-instance"
xsi:schemaLocation="http://www.topografix.com/GPX/1/1 http://www.topografix.com/GPX/1/1/gpx.xsd http://www.topografix.com/GPX/Private/TopoGrafix/0/1 http://www.topografix.com/GPX/Private/TopoGrafix/0/1/topografix.xsd">
<metadata>
<name><![CDATA[04/05/2013 14:23]]></name>
<desc><![CDATA[]]></desc>
</metadata>
<trk>
<name><![CDATA[04/05/2013 14:23]]></name>
<desc><![CDATA[]]></desc>
<type><![CDATA[]]></type>
<extensions><topografix:color>c0c0c0</topografix:color></extensions>
<trkseg>
<trkpt lat="42.635762" lon="-2.389346">
<ele>968</ele>
<time>2013-05-04T12:23:50.244Z</time>
</trkpt>
<trkpt lat="42.635868" lon="-2.389333">
<ele>980</ele>
<time>2013-05-04T12:23:51.238Z</time>
</trkpt>
<trkpt lat="42.635868" lon="-2.389333">
<ele>980</ele>
<time>2013-05-04T12:23:59.000Z</time>
</trkpt>
<trkpt lat="42.635955" lon="-2.389378">
<ele>999</ele>
<time>2013-05-04T12:24:00.000Z</time>
</trkpt>
<trkpt lat="42.635927" lon="-2.389367">
<ele>986</ele>
<time>2013-05-04T12:24:25.000Z</time>
</trkpt>
<trkpt lat="42.635852" lon="-2.38935">
<ele>987</ele>
<time>2013-05-04T12:24:26.000Z</time>
</trkpt>
<trkpt lat="42.635813" lon="-2.389327">
<ele>984</ele>
<time>2013-05-04T12:24:35.000Z</time>
</trkpt>
<trkpt lat="42.635803" lon="-2.389324">
<ele>986</ele>
<time>2013-05-04T12:24:36.000Z</time>
</trkpt>
<trkpt lat="42.635838" lon="-2.389357">
<ele>988</ele>
<time>2013-05-04T12:25:32.000Z</time>
</trkpt>
<trkpt lat="42.635839" lon="-2.389362">
<ele>990</ele>
<time>2013-05-04T12:25:33.000Z</time>
</trkpt>
<trkpt lat="42.635872" lon="-2.3894">
<ele>993</ele>
<time>2013-05-04T12:26:00.000Z</time>
</trkpt>
<trkpt lat="42.635874" lon="-2.3894">
<ele>992</ele>
<time>2013-05-04T12:26:01.000Z</time>
</trkpt>
<trkpt lat="42.635854" lon="-2.389348">
<ele>1001</ele>
<time>2013-05-04T12:27:23.000Z</time>
</trkpt>
<trkpt lat="42.635846" lon="-2.389344">
<ele>1001</ele>
<time>2013-05-04T12:27:24.000Z</time>
</trkpt>
<trkpt lat="42.635806" lon="-2.389365">
<ele>995</ele>
<time>2013-05-04T12:28:46.000Z</time>
</trkpt>
<trkpt lat="42.635801" lon="-2.389363">
<ele>993</ele>
<time>2013-05-04T12:28:47.000Z</time>
</trkpt>
<trkpt lat="42.635832" lon="-2.3894">
<ele>989</ele>
<time>2013-05-04T12:35:01.000Z</time>
</trkpt>
<trkpt lat="42.635869" lon="-2.389429">
<ele>986</ele>
<time>2013-05-04T12:35:02.000Z</time>
</trkpt>
<trkpt lat="42.635918" lon="-2.389474">
<ele>987</ele>
<time>2013-05-04T12:35:03.000Z</time>
</trkpt>
<trkpt lat="42.635984" lon="-2.389549">
<ele>990</ele>
<time>2013-05-04T12:35:04.000Z</time>
</trkpt>
<trkpt lat="42.636042" lon="-2.389626">
<ele>990</ele>
<time>2013-05-04T12:35:05.000Z</time>
</trkpt>
<trkpt lat="42.636091" lon="-2.389697">
<ele>990</ele>
<time>2013-05-04T12:35:06.000Z</time>
</trkpt>
<trkpt lat="42.636123" lon="-2.389771">
<ele>989</ele>
<time>2013-05-04T12:35:07.000Z</time>
</trkpt>
<trkpt lat="42.636133" lon="-2.389837">
<ele>991</ele>
<time>2013-05-04T12:35:08.000Z</time>
</trkpt>
<trkpt lat="42.63613" lon="-2.389929">
<ele>992</ele>
<time>2013-05-04T12:35:09.000Z</time>
</trkpt>
<trkpt lat="42.63611" lon="-2.390045">
<ele>992</ele>
<time>2013-05-04T12:35:10.000Z</time>
</trkpt>
<trkpt lat="42.63607" lon="-2.390149">
<ele>992</ele>
<time>2013-05-04T12:35:11.000Z</time>
</trkpt>
<trkpt lat="42.636035" lon="-2.390227">
<ele>996</ele>
<time>2013-05-04T12:35:12.000Z</time>
</trkpt>
<trkpt lat="42.635997" lon="-2.390297">
<ele>997</ele>
<time>2013-05-04T12:35:13.000Z</time>
</trkpt>
<trkpt lat="42.635962" lon="-2.390366">
<ele>999</ele>
<time>2013-05-04T12:35:14.000Z</time>
</trkpt>
<trkpt lat="42.635926" lon="-2.390446">
<ele>1000</ele>
<time>2013-05-04T12:35:15.000Z</time>
</trkpt>
<trkpt lat="42.635893" lon="-2.390528">
<ele>1001</ele>
<time>2013-05-04T12:35:16.000Z</time>
</trkpt>
<trkpt lat="42.635858" lon="-2.390605">
<ele>1002</ele>
<time>2013-05-04T12:35:17.000Z</time>
</trkpt>
<trkpt lat="42.635802" lon="-2.39067">
<ele>1002</ele>
<time>2013-05-04T12:35:18.000Z</time>
</trkpt>
<trkpt lat="42.635744" lon="-2.390736">
<ele>1001</ele>
<time>2013-05-04T12:35:19.000Z</time>
</trkpt>
<trkpt lat="42.635681" lon="-2.3908">
<ele>1002</ele>
<time>2013-05-04T12:35:20.000Z</time>
</trkpt>
<trkpt lat="42.635623" lon="-2.390862">
<ele>1002</ele>
<time>2013-05-04T12:35:21.000Z</time>
</trkpt>
<trkpt lat="42.63557" lon="-2.390924">
<ele>1001</ele>
<time>2013-05-04T12:35:22.000Z</time>
</trkpt>
<trkpt lat="42.635522" lon="-2.390981">
<ele>1001</ele>
<time>2013-05-04T12:35:23.000Z</time>
</trkpt>
<trkpt lat="42.63547" lon="-2.391034">
<ele>1005</ele>
<time>2013-05-04T12:35:24.000Z</time>
</trkpt>
<trkpt lat="42.635426" lon="-2.391087">
<ele>1005</ele>
<time>2013-05-04T12:35:25.000Z</time>
</trkpt>
<trkpt lat="42.635394" lon="-2.391151">
<ele>1007</ele>
<time>2013-05-04T12:35:26.000Z</time>
</trkpt>
<trkpt lat="42.635364" lon="-2.39121">
<ele>1010</ele>
<time>2013-05-04T12:35:27.000Z</time>
</trkpt>
<trkpt lat="42.635343" lon="-2.391272">
<ele>1009</ele>
<time>2013-05-04T12:35:28.000Z</time>
</trkpt>
<trkpt lat="42.635332" lon="-2.391339">
<ele>1009</ele>
<time>2013-05-04T12:35:29.000Z</time>
</trkpt>
<trkpt lat="42.635326" lon="-2.391402">
<ele>1009</ele>
<time>2013-05-04T12:35:30.000Z</time>
</trkpt>
<trkpt lat="42.635323" lon="-2.391466">
<ele>1009</ele>
<time>2013-05-04T12:35:31.000Z</time>
</trkpt>
<trkpt lat="42.635318" lon="-2.39153">
<ele>1008</ele>
<time>2013-05-04T12:35:32.000Z</time>
</trkpt>
<trkpt lat="42.635293" lon="-2.391598">
<ele>1007</ele>
<time>2013-05-04T12:35:33.000Z</time>
</trkpt>
<trkpt lat="42.635248" lon="-2.391669">
<ele>1006</ele>
<time>2013-05-04T12:35:34.000Z</time>
</trkpt>
<trkpt lat="42.635202" lon="-2.391738">
<ele>1006</ele>
<time>2013-05-04T12:35:35.000Z</time>
</trkpt>
<trkpt lat="42.635161" lon="-2.391799">
<ele>1007</ele>
<time>2013-05-04T12:35:36.000Z</time>
</trkpt>
<trkpt lat="42.635119" lon="-2.391849">
<ele>1008</ele>
<time>2013-05-04T12:35:37.000Z</time>
</trkpt>
<trkpt lat="42.635073" lon="-2.39188">
<ele>1010</ele>
<time>2013-05-04T12:35:38.000Z</time>
</trkpt>
<trkpt lat="42.635031" lon="-2.391914">
<ele>1010</ele>
<time>2013-05-04T12:35:39.000Z</time>
</trkpt>
<trkpt lat="42.634999" lon="-2.391969">
<ele>1011</ele>
<time>2013-05-04T12:35:40.000Z</time>
</trkpt>
<trkpt lat="42.634976" lon="-2.392037">
<ele>1011</ele>
<time>2013-05-04T12:35:41.000Z</time>
</trkpt>
<trkpt lat="42.634957" lon="-2.39211">
<ele>1013</ele>
<time>2013-05-04T12:35:42.000Z</time>
</trkpt>
<trkpt lat="42.634956" lon="-2.392189">
<ele>1016</ele>
<time>2013-05-04T12:35:43.000Z</time>
</trkpt>
<trkpt lat="42.634958" lon="-2.392253">
<ele>1017</ele>
<time>2013-05-04T12:35:44.000Z</time>
</trkpt>
<trkpt lat="42.634961" lon="-2.392308">
<ele>1018</ele>
<time>2013-05-04T12:35:45.000Z</time>
</trkpt>
<trkpt lat="42.63496" lon="-2.392363">
<ele>1017</ele>
<time>2013-05-04T12:35:46.000Z</time>
</trkpt>
<trkpt lat="42.634944" lon="-2.392426">
<ele>1018</ele>
<time>2013-05-04T12:35:47.000Z</time>
</trkpt>
<trkpt lat="42.634923" lon="-2.392501">
<ele>1017</ele>
<time>2013-05-04T12:35:48.000Z</time>
</trkpt>
<trkpt lat="42.634901" lon="-2.392583">
<ele>1016</ele>
<time>2013-05-04T12:35:49.000Z</time>
</trkpt>
<trkpt lat="42.63488" lon="-2.392658">
<ele>1016</ele>
<time>2013-05-04T12:35:50.000Z</time>
</trkpt>
<trkpt lat="42.634855" lon="-2.392737">
<ele>1012</ele>
<time>2013-05-04T12:35:51.000Z</time>
</trkpt>
<trkpt lat="42.634816" lon="-2.392808">
<ele>1008</ele>
<time>2013-05-04T12:35:52.000Z</time>
</trkpt>
<trkpt lat="42.634775" lon="-2.392878">
<ele>1005</ele>
<time>2013-05-04T12:35:53.000Z</time>
</trkpt>
<trkpt lat="42.634725" lon="-2.392957">
<ele>1004</ele>
<time>2013-05-04T12:35:54.000Z</time>
</trkpt>
<trkpt lat="42.634663" lon="-2.393047">
<ele>1002</ele>
<time>2013-05-04T12:35:55.000Z</time>
</trkpt>
<trkpt lat="42.634598" lon="-2.393132">
<ele>1002</ele>
<time>2013-05-04T12:35:56.000Z</time>
</trkpt>
<trkpt lat="42.634535" lon="-2.393205">
<ele>1001</ele>
<time>2013-05-04T12:35:57.000Z</time>
</trkpt>
<trkpt lat="42.634481" lon="-2.393262">
<ele>1003</ele>
<time>2013-05-04T12:35:58.000Z</time>
</trkpt>
<trkpt lat="42.634437" lon="-2.393304">
<ele>1005</ele>
<time>2013-05-04T12:35:59.000Z</time>
</trkpt>
<trkpt lat="42.63439" lon="-2.393345">
<ele>1008</ele>
<time>2013-05-04T12:36:00.000Z</time>
</trkpt>
<trkpt lat="42.634333" lon="-2.393385">
<ele>1011</ele>
<time>2013-05-04T12:36:01.000Z</time>
</trkpt>
<trkpt lat="42.63427" lon="-2.393423">
<ele>1014</ele>
<time>2013-05-04T12:36:02.000Z</time>
</trkpt>
<trkpt lat="42.63421" lon="-2.393462">
<ele>1016</ele>
<time>2013-05-04T12:36:03.000Z</time>
</trkpt>
<trkpt lat="42.634168" lon="-2.393514">
<ele>1018</ele>
<time>2013-05-04T12:36:04.000Z</time>
</trkpt>
<trkpt lat="42.634134" lon="-2.393559">
<ele>1022</ele>
<time>2013-05-04T12:36:05.000Z</time>
</trkpt>
<trkpt lat="42.634106" lon="-2.393599">
<ele>1025</ele>
<time>2013-05-04T12:36:06.000Z</time>
</trkpt>
<trkpt lat="42.634088" lon="-2.393629">
<ele>1027</ele>
<time>2013-05-04T12:36:07.000Z</time>
</trkpt>
<trkpt lat="42.634087" lon="-2.393655">
<ele>1027</ele>
<time>2013-05-04T12:36:08.000Z</time>
</trkpt>
<trkpt lat="42.634109" lon="-2.393683">
<ele>1026</ele>
<time>2013-05-04T12:36:09.000Z</time>
</trkpt>
<trkpt lat="42.634158" lon="-2.39369">
<ele>1025</ele>
<time>2013-05-04T12:36:10.000Z</time>
</trkpt>
<trkpt lat="42.634214" lon="-2.393649">
<ele>1025</ele>
<time>2013-05-04T12:36:11.000Z</time>
</trkpt>
<trkpt lat="42.634265" lon="-2.393568">
<ele>1025</ele>
<time>2013-05-04T12:36:12.000Z</time>
</trkpt>
<trkpt lat="42.634291" lon="-2.393448">
<ele>1025</ele>
<time>2013-05-04T12:36:13.000Z</time>
</trkpt>
<trkpt lat="42.634312" lon="-2.393307">
<ele>1026</ele>
<time>2013-05-04T12:36:14.000Z</time>
</trkpt>
<trkpt lat="42.634326" lon="-2.393156">
<ele>1027</ele>
<time>2013-05-04T12:36:15.000Z</time>
</trkpt>
<trkpt lat="42.634341" lon="-2.393007">
<ele>1029</ele>
<time>2013-05-04T12:36:16.000Z</time>
</trkpt>
<trkpt lat="42.634363" lon="-2.392872">
<ele>1030</ele>
<time>2013-05-04T12:36:17.000Z</time>
</trkpt>
<trkpt lat="42.634396" lon="-2.392776">
<ele>1032</ele>
<time>2013-05-04T12:36:18.000Z</time>
</trkpt>
<trkpt lat="42.634419" lon="-2.392707">
<ele>1035</ele>
<time>2013-05-04T12:36:19.000Z</time>
</trkpt>
<trkpt lat="42.634441" lon="-2.392645">
<ele>1038</ele>
<time>2013-05-04T12:36:20.000Z</time>
</trkpt>
<trkpt lat="42.634466" lon="-2.392579">
<ele>1038</ele>
<time>2013-05-04T12:36:21.000Z</time>
</trkpt>
<trkpt lat="42.634498" lon="-2.39251">
<ele>1038</ele>
<time>2013-05-04T12:36:22.000Z</time>
</trkpt>
<trkpt lat="42.63455" lon="-2.392457">
<ele>1038</ele>
<time>2013-05-04T12:36:23.000Z</time>
</trkpt>
<trkpt lat="42.634612" lon="-2.392427">
<ele>1038</ele>
<time>2013-05-04T12:36:24.000Z</time>
</trkpt>
<trkpt lat="42.634667" lon="-2.392439">
<ele>1038</ele>
<time>2013-05-04T12:36:25.000Z</time>
</trkpt>
<trkpt lat="42.63469" lon="-2.392492">
<ele>1038</ele>
<time>2013-05-04T12:36:26.000Z</time>
</trkpt>
<trkpt lat="42.634688" lon="-2.39257">
<ele>1036</ele>
<time>2013-05-04T12:36:27.000Z</time>
</trkpt>
<trkpt lat="42.634652" lon="-2.392646">
<ele>1035</ele>
<time>2013-05-04T12:36:28.000Z</time>
</trkpt>
<trkpt lat="42.634585" lon="-2.392705">
<ele>1035</ele>
<time>2013-05-04T12:36:29.000Z</time>
</trkpt>
<trkpt lat="42.634503" lon="-2.392745">
<ele>1036</ele>
<time>2013-05-04T12:36:30.000Z</time>
</trkpt>
<trkpt lat="42.634427" lon="-2.392778">
<ele>1038</ele>
<time>2013-05-04T12:36:31.000Z</time>
</trkpt>
<trkpt lat="42.63436" lon="-2.392808">
<ele>1040</ele>
<time>2013-05-04T12:36:32.000Z</time>
</trkpt>
<trkpt lat="42.634301" lon="-2.392842">
<ele>1040</ele>
<time>2013-05-04T12:36:33.000Z</time>
</trkpt>
<trkpt lat="42.634247" lon="-2.392893">
<ele>1040</ele>
<time>2013-05-04T12:36:34.000Z</time>
</trkpt>
<trkpt lat="42.634196" lon="-2.392947">
<ele>1038</ele>
<time>2013-05-04T12:36:35.000Z</time>
</trkpt>
<trkpt lat="42.634146" lon="-2.392999">
<ele>1037</ele>
<time>2013-05-04T12:36:36.000Z</time>
</trkpt>
<trkpt lat="42.634092" lon="-2.393052">
<ele>1038</ele>
<time>2013-05-04T12:36:37.000Z</time>
</trkpt>
<trkpt lat="42.634035" lon="-2.393104">
<ele>1036</ele>
<time>2013-05-04T12:36:38.000Z</time>
</trkpt>
<trkpt lat="42.633975" lon="-2.393155">
<ele>1035</ele>
<time>2013-05-04T12:36:39.000Z</time>
</trkpt>
<trkpt lat="42.633919" lon="-2.393204">
<ele>1035</ele>
<time>2013-05-04T12:36:40.000Z</time>
</trkpt>
<trkpt lat="42.633865" lon="-2.393253">
<ele>1034</ele>
<time>2013-05-04T12:36:41.000Z</time>
</trkpt>
<trkpt lat="42.633808" lon="-2.393304">
<ele>1034</ele>
<time>2013-05-04T12:36:42.000Z</time>
</trkpt>
<trkpt lat="42.633751" lon="-2.393363">
<ele>1034</ele>
<time>2013-05-04T12:36:43.000Z</time>
</trkpt>
<trkpt lat="42.633704" lon="-2.393427">
<ele>1033</ele>
<time>2013-05-04T12:36:44.000Z</time>
</trkpt>
<trkpt lat="42.633659" lon="-2.393498">
<ele>1034</ele>
<time>2013-05-04T12:36:45.000Z</time>
</trkpt>
<trkpt lat="42.633617" lon="-2.393567">
<ele>1034</ele>
<time>2013-05-04T12:36:46.000Z</time>
</trkpt>
<trkpt lat="42.633577" lon="-2.393626">
<ele>1037</ele>
<time>2013-05-04T12:36:47.000Z</time>
</trkpt>
<trkpt lat="42.633546" lon="-2.393672">
<ele>1042</ele>
<time>2013-05-04T12:36:48.000Z</time>
</trkpt>
<trkpt lat="42.633528" lon="-2.39373">
<ele>1045</ele>
<time>2013-05-04T12:36:49.000Z</time>
</trkpt>
<trkpt lat="42.633525" lon="-2.393796">
<ele>1045</ele>
<time>2013-05-04T12:36:50.000Z</time>
</trkpt>
<trkpt lat="42.633537" lon="-2.393851">
<ele>1046</ele>
<time>2013-05-04T12:36:51.000Z</time>
</trkpt>
<trkpt lat="42.633566" lon="-2.393885">
<ele>1046</ele>
<time>2013-05-04T12:36:52.000Z</time>
</trkpt>
<trkpt lat="42.633606" lon="-2.393884">
<ele>1046</ele>
<time>2013-05-04T12:36:53.000Z</time>
</trkpt>
<trkpt lat="42.633658" lon="-2.393855">
<ele>1047</ele>
<time>2013-05-04T12:36:54.000Z</time>
</trkpt>
<trkpt lat="42.633712" lon="-2.393795">
<ele>1049</ele>
<time>2013-05-04T12:36:55.000Z</time>
</trkpt>
<trkpt lat="42.63376" lon="-2.393741">
<ele>1049</ele>
<time>2013-05-04T12:36:56.000Z</time>
</trkpt>
<trkpt lat="42.633807" lon="-2.393689">
<ele>1050</ele>
<time>2013-05-04T12:36:57.000Z</time>
</trkpt>
<trkpt lat="42.633858" lon="-2.393635">
<ele>1050</ele>
<time>2013-05-04T12:36:58.000Z</time>
</trkpt>
<trkpt lat="42.633916" lon="-2.393571">
<ele>1050</ele>
<time>2013-05-04T12:36:59.000Z</time>
</trkpt>
<trkpt lat="42.633978" lon="-2.393499">
<ele>1051</ele>
<time>2013-05-04T12:37:00.000Z</time>
</trkpt>
<trkpt lat="42.634016" lon="-2.393416">
<ele>1052</ele>
<time>2013-05-04T12:37:01.000Z</time>
</trkpt>
<trkpt lat="42.634048" lon="-2.393336">
<ele>1052</ele>
<time>2013-05-04T12:37:02.000Z</time>
</trkpt>
<trkpt lat="42.634077" lon="-2.393259">
<ele>1052</ele>
<time>2013-05-04T12:37:03.000Z</time>
</trkpt>
<trkpt lat="42.634117" lon="-2.3932">
<ele>1050</ele>
<time>2013-05-04T12:37:04.000Z</time>
</trkpt>
<trkpt lat="42.634162" lon="-2.393167">
<ele>1048</ele>
<time>2013-05-04T12:37:05.000Z</time>
</trkpt>
<trkpt lat="42.634211" lon="-2.393161">
<ele>1046</ele>
<time>2013-05-04T12:37:06.000Z</time>
</trkpt>
<trkpt lat="42.634254" lon="-2.393183">
<ele>1045</ele>
<time>2013-05-04T12:37:07.000Z</time>
</trkpt>
<trkpt lat="42.634264" lon="-2.393232">
<ele>1044</ele>
<time>2013-05-04T12:37:08.000Z</time>
</trkpt>
<trkpt lat="42.63425" lon="-2.393278">
<ele>1041</ele>
<time>2013-05-04T12:37:09.000Z</time>
</trkpt>
<trkpt lat="42.634221" lon="-2.393324">
<ele>1040</ele>
<time>2013-05-04T12:37:10.000Z</time>
</trkpt>
<trkpt lat="42.63418" lon="-2.393375">
<ele>1038</ele>
<time>2013-05-04T12:37:11.000Z</time>
</trkpt>
<trkpt lat="42.634124" lon="-2.393418">
<ele>1037</ele>
<time>2013-05-04T12:37:12.000Z</time>
</trkpt>
<trkpt lat="42.634054" lon="-2.393469">
<ele>1035</ele>
<time>2013-05-04T12:37:13.000Z</time>
</trkpt>
<trkpt lat="42.633976" lon="-2.393516">
<ele>1033</ele>
<time>2013-05-04T12:37:14.000Z</time>
</trkpt>
<trkpt lat="42.633896" lon="-2.393559">
<ele>1031</ele>
<time>2013-05-04T12:37:15.000Z</time>
</trkpt>
<trkpt lat="42.633816" lon="-2.393604">
<ele>1029</ele>
<time>2013-05-04T12:37:16.000Z</time>
</trkpt>
<trkpt lat="42.633735" lon="-2.393656">
<ele>1030</ele>
<time>2013-05-04T12:37:17.000Z</time>
</trkpt>
<trkpt lat="42.633664" lon="-2.393749">
<ele>1027</ele>
<time>2013-05-04T12:37:18.000Z</time>
</trkpt>
<trkpt lat="42.633598" lon="-2.393845">
<ele>1030</ele>
<time>2013-05-04T12:37:19.000Z</time>
</trkpt>
<trkpt lat="42.633543" lon="-2.393936">
<ele>1033</ele>
<time>2013-05-04T12:37:20.000Z</time>
</trkpt>
<trkpt lat="42.633501" lon="-2.394007">
<ele>1037</ele>
<time>2013-05-04T12:37:21.000Z</time>
</trkpt>
<trkpt lat="42.633452" lon="-2.394048">
<ele>1039</ele>
<time>2013-05-04T12:37:22.000Z</time>
</trkpt>
<trkpt lat="42.633403" lon="-2.394089">
<ele>1041</ele>
<time>2013-05-04T12:37:23.000Z</time>
</trkpt>
<trkpt lat="42.633352" lon="-2.394139">
<ele>1041</ele>
<time>2013-05-04T12:37:24.000Z</time>
</trkpt>
<trkpt lat="42.633301" lon="-2.394195">
<ele>1042</ele>
<time>2013-05-04T12:37:25.000Z</time>
</trkpt>
<trkpt lat="42.633245" lon="-2.39425">
<ele>1042</ele>
<time>2013-05-04T12:37:26.000Z</time>
</trkpt>
<trkpt lat="42.633193" lon="-2.394296">
<ele>1041</ele>
<time>2013-05-04T12:37:27.000Z</time>
</trkpt>
<trkpt lat="42.633141" lon="-2.394337">
<ele>1042</ele>
<time>2013-05-04T12:37:28.000Z</time>
</trkpt>
<trkpt lat="42.633096" lon="-2.394373">
<ele>1044</ele>
<time>2013-05-04T12:37:29.000Z</time>
</trkpt>
<trkpt lat="42.633071" lon="-2.39442">
<ele>1046</ele>
<time>2013-05-04T12:37:30.000Z</time>
</trkpt>
<trkpt lat="42.633054" lon="-2.394472">
<ele>1048</ele>
<time>2013-05-04T12:37:31.000Z</time>
</trkpt>
<trkpt lat="42.63304" lon="-2.394514">
<ele>1049</ele>
<time>2013-05-04T12:37:32.000Z</time>
</trkpt>
<trkpt lat="42.63302" lon="-2.394558">
<ele>1050</ele>
<time>2013-05-04T12:37:33.000Z</time>
</trkpt>
<trkpt lat="42.632994" lon="-2.394607">
<ele>1051</ele>
<time>2013-05-04T12:37:34.000Z</time>
</trkpt>
<trkpt lat="42.632971" lon="-2.394649">
<ele>1052</ele>
<time>2013-05-04T12:37:35.000Z</time>
</trkpt>
<trkpt lat="42.632955" lon="-2.394684">
<ele>1053</ele>
<time>2013-05-04T12:37:36.000Z</time>
</trkpt>
<trkpt lat="42.632959" lon="-2.394726">
<ele>1054</ele>
<time>2013-05-04T12:37:37.000Z</time>
</trkpt>
<trkpt lat="42.632978" lon="-2.39477">
<ele>1055</ele>
<time>2013-05-04T12:37:38.000Z</time>
</trkpt>
<trkpt lat="42.633014" lon="-2.394812">
<ele>1056</ele>
<time>2013-05-04T12:37:39.000Z</time>
</trkpt>
<trkpt lat="42.633052" lon="-2.394835">
<ele>1058</ele>
<time>2013-05-04T12:37:40.000Z</time>
</trkpt>
<trkpt lat="42.633085" lon="-2.394827">
<ele>1057</ele>
<time>2013-05-04T12:37:41.000Z</time>
</trkpt>
<trkpt lat="42.63314" lon="-2.394787">
<ele>1058</ele>
<time>2013-05-04T12:37:42.000Z</time>
</trkpt>
<trkpt lat="42.633196" lon="-2.394713">
<ele>1060</ele>
<time>2013-05-04T12:37:43.000Z</time>
</trkpt>
<trkpt lat="42.633231" lon="-2.39462">
<ele>1061</ele>
<time>2013-05-04T12:37:44.000Z</time>
</trkpt>
<trkpt lat="42.633244" lon="-2.394525">
<ele>1061</ele>
<time>2013-05-04T12:37:45.000Z</time>
</trkpt>
<trkpt lat="42.633243" lon="-2.394393">
<ele>1063</ele>
<time>2013-05-04T12:37:46.000Z</time>
</trkpt>
<trkpt lat="42.633231" lon="-2.394264">
<ele>1065</ele>
<time>2013-05-04T12:37:47.000Z</time>
</trkpt>
<trkpt lat="42.633225" lon="-2.394142">
<ele>1066</ele>
<time>2013-05-04T12:37:48.000Z</time>
</trkpt>
<trkpt lat="42.63326" lon="-2.394026">
<ele>1068</ele>
<time>2013-05-04T12:37:49.000Z</time>
</trkpt>
<trkpt lat="42.633316" lon="-2.393938">
<ele>1069</ele>
<time>2013-05-04T12:37:50.000Z</time>
</trkpt>
<trkpt lat="42.633379" lon="-2.39389">
<ele>1071</ele>
<time>2013-05-04T12:37:51.000Z</time>
</trkpt>
<trkpt lat="42.633428" lon="-2.393895">
<ele>1073</ele>
<time>2013-05-04T12:37:52.000Z</time>
</trkpt>
<trkpt lat="42.633458" lon="-2.39395">
<ele>1075</ele>
<time>2013-05-04T12:37:53.000Z</time>
</trkpt>
<trkpt lat="42.633461" lon="-2.394017">
<ele>1076</ele>
<time>2013-05-04T12:37:54.000Z</time>
</trkpt>
<trkpt lat="42.633446" lon="-2.394093">
<ele>1075</ele>
<time>2013-05-04T12:37:55.000Z</time>
</trkpt>
<trkpt lat="42.633401" lon="-2.394158">
<ele>1075</ele>
<time>2013-05-04T12:37:56.000Z</time>
</trkpt>
<trkpt lat="42.633341" lon="-2.394226">
<ele>1075</ele>
<time>2013-05-04T12:37:57.000Z</time>
</trkpt>
<trkpt lat="42.633284" lon="-2.394286">
<ele>1076</ele>
<time>2013-05-04T12:37:58.000Z</time>
</trkpt>
<trkpt lat="42.63323" lon="-2.394344">
<ele>1078</ele>
<time>2013-05-04T12:37:59.000Z</time>
</trkpt>
<trkpt lat="42.633174" lon="-2.394404">
<ele>1082</ele>
<time>2013-05-04T12:38:00.000Z</time>
</trkpt>
<trkpt lat="42.633118" lon="-2.39446">
<ele>1085</ele>
<time>2013-05-04T12:38:01.000Z</time>
</trkpt>
<trkpt lat="42.633069" lon="-2.394505">
<ele>1086</ele>
<time>2013-05-04T12:38:02.000Z</time>
</trkpt>
<trkpt lat="42.633019" lon="-2.394547">
<ele>1088</ele>
<time>2013-05-04T12:38:03.000Z</time>
</trkpt>
<trkpt lat="42.632981" lon="-2.394603">
<ele>1090</ele>
<time>2013-05-04T12:38:04.000Z</time>
</trkpt>
<trkpt lat="42.632969" lon="-2.394669">
<ele>1088</ele>
<time>2013-05-04T12:38:05.000Z</time>
</trkpt>
<trkpt lat="42.632978" lon="-2.394735">
<ele>1087</ele>
<time>2013-05-04T12:38:06.000Z</time>
</trkpt>
<trkpt lat="42.632999" lon="-2.394778">
<ele>1089</ele>
<time>2013-05-04T12:38:07.000Z</time>
</trkpt>
<trkpt lat="42.63303" lon="-2.39479">
<ele>1089</ele>
<time>2013-05-04T12:38:08.000Z</time>
</trkpt>
<trkpt lat="42.633064" lon="-2.394779">
<ele>1093</ele>
<time>2013-05-04T12:38:09.000Z</time>
</trkpt>
<trkpt lat="42.633103" lon="-2.394743">
<ele>1092</ele>
<time>2013-05-04T12:38:10.000Z</time>
</trkpt>
<trkpt lat="42.633142" lon="-2.394676">
<ele>1092</ele>
<time>2013-05-04T12:38:11.000Z</time>
</trkpt>
<trkpt lat="42.633167" lon="-2.394585">
<ele>1092</ele>
<time>2013-05-04T12:38:12.000Z</time>
</trkpt>
<trkpt lat="42.633175" lon="-2.394474">
<ele>1091</ele>
<time>2013-05-04T12:38:13.000Z</time>
</trkpt>
<trkpt lat="42.633183" lon="-2.394357">
<ele>1092</ele>
<time>2013-05-04T12:38:14.000Z</time>
</trkpt>
<trkpt lat="42.633189" lon="-2.394239">
<ele>1094</ele>
<time>2013-05-04T12:38:15.000Z</time>
</trkpt>
<trkpt lat="42.633198" lon="-2.394129">
<ele>1096</ele>
<time>2013-05-04T12:38:16.000Z</time>
</trkpt>
<trkpt lat="42.633209" lon="-2.394017">
<ele>1097</ele>
<time>2013-05-04T12:38:17.000Z</time>
</trkpt>
<trkpt lat="42.633222" lon="-2.393893">
<ele>1098</ele>
<time>2013-05-04T12:38:18.000Z</time>
</trkpt>
<trkpt lat="42.633234" lon="-2.393756">
<ele>1101</ele>
<time>2013-05-04T12:38:19.000Z</time>
</trkpt>
<trkpt lat="42.633246" lon="-2.393632">
<ele>1104</ele>
<time>2013-05-04T12:38:20.000Z</time>
</trkpt>
<trkpt lat="42.633257" lon="-2.393528">
<ele>1106</ele>
<time>2013-05-04T12:38:21.000Z</time>
</trkpt>
<trkpt lat="42.63327" lon="-2.393445">
<ele>1108</ele>
<time>2013-05-04T12:38:22.000Z</time>
</trkpt>
<trkpt lat="42.633301" lon="-2.393369">
<ele>1113</ele>
<time>2013-05-04T12:38:23.000Z</time>
</trkpt>
<trkpt lat="42.633344" lon="-2.393338">
<ele>1113</ele>
<time>2013-05-04T12:38:24.000Z</time>
</trkpt>
<trkpt lat="42.633397" lon="-2.393352">
<ele>1113</ele>
<time>2013-05-04T12:38:25.000Z</time>
</trkpt>
<trkpt lat="42.633427" lon="-2.393397">
<ele>1113</ele>
<time>2013-05-04T12:38:26.000Z</time>
</trkpt>
<trkpt lat="42.633435" lon="-2.393477">
<ele>1113</ele>
<time>2013-05-04T12:38:27.000Z</time>
</trkpt>
<trkpt lat="42.633383" lon="-2.393551">
<ele>1112</ele>
<time>2013-05-04T12:38:28.000Z</time>
</trkpt>
<trkpt lat="42.633293" lon="-2.393604">
<ele>1111</ele>
<time>2013-05-04T12:38:29.000Z</time>
</trkpt>
<trkpt lat="42.633214" lon="-2.393638">
<ele>1113</ele>
<time>2013-05-04T12:38:30.000Z</time>
</trkpt>
<trkpt lat="42.63314" lon="-2.393635">
<ele>1116</ele>
<time>2013-05-04T12:38:31.000Z</time>
</trkpt>
<trkpt lat="42.63307" lon="-2.393625">
<ele>1118</ele>
<time>2013-05-04T12:38:32.000Z</time>
</trkpt>
<trkpt lat="42.632987" lon="-2.393587">
<ele>1119</ele>
<time>2013-05-04T12:38:33.000Z</time>
</trkpt>
<trkpt lat="42.632891" lon="-2.393544">
<ele>1120</ele>
<time>2013-05-04T12:38:34.000Z</time>
</trkpt>
<trkpt lat="42.63279" lon="-2.39355">
<ele>1120</ele>
<time>2013-05-04T12:38:35.000Z</time>
</trkpt>
<trkpt lat="42.632712" lon="-2.3936">
<ele>1121</ele>
<time>2013-05-04T12:38:36.000Z</time>
</trkpt>
<trkpt lat="42.632665" lon="-2.39367">
<ele>1123</ele>
<time>2013-05-04T12:38:37.000Z</time>
</trkpt>
<trkpt lat="42.632649" lon="-2.393743">
<ele>1128</ele>
<time>2013-05-04T12:38:38.000Z</time>
</trkpt>
<trkpt lat="42.632669" lon="-2.393798">
<ele>1130</ele>
<time>2013-05-04T12:38:39.000Z</time>
</trkpt>
<trkpt lat="42.632705" lon="-2.393829">
<ele>1132</ele>
<time>2013-05-04T12:38:40.000Z</time>
</trkpt>
<trkpt lat="42.63275" lon="-2.393843">
<ele>1134</ele>
<time>2013-05-04T12:38:41.000Z</time>
</trkpt>
<trkpt lat="42.632791" lon="-2.393852">
<ele>1136</ele>
<time>2013-05-04T12:38:42.000Z</time>
</trkpt>
<trkpt lat="42.632821" lon="-2.393855">
<ele>1138</ele>
<time>2013-05-04T12:38:43.000Z</time>
</trkpt>
<trkpt lat="42.632856" lon="-2.393854">
<ele>1141</ele>
<time>2013-05-04T12:38:44.000Z</time>
</trkpt>
<trkpt lat="42.632894" lon="-2.39384">
<ele>1142</ele>
<time>2013-05-04T12:38:45.000Z</time>
</trkpt>
<trkpt lat="42.632938" lon="-2.393812">
<ele>1143</ele>
<time>2013-05-04T12:38:46.000Z</time>
</trkpt>
<trkpt lat="42.632987" lon="-2.393756">
<ele>1143</ele>
<time>2013-05-04T12:38:47.000Z</time>
</trkpt>
<trkpt lat="42.633017" lon="-2.393689">
<ele>1142</ele>
<time>2013-05-04T12:38:48.000Z</time>
</trkpt>
<trkpt lat="42.633048" lon="-2.393609">
<ele>1141</ele>
<time>2013-05-04T12:38:49.000Z</time>
</trkpt>
<trkpt lat="42.633078" lon="-2.393508">
<ele>1140</ele>
<time>2013-05-04T12:38:50.000Z</time>
</trkpt>
<trkpt lat="42.633111" lon="-2.393394">
<ele>1139</ele>
<time>2013-05-04T12:38:51.000Z</time>
</trkpt>
<trkpt lat="42.633159" lon="-2.393297">
<ele>1138</ele>
<time>2013-05-04T12:38:52.000Z</time>
</trkpt>
<trkpt lat="42.633223" lon="-2.39325">
<ele>1136</ele>
<time>2013-05-04T12:38:53.000Z</time>
</trkpt>
<trkpt lat="42.633279" lon="-2.393258">
<ele>1134</ele>
<time>2013-05-04T12:38:54.000Z</time>
</trkpt>
<trkpt lat="42.633322" lon="-2.393298">
<ele>1133</ele>
<time>2013-05-04T12:38:55.000Z</time>
</trkpt>
<trkpt lat="42.633336" lon="-2.393364">
<ele>1130</ele>
<time>2013-05-04T12:38:56.000Z</time>
</trkpt>
<trkpt lat="42.633323" lon="-2.393431">
<ele>1126</ele>
<time>2013-05-04T12:38:57.000Z</time>
</trkpt>
<trkpt lat="42.633309" lon="-2.393502">
<ele>1125</ele>
<time>2013-05-04T12:38:58.000Z</time>
</trkpt>
<trkpt lat="42.633297" lon="-2.393576">
<ele>1124</ele>
<time>2013-05-04T12:38:59.000Z</time>
</trkpt>
<trkpt lat="42.63328" lon="-2.39366">
<ele>1122</ele>
<time>2013-05-04T12:39:00.000Z</time>
</trkpt>
<trkpt lat="42.63326" lon="-2.393747">
<ele>1119</ele>
<time>2013-05-04T12:39:01.000Z</time>
</trkpt>
<trkpt lat="42.633222" lon="-2.393823">
<ele>1116</ele>
<time>2013-05-04T12:39:02.000Z</time>
</trkpt>
<trkpt lat="42.633185" lon="-2.393901">
<ele>1116</ele>
<time>2013-05-04T12:39:03.000Z</time>
</trkpt>
<trkpt lat="42.633151" lon="-2.393965">
<ele>1116</ele>
<time>2013-05-04T12:39:04.000Z</time>
</trkpt>
<trkpt lat="42.633118" lon="-2.394033">
<ele>1112</ele>
<time>2013-05-04T12:39:05.000Z</time>
</trkpt>
<trkpt lat="42.633087" lon="-2.394105">
<ele>1109</ele>
<time>2013-05-04T12:39:06.000Z</time>
</trkpt>
<trkpt lat="42.633057" lon="-2.394181">
<ele>1108</ele>
<time>2013-05-04T12:39:07.000Z</time>
</trkpt>
<trkpt lat="42.633028" lon="-2.394257">
<ele>1108</ele>
<time>2013-05-04T12:39:08.000Z</time>
</trkpt>
<trkpt lat="42.633005" lon="-2.394323">
<ele>1110</ele>
<time>2013-05-04T12:39:09.000Z</time>
</trkpt>
<trkpt lat="42.632986" lon="-2.394379">
<ele>1111</ele>
<time>2013-05-04T12:39:10.000Z</time>
</trkpt>
<trkpt lat="42.632963" lon="-2.394443">
<ele>1112</ele>
<time>2013-05-04T12:39:11.000Z</time>
</trkpt>
<trkpt lat="42.632939" lon="-2.394521">
<ele>1116</ele>
<time>2013-05-04T12:39:12.000Z</time>
</trkpt>
<trkpt lat="42.632918" lon="-2.394592">
<ele>1116</ele>
<time>2013-05-04T12:39:13.000Z</time>
</trkpt>
<trkpt lat="42.632885" lon="-2.394676">
<ele>1117</ele>
<time>2013-05-04T12:39:14.000Z</time>
</trkpt>
<trkpt lat="42.632844" lon="-2.394768">
<ele>1120</ele>
<time>2013-05-04T12:39:15.000Z</time>
</trkpt>
<trkpt lat="42.6328" lon="-2.394862">
<ele>1122</ele>
<time>2013-05-04T12:39:16.000Z</time>
</trkpt>
<trkpt lat="42.632758" lon="-2.394941">
<ele>1124</ele>
<time>2013-05-04T12:39:17.000Z</time>
</trkpt>
<trkpt lat="42.632719" lon="-2.395007">
<ele>1126</ele>
<time>2013-05-04T12:39:18.000Z</time>
</trkpt>
<trkpt lat="42.632686" lon="-2.39507">
<ele>1128</ele>
<time>2013-05-04T12:39:19.000Z</time>
</trkpt>
<trkpt lat="42.632673" lon="-2.395129">
<ele>1127</ele>
<time>2013-05-04T12:39:20.000Z</time>
</trkpt>
<trkpt lat="42.632682" lon="-2.395179">
<ele>1125</ele>
<time>2013-05-04T12:39:21.000Z</time>
</trkpt>
<trkpt lat="42.632708" lon="-2.395216">
<ele>1124</ele>
<time>2013-05-04T12:39:22.000Z</time>
</trkpt>
<trkpt lat="42.63275" lon="-2.395236">
<ele>1121</ele>
<time>2013-05-04T12:39:23.000Z</time>
</trkpt>
<trkpt lat="42.632784" lon="-2.395215">
<ele>1118</ele>
<time>2013-05-04T12:39:24.000Z</time>
</trkpt>
<trkpt lat="42.632816" lon="-2.395153">
<ele>1114</ele>
<time>2013-05-04T12:39:25.000Z</time>
</trkpt>
<trkpt lat="42.632839" lon="-2.395059">
<ele>1111</ele>
<time>2013-05-04T12:39:26.000Z</time>
</trkpt>
<trkpt lat="42.632857" lon="-2.394947">
<ele>1107</ele>
<time>2013-05-04T12:39:27.000Z</time>
</trkpt>
<trkpt lat="42.632866" lon="-2.394842">
<ele>1105</ele>
<time>2013-05-04T12:39:28.000Z</time>
</trkpt>
<trkpt lat="42.632872" lon="-2.394739">
<ele>1104</ele>
<time>2013-05-04T12:39:29.000Z</time>
</trkpt>
<trkpt lat="42.63288" lon="-2.394642">
<ele>1104</ele>
<time>2013-05-04T12:39:30.000Z</time>
</trkpt>
<trkpt lat="42.632895" lon="-2.394537">
<ele>1104</ele>
<time>2013-05-04T12:39:31.000Z</time>
</trkpt>
<trkpt lat="42.632916" lon="-2.394429">
<ele>1105</ele>
<time>2013-05-04T12:39:32.000Z</time>
</trkpt>
<trkpt lat="42.632939" lon="-2.394326">
<ele>1106</ele>
<time>2013-05-04T12:39:33.000Z</time>
</trkpt>
<trkpt lat="42.632962" lon="-2.394239">
<ele>1107</ele>
<time>2013-05-04T12:39:34.000Z</time>
</trkpt>
<trkpt lat="42.632982" lon="-2.394168">
<ele>1109</ele>
<time>2013-05-04T12:39:35.000Z</time>
</trkpt>
<trkpt lat="42.633013" lon="-2.394106">
<ele>1108</ele>
<time>2013-05-04T12:39:36.000Z</time>
</trkpt>
<trkpt lat="42.633045" lon="-2.394044">
<ele>1106</ele>
<time>2013-05-04T12:39:37.000Z</time>
</trkpt>
<trkpt lat="42.633079" lon="-2.393982">
<ele>1105</ele>
<time>2013-05-04T12:39:38.000Z</time>
</trkpt>
<trkpt lat="42.633113" lon="-2.393933">
<ele>1103</ele>
<time>2013-05-04T12:39:39.000Z</time>
</trkpt>
<trkpt lat="42.633165" lon="-2.393916">
<ele>1101</ele>
<time>2013-05-04T12:39:40.000Z</time>
</trkpt>
<trkpt lat="42.633208" lon="-2.393948">
<ele>1099</ele>
<time>2013-05-04T12:39:41.000Z</time>
</trkpt>
<trkpt lat="42.633222" lon="-2.39402">
<ele>1096</ele>
<time>2013-05-04T12:39:42.000Z</time>
</trkpt>
<trkpt lat="42.633203" lon="-2.394104">
<ele>1091</ele>
<time>2013-05-04T12:39:43.000Z</time>
</trkpt>
<trkpt lat="42.633166" lon="-2.394188">
<ele>1086</ele>
<time>2013-05-04T12:39:44.000Z</time>
</trkpt>
<trkpt lat="42.63313" lon="-2.39427">
<ele>1086</ele>
<time>2013-05-04T12:39:45.000Z</time>
</trkpt>
<trkpt lat="42.633099" lon="-2.394343">
<ele>1087</ele>
<time>2013-05-04T12:39:46.000Z</time>
</trkpt>
<trkpt lat="42.633069" lon="-2.394415">
<ele>1084</ele>
<time>2013-05-04T12:39:47.000Z</time>
</trkpt>
<trkpt lat="42.63304" lon="-2.394498">
<ele>1082</ele>
<time>2013-05-04T12:39:48.000Z</time>
</trkpt>
<trkpt lat="42.633006" lon="-2.394593">
<ele>1080</ele>
<time>2013-05-04T12:39:49.000Z</time>
</trkpt>
<trkpt lat="42.632967" lon="-2.394682">
<ele>1081</ele>
<time>2013-05-04T12:39:50.000Z</time>
</trkpt>
<trkpt lat="42.632923" lon="-2.394763">
<ele>1078</ele>
<time>2013-05-04T12:39:51.000Z</time>
</trkpt>
<trkpt lat="42.63288" lon="-2.39483">
<ele>1079</ele>
<time>2013-05-04T12:39:52.000Z</time>
</trkpt>
<trkpt lat="42.63284" lon="-2.394899">
<ele>1079</ele>
<time>2013-05-04T12:39:53.000Z</time>
</trkpt>
<trkpt lat="42.632799" lon="-2.394972">
<ele>1080</ele>
<time>2013-05-04T12:39:54.000Z</time>
</trkpt>
<trkpt lat="42.632754" lon="-2.395059">
<ele>1081</ele>
<time>2013-05-04T12:39:55.000Z</time>
</trkpt>
<trkpt lat="42.632708" lon="-2.395146">
<ele>1080</ele>
<time>2013-05-04T12:39:56.000Z</time>
</trkpt>
<trkpt lat="42.632667" lon="-2.395238">
<ele>1079</ele>
<time>2013-05-04T12:39:57.000Z</time>
</trkpt>
<trkpt lat="42.632634" lon="-2.395334">
<ele>1077</ele>
<time>2013-05-04T12:39:58.000Z</time>
</trkpt>
<trkpt lat="42.632606" lon="-2.395434">
<ele>1075</ele>
<time>2013-05-04T12:39:59.000Z</time>
</trkpt>
<trkpt lat="42.632584" lon="-2.395535">
<ele>1073</ele>
<time>2013-05-04T12:40:00.000Z</time>
</trkpt>
<trkpt lat="42.632556" lon="-2.395643">
<ele>1073</ele>
<time>2013-05-04T12:40:01.000Z</time>
</trkpt>
<trkpt lat="42.632523" lon="-2.395754">
<ele>1069</ele>
<time>2013-05-04T12:40:02.000Z</time>
</trkpt>
<trkpt lat="42.632489" lon="-2.395863">
<ele>1065</ele>
<time>2013-05-04T12:40:03.000Z</time>
</trkpt>
<trkpt lat="42.63246" lon="-2.39595">
<ele>1064</ele>
<time>2013-05-04T12:40:04.000Z</time>
</trkpt>
<trkpt lat="42.632434" lon="-2.396023">
<ele>1064</ele>
<time>2013-05-04T12:40:05.000Z</time>
</trkpt>
<trkpt lat="42.632401" lon="-2.396115">
<ele>1062</ele>
<time>2013-05-04T12:40:06.000Z</time>
</trkpt>
<trkpt lat="42.632365" lon="-2.396208">
<ele>1059</ele>
<time>2013-05-04T12:40:07.000Z</time>
</trkpt>
<trkpt lat="42.632326" lon="-2.3963">
<ele>1059</ele>
<time>2013-05-04T12:40:08.000Z</time>
</trkpt>
<trkpt lat="42.632287" lon="-2.396379">
<ele>1057</ele>
<time>2013-05-04T12:40:09.000Z</time>
</trkpt>
<trkpt lat="42.632243" lon="-2.396455">
<ele>1057</ele>
<time>2013-05-04T12:40:10.000Z</time>
</trkpt>
<trkpt lat="42.632199" lon="-2.396528">
<ele>1058</ele>
<time>2013-05-04T12:40:11.000Z</time>
</trkpt>
<trkpt lat="42.632157" lon="-2.396602">
<ele>1056</ele>
<time>2013-05-04T12:40:12.000Z</time>
</trkpt>
<trkpt lat="42.632117" lon="-2.396683">
<ele>1055</ele>
<time>2013-05-04T12:40:13.000Z</time>
</trkpt>
<trkpt lat="42.632075" lon="-2.396777">
<ele>1056</ele>
<time>2013-05-04T12:40:14.000Z</time>
</trkpt>
<trkpt lat="42.632031" lon="-2.396862">
<ele>1054</ele>
<time>2013-05-04T12:40:15.000Z</time>
</trkpt>
<trkpt lat="42.631974" lon="-2.396932">
<ele>1053</ele>
<time>2013-05-04T12:40:16.000Z</time>
</trkpt>
<trkpt lat="42.631916" lon="-2.396999">
<ele>1053</ele>
<time>2013-05-04T12:40:17.000Z</time>
</trkpt>
<trkpt lat="42.631856" lon="-2.397067">
<ele>1052</ele>
<time>2013-05-04T12:40:18.000Z</time>
</trkpt>
<trkpt lat="42.631795" lon="-2.397136">
<ele>1051</ele>
<time>2013-05-04T12:40:19.000Z</time>
</trkpt>
<trkpt lat="42.631738" lon="-2.397206">
<ele>1050</ele>
<time>2013-05-04T12:40:20.000Z</time>
</trkpt>
<trkpt lat="42.631691" lon="-2.397273">
<ele>1050</ele>
<time>2013-05-04T12:40:21.000Z</time>
</trkpt>
<trkpt lat="42.631661" lon="-2.397339">
<ele>1049</ele>
<time>2013-05-04T12:40:22.000Z</time>
</trkpt>
<trkpt lat="42.631638" lon="-2.3974">
<ele>1048</ele>
<time>2013-05-04T12:40:23.000Z</time>
</trkpt>
<trkpt lat="42.631635" lon="-2.397466">
<ele>1047</ele>
<time>2013-05-04T12:40:24.000Z</time>
</trkpt>
<trkpt lat="42.631656" lon="-2.397528">
<ele>1044</ele>
<time>2013-05-04T12:40:25.000Z</time>
</trkpt>
<trkpt lat="42.63171" lon="-2.397578">
<ele>1042</ele>
<time>2013-05-04T12:40:26.000Z</time>
</trkpt>
<trkpt lat="42.631796" lon="-2.397598">
<ele>1040</ele>
<time>2013-05-04T12:40:27.000Z</time>
</trkpt>
<trkpt lat="42.631893" lon="-2.397568">
<ele>1038</ele>
<time>2013-05-04T12:40:28.000Z</time>
</trkpt>
<trkpt lat="42.631969" lon="-2.397489">
<ele>1038</ele>
<time>2013-05-04T12:40:29.000Z</time>
</trkpt>
<trkpt lat="42.632021" lon="-2.397373">
<ele>1037</ele>
<time>2013-05-04T12:40:30.000Z</time>
</trkpt>
<trkpt lat="42.632062" lon="-2.39725">
<ele>1038</ele>
<time>2013-05-04T12:40:31.000Z</time>
</trkpt>
<trkpt lat="42.632095" lon="-2.397144">
<ele>1037</ele>
<time>2013-05-04T12:40:32.000Z</time>
</trkpt>
<trkpt lat="42.632121" lon="-2.397048">
<ele>1034</ele>
<time>2013-05-04T12:40:33.000Z</time>
</trkpt>
<trkpt lat="42.632151" lon="-2.396936">
<ele>1031</ele>
<time>2013-05-04T12:40:34.000Z</time>
</trkpt>
<trkpt lat="42.632191" lon="-2.396796">
<ele>1029</ele>
<time>2013-05-04T12:40:35.000Z</time>
</trkpt>
<trkpt lat="42.632237" lon="-2.396645">
<ele>1029</ele>
<time>2013-05-04T12:40:36.000Z</time>
</trkpt>
<trkpt lat="42.632285" lon="-2.396504">
<ele>1029</ele>
<time>2013-05-04T12:40:37.000Z</time>
</trkpt>
<trkpt lat="42.632334" lon="-2.396376">
<ele>1029</ele>
<time>2013-05-04T12:40:38.000Z</time>
</trkpt>
<trkpt lat="42.632381" lon="-2.396256">
<ele>1029</ele>
<time>2013-05-04T12:40:39.000Z</time>
</trkpt>
<trkpt lat="42.632429" lon="-2.396135">
<ele>1030</ele>
<time>2013-05-04T12:40:40.000Z</time>
</trkpt>
<trkpt lat="42.632471" lon="-2.396018">
<ele>1031</ele>
<time>2013-05-04T12:40:41.000Z</time>
</trkpt>
<trkpt lat="42.632508" lon="-2.395916">
<ele>1032</ele>
<time>2013-05-04T12:40:42.000Z</time>
</trkpt>
<trkpt lat="42.632545" lon="-2.395807">
<ele>1032</ele>
<time>2013-05-04T12:40:43.000Z</time>
</trkpt>
<trkpt lat="42.632583" lon="-2.395691">
<ele>1031</ele>
<time>2013-05-04T12:40:44.000Z</time>
</trkpt>
<trkpt lat="42.63262" lon="-2.395565">
<ele>1031</ele>
<time>2013-05-04T12:40:45.000Z</time>
</trkpt>
<trkpt lat="42.632654" lon="-2.395438">
<ele>1032</ele>
<time>2013-05-04T12:40:46.000Z</time>
</trkpt>
<trkpt lat="42.632688" lon="-2.395314">
<ele>1032</ele>
<time>2013-05-04T12:40:47.000Z</time>
</trkpt>
<trkpt lat="42.632722" lon="-2.3952">
<ele>1032</ele>
<time>2013-05-04T12:40:48.000Z</time>
</trkpt>
<trkpt lat="42.632758" lon="-2.395091">
<ele>1033</ele>
<time>2013-05-04T12:40:49.000Z</time>
</trkpt>
<trkpt lat="42.632797" lon="-2.394991">
<ele>1034</ele>
<time>2013-05-04T12:40:50.000Z</time>
</trkpt>
<trkpt lat="42.632842" lon="-2.39489">
<ele>1035</ele>
<time>2013-05-04T12:40:51.000Z</time>
</trkpt>
<trkpt lat="42.632893" lon="-2.394785">
<ele>1036</ele>
<time>2013-05-04T12:40:52.000Z</time>
</trkpt>
<trkpt lat="42.63294" lon="-2.3947">
<ele>1037</ele>
<time>2013-05-04T12:40:53.000Z</time>
</trkpt>
<trkpt lat="42.632981" lon="-2.394624">
<ele>1037</ele>
<time>2013-05-04T12:40:54.000Z</time>
</trkpt>
<trkpt lat="42.633019" lon="-2.394553">
<ele>1037</ele>
<time>2013-05-04T12:40:55.000Z</time>
</trkpt>
<trkpt lat="42.633059" lon="-2.394497">
<ele>1031</ele>
<time>2013-05-04T12:40:56.000Z</time>
</trkpt>
<trkpt lat="42.633113" lon="-2.394403">
<ele>1032</ele>
<time>2013-05-04T12:40:57.000Z</time>
</trkpt>
<trkpt lat="42.633168" lon="-2.394302">
<ele>1033</ele>
<time>2013-05-04T12:40:58.000Z</time>
</trkpt>
<trkpt lat="42.633214" lon="-2.394211">
<ele>1036</ele>
<time>2013-05-04T12:40:59.000Z</time>
</trkpt>
<trkpt lat="42.633251" lon="-2.394137">
<ele>1039</ele>
<time>2013-05-04T12:41:00.000Z</time>
</trkpt>
<trkpt lat="42.633274" lon="-2.394091">
<ele>1044</ele>
<time>2013-05-04T12:41:01.000Z</time>
</trkpt>
<trkpt lat="42.633293" lon="-2.394076">
<ele>1046</ele>
<time>2013-05-04T12:41:02.000Z</time>
</trkpt>
<trkpt lat="42.633316" lon="-2.394083">
<ele>1048</ele>
<time>2013-05-04T12:41:03.000Z</time>
</trkpt>
<trkpt lat="42.633343" lon="-2.394101">
<ele>1049</ele>
<time>2013-05-04T12:41:04.000Z</time>
</trkpt>
<trkpt lat="42.633376" lon="-2.394141">
<ele>1052</ele>
<time>2013-05-04T12:41:05.000Z</time>
</trkpt>
<trkpt lat="42.633386" lon="-2.394207">
<ele>1052</ele>
<time>2013-05-04T12:41:06.000Z</time>
</trkpt>
<trkpt lat="42.633364" lon="-2.394291">
<ele>1054</ele>
<time>2013-05-04T12:41:07.000Z</time>
</trkpt>
<trkpt lat="42.633313" lon="-2.394362">
<ele>1055</ele>
<time>2013-05-04T12:41:08.000Z</time>
</trkpt>
<trkpt lat="42.633234" lon="-2.394405">
<ele>1056</ele>
<time>2013-05-04T12:41:09.000Z</time>
</trkpt>
<trkpt lat="42.633151" lon="-2.394413">
<ele>1059</ele>
<time>2013-05-04T12:41:10.000Z</time>
</trkpt>
<trkpt lat="42.633086" lon="-2.394415">
<ele>1061</ele>
<time>2013-05-04T12:41:11.000Z</time>
</trkpt>
<trkpt lat="42.633028" lon="-2.394432">
<ele>1061</ele>
<time>2013-05-04T12:41:12.000Z</time>
</trkpt>
<trkpt lat="42.632977" lon="-2.394487">
<ele>1064</ele>
<time>2013-05-04T12:41:13.000Z</time>
</trkpt>
<trkpt lat="42.632963" lon="-2.394539">
<ele>1063</ele>
<time>2013-05-04T12:41:14.000Z</time>
</trkpt>
<trkpt lat="42.632965" lon="-2.39459">
<ele>1064</ele>
<time>2013-05-04T12:41:15.000Z</time>
</trkpt>
<trkpt lat="42.632988" lon="-2.394625">
<ele>1066</ele>
<time>2013-05-04T12:41:16.000Z</time>
</trkpt>
<trkpt lat="42.63303" lon="-2.394634">
<ele>1066</ele>
<time>2013-05-04T12:41:17.000Z</time>
</trkpt>
<trkpt lat="42.633089" lon="-2.394626">
<ele>1067</ele>
<time>2013-05-04T12:41:18.000Z</time>
</trkpt>
<trkpt lat="42.633156" lon="-2.394591">
<ele>1068</ele>
<time>2013-05-04T12:41:19.000Z</time>
</trkpt>
<trkpt lat="42.633216" lon="-2.394528">
<ele>1068</ele>
<time>2013-05-04T12:41:20.000Z</time>
</trkpt>
<trkpt lat="42.633259" lon="-2.39444">
<ele>1068</ele>
<time>2013-05-04T12:41:21.000Z</time>
</trkpt>
<trkpt lat="42.633303" lon="-2.394338">
<ele>1069</ele>
<time>2013-05-04T12:41:22.000Z</time>
</trkpt>
<trkpt lat="42.633335" lon="-2.394244">
<ele>1070</ele>
<time>2013-05-04T12:41:23.000Z</time>
</trkpt>
<trkpt lat="42.63335" lon="-2.394143">
<ele>1072</ele>
<time>2013-05-04T12:41:24.000Z</time>
</trkpt>
<trkpt lat="42.633363" lon="-2.394037">
<ele>1073</ele>
<time>2013-05-04T12:41:25.000Z</time>
</trkpt>
<trkpt lat="42.63337" lon="-2.393926">
<ele>1075</ele>
<time>2013-05-04T12:41:26.000Z</time>
</trkpt>
<trkpt lat="42.633375" lon="-2.393804">
<ele>1077</ele>
<time>2013-05-04T12:41:27.000Z</time>
</trkpt>
<trkpt lat="42.633376" lon="-2.393684">
<ele>1079</ele>
<time>2013-05-04T12:41:28.000Z</time>
</trkpt>
<trkpt lat="42.633376" lon="-2.393577">
<ele>1081</ele>
<time>2013-05-04T12:41:29.000Z</time>
</trkpt>
<trkpt lat="42.633377" lon="-2.393493">
<ele>1082</ele>
<time>2013-05-04T12:41:30.000Z</time>
</trkpt>
<trkpt lat="42.633379" lon="-2.393422">
<ele>1085</ele>
<time>2013-05-04T12:41:31.000Z</time>
</trkpt>
<trkpt lat="42.6334" lon="-2.393363">
<ele>1088</ele>
<time>2013-05-04T12:41:32.000Z</time>
</trkpt>
<trkpt lat="42.633426" lon="-2.393332">
<ele>1089</ele>
<time>2013-05-04T12:41:33.000Z</time>
</trkpt>
<trkpt lat="42.633459" lon="-2.393332">
<ele>1091</ele>
<time>2013-05-04T12:41:34.000Z</time>
</trkpt>
<trkpt lat="42.633489" lon="-2.393372">
<ele>1094</ele>
<time>2013-05-04T12:41:35.000Z</time>
</trkpt>
<trkpt lat="42.633498" lon="-2.393435">
<ele>1093</ele>
<time>2013-05-04T12:41:36.000Z</time>
</trkpt>
<trkpt lat="42.633486" lon="-2.393493">
<ele>1092</ele>
<time>2013-05-04T12:41:37.000Z</time>
</trkpt>
<trkpt lat="42.63346" lon="-2.393555">
<ele>1092</ele>
<time>2013-05-04T12:41:38.000Z</time>
</trkpt>
<trkpt lat="42.633407" lon="-2.393624">
<ele>1095</ele>
<time>2013-05-04T12:41:39.000Z</time>
</trkpt>
<trkpt lat="42.633341" lon="-2.393679">
<ele>1095</ele>
<time>2013-05-04T12:41:40.000Z</time>
</trkpt>
<trkpt lat="42.633259" lon="-2.393712">
<ele>1096</ele>
<time>2013-05-04T12:41:41.000Z</time>
</trkpt>
<trkpt lat="42.63317" lon="-2.39371">
<ele>1097</ele>
<time>2013-05-04T12:41:42.000Z</time>
</trkpt>
<trkpt lat="42.633084" lon="-2.393651">
<ele>1099</ele>
<time>2013-05-04T12:41:43.000Z</time>
</trkpt>
<trkpt lat="42.633006" lon="-2.393543">
<ele>1099</ele>
<time>2013-05-04T12:41:44.000Z</time>
</trkpt>
<trkpt lat="42.632957" lon="-2.393415">
<ele>1098</ele>
<time>2013-05-04T12:41:45.000Z</time>
</trkpt>
<trkpt lat="42.632917" lon="-2.393294">
<ele>1099</ele>
<time>2013-05-04T12:41:46.000Z</time>
</trkpt>
<trkpt lat="42.632889" lon="-2.393172">
<ele>1102</ele>
<time>2013-05-04T12:41:47.000Z</time>
</trkpt>
<trkpt lat="42.632885" lon="-2.393064">
<ele>1104</ele>
<time>2013-05-04T12:41:48.000Z</time>
</trkpt>
<trkpt lat="42.632882" lon="-2.39297">
<ele>1106</ele>
<time>2013-05-04T12:41:49.000Z</time>
</trkpt>
<trkpt lat="42.632892" lon="-2.392882">
<ele>1107</ele>
<time>2013-05-04T12:41:50.000Z</time>
</trkpt>
<trkpt lat="42.63292" lon="-2.392803">
<ele>1108</ele>
<time>2013-05-04T12:41:51.000Z</time>
</trkpt>
<trkpt lat="42.632963" lon="-2.392757">
<ele>1108</ele>
<time>2013-05-04T12:41:52.000Z</time>
</trkpt>
<trkpt lat="42.633014" lon="-2.392751">
<ele>1106</ele>
<time>2013-05-04T12:41:53.000Z</time>
</trkpt>
<trkpt lat="42.633058" lon="-2.392786">
<ele>1106</ele>
<time>2013-05-04T12:41:54.000Z</time>
</trkpt>
<trkpt lat="42.633095" lon="-2.392826">
<ele>1107</ele>
<time>2013-05-04T12:41:55.000Z</time>
</trkpt>
<trkpt lat="42.633105" lon="-2.392882">
<ele>1112</ele>
<time>2013-05-04T12:41:56.000Z</time>
</trkpt>
<trkpt lat="42.633107" lon="-2.392919">
<ele>1117</ele>
<time>2013-05-04T12:41:57.000Z</time>
</trkpt>
<trkpt lat="42.633107" lon="-2.392949">
<ele>1119</ele>
<time>2013-05-04T12:41:58.000Z</time>
</trkpt>
<trkpt lat="42.633106" lon="-2.39299">
<ele>1121</ele>
<time>2013-05-04T12:41:59.000Z</time>
</trkpt>
<trkpt lat="42.633104" lon="-2.393062">
<ele>1122</ele>
<time>2013-05-04T12:42:00.000Z</time>
</trkpt>
<trkpt lat="42.6331" lon="-2.393136">
<ele>1123</ele>
<time>2013-05-04T12:42:01.000Z</time>
</trkpt>
<trkpt lat="42.633099" lon="-2.393211">
<ele>1124</ele>
<time>2013-05-04T12:42:02.000Z</time>
</trkpt>
<trkpt lat="42.633113" lon="-2.393275">
<ele>1125</ele>
<time>2013-05-04T12:42:03.000Z</time>
</trkpt>
<trkpt lat="42.633128" lon="-2.393342">
<ele>1127</ele>
<time>2013-05-04T12:42:04.000Z</time>
</trkpt>
<trkpt lat="42.63313" lon="-2.393397">
<ele>1128</ele>
<time>2013-05-04T12:42:05.000Z</time>
</trkpt>
<trkpt lat="42.633114" lon="-2.393456">
<ele>1129</ele>
<time>2013-05-04T12:42:06.000Z</time>
</trkpt>
<trkpt lat="42.633095" lon="-2.393521">
<ele>1130</ele>
<time>2013-05-04T12:42:07.000Z</time>
</trkpt>
<trkpt lat="42.633074" lon="-2.393586">
<ele>1131</ele>
<time>2013-05-04T12:42:08.000Z</time>
</trkpt>
<trkpt lat="42.633051" lon="-2.393648">
<ele>1132</ele>
<time>2013-05-04T12:42:09.000Z</time>
</trkpt>
<trkpt lat="42.633026" lon="-2.393716">
<ele>1132</ele>
<time>2013-05-04T12:42:10.000Z</time>
</trkpt>
<trkpt lat="42.633003" lon="-2.393789">
<ele>1133</ele>
<time>2013-05-04T12:42:11.000Z</time>
</trkpt>
<trkpt lat="42.632975" lon="-2.393854">
<ele>1122</ele>
<time>2013-05-04T12:42:12.000Z</time>
</trkpt>
<trkpt lat="42.632968" lon="-2.393909">
<ele>1123</ele>
<time>2013-05-04T12:42:13.000Z</time>
</trkpt>
<trkpt lat="42.633024" lon="-2.393989">
<ele>1127</ele>
<time>2013-05-04T12:42:15.000Z</time>
</trkpt>
<trkpt lat="42.633059" lon="-2.394">
<ele>1131</ele>
<time>2013-05-04T12:42:16.000Z</time>
</trkpt>
<trkpt lat="42.633096" lon="-2.393986">
<ele>1135</ele>
<time>2013-05-04T12:42:17.000Z</time>
</trkpt>
<trkpt lat="42.633131" lon="-2.393951">
<ele>1138</ele>
<time>2013-05-04T12:42:18.000Z</time>
</trkpt>
<trkpt lat="42.633167" lon="-2.393908">
<ele>1140</ele>
<time>2013-05-04T12:42:19.000Z</time>
</trkpt>
<trkpt lat="42.633199" lon="-2.393845">
<ele>1144</ele>
<time>2013-05-04T12:42:20.000Z</time>
</trkpt>
<trkpt lat="42.633233" lon="-2.393761">
<ele>1144</ele>
<time>2013-05-04T12:42:21.000Z</time>
</trkpt>
<trkpt lat="42.633248" lon="-2.393658">
<ele>1144</ele>
<time>2013-05-04T12:42:22.000Z</time>
</trkpt>
<trkpt lat="42.633242" lon="-2.393553">
<ele>1146</ele>
<time>2013-05-04T12:42:23.000Z</time>
</trkpt>
<trkpt lat="42.633217" lon="-2.393447">
<ele>1147</ele>
<time>2013-05-04T12:42:24.000Z</time>
</trkpt>
<trkpt lat="42.633193" lon="-2.393353">
<ele>1148</ele>
<time>2013-05-04T12:42:25.000Z</time>
</trkpt>
<trkpt lat="42.633188" lon="-2.393253">
<ele>1152</ele>
<time>2013-05-04T12:42:26.000Z</time>
</trkpt>
<trkpt lat="42.633188" lon="-2.393164">
<ele>1154</ele>
<time>2013-05-04T12:42:27.000Z</time>
</trkpt>
<trkpt lat="42.633194" lon="-2.393084">
<ele>1156</ele>
<time>2013-05-04T12:42:28.000Z</time>
</trkpt>
<trkpt lat="42.633202" lon="-2.393014">
<ele>1157</ele>
<time>2013-05-04T12:42:29.000Z</time>
</trkpt>
<trkpt lat="42.633228" lon="-2.392954">
<ele>1158</ele>
<time>2013-05-04T12:42:30.000Z</time>
</trkpt>
<trkpt lat="42.633274" lon="-2.392931">
<ele>1157</ele>
<time>2013-05-04T12:42:31.000Z</time>
</trkpt>
<trkpt lat="42.633331" lon="-2.392951">
<ele>1154</ele>
<time>2013-05-04T12:42:32.000Z</time>
</trkpt>
<trkpt lat="42.63335" lon="-2.393018">
<ele>1150</ele>
<time>2013-05-04T12:42:33.000Z</time>
</trkpt>
<trkpt lat="42.633355" lon="-2.393129">
<ele>1149</ele>
<time>2013-05-04T12:42:34.000Z</time>
</trkpt>
<trkpt lat="42.633322" lon="-2.39326">
<ele>1148</ele>
<time>2013-05-04T12:42:35.000Z</time>
</trkpt>
<trkpt lat="42.633293" lon="-2.393352">
<ele>1149</ele>
<time>2013-05-04T12:42:36.000Z</time>
</trkpt>
<trkpt lat="42.633273" lon="-2.393431">
<ele>1150</ele>
<time>2013-05-04T12:42:37.000Z</time>
</trkpt>
<trkpt lat="42.633254" lon="-2.393513">
<ele>1152</ele>
<time>2013-05-04T12:42:38.000Z</time>
</trkpt>
<trkpt lat="42.633236" lon="-2.3936">
<ele>1152</ele>
<time>2013-05-04T12:42:39.000Z</time>
</trkpt>
<trkpt lat="42.633217" lon="-2.39368">
<ele>1154</ele>
<time>2013-05-04T12:42:40.000Z</time>
</trkpt>
<trkpt lat="42.633183" lon="-2.393751">
<ele>1156</ele>
<time>2013-05-04T12:42:41.000Z</time>
</trkpt>
<trkpt lat="42.633143" lon="-2.393825">
<ele>1159</ele>
<time>2013-05-04T12:42:42.000Z</time>
</trkpt>
<trkpt lat="42.633096" lon="-2.393901">
<ele>1161</ele>
<time>2013-05-04T12:42:43.000Z</time>
</trkpt>
<trkpt lat="42.633046" lon="-2.393981">
<ele>1162</ele>
<time>2013-05-04T12:42:44.000Z</time>
</trkpt>
<trkpt lat="42.632986" lon="-2.39407">
<ele>1164</ele>
<time>2013-05-04T12:42:45.000Z</time>
</trkpt>
<trkpt lat="42.632928" lon="-2.394154">
<ele>1165</ele>
<time>2013-05-04T12:42:46.000Z</time>
</trkpt>
<trkpt lat="42.632881" lon="-2.394229">
<ele>1166</ele>
<time>2013-05-04T12:42:47.000Z</time>
</trkpt>
<trkpt lat="42.632865" lon="-2.394298">
<ele>1167</ele>
<time>2013-05-04T12:42:48.000Z</time>
</trkpt>
<trkpt lat="42.632873" lon="-2.394358">
<ele>1167</ele>
<time>2013-05-04T12:42:49.000Z</time>
</trkpt>
<trkpt lat="42.632889" lon="-2.394421">
<ele>1168</ele>
<time>2013-05-04T12:42:50.000Z</time>
</trkpt>
<trkpt lat="42.632905" lon="-2.394476">
<ele>1169</ele>
<time>2013-05-04T12:42:51.000Z</time>
</trkpt>
<trkpt lat="42.632936" lon="-2.394515">
<ele>1171</ele>
<time>2013-05-04T12:42:52.000Z</time>
</trkpt>
<trkpt lat="42.632975" lon="-2.39453">
<ele>1172</ele>
<time>2013-05-04T12:42:53.000Z</time>
</trkpt>
<trkpt lat="42.633019" lon="-2.394508">
<ele>1172</ele>
<time>2013-05-04T12:42:54.000Z</time>
</trkpt>
<trkpt lat="42.63306" lon="-2.394448">
<ele>1173</ele>
<time>2013-05-04T12:42:55.000Z</time>
</trkpt>
<trkpt lat="42.633086" lon="-2.394368">
<ele>1174</ele>
<time>2013-05-04T12:42:56.000Z</time>
</trkpt>
<trkpt lat="42.633092" lon="-2.394275">
<ele>1175</ele>
<time>2013-05-04T12:42:57.000Z</time>
</trkpt>
<trkpt lat="42.633093" lon="-2.394173">
<ele>1175</ele>
<time>2013-05-04T12:42:58.000Z</time>
</trkpt>
<trkpt lat="42.633096" lon="-2.394083">
<ele>1176</ele>
<time>2013-05-04T12:42:59.000Z</time>
</trkpt>
<trkpt lat="42.633128" lon="-2.394017">
<ele>1177</ele>
<time>2013-05-04T12:43:00.000Z</time>
</trkpt>
<trkpt lat="42.633176" lon="-2.394009">
<ele>1179</ele>
<time>2013-05-04T12:43:01.000Z</time>
</trkpt>
<trkpt lat="42.633216" lon="-2.39404">
<ele>1180</ele>
<time>2013-05-04T12:43:02.000Z</time>
</trkpt>
<trkpt lat="42.633255" lon="-2.394068">
<ele>1182</ele>
<time>2013-05-04T12:43:03.000Z</time>
</trkpt>
<trkpt lat="42.633298" lon="-2.394084">
<ele>1183</ele>
<time>2013-05-04T12:43:04.000Z</time>
</trkpt>
<trkpt lat="42.633338" lon="-2.394099">
<ele>1185</ele>
<time>2013-05-04T12:43:05.000Z</time>
</trkpt>
<trkpt lat="42.633367" lon="-2.394138">
<ele>1185</ele>
<time>2013-05-04T12:43:06.000Z</time>
</trkpt>
<trkpt lat="42.633384" lon="-2.394194">
<ele>1186</ele>
<time>2013-05-04T12:43:07.000Z</time>
</trkpt>
<trkpt lat="42.63339" lon="-2.394273">
<ele>1188</ele>
<time>2013-05-04T12:43:08.000Z</time>
</trkpt>
<trkpt lat="42.633373" lon="-2.394347">
<ele>1188</ele>
<time>2013-05-04T12:43:09.000Z</time>
</trkpt>
<trkpt lat="42.633334" lon="-2.394412">
<ele>1188</ele>
<time>2013-05-04T12:43:10.000Z</time>
</trkpt>
<trkpt lat="42.633273" lon="-2.394471">
<ele>1188</ele>
<time>2013-05-04T12:43:11.000Z</time>
</trkpt>
<trkpt lat="42.633208" lon="-2.394521">
<ele>1191</ele>
<time>2013-05-04T12:43:12.000Z</time>
</trkpt>
<trkpt lat="42.633143" lon="-2.394536">
<ele>1192</ele>
<time>2013-05-04T12:43:13.000Z</time>
</trkpt>
<trkpt lat="42.633078" lon="-2.394548">
<ele>1193</ele>
<time>2013-05-04T12:43:14.000Z</time>
</trkpt>
<trkpt lat="42.633014" lon="-2.394558">
<ele>1193</ele>
<time>2013-05-04T12:43:15.000Z</time>
</trkpt>
<trkpt lat="42.632951" lon="-2.394569">
<ele>1194</ele>
<time>2013-05-04T12:43:16.000Z</time>
</trkpt>
<trkpt lat="42.632882" lon="-2.394589">
<ele>1195</ele>
<time>2013-05-04T12:43:17.000Z</time>
</trkpt>
<trkpt lat="42.632817" lon="-2.394617">
<ele>1196</ele>
<time>2013-05-04T12:43:18.000Z</time>
</trkpt>
<trkpt lat="42.632764" lon="-2.394669">
<ele>1198</ele>
<time>2013-05-04T12:43:19.000Z</time>
</trkpt>
<trkpt lat="42.632728" lon="-2.394731">
<ele>1197</ele>
<time>2013-05-04T12:43:20.000Z</time>
</trkpt>
<trkpt lat="42.632695" lon="-2.394797">
<ele>1198</ele>
<time>2013-05-04T12:43:21.000Z</time>
</trkpt>
<trkpt lat="42.632677" lon="-2.394871">
<ele>1198</ele>
<time>2013-05-04T12:43:22.000Z</time>
</trkpt>
<trkpt lat="42.632674" lon="-2.394941">
<ele>1197</ele>
<time>2013-05-04T12:43:23.000Z</time>
</trkpt>
<trkpt lat="42.632698" lon="-2.394993">
<ele>1196</ele>
<time>2013-05-04T12:43:24.000Z</time>
</trkpt>
<trkpt lat="42.632743" lon="-2.395034">
<ele>1195</ele>
<time>2013-05-04T12:43:25.000Z</time>
</trkpt>
<trkpt lat="42.632807" lon="-2.395054">
<ele>1195</ele>
<time>2013-05-04T12:43:26.000Z</time>
</trkpt>
<trkpt lat="42.632874" lon="-2.395042">
<ele>1197</ele>
<time>2013-05-04T12:43:27.000Z</time>
</trkpt>
<trkpt lat="42.632925" lon="-2.394999">
<ele>1197</ele>
<time>2013-05-04T12:43:28.000Z</time>
</trkpt>
<trkpt lat="42.632967" lon="-2.394922">
<ele>1198</ele>
<time>2013-05-04T12:43:29.000Z</time>
</trkpt>
<trkpt lat="42.633013" lon="-2.394819">
<ele>1199</ele>
<time>2013-05-04T12:43:30.000Z</time>
</trkpt>
<trkpt lat="42.633055" lon="-2.394696">
<ele>1198</ele>
<time>2013-05-04T12:43:31.000Z</time>
</trkpt>
<trkpt lat="42.633073" lon="-2.394566">
<ele>1198</ele>
<time>2013-05-04T12:43:32.000Z</time>
</trkpt>
<trkpt lat="42.633086" lon="-2.394446">
<ele>1198</ele>
<time>2013-05-04T12:43:33.000Z</time>
</trkpt>
<trkpt lat="42.633097" lon="-2.394336">
<ele>1199</ele>
<time>2013-05-04T12:43:34.000Z</time>
</trkpt>
<trkpt lat="42.633114" lon="-2.39424">
<ele>1200</ele>
<time>2013-05-04T12:43:35.000Z</time>
</trkpt>
<trkpt lat="42.633149" lon="-2.394151">
<ele>1200</ele>
<time>2013-05-04T12:43:36.000Z</time>
</trkpt>
<trkpt lat="42.633183" lon="-2.394063">
<ele>1200</ele>
<time>2013-05-04T12:43:37.000Z</time>
</trkpt>
<trkpt lat="42.633213" lon="-2.393971">
<ele>1200</ele>
<time>2013-05-04T12:43:38.000Z</time>
</trkpt>
<trkpt lat="42.633224" lon="-2.393866">
<ele>1200</ele>
<time>2013-05-04T12:43:39.000Z</time>
</trkpt>
<trkpt lat="42.633233" lon="-2.393756">
<ele>1200</ele>
<time>2013-05-04T12:43:40.000Z</time>
</trkpt>
<trkpt lat="42.633242" lon="-2.393651">
<ele>1199</ele>
<time>2013-05-04T12:43:41.000Z</time>
</trkpt>
<trkpt lat="42.633249" lon="-2.393557">
<ele>1199</ele>
<time>2013-05-04T12:43:42.000Z</time>
</trkpt>
<trkpt lat="42.633259" lon="-2.393469">
<ele>1199</ele>
<time>2013-05-04T12:43:43.000Z</time>
</trkpt>
<trkpt lat="42.63327" lon="-2.393381">
<ele>1198</ele>
<time>2013-05-04T12:43:44.000Z</time>
</trkpt>
<trkpt lat="42.633285" lon="-2.393287">
<ele>1197</ele>
<time>2013-05-04T12:43:45.000Z</time>
</trkpt>
<trkpt lat="42.633304" lon="-2.393188">
<ele>1197</ele>
<time>2013-05-04T12:43:46.000Z</time>
</trkpt>
<trkpt lat="42.633331" lon="-2.393084">
<ele>1197</ele>
<time>2013-05-04T12:43:47.000Z</time>
</trkpt>
<trkpt lat="42.633363" lon="-2.392975">
<ele>1198</ele>
<time>2013-05-04T12:43:48.000Z</time>
</trkpt>
<trkpt lat="42.633398" lon="-2.392865">
<ele>1199</ele>
<time>2013-05-04T12:43:49.000Z</time>
</trkpt>
<trkpt lat="42.633433" lon="-2.392762">
<ele>1201</ele>
<time>2013-05-04T12:43:50.000Z</time>
</trkpt>
<trkpt lat="42.633456" lon="-2.392673">
<ele>1203</ele>
<time>2013-05-04T12:43:51.000Z</time>
</trkpt>
<trkpt lat="42.633474" lon="-2.392589">
<ele>1205</ele>
<time>2013-05-04T12:43:52.000Z</time>
</trkpt>
<trkpt lat="42.633491" lon="-2.392501">
<ele>1207</ele>
<time>2013-05-04T12:43:53.000Z</time>
</trkpt>
<trkpt lat="42.633506" lon="-2.392405">
<ele>1209</ele>
<time>2013-05-04T12:43:54.000Z</time>
</trkpt>
<trkpt lat="42.633518" lon="-2.392311">
<ele>1210</ele>
<time>2013-05-04T12:43:55.000Z</time>
</trkpt>
<trkpt lat="42.633533" lon="-2.392223">
<ele>1211</ele>
<time>2013-05-04T12:43:56.000Z</time>
</trkpt>
<trkpt lat="42.63355" lon="-2.392149">
<ele>1211</ele>
<time>2013-05-04T12:43:57.000Z</time>
</trkpt>
<trkpt lat="42.633569" lon="-2.392078">
<ele>1210</ele>
<time>2013-05-04T12:43:58.000Z</time>
</trkpt>
<trkpt lat="42.633604" lon="-2.392013">
<ele>1209</ele>
<time>2013-05-04T12:43:59.000Z</time>
</trkpt>
<trkpt lat="42.63366" lon="-2.391972">
<ele>1207</ele>
<time>2013-05-04T12:44:00.000Z</time>
</trkpt>
<trkpt lat="42.633718" lon="-2.391972">
<ele>1207</ele>
<time>2013-05-04T12:44:01.000Z</time>
</trkpt>
<trkpt lat="42.633773" lon="-2.392022">
<ele>1205</ele>
<time>2013-05-04T12:44:02.000Z</time>
</trkpt>
<trkpt lat="42.633818" lon="-2.392122">
<ele>1204</ele>
<time>2013-05-04T12:44:03.000Z</time>
</trkpt>
<trkpt lat="42.633823" lon="-2.392233">
<ele>1202</ele>
<time>2013-05-04T12:44:04.000Z</time>
</trkpt>
<trkpt lat="42.633819" lon="-2.392336">
<ele>1202</ele>
<time>2013-05-04T12:44:05.000Z</time>
</trkpt>
<trkpt lat="42.63379" lon="-2.392424">
<ele>1200</ele>
<time>2013-05-04T12:44:06.000Z</time>
</trkpt>
<trkpt lat="42.633757" lon="-2.392503">
<ele>1198</ele>
<time>2013-05-04T12:44:07.000Z</time>
</trkpt>
<trkpt lat="42.633701" lon="-2.392579">
<ele>1197</ele>
<time>2013-05-04T12:44:08.000Z</time>
</trkpt>
<trkpt lat="42.633637" lon="-2.392662">
<ele>1195</ele>
<time>2013-05-04T12:44:09.000Z</time>
</trkpt>
<trkpt lat="42.633562" lon="-2.392754">
<ele>1193</ele>
<time>2013-05-04T12:44:10.000Z</time>
</trkpt>
<trkpt lat="42.633485" lon="-2.39285">
<ele>1191</ele>
<time>2013-05-04T12:44:11.000Z</time>
</trkpt>
<trkpt lat="42.633405" lon="-2.392946">
<ele>1191</ele>
<time>2013-05-04T12:44:12.000Z</time>
</trkpt>
<trkpt lat="42.633325" lon="-2.393039">
<ele>1193</ele>
<time>2013-05-04T12:44:13.000Z</time>
</trkpt>
<trkpt lat="42.633199" lon="-2.393197">
<ele>1197</ele>
<time>2013-05-04T12:44:15.000Z</time>
</trkpt>
<trkpt lat="42.633157" lon="-2.393259">
<ele>1199</ele>
<time>2013-05-04T12:44:16.000Z</time>
</trkpt>
<trkpt lat="42.633126" lon="-2.393301">
<ele>1201</ele>
<time>2013-05-04T12:44:17.000Z</time>
</trkpt>
<trkpt lat="42.633088" lon="-2.393343">
<ele>1202</ele>
<time>2013-05-04T12:44:18.000Z</time>
</trkpt>
<trkpt lat="42.633044" lon="-2.393397">
<ele>1202</ele>
<time>2013-05-04T12:44:19.000Z</time>
</trkpt>
<trkpt lat="42.633017" lon="-2.393474">
<ele>1202</ele>
<time>2013-05-04T12:44:20.000Z</time>
</trkpt>
<trkpt lat="42.633012" lon="-2.393553">
<ele>1204</ele>
<time>2013-05-04T12:44:21.000Z</time>
</trkpt>
<trkpt lat="42.633029" lon="-2.393624">
<ele>1203</ele>
<time>2013-05-04T12:44:22.000Z</time>
</trkpt>
<trkpt lat="42.633059" lon="-2.393682">
<ele>1203</ele>
<time>2013-05-04T12:44:23.000Z</time>
</trkpt>
<trkpt lat="42.633102" lon="-2.393724">
<ele>1204</ele>
<time>2013-05-04T12:44:24.000Z</time>
</trkpt>
<trkpt lat="42.633149" lon="-2.393763">
<ele>1204</ele>
<time>2013-05-04T12:44:25.000Z</time>
</trkpt>
<trkpt lat="42.6332" lon="-2.393798">
<ele>1205</ele>
<time>2013-05-04T12:44:26.000Z</time>
</trkpt>
<trkpt lat="42.633256" lon="-2.393833">
<ele>1206</ele>
<time>2013-05-04T12:44:27.000Z</time>
</trkpt>
<trkpt lat="42.633319" lon="-2.393855">
<ele>1208</ele>
<time>2013-05-04T12:44:28.000Z</time>
</trkpt>
<trkpt lat="42.63338" lon="-2.39387">
<ele>1211</ele>
<time>2013-05-04T12:44:29.000Z</time>
</trkpt>
<trkpt lat="42.633442" lon="-2.393859">
<ele>1213</ele>
<time>2013-05-04T12:44:30.000Z</time>
</trkpt>
<trkpt lat="42.6335" lon="-2.393843">
<ele>1216</ele>
<time>2013-05-04T12:44:31.000Z</time>
</trkpt>
<trkpt lat="42.633554" lon="-2.393822">
<ele>1217</ele>
<time>2013-05-04T12:44:32.000Z</time>
</trkpt>
<trkpt lat="42.633606" lon="-2.39378">
<ele>1219</ele>
<time>2013-05-04T12:44:33.000Z</time>
</trkpt>
<trkpt lat="42.63365" lon="-2.393716">
<ele>1219</ele>
<time>2013-05-04T12:44:34.000Z</time>
</trkpt>
<trkpt lat="42.633684" lon="-2.393621">
<ele>1220</ele>
<time>2013-05-04T12:44:35.000Z</time>
</trkpt>
<trkpt lat="42.633688" lon="-2.393512">
<ele>1220</ele>
<time>2013-05-04T12:44:36.000Z</time>
</trkpt>
<trkpt lat="42.633664" lon="-2.393428">
<ele>1220</ele>
<time>2013-05-04T12:44:37.000Z</time>
</trkpt>
<trkpt lat="42.633617" lon="-2.393378">
<ele>1220</ele>
<time>2013-05-04T12:44:38.000Z</time>
</trkpt>
<trkpt lat="42.633552" lon="-2.393365">
<ele>1220</ele>
<time>2013-05-04T12:44:39.000Z</time>
</trkpt>
<trkpt lat="42.633477" lon="-2.393389">
<ele>1221</ele>
<time>2013-05-04T12:44:40.000Z</time>
</trkpt>
<trkpt lat="42.633397" lon="-2.393426">
<ele>1223</ele>
<time>2013-05-04T12:44:41.000Z</time>
</trkpt>
<trkpt lat="42.633326" lon="-2.393493">
<ele>1225</ele>
<time>2013-05-04T12:44:42.000Z</time>
</trkpt>
<trkpt lat="42.633267" lon="-2.393559">
<ele>1227</ele>
<time>2013-05-04T12:44:43.000Z</time>
</trkpt>
<trkpt lat="42.633215" lon="-2.393627">
<ele>1229</ele>
<time>2013-05-04T12:44:44.000Z</time>
</trkpt>
<trkpt lat="42.633161" lon="-2.393697">
<ele>1231</ele>
<time>2013-05-04T12:44:45.000Z</time>
</trkpt>
<trkpt lat="42.633106" lon="-2.393766">
<ele>1233</ele>
<time>2013-05-04T12:44:46.000Z</time>
</trkpt>
<trkpt lat="42.63305" lon="-2.393833">
<ele>1235</ele>
<time>2013-05-04T12:44:47.000Z</time>
</trkpt>
<trkpt lat="42.632997" lon="-2.393901">
<ele>1237</ele>
<time>2013-05-04T12:44:48.000Z</time>
</trkpt>
<trkpt lat="42.632961" lon="-2.393977">
<ele>1239</ele>
<time>2013-05-04T12:44:49.000Z</time>
</trkpt>
<trkpt lat="42.632929" lon="-2.394052">
<ele>1239</ele>
<time>2013-05-04T12:44:50.000Z</time>
</trkpt>
<trkpt lat="42.632899" lon="-2.39414">
<ele>1239</ele>
<time>2013-05-04T12:44:51.000Z</time>
</trkpt>
<trkpt lat="42.632884" lon="-2.394238">
<ele>1241</ele>
<time>2013-05-04T12:44:52.000Z</time>
</trkpt>
<trkpt lat="42.632874" lon="-2.394332">
<ele>1242</ele>
<time>2013-05-04T12:44:53.000Z</time>
</trkpt>
<trkpt lat="42.632892" lon="-2.394414">
<ele>1243</ele>
<time>2013-05-04T12:44:54.000Z</time>
</trkpt>
<trkpt lat="42.632925" lon="-2.394481">
<ele>1243</ele>
<time>2013-05-04T12:44:55.000Z</time>
</trkpt>
<trkpt lat="42.632955" lon="-2.394538">
<ele>1244</ele>
<time>2013-05-04T12:44:56.000Z</time>
</trkpt>
<trkpt lat="42.632993" lon="-2.394573">
<ele>1246</ele>
<time>2013-05-04T12:44:57.000Z</time>
</trkpt>
<trkpt lat="42.633035" lon="-2.394589">
<ele>1246</ele>
<time>2013-05-04T12:44:58.000Z</time>
</trkpt>
<trkpt lat="42.633059" lon="-2.394577">
<ele>1246</ele>
<time>2013-05-04T12:44:59.000Z</time>
</trkpt>
<trkpt lat="42.633078" lon="-2.394539">
<ele>1244</ele>
<time>2013-05-04T12:45:00.000Z</time>
</trkpt>
<trkpt lat="42.633096" lon="-2.394489">
<ele>1246</ele>
<time>2013-05-04T12:45:01.000Z</time>
</trkpt>
<trkpt lat="42.633104" lon="-2.394429">
<ele>1246</ele>
<time>2013-05-04T12:45:02.000Z</time>
</trkpt>
<trkpt lat="42.63311" lon="-2.394375">
<ele>1247</ele>
<time>2013-05-04T12:45:03.000Z</time>
</trkpt>
<trkpt lat="42.633115" lon="-2.394318">
<ele>1246</ele>
<time>2013-05-04T12:45:04.000Z</time>
</trkpt>
<trkpt lat="42.633124" lon="-2.39425">
<ele>1246</ele>
<time>2013-05-04T12:45:05.000Z</time>
</trkpt>
<trkpt lat="42.633139" lon="-2.394175">
<ele>1245</ele>
<time>2013-05-04T12:45:06.000Z</time>
</trkpt>
<trkpt lat="42.633153" lon="-2.394092">
<ele>1245</ele>
<time>2013-05-04T12:45:07.000Z</time>
</trkpt>
<trkpt lat="42.633165" lon="-2.394003">
<ele>1246</ele>
<time>2013-05-04T12:45:08.000Z</time>
</trkpt>
<trkpt lat="42.633179" lon="-2.393907">
<ele>1246</ele>
<time>2013-05-04T12:45:09.000Z</time>
</trkpt>
<trkpt lat="42.633191" lon="-2.393818">
<ele>1247</ele>
<time>2013-05-04T12:45:10.000Z</time>
</trkpt>
<trkpt lat="42.633199" lon="-2.393733">
<ele>1248</ele>
<time>2013-05-04T12:45:11.000Z</time>
</trkpt>
<trkpt lat="42.633201" lon="-2.393655">
<ele>1250</ele>
<time>2013-05-04T12:45:12.000Z</time>
</trkpt>
<trkpt lat="42.6332" lon="-2.393582">
<ele>1251</ele>
<time>2013-05-04T12:45:13.000Z</time>
</trkpt>
<trkpt lat="42.633212" lon="-2.393463">
<ele>1253</ele>
<time>2013-05-04T12:45:15.000Z</time>
</trkpt>
<trkpt lat="42.633241" lon="-2.393423">
<ele>1254</ele>
<time>2013-05-04T12:45:16.000Z</time>
</trkpt>
<trkpt lat="42.633275" lon="-2.393383">
<ele>1255</ele>
<time>2013-05-04T12:45:17.000Z</time>
</trkpt>
<trkpt lat="42.633314" lon="-2.393335">
<ele>1256</ele>
<time>2013-05-04T12:45:18.000Z</time>
</trkpt>
<trkpt lat="42.633356" lon="-2.393272">
<ele>1256</ele>
<time>2013-05-04T12:45:19.000Z</time>
</trkpt>
<trkpt lat="42.633394" lon="-2.393207">
<ele>1257</ele>
<time>2013-05-04T12:45:20.000Z</time>
</trkpt>
<trkpt lat="42.633426" lon="-2.393147">
<ele>1258</ele>
<time>2013-05-04T12:45:21.000Z</time>
</trkpt>
<trkpt lat="42.633457" lon="-2.393091">
<ele>1258</ele>
<time>2013-05-04T12:45:22.000Z</time>
</trkpt>
<trkpt lat="42.63349" lon="-2.393035">
<ele>1257</ele>
<time>2013-05-04T12:45:23.000Z</time>
</trkpt>
<trkpt lat="42.633528" lon="-2.39297">
<ele>1257</ele>
<time>2013-05-04T12:45:24.000Z</time>
</trkpt>
<trkpt lat="42.633569" lon="-2.392892">
<ele>1257</ele>
<time>2013-05-04T12:45:25.000Z</time>
</trkpt>
<trkpt lat="42.633614" lon="-2.39281">
<ele>1257</ele>
<time>2013-05-04T12:45:26.000Z</time>
</trkpt>
<trkpt lat="42.633656" lon="-2.392731">
<ele>1257</ele>
<time>2013-05-04T12:45:27.000Z</time>
</trkpt>
<trkpt lat="42.633692" lon="-2.392653">
<ele>1258</ele>
<time>2013-05-04T12:45:28.000Z</time>
</trkpt>
<trkpt lat="42.633701" lon="-2.392566">
<ele>1259</ele>
<time>2013-05-04T12:45:29.000Z</time>
</trkpt>
<trkpt lat="42.633694" lon="-2.392481">
<ele>1259</ele>
<time>2013-05-04T12:45:30.000Z</time>
</trkpt>
<trkpt lat="42.633691" lon="-2.392399">
<ele>1260</ele>
<time>2013-05-04T12:45:31.000Z</time>
</trkpt>
<trkpt lat="42.633711" lon="-2.392319">
<ele>1259</ele>
<time>2013-05-04T12:45:32.000Z</time>
</trkpt>
<trkpt lat="42.633752" lon="-2.392238">
<ele>1258</ele>
<time>2013-05-04T12:45:33.000Z</time>
</trkpt>
<trkpt lat="42.633791" lon="-2.392142">
<ele>1258</ele>
<time>2013-05-04T12:45:34.000Z</time>
</trkpt>
<trkpt lat="42.633808" lon="-2.392027">
<ele>1258</ele>
<time>2013-05-04T12:45:35.000Z</time>
</trkpt>
<trkpt lat="42.633823" lon="-2.391908">
<ele>1257</ele>
<time>2013-05-04T12:45:36.000Z</time>
</trkpt>
<trkpt lat="42.633836" lon="-2.3918">
<ele>1257</ele>
<time>2013-05-04T12:45:37.000Z</time>
</trkpt>
<trkpt lat="42.633856" lon="-2.391699">
<ele>1258</ele>
<time>2013-05-04T12:45:38.000Z</time>
</trkpt>
<trkpt lat="42.633882" lon="-2.391593">
<ele>1258</ele>
<time>2013-05-04T12:45:39.000Z</time>
</trkpt>
<trkpt lat="42.633911" lon="-2.39148">
<ele>1258</ele>
<time>2013-05-04T12:45:40.000Z</time>
</trkpt>
<trkpt lat="42.633936" lon="-2.391368">
<ele>1258</ele>
<time>2013-05-04T12:45:41.000Z</time>
</trkpt>
<trkpt lat="42.633967" lon="-2.391254">
<ele>1258</ele>
<time>2013-05-04T12:45:42.000Z</time>
</trkpt>
<trkpt lat="42.634" lon="-2.391151">
<ele>1258</ele>
<time>2013-05-04T12:45:43.000Z</time>
</trkpt>
<trkpt lat="42.634037" lon="-2.39105">
<ele>1257</ele>
<time>2013-05-04T12:45:44.000Z</time>
</trkpt>
<trkpt lat="42.634076" lon="-2.390942">
<ele>1258</ele>
<time>2013-05-04T12:45:45.000Z</time>
</trkpt>
<trkpt lat="42.63411" lon="-2.390846">
<ele>1259</ele>
<time>2013-05-04T12:45:46.000Z</time>
</trkpt>
<trkpt lat="42.634139" lon="-2.390773">
<ele>1257</ele>
<time>2013-05-04T12:45:47.000Z</time>
</trkpt>
<trkpt lat="42.634166" lon="-2.390715">
<ele>1258</ele>
<time>2013-05-04T12:45:48.000Z</time>
</trkpt>
<trkpt lat="42.634198" lon="-2.39065">
<ele>1258</ele>
<time>2013-05-04T12:45:49.000Z</time>
</trkpt>
<trkpt lat="42.634236" lon="-2.390573">
<ele>1256</ele>
<time>2013-05-04T12:45:50.000Z</time>
</trkpt>
<trkpt lat="42.634277" lon="-2.390487">
<ele>1256</ele>
<time>2013-05-04T12:45:51.000Z</time>
</trkpt>
<trkpt lat="42.634316" lon="-2.390394">
<ele>1256</ele>
<time>2013-05-04T12:45:52.000Z</time>
</trkpt>
<trkpt lat="42.634352" lon="-2.390301">
<ele>1257</ele>
<time>2013-05-04T12:45:53.000Z</time>
</trkpt>
<trkpt lat="42.634387" lon="-2.39021">
<ele>1257</ele>
<time>2013-05-04T12:45:54.000Z</time>
</trkpt>
<trkpt lat="42.634423" lon="-2.390128">
<ele>1256</ele>
<time>2013-05-04T12:45:55.000Z</time>
</trkpt>
<trkpt lat="42.634463" lon="-2.390052">
<ele>1251</ele>
<time>2013-05-04T12:45:56.000Z</time>
</trkpt>
<trkpt lat="42.634509" lon="-2.389976">
<ele>1249</ele>
<time>2013-05-04T12:45:57.000Z</time>
</trkpt>
<trkpt lat="42.634557" lon="-2.389909">
<ele>1248</ele>
<time>2013-05-04T12:45:58.000Z</time>
</trkpt>
<trkpt lat="42.634611" lon="-2.389869">
<ele>1248</ele>
<time>2013-05-04T12:45:59.000Z</time>
</trkpt>
<trkpt lat="42.634652" lon="-2.389841">
<ele>1246</ele>
<time>2013-05-04T12:46:00.000Z</time>
</trkpt>
<trkpt lat="42.634695" lon="-2.389811">
<ele>1245</ele>
<time>2013-05-04T12:46:01.000Z</time>
</trkpt>
<trkpt lat="42.634743" lon="-2.389769">
<ele>1241</ele>
<time>2013-05-04T12:46:02.000Z</time>
</trkpt>
<trkpt lat="42.634772" lon="-2.3897">
<ele>1238</ele>
<time>2013-05-04T12:46:03.000Z</time>
</trkpt>
<trkpt lat="42.634805" lon="-2.389624">
<ele>1234</ele>
<time>2013-05-04T12:46:04.000Z</time>
</trkpt>
<trkpt lat="42.634831" lon="-2.389553">
<ele>1233</ele>
<time>2013-05-04T12:46:05.000Z</time>
</trkpt>
<trkpt lat="42.634852" lon="-2.389481">
<ele>1232</ele>
<time>2013-05-04T12:46:06.000Z</time>
</trkpt>
<trkpt lat="42.634858" lon="-2.389401">
<ele>1230</ele>
<time>2013-05-04T12:46:07.000Z</time>
</trkpt>
<trkpt lat="42.634862" lon="-2.389313">
<ele>1229</ele>
<time>2013-05-04T12:46:08.000Z</time>
</trkpt>
<trkpt lat="42.634866" lon="-2.389222">
<ele>1227</ele>
<time>2013-05-04T12:46:09.000Z</time>
</trkpt>
<trkpt lat="42.63487" lon="-2.389133">
<ele>1225</ele>
<time>2013-05-04T12:46:10.000Z</time>
</trkpt>
<trkpt lat="42.634879" lon="-2.38905">
<ele>1224</ele>
<time>2013-05-04T12:46:11.000Z</time>
</trkpt>
<trkpt lat="42.634891" lon="-2.38897">
<ele>1223</ele>
<time>2013-05-04T12:46:12.000Z</time>
</trkpt>
<trkpt lat="42.634902" lon="-2.388887">
<ele>1222</ele>
<time>2013-05-04T12:46:13.000Z</time>
</trkpt>
<trkpt lat="42.634912" lon="-2.388709">
<ele>1221</ele>
<time>2013-05-04T12:46:15.000Z</time>
</trkpt>
<trkpt lat="42.634914" lon="-2.388629">
<ele>1220</ele>
<time>2013-05-04T12:46:16.000Z</time>
</trkpt>
<trkpt lat="42.634919" lon="-2.388554">
<ele>1219</ele>
<time>2013-05-04T12:46:17.000Z</time>
</trkpt>
<trkpt lat="42.634928" lon="-2.388479">
<ele>1218</ele>
<time>2013-05-04T12:46:18.000Z</time>
</trkpt>
<trkpt lat="42.634937" lon="-2.388406">
<ele>1217</ele>
<time>2013-05-04T12:46:19.000Z</time>
</trkpt>
<trkpt lat="42.634942" lon="-2.388319">
<ele>1215</ele>
<time>2013-05-04T12:46:20.000Z</time>
</trkpt>
<trkpt lat="42.634944" lon="-2.388222">
<ele>1213</ele>
<time>2013-05-04T12:46:21.000Z</time>
</trkpt>
<trkpt lat="42.634944" lon="-2.388117">
<ele>1211</ele>
<time>2013-05-04T12:46:22.000Z</time>
</trkpt>
<trkpt lat="42.634945" lon="-2.388018">
<ele>1211</ele>
<time>2013-05-04T12:46:23.000Z</time>
</trkpt>
<trkpt lat="42.634945" lon="-2.387934">
<ele>1210</ele>
<time>2013-05-04T12:46:24.000Z</time>
</trkpt>
<trkpt lat="42.634946" lon="-2.387868">
<ele>1209</ele>
<time>2013-05-04T12:46:25.000Z</time>
</trkpt>
<trkpt lat="42.634946" lon="-2.387804">
<ele>1208</ele>
<time>2013-05-04T12:46:26.000Z</time>
</trkpt>
<trkpt lat="42.634948" lon="-2.387734">
<ele>1206</ele>
<time>2013-05-04T12:46:27.000Z</time>
</trkpt>
<trkpt lat="42.634955" lon="-2.387654">
<ele>1205</ele>
<time>2013-05-04T12:46:28.000Z</time>
</trkpt>
<trkpt lat="42.634968" lon="-2.387572">
<ele>1203</ele>
<time>2013-05-04T12:46:29.000Z</time>
</trkpt>
<trkpt lat="42.634995" lon="-2.387495">
<ele>1202</ele>
<time>2013-05-04T12:46:30.000Z</time>
</trkpt>
<trkpt lat="42.63503" lon="-2.387435">
<ele>1201</ele>
<time>2013-05-04T12:46:31.000Z</time>
</trkpt>
<trkpt lat="42.635067" lon="-2.387397">
<ele>1199</ele>
<time>2013-05-04T12:46:32.000Z</time>
</trkpt>
<trkpt lat="42.635103" lon="-2.387363">
<ele>1198</ele>
<time>2013-05-04T12:46:33.000Z</time>
</trkpt>
<trkpt lat="42.635144" lon="-2.387325">
<ele>1196</ele>
<time>2013-05-04T12:46:34.000Z</time>
</trkpt>
<trkpt lat="42.635189" lon="-2.387274">
<ele>1194</ele>
<time>2013-05-04T12:46:35.000Z</time>
</trkpt>
<trkpt lat="42.635225" lon="-2.387206">
<ele>1192</ele>
<time>2013-05-04T12:46:36.000Z</time>
</trkpt>
<trkpt lat="42.635261" lon="-2.387136">
<ele>1191</ele>
<time>2013-05-04T12:46:37.000Z</time>
</trkpt>
<trkpt lat="42.63529" lon="-2.38707">
<ele>1191</ele>
<time>2013-05-04T12:46:38.000Z</time>
</trkpt>
<trkpt lat="42.635315" lon="-2.387011">
<ele>1190</ele>
<time>2013-05-04T12:46:39.000Z</time>
</trkpt>
<trkpt lat="42.635339" lon="-2.386954">
<ele>1189</ele>
<time>2013-05-04T12:46:40.000Z</time>
</trkpt>
<trkpt lat="42.635367" lon="-2.38689">
<ele>1187</ele>
<time>2013-05-04T12:46:41.000Z</time>
</trkpt>
<trkpt lat="42.635401" lon="-2.386815">
<ele>1185</ele>
<time>2013-05-04T12:46:42.000Z</time>
</trkpt>
<trkpt lat="42.635436" lon="-2.386738">
<ele>1183</ele>
<time>2013-05-04T12:46:43.000Z</time>
</trkpt>
<trkpt lat="42.635468" lon="-2.386667">
<ele>1182</ele>
<time>2013-05-04T12:46:44.000Z</time>
</trkpt>
<trkpt lat="42.635496" lon="-2.386607">
<ele>1180</ele>
<time>2013-05-04T12:46:45.000Z</time>
</trkpt>
<trkpt lat="42.635523" lon="-2.386543">
<ele>1178</ele>
<time>2013-05-04T12:46:46.000Z</time>
</trkpt>
<trkpt lat="42.635558" lon="-2.386461">
<ele>1175</ele>
<time>2013-05-04T12:46:47.000Z</time>
</trkpt>
<trkpt lat="42.635597" lon="-2.386365">
<ele>1173</ele>
<time>2013-05-04T12:46:48.000Z</time>
</trkpt>
<trkpt lat="42.63563" lon="-2.386277">
<ele>1173</ele>
<time>2013-05-04T12:46:49.000Z</time>
</trkpt>
<trkpt lat="42.635656" lon="-2.3862">
<ele>1174</ele>
<time>2013-05-04T12:46:50.000Z</time>
</trkpt>
<trkpt lat="42.635678" lon="-2.386133">
<ele>1174</ele>
<time>2013-05-04T12:46:51.000Z</time>
</trkpt>
<trkpt lat="42.6357" lon="-2.38606">
<ele>1173</ele>
<time>2013-05-04T12:46:52.000Z</time>
</trkpt>
<trkpt lat="42.635722" lon="-2.385979">
<ele>1172</ele>
<time>2013-05-04T12:46:53.000Z</time>
</trkpt>
<trkpt lat="42.635746" lon="-2.385899">
<ele>1171</ele>
<time>2013-05-04T12:46:54.000Z</time>
</trkpt>
<trkpt lat="42.63579" lon="-2.385831">
<ele>1169</ele>
<time>2013-05-04T12:46:55.000Z</time>
</trkpt>
<trkpt lat="42.635836" lon="-2.385765">
<ele>1168</ele>
<time>2013-05-04T12:46:56.000Z</time>
</trkpt>
<trkpt lat="42.635882" lon="-2.385697">
<ele>1166</ele>
<time>2013-05-04T12:46:57.000Z</time>
</trkpt>
<trkpt lat="42.635925" lon="-2.385621">
<ele>1164</ele>
<time>2013-05-04T12:46:58.000Z</time>
</trkpt>
<trkpt lat="42.635967" lon="-2.385534">
<ele>1162</ele>
<time>2013-05-04T12:46:59.000Z</time>
</trkpt>
<trkpt lat="42.636015" lon="-2.385442">
<ele>1160</ele>
<time>2013-05-04T12:47:00.000Z</time>
</trkpt>
<trkpt lat="42.636064" lon="-2.385353">
<ele>1159</ele>
<time>2013-05-04T12:47:01.000Z</time>
</trkpt>
<trkpt lat="42.636113" lon="-2.385275">
<ele>1158</ele>
<time>2013-05-04T12:47:02.000Z</time>
</trkpt>
<trkpt lat="42.636158" lon="-2.385205">
<ele>1157</ele>
<time>2013-05-04T12:47:03.000Z</time>
</trkpt>
<trkpt lat="42.636199" lon="-2.385136">
<ele>1155</ele>
<time>2013-05-04T12:47:04.000Z</time>
</trkpt>
<trkpt lat="42.636242" lon="-2.385061">
<ele>1153</ele>
<time>2013-05-04T12:47:05.000Z</time>
</trkpt>
<trkpt lat="42.636284" lon="-2.38498">
<ele>1151</ele>
<time>2013-05-04T12:47:06.000Z</time>
</trkpt>
<trkpt lat="42.636332" lon="-2.384892">
<ele>1149</ele>
<time>2013-05-04T12:47:07.000Z</time>
</trkpt>
<trkpt lat="42.636376" lon="-2.384798">
<ele>1147</ele>
<time>2013-05-04T12:47:08.000Z</time>
</trkpt>
<trkpt lat="42.636413" lon="-2.384702">
<ele>1146</ele>
<time>2013-05-04T12:47:09.000Z</time>
</trkpt>
<trkpt lat="42.636444" lon="-2.384607">
<ele>1145</ele>
<time>2013-05-04T12:47:10.000Z</time>
</trkpt>
<trkpt lat="42.636474" lon="-2.384519">
<ele>1144</ele>
<time>2013-05-04T12:47:11.000Z</time>
</trkpt>
<trkpt lat="42.636509" lon="-2.384432">
<ele>1142</ele>
<time>2013-05-04T12:47:12.000Z</time>
</trkpt>
<trkpt lat="42.636551" lon="-2.384337">
<ele>1140</ele>
<time>2013-05-04T12:47:13.000Z</time>
</trkpt>
<trkpt lat="42.636649" lon="-2.384122">
<ele>1137</ele>
<time>2013-05-04T12:47:15.000Z</time>
</trkpt>
<trkpt lat="42.636697" lon="-2.38401">
<ele>1135</ele>
<time>2013-05-04T12:47:16.000Z</time>
</trkpt>
<trkpt lat="42.636744" lon="-2.383901">
<ele>1135</ele>
<time>2013-05-04T12:47:17.000Z</time>
</trkpt>
<trkpt lat="42.636784" lon="-2.383805">
<ele>1134</ele>
<time>2013-05-04T12:47:18.000Z</time>
</trkpt>
<trkpt lat="42.636821" lon="-2.383713">
<ele>1133</ele>
<time>2013-05-04T12:47:19.000Z</time>
</trkpt>
<trkpt lat="42.63686" lon="-2.383618">
<ele>1131</ele>
<time>2013-05-04T12:47:20.000Z</time>
</trkpt>
<trkpt lat="42.636899" lon="-2.383516">
<ele>1130</ele>
<time>2013-05-04T12:47:21.000Z</time>
</trkpt>
<trkpt lat="42.636943" lon="-2.383398">
<ele>1130</ele>
<time>2013-05-04T12:47:22.000Z</time>
</trkpt>
<trkpt lat="42.636987" lon="-2.38328">
<ele>1131</ele>
<time>2013-05-04T12:47:23.000Z</time>
</trkpt>
<trkpt lat="42.637033" lon="-2.383178">
<ele>1133</ele>
<time>2013-05-04T12:47:24.000Z</time>
</trkpt>
<trkpt lat="42.63708" lon="-2.383088">
<ele>1134</ele>
<time>2013-05-04T12:47:25.000Z</time>
</trkpt>
<trkpt lat="42.637127" lon="-2.383008">
<ele>1136</ele>
<time>2013-05-04T12:47:26.000Z</time>
</trkpt>
<trkpt lat="42.637171" lon="-2.382933">
<ele>1137</ele>
<time>2013-05-04T12:47:27.000Z</time>
</trkpt>
<trkpt lat="42.637218" lon="-2.382861">
<ele>1137</ele>
<time>2013-05-04T12:47:28.000Z</time>
</trkpt>
<trkpt lat="42.637269" lon="-2.382796">
<ele>1137</ele>
<time>2013-05-04T12:47:29.000Z</time>
</trkpt>
<trkpt lat="42.637337" lon="-2.382753">
<ele>1137</ele>
<time>2013-05-04T12:47:30.000Z</time>
</trkpt>
<trkpt lat="42.637402" lon="-2.382741">
<ele>1137</ele>
<time>2013-05-04T12:47:31.000Z</time>
</trkpt>
<trkpt lat="42.637463" lon="-2.382762">
<ele>1136</ele>
<time>2013-05-04T12:47:32.000Z</time>
</trkpt>
<trkpt lat="42.637503" lon="-2.38282">
<ele>1134</ele>
<time>2013-05-04T12:47:33.000Z</time>
</trkpt>
<trkpt lat="42.63752" lon="-2.382908">
<ele>1133</ele>
<time>2013-05-04T12:47:34.000Z</time>
</trkpt>
<trkpt lat="42.637508" lon="-2.382992">
<ele>1130</ele>
<time>2013-05-04T12:47:35.000Z</time>
</trkpt>
<trkpt lat="42.637464" lon="-2.383069">
<ele>1129</ele>
<time>2013-05-04T12:47:36.000Z</time>
</trkpt>
<trkpt lat="42.637398" lon="-2.383129">
<ele>1130</ele>
<time>2013-05-04T12:47:37.000Z</time>
</trkpt>
<trkpt lat="42.637315" lon="-2.383165">
<ele>1130</ele>
<time>2013-05-04T12:47:38.000Z</time>
</trkpt>
<trkpt lat="42.637222" lon="-2.383193">
<ele>1128</ele>
<time>2013-05-04T12:47:39.000Z</time>
</trkpt>
<trkpt lat="42.637127" lon="-2.383212">
<ele>1126</ele>
<time>2013-05-04T12:47:40.000Z</time>
</trkpt>
<trkpt lat="42.637037" lon="-2.383189">
<ele>1126</ele>
<time>2013-05-04T12:47:41.000Z</time>
</trkpt>
<trkpt lat="42.636956" lon="-2.383118">
<ele>1126</ele>
<time>2013-05-04T12:47:42.000Z</time>
</trkpt>
<trkpt lat="42.636895" lon="-2.382986">
<ele>1126</ele>
<time>2013-05-04T12:47:43.000Z</time>
</trkpt>
<trkpt lat="42.636868" lon="-2.382815">
<ele>1124</ele>
<time>2013-05-04T12:47:44.000Z</time>
</trkpt>
<trkpt lat="42.636854" lon="-2.382651">
<ele>1124</ele>
<time>2013-05-04T12:47:45.000Z</time>
</trkpt>
<trkpt lat="42.636874" lon="-2.382517">
<ele>1126</ele>
<time>2013-05-04T12:47:46.000Z</time>
</trkpt>
<trkpt lat="42.636889" lon="-2.382403">
<ele>1128</ele>
<time>2013-05-04T12:47:47.000Z</time>
</trkpt>
<trkpt lat="42.636903" lon="-2.382312">
<ele>1128</ele>
<time>2013-05-04T12:47:48.000Z</time>
</trkpt>
<trkpt lat="42.63692" lon="-2.382212">
<ele>1129</ele>
<time>2013-05-04T12:47:49.000Z</time>
</trkpt>
<trkpt lat="42.636947" lon="-2.382098">
<ele>1127</ele>
<time>2013-05-04T12:47:50.000Z</time>
</trkpt>
<trkpt lat="42.637001" lon="-2.381987">
<ele>1125</ele>
<time>2013-05-04T12:47:51.000Z</time>
</trkpt>
<trkpt lat="42.637051" lon="-2.381898">
<ele>1123</ele>
<time>2013-05-04T12:47:52.000Z</time>
</trkpt>
<trkpt lat="42.637099" lon="-2.381819">
<ele>1122</ele>
<time>2013-05-04T12:47:53.000Z</time>
</trkpt>
<trkpt lat="42.637138" lon="-2.381758">
<ele>1122</ele>
<time>2013-05-04T12:47:54.000Z</time>
</trkpt>
<trkpt lat="42.637169" lon="-2.381716">
<ele>1122</ele>
<time>2013-05-04T12:47:55.000Z</time>
</trkpt>
<trkpt lat="42.637222" lon="-2.381678">
<ele>1122</ele>
<time>2013-05-04T12:47:56.000Z</time>
</trkpt>
<trkpt lat="42.637289" lon="-2.381637">
<ele>1122</ele>
<time>2013-05-04T12:47:57.000Z</time>
</trkpt>
<trkpt lat="42.637363" lon="-2.381592">
<ele>1121</ele>
<time>2013-05-04T12:47:58.000Z</time>
</trkpt>
<trkpt lat="42.637428" lon="-2.38155">
<ele>1120</ele>
<time>2013-05-04T12:47:59.000Z</time>
</trkpt>
<trkpt lat="42.637488" lon="-2.381513">
<ele>1120</ele>
<time>2013-05-04T12:48:00.000Z</time>
</trkpt>
<trkpt lat="42.637553" lon="-2.381496">
<ele>1121</ele>
<time>2013-05-04T12:48:01.000Z</time>
</trkpt>
<trkpt lat="42.637615" lon="-2.381481">
<ele>1123</ele>
<time>2013-05-04T12:48:02.000Z</time>
</trkpt>
<trkpt lat="42.637679" lon="-2.381463">
<ele>1124</ele>
<time>2013-05-04T12:48:03.000Z</time>
</trkpt>
<trkpt lat="42.637734" lon="-2.381426">
<ele>1124</ele>
<time>2013-05-04T12:48:04.000Z</time>
</trkpt>
<trkpt lat="42.637794" lon="-2.381382">
<ele>1124</ele>
<time>2013-05-04T12:48:05.000Z</time>
</trkpt>
<trkpt lat="42.637866" lon="-2.381329">
<ele>1124</ele>
<time>2013-05-04T12:48:06.000Z</time>
</trkpt>
<trkpt lat="42.637941" lon="-2.381273">
<ele>1124</ele>
<time>2013-05-04T12:48:07.000Z</time>
</trkpt>
<trkpt lat="42.637995" lon="-2.381202">
<ele>1123</ele>
<time>2013-05-04T12:48:08.000Z</time>
</trkpt>
<trkpt lat="42.638041" lon="-2.381136">
<ele>1123</ele>
<time>2013-05-04T12:48:09.000Z</time>
</trkpt>
<trkpt lat="42.638085" lon="-2.381068">
<ele>1121</ele>
<time>2013-05-04T12:48:10.000Z</time>
</trkpt>
<trkpt lat="42.638126" lon="-2.381006">
<ele>1120</ele>
<time>2013-05-04T12:48:11.000Z</time>
</trkpt>
<trkpt lat="42.638171" lon="-2.380949">
<ele>1119</ele>
<time>2013-05-04T12:48:12.000Z</time>
</trkpt>
<trkpt lat="42.638229" lon="-2.380887">
<ele>1118</ele>
<time>2013-05-04T12:48:13.000Z</time>
</trkpt>
<trkpt lat="42.638366" lon="-2.380763">
<ele>1118</ele>
<time>2013-05-04T12:48:15.000Z</time>
</trkpt>
<trkpt lat="42.638433" lon="-2.380707">
<ele>1119</ele>
<time>2013-05-04T12:48:16.000Z</time>
</trkpt>
<trkpt lat="42.638493" lon="-2.380648">
<ele>1120</ele>
<time>2013-05-04T12:48:17.000Z</time>
</trkpt>
<trkpt lat="42.638551" lon="-2.380582">
<ele>1121</ele>
<time>2013-05-04T12:48:18.000Z</time>
</trkpt>
<trkpt lat="42.638598" lon="-2.380496">
<ele>1122</ele>
<time>2013-05-04T12:48:19.000Z</time>
</trkpt>
<trkpt lat="42.638645" lon="-2.380401">
<ele>1123</ele>
<time>2013-05-04T12:48:20.000Z</time>
</trkpt>
<trkpt lat="42.638693" lon="-2.380296">
<ele>1123</ele>
<time>2013-05-04T12:48:21.000Z</time>
</trkpt>
<trkpt lat="42.638735" lon="-2.380202">
<ele>1122</ele>
<time>2013-05-04T12:48:22.000Z</time>
</trkpt>
<trkpt lat="42.638772" lon="-2.380111">
<ele>1122</ele>
<time>2013-05-04T12:48:23.000Z</time>
</trkpt>
<trkpt lat="42.638813" lon="-2.38001">
<ele>1121</ele>
<time>2013-05-04T12:48:24.000Z</time>
</trkpt>
<trkpt lat="42.638858" lon="-2.379903">
<ele>1122</ele>
<time>2013-05-04T12:48:25.000Z</time>
</trkpt>
<trkpt lat="42.638907" lon="-2.379801">
<ele>1122</ele>
<time>2013-05-04T12:48:26.000Z</time>
</trkpt>
<trkpt lat="42.638954" lon="-2.379714">
<ele>1123</ele>
<time>2013-05-04T12:48:27.000Z</time>
</trkpt>
<trkpt lat="42.639" lon="-2.379632">
<ele>1124</ele>
<time>2013-05-04T12:48:28.000Z</time>
</trkpt>
<trkpt lat="42.639044" lon="-2.379548">
<ele>1125</ele>
<time>2013-05-04T12:48:29.000Z</time>
</trkpt>
<trkpt lat="42.639068" lon="-2.379453">
<ele>1125</ele>
<time>2013-05-04T12:48:30.000Z</time>
</trkpt>
<trkpt lat="42.639088" lon="-2.379347">
<ele>1126</ele>
<time>2013-05-04T12:48:31.000Z</time>
</trkpt>
<trkpt lat="42.639081" lon="-2.379232">
<ele>1126</ele>
<time>2013-05-04T12:48:32.000Z</time>
</trkpt>
<trkpt lat="42.639053" lon="-2.379114">
<ele>1127</ele>
<time>2013-05-04T12:48:33.000Z</time>
</trkpt>
<trkpt lat="42.639015" lon="-2.378998">
<ele>1126</ele>
<time>2013-05-04T12:48:34.000Z</time>
</trkpt>
<trkpt lat="42.638945" lon="-2.378897">
<ele>1126</ele>
<time>2013-05-04T12:48:35.000Z</time>
</trkpt>
<trkpt lat="42.63886" lon="-2.378815">
<ele>1126</ele>
<time>2013-05-04T12:48:36.000Z</time>
</trkpt>
<trkpt lat="42.638769" lon="-2.378745">
<ele>1126</ele>
<time>2013-05-04T12:48:37.000Z</time>
</trkpt>
<trkpt lat="42.638667" lon="-2.378722">
<ele>1126</ele>
<time>2013-05-04T12:48:38.000Z</time>
</trkpt>
<trkpt lat="42.63857" lon="-2.378745">
<ele>1125</ele>
<time>2013-05-04T12:48:39.000Z</time>
</trkpt>
<trkpt lat="42.63848" lon="-2.378801">
<ele>1125</ele>
<time>2013-05-04T12:48:40.000Z</time>
</trkpt>
<trkpt lat="42.638427" lon="-2.378878">
<ele>1126</ele>
<time>2013-05-04T12:48:41.000Z</time>
</trkpt>
<trkpt lat="42.638399" lon="-2.378962">
<ele>1125</ele>
<time>2013-05-04T12:48:42.000Z</time>
</trkpt>
<trkpt lat="42.638388" lon="-2.37904">
<ele>1123</ele>
<time>2013-05-04T12:48:43.000Z</time>
</trkpt>
<trkpt lat="42.638382" lon="-2.379126">
<ele>1123</ele>
<time>2013-05-04T12:48:44.000Z</time>
</trkpt>
<trkpt lat="42.638395" lon="-2.3792">
<ele>1124</ele>
<time>2013-05-04T12:48:45.000Z</time>
</trkpt>
<trkpt lat="42.638418" lon="-2.379253">
<ele>1124</ele>
<time>2013-05-04T12:48:46.000Z</time>
</trkpt>
<trkpt lat="42.638445" lon="-2.379289">
<ele>1123</ele>
<time>2013-05-04T12:48:47.000Z</time>
</trkpt>
<trkpt lat="42.638478" lon="-2.37933">
<ele>1122</ele>
<time>2013-05-04T12:48:48.000Z</time>
</trkpt>
<trkpt lat="42.638514" lon="-2.379379">
<ele>1121</ele>
<time>2013-05-04T12:48:49.000Z</time>
</trkpt>
<trkpt lat="42.638543" lon="-2.379447">
<ele>1121</ele>
<time>2013-05-04T12:48:50.000Z</time>
</trkpt>
<trkpt lat="42.638572" lon="-2.379511">
<ele>1120</ele>
<time>2013-05-04T12:48:51.000Z</time>
</trkpt>
<trkpt lat="42.638597" lon="-2.379568">
<ele>1121</ele>
<time>2013-05-04T12:48:52.000Z</time>
</trkpt>
<trkpt lat="42.63862" lon="-2.37961">
<ele>1122</ele>
<time>2013-05-04T12:48:53.000Z</time>
</trkpt>
<trkpt lat="42.638642" lon="-2.379653">
<ele>1123</ele>
<time>2013-05-04T12:48:54.000Z</time>
</trkpt>
<trkpt lat="42.638653" lon="-2.379705">
<ele>1124</ele>
<time>2013-05-04T12:48:55.000Z</time>
</trkpt>
<trkpt lat="42.638661" lon="-2.379756">
<ele>1124</ele>
<time>2013-05-04T12:48:56.000Z</time>
</trkpt>
<trkpt lat="42.638672" lon="-2.37981">
<ele>1124</ele>
<time>2013-05-04T12:48:57.000Z</time>
</trkpt>
<trkpt lat="42.638687" lon="-2.379862">
<ele>1124</ele>
<time>2013-05-04T12:48:58.000Z</time>
</trkpt>
<trkpt lat="42.638711" lon="-2.37991">
<ele>1124</ele>
<time>2013-05-04T12:48:59.000Z</time>
</trkpt>
<trkpt lat="42.638732" lon="-2.379949">
<ele>1124</ele>
<time>2013-05-04T12:49:00.000Z</time>
</trkpt>
<trkpt lat="42.638765" lon="-2.379977">
<ele>1125</ele>
<time>2013-05-04T12:49:01.000Z</time>
</trkpt>
<trkpt lat="42.638807" lon="-2.379997">
<ele>1125</ele>
<time>2013-05-04T12:49:02.000Z</time>
</trkpt>
<trkpt lat="42.638864" lon="-2.379999">
<ele>1126</ele>
<time>2013-05-04T12:49:03.000Z</time>
</trkpt>
<trkpt lat="42.638927" lon="-2.379995">
<ele>1127</ele>
<time>2013-05-04T12:49:04.000Z</time>
</trkpt>
<trkpt lat="42.638993" lon="-2.37998">
<ele>1128</ele>
<time>2013-05-04T12:49:05.000Z</time>
</trkpt>
<trkpt lat="42.639055" lon="-2.379963">
<ele>1129</ele>
<time>2013-05-04T12:49:06.000Z</time>
</trkpt>
<trkpt lat="42.63911" lon="-2.379949">
<ele>1131</ele>
<time>2013-05-04T12:49:07.000Z</time>
</trkpt>
<trkpt lat="42.63916" lon="-2.379938">
<ele>1132</ele>
<time>2013-05-04T12:49:08.000Z</time>
</trkpt>
<trkpt lat="42.639209" lon="-2.379911">
<ele>1133</ele>
<time>2013-05-04T12:49:09.000Z</time>
</trkpt>
<trkpt lat="42.63925" lon="-2.379866">
<ele>1134</ele>
<time>2013-05-04T12:49:10.000Z</time>
</trkpt>
<trkpt lat="42.63929" lon="-2.379814">
<ele>1134</ele>
<time>2013-05-04T12:49:11.000Z</time>
</trkpt>
<trkpt lat="42.639334" lon="-2.37975">
<ele>1134</ele>
<time>2013-05-04T12:49:12.000Z</time>
</trkpt>
<trkpt lat="42.639374" lon="-2.379662">
<ele>1133</ele>
<time>2013-05-04T12:49:13.000Z</time>
</trkpt>
<trkpt lat="42.639416" lon="-2.379551">
<ele>1132</ele>
<time>2013-05-04T12:49:14.000Z</time>
</trkpt>
<trkpt lat="42.639433" lon="-2.379415">
<ele>1132</ele>
<time>2013-05-04T12:49:15.000Z</time>
</trkpt>
<trkpt lat="42.639446" lon="-2.379276">
<ele>1133</ele>
<time>2013-05-04T12:49:16.000Z</time>
</trkpt>
<trkpt lat="42.63943" lon="-2.37915">
<ele>1135</ele>
<time>2013-05-04T12:49:17.000Z</time>
</trkpt>
<trkpt lat="42.639412" lon="-2.379042">
<ele>1136</ele>
<time>2013-05-04T12:49:18.000Z</time>
</trkpt>
<trkpt lat="42.639391" lon="-2.378946">
<ele>1137</ele>
<time>2013-05-04T12:49:19.000Z</time>
</trkpt>
<trkpt lat="42.639366" lon="-2.378842">
<ele>1137</ele>
<time>2013-05-04T12:49:20.000Z</time>
</trkpt>
<trkpt lat="42.639334" lon="-2.378743">
<ele>1137</ele>
<time>2013-05-04T12:49:21.000Z</time>
</trkpt>
<trkpt lat="42.639299" lon="-2.378653">
<ele>1137</ele>
<time>2013-05-04T12:49:22.000Z</time>
</trkpt>
<trkpt lat="42.639263" lon="-2.378566">
<ele>1137</ele>
<time>2013-05-04T12:49:23.000Z</time>
</trkpt>
<trkpt lat="42.639233" lon="-2.378472">
<ele>1137</ele>
<time>2013-05-04T12:49:24.000Z</time>
</trkpt>
<trkpt lat="42.639232" lon="-2.378375">
<ele>1135</ele>
<time>2013-05-04T12:49:25.000Z</time>
</trkpt>
<trkpt lat="42.639239" lon="-2.378271">
<ele>1133</ele>
<time>2013-05-04T12:49:26.000Z</time>
</trkpt>
<trkpt lat="42.639268" lon="-2.378178">
<ele>1133</ele>
<time>2013-05-04T12:49:27.000Z</time>
</trkpt>
<trkpt lat="42.639311" lon="-2.378114">
<ele>1132</ele>
<time>2013-05-04T12:49:28.000Z</time>
</trkpt>
<trkpt lat="42.639362" lon="-2.378088">
<ele>1132</ele>
<time>2013-05-04T12:49:29.000Z</time>
</trkpt>
<trkpt lat="42.639425" lon="-2.378094">
<ele>1132</ele>
<time>2013-05-04T12:49:30.000Z</time>
</trkpt>
<trkpt lat="42.639469" lon="-2.378128">
<ele>1130</ele>
<time>2013-05-04T12:49:31.000Z</time>
</trkpt>
<trkpt lat="42.639503" lon="-2.378185">
<ele>1128</ele>
<time>2013-05-04T12:49:32.000Z</time>
</trkpt>
<trkpt lat="42.639514" lon="-2.378267">
<ele>1126</ele>
<time>2013-05-04T12:49:33.000Z</time>
</trkpt>
<trkpt lat="42.639507" lon="-2.378354">
<ele>1123</ele>
<time>2013-05-04T12:49:34.000Z</time>
</trkpt>
<trkpt lat="42.639489" lon="-2.37845">
<ele>1121</ele>
<time>2013-05-04T12:49:35.000Z</time>
</trkpt>
<trkpt lat="42.639467" lon="-2.378537">
<ele>1119</ele>
<time>2013-05-04T12:49:36.000Z</time>
</trkpt>
<trkpt lat="42.639442" lon="-2.378615">
<ele>1118</ele>
<time>2013-05-04T12:49:37.000Z</time>
</trkpt>
<trkpt lat="42.639415" lon="-2.378691">
<ele>1117</ele>
<time>2013-05-04T12:49:38.000Z</time>
</trkpt>
<trkpt lat="42.639386" lon="-2.378767">
<ele>1118</ele>
<time>2013-05-04T12:49:39.000Z</time>
</trkpt>
<trkpt lat="42.63935" lon="-2.378857">
<ele>1117</ele>
<time>2013-05-04T12:49:40.000Z</time>
</trkpt>
<trkpt lat="42.639307" lon="-2.378953">
<ele>1119</ele>
<time>2013-05-04T12:49:41.000Z</time>
</trkpt>
<trkpt lat="42.639254" lon="-2.379025">
<ele>1122</ele>
<time>2013-05-04T12:49:42.000Z</time>
</trkpt>
<trkpt lat="42.639202" lon="-2.379062">
<ele>1124</ele>
<time>2013-05-04T12:49:43.000Z</time>
</trkpt>
<trkpt lat="42.639155" lon="-2.379091">
<ele>1127</ele>
<time>2013-05-04T12:49:44.000Z</time>
</trkpt>
<trkpt lat="42.639105" lon="-2.379119">
<ele>1128</ele>
<time>2013-05-04T12:49:45.000Z</time>
</trkpt>
<trkpt lat="42.639046" lon="-2.379158">
<ele>1128</ele>
<time>2013-05-04T12:49:46.000Z</time>
</trkpt>
<trkpt lat="42.638995" lon="-2.379234">
<ele>1129</ele>
<time>2013-05-04T12:49:47.000Z</time>
</trkpt>
<trkpt lat="42.638961" lon="-2.379315">
<ele>1130</ele>
<time>2013-05-04T12:49:48.000Z</time>
</trkpt>
<trkpt lat="42.638939" lon="-2.379379">
<ele>1132</ele>
<time>2013-05-04T12:49:49.000Z</time>
</trkpt>
<trkpt lat="42.638927" lon="-2.37942">
<ele>1133</ele>
<time>2013-05-04T12:49:50.000Z</time>
</trkpt>
<trkpt lat="42.638919" lon="-2.379446">
<ele>1134</ele>
<time>2013-05-04T12:49:51.000Z</time>
</trkpt>
<trkpt lat="42.638907" lon="-2.379485">
<ele>1133</ele>
<time>2013-05-04T12:49:52.000Z</time>
</trkpt>
<trkpt lat="42.638905" lon="-2.379542">
<ele>1133</ele>
<time>2013-05-04T12:49:53.000Z</time>
</trkpt>
<trkpt lat="42.638906" lon="-2.379619">
<ele>1132</ele>
<time>2013-05-04T12:49:54.000Z</time>
</trkpt>
<trkpt lat="42.63891" lon="-2.379706">
<ele>1131</ele>
<time>2013-05-04T12:49:55.000Z</time>
</trkpt>
<trkpt lat="42.638915" lon="-2.379788">
<ele>1131</ele>
<time>2013-05-04T12:49:56.000Z</time>
</trkpt>
<trkpt lat="42.638924" lon="-2.379861">
<ele>1132</ele>
<time>2013-05-04T12:49:57.000Z</time>
</trkpt>
<trkpt lat="42.638943" lon="-2.379912">
<ele>1133</ele>
<time>2013-05-04T12:49:58.000Z</time>
</trkpt>
<trkpt lat="42.638964" lon="-2.379942">
<ele>1134</ele>
<time>2013-05-04T12:49:59.000Z</time>
</trkpt>
<trkpt lat="42.638991" lon="-2.379966">
<ele>1134</ele>
<time>2013-05-04T12:50:00.000Z</time>
</trkpt>
<trkpt lat="42.639022" lon="-2.379992">
<ele>1133</ele>
<time>2013-05-04T12:50:01.000Z</time>
</trkpt>
<trkpt lat="42.639072" lon="-2.380007">
<ele>1133</ele>
<time>2013-05-04T12:50:02.000Z</time>
</trkpt>
<trkpt lat="42.63914" lon="-2.379994">
<ele>1133</ele>
<time>2013-05-04T12:50:03.000Z</time>
</trkpt>
<trkpt lat="42.639209" lon="-2.379952">
<ele>1133</ele>
<time>2013-05-04T12:50:04.000Z</time>
</trkpt>
<trkpt lat="42.63926" lon="-2.379882">
<ele>1133</ele>
<time>2013-05-04T12:50:05.000Z</time>
</trkpt>
<trkpt lat="42.639305" lon="-2.379786">
<ele>1134</ele>
<time>2013-05-04T12:50:06.000Z</time>
</trkpt>
<trkpt lat="42.639351" lon="-2.379672">
<ele>1134</ele>
<time>2013-05-04T12:50:07.000Z</time>
</trkpt>
<trkpt lat="42.639371" lon="-2.37953">
<ele>1134</ele>
<time>2013-05-04T12:50:08.000Z</time>
</trkpt>
<trkpt lat="42.639383" lon="-2.379382">
<ele>1135</ele>
<time>2013-05-04T12:50:09.000Z</time>
</trkpt>
<trkpt lat="42.639364" lon="-2.37924">
<ele>1136</ele>
<time>2013-05-04T12:50:10.000Z</time>
</trkpt>
<trkpt lat="42.639346" lon="-2.379115">
<ele>1137</ele>
<time>2013-05-04T12:50:11.000Z</time>
</trkpt>
<trkpt lat="42.639323" lon="-2.378997">
<ele>1138</ele>
<time>2013-05-04T12:50:12.000Z</time>
</trkpt>
<trkpt lat="42.639292" lon="-2.37888">
<ele>1138</ele>
<time>2013-05-04T12:50:13.000Z</time>
</trkpt>
<trkpt lat="42.639253" lon="-2.378761">
<ele>1139</ele>
<time>2013-05-04T12:50:14.000Z</time>
</trkpt>
<trkpt lat="42.639196" lon="-2.378658">
<ele>1139</ele>
<time>2013-05-04T12:50:15.000Z</time>
</trkpt>
<trkpt lat="42.639134" lon="-2.378556">
<ele>1140</ele>
<time>2013-05-04T12:50:16.000Z</time>
</trkpt>
<trkpt lat="42.639068" lon="-2.378463">
<ele>1142</ele>
<time>2013-05-04T12:50:17.000Z</time>
</trkpt>
<trkpt lat="42.638994" lon="-2.378392">
<ele>1143</ele>
<time>2013-05-04T12:50:18.000Z</time>
</trkpt>
<trkpt lat="42.638913" lon="-2.378323">
<ele>1145</ele>
<time>2013-05-04T12:50:19.000Z</time>
</trkpt>
<trkpt lat="42.638823" lon="-2.378289">
<ele>1146</ele>
<time>2013-05-04T12:50:20.000Z</time>
</trkpt>
<trkpt lat="42.638742" lon="-2.378268">
<ele>1146</ele>
<time>2013-05-04T12:50:21.000Z</time>
</trkpt>
<trkpt lat="42.638665" lon="-2.378271">
<ele>1145</ele>
<time>2013-05-04T12:50:22.000Z</time>
</trkpt>
<trkpt lat="42.638597" lon="-2.378284">
<ele>1145</ele>
<time>2013-05-04T12:50:23.000Z</time>
</trkpt>
<trkpt lat="42.638538" lon="-2.378332">
<ele>1146</ele>
<time>2013-05-04T12:50:24.000Z</time>
</trkpt>
<trkpt lat="42.638496" lon="-2.37839">
<ele>1146</ele>
<time>2013-05-04T12:50:25.000Z</time>
</trkpt>
<trkpt lat="42.638461" lon="-2.378447">
<ele>1146</ele>
<time>2013-05-04T12:50:26.000Z</time>
</trkpt>
<trkpt lat="42.638429" lon="-2.378503">
<ele>1146</ele>
<time>2013-05-04T12:50:27.000Z</time>
</trkpt>
<trkpt lat="42.638409" lon="-2.378564">
<ele>1147</ele>
<time>2013-05-04T12:50:28.000Z</time>
</trkpt>
<trkpt lat="42.638401" lon="-2.378622">
<ele>1147</ele>
<time>2013-05-04T12:50:29.000Z</time>
</trkpt>
<trkpt lat="42.638404" lon="-2.378674">
<ele>1148</ele>
<time>2013-05-04T12:50:30.000Z</time>
</trkpt>
<trkpt lat="42.638416" lon="-2.378717">
<ele>1148</ele>
<time>2013-05-04T12:50:31.000Z</time>
</trkpt>
<trkpt lat="42.638437" lon="-2.378749">
<ele>1148</ele>
<time>2013-05-04T12:50:32.000Z</time>
</trkpt>
<trkpt lat="42.63847" lon="-2.378756">
<ele>1148</ele>
<time>2013-05-04T12:50:33.000Z</time>
</trkpt>
<trkpt lat="42.638527" lon="-2.37874">
<ele>1148</ele>
<time>2013-05-04T12:50:34.000Z</time>
</trkpt>
<trkpt lat="42.638597" lon="-2.378711">
<ele>1149</ele>
<time>2013-05-04T12:50:35.000Z</time>
</trkpt>
<trkpt lat="42.638653" lon="-2.378656">
<ele>1149</ele>
<time>2013-05-04T12:50:36.000Z</time>
</trkpt>
<trkpt lat="42.638697" lon="-2.378579">
<ele>1149</ele>
<time>2013-05-04T12:50:37.000Z</time>
</trkpt>
<trkpt lat="42.63874" lon="-2.37849">
<ele>1148</ele>
<time>2013-05-04T12:50:38.000Z</time>
</trkpt>
<trkpt lat="42.638778" lon="-2.378393">
<ele>1147</ele>
<time>2013-05-04T12:50:39.000Z</time>
</trkpt>
<trkpt lat="42.638814" lon="-2.378291">
<ele>1146</ele>
<time>2013-05-04T12:50:40.000Z</time>
</trkpt>
<trkpt lat="42.638832" lon="-2.37818">
<ele>1145</ele>
<time>2013-05-04T12:50:41.000Z</time>
</trkpt>
<trkpt lat="42.638833" lon="-2.378051">
<ele>1145</ele>
<time>2013-05-04T12:50:42.000Z</time>
</trkpt>
<trkpt lat="42.638827" lon="-2.377905">
<ele>1145</ele>
<time>2013-05-04T12:50:43.000Z</time>
</trkpt>
<trkpt lat="42.638811" lon="-2.377752">
<ele>1145</ele>
<time>2013-05-04T12:50:44.000Z</time>
</trkpt>
<trkpt lat="42.638788" lon="-2.377611">
<ele>1144</ele>
<time>2013-05-04T12:50:45.000Z</time>
</trkpt>
<trkpt lat="42.638761" lon="-2.377474">
<ele>1144</ele>
<time>2013-05-04T12:50:46.000Z</time>
</trkpt>
<trkpt lat="42.638735" lon="-2.377349">
<ele>1145</ele>
<time>2013-05-04T12:50:47.000Z</time>
</trkpt>
<trkpt lat="42.638713" lon="-2.377231">
<ele>1146</ele>
<time>2013-05-04T12:50:48.000Z</time>
</trkpt>
<trkpt lat="42.638697" lon="-2.37712">
<ele>1147</ele>
<time>2013-05-04T12:50:49.000Z</time>
</trkpt>
<trkpt lat="42.638684" lon="-2.377004">
<ele>1147</ele>
<time>2013-05-04T12:50:50.000Z</time>
</trkpt>
<trkpt lat="42.638674" lon="-2.376885">
<ele>1148</ele>
<time>2013-05-04T12:50:51.000Z</time>
</trkpt>
<trkpt lat="42.638668" lon="-2.376765">
<ele>1148</ele>
<time>2013-05-04T12:50:52.000Z</time>
</trkpt>
<trkpt lat="42.638667" lon="-2.376646">
<ele>1149</ele>
<time>2013-05-04T12:50:53.000Z</time>
</trkpt>
<trkpt lat="42.638669" lon="-2.376532">
<ele>1149</ele>
<time>2013-05-04T12:50:54.000Z</time>
</trkpt>
<trkpt lat="42.638677" lon="-2.376422">
<ele>1150</ele>
<time>2013-05-04T12:50:55.000Z</time>
</trkpt>
<trkpt lat="42.638688" lon="-2.37631">
<ele>1151</ele>
<time>2013-05-04T12:50:56.000Z</time>
</trkpt>
<trkpt lat="42.638699" lon="-2.376199">
<ele>1153</ele>
<time>2013-05-04T12:50:57.000Z</time>
</trkpt>
<trkpt lat="42.638702" lon="-2.376092">
<ele>1155</ele>
<time>2013-05-04T12:50:58.000Z</time>
</trkpt>
<trkpt lat="42.638684" lon="-2.376">
<ele>1156</ele>
<time>2013-05-04T12:50:59.000Z</time>
</trkpt>
<trkpt lat="42.638665" lon="-2.375911">
<ele>1157</ele>
<time>2013-05-04T12:51:00.000Z</time>
</trkpt>
<trkpt lat="42.638662" lon="-2.375823">
<ele>1157</ele>
<time>2013-05-04T12:51:01.000Z</time>
</trkpt>
<trkpt lat="42.638686" lon="-2.37573">
<ele>1156</ele>
<time>2013-05-04T12:51:02.000Z</time>
</trkpt>
<trkpt lat="42.63873" lon="-2.375635">
<ele>1156</ele>
<time>2013-05-04T12:51:03.000Z</time>
</trkpt>
<trkpt lat="42.638784" lon="-2.375572">
<ele>1156</ele>
<time>2013-05-04T12:51:04.000Z</time>
</trkpt>
<trkpt lat="42.638843" lon="-2.375546">
<ele>1157</ele>
<time>2013-05-04T12:51:05.000Z</time>
</trkpt>
<trkpt lat="42.638882" lon="-2.375569">
<ele>1158</ele>
<time>2013-05-04T12:51:06.000Z</time>
</trkpt>
<trkpt lat="42.638915" lon="-2.375622">
<ele>1159</ele>
<time>2013-05-04T12:51:07.000Z</time>
</trkpt>
<trkpt lat="42.638943" lon="-2.375679">
<ele>1160</ele>
<time>2013-05-04T12:51:08.000Z</time>
</trkpt>
<trkpt lat="42.638962" lon="-2.375728">
<ele>1162</ele>
<time>2013-05-04T12:51:09.000Z</time>
</trkpt>
<trkpt lat="42.638972" lon="-2.375781">
<ele>1163</ele>
<time>2013-05-04T12:51:10.000Z</time>
</trkpt>
<trkpt lat="42.638964" lon="-2.375847">
<ele>1161</ele>
<time>2013-05-04T12:51:11.000Z</time>
</trkpt>
<trkpt lat="42.638952" lon="-2.375917">
<ele>1160</ele>
<time>2013-05-04T12:51:12.000Z</time>
</trkpt>
<trkpt lat="42.638911" lon="-2.375991">
<ele>1162</ele>
<time>2013-05-04T12:51:13.000Z</time>
</trkpt>
<trkpt lat="42.638857" lon="-2.376052">
<ele>1163</ele>
<time>2013-05-04T12:51:14.000Z</time>
</trkpt>
<trkpt lat="42.638801" lon="-2.376105">
<ele>1164</ele>
<time>2013-05-04T12:51:15.000Z</time>
</trkpt>
<trkpt lat="42.638727" lon="-2.37614">
<ele>1165</ele>
<time>2013-05-04T12:51:16.000Z</time>
</trkpt>
<trkpt lat="42.638635" lon="-2.376173">
<ele>1166</ele>
<time>2013-05-04T12:51:17.000Z</time>
</trkpt>
<trkpt lat="42.638549" lon="-2.3762">
<ele>1168</ele>
<time>2013-05-04T12:51:18.000Z</time>
</trkpt>
<trkpt lat="42.638475" lon="-2.376219">
<ele>1168</ele>
<time>2013-05-04T12:51:19.000Z</time>
</trkpt>
<trkpt lat="42.6384" lon="-2.376233">
<ele>1169</ele>
<time>2013-05-04T12:51:20.000Z</time>
</trkpt>
<trkpt lat="42.638322" lon="-2.37624">
<ele>1169</ele>
<time>2013-05-04T12:51:21.000Z</time>
</trkpt>
<trkpt lat="42.638235" lon="-2.376244">
<ele>1170</ele>
<time>2013-05-04T12:51:22.000Z</time>
</trkpt>
<trkpt lat="42.638144" lon="-2.376248">
<ele>1171</ele>
<time>2013-05-04T12:51:23.000Z</time>
</trkpt>
<trkpt lat="42.638057" lon="-2.376267">
<ele>1172</ele>
<time>2013-05-04T12:51:24.000Z</time>
</trkpt>
<trkpt lat="42.63799" lon="-2.37632">
<ele>1174</ele>
<time>2013-05-04T12:51:25.000Z</time>
</trkpt>
<trkpt lat="42.637942" lon="-2.37638">
<ele>1174</ele>
<time>2013-05-04T12:51:26.000Z</time>
</trkpt>
<trkpt lat="42.637906" lon="-2.376432">
<ele>1176</ele>
<time>2013-05-04T12:51:27.000Z</time>
</trkpt>
<trkpt lat="42.637886" lon="-2.376494">
<ele>1175</ele>
<time>2013-05-04T12:51:28.000Z</time>
</trkpt>
<trkpt lat="42.637882" lon="-2.376558">
<ele>1174</ele>
<time>2013-05-04T12:51:29.000Z</time>
</trkpt>
<trkpt lat="42.637905" lon="-2.376627">
<ele>1173</ele>
<time>2013-05-04T12:51:30.000Z</time>
</trkpt>
<trkpt lat="42.637953" lon="-2.376679">
<ele>1172</ele>
<time>2013-05-04T12:51:31.000Z</time>
</trkpt>
<trkpt lat="42.63801" lon="-2.376717">
<ele>1173</ele>
<time>2013-05-04T12:51:32.000Z</time>
</trkpt>
<trkpt lat="42.638059" lon="-2.376745">
<ele>1176</ele>
<time>2013-05-04T12:51:33.000Z</time>
</trkpt>
<trkpt lat="42.638095" lon="-2.376761">
<ele>1177</ele>
<time>2013-05-04T12:51:34.000Z</time>
</trkpt>
<trkpt lat="42.638131" lon="-2.37676">
<ele>1177</ele>
<time>2013-05-04T12:51:35.000Z</time>
</trkpt>
<trkpt lat="42.638182" lon="-2.376744">
<ele>1177</ele>
<time>2013-05-04T12:51:36.000Z</time>
</trkpt>
<trkpt lat="42.638243" lon="-2.376717">
<ele>1176</ele>
<time>2013-05-04T12:51:37.000Z</time>
</trkpt>
<trkpt lat="42.638317" lon="-2.376675">
<ele>1174</ele>
<time>2013-05-04T12:51:38.000Z</time>
</trkpt>
<trkpt lat="42.638383" lon="-2.376597">
<ele>1174</ele>
<time>2013-05-04T12:51:39.000Z</time>
</trkpt>
<trkpt lat="42.63843" lon="-2.376509">
<ele>1175</ele>
<time>2013-05-04T12:51:40.000Z</time>
</trkpt>
<trkpt lat="42.63846" lon="-2.37642">
<ele>1176</ele>
<time>2013-05-04T12:51:41.000Z</time>
</trkpt>
<trkpt lat="42.638482" lon="-2.376344">
<ele>1178</ele>
<time>2013-05-04T12:51:42.000Z</time>
</trkpt>
<trkpt lat="42.638501" lon="-2.376267">
<ele>1179</ele>
<time>2013-05-04T12:51:43.000Z</time>
</trkpt>
<trkpt lat="42.638519" lon="-2.376169">
<ele>1179</ele>
<time>2013-05-04T12:51:44.000Z</time>
</trkpt>
<trkpt lat="42.638518" lon="-2.376047">
<ele>1179</ele>
<time>2013-05-04T12:51:45.000Z</time>
</trkpt>
<trkpt lat="42.63851" lon="-2.375915">
<ele>1180</ele>
<time>2013-05-04T12:51:46.000Z</time>
</trkpt>
<trkpt lat="42.638492" lon="-2.375787">
<ele>1181</ele>
<time>2013-05-04T12:51:47.000Z</time>
</trkpt>
<trkpt lat="42.638465" lon="-2.375668">
<ele>1182</ele>
<time>2013-05-04T12:51:48.000Z</time>
</trkpt>
<trkpt lat="42.638431" lon="-2.375562">
<ele>1184</ele>
<time>2013-05-04T12:51:49.000Z</time>
</trkpt>
<trkpt lat="42.638404" lon="-2.375471">
<ele>1187</ele>
<time>2013-05-04T12:51:50.000Z</time>
</trkpt>
<trkpt lat="42.638385" lon="-2.375391">
<ele>1190</ele>
<time>2013-05-04T12:51:51.000Z</time>
</trkpt>
<trkpt lat="42.638374" lon="-2.375317">
<ele>1193</ele>
<time>2013-05-04T12:51:52.000Z</time>
</trkpt>
<trkpt lat="42.638383" lon="-2.375239">
<ele>1196</ele>
<time>2013-05-04T12:51:53.000Z</time>
</trkpt>
<trkpt lat="42.638406" lon="-2.375165">
<ele>1198</ele>
<time>2013-05-04T12:51:54.000Z</time>
</trkpt>
<trkpt lat="42.638441" lon="-2.375106">
<ele>1200</ele>
<time>2013-05-04T12:51:55.000Z</time>
</trkpt>
<trkpt lat="42.638482" lon="-2.375078">
<ele>1201</ele>
<time>2013-05-04T12:51:56.000Z</time>
</trkpt>
<trkpt lat="42.638521" lon="-2.375089">
<ele>1204</ele>
<time>2013-05-04T12:51:57.000Z</time>
</trkpt>
<trkpt lat="42.638552" lon="-2.375127">
<ele>1206</ele>
<time>2013-05-04T12:51:58.000Z</time>
</trkpt>
<trkpt lat="42.638579" lon="-2.375186">
<ele>1208</ele>
<time>2013-05-04T12:51:59.000Z</time>
</trkpt>
<trkpt lat="42.638594" lon="-2.375264">
<ele>1209</ele>
<time>2013-05-04T12:52:00.000Z</time>
</trkpt>
<trkpt lat="42.638605" lon="-2.375355">
<ele>1209</ele>
<time>2013-05-04T12:52:01.000Z</time>
</trkpt>
<trkpt lat="42.638587" lon="-2.375458">
<ele>1211</ele>
<time>2013-05-04T12:52:02.000Z</time>
</trkpt>
<trkpt lat="42.638544" lon="-2.375547">
<ele>1212</ele>
<time>2013-05-04T12:52:03.000Z</time>
</trkpt>
<trkpt lat="42.638474" lon="-2.375622">
<ele>1212</ele>
<time>2013-05-04T12:52:04.000Z</time>
</trkpt>
<trkpt lat="42.63838" lon="-2.375673">
<ele>1214</ele>
<time>2013-05-04T12:52:05.000Z</time>
</trkpt>
<trkpt lat="42.638282" lon="-2.37571">
<ele>1216</ele>
<time>2013-05-04T12:52:06.000Z</time>
</trkpt>
<trkpt lat="42.638179" lon="-2.375704">
<ele>1219</ele>
<time>2013-05-04T12:52:07.000Z</time>
</trkpt>
<trkpt lat="42.638081" lon="-2.37566">
<ele>1222</ele>
<time>2013-05-04T12:52:08.000Z</time>
</trkpt>
<trkpt lat="42.637993" lon="-2.375587">
<ele>1225</ele>
<time>2013-05-04T12:52:09.000Z</time>
</trkpt>
<trkpt lat="42.637919" lon="-2.375489">
<ele>1227</ele>
<time>2013-05-04T12:52:10.000Z</time>
</trkpt>
<trkpt lat="42.637869" lon="-2.375378">
<ele>1228</ele>
<time>2013-05-04T12:52:11.000Z</time>
</trkpt>
<trkpt lat="42.637844" lon="-2.37526">
<ele>1229</ele>
<time>2013-05-04T12:52:12.000Z</time>
</trkpt>
<trkpt lat="42.637845" lon="-2.375151">
<ele>1231</ele>
<time>2013-05-04T12:52:13.000Z</time>
</trkpt>
<trkpt lat="42.637873" lon="-2.375059">
<ele>1234</ele>
<time>2013-05-04T12:52:14.000Z</time>
</trkpt>
<trkpt lat="42.637912" lon="-2.374989">
<ele>1237</ele>
<time>2013-05-04T12:52:15.000Z</time>
</trkpt>
<trkpt lat="42.637945" lon="-2.374931">
<ele>1241</ele>
<time>2013-05-04T12:52:16.000Z</time>
</trkpt>
<trkpt lat="42.637979" lon="-2.374875">
<ele>1244</ele>
<time>2013-05-04T12:52:17.000Z</time>
</trkpt>
<trkpt lat="42.638006" lon="-2.374829">
<ele>1247</ele>
<time>2013-05-04T12:52:18.000Z</time>
</trkpt>
<trkpt lat="42.638031" lon="-2.374784">
<ele>1249</ele>
<time>2013-05-04T12:52:19.000Z</time>
</trkpt>
<trkpt lat="42.638062" lon="-2.374736">
<ele>1250</ele>
<time>2013-05-04T12:52:20.000Z</time>
</trkpt>
<trkpt lat="42.638108" lon="-2.374695">
<ele>1252</ele>
<time>2013-05-04T12:52:21.000Z</time>
</trkpt>
<trkpt lat="42.638169" lon="-2.374664">
<ele>1253</ele>
<time>2013-05-04T12:52:22.000Z</time>
</trkpt>
<trkpt lat="42.638232" lon="-2.374666">
<ele>1256</ele>
<time>2013-05-04T12:52:23.000Z</time>
</trkpt>
<trkpt lat="42.638283" lon="-2.374697">
<ele>1257</ele>
<time>2013-05-04T12:52:24.000Z</time>
</trkpt>
<trkpt lat="42.638322" lon="-2.374741">
<ele>1258</ele>
<time>2013-05-04T12:52:25.000Z</time>
</trkpt>
<trkpt lat="42.638364" lon="-2.374796">
<ele>1259</ele>
<time>2013-05-04T12:52:26.000Z</time>
</trkpt>
<trkpt lat="42.638395" lon="-2.374873">
<ele>1260</ele>
<time>2013-05-04T12:52:27.000Z</time>
</trkpt>
<trkpt lat="42.638407" lon="-2.374957">
<ele>1261</ele>
<time>2013-05-04T12:52:28.000Z</time>
</trkpt>
<trkpt lat="42.638396" lon="-2.375046">
<ele>1262</ele>
<time>2013-05-04T12:52:29.000Z</time>
</trkpt>
<trkpt lat="42.638377" lon="-2.37514">
<ele>1263</ele>
<time>2013-05-04T12:52:30.000Z</time>
</trkpt>
<trkpt lat="42.638336" lon="-2.375226">
<ele>1264</ele>
<time>2013-05-04T12:52:31.000Z</time>
</trkpt>
<trkpt lat="42.638279" lon="-2.375298">
<ele>1265</ele>
<time>2013-05-04T12:52:32.000Z</time>
</trkpt>
<trkpt lat="42.638198" lon="-2.375337">
<ele>1266</ele>
<time>2013-05-04T12:52:33.000Z</time>
</trkpt>
<trkpt lat="42.6381" lon="-2.37534">
<ele>1269</ele>
<time>2013-05-04T12:52:34.000Z</time>
</trkpt>
<trkpt lat="42.638006" lon="-2.375299">
<ele>1270</ele>
<time>2013-05-04T12:52:35.000Z</time>
</trkpt>
<trkpt lat="42.637924" lon="-2.375224">
<ele>1271</ele>
<time>2013-05-04T12:52:36.000Z</time>
</trkpt>
<trkpt lat="42.637866" lon="-2.375138">
<ele>1272</ele>
<time>2013-05-04T12:52:37.000Z</time>
</trkpt>
<trkpt lat="42.637814" lon="-2.375048">
<ele>1274</ele>
<time>2013-05-04T12:52:38.000Z</time>
</trkpt>
<trkpt lat="42.637782" lon="-2.37496">
<ele>1275</ele>
<time>2013-05-04T12:52:39.000Z</time>
</trkpt>
<trkpt lat="42.63776" lon="-2.37488">
<ele>1275</ele>
<time>2013-05-04T12:52:40.000Z</time>
</trkpt>
<trkpt lat="42.637759" lon="-2.374789">
<ele>1276</ele>
<time>2013-05-04T12:52:41.000Z</time>
</trkpt>
<trkpt lat="42.637777" lon="-2.374699">
<ele>1277</ele>
<time>2013-05-04T12:52:42.000Z</time>
</trkpt>
<trkpt lat="42.637802" lon="-2.374626">
<ele>1279</ele>
<time>2013-05-04T12:52:43.000Z</time>
</trkpt>
<trkpt lat="42.637825" lon="-2.374576">
<ele>1282</ele>
<time>2013-05-04T12:52:44.000Z</time>
</trkpt>
<trkpt lat="42.63785" lon="-2.374545">
<ele>1284</ele>
<time>2013-05-04T12:52:45.000Z</time>
</trkpt>
<trkpt lat="42.637879" lon="-2.374513">
<ele>1287</ele>
<time>2013-05-04T12:52:46.000Z</time>
</trkpt>
<trkpt lat="42.637912" lon="-2.37449">
<ele>1288</ele>
<time>2013-05-04T12:52:47.000Z</time>
</trkpt>
<trkpt lat="42.637953" lon="-2.374486">
<ele>1290</ele>
<time>2013-05-04T12:52:48.000Z</time>
</trkpt>
<trkpt lat="42.637997" lon="-2.374508">
<ele>1289</ele>
<time>2013-05-04T12:52:49.000Z</time>
</trkpt>
<trkpt lat="42.638043" lon="-2.374562">
<ele>1291</ele>
<time>2013-05-04T12:52:50.000Z</time>
</trkpt>
<trkpt lat="42.638072" lon="-2.374637">
<ele>1291</ele>
<time>2013-05-04T12:52:51.000Z</time>
</trkpt>
<trkpt lat="42.638072" lon="-2.374714">
<ele>1292</ele>
<time>2013-05-04T12:52:52.000Z</time>
</trkpt>
<trkpt lat="42.638047" lon="-2.374794">
<ele>1294</ele>
<time>2013-05-04T12:52:53.000Z</time>
</trkpt>
<trkpt lat="42.638011" lon="-2.374879">
<ele>1295</ele>
<time>2013-05-04T12:52:54.000Z</time>
</trkpt>
<trkpt lat="42.637965" lon="-2.374963">
<ele>1297</ele>
<time>2013-05-04T12:52:55.000Z</time>
</trkpt>
<trkpt lat="42.637896" lon="-2.375036">
<ele>1298</ele>
<time>2013-05-04T12:52:56.000Z</time>
</trkpt>
<trkpt lat="42.637816" lon="-2.375092">
<ele>1300</ele>
<time>2013-05-04T12:52:57.000Z</time>
</trkpt>
<trkpt lat="42.63773" lon="-2.375116">
<ele>1301</ele>
<time>2013-05-04T12:52:58.000Z</time>
</trkpt>
<trkpt lat="42.637635" lon="-2.375109">
<ele>1304</ele>
<time>2013-05-04T12:52:59.000Z</time>
</trkpt>
<trkpt lat="42.63754" lon="-2.375065">
<ele>1306</ele>
<time>2013-05-04T12:53:00.000Z</time>
</trkpt>
<trkpt lat="42.637459" lon="-2.374994">
<ele>1309</ele>
<time>2013-05-04T12:53:01.000Z</time>
</trkpt>
<trkpt lat="42.637392" lon="-2.374922">
<ele>1311</ele>
<time>2013-05-04T12:53:02.000Z</time>
</trkpt>
<trkpt lat="42.63735" lon="-2.37485">
<ele>1313</ele>
<time>2013-05-04T12:53:03.000Z</time>
</trkpt>
<trkpt lat="42.637319" lon="-2.374784">
<ele>1314</ele>
<time>2013-05-04T12:53:04.000Z</time>
</trkpt>
<trkpt lat="42.6373" lon="-2.37469">
<ele>1316</ele>
<time>2013-05-04T12:53:05.000Z</time>
</trkpt>
<trkpt lat="42.637291" lon="-2.37461">
<ele>1318</ele>
<time>2013-05-04T12:53:06.000Z</time>
</trkpt>
<trkpt lat="42.637301" lon="-2.37454">
<ele>1320</ele>
<time>2013-05-04T12:53:07.000Z</time>
</trkpt>
<trkpt lat="42.637314" lon="-2.374477">
<ele>1321</ele>
<time>2013-05-04T12:53:08.000Z</time>
</trkpt>
<trkpt lat="42.637326" lon="-2.374411">
<ele>1323</ele>
<time>2013-05-04T12:53:09.000Z</time>
</trkpt>
<trkpt lat="42.637341" lon="-2.374345">
<ele>1325</ele>
<time>2013-05-04T12:53:10.000Z</time>
</trkpt>
<trkpt lat="42.637369" lon="-2.37429">
<ele>1325</ele>
<time>2013-05-04T12:53:11.000Z</time>
</trkpt>
<trkpt lat="42.637408" lon="-2.374249">
<ele>1326</ele>
<time>2013-05-04T12:53:12.000Z</time>
</trkpt>
<trkpt lat="42.637453" lon="-2.374225">
<ele>1327</ele>
<time>2013-05-04T12:53:13.000Z</time>
</trkpt>
<trkpt lat="42.637487" lon="-2.37421">
<ele>1327</ele>
<time>2013-05-04T12:53:14.000Z</time>
</trkpt>
<trkpt lat="42.637523" lon="-2.374219">
<ele>1327</ele>
<time>2013-05-04T12:53:15.000Z</time>
</trkpt>
<trkpt lat="42.637571" lon="-2.374249">
<ele>1329</ele>
<time>2013-05-04T12:53:16.000Z</time>
</trkpt>
<trkpt lat="42.637618" lon="-2.3743">
<ele>1330</ele>
<time>2013-05-04T12:53:17.000Z</time>
</trkpt>
<trkpt lat="42.637661" lon="-2.374364">
<ele>1331</ele>
<time>2013-05-04T12:53:18.000Z</time>
</trkpt>
<trkpt lat="42.637691" lon="-2.374449">
<ele>1333</ele>
<time>2013-05-04T12:53:19.000Z</time>
</trkpt>
<trkpt lat="42.637703" lon="-2.374542">
<ele>1333</ele>
<time>2013-05-04T12:53:20.000Z</time>
</trkpt>
<trkpt lat="42.637692" lon="-2.374637">
<ele>1335</ele>
<time>2013-05-04T12:53:21.000Z</time>
</trkpt>
<trkpt lat="42.637657" lon="-2.374721">
<ele>1337</ele>
<time>2013-05-04T12:53:22.000Z</time>
</trkpt>
<trkpt lat="42.637605" lon="-2.374796">
<ele>1338</ele>
<time>2013-05-04T12:53:23.000Z</time>
</trkpt>
<trkpt lat="42.637545" lon="-2.374871">
<ele>1339</ele>
<time>2013-05-04T12:53:24.000Z</time>
</trkpt>
<trkpt lat="42.637476" lon="-2.374941">
<ele>1339</ele>
<time>2013-05-04T12:53:25.000Z</time>
</trkpt>
<trkpt lat="42.637385" lon="-2.374989">
<ele>1340</ele>
<time>2013-05-04T12:53:26.000Z</time>
</trkpt>
<trkpt lat="42.637276" lon="-2.374993">
<ele>1340</ele>
<time>2013-05-04T12:53:27.000Z</time>
</trkpt>
<trkpt lat="42.637169" lon="-2.374951">
<ele>1340</ele>
<time>2013-05-04T12:53:28.000Z</time>
</trkpt>
<trkpt lat="42.637075" lon="-2.374879">
<ele>1341</ele>
<time>2013-05-04T12:53:29.000Z</time>
</trkpt>
<trkpt lat="42.637008" lon="-2.374815">
<ele>1341</ele>
<time>2013-05-04T12:53:30.000Z</time>
</trkpt>
<trkpt lat="42.636954" lon="-2.374727">
<ele>1343</ele>
<time>2013-05-04T12:53:31.000Z</time>
</trkpt>
<trkpt lat="42.636907" lon="-2.374641">
<ele>1344</ele>
<time>2013-05-04T12:53:32.000Z</time>
</trkpt>
<trkpt lat="42.636865" lon="-2.37455">
<ele>1345</ele>
<time>2013-05-04T12:53:33.000Z</time>
</trkpt>
<trkpt lat="42.636841" lon="-2.374443">
<ele>1345</ele>
<time>2013-05-04T12:53:34.000Z</time>
</trkpt>
<trkpt lat="42.636835" lon="-2.374331">
<ele>1345</ele>
<time>2013-05-04T12:53:35.000Z</time>
</trkpt>
<trkpt lat="42.636845" lon="-2.37422">
<ele>1347</ele>
<time>2013-05-04T12:53:36.000Z</time>
</trkpt>
<trkpt lat="42.636872" lon="-2.37412">
<ele>1350</ele>
<time>2013-05-04T12:53:37.000Z</time>
</trkpt>
<trkpt lat="42.636914" lon="-2.374034">
<ele>1352</ele>
<time>2013-05-04T12:53:38.000Z</time>
</trkpt>
<trkpt lat="42.636944" lon="-2.373971">
<ele>1354</ele>
<time>2013-05-04T12:53:39.000Z</time>
</trkpt>
<trkpt lat="42.636971" lon="-2.373903">
<ele>1356</ele>
<time>2013-05-04T12:53:40.000Z</time>
</trkpt>
<trkpt lat="42.636984" lon="-2.373827">
<ele>1356</ele>
<time>2013-05-04T12:53:41.000Z</time>
</trkpt>
<trkpt lat="42.637004" lon="-2.373737">
<ele>1358</ele>
<time>2013-05-04T12:53:42.000Z</time>
</trkpt>
<trkpt lat="42.637041" lon="-2.373656">
<ele>1359</ele>
<time>2013-05-04T12:53:43.000Z</time>
</trkpt>
<trkpt lat="42.637086" lon="-2.373579">
<ele>1361</ele>
<time>2013-05-04T12:53:44.000Z</time>
</trkpt>
<trkpt lat="42.637135" lon="-2.373507">
<ele>1363</ele>
<time>2013-05-04T12:53:45.000Z</time>
</trkpt>
<trkpt lat="42.637185" lon="-2.373437">
<ele>1364</ele>
<time>2013-05-04T12:53:46.000Z</time>
</trkpt>
<trkpt lat="42.637236" lon="-2.373361">
<ele>1365</ele>
<time>2013-05-04T12:53:47.000Z</time>
</trkpt>
<trkpt lat="42.637284" lon="-2.373289">
<ele>1366</ele>
<time>2013-05-04T12:53:48.000Z</time>
</trkpt>
<trkpt lat="42.637335" lon="-2.373222">
<ele>1366</ele>
<time>2013-05-04T12:53:49.000Z</time>
</trkpt>
<trkpt lat="42.637409" lon="-2.373176">
<ele>1367</ele>
<time>2013-05-04T12:53:50.000Z</time>
</trkpt>
<trkpt lat="42.637493" lon="-2.373149">
<ele>1367</ele>
<time>2013-05-04T12:53:51.000Z</time>
</trkpt>
<trkpt lat="42.637579" lon="-2.373157">
<ele>1369</ele>
<time>2013-05-04T12:53:52.000Z</time>
</trkpt>
<trkpt lat="42.637649" lon="-2.373173">
<ele>1372</ele>
<time>2013-05-04T12:53:53.000Z</time>
</trkpt>
<trkpt lat="42.637707" lon="-2.373208">
<ele>1374</ele>
<time>2013-05-04T12:53:54.000Z</time>
</trkpt>
<trkpt lat="42.637759" lon="-2.373244">
<ele>1378</ele>
<time>2013-05-04T12:53:55.000Z</time>
</trkpt>
<trkpt lat="42.637805" lon="-2.373295">
<ele>1381</ele>
<time>2013-05-04T12:53:56.000Z</time>
</trkpt>
<trkpt lat="42.637841" lon="-2.373364">
<ele>1384</ele>
<time>2013-05-04T12:53:57.000Z</time>
</trkpt>
<trkpt lat="42.637866" lon="-2.373439">
<ele>1385</ele>
<time>2013-05-04T12:53:58.000Z</time>
</trkpt>
<trkpt lat="42.637889" lon="-2.373517">
<ele>1387</ele>
<time>2013-05-04T12:53:59.000Z</time>
</trkpt>
<trkpt lat="42.637907" lon="-2.373598">
<ele>1388</ele>
<time>2013-05-04T12:54:00.000Z</time>
</trkpt>
<trkpt lat="42.637924" lon="-2.373671">
<ele>1389</ele>
<time>2013-05-04T12:54:01.000Z</time>
</trkpt>
<trkpt lat="42.63796" lon="-2.373725">
<ele>1390</ele>
<time>2013-05-04T12:54:02.000Z</time>
</trkpt>
<trkpt lat="42.638018" lon="-2.373752">
<ele>1390</ele>
<time>2013-05-04T12:54:03.000Z</time>
</trkpt>
<trkpt lat="42.638084" lon="-2.373757">
<ele>1392</ele>
<time>2013-05-04T12:54:04.000Z</time>
</trkpt>
<trkpt lat="42.638134" lon="-2.373735">
<ele>1394</ele>
<time>2013-05-04T12:54:05.000Z</time>
</trkpt>
<trkpt lat="42.63818" lon="-2.373683">
<ele>1398</ele>
<time>2013-05-04T12:54:06.000Z</time>
</trkpt>
<trkpt lat="42.63821" lon="-2.373613">
<ele>1399</ele>
<time>2013-05-04T12:54:07.000Z</time>
</trkpt>
<trkpt lat="42.638236" lon="-2.373534">
<ele>1399</ele>
<time>2013-05-04T12:54:08.000Z</time>
</trkpt>
<trkpt lat="42.63825" lon="-2.373442">
<ele>1400</ele>
<time>2013-05-04T12:54:09.000Z</time>
</trkpt>
<trkpt lat="42.638244" lon="-2.373354">
<ele>1400</ele>
<time>2013-05-04T12:54:10.000Z</time>
</trkpt>
<trkpt lat="42.638218" lon="-2.373267">
<ele>1401</ele>
<time>2013-05-04T12:54:11.000Z</time>
</trkpt>
<trkpt lat="42.638167" lon="-2.373201">
<ele>1401</ele>
<time>2013-05-04T12:54:12.000Z</time>
</trkpt>
<trkpt lat="42.638101" lon="-2.373164">
<ele>1400</ele>
<time>2013-05-04T12:54:13.000Z</time>
</trkpt>
<trkpt lat="42.638018" lon="-2.37315">
<ele>1400</ele>
<time>2013-05-04T12:54:14.000Z</time>
</trkpt>
<trkpt lat="42.63793" lon="-2.37314">
<ele>1401</ele>
<time>2013-05-04T12:54:15.000Z</time>
</trkpt>
<trkpt lat="42.63784" lon="-2.373141">
<ele>1402</ele>
<time>2013-05-04T12:54:16.000Z</time>
</trkpt>
<trkpt lat="42.637755" lon="-2.373173">
<ele>1404</ele>
<time>2013-05-04T12:54:17.000Z</time>
</trkpt>
<trkpt lat="42.637686" lon="-2.373214">
<ele>1405</ele>
<time>2013-05-04T12:54:18.000Z</time>
</trkpt>
<trkpt lat="42.637624" lon="-2.373275">
<ele>1407</ele>
<time>2013-05-04T12:54:19.000Z</time>
</trkpt>
<trkpt lat="42.637562" lon="-2.373327">
<ele>1408</ele>
<time>2013-05-04T12:54:20.000Z</time>
</trkpt>
<trkpt lat="42.637499" lon="-2.373371">
<ele>1409</ele>
<time>2013-05-04T12:54:21.000Z</time>
</trkpt>
<trkpt lat="42.63743" lon="-2.373414">
<ele>1411</ele>
<time>2013-05-04T12:54:22.000Z</time>
</trkpt>
<trkpt lat="42.637366" lon="-2.373476">
<ele>1415</ele>
<time>2013-05-04T12:54:23.000Z</time>
</trkpt>
<trkpt lat="42.637325" lon="-2.37355">
<ele>1417</ele>
<time>2013-05-04T12:54:24.000Z</time>
</trkpt>
<trkpt lat="42.637298" lon="-2.373634">
<ele>1419</ele>
<time>2013-05-04T12:54:25.000Z</time>
</trkpt>
<trkpt lat="42.637277" lon="-2.373721">
<ele>1420</ele>
<time>2013-05-04T12:54:26.000Z</time>
</trkpt>
<trkpt lat="42.637272" lon="-2.373809">
<ele>1420</ele>
<time>2013-05-04T12:54:27.000Z</time>
</trkpt>
<trkpt lat="42.637273" lon="-2.373894">
<ele>1420</ele>
<time>2013-05-04T12:54:28.000Z</time>
</trkpt>
<trkpt lat="42.637288" lon="-2.373981">
<ele>1422</ele>
<time>2013-05-04T12:54:29.000Z</time>
</trkpt>
<trkpt lat="42.637306" lon="-2.374053">
<ele>1425</ele>
<time>2013-05-04T12:54:30.000Z</time>
</trkpt>
<trkpt lat="42.637332" lon="-2.374111">
<ele>1427</ele>
<time>2013-05-04T12:54:31.000Z</time>
</trkpt>
<trkpt lat="42.637353" lon="-2.374154">
<ele>1429</ele>
<time>2013-05-04T12:54:32.000Z</time>
</trkpt>
<trkpt lat="42.637376" lon="-2.374194">
<ele>1430</ele>
<time>2013-05-04T12:54:33.000Z</time>
</trkpt>
<trkpt lat="42.637415" lon="-2.374223">
<ele>1432</ele>
<time>2013-05-04T12:54:34.000Z</time>
</trkpt>
<trkpt lat="42.637457" lon="-2.37425">
<ele>1433</ele>
<time>2013-05-04T12:54:35.000Z</time>
</trkpt>
<trkpt lat="42.63751" lon="-2.374255">
<ele>1434</ele>
<time>2013-05-04T12:54:36.000Z</time>
</trkpt>
<trkpt lat="42.637563" lon="-2.374237">
<ele>1434</ele>
<time>2013-05-04T12:54:37.000Z</time>
</trkpt>
<trkpt lat="42.637604" lon="-2.374196">
<ele>1435</ele>
<time>2013-05-04T12:54:38.000Z</time>
</trkpt>
<trkpt lat="42.637641" lon="-2.37414">
<ele>1436</ele>
<time>2013-05-04T12:54:39.000Z</time>
</trkpt>
<trkpt lat="42.637681" lon="-2.374071">
<ele>1437</ele>
<time>2013-05-04T12:54:40.000Z</time>
</trkpt>
<trkpt lat="42.637718" lon="-2.373997">
<ele>1438</ele>
<time>2013-05-04T12:54:41.000Z</time>
</trkpt>
<trkpt lat="42.637751" lon="-2.373913">
<ele>1438</ele>
<time>2013-05-04T12:54:42.000Z</time>
</trkpt>
<trkpt lat="42.637761" lon="-2.373834">
<ele>1438</ele>
<time>2013-05-04T12:54:43.000Z</time>
</trkpt>
<trkpt lat="42.637759" lon="-2.373747">
<ele>1438</ele>
<time>2013-05-04T12:54:44.000Z</time>
</trkpt>
<trkpt lat="42.637752" lon="-2.373653">
<ele>1438</ele>
<time>2013-05-04T12:54:45.000Z</time>
</trkpt>
<trkpt lat="42.637721" lon="-2.373546">
<ele>1439</ele>
<time>2013-05-04T12:54:46.000Z</time>
</trkpt>
<trkpt lat="42.637682" lon="-2.373445">
<ele>1441</ele>
<time>2013-05-04T12:54:47.000Z</time>
</trkpt>
<trkpt lat="42.637623" lon="-2.373376">
<ele>1444</ele>
<time>2013-05-04T12:54:48.000Z</time>
</trkpt>
<trkpt lat="42.637573" lon="-2.373341">
<ele>1446</ele>
<time>2013-05-04T12:54:49.000Z</time>
</trkpt>
<trkpt lat="42.637525" lon="-2.373309">
<ele>1449</ele>
<time>2013-05-04T12:54:50.000Z</time>
</trkpt>
<trkpt lat="42.637484" lon="-2.373281">
<ele>1450</ele>
<time>2013-05-04T12:54:51.000Z</time>
</trkpt>
<trkpt lat="42.637431" lon="-2.373237">
<ele>1452</ele>
<time>2013-05-04T12:54:52.000Z</time>
</trkpt>
<trkpt lat="42.637373" lon="-2.373179">
<ele>1452</ele>
<time>2013-05-04T12:54:53.000Z</time>
</trkpt>
<trkpt lat="42.637327" lon="-2.373098">
<ele>1453</ele>
<time>2013-05-04T12:54:54.000Z</time>
</trkpt>
<trkpt lat="42.637301" lon="-2.373011">
<ele>1455</ele>
<time>2013-05-04T12:54:55.000Z</time>
</trkpt>
<trkpt lat="42.637294" lon="-2.372923">
<ele>1455</ele>
<time>2013-05-04T12:54:56.000Z</time>
</trkpt>
<trkpt lat="42.637292" lon="-2.372844">
<ele>1456</ele>
<time>2013-05-04T12:54:57.000Z</time>
</trkpt>
<trkpt lat="42.637294" lon="-2.372769">
<ele>1457</ele>
<time>2013-05-04T12:54:58.000Z</time>
</trkpt>
<trkpt lat="42.63731" lon="-2.3727">
<ele>1458</ele>
<time>2013-05-04T12:54:59.000Z</time>
</trkpt>
<trkpt lat="42.63735" lon="-2.372631">
<ele>1458</ele>
<time>2013-05-04T12:55:00.000Z</time>
</trkpt>
<trkpt lat="42.637415" lon="-2.37257">
<ele>1459</ele>
<time>2013-05-04T12:55:01.000Z</time>
</trkpt>
<trkpt lat="42.637495" lon="-2.372534">
<ele>1460</ele>
<time>2013-05-04T12:55:02.000Z</time>
</trkpt>
<trkpt lat="42.637585" lon="-2.37253">
<ele>1460</ele>
<time>2013-05-04T12:55:03.000Z</time>
</trkpt>
<trkpt lat="42.637661" lon="-2.372568">
<ele>1461</ele>
<time>2013-05-04T12:55:04.000Z</time>
</trkpt>
<trkpt lat="42.637734" lon="-2.372633">
<ele>1462</ele>
<time>2013-05-04T12:55:05.000Z</time>
</trkpt>
<trkpt lat="42.637801" lon="-2.372704">
<ele>1463</ele>
<time>2013-05-04T12:55:06.000Z</time>
</trkpt>
<trkpt lat="42.637863" lon="-2.37278">
<ele>1464</ele>
<time>2013-05-04T12:55:07.000Z</time>
</trkpt>
<trkpt lat="42.637909" lon="-2.372875">
<ele>1466</ele>
<time>2013-05-04T12:55:08.000Z</time>
</trkpt>
<trkpt lat="42.637947" lon="-2.372976">
<ele>1467</ele>
<time>2013-05-04T12:55:09.000Z</time>
</trkpt>
<trkpt lat="42.637965" lon="-2.373092">
<ele>1467</ele>
<time>2013-05-04T12:55:10.000Z</time>
</trkpt>
<trkpt lat="42.637975" lon="-2.37321">
<ele>1468</ele>
<time>2013-05-04T12:55:11.000Z</time>
</trkpt>
<trkpt lat="42.637956" lon="-2.373333">
<ele>1468</ele>
<time>2013-05-04T12:55:12.000Z</time>
</trkpt>
<trkpt lat="42.637935" lon="-2.373445">
<ele>1469</ele>
<time>2013-05-04T12:55:13.000Z</time>
</trkpt>
<trkpt lat="42.637911" lon="-2.373558">
<ele>1470</ele>
<time>2013-05-04T12:55:14.000Z</time>
</trkpt>
<trkpt lat="42.637885" lon="-2.373668">
<ele>1471</ele>
<time>2013-05-04T12:55:15.000Z</time>
</trkpt>
<trkpt lat="42.63784" lon="-2.373757">
<ele>1471</ele>
<time>2013-05-04T12:55:16.000Z</time>
</trkpt>
<trkpt lat="42.637776" lon="-2.373824">
<ele>1471</ele>
<time>2013-05-04T12:55:17.000Z</time>
</trkpt>
<trkpt lat="42.637699" lon="-2.373868">
<ele>1471</ele>
<time>2013-05-04T12:55:18.000Z</time>
</trkpt>
<trkpt lat="42.637615" lon="-2.373888">
<ele>1470</ele>
<time>2013-05-04T12:55:19.000Z</time>
</trkpt>
<trkpt lat="42.637527" lon="-2.373877">
<ele>1470</ele>
<time>2013-05-04T12:55:20.000Z</time>
</trkpt>
<trkpt lat="42.637446" lon="-2.373834">
<ele>1470</ele>
<time>2013-05-04T12:55:21.000Z</time>
</trkpt>
<trkpt lat="42.637376" lon="-2.373761">
<ele>1471</ele>
<time>2013-05-04T12:55:22.000Z</time>
</trkpt>
<trkpt lat="42.637319" lon="-2.373667">
<ele>1471</ele>
<time>2013-05-04T12:55:23.000Z</time>
</trkpt>
<trkpt lat="42.637282" lon="-2.37356">
<ele>1472</ele>
<time>2013-05-04T12:55:24.000Z</time>
</trkpt>
<trkpt lat="42.637265" lon="-2.373437">
<ele>1473</ele>
<time>2013-05-04T12:55:25.000Z</time>
</trkpt>
<trkpt lat="42.637256" lon="-2.373312">
<ele>1475</ele>
<time>2013-05-04T12:55:26.000Z</time>
</trkpt>
<trkpt lat="42.637256" lon="-2.373199">
<ele>1478</ele>
<time>2013-05-04T12:55:27.000Z</time>
</trkpt>
<trkpt lat="42.637259" lon="-2.373101">
<ele>1480</ele>
<time>2013-05-04T12:55:28.000Z</time>
</trkpt>
<trkpt lat="42.637265" lon="-2.37301">
<ele>1481</ele>
<time>2013-05-04T12:55:29.000Z</time>
</trkpt>
<trkpt lat="42.637275" lon="-2.372914">
<ele>1482</ele>
<time>2013-05-04T12:55:30.000Z</time>
</trkpt>
<trkpt lat="42.637287" lon="-2.37281">
<ele>1484</ele>
<time>2013-05-04T12:55:31.000Z</time>
</trkpt>
<trkpt lat="42.637294" lon="-2.372705">
<ele>1484</ele>
<time>2013-05-04T12:55:32.000Z</time>
</trkpt>
<trkpt lat="42.637299" lon="-2.372605">
<ele>1485</ele>
<time>2013-05-04T12:55:33.000Z</time>
</trkpt>
<trkpt lat="42.637325" lon="-2.37251">
<ele>1486</ele>
<time>2013-05-04T12:55:34.000Z</time>
</trkpt>
<trkpt lat="42.637371" lon="-2.372413">
<ele>1487</ele>
<time>2013-05-04T12:55:35.000Z</time>
</trkpt>
<trkpt lat="42.637424" lon="-2.372303">
<ele>1488</ele>
<time>2013-05-04T12:55:36.000Z</time>
</trkpt>
<trkpt lat="42.637467" lon="-2.37219">
<ele>1489</ele>
<time>2013-05-04T12:55:37.000Z</time>
</trkpt>
<trkpt lat="42.637498" lon="-2.372088">
<ele>1492</ele>
<time>2013-05-04T12:55:38.000Z</time>
</trkpt>
<trkpt lat="42.637529" lon="-2.371993">
<ele>1494</ele>
<time>2013-05-04T12:55:39.000Z</time>
</trkpt>
<trkpt lat="42.637583" lon="-2.371903">
<ele>1497</ele>
<time>2013-05-04T12:55:40.000Z</time>
</trkpt>
<trkpt lat="42.637647" lon="-2.371806">
<ele>1499</ele>
<time>2013-05-04T12:55:41.000Z</time>
</trkpt>
<trkpt lat="42.637712" lon="-2.371706">
<ele>1502</ele>
<time>2013-05-04T12:55:42.000Z</time>
</trkpt>
<trkpt lat="42.637767" lon="-2.371625">
<ele>1504</ele>
<time>2013-05-04T12:55:43.000Z</time>
</trkpt>
<trkpt lat="42.637839" lon="-2.371571">
<ele>1506</ele>
<time>2013-05-04T12:55:44.000Z</time>
</trkpt>
<trkpt lat="42.637926" lon="-2.371537">
<ele>1507</ele>
<time>2013-05-04T12:55:45.000Z</time>
</trkpt>
<trkpt lat="42.638016" lon="-2.371506">
<ele>1508</ele>
<time>2013-05-04T12:55:46.000Z</time>
</trkpt>
<trkpt lat="42.638094" lon="-2.371479">
<ele>1511</ele>
<time>2013-05-04T12:55:47.000Z</time>
</trkpt>
<trkpt lat="42.638177" lon="-2.37148">
<ele>1513</ele>
<time>2013-05-04T12:55:48.000Z</time>
</trkpt>
<trkpt lat="42.638258" lon="-2.371525">
<ele>1515</ele>
<time>2013-05-04T12:55:49.000Z</time>
</trkpt>
<trkpt lat="42.638357" lon="-2.371587">
<ele>1520</ele>
<time>2013-05-04T12:55:50.000Z</time>
</trkpt>
<trkpt lat="42.638436" lon="-2.37165">
<ele>1521</ele>
<time>2013-05-04T12:55:51.000Z</time>
</trkpt>
<trkpt lat="42.638506" lon="-2.371715">
<ele>1523</ele>
<time>2013-05-04T12:55:52.000Z</time>
</trkpt>
<trkpt lat="42.638578" lon="-2.371777">
<ele>1526</ele>
<time>2013-05-04T12:55:53.000Z</time>
</trkpt>
<trkpt lat="42.638653" lon="-2.371834">
<ele>1529</ele>
<time>2013-05-04T12:55:54.000Z</time>
</trkpt>
<trkpt lat="42.638721" lon="-2.371874">
<ele>1532</ele>
<time>2013-05-04T12:55:55.000Z</time>
</trkpt>
<trkpt lat="42.638783" lon="-2.37188">
<ele>1534</ele>
<time>2013-05-04T12:55:56.000Z</time>
</trkpt>
<trkpt lat="42.638843" lon="-2.371863">
<ele>1536</ele>
<time>2013-05-04T12:55:57.000Z</time>
</trkpt>
<trkpt lat="42.638906" lon="-2.371842">
<ele>1539</ele>
<time>2013-05-04T12:55:58.000Z</time>
</trkpt>
<trkpt lat="42.638975" lon="-2.371815">
<ele>1541</ele>
<time>2013-05-04T12:55:59.000Z</time>
</trkpt>
<trkpt lat="42.639039" lon="-2.371783">
<ele>1542</ele>
<time>2013-05-04T12:56:00.000Z</time>
</trkpt>
<trkpt lat="42.639097" lon="-2.371733">
<ele>1545</ele>
<time>2013-05-04T12:56:01.000Z</time>
</trkpt>
<trkpt lat="42.639143" lon="-2.371674">
<ele>1546</ele>
<time>2013-05-04T12:56:02.000Z</time>
</trkpt>
<trkpt lat="42.639185" lon="-2.371611">
<ele>1548</ele>
<time>2013-05-04T12:56:03.000Z</time>
</trkpt>
<trkpt lat="42.639227" lon="-2.371544">
<ele>1548</ele>
<time>2013-05-04T12:56:04.000Z</time>
</trkpt>
<trkpt lat="42.639274" lon="-2.371469">
<ele>1548</ele>
<time>2013-05-04T12:56:05.000Z</time>
</trkpt>
<trkpt lat="42.639323" lon="-2.371394">
<ele>1549</ele>
<time>2013-05-04T12:56:06.000Z</time>
</trkpt>
<trkpt lat="42.639351" lon="-2.371325">
<ele>1550</ele>
<time>2013-05-04T12:56:07.000Z</time>
</trkpt>
<trkpt lat="42.639373" lon="-2.371264">
<ele>1552</ele>
<time>2013-05-04T12:56:08.000Z</time>
</trkpt>
<trkpt lat="42.639386" lon="-2.371219">
<ele>1553</ele>
<time>2013-05-04T12:56:09.000Z</time>
</trkpt>
<trkpt lat="42.639389" lon="-2.371168">
<ele>1553</ele>
<time>2013-05-04T12:56:10.000Z</time>
</trkpt>
<trkpt lat="42.639381" lon="-2.371108">
<ele>1552</ele>
<time>2013-05-04T12:56:11.000Z</time>
</trkpt>
<trkpt lat="42.639355" lon="-2.371037">
<ele>1551</ele>
<time>2013-05-04T12:56:12.000Z</time>
</trkpt>
<trkpt lat="42.639325" lon="-2.370964">
<ele>1551</ele>
<time>2013-05-04T12:56:13.000Z</time>
</trkpt>
<trkpt lat="42.639294" lon="-2.370887">
<ele>1551</ele>
<time>2013-05-04T12:56:14.000Z</time>
</trkpt>
<trkpt lat="42.639267" lon="-2.370812">
<ele>1551</ele>
<time>2013-05-04T12:56:15.000Z</time>
</trkpt>
<trkpt lat="42.639254" lon="-2.370724">
<ele>1551</ele>
<time>2013-05-04T12:56:16.000Z</time>
</trkpt>
<trkpt lat="42.639242" lon="-2.370635">
<ele>1550</ele>
<time>2013-05-04T12:56:17.000Z</time>
</trkpt>
<trkpt lat="42.639229" lon="-2.37054">
<ele>1550</ele>
<time>2013-05-04T12:56:18.000Z</time>
</trkpt>
<trkpt lat="42.639214" lon="-2.370443">
<ele>1549</ele>
<time>2013-05-04T12:56:19.000Z</time>
</trkpt>
<trkpt lat="42.6392" lon="-2.370329">
<ele>1550</ele>
<time>2013-05-04T12:56:20.000Z</time>
</trkpt>
<trkpt lat="42.639186" lon="-2.370217">
<ele>1552</ele>
<time>2013-05-04T12:56:21.000Z</time>
</trkpt>
<trkpt lat="42.639174" lon="-2.37012">
<ele>1554</ele>
<time>2013-05-04T12:56:22.000Z</time>
</trkpt>
<trkpt lat="42.639165" lon="-2.37004">
<ele>1554</ele>
<time>2013-05-04T12:56:23.000Z</time>
</trkpt>
<trkpt lat="42.639157" lon="-2.369968">
<ele>1554</ele>
<time>2013-05-04T12:56:24.000Z</time>
</trkpt>
<trkpt lat="42.639154" lon="-2.369901">
<ele>1554</ele>
<time>2013-05-04T12:56:25.000Z</time>
</trkpt>
<trkpt lat="42.639151" lon="-2.369823">
<ele>1554</ele>
<time>2013-05-04T12:56:26.000Z</time>
</trkpt>
<trkpt lat="42.639148" lon="-2.369736">
<ele>1554</ele>
<time>2013-05-04T12:56:27.000Z</time>
</trkpt>
<trkpt lat="42.639144" lon="-2.369649">
<ele>1555</ele>
<time>2013-05-04T12:56:28.000Z</time>
</trkpt>
<trkpt lat="42.63914" lon="-2.36956">
<ele>1556</ele>
<time>2013-05-04T12:56:29.000Z</time>
</trkpt>
<trkpt lat="42.639134" lon="-2.369473">
<ele>1557</ele>
<time>2013-05-04T12:56:30.000Z</time>
</trkpt>
<trkpt lat="42.639127" lon="-2.36939">
<ele>1558</ele>
<time>2013-05-04T12:56:31.000Z</time>
</trkpt>
<trkpt lat="42.639121" lon="-2.369313">
<ele>1559</ele>
<time>2013-05-04T12:56:32.000Z</time>
</trkpt>
<trkpt lat="42.639116" lon="-2.369224">
<ele>1561</ele>
<time>2013-05-04T12:56:33.000Z</time>
</trkpt>
<trkpt lat="42.639125" lon="-2.369123">
<ele>1562</ele>
<time>2013-05-04T12:56:34.000Z</time>
</trkpt>
<trkpt lat="42.639157" lon="-2.369022">
<ele>1562</ele>
<time>2013-05-04T12:56:35.000Z</time>
</trkpt>
<trkpt lat="42.639208" lon="-2.368931">
<ele>1562</ele>
<time>2013-05-04T12:56:36.000Z</time>
</trkpt>
<trkpt lat="42.639261" lon="-2.368852">
<ele>1562</ele>
<time>2013-05-04T12:56:37.000Z</time>
</trkpt>
<trkpt lat="42.639331" lon="-2.368798">
<ele>1562</ele>
<time>2013-05-04T12:56:38.000Z</time>
</trkpt>
<trkpt lat="42.639405" lon="-2.368748">
<ele>1562</ele>
<time>2013-05-04T12:56:39.000Z</time>
</trkpt>
<trkpt lat="42.639491" lon="-2.368721">
<ele>1563</ele>
<time>2013-05-04T12:56:40.000Z</time>
</trkpt>
<trkpt lat="42.639584" lon="-2.368702">
<ele>1563</ele>
<time>2013-05-04T12:56:41.000Z</time>
</trkpt>
<trkpt lat="42.639676" lon="-2.368722">
<ele>1564</ele>
<time>2013-05-04T12:56:42.000Z</time>
</trkpt>
<trkpt lat="42.639763" lon="-2.368776">
<ele>1564</ele>
<time>2013-05-04T12:56:43.000Z</time>
</trkpt>
<trkpt lat="42.639836" lon="-2.368862">
<ele>1565</ele>
<time>2013-05-04T12:56:44.000Z</time>
</trkpt>
<trkpt lat="42.639891" lon="-2.368969">
<ele>1566</ele>
<time>2013-05-04T12:56:45.000Z</time>
</trkpt>
<trkpt lat="42.639932" lon="-2.369071">
<ele>1566</ele>
<time>2013-05-04T12:56:46.000Z</time>
</trkpt>
<trkpt lat="42.639955" lon="-2.369182">
<ele>1568</ele>
<time>2013-05-04T12:56:47.000Z</time>
</trkpt>
<trkpt lat="42.639971" lon="-2.369281">
<ele>1568</ele>
<time>2013-05-04T12:56:48.000Z</time>
</trkpt>
<trkpt lat="42.639979" lon="-2.369358">
<ele>1568</ele>
<time>2013-05-04T12:56:49.000Z</time>
</trkpt>
<trkpt lat="42.639974" lon="-2.369423">
<ele>1568</ele>
<time>2013-05-04T12:56:50.000Z</time>
</trkpt>
<trkpt lat="42.639958" lon="-2.369486">
<ele>1568</ele>
<time>2013-05-04T12:56:51.000Z</time>
</trkpt>
<trkpt lat="42.639921" lon="-2.369546">
<ele>1568</ele>
<time>2013-05-04T12:56:52.000Z</time>
</trkpt>
<trkpt lat="42.639867" lon="-2.36959">
<ele>1567</ele>
<time>2013-05-04T12:56:53.000Z</time>
</trkpt>
<trkpt lat="42.639805" lon="-2.369597">
<ele>1566</ele>
<time>2013-05-04T12:56:54.000Z</time>
</trkpt>
<trkpt lat="42.639753" lon="-2.369555">
<ele>1567</ele>
<time>2013-05-04T12:56:55.000Z</time>
</trkpt>
<trkpt lat="42.639724" lon="-2.36948">
<ele>1566</ele>
<time>2013-05-04T12:56:56.000Z</time>
</trkpt>
<trkpt lat="42.63972" lon="-2.369372">
<ele>1565</ele>
<time>2013-05-04T12:56:57.000Z</time>
</trkpt>
<trkpt lat="42.639723" lon="-2.369264">
<ele>1566</ele>
<time>2013-05-04T12:56:58.000Z</time>
</trkpt>
<trkpt lat="42.639729" lon="-2.369158">
<ele>1568</ele>
<time>2013-05-04T12:56:59.000Z</time>
</trkpt>
<trkpt lat="42.639736" lon="-2.369057">
<ele>1569</ele>
<time>2013-05-04T12:57:00.000Z</time>
</trkpt>
<trkpt lat="42.639747" lon="-2.368958">
<ele>1570</ele>
<time>2013-05-04T12:57:01.000Z</time>
</trkpt>
<trkpt lat="42.639761" lon="-2.368864">
<ele>1570</ele>
<time>2013-05-04T12:57:02.000Z</time>
</trkpt>
<trkpt lat="42.639779" lon="-2.368767">
<ele>1569</ele>
<time>2013-05-04T12:57:03.000Z</time>
</trkpt>
<trkpt lat="42.639803" lon="-2.368668">
<ele>1568</ele>
<time>2013-05-04T12:57:04.000Z</time>
</trkpt>
<trkpt lat="42.639832" lon="-2.368566">
<ele>1566</ele>
<time>2013-05-04T12:57:05.000Z</time>
</trkpt>
<trkpt lat="42.639869" lon="-2.368458">
<ele>1564</ele>
<time>2013-05-04T12:57:06.000Z</time>
</trkpt>
<trkpt lat="42.639914" lon="-2.368353">
<ele>1563</ele>
<time>2013-05-04T12:57:07.000Z</time>
</trkpt>
<trkpt lat="42.639961" lon="-2.368257">
<ele>1563</ele>
<time>2013-05-04T12:57:08.000Z</time>
</trkpt>
<trkpt lat="42.640015" lon="-2.368167">
<ele>1563</ele>
<time>2013-05-04T12:57:09.000Z</time>
</trkpt>
<trkpt lat="42.640088" lon="-2.368098">
<ele>1563</ele>
<time>2013-05-04T12:57:10.000Z</time>
</trkpt>
<trkpt lat="42.640156" lon="-2.36804">
<ele>1563</ele>
<time>2013-05-04T12:57:11.000Z</time>
</trkpt>
<trkpt lat="42.640223" lon="-2.367986">
<ele>1563</ele>
<time>2013-05-04T12:57:12.000Z</time>
</trkpt>
<trkpt lat="42.640291" lon="-2.36793">
<ele>1562</ele>
<time>2013-05-04T12:57:13.000Z</time>
</trkpt>
<trkpt lat="42.640368" lon="-2.367869">
<ele>1562</ele>
<time>2013-05-04T12:57:14.000Z</time>
</trkpt>
<trkpt lat="42.64046" lon="-2.367837">
<ele>1563</ele>
<time>2013-05-04T12:57:15.000Z</time>
</trkpt>
<trkpt lat="42.64055" lon="-2.367811">
<ele>1563</ele>
<time>2013-05-04T12:57:16.000Z</time>
</trkpt>
<trkpt lat="42.640629" lon="-2.36778">
<ele>1559</ele>
<time>2013-05-04T12:57:17.000Z</time>
</trkpt>
<trkpt lat="42.640688" lon="-2.367717">
<ele>1558</ele>
<time>2013-05-04T12:57:18.000Z</time>
</trkpt>
<trkpt lat="42.640735" lon="-2.36766">
<ele>1557</ele>
<time>2013-05-04T12:57:19.000Z</time>
</trkpt>
<trkpt lat="42.640787" lon="-2.367607">
<ele>1555</ele>
<time>2013-05-04T12:57:20.000Z</time>
</trkpt>
<trkpt lat="42.640844" lon="-2.367556">
<ele>1553</ele>
<time>2013-05-04T12:57:21.000Z</time>
</trkpt>
<trkpt lat="42.640911" lon="-2.367495">
<ele>1551</ele>
<time>2013-05-04T12:57:22.000Z</time>
</trkpt>
<trkpt lat="42.640953" lon="-2.367402">
<ele>1551</ele>
<time>2013-05-04T12:57:23.000Z</time>
</trkpt>
<trkpt lat="42.640969" lon="-2.367307">
<ele>1550</ele>
<time>2013-05-04T12:57:24.000Z</time>
</trkpt>
<trkpt lat="42.640979" lon="-2.367224">
<ele>1551</ele>
<time>2013-05-04T12:57:25.000Z</time>
</trkpt>
<trkpt lat="42.640986" lon="-2.367151">
<ele>1552</ele>
<time>2013-05-04T12:57:26.000Z</time>
</trkpt>
<trkpt lat="42.640995" lon="-2.367072">
<ele>1553</ele>
<time>2013-05-04T12:57:27.000Z</time>
</trkpt>
<trkpt lat="42.641001" lon="-2.366984">
<ele>1553</ele>
<time>2013-05-04T12:57:28.000Z</time>
</trkpt>
<trkpt lat="42.641001" lon="-2.366874">
<ele>1552</ele>
<time>2013-05-04T12:57:29.000Z</time>
</trkpt>
<trkpt lat="42.640995" lon="-2.366757">
<ele>1551</ele>
<time>2013-05-04T12:57:30.000Z</time>
</trkpt>
<trkpt lat="42.640984" lon="-2.366651">
<ele>1550</ele>
<time>2013-05-04T12:57:31.000Z</time>
</trkpt>
<trkpt lat="42.640973" lon="-2.366555">
<ele>1550</ele>
<time>2013-05-04T12:57:32.000Z</time>
</trkpt>
<trkpt lat="42.640967" lon="-2.366458">
<ele>1549</ele>
<time>2013-05-04T12:57:33.000Z</time>
</trkpt>
<trkpt lat="42.640963" lon="-2.366355">
<ele>1547</ele>
<time>2013-05-04T12:57:34.000Z</time>
</trkpt>
<trkpt lat="42.640957" lon="-2.366234">
<ele>1546</ele>
<time>2013-05-04T12:57:35.000Z</time>
</trkpt>
<trkpt lat="42.640947" lon="-2.366112">
<ele>1544</ele>
<time>2013-05-04T12:57:36.000Z</time>
</trkpt>
<trkpt lat="42.640919" lon="-2.366008">
<ele>1544</ele>
<time>2013-05-04T12:57:37.000Z</time>
</trkpt>
<trkpt lat="42.640897" lon="-2.365933">
<ele>1543</ele>
<time>2013-05-04T12:57:38.000Z</time>
</trkpt>
<trkpt lat="42.640875" lon="-2.365868">
<ele>1542</ele>
<time>2013-05-04T12:57:39.000Z</time>
</trkpt>
<trkpt lat="42.640851" lon="-2.365799">
<ele>1541</ele>
<time>2013-05-04T12:57:40.000Z</time>
</trkpt>
<trkpt lat="42.640801" lon="-2.365722">
<ele>1539</ele>
<time>2013-05-04T12:57:41.000Z</time>
</trkpt>
<trkpt lat="42.640734" lon="-2.365635">
<ele>1538</ele>
<time>2013-05-04T12:57:42.000Z</time>
</trkpt>
<trkpt lat="42.640659" lon="-2.365551">
<ele>1537</ele>
<time>2013-05-04T12:57:43.000Z</time>
</trkpt>
<trkpt lat="42.640585" lon="-2.365472">
<ele>1537</ele>
<time>2013-05-04T12:57:44.000Z</time>
</trkpt>
<trkpt lat="42.640525" lon="-2.365401">
<ele>1537</ele>
<time>2013-05-04T12:57:45.000Z</time>
</trkpt>
<trkpt lat="42.640488" lon="-2.365326">
<ele>1537</ele>
<time>2013-05-04T12:57:46.000Z</time>
</trkpt>
<trkpt lat="42.640458" lon="-2.365258">
<ele>1536</ele>
<time>2013-05-04T12:57:47.000Z</time>
</trkpt>
<trkpt lat="42.640422" lon="-2.365188">
<ele>1535</ele>
<time>2013-05-04T12:57:48.000Z</time>
</trkpt>
<trkpt lat="42.640373" lon="-2.36511">
<ele>1534</ele>
<time>2013-05-04T12:57:49.000Z</time>
</trkpt>
<trkpt lat="42.640312" lon="-2.365023">
<ele>1532</ele>
<time>2013-05-04T12:57:50.000Z</time>
</trkpt>
<trkpt lat="42.640255" lon="-2.364944">
<ele>1530</ele>
<time>2013-05-04T12:57:51.000Z</time>
</trkpt>
<trkpt lat="42.640206" lon="-2.364874">
<ele>1530</ele>
<time>2013-05-04T12:57:52.000Z</time>
</trkpt>
<trkpt lat="42.640169" lon="-2.364809">
<ele>1530</ele>
<time>2013-05-04T12:57:53.000Z</time>
</trkpt>
<trkpt lat="42.640134" lon="-2.364741">
<ele>1529</ele>
<time>2013-05-04T12:57:54.000Z</time>
</trkpt>
<trkpt lat="42.640095" lon="-2.364665">
<ele>1527</ele>
<time>2013-05-04T12:57:55.000Z</time>
</trkpt>
<trkpt lat="42.64005" lon="-2.364583">
<ele>1525</ele>
<time>2013-05-04T12:57:56.000Z</time>
</trkpt>
<trkpt lat="42.639997" lon="-2.3645">
<ele>1523</ele>
<time>2013-05-04T12:57:57.000Z</time>
</trkpt>
<trkpt lat="42.639943" lon="-2.364425">
<ele>1522</ele>
<time>2013-05-04T12:57:58.000Z</time>
</trkpt>
<trkpt lat="42.639888" lon="-2.364361">
<ele>1521</ele>
<time>2013-05-04T12:57:59.000Z</time>
</trkpt>
<trkpt lat="42.639834" lon="-2.364301">
<ele>1519</ele>
<time>2013-05-04T12:58:00.000Z</time>
</trkpt>
<trkpt lat="42.639782" lon="-2.364243">
<ele>1518</ele>
<time>2013-05-04T12:58:01.000Z</time>
</trkpt>
<trkpt lat="42.639732" lon="-2.364186">
<ele>1517</ele>
<time>2013-05-04T12:58:02.000Z</time>
</trkpt>
<trkpt lat="42.639687" lon="-2.364129">
<ele>1516</ele>
<time>2013-05-04T12:58:03.000Z</time>
</trkpt>
<trkpt lat="42.639646" lon="-2.364076">
<ele>1515</ele>
<time>2013-05-04T12:58:04.000Z</time>
</trkpt>
<trkpt lat="42.639599" lon="-2.364026">
<ele>1514</ele>
<time>2013-05-04T12:58:05.000Z</time>
</trkpt>
<trkpt lat="42.639549" lon="-2.363977">
<ele>1513</ele>
<time>2013-05-04T12:58:06.000Z</time>
</trkpt>
<trkpt lat="42.639497" lon="-2.363919">
<ele>1511</ele>
<time>2013-05-04T12:58:07.000Z</time>
</trkpt>
<trkpt lat="42.639446" lon="-2.363852">
<ele>1510</ele>
<time>2013-05-04T12:58:08.000Z</time>
</trkpt>
<trkpt lat="42.639397" lon="-2.363781">
<ele>1509</ele>
<time>2013-05-04T12:58:09.000Z</time>
</trkpt>
<trkpt lat="42.639349" lon="-2.363713">
<ele>1508</ele>
<time>2013-05-04T12:58:10.000Z</time>
</trkpt>
<trkpt lat="42.639297" lon="-2.363652">
<ele>1507</ele>
<time>2013-05-04T12:58:11.000Z</time>
</trkpt>
<trkpt lat="42.639241" lon="-2.363595">
<ele>1506</ele>
<time>2013-05-04T12:58:12.000Z</time>
</trkpt>
<trkpt lat="42.639188" lon="-2.36354">
<ele>1506</ele>
<time>2013-05-04T12:58:13.000Z</time>
</trkpt>
<trkpt lat="42.639148" lon="-2.363473">
<ele>1505</ele>
<time>2013-05-04T12:58:14.000Z</time>
</trkpt>
<trkpt lat="42.639113" lon="-2.363403">
<ele>1503</ele>
<time>2013-05-04T12:58:15.000Z</time>
</trkpt>
<trkpt lat="42.639076" lon="-2.36333">
<ele>1500</ele>
<time>2013-05-04T12:58:16.000Z</time>
</trkpt>
<trkpt lat="42.63903" lon="-2.363245">
<ele>1497</ele>
<time>2013-05-04T12:58:17.000Z</time>
</trkpt>
<trkpt lat="42.638977" lon="-2.363152">
<ele>1495</ele>
<time>2013-05-04T12:58:18.000Z</time>
</trkpt>
<trkpt lat="42.638928" lon="-2.363057">
<ele>1494</ele>
<time>2013-05-04T12:58:19.000Z</time>
</trkpt>
<trkpt lat="42.638891" lon="-2.362969">
<ele>1494</ele>
<time>2013-05-04T12:58:20.000Z</time>
</trkpt>
<trkpt lat="42.638861" lon="-2.362886">
<ele>1494</ele>
<time>2013-05-04T12:58:21.000Z</time>
</trkpt>
<trkpt lat="42.638839" lon="-2.36281">
<ele>1493</ele>
<time>2013-05-04T12:58:22.000Z</time>
</trkpt>
<trkpt lat="42.63882" lon="-2.362727">
<ele>1492</ele>
<time>2013-05-04T12:58:23.000Z</time>
</trkpt>
<trkpt lat="42.638813" lon="-2.362629">
<ele>1488</ele>
<time>2013-05-04T12:58:24.000Z</time>
</trkpt>
<trkpt lat="42.638804" lon="-2.362512">
<ele>1485</ele>
<time>2013-05-04T12:58:25.000Z</time>
</trkpt>
<trkpt lat="42.638792" lon="-2.362378">
<ele>1482</ele>
<time>2013-05-04T12:58:26.000Z</time>
</trkpt>
<trkpt lat="42.638784" lon="-2.362255">
<ele>1481</ele>
<time>2013-05-04T12:58:27.000Z</time>
</trkpt>
<trkpt lat="42.63878" lon="-2.362142">
<ele>1480</ele>
<time>2013-05-04T12:58:28.000Z</time>
</trkpt>
<trkpt lat="42.638779" lon="-2.362048">
<ele>1480</ele>
<time>2013-05-04T12:58:29.000Z</time>
</trkpt>
<trkpt lat="42.638776" lon="-2.361941">
<ele>1478</ele>
<time>2013-05-04T12:58:30.000Z</time>
</trkpt>
<trkpt lat="42.638779" lon="-2.361831">
<ele>1474</ele>
<time>2013-05-04T12:58:31.000Z</time>
</trkpt>
<trkpt lat="42.638784" lon="-2.361697">
<ele>1471</ele>
<time>2013-05-04T12:58:32.000Z</time>
</trkpt>
<trkpt lat="42.638797" lon="-2.361574">
<ele>1469</ele>
<time>2013-05-04T12:58:33.000Z</time>
</trkpt>
<trkpt lat="42.638815" lon="-2.361474">
<ele>1469</ele>
<time>2013-05-04T12:58:34.000Z</time>
</trkpt>
<trkpt lat="42.638836" lon="-2.361386">
<ele>1468</ele>
<time>2013-05-04T12:58:35.000Z</time>
</trkpt>
<trkpt lat="42.63886" lon="-2.361295">
<ele>1467</ele>
<time>2013-05-04T12:58:36.000Z</time>
</trkpt>
<trkpt lat="42.638884" lon="-2.361189">
<ele>1464</ele>
<time>2013-05-04T12:58:37.000Z</time>
</trkpt>
<trkpt lat="42.638904" lon="-2.361071">
<ele>1461</ele>
<time>2013-05-04T12:58:38.000Z</time>
</trkpt>
<trkpt lat="42.638923" lon="-2.36095">
<ele>1459</ele>
<time>2013-05-04T12:58:39.000Z</time>
</trkpt>
<trkpt lat="42.638939" lon="-2.360827">
<ele>1457</ele>
<time>2013-05-04T12:58:40.000Z</time>
</trkpt>
<trkpt lat="42.638949" lon="-2.360712">
<ele>1456</ele>
<time>2013-05-04T12:58:41.000Z</time>
</trkpt>
<trkpt lat="42.638952" lon="-2.360602">
<ele>1455</ele>
<time>2013-05-04T12:58:42.000Z</time>
</trkpt>
<trkpt lat="42.638952" lon="-2.360493">
<ele>1455</ele>
<time>2013-05-04T12:58:43.000Z</time>
</trkpt>
<trkpt lat="42.638951" lon="-2.360381">
<ele>1453</ele>
<time>2013-05-04T12:58:44.000Z</time>
</trkpt>
<trkpt lat="42.638948" lon="-2.360265">
<ele>1452</ele>
<time>2013-05-04T12:58:45.000Z</time>
</trkpt>
<trkpt lat="42.638941" lon="-2.360149">
<ele>1450</ele>
<time>2013-05-04T12:58:46.000Z</time>
</trkpt>
<trkpt lat="42.638931" lon="-2.360036">
<ele>1449</ele>
<time>2013-05-04T12:58:47.000Z</time>
</trkpt>
<trkpt lat="42.63892" lon="-2.359918">
<ele>1449</ele>
<time>2013-05-04T12:58:48.000Z</time>
</trkpt>
<trkpt lat="42.63891" lon="-2.359797">
<ele>1448</ele>
<time>2013-05-04T12:58:49.000Z</time>
</trkpt>
<trkpt lat="42.638902" lon="-2.359677">
<ele>1447</ele>
<time>2013-05-04T12:58:50.000Z</time>
</trkpt>
<trkpt lat="42.63889" lon="-2.359571">
<ele>1447</ele>
<time>2013-05-04T12:58:51.000Z</time>
</trkpt>
<trkpt lat="42.638876" lon="-2.35947">
<ele>1446</ele>
<time>2013-05-04T12:58:52.000Z</time>
</trkpt>
<trkpt lat="42.638866" lon="-2.359359">
<ele>1445</ele>
<time>2013-05-04T12:58:53.000Z</time>
</trkpt>
<trkpt lat="42.638862" lon="-2.359232">
<ele>1444</ele>
<time>2013-05-04T12:58:54.000Z</time>
</trkpt>
<trkpt lat="42.63886" lon="-2.359102">
<ele>1445</ele>
<time>2013-05-04T12:58:55.000Z</time>
</trkpt>
<trkpt lat="42.638856" lon="-2.358984">
<ele>1446</ele>
<time>2013-05-04T12:58:56.000Z</time>
</trkpt>
<trkpt lat="42.638848" lon="-2.358876">
<ele>1447</ele>
<time>2013-05-04T12:58:57.000Z</time>
</trkpt>
<trkpt lat="42.638839" lon="-2.358788">
<ele>1448</ele>
<time>2013-05-04T12:58:58.000Z</time>
</trkpt>
<trkpt lat="42.638832" lon="-2.358707">
<ele>1448</ele>
<time>2013-05-04T12:58:59.000Z</time>
</trkpt>
<trkpt lat="42.638826" lon="-2.358635">
<ele>1448</ele>
<time>2013-05-04T12:59:00.000Z</time>
</trkpt>
<trkpt lat="42.638815" lon="-2.358556">
<ele>1447</ele>
<time>2013-05-04T12:59:01.000Z</time>
</trkpt>
<trkpt lat="42.638797" lon="-2.358472">
<ele>1446</ele>
<time>2013-05-04T12:59:02.000Z</time>
</trkpt>
<trkpt lat="42.638776" lon="-2.358382">
<ele>1445</ele>
<time>2013-05-04T12:59:03.000Z</time>
</trkpt>
<trkpt lat="42.638755" lon="-2.358285">
<ele>1445</ele>
<time>2013-05-04T12:59:04.000Z</time>
</trkpt>
<trkpt lat="42.638737" lon="-2.358178">
<ele>1445</ele>
<time>2013-05-04T12:59:05.000Z</time>
</trkpt>
<trkpt lat="42.638719" lon="-2.358072">
<ele>1445</ele>
<time>2013-05-04T12:59:06.000Z</time>
</trkpt>
<trkpt lat="42.6387" lon="-2.357963">
<ele>1445</ele>
<time>2013-05-04T12:59:07.000Z</time>
</trkpt>
<trkpt lat="42.638678" lon="-2.357851">
<ele>1445</ele>
<time>2013-05-04T12:59:08.000Z</time>
</trkpt>
<trkpt lat="42.638655" lon="-2.357739">
<ele>1445</ele>
<time>2013-05-04T12:59:09.000Z</time>
</trkpt>
<trkpt lat="42.638632" lon="-2.357624">
<ele>1445</ele>
<time>2013-05-04T12:59:10.000Z</time>
</trkpt>
<trkpt lat="42.638613" lon="-2.357508">
<ele>1445</ele>
<time>2013-05-04T12:59:11.000Z</time>
</trkpt>
<trkpt lat="42.638592" lon="-2.357385">
<ele>1444</ele>
<time>2013-05-04T12:59:12.000Z</time>
</trkpt>
<trkpt lat="42.63857" lon="-2.357267">
<ele>1445</ele>
<time>2013-05-04T12:59:13.000Z</time>
</trkpt>
<trkpt lat="42.638545" lon="-2.357156">
<ele>1445</ele>
<time>2013-05-04T12:59:14.000Z</time>
</trkpt>
<trkpt lat="42.638517" lon="-2.357052">
<ele>1446</ele>
<time>2013-05-04T12:59:15.000Z</time>
</trkpt>
<trkpt lat="42.638485" lon="-2.356945">
<ele>1446</ele>
<time>2013-05-04T12:59:16.000Z</time>
</trkpt>
<trkpt lat="42.638449" lon="-2.356838">
<ele>1446</ele>
<time>2013-05-04T12:59:17.000Z</time>
</trkpt>
<trkpt lat="42.63841" lon="-2.35674">
<ele>1447</ele>
<time>2013-05-04T12:59:18.000Z</time>
</trkpt>
<trkpt lat="42.638358" lon="-2.356663">
<ele>1448</ele>
<time>2013-05-04T12:59:19.000Z</time>
</trkpt>
<trkpt lat="42.63831" lon="-2.356595">
<ele>1447</ele>
<time>2013-05-04T12:59:20.000Z</time>
</trkpt>
<trkpt lat="42.638259" lon="-2.356526">
<ele>1447</ele>
<time>2013-05-04T12:59:21.000Z</time>
</trkpt>
<trkpt lat="42.638202" lon="-2.356445">
<ele>1446</ele>
<time>2013-05-04T12:59:22.000Z</time>
</trkpt>
<trkpt lat="42.638139" lon="-2.356344">
<ele>1445</ele>
<time>2013-05-04T12:59:23.000Z</time>
</trkpt>
<trkpt lat="42.638072" lon="-2.356227">
<ele>1444</ele>
<time>2013-05-04T12:59:24.000Z</time>
</trkpt>
<trkpt lat="42.638007" lon="-2.356102">
<ele>1444</ele>
<time>2013-05-04T12:59:25.000Z</time>
</trkpt>
<trkpt lat="42.63795" lon="-2.355975">
<ele>1443</ele>
<time>2013-05-04T12:59:26.000Z</time>
</trkpt>
<trkpt lat="42.637907" lon="-2.355864">
<ele>1444</ele>
<time>2013-05-04T12:59:27.000Z</time>
</trkpt>
<trkpt lat="42.637884" lon="-2.355743">
<ele>1445</ele>
<time>2013-05-04T12:59:28.000Z</time>
</trkpt>
<trkpt lat="42.637862" lon="-2.355625">
<ele>1448</ele>
<time>2013-05-04T12:59:29.000Z</time>
</trkpt>
<trkpt lat="42.637842" lon="-2.355515">
<ele>1451</ele>
<time>2013-05-04T12:59:30.000Z</time>
</trkpt>
<trkpt lat="42.637826" lon="-2.355417">
<ele>1454</ele>
<time>2013-05-04T12:59:31.000Z</time>
</trkpt>
<trkpt lat="42.637811" lon="-2.355316">
<ele>1455</ele>
<time>2013-05-04T12:59:32.000Z</time>
</trkpt>
<trkpt lat="42.637795" lon="-2.355212">
<ele>1457</ele>
<time>2013-05-04T12:59:33.000Z</time>
</trkpt>
<trkpt lat="42.637776" lon="-2.355102">
<ele>1457</ele>
<time>2013-05-04T12:59:34.000Z</time>
</trkpt>
<trkpt lat="42.63776" lon="-2.354991">
<ele>1457</ele>
<time>2013-05-04T12:59:35.000Z</time>
</trkpt>
<trkpt lat="42.637767" lon="-2.354896">
<ele>1458</ele>
<time>2013-05-04T12:59:36.000Z</time>
</trkpt>
<trkpt lat="42.637797" lon="-2.354826">
<ele>1458</ele>
<time>2013-05-04T12:59:37.000Z</time>
</trkpt>
<trkpt lat="42.637844" lon="-2.354757">
<ele>1457</ele>
<time>2013-05-04T12:59:38.000Z</time>
</trkpt>
<trkpt lat="42.637888" lon="-2.354686">
<ele>1456</ele>
<time>2013-05-04T12:59:39.000Z</time>
</trkpt>
<trkpt lat="42.637909" lon="-2.354592">
<ele>1457</ele>
<time>2013-05-04T12:59:40.000Z</time>
</trkpt>
<trkpt lat="42.637907" lon="-2.354481">
<ele>1457</ele>
<time>2013-05-04T12:59:41.000Z</time>
</trkpt>
<trkpt lat="42.637888" lon="-2.354368">
<ele>1458</ele>
<time>2013-05-04T12:59:42.000Z</time>
</trkpt>
<trkpt lat="42.637864" lon="-2.354265">
<ele>1458</ele>
<time>2013-05-04T12:59:43.000Z</time>
</trkpt>
<trkpt lat="42.637836" lon="-2.354171">
<ele>1459</ele>
<time>2013-05-04T12:59:44.000Z</time>
</trkpt>
<trkpt lat="42.637804" lon="-2.354079">
<ele>1460</ele>
<time>2013-05-04T12:59:45.000Z</time>
</trkpt>
<trkpt lat="42.637766" lon="-2.35399">
<ele>1461</ele>
<time>2013-05-04T12:59:46.000Z</time>
</trkpt>
<trkpt lat="42.637704" lon="-2.35391">
<ele>1461</ele>
<time>2013-05-04T12:59:47.000Z</time>
</trkpt>
<trkpt lat="42.637639" lon="-2.35383">
<ele>1460</ele>
<time>2013-05-04T12:59:48.000Z</time>
</trkpt>
<trkpt lat="42.637572" lon="-2.353743">
<ele>1460</ele>
<time>2013-05-04T12:59:49.000Z</time>
</trkpt>
<trkpt lat="42.637514" lon="-2.353652">
<ele>1461</ele>
<time>2013-05-04T12:59:50.000Z</time>
</trkpt>
<trkpt lat="42.637469" lon="-2.353563">
<ele>1461</ele>
<time>2013-05-04T12:59:51.000Z</time>
</trkpt>
<trkpt lat="42.63743" lon="-2.353476">
<ele>1463</ele>
<time>2013-05-04T12:59:52.000Z</time>
</trkpt>
<trkpt lat="42.637398" lon="-2.35339">
<ele>1464</ele>
<time>2013-05-04T12:59:53.000Z</time>
</trkpt>
<trkpt lat="42.63738" lon="-2.353295">
<ele>1464</ele>
<time>2013-05-04T12:59:54.000Z</time>
</trkpt>
<trkpt lat="42.637362" lon="-2.353203">
<ele>1464</ele>
<time>2013-05-04T12:59:55.000Z</time>
</trkpt>
<trkpt lat="42.637338" lon="-2.353109">
<ele>1464</ele>
<time>2013-05-04T12:59:56.000Z</time>
</trkpt>
<trkpt lat="42.637305" lon="-2.35301">
<ele>1463</ele>
<time>2013-05-04T12:59:57.000Z</time>
</trkpt>
<trkpt lat="42.637265" lon="-2.352913">
<ele>1463</ele>
<time>2013-05-04T12:59:58.000Z</time>
</trkpt>
<trkpt lat="42.637219" lon="-2.352815">
<ele>1462</ele>
<time>2013-05-04T12:59:59.000Z</time>
</trkpt>
<trkpt lat="42.637173" lon="-2.352716">
<ele>1462</ele>
<time>2013-05-04T13:00:00.000Z</time>
</trkpt>
<trkpt lat="42.637133" lon="-2.352611">
<ele>1462</ele>
<time>2013-05-04T13:00:01.000Z</time>
</trkpt>
<trkpt lat="42.637105" lon="-2.35251">
<ele>1462</ele>
<time>2013-05-04T13:00:02.000Z</time>
</trkpt>
<trkpt lat="42.637087" lon="-2.352414">
<ele>1464</ele>
<time>2013-05-04T13:00:03.000Z</time>
</trkpt>
<trkpt lat="42.637076" lon="-2.352335">
<ele>1466</ele>
<time>2013-05-04T13:00:04.000Z</time>
</trkpt>
<trkpt lat="42.637068" lon="-2.352255">
<ele>1468</ele>
<time>2013-05-04T13:00:05.000Z</time>
</trkpt>
<trkpt lat="42.637073" lon="-2.352166">
<ele>1469</ele>
<time>2013-05-04T13:00:06.000Z</time>
</trkpt>
<trkpt lat="42.63708" lon="-2.352064">
<ele>1470</ele>
<time>2013-05-04T13:00:07.000Z</time>
</trkpt>
<trkpt lat="42.637082" lon="-2.351952">
<ele>1471</ele>
<time>2013-05-04T13:00:08.000Z</time>
</trkpt>
<trkpt lat="42.637077" lon="-2.351831">
<ele>1472</ele>
<time>2013-05-04T13:00:09.000Z</time>
</trkpt>
<trkpt lat="42.637041" lon="-2.351721">
<ele>1473</ele>
<time>2013-05-04T13:00:10.000Z</time>
</trkpt>
<trkpt lat="42.637008" lon="-2.351624">
<ele>1473</ele>
<time>2013-05-04T13:00:11.000Z</time>
</trkpt>
<trkpt lat="42.636977" lon="-2.351539">
<ele>1473</ele>
<time>2013-05-04T13:00:12.000Z</time>
</trkpt>
<trkpt lat="42.636941" lon="-2.351441">
<ele>1473</ele>
<time>2013-05-04T13:00:13.000Z</time>
</trkpt>
<trkpt lat="42.636902" lon="-2.35133">
<ele>1474</ele>
<time>2013-05-04T13:00:14.000Z</time>
</trkpt>
<trkpt lat="42.636861" lon="-2.351217">
<ele>1474</ele>
<time>2013-05-04T13:00:15.000Z</time>
</trkpt>
<trkpt lat="42.636828" lon="-2.351111">
<ele>1474</ele>
<time>2013-05-04T13:00:16.000Z</time>
</trkpt>
<trkpt lat="42.636802" lon="-2.351013">
<ele>1476</ele>
<time>2013-05-04T13:00:17.000Z</time>
</trkpt>
<trkpt lat="42.636787" lon="-2.350944">
<ele>1478</ele>
<time>2013-05-04T13:00:18.000Z</time>
</trkpt>
<trkpt lat="42.636785" lon="-2.350876">
<ele>1479</ele>
<time>2013-05-04T13:00:19.000Z</time>
</trkpt>
<trkpt lat="42.636785" lon="-2.350802">
<ele>1480</ele>
<time>2013-05-04T13:00:20.000Z</time>
</trkpt>
<trkpt lat="42.636805" lon="-2.350724">
<ele>1480</ele>
<time>2013-05-04T13:00:21.000Z</time>
</trkpt>
<trkpt lat="42.636838" lon="-2.350657">
<ele>1481</ele>
<time>2013-05-04T13:00:22.000Z</time>
</trkpt>
<trkpt lat="42.636881" lon="-2.35061">
<ele>1481</ele>
<time>2013-05-04T13:00:23.000Z</time>
</trkpt>
<trkpt lat="42.636924" lon="-2.350564">
<ele>1482</ele>
<time>2013-05-04T13:00:24.000Z</time>
</trkpt>
<trkpt lat="42.636952" lon="-2.350496">
<ele>1482</ele>
<time>2013-05-04T13:00:25.000Z</time>
</trkpt>
<trkpt lat="42.636958" lon="-2.3504">
<ele>1481</ele>
<time>2013-05-04T13:00:26.000Z</time>
</trkpt>
<trkpt lat="42.636957" lon="-2.350272">
<ele>1481</ele>
<time>2013-05-04T13:00:27.000Z</time>
</trkpt>
<trkpt lat="42.636932" lon="-2.350149">
<ele>1483</ele>
<time>2013-05-04T13:00:28.000Z</time>
</trkpt>
<trkpt lat="42.636903" lon="-2.350047">
<ele>1484</ele>
<time>2013-05-04T13:00:29.000Z</time>
</trkpt>
<trkpt lat="42.636843" lon="-2.349964">
<ele>1483</ele>
<time>2013-05-04T13:00:30.000Z</time>
</trkpt>
<trkpt lat="42.636767" lon="-2.349879">
<ele>1484</ele>
<time>2013-05-04T13:00:31.000Z</time>
</trkpt>
<trkpt lat="42.636691" lon="-2.349796">
<ele>1485</ele>
<time>2013-05-04T13:00:32.000Z</time>
</trkpt>
<trkpt lat="42.636637" lon="-2.349707">
<ele>1483</ele>
<time>2013-05-04T13:00:33.000Z</time>
</trkpt>
<trkpt lat="42.636613" lon="-2.349619">
<ele>1481</ele>
<time>2013-05-04T13:00:34.000Z</time>
</trkpt>
<trkpt lat="42.636605" lon="-2.34953">
<ele>1480</ele>
<time>2013-05-04T13:00:35.000Z</time>
</trkpt>
<trkpt lat="42.6366" lon="-2.349437">
<ele>1477</ele>
<time>2013-05-04T13:00:36.000Z</time>
</trkpt>
<trkpt lat="42.636601" lon="-2.349333">
<ele>1474</ele>
<time>2013-05-04T13:00:37.000Z</time>
</trkpt>
<trkpt lat="42.63661" lon="-2.349225">
<ele>1472</ele>
<time>2013-05-04T13:00:38.000Z</time>
</trkpt>
<trkpt lat="42.636625" lon="-2.34912">
<ele>1469</ele>
<time>2013-05-04T13:00:39.000Z</time>
</trkpt>
<trkpt lat="42.636642" lon="-2.34902">
<ele>1468</ele>
<time>2013-05-04T13:00:40.000Z</time>
</trkpt>
<trkpt lat="42.636657" lon="-2.348926">
<ele>1467</ele>
<time>2013-05-04T13:00:41.000Z</time>
</trkpt>
<trkpt lat="42.636675" lon="-2.348826">
<ele>1464</ele>
<time>2013-05-04T13:00:42.000Z</time>
</trkpt>
<trkpt lat="42.636698" lon="-2.348724">
<ele>1462</ele>
<time>2013-05-04T13:00:43.000Z</time>
</trkpt>
<trkpt lat="42.636738" lon="-2.34862">
<ele>1459</ele>
<time>2013-05-04T13:00:44.000Z</time>
</trkpt>
<trkpt lat="42.636777" lon="-2.348517">
<ele>1458</ele>
<time>2013-05-04T13:00:45.000Z</time>
</trkpt>
<trkpt lat="42.636814" lon="-2.348421">
<ele>1458</ele>
<time>2013-05-04T13:00:46.000Z</time>
</trkpt>
<trkpt lat="42.636843" lon="-2.348329">
<ele>1459</ele>
<time>2013-05-04T13:00:47.000Z</time>
</trkpt>
<trkpt lat="42.636868" lon="-2.348239">
<ele>1458</ele>
<time>2013-05-04T13:00:48.000Z</time>
</trkpt>
<trkpt lat="42.636894" lon="-2.348141">
<ele>1457</ele>
<time>2013-05-04T13:00:49.000Z</time>
</trkpt>
<trkpt lat="42.636921" lon="-2.348042">
<ele>1455</ele>
<time>2013-05-04T13:00:50.000Z</time>
</trkpt>
<trkpt lat="42.636958" lon="-2.347938">
<ele>1454</ele>
<time>2013-05-04T13:00:51.000Z</time>
</trkpt>
<trkpt lat="42.636996" lon="-2.347848">
<ele>1453</ele>
<time>2013-05-04T13:00:52.000Z</time>
</trkpt>
<trkpt lat="42.637034" lon="-2.347764">
<ele>1454</ele>
<time>2013-05-04T13:00:53.000Z</time>
</trkpt>
<trkpt lat="42.637076" lon="-2.347675">
<ele>1452</ele>
<time>2013-05-04T13:00:54.000Z</time>
</trkpt>
<trkpt lat="42.637121" lon="-2.347584">
<ele>1448</ele>
<time>2013-05-04T13:00:55.000Z</time>
</trkpt>
<trkpt lat="42.637169" lon="-2.347489">
<ele>1445</ele>
<time>2013-05-04T13:00:56.000Z</time>
</trkpt>
<trkpt lat="42.637219" lon="-2.347409">
<ele>1442</ele>
<time>2013-05-04T13:00:57.000Z</time>
</trkpt>
<trkpt lat="42.637268" lon="-2.347344">
<ele>1443</ele>
<time>2013-05-04T13:00:58.000Z</time>
</trkpt>
<trkpt lat="42.637313" lon="-2.347291">
<ele>1447</ele>
<time>2013-05-04T13:00:59.000Z</time>
</trkpt>
<trkpt lat="42.637356" lon="-2.347243">
<ele>1446</ele>
<time>2013-05-04T13:01:00.000Z</time>
</trkpt>
<trkpt lat="42.637404" lon="-2.347187">
<ele>1448</ele>
<time>2013-05-04T13:01:01.000Z</time>
</trkpt>
<trkpt lat="42.637455" lon="-2.347124">
<ele>1449</ele>
<time>2013-05-04T13:01:02.000Z</time>
</trkpt>
<trkpt lat="42.637511" lon="-2.347049">
<ele>1450</ele>
<time>2013-05-04T13:01:03.000Z</time>
</trkpt>
<trkpt lat="42.637559" lon="-2.346978">
<ele>1449</ele>
<time>2013-05-04T13:01:04.000Z</time>
</trkpt>
<trkpt lat="42.637594" lon="-2.346924">
<ele>1449</ele>
<time>2013-05-04T13:01:05.000Z</time>
</trkpt>
<trkpt lat="42.637628" lon="-2.346873">
<ele>1449</ele>
<time>2013-05-04T13:01:06.000Z</time>
</trkpt>
<trkpt lat="42.637669" lon="-2.34681">
<ele>1448</ele>
<time>2013-05-04T13:01:07.000Z</time>
</trkpt>
<trkpt lat="42.637719" lon="-2.346729">
<ele>1446</ele>
<time>2013-05-04T13:01:08.000Z</time>
</trkpt>
<trkpt lat="42.637773" lon="-2.346633">
<ele>1445</ele>
<time>2013-05-04T13:01:09.000Z</time>
</trkpt>
<trkpt lat="42.637828" lon="-2.346531">
<ele>1444</ele>
<time>2013-05-04T13:01:10.000Z</time>
</trkpt>
<trkpt lat="42.637884" lon="-2.34643">
<ele>1443</ele>
<time>2013-05-04T13:01:11.000Z</time>
</trkpt>
<trkpt lat="42.637939" lon="-2.346344">
<ele>1441</ele>
<time>2013-05-04T13:01:12.000Z</time>
</trkpt>
<trkpt lat="42.637986" lon="-2.346278">
<ele>1442</ele>
<time>2013-05-04T13:01:13.000Z</time>
</trkpt>
<trkpt lat="42.638027" lon="-2.346219">
<ele>1442</ele>
<time>2013-05-04T13:01:14.000Z</time>
</trkpt>
<trkpt lat="42.638072" lon="-2.346146">
<ele>1441</ele>
<time>2013-05-04T13:01:15.000Z</time>
</trkpt>
<trkpt lat="42.638116" lon="-2.346069">
<ele>1439</ele>
<time>2013-05-04T13:01:16.000Z</time>
</trkpt>
<trkpt lat="42.638159" lon="-2.34599">
<ele>1438</ele>
<time>2013-05-04T13:01:17.000Z</time>
</trkpt>
<trkpt lat="42.638203" lon="-2.345908">
<ele>1436</ele>
<time>2013-05-04T13:01:18.000Z</time>
</trkpt>
<trkpt lat="42.638248" lon="-2.345817">
<ele>1437</ele>
<time>2013-05-04T13:01:19.000Z</time>
</trkpt>
<trkpt lat="42.638295" lon="-2.345725">
<ele>1436</ele>
<time>2013-05-04T13:01:20.000Z</time>
</trkpt>
<trkpt lat="42.638343" lon="-2.345633">
<ele>1435</ele>
<time>2013-05-04T13:01:21.000Z</time>
</trkpt>
<trkpt lat="42.638392" lon="-2.345543">
<ele>1434</ele>
<time>2013-05-04T13:01:22.000Z</time>
</trkpt>
<trkpt lat="42.638442" lon="-2.345453">
<ele>1433</ele>
<time>2013-05-04T13:01:23.000Z</time>
</trkpt>
<trkpt lat="42.638494" lon="-2.345374">
<ele>1433</ele>
<time>2013-05-04T13:01:24.000Z</time>
</trkpt>
<trkpt lat="42.638554" lon="-2.345297">
<ele>1433</ele>
<time>2013-05-04T13:01:25.000Z</time>
</trkpt>
<trkpt lat="42.638617" lon="-2.345227">
<ele>1433</ele>
<time>2013-05-04T13:01:26.000Z</time>
</trkpt>
<trkpt lat="42.638678" lon="-2.345158">
<ele>1433</ele>
<time>2013-05-04T13:01:27.000Z</time>
</trkpt>
<trkpt lat="42.638734" lon="-2.34508">
<ele>1431</ele>
<time>2013-05-04T13:01:28.000Z</time>
</trkpt>
<trkpt lat="42.638788" lon="-2.344999">
<ele>1430</ele>
<time>2013-05-04T13:01:29.000Z</time>
</trkpt>
<trkpt lat="42.638838" lon="-2.344923">
<ele>1429</ele>
<time>2013-05-04T13:01:30.000Z</time>
</trkpt>
<trkpt lat="42.638897" lon="-2.344844">
<ele>1428</ele>
<time>2013-05-04T13:01:31.000Z</time>
</trkpt>
<trkpt lat="42.638963" lon="-2.344765">
<ele>1427</ele>
<time>2013-05-04T13:01:32.000Z</time>
</trkpt>
<trkpt lat="42.639034" lon="-2.344678">
<ele>1425</ele>
<time>2013-05-04T13:01:33.000Z</time>
</trkpt>
<trkpt lat="42.639102" lon="-2.344595">
<ele>1423</ele>
<time>2013-05-04T13:01:34.000Z</time>
</trkpt>
<trkpt lat="42.639169" lon="-2.344515">
<ele>1422</ele>
<time>2013-05-04T13:01:35.000Z</time>
</trkpt>
<trkpt lat="42.639229" lon="-2.344446">
<ele>1422</ele>
<time>2013-05-04T13:01:36.000Z</time>
</trkpt>
<trkpt lat="42.639294" lon="-2.344369">
<ele>1421</ele>
<time>2013-05-04T13:01:37.000Z</time>
</trkpt>
<trkpt lat="42.63937" lon="-2.344273">
<ele>1419</ele>
<time>2013-05-04T13:01:38.000Z</time>
</trkpt>
<trkpt lat="42.639439" lon="-2.344167">
<ele>1417</ele>
<time>2013-05-04T13:01:39.000Z</time>
</trkpt>
<trkpt lat="42.639496" lon="-2.344061">
<ele>1416</ele>
<time>2013-05-04T13:01:40.000Z</time>
</trkpt>
<trkpt lat="42.639545" lon="-2.343965">
<ele>1416</ele>
<time>2013-05-04T13:01:41.000Z</time>
</trkpt>
<trkpt lat="42.639587" lon="-2.343878">
<ele>1416</ele>
<time>2013-05-04T13:01:42.000Z</time>
</trkpt>
<trkpt lat="42.639626" lon="-2.343789">
<ele>1415</ele>
<time>2013-05-04T13:01:43.000Z</time>
</trkpt>
<trkpt lat="42.639666" lon="-2.343692">
<ele>1414</ele>
<time>2013-05-04T13:01:44.000Z</time>
</trkpt>
<trkpt lat="42.639709" lon="-2.343588">
<ele>1413</ele>
<time>2013-05-04T13:01:45.000Z</time>
</trkpt>
<trkpt lat="42.639753" lon="-2.343486">
<ele>1413</ele>
<time>2013-05-04T13:01:46.000Z</time>
</trkpt>
<trkpt lat="42.639797" lon="-2.343388">
<ele>1412</ele>
<time>2013-05-04T13:01:47.000Z</time>
</trkpt>
<trkpt lat="42.639839" lon="-2.343294">
<ele>1412</ele>
<time>2013-05-04T13:01:48.000Z</time>
</trkpt>
<trkpt lat="42.639878" lon="-2.343197">
<ele>1412</ele>
<time>2013-05-04T13:01:49.000Z</time>
</trkpt>
<trkpt lat="42.639916" lon="-2.343096">
<ele>1413</ele>
<time>2013-05-04T13:01:50.000Z</time>
</trkpt>
<trkpt lat="42.639954" lon="-2.342993">
<ele>1412</ele>
<time>2013-05-04T13:01:51.000Z</time>
</trkpt>
<trkpt lat="42.639993" lon="-2.342891">
<ele>1411</ele>
<time>2013-05-04T13:01:52.000Z</time>
</trkpt>
<trkpt lat="42.640034" lon="-2.342788">
<ele>1411</ele>
<time>2013-05-04T13:01:53.000Z</time>
</trkpt>
<trkpt lat="42.640078" lon="-2.34269">
<ele>1411</ele>
<time>2013-05-04T13:01:54.000Z</time>
</trkpt>
<trkpt lat="42.640125" lon="-2.342594">
<ele>1413</ele>
<time>2013-05-04T13:01:55.000Z</time>
</trkpt>
<trkpt lat="42.640174" lon="-2.342496">
<ele>1413</ele>
<time>2013-05-04T13:01:56.000Z</time>
</trkpt>
<trkpt lat="42.64022" lon="-2.342393">
<ele>1414</ele>
<time>2013-05-04T13:01:57.000Z</time>
</trkpt>
<trkpt lat="42.640263" lon="-2.342295">
<ele>1415</ele>
<time>2013-05-04T13:01:58.000Z</time>
</trkpt>
<trkpt lat="42.640305" lon="-2.342202">
<ele>1414</ele>
<time>2013-05-04T13:01:59.000Z</time>
</trkpt>
<trkpt lat="42.640344" lon="-2.342118">
<ele>1414</ele>
<time>2013-05-04T13:02:00.000Z</time>
</trkpt>
<trkpt lat="42.640378" lon="-2.342045">
<ele>1412</ele>
<time>2013-05-04T13:02:01.000Z</time>
</trkpt>
<trkpt lat="42.640412" lon="-2.341978">
<ele>1410</ele>
<time>2013-05-04T13:02:02.000Z</time>
</trkpt>
<trkpt lat="42.640451" lon="-2.341903">
<ele>1408</ele>
<time>2013-05-04T13:02:03.000Z</time>
</trkpt>
<trkpt lat="42.640496" lon="-2.341811">
<ele>1405</ele>
<time>2013-05-04T13:02:04.000Z</time>
</trkpt>
<trkpt lat="42.640546" lon="-2.341696">
<ele>1400</ele>
<time>2013-05-04T13:02:05.000Z</time>
</trkpt>
<trkpt lat="42.640591" lon="-2.341582">
<ele>1398</ele>
<time>2013-05-04T13:02:06.000Z</time>
</trkpt>
<trkpt lat="42.640632" lon="-2.341474">
<ele>1396</ele>
<time>2013-05-04T13:02:07.000Z</time>
</trkpt>
<trkpt lat="42.640671" lon="-2.341365">
<ele>1395</ele>
<time>2013-05-04T13:02:08.000Z</time>
</trkpt>
<trkpt lat="42.640706" lon="-2.341261">
<ele>1394</ele>
<time>2013-05-04T13:02:09.000Z</time>
</trkpt>
<trkpt lat="42.640744" lon="-2.341149">
<ele>1393</ele>
<time>2013-05-04T13:02:10.000Z</time>
</trkpt>
<trkpt lat="42.640781" lon="-2.341036">
<ele>1392</ele>
<time>2013-05-04T13:02:11.000Z</time>
</trkpt>
<trkpt lat="42.640821" lon="-2.340921">
<ele>1391</ele>
<time>2013-05-04T13:02:12.000Z</time>
</trkpt>
<trkpt lat="42.640858" lon="-2.340824">
<ele>1391</ele>
<time>2013-05-04T13:02:13.000Z</time>
</trkpt>
<trkpt lat="42.640896" lon="-2.340723">
<ele>1390</ele>
<time>2013-05-04T13:02:14.000Z</time>
</trkpt>
<trkpt lat="42.640934" lon="-2.340611">
<ele>1388</ele>
<time>2013-05-04T13:02:15.000Z</time>
</trkpt>
<trkpt lat="42.640975" lon="-2.340495">
<ele>1387</ele>
<time>2013-05-04T13:02:16.000Z</time>
</trkpt>
<trkpt lat="42.641018" lon="-2.340371">
<ele>1384</ele>
<time>2013-05-04T13:02:17.000Z</time>
</trkpt>
<trkpt lat="42.641064" lon="-2.340243">
<ele>1384</ele>
<time>2013-05-04T13:02:18.000Z</time>
</trkpt>
<trkpt lat="42.641108" lon="-2.340119">
<ele>1384</ele>
<time>2013-05-04T13:02:19.000Z</time>
</trkpt>
<trkpt lat="42.641145" lon="-2.34001">
<ele>1384</ele>
<time>2013-05-04T13:02:20.000Z</time>
</trkpt>
<trkpt lat="42.641181" lon="-2.339913">
<ele>1385</ele>
<time>2013-05-04T13:02:21.000Z</time>
</trkpt>
<trkpt lat="42.641222" lon="-2.339825">
<ele>1386</ele>
<time>2013-05-04T13:02:22.000Z</time>
</trkpt>
<trkpt lat="42.641267" lon="-2.33974">
<ele>1385</ele>
<time>2013-05-04T13:02:23.000Z</time>
</trkpt>
<trkpt lat="42.641317" lon="-2.339655">
<ele>1384</ele>
<time>2013-05-04T13:02:24.000Z</time>
</trkpt>
<trkpt lat="42.641369" lon="-2.339562">
<ele>1382</ele>
<time>2013-05-04T13:02:25.000Z</time>
</trkpt>
<trkpt lat="42.641428" lon="-2.339459">
<ele>1380</ele>
<time>2013-05-04T13:02:26.000Z</time>
</trkpt>
<trkpt lat="42.641482" lon="-2.339364">
<ele>1380</ele>
<time>2013-05-04T13:02:27.000Z</time>
</trkpt>
<trkpt lat="42.641534" lon="-2.33928">
<ele>1376</ele>
<time>2013-05-04T13:02:28.000Z</time>
</trkpt>
<trkpt lat="42.64159" lon="-2.339187">
<ele>1374</ele>
<time>2013-05-04T13:02:29.000Z</time>
</trkpt>
<trkpt lat="42.641649" lon="-2.339089">
<ele>1370</ele>
<time>2013-05-04T13:02:30.000Z</time>
</trkpt>
<trkpt lat="42.641705" lon="-2.338985">
<ele>1370</ele>
<time>2013-05-04T13:02:31.000Z</time>
</trkpt>
<trkpt lat="42.641765" lon="-2.338874">
<ele>1368</ele>
<time>2013-05-04T13:02:32.000Z</time>
</trkpt>
<trkpt lat="42.641823" lon="-2.338759">
<ele>1365</ele>
<time>2013-05-04T13:02:33.000Z</time>
</trkpt>
<trkpt lat="42.641879" lon="-2.338641">
<ele>1364</ele>
<time>2013-05-04T13:02:34.000Z</time>
</trkpt>
<trkpt lat="42.641928" lon="-2.338529">
<ele>1365</ele>
<time>2013-05-04T13:02:35.000Z</time>
</trkpt>
<trkpt lat="42.641975" lon="-2.33842">
<ele>1366</ele>
<time>2013-05-04T13:02:36.000Z</time>
</trkpt>
<trkpt lat="42.642015" lon="-2.33833">
<ele>1366</ele>
<time>2013-05-04T13:02:37.000Z</time>
</trkpt>
<trkpt lat="42.64205" lon="-2.338248">
<ele>1366</ele>
<time>2013-05-04T13:02:38.000Z</time>
</trkpt>
<trkpt lat="42.642082" lon="-2.338179">
<ele>1367</ele>
<time>2013-05-04T13:02:39.000Z</time>
</trkpt>
<trkpt lat="42.642117" lon="-2.338112">
<ele>1367</ele>
<time>2013-05-04T13:02:40.000Z</time>
</trkpt>
<trkpt lat="42.642152" lon="-2.338042">
<ele>1368</ele>
<time>2013-05-04T13:02:41.000Z</time>
</trkpt>
<trkpt lat="42.642189" lon="-2.337968">
<ele>1368</ele>
<time>2013-05-04T13:02:42.000Z</time>
</trkpt>
<trkpt lat="42.642225" lon="-2.337895">
<ele>1369</ele>
<time>2013-05-04T13:02:43.000Z</time>
</trkpt>
<trkpt lat="42.642252" lon="-2.337831">
<ele>1369</ele>
<time>2013-05-04T13:02:44.000Z</time>
</trkpt>
<trkpt lat="42.642273" lon="-2.337772">
<ele>1368</ele>
<time>2013-05-04T13:02:45.000Z</time>
</trkpt>
<trkpt lat="42.6423" lon="-2.337707">
<ele>1368</ele>
<time>2013-05-04T13:02:46.000Z</time>
</trkpt>
<trkpt lat="42.642342" lon="-2.337645">
<ele>1368</ele>
<time>2013-05-04T13:02:47.000Z</time>
</trkpt>
<trkpt lat="42.642388" lon="-2.337581">
<ele>1369</ele>
<time>2013-05-04T13:02:48.000Z</time>
</trkpt>
<trkpt lat="42.64244" lon="-2.337509">
<ele>1369</ele>
<time>2013-05-04T13:02:49.000Z</time>
</trkpt>
<trkpt lat="42.642484" lon="-2.33744">
<ele>1370</ele>
<time>2013-05-04T13:02:50.000Z</time>
</trkpt>
<trkpt lat="42.642517" lon="-2.33738">
<ele>1372</ele>
<time>2013-05-04T13:02:51.000Z</time>
</trkpt>
<trkpt lat="42.642543" lon="-2.337343">
<ele>1373</ele>
<time>2013-05-04T13:02:52.000Z</time>
</trkpt>
<trkpt lat="42.642578" lon="-2.337316">
<ele>1374</ele>
<time>2013-05-04T13:02:53.000Z</time>
</trkpt>
<trkpt lat="42.642628" lon="-2.337283">
<ele>1374</ele>
<time>2013-05-04T13:02:54.000Z</time>
</trkpt>
<trkpt lat="42.642689" lon="-2.337246">
<ele>1373</ele>
<time>2013-05-04T13:02:55.000Z</time>
</trkpt>
<trkpt lat="42.642753" lon="-2.33721">
<ele>1374</ele>
<time>2013-05-04T13:02:56.000Z</time>
</trkpt>
<trkpt lat="42.642814" lon="-2.337179">
<ele>1373</ele>
<time>2013-05-04T13:02:57.000Z</time>
</trkpt>
<trkpt lat="42.642875" lon="-2.337147">
<ele>1373</ele>
<time>2013-05-04T13:02:58.000Z</time>
</trkpt>
<trkpt lat="42.642933" lon="-2.33711">
<ele>1373</ele>
<time>2013-05-04T13:02:59.000Z</time>
</trkpt>
<trkpt lat="42.642987" lon="-2.337067">
<ele>1372</ele>
<time>2013-05-04T13:03:00.000Z</time>
</trkpt>
<trkpt lat="42.643038" lon="-2.337016">
<ele>1372</ele>
<time>2013-05-04T13:03:01.000Z</time>
</trkpt>
<trkpt lat="42.64309" lon="-2.336955">
<ele>1372</ele>
<time>2013-05-04T13:03:02.000Z</time>
</trkpt>
<trkpt lat="42.643141" lon="-2.336892">
<ele>1373</ele>
<time>2013-05-04T13:03:03.000Z</time>
</trkpt>
<trkpt lat="42.643197" lon="-2.336821">
<ele>1373</ele>
<time>2013-05-04T13:03:04.000Z</time>
</trkpt>
<trkpt lat="42.643248" lon="-2.336751">
<ele>1373</ele>
<time>2013-05-04T13:03:05.000Z</time>
</trkpt>
<trkpt lat="42.643292" lon="-2.336682">
<ele>1375</ele>
<time>2013-05-04T13:03:06.000Z</time>
</trkpt>
<trkpt lat="42.643323" lon="-2.336607">
<ele>1377</ele>
<time>2013-05-04T13:03:07.000Z</time>
</trkpt>
<trkpt lat="42.643349" lon="-2.336538">
<ele>1379</ele>
<time>2013-05-04T13:03:08.000Z</time>
</trkpt>
<trkpt lat="42.643373" lon="-2.336471">
<ele>1380</ele>
<time>2013-05-04T13:03:09.000Z</time>
</trkpt>
<trkpt lat="42.643395" lon="-2.33641">
<ele>1381</ele>
<time>2013-05-04T13:03:10.000Z</time>
</trkpt>
<trkpt lat="42.64343" lon="-2.33636">
<ele>1383</ele>
<time>2013-05-04T13:03:11.000Z</time>
</trkpt>
<trkpt lat="42.643469" lon="-2.33633">
<ele>1384</ele>
<time>2013-05-04T13:03:12.000Z</time>
</trkpt>
<trkpt lat="42.643516" lon="-2.336329">
<ele>1385</ele>
<time>2013-05-04T13:03:13.000Z</time>
</trkpt>
<trkpt lat="42.64356" lon="-2.33636">
<ele>1384</ele>
<time>2013-05-04T13:03:14.000Z</time>
</trkpt>
<trkpt lat="42.643605" lon="-2.336425">
<ele>1385</ele>
<time>2013-05-04T13:03:15.000Z</time>
</trkpt>
<trkpt lat="42.643635" lon="-2.336502">
<ele>1384</ele>
<time>2013-05-04T13:03:16.000Z</time>
</trkpt>
<trkpt lat="42.643659" lon="-2.336579">
<ele>1384</ele>
<time>2013-05-04T13:03:17.000Z</time>
</trkpt>
<trkpt lat="42.643662" lon="-2.336657">
<ele>1383</ele>
<time>2013-05-04T13:03:18.000Z</time>
</trkpt>
<trkpt lat="42.643653" lon="-2.33674">
<ele>1383</ele>
<time>2013-05-04T13:03:19.000Z</time>
</trkpt>
<trkpt lat="42.643615" lon="-2.336838">
<ele>1383</ele>
<time>2013-05-04T13:03:20.000Z</time>
</trkpt>
<trkpt lat="42.643556" lon="-2.336918">
<ele>1383</ele>
<time>2013-05-04T13:03:21.000Z</time>
</trkpt>
<trkpt lat="42.643491" lon="-2.336969">
<ele>1384</ele>
<time>2013-05-04T13:03:22.000Z</time>
</trkpt>
<trkpt lat="42.643418" lon="-2.336996">
<ele>1384</ele>
<time>2013-05-04T13:03:23.000Z</time>
</trkpt>
<trkpt lat="42.643348" lon="-2.336995">
<ele>1385</ele>
<time>2013-05-04T13:03:24.000Z</time>
</trkpt>
<trkpt lat="42.643275" lon="-2.336985">
<ele>1385</ele>
<time>2013-05-04T13:03:25.000Z</time>
</trkpt>
<trkpt lat="42.643199" lon="-2.336949">
<ele>1386</ele>
<time>2013-05-04T13:03:26.000Z</time>
</trkpt>
<trkpt lat="42.64312" lon="-2.336915">
<ele>1385</ele>
<time>2013-05-04T13:03:27.000Z</time>
</trkpt>
<trkpt lat="42.643038" lon="-2.336916">
<ele>1384</ele>
<time>2013-05-04T13:03:28.000Z</time>
</trkpt>
<trkpt lat="42.642955" lon="-2.336949">
<ele>1384</ele>
<time>2013-05-04T13:03:29.000Z</time>
</trkpt>
<trkpt lat="42.642884" lon="-2.337017">
<ele>1384</ele>
<time>2013-05-04T13:03:30.000Z</time>
</trkpt>
<trkpt lat="42.64284" lon="-2.33711">
<ele>1385</ele>
<time>2013-05-04T13:03:31.000Z</time>
</trkpt>
<trkpt lat="42.64282" lon="-2.337205">
<ele>1388</ele>
<time>2013-05-04T13:03:32.000Z</time>
</trkpt>
<trkpt lat="42.642825" lon="-2.337286">
<ele>1388</ele>
<time>2013-05-04T13:03:33.000Z</time>
</trkpt>
<trkpt lat="42.642847" lon="-2.337358">
<ele>1388</ele>
<time>2013-05-04T13:03:34.000Z</time>
</trkpt>
<trkpt lat="42.642891" lon="-2.337388">
<ele>1388</ele>
<time>2013-05-04T13:03:35.000Z</time>
</trkpt>
<trkpt lat="42.642945" lon="-2.3374">
<ele>1388</ele>
<time>2013-05-04T13:03:36.000Z</time>
</trkpt>
<trkpt lat="42.642994" lon="-2.337383">
<ele>1388</ele>
<time>2013-05-04T13:03:37.000Z</time>
</trkpt>
<trkpt lat="42.643031" lon="-2.337337">
<ele>1389</ele>
<time>2013-05-04T13:03:38.000Z</time>
</trkpt>
<trkpt lat="42.64306" lon="-2.337258">
<ele>1389</ele>
<time>2013-05-04T13:03:39.000Z</time>
</trkpt>
<trkpt lat="42.643063" lon="-2.337158">
<ele>1388</ele>
<time>2013-05-04T13:03:40.000Z</time>
</trkpt>
<trkpt lat="42.643048" lon="-2.337062">
<ele>1389</ele>
<time>2013-05-04T13:03:41.000Z</time>
</trkpt>
<trkpt lat="42.643033" lon="-2.336971">
<ele>1389</ele>
<time>2013-05-04T13:03:42.000Z</time>
</trkpt>
<trkpt lat="42.643023" lon="-2.336888">
<ele>1389</ele>
<time>2013-05-04T13:03:43.000Z</time>
</trkpt>
<trkpt lat="42.643038" lon="-2.3368">
<ele>1389</ele>
<time>2013-05-04T13:03:44.000Z</time>
</trkpt>
<trkpt lat="42.643057" lon="-2.336714">
<ele>1390</ele>
<time>2013-05-04T13:03:45.000Z</time>
</trkpt>
<trkpt lat="42.643076" lon="-2.336629">
<ele>1390</ele>
<time>2013-05-04T13:03:46.000Z</time>
</trkpt>
<trkpt lat="42.643093" lon="-2.336548">
<ele>1391</ele>
<time>2013-05-04T13:03:47.000Z</time>
</trkpt>
<trkpt lat="42.643103" lon="-2.336472">
<ele>1393</ele>
<time>2013-05-04T13:03:48.000Z</time>
</trkpt>
<trkpt lat="42.643109" lon="-2.336403">
<ele>1393</ele>
<time>2013-05-04T13:03:49.000Z</time>
</trkpt>
<trkpt lat="42.643124" lon="-2.336339">
<ele>1393</ele>
<time>2013-05-04T13:03:50.000Z</time>
</trkpt>
<trkpt lat="42.643156" lon="-2.336279">
<ele>1392</ele>
<time>2013-05-04T13:03:51.000Z</time>
</trkpt>
<trkpt lat="42.643204" lon="-2.336227">
<ele>1392</ele>
<time>2013-05-04T13:03:52.000Z</time>
</trkpt>
<trkpt lat="42.643253" lon="-2.336187">
<ele>1393</ele>
<time>2013-05-04T13:03:53.000Z</time>
</trkpt>
<trkpt lat="42.643309" lon="-2.336175">
<ele>1394</ele>
<time>2013-05-04T13:03:54.000Z</time>
</trkpt>
<trkpt lat="42.643358" lon="-2.336188">
<ele>1394</ele>
<time>2013-05-04T13:03:55.000Z</time>
</trkpt>
<trkpt lat="42.643407" lon="-2.336226">
<ele>1394</ele>
<time>2013-05-04T13:03:56.000Z</time>
</trkpt>
<trkpt lat="42.643451" lon="-2.336285">
<ele>1393</ele>
<time>2013-05-04T13:03:57.000Z</time>
</trkpt>
<trkpt lat="42.643481" lon="-2.336372">
<ele>1393</ele>
<time>2013-05-04T13:03:58.000Z</time>
</trkpt>
<trkpt lat="42.643494" lon="-2.336457">
<ele>1392</ele>
<time>2013-05-04T13:03:59.000Z</time>
</trkpt>
<trkpt lat="42.643485" lon="-2.336542">
<ele>1391</ele>
<time>2013-05-04T13:04:00.000Z</time>
</trkpt>
<trkpt lat="42.64345" lon="-2.336633">
<ele>1390</ele>
<time>2013-05-04T13:04:01.000Z</time>
</trkpt>
<trkpt lat="42.643404" lon="-2.336729">
<ele>1390</ele>
<time>2013-05-04T13:04:02.000Z</time>
</trkpt>
<trkpt lat="42.643334" lon="-2.336802">
<ele>1389</ele>
<time>2013-05-04T13:04:03.000Z</time>
</trkpt>
<trkpt lat="42.643245" lon="-2.336852">
<ele>1389</ele>
<time>2013-05-04T13:04:04.000Z</time>
</trkpt>
<trkpt lat="42.64315" lon="-2.33686">
<ele>1387</ele>
<time>2013-05-04T13:04:05.000Z</time>
</trkpt>
<trkpt lat="42.643048" lon="-2.336861">
<ele>1389</ele>
<time>2013-05-04T13:04:06.000Z</time>
</trkpt>
<trkpt lat="42.642954" lon="-2.33685">
<ele>1390</ele>
<time>2013-05-04T13:04:07.000Z</time>
</trkpt>
<trkpt lat="42.642868" lon="-2.33684">
<ele>1390</ele>
<time>2013-05-04T13:04:08.000Z</time>
</trkpt>
<trkpt lat="42.642786" lon="-2.33686">
<ele>1391</ele>
<time>2013-05-04T13:04:09.000Z</time>
</trkpt>
<trkpt lat="42.642716" lon="-2.336909">
<ele>1391</ele>
<time>2013-05-04T13:04:10.000Z</time>
</trkpt>
<trkpt lat="42.642646" lon="-2.336964">
<ele>1391</ele>
<time>2013-05-04T13:04:11.000Z</time>
</trkpt>
<trkpt lat="42.642598" lon="-2.337032">
<ele>1392</ele>
<time>2013-05-04T13:04:12.000Z</time>
</trkpt>
<trkpt lat="42.64257" lon="-2.337105">
<ele>1392</ele>
<time>2013-05-04T13:04:13.000Z</time>
</trkpt>
<trkpt lat="42.642556" lon="-2.337175">
<ele>1393</ele>
<time>2013-05-04T13:04:14.000Z</time>
</trkpt>
<trkpt lat="42.642551" lon="-2.337237">
<ele>1393</ele>
<time>2013-05-04T13:04:15.000Z</time>
</trkpt>
<trkpt lat="42.642549" lon="-2.337301">
<ele>1394</ele>
<time>2013-05-04T13:04:16.000Z</time>
</trkpt>
<trkpt lat="42.642554" lon="-2.337362">
<ele>1395</ele>
<time>2013-05-04T13:04:17.000Z</time>
</trkpt>
<trkpt lat="42.642572" lon="-2.337405">
<ele>1395</ele>
<time>2013-05-04T13:04:18.000Z</time>
</trkpt>
<trkpt lat="42.642614" lon="-2.337435">
<ele>1395</ele>
<time>2013-05-04T13:04:19.000Z</time>
</trkpt>
<trkpt lat="42.642672" lon="-2.337454">
<ele>1394</ele>
<time>2013-05-04T13:04:20.000Z</time>
</trkpt>
<trkpt lat="42.64273" lon="-2.337455">
<ele>1394</ele>
<time>2013-05-04T13:04:21.000Z</time>
</trkpt>
<trkpt lat="42.642785" lon="-2.337441">
<ele>1396</ele>
<time>2013-05-04T13:04:22.000Z</time>
</trkpt>
<trkpt lat="42.642835" lon="-2.337421">
<ele>1398</ele>
<time>2013-05-04T13:04:23.000Z</time>
</trkpt>
<trkpt lat="42.642882" lon="-2.337398">
<ele>1399</ele>
<time>2013-05-04T13:04:24.000Z</time>
</trkpt>
<trkpt lat="42.642931" lon="-2.337369">
<ele>1399</ele>
<time>2013-05-04T13:04:25.000Z</time>
</trkpt>
<trkpt lat="42.642979" lon="-2.337333">
<ele>1399</ele>
<time>2013-05-04T13:04:26.000Z</time>
</trkpt>
<trkpt lat="42.643029" lon="-2.337276">
<ele>1397</ele>
<time>2013-05-04T13:04:27.000Z</time>
</trkpt>
<trkpt lat="42.643083" lon="-2.337213">
<ele>1398</ele>
<time>2013-05-04T13:04:28.000Z</time>
</trkpt>
<trkpt lat="42.643129" lon="-2.337153">
<ele>1398</ele>
<time>2013-05-04T13:04:29.000Z</time>
</trkpt>
<trkpt lat="42.643166" lon="-2.337104">
<ele>1398</ele>
<time>2013-05-04T13:04:30.000Z</time>
</trkpt>
<trkpt lat="42.643203" lon="-2.337061">
<ele>1397</ele>
<time>2013-05-04T13:04:31.000Z</time>
</trkpt>
<trkpt lat="42.643249" lon="-2.337015">
<ele>1397</ele>
<time>2013-05-04T13:04:32.000Z</time>
</trkpt>
<trkpt lat="42.643309" lon="-2.336958">
<ele>1396</ele>
<time>2013-05-04T13:04:33.000Z</time>
</trkpt>
<trkpt lat="42.643361" lon="-2.336902">
<ele>1395</ele>
<time>2013-05-04T13:04:34.000Z</time>
</trkpt>
<trkpt lat="42.643409" lon="-2.336843">
<ele>1394</ele>
<time>2013-05-04T13:04:35.000Z</time>
</trkpt>
<trkpt lat="42.643454" lon="-2.336786">
<ele>1394</ele>
<time>2013-05-04T13:04:36.000Z</time>
</trkpt>
<trkpt lat="42.643495" lon="-2.336735">
<ele>1395</ele>
<time>2013-05-04T13:04:37.000Z</time>
</trkpt>
<trkpt lat="42.64353" lon="-2.336691">
<ele>1395</ele>
<time>2013-05-04T13:04:38.000Z</time>
</trkpt>
<trkpt lat="42.643565" lon="-2.336643">
<ele>1393</ele>
<time>2013-05-04T13:04:39.000Z</time>
</trkpt>
<trkpt lat="42.643598" lon="-2.336587">
<ele>1393</ele>
<time>2013-05-04T13:04:40.000Z</time>
</trkpt>
<trkpt lat="42.643635" lon="-2.336518">
<ele>1393</ele>
<time>2013-05-04T13:04:41.000Z</time>
</trkpt>
<trkpt lat="42.643671" lon="-2.336447">
<ele>1392</ele>
<time>2013-05-04T13:04:42.000Z</time>
</trkpt>
<trkpt lat="42.643709" lon="-2.336381">
<ele>1390</ele>
<time>2013-05-04T13:04:43.000Z</time>
</trkpt>
<trkpt lat="42.643747" lon="-2.336321">
<ele>1389</ele>
<time>2013-05-04T13:04:44.000Z</time>
</trkpt>
<trkpt lat="42.643788" lon="-2.336257">
<ele>1389</ele>
<time>2013-05-04T13:04:45.000Z</time>
</trkpt>
<trkpt lat="42.643829" lon="-2.336182">
<ele>1388</ele>
<time>2013-05-04T13:04:46.000Z</time>
</trkpt>
<trkpt lat="42.643869" lon="-2.3361">
<ele>1387</ele>
<time>2013-05-04T13:04:47.000Z</time>
</trkpt>
<trkpt lat="42.643906" lon="-2.336022">
<ele>1387</ele>
<time>2013-05-04T13:04:48.000Z</time>
</trkpt>
<trkpt lat="42.643941" lon="-2.33595">
<ele>1386</ele>
<time>2013-05-04T13:04:49.000Z</time>
</trkpt>
<trkpt lat="42.643972" lon="-2.33588">
<ele>1386</ele>
<time>2013-05-04T13:04:50.000Z</time>
</trkpt>
<trkpt lat="42.64399" lon="-2.335799">
<ele>1385</ele>
<time>2013-05-04T13:04:51.000Z</time>
</trkpt>
<trkpt lat="42.644009" lon="-2.335709">
<ele>1385</ele>
<time>2013-05-04T13:04:52.000Z</time>
</trkpt>
<trkpt lat="42.644029" lon="-2.335618">
<ele>1385</ele>
<time>2013-05-04T13:04:53.000Z</time>
</trkpt>
<trkpt lat="42.644055" lon="-2.335527">
<ele>1384</ele>
<time>2013-05-04T13:04:54.000Z</time>
</trkpt>
<trkpt lat="42.644085" lon="-2.33544">
<ele>1384</ele>
<time>2013-05-04T13:04:55.000Z</time>
</trkpt>
<trkpt lat="42.644114" lon="-2.335358">
<ele>1385</ele>
<time>2013-05-04T13:04:56.000Z</time>
</trkpt>
<trkpt lat="42.644139" lon="-2.335279">
<ele>1387</ele>
<time>2013-05-04T13:04:57.000Z</time>
</trkpt>
<trkpt lat="42.644157" lon="-2.335211">
<ele>1387</ele>
<time>2013-05-04T13:04:58.000Z</time>
</trkpt>
<trkpt lat="42.644178" lon="-2.335134">
<ele>1387</ele>
<time>2013-05-04T13:04:59.000Z</time>
</trkpt>
<trkpt lat="42.644221" lon="-2.335055">
<ele>1387</ele>
<time>2013-05-04T13:05:00.000Z</time>
</trkpt>
<trkpt lat="42.644276" lon="-2.334969">
<ele>1385</ele>
<time>2013-05-04T13:05:01.000Z</time>
</trkpt>
<trkpt lat="42.644329" lon="-2.33489">
<ele>1384</ele>
<time>2013-05-04T13:05:02.000Z</time>
</trkpt>
<trkpt lat="42.644381" lon="-2.334809">
<ele>1384</ele>
<time>2013-05-04T13:05:03.000Z</time>
</trkpt>
<trkpt lat="42.644422" lon="-2.334739">
<ele>1384</ele>
<time>2013-05-04T13:05:04.000Z</time>
</trkpt>
<trkpt lat="42.644459" lon="-2.33467">
<ele>1384</ele>
<time>2013-05-04T13:05:05.000Z</time>
</trkpt>
<trkpt lat="42.644502" lon="-2.334591">
<ele>1384</ele>
<time>2013-05-04T13:05:06.000Z</time>
</trkpt>
<trkpt lat="42.644556" lon="-2.334488">
<ele>1384</ele>
<time>2013-05-04T13:05:07.000Z</time>
</trkpt>
<trkpt lat="42.644602" lon="-2.334381">
<ele>1385</ele>
<time>2013-05-04T13:05:08.000Z</time>
</trkpt>
<trkpt lat="42.644625" lon="-2.334278">
<ele>1386</ele>
<time>2013-05-04T13:05:09.000Z</time>
</trkpt>
<trkpt lat="42.644646" lon="-2.334187">
<ele>1389</ele>
<time>2013-05-04T13:05:10.000Z</time>
</trkpt>
<trkpt lat="42.644669" lon="-2.334119">
<ele>1391</ele>
<time>2013-05-04T13:05:11.000Z</time>
</trkpt>
<trkpt lat="42.644702" lon="-2.334073">
<ele>1393</ele>
<time>2013-05-04T13:05:12.000Z</time>
</trkpt>
<trkpt lat="42.644734" lon="-2.33403">
<ele>1395</ele>
<time>2013-05-04T13:05:13.000Z</time>
</trkpt>
<trkpt lat="42.644769" lon="-2.333987">
<ele>1397</ele>
<time>2013-05-04T13:05:14.000Z</time>
</trkpt>
<trkpt lat="42.644838" lon="-2.333897">
<ele>1399</ele>
<time>2013-05-04T13:05:16.000Z</time>
</trkpt>
<trkpt lat="42.644872" lon="-2.333849">
<ele>1402</ele>
<time>2013-05-04T13:05:17.000Z</time>
</trkpt>
<trkpt lat="42.644902" lon="-2.333808">
<ele>1402</ele>
<time>2013-05-04T13:05:18.000Z</time>
</trkpt>
<trkpt lat="42.644952" lon="-2.333783">
<ele>1401</ele>
<time>2013-05-04T13:05:19.000Z</time>
</trkpt>
<trkpt lat="42.645007" lon="-2.333784">
<ele>1400</ele>
<time>2013-05-04T13:05:20.000Z</time>
</trkpt>
<trkpt lat="42.645064" lon="-2.33382">
<ele>1400</ele>
<time>2013-05-04T13:05:21.000Z</time>
</trkpt>
<trkpt lat="42.645114" lon="-2.333894">
<ele>1401</ele>
<time>2013-05-04T13:05:22.000Z</time>
</trkpt>
<trkpt lat="42.645128" lon="-2.333981">
<ele>1401</ele>
<time>2013-05-04T13:05:23.000Z</time>
</trkpt>
<trkpt lat="42.645123" lon="-2.334074">
<ele>1403</ele>
<time>2013-05-04T13:05:24.000Z</time>
</trkpt>
<trkpt lat="42.645096" lon="-2.334161">
<ele>1405</ele>
<time>2013-05-04T13:05:25.000Z</time>
</trkpt>
<trkpt lat="42.645061" lon="-2.334247">
<ele>1405</ele>
<time>2013-05-04T13:05:26.000Z</time>
</trkpt>
<trkpt lat="42.645021" lon="-2.334326">
<ele>1406</ele>
<time>2013-05-04T13:05:27.000Z</time>
</trkpt>
<trkpt lat="42.644963" lon="-2.33439">
<ele>1407</ele>
<time>2013-05-04T13:05:28.000Z</time>
</trkpt>
<trkpt lat="42.644898" lon="-2.334422">
<ele>1407</ele>
<time>2013-05-04T13:05:29.000Z</time>
</trkpt>
<trkpt lat="42.644825" lon="-2.33443">
<ele>1408</ele>
<time>2013-05-04T13:05:30.000Z</time>
</trkpt>
<trkpt lat="42.644748" lon="-2.334403">
<ele>1408</ele>
<time>2013-05-04T13:05:31.000Z</time>
</trkpt>
<trkpt lat="42.644681" lon="-2.334343">
<ele>1410</ele>
<time>2013-05-04T13:05:32.000Z</time>
</trkpt>
<trkpt lat="42.644629" lon="-2.334261">
<ele>1412</ele>
<time>2013-05-04T13:05:33.000Z</time>
</trkpt>
<trkpt lat="42.644594" lon="-2.334169">
<ele>1413</ele>
<time>2013-05-04T13:05:34.000Z</time>
</trkpt>
<trkpt lat="42.644571" lon="-2.334078">
<ele>1413</ele>
<time>2013-05-04T13:05:35.000Z</time>
</trkpt>
<trkpt lat="42.644567" lon="-2.333981">
<ele>1413</ele>
<time>2013-05-04T13:05:36.000Z</time>
</trkpt>
<trkpt lat="42.644571" lon="-2.333894">
<ele>1414</ele>
<time>2013-05-04T13:05:37.000Z</time>
</trkpt>
<trkpt lat="42.644593" lon="-2.333812">
<ele>1414</ele>
<time>2013-05-04T13:05:38.000Z</time>
</trkpt>
<trkpt lat="42.644618" lon="-2.333732">
<ele>1415</ele>
<time>2013-05-04T13:05:39.000Z</time>
</trkpt>
<trkpt lat="42.644646" lon="-2.333667">
<ele>1415</ele>
<time>2013-05-04T13:05:40.000Z</time>
</trkpt>
<trkpt lat="42.644688" lon="-2.333615">
<ele>1416</ele>
<time>2013-05-04T13:05:41.000Z</time>
</trkpt>
<trkpt lat="42.644733" lon="-2.33357">
<ele>1417</ele>
<time>2013-05-04T13:05:42.000Z</time>
</trkpt>
<trkpt lat="42.64478" lon="-2.333529">
<ele>1418</ele>
<time>2013-05-04T13:05:43.000Z</time>
</trkpt>
<trkpt lat="42.644828" lon="-2.33349">
<ele>1420</ele>
<time>2013-05-04T13:05:44.000Z</time>
</trkpt>
<trkpt lat="42.644879" lon="-2.333452">
<ele>1422</ele>
<time>2013-05-04T13:05:45.000Z</time>
</trkpt>
<trkpt lat="42.64493" lon="-2.333434">
<ele>1422</ele>
<time>2013-05-04T13:05:46.000Z</time>
</trkpt>
<trkpt lat="42.644995" lon="-2.333429">
<ele>1423</ele>
<time>2013-05-04T13:05:47.000Z</time>
</trkpt>
<trkpt lat="42.645064" lon="-2.333432">
<ele>1426</ele>
<time>2013-05-04T13:05:48.000Z</time>
</trkpt>
<trkpt lat="42.645132" lon="-2.333454">
<ele>1427</ele>
<time>2013-05-04T13:05:49.000Z</time>
</trkpt>
<trkpt lat="42.645193" lon="-2.333495">
<ele>1429</ele>
<time>2013-05-04T13:05:50.000Z</time>
</trkpt>
<trkpt lat="42.645239" lon="-2.333554">
<ele>1430</ele>
<time>2013-05-04T13:05:51.000Z</time>
</trkpt>
<trkpt lat="42.645273" lon="-2.333627">
<ele>1431</ele>
<time>2013-05-04T13:05:52.000Z</time>
</trkpt>
<trkpt lat="42.645302" lon="-2.333701">
<ele>1434</ele>
<time>2013-05-04T13:05:53.000Z</time>
</trkpt>
<trkpt lat="42.645317" lon="-2.333766">
<ele>1437</ele>
<time>2013-05-04T13:05:54.000Z</time>
</trkpt>
<trkpt lat="42.64532" lon="-2.33381">
<ele>1437</ele>
<time>2013-05-04T13:05:55.000Z</time>
</trkpt>
<trkpt lat="42.645307" lon="-2.333853">
<ele>1437</ele>
<time>2013-05-04T13:05:56.000Z</time>
</trkpt>
<trkpt lat="42.645273" lon="-2.333907">
<ele>1437</ele>
<time>2013-05-04T13:05:57.000Z</time>
</trkpt>
<trkpt lat="42.645218" lon="-2.333964">
<ele>1437</ele>
<time>2013-05-04T13:05:58.000Z</time>
</trkpt>
<trkpt lat="42.645148" lon="-2.334002">
<ele>1438</ele>
<time>2013-05-04T13:05:59.000Z</time>
</trkpt>
<trkpt lat="42.645073" lon="-2.334009">
<ele>1437</ele>
<time>2013-05-04T13:06:00.000Z</time>
</trkpt>
<trkpt lat="42.644998" lon="-2.333986">
<ele>1437</ele>
<time>2013-05-04T13:06:01.000Z</time>
</trkpt>
<trkpt lat="42.64493" lon="-2.333939">
<ele>1438</ele>
<time>2013-05-04T13:06:02.000Z</time>
</trkpt>
<trkpt lat="42.644875" lon="-2.333871">
<ele>1439</ele>
<time>2013-05-04T13:06:03.000Z</time>
</trkpt>
<trkpt lat="42.644823" lon="-2.333794">
<ele>1439</ele>
<time>2013-05-04T13:06:04.000Z</time>
</trkpt>
<trkpt lat="42.644788" lon="-2.333693">
<ele>1439</ele>
<time>2013-05-04T13:06:05.000Z</time>
</trkpt>
<trkpt lat="42.644767" lon="-2.333581">
<ele>1439</ele>
<time>2013-05-04T13:06:06.000Z</time>
</trkpt>
<trkpt lat="42.644753" lon="-2.333468">
<ele>1439</ele>
<time>2013-05-04T13:06:07.000Z</time>
</trkpt>
<trkpt lat="42.644744" lon="-2.33336">
<ele>1440</ele>
<time>2013-05-04T13:06:08.000Z</time>
</trkpt>
<trkpt lat="42.644737" lon="-2.333265">
<ele>1443</ele>
<time>2013-05-04T13:06:09.000Z</time>
</trkpt>
<trkpt lat="42.64473" lon="-2.333187">
<ele>1447</ele>
<time>2013-05-04T13:06:10.000Z</time>
</trkpt>
<trkpt lat="42.644726" lon="-2.333116">
<ele>1451</ele>
<time>2013-05-04T13:06:11.000Z</time>
</trkpt>
<trkpt lat="42.644724" lon="-2.333044">
<ele>1453</ele>
<time>2013-05-04T13:06:12.000Z</time>
</trkpt>
<trkpt lat="42.644738" lon="-2.332962">
<ele>1456</ele>
<time>2013-05-04T13:06:13.000Z</time>
</trkpt>
<trkpt lat="42.644753" lon="-2.332874">
<ele>1458</ele>
<time>2013-05-04T13:06:14.000Z</time>
</trkpt>
<trkpt lat="42.644796" lon="-2.332712">
<ele>1462</ele>
<time>2013-05-04T13:06:16.000Z</time>
</trkpt>
<trkpt lat="42.644822" lon="-2.332644">
<ele>1464</ele>
<time>2013-05-04T13:06:17.000Z</time>
</trkpt>
<trkpt lat="42.644846" lon="-2.332592">
<ele>1466</ele>
<time>2013-05-04T13:06:18.000Z</time>
</trkpt>
<trkpt lat="42.644888" lon="-2.332569">
<ele>1467</ele>
<time>2013-05-04T13:06:19.000Z</time>
</trkpt>
<trkpt lat="42.644962" lon="-2.332556">
<ele>1469</ele>
<time>2013-05-04T13:06:20.000Z</time>
</trkpt>
<trkpt lat="42.645032" lon="-2.332559">
<ele>1471</ele>
<time>2013-05-04T13:06:21.000Z</time>
</trkpt>
<trkpt lat="42.645096" lon="-2.332583">
<ele>1473</ele>
<time>2013-05-04T13:06:22.000Z</time>
</trkpt>
<trkpt lat="42.645152" lon="-2.33261">
<ele>1476</ele>
<time>2013-05-04T13:06:23.000Z</time>
</trkpt>
<trkpt lat="42.645199" lon="-2.332654">
<ele>1478</ele>
<time>2013-05-04T13:06:24.000Z</time>
</trkpt>
<trkpt lat="42.645244" lon="-2.332721">
<ele>1480</ele>
<time>2013-05-04T13:06:25.000Z</time>
</trkpt>
<trkpt lat="42.645271" lon="-2.332803">
<ele>1483</ele>
<time>2013-05-04T13:06:26.000Z</time>
</trkpt>
<trkpt lat="42.645279" lon="-2.332879">
<ele>1485</ele>
<time>2013-05-04T13:06:27.000Z</time>
</trkpt>
<trkpt lat="42.645269" lon="-2.332946">
<ele>1487</ele>
<time>2013-05-04T13:06:28.000Z</time>
</trkpt>
<trkpt lat="42.645252" lon="-2.333012">
<ele>1489</ele>
<time>2013-05-04T13:06:29.000Z</time>
</trkpt>
<trkpt lat="42.645217" lon="-2.333075">
<ele>1490</ele>
<time>2013-05-04T13:06:30.000Z</time>
</trkpt>
<trkpt lat="42.645168" lon="-2.333119">
<ele>1492</ele>
<time>2013-05-04T13:06:31.000Z</time>
</trkpt>
<trkpt lat="42.645108" lon="-2.333136">
<ele>1493</ele>
<time>2013-05-04T13:06:32.000Z</time>
</trkpt>
<trkpt lat="42.645033" lon="-2.333125">
<ele>1496</ele>
<time>2013-05-04T13:06:33.000Z</time>
</trkpt>
<trkpt lat="42.644963" lon="-2.333083">
<ele>1496</ele>
<time>2013-05-04T13:06:34.000Z</time>
</trkpt>
<trkpt lat="42.644902" lon="-2.333021">
<ele>1498</ele>
<time>2013-05-04T13:06:35.000Z</time>
</trkpt>
<trkpt lat="42.644848" lon="-2.332935">
<ele>1499</ele>
<time>2013-05-04T13:06:36.000Z</time>
</trkpt>
<trkpt lat="42.644798" lon="-2.332841">
<ele>1502</ele>
<time>2013-05-04T13:06:37.000Z</time>
</trkpt>
<trkpt lat="42.64477" lon="-2.332744">
<ele>1506</ele>
<time>2013-05-04T13:06:38.000Z</time>
</trkpt>
<trkpt lat="42.64475" lon="-2.332661">
<ele>1507</ele>
<time>2013-05-04T13:06:39.000Z</time>
</trkpt>
<trkpt lat="42.644735" lon="-2.332576">
<ele>1510</ele>
<time>2013-05-04T13:06:40.000Z</time>
</trkpt>
<trkpt lat="42.644743" lon="-2.332493">
<ele>1512</ele>
<time>2013-05-04T13:06:41.000Z</time>
</trkpt>
<trkpt lat="42.644769" lon="-2.332416">
<ele>1515</ele>
<time>2013-05-04T13:06:42.000Z</time>
</trkpt>
<trkpt lat="42.644805" lon="-2.332352">
<ele>1517</ele>
<time>2013-05-04T13:06:43.000Z</time>
</trkpt>
<trkpt lat="42.644847" lon="-2.332307">
<ele>1519</ele>
<time>2013-05-04T13:06:44.000Z</time>
</trkpt>
<trkpt lat="42.644897" lon="-2.332276">
<ele>1522</ele>
<time>2013-05-04T13:06:45.000Z</time>
</trkpt>
<trkpt lat="42.644944" lon="-2.332266">
<ele>1525</ele>
<time>2013-05-04T13:06:46.000Z</time>
</trkpt>
<trkpt lat="42.644994" lon="-2.332275">
<ele>1526</ele>
<time>2013-05-04T13:06:47.000Z</time>
</trkpt>
<trkpt lat="42.645043" lon="-2.3323">
<ele>1527</ele>
<time>2013-05-04T13:06:48.000Z</time>
</trkpt>
<trkpt lat="42.645095" lon="-2.33234">
<ele>1528</ele>
<time>2013-05-04T13:06:49.000Z</time>
</trkpt>
<trkpt lat="42.645156" lon="-2.332417">
<ele>1529</ele>
<time>2013-05-04T13:06:50.000Z</time>
</trkpt>
<trkpt lat="42.645198" lon="-2.332522">
<ele>1529</ele>
<time>2013-05-04T13:06:51.000Z</time>
</trkpt>
<trkpt lat="42.645212" lon="-2.332627">
<ele>1531</ele>
<time>2013-05-04T13:06:52.000Z</time>
</trkpt>
<trkpt lat="42.645206" lon="-2.332724">
<ele>1532</ele>
<time>2013-05-04T13:06:53.000Z</time>
</trkpt>
<trkpt lat="42.645195" lon="-2.332811">
<ele>1534</ele>
<time>2013-05-04T13:06:54.000Z</time>
</trkpt>
<trkpt lat="42.645162" lon="-2.332883">
<ele>1536</ele>
<time>2013-05-04T13:06:55.000Z</time>
</trkpt>
<trkpt lat="42.645116" lon="-2.332937">
<ele>1538</ele>
<time>2013-05-04T13:06:56.000Z</time>
</trkpt>
<trkpt lat="42.645056" lon="-2.332971">
<ele>1540</ele>
<time>2013-05-04T13:06:57.000Z</time>
</trkpt>
<trkpt lat="42.644995" lon="-2.332995">
<ele>1542</ele>
<time>2013-05-04T13:06:58.000Z</time>
</trkpt>
<trkpt lat="42.644923" lon="-2.333015">
<ele>1542</ele>
<time>2013-05-04T13:06:59.000Z</time>
</trkpt>
<trkpt lat="42.644842" lon="-2.333037">
<ele>1543</ele>
<time>2013-05-04T13:07:00.000Z</time>
</trkpt>
<trkpt lat="42.644776" lon="-2.333022">
<ele>1544</ele>
<time>2013-05-04T13:07:01.000Z</time>
</trkpt>
<trkpt lat="42.644698" lon="-2.332945">
<ele>1544</ele>
<time>2013-05-04T13:07:02.000Z</time>
</trkpt>
<trkpt lat="42.644645" lon="-2.332824">
<ele>1546</ele>
<time>2013-05-04T13:07:03.000Z</time>
</trkpt>
<trkpt lat="42.644608" lon="-2.332707">
<ele>1547</ele>
<time>2013-05-04T13:07:04.000Z</time>
</trkpt>
<trkpt lat="42.644589" lon="-2.332585">
<ele>1547</ele>
<time>2013-05-04T13:07:05.000Z</time>
</trkpt>
<trkpt lat="42.644574" lon="-2.332481">
<ele>1548</ele>
<time>2013-05-04T13:07:06.000Z</time>
</trkpt>
<trkpt lat="42.644572" lon="-2.332403">
<ele>1550</ele>
<time>2013-05-04T13:07:07.000Z</time>
</trkpt>
<trkpt lat="42.644589" lon="-2.332316">
<ele>1553</ele>
<time>2013-05-04T13:07:08.000Z</time>
</trkpt>
<trkpt lat="42.64461" lon="-2.332218">
<ele>1554</ele>
<time>2013-05-04T13:07:09.000Z</time>
</trkpt>
<trkpt lat="42.644638" lon="-2.332124">
<ele>1556</ele>
<time>2013-05-04T13:07:10.000Z</time>
</trkpt>
<trkpt lat="42.644667" lon="-2.332039">
<ele>1558</ele>
<time>2013-05-04T13:07:11.000Z</time>
</trkpt>
<trkpt lat="42.644694" lon="-2.33197">
<ele>1560</ele>
<time>2013-05-04T13:07:12.000Z</time>
</trkpt>
<trkpt lat="42.644718" lon="-2.331909">
<ele>1562</ele>
<time>2013-05-04T13:07:13.000Z</time>
</trkpt>
<trkpt lat="42.644748" lon="-2.331847">
<ele>1564</ele>
<time>2013-05-04T13:07:14.000Z</time>
</trkpt>
<trkpt lat="42.644844" lon="-2.331754">
<ele>1565</ele>
<time>2013-05-04T13:07:16.000Z</time>
</trkpt>
<trkpt lat="42.644908" lon="-2.33173">
<ele>1566</ele>
<time>2013-05-04T13:07:17.000Z</time>
</trkpt>
<trkpt lat="42.644965" lon="-2.331734">
<ele>1566</ele>
<time>2013-05-04T13:07:18.000Z</time>
</trkpt>
<trkpt lat="42.64502" lon="-2.331766">
<ele>1566</ele>
<time>2013-05-04T13:07:19.000Z</time>
</trkpt>
<trkpt lat="42.645074" lon="-2.331827">
<ele>1567</ele>
<time>2013-05-04T13:07:20.000Z</time>
</trkpt>
<trkpt lat="42.645121" lon="-2.331922">
<ele>1571</ele>
<time>2013-05-04T13:07:21.000Z</time>
</trkpt>
<trkpt lat="42.645159" lon="-2.332016">
<ele>1574</ele>
<time>2013-05-04T13:07:22.000Z</time>
</trkpt>
<trkpt lat="42.645172" lon="-2.33211">
<ele>1574</ele>
<time>2013-05-04T13:07:23.000Z</time>
</trkpt>
<trkpt lat="42.645176" lon="-2.332192">
<ele>1578</ele>
<time>2013-05-04T13:07:24.000Z</time>
</trkpt>
<trkpt lat="42.64516" lon="-2.332263">
<ele>1579</ele>
<time>2013-05-04T13:07:25.000Z</time>
</trkpt>
<trkpt lat="42.645141" lon="-2.332336">
<ele>1580</ele>
<time>2013-05-04T13:07:26.000Z</time>
</trkpt>
<trkpt lat="42.645119" lon="-2.332403">
<ele>1582</ele>
<time>2013-05-04T13:07:27.000Z</time>
</trkpt>
<trkpt lat="42.645085" lon="-2.332501">
<ele>1582</ele>
<time>2013-05-04T13:07:28.000Z</time>
</trkpt>
<trkpt lat="42.645032" lon="-2.332592">
<ele>1582</ele>
<time>2013-05-04T13:07:29.000Z</time>
</trkpt>
<trkpt lat="42.644971" lon="-2.332646">
<ele>1584</ele>
<time>2013-05-04T13:07:30.000Z</time>
</trkpt>
<trkpt lat="42.644906" lon="-2.332677">
<ele>1585</ele>
<time>2013-05-04T13:07:31.000Z</time>
</trkpt>
<trkpt lat="42.644842" lon="-2.3327">
<ele>1585</ele>
<time>2013-05-04T13:07:32.000Z</time>
</trkpt>
<trkpt lat="42.644778" lon="-2.332714">
<ele>1585</ele>
<time>2013-05-04T13:07:33.000Z</time>
</trkpt>
<trkpt lat="42.644701" lon="-2.3327">
<ele>1585</ele>
<time>2013-05-04T13:07:34.000Z</time>
</trkpt>
<trkpt lat="42.644619" lon="-2.332679">
<ele>1586</ele>
<time>2013-05-04T13:07:35.000Z</time>
</trkpt>
<trkpt lat="42.644543" lon="-2.332622">
<ele>1586</ele>
<time>2013-05-04T13:07:36.000Z</time>
</trkpt>
<trkpt lat="42.644466" lon="-2.33255">
<ele>1586</ele>
<time>2013-05-04T13:07:37.000Z</time>
</trkpt>
<trkpt lat="42.6444" lon="-2.332444">
<ele>1586</ele>
<time>2013-05-04T13:07:38.000Z</time>
</trkpt>
<trkpt lat="42.644343" lon="-2.332334">
<ele>1586</ele>
<time>2013-05-04T13:07:39.000Z</time>
</trkpt>
<trkpt lat="42.644313" lon="-2.332204">
<ele>1587</ele>
<time>2013-05-04T13:07:40.000Z</time>
</trkpt>
<trkpt lat="42.64429" lon="-2.332079">
<ele>1587</ele>
<time>2013-05-04T13:07:41.000Z</time>
</trkpt>
<trkpt lat="42.644276" lon="-2.331969">
<ele>1588</ele>
<time>2013-05-04T13:07:42.000Z</time>
</trkpt>
<trkpt lat="42.644266" lon="-2.331873">
<ele>1589</ele>
<time>2013-05-04T13:07:43.000Z</time>
</trkpt>
<trkpt lat="42.64426" lon="-2.331785">
<ele>1592</ele>
<time>2013-05-04T13:07:44.000Z</time>
</trkpt>
<trkpt lat="42.644258" lon="-2.331695">
<ele>1594</ele>
<time>2013-05-04T13:07:45.000Z</time>
</trkpt>
<trkpt lat="42.644263" lon="-2.331602">
<ele>1595</ele>
<time>2013-05-04T13:07:46.000Z</time>
</trkpt>
<trkpt lat="42.644271" lon="-2.331506">
<ele>1596</ele>
<time>2013-05-04T13:07:47.000Z</time>
</trkpt>
<trkpt lat="42.64428" lon="-2.331406">
<ele>1596</ele>
<time>2013-05-04T13:07:48.000Z</time>
</trkpt>
<trkpt lat="42.644295" lon="-2.331305">
<ele>1597</ele>
<time>2013-05-04T13:07:49.000Z</time>
</trkpt>
<trkpt lat="42.644331" lon="-2.331203">
<ele>1597</ele>
<time>2013-05-04T13:07:50.000Z</time>
</trkpt>
<trkpt lat="42.64437" lon="-2.3311">
<ele>1598</ele>
<time>2013-05-04T13:07:51.000Z</time>
</trkpt>
<trkpt lat="42.644414" lon="-2.330993">
<ele>1601</ele>
<time>2013-05-04T13:07:52.000Z</time>
</trkpt>
<trkpt lat="42.644466" lon="-2.330897">
<ele>1604</ele>
<time>2013-05-04T13:07:53.000Z</time>
</trkpt>
<trkpt lat="42.644525" lon="-2.330829">
<ele>1606</ele>
<time>2013-05-04T13:07:54.000Z</time>
</trkpt>
<trkpt lat="42.644578" lon="-2.330788">
<ele>1607</ele>
<time>2013-05-04T13:07:55.000Z</time>
</trkpt>
<trkpt lat="42.644624" lon="-2.330753">
<ele>1608</ele>
<time>2013-05-04T13:07:56.000Z</time>
</trkpt>
<trkpt lat="42.644667" lon="-2.330718">
<ele>1608</ele>
<time>2013-05-04T13:07:57.000Z</time>
</trkpt>
<trkpt lat="42.644715" lon="-2.33068">
<ele>1609</ele>
<time>2013-05-04T13:07:58.000Z</time>
</trkpt>
<trkpt lat="42.644773" lon="-2.330653">
<ele>1610</ele>
<time>2013-05-04T13:07:59.000Z</time>
</trkpt>
<trkpt lat="42.644843" lon="-2.330646">
<ele>1611</ele>
<time>2013-05-04T13:08:00.000Z</time>
</trkpt>
<trkpt lat="42.644924" lon="-2.330664">
<ele>1612</ele>
<time>2013-05-04T13:08:01.000Z</time>
</trkpt>
<trkpt lat="42.645004" lon="-2.330693">
<ele>1614</ele>
<time>2013-05-04T13:08:02.000Z</time>
</trkpt>
<trkpt lat="42.645069" lon="-2.330741">
<ele>1617</ele>
<time>2013-05-04T13:08:03.000Z</time>
</trkpt>
<trkpt lat="42.645127" lon="-2.330788">
<ele>1621</ele>
<time>2013-05-04T13:08:04.000Z</time>
</trkpt>
<trkpt lat="42.64518" lon="-2.330838">
<ele>1624</ele>
<time>2013-05-04T13:08:05.000Z</time>
</trkpt>
<trkpt lat="42.645226" lon="-2.330889">
<ele>1627</ele>
<time>2013-05-04T13:08:06.000Z</time>
</trkpt>
<trkpt lat="42.645254" lon="-2.330957">
<ele>1631</ele>
<time>2013-05-04T13:08:07.000Z</time>
</trkpt>
<trkpt lat="42.645262" lon="-2.331026">
<ele>1633</ele>
<time>2013-05-04T13:08:08.000Z</time>
</trkpt>
<trkpt lat="42.64525" lon="-2.331096">
<ele>1637</ele>
<time>2013-05-04T13:08:09.000Z</time>
</trkpt>
<trkpt lat="42.645231" lon="-2.331168">
<ele>1640</ele>
<time>2013-05-04T13:08:10.000Z</time>
</trkpt>
<trkpt lat="42.645209" lon="-2.331232">
<ele>1644</ele>
<time>2013-05-04T13:08:11.000Z</time>
</trkpt>
<trkpt lat="42.645187" lon="-2.331269">
<ele>1648</ele>
<time>2013-05-04T13:08:12.000Z</time>
</trkpt>
<trkpt lat="42.645158" lon="-2.331284">
<ele>1651</ele>
<time>2013-05-04T13:08:13.000Z</time>
</trkpt>
<trkpt lat="42.64512" lon="-2.3313">
<ele>1653</ele>
<time>2013-05-04T13:08:14.000Z</time>
</trkpt>
<trkpt lat="42.644987" lon="-2.331325">
<ele>1652</ele>
<time>2013-05-04T13:08:16.000Z</time>
</trkpt>
<trkpt lat="42.644897" lon="-2.331293">
<ele>1652</ele>
<time>2013-05-04T13:08:17.000Z</time>
</trkpt>
<trkpt lat="42.64482" lon="-2.331229">
<ele>1655</ele>
<time>2013-05-04T13:08:18.000Z</time>
</trkpt>
<trkpt lat="42.644755" lon="-2.331143">
<ele>1657</ele>
<time>2013-05-04T13:08:19.000Z</time>
</trkpt>
<trkpt lat="42.644703" lon="-2.331063">
<ele>1661</ele>
<time>2013-05-04T13:08:20.000Z</time>
</trkpt>
<trkpt lat="42.644652" lon="-2.330971">
<ele>1664</ele>
<time>2013-05-04T13:08:21.000Z</time>
</trkpt>
<trkpt lat="42.644615" lon="-2.330864">
<ele>1666</ele>
<time>2013-05-04T13:08:22.000Z</time>
</trkpt>
<trkpt lat="42.644579" lon="-2.330747">
<ele>1669</ele>
<time>2013-05-04T13:08:23.000Z</time>
</trkpt>
<trkpt lat="42.644546" lon="-2.330624">
<ele>1671</ele>
<time>2013-05-04T13:08:24.000Z</time>
</trkpt>
<trkpt lat="42.644519" lon="-2.330509">
<ele>1674</ele>
<time>2013-05-04T13:08:25.000Z</time>
</trkpt>
<trkpt lat="42.644501" lon="-2.330409">
<ele>1677</ele>
<time>2013-05-04T13:08:26.000Z</time>
</trkpt>
<trkpt lat="42.644489" lon="-2.330316">
<ele>1680</ele>
<time>2013-05-04T13:08:27.000Z</time>
</trkpt>
<trkpt lat="42.644478" lon="-2.330217">
<ele>1681</ele>
<time>2013-05-04T13:08:28.000Z</time>
</trkpt>
<trkpt lat="42.644485" lon="-2.330116">
<ele>1683</ele>
<time>2013-05-04T13:08:29.000Z</time>
</trkpt>
<trkpt lat="42.644509" lon="-2.33003">
<ele>1683</ele>
<time>2013-05-04T13:08:30.000Z</time>
</trkpt>
<trkpt lat="42.644552" lon="-2.329956">
<ele>1684</ele>
<time>2013-05-04T13:08:31.000Z</time>
</trkpt>
<trkpt lat="42.644601" lon="-2.329908">
<ele>1685</ele>
<time>2013-05-04T13:08:32.000Z</time>
</trkpt>
<trkpt lat="42.644649" lon="-2.329863">
<ele>1690</ele>
<time>2013-05-04T13:08:33.000Z</time>
</trkpt>
<trkpt lat="42.644698" lon="-2.329819">
<ele>1694</ele>
<time>2013-05-04T13:08:34.000Z</time>
</trkpt>
<trkpt lat="42.644746" lon="-2.329779">
<ele>1697</ele>
<time>2013-05-04T13:08:35.000Z</time>
</trkpt>
<trkpt lat="42.6448" lon="-2.329779">
<ele>1700</ele>
<time>2013-05-04T13:08:36.000Z</time>
</trkpt>
<trkpt lat="42.644853" lon="-2.329814">
<ele>1703</ele>
<time>2013-05-04T13:08:37.000Z</time>
</trkpt>
<trkpt lat="42.644911" lon="-2.329889">
<ele>1704</ele>
<time>2013-05-04T13:08:38.000Z</time>
</trkpt>
<trkpt lat="42.644962" lon="-2.329968">
<ele>1705</ele>
<time>2013-05-04T13:08:39.000Z</time>
</trkpt>
<trkpt lat="42.644983" lon="-2.330043">
<ele>1709</ele>
<time>2013-05-04T13:08:40.000Z</time>
</trkpt>
<trkpt lat="42.644992" lon="-2.330085">
<ele>1712</ele>
<time>2013-05-04T13:08:41.000Z</time>
</trkpt>
<trkpt lat="42.644983" lon="-2.330121">
<ele>1715</ele>
<time>2013-05-04T13:08:42.000Z</time>
</trkpt>
<trkpt lat="42.644954" lon="-2.330179">
<ele>1716</ele>
<time>2013-05-04T13:08:43.000Z</time>
</trkpt>
<trkpt lat="42.644919" lon="-2.330225">
<ele>1719</ele>
<time>2013-05-04T13:08:44.000Z</time>
</trkpt>
<trkpt lat="42.644857" lon="-2.330262">
<ele>1720</ele>
<time>2013-05-04T13:08:45.000Z</time>
</trkpt>
<trkpt lat="42.644786" lon="-2.330279">
<ele>1722</ele>
<time>2013-05-04T13:08:46.000Z</time>
</trkpt>
<trkpt lat="42.644715" lon="-2.330271">
<ele>1724</ele>
<time>2013-05-04T13:08:47.000Z</time>
</trkpt>
<trkpt lat="42.644643" lon="-2.330253">
<ele>1727</ele>
<time>2013-05-04T13:08:48.000Z</time>
</trkpt>
<trkpt lat="42.644579" lon="-2.330214">
<ele>1730</ele>
<time>2013-05-04T13:08:49.000Z</time>
</trkpt>
<trkpt lat="42.644511" lon="-2.330165">
<ele>1732</ele>
<time>2013-05-04T13:08:50.000Z</time>
</trkpt>
<trkpt lat="42.644447" lon="-2.330087">
<ele>1735</ele>
<time>2013-05-04T13:08:51.000Z</time>
</trkpt>
<trkpt lat="42.644386" lon="-2.330001">
<ele>1737</ele>
<time>2013-05-04T13:08:52.000Z</time>
</trkpt>
<trkpt lat="42.644338" lon="-2.329889">
<ele>1739</ele>
<time>2013-05-04T13:08:53.000Z</time>
</trkpt>
<trkpt lat="42.644294" lon="-2.329767">
<ele>1741</ele>
<time>2013-05-04T13:08:54.000Z</time>
</trkpt>
<trkpt lat="42.644271" lon="-2.329631">
<ele>1743</ele>
<time>2013-05-04T13:08:55.000Z</time>
</trkpt>
<trkpt lat="42.644251" lon="-2.329495">
<ele>1745</ele>
<time>2013-05-04T13:08:56.000Z</time>
</trkpt>
<trkpt lat="42.644236" lon="-2.32936">
<ele>1747</ele>
<time>2013-05-04T13:08:57.000Z</time>
</trkpt>
<trkpt lat="42.644225" lon="-2.329228">
<ele>1750</ele>
<time>2013-05-04T13:08:58.000Z</time>
</trkpt>
<trkpt lat="42.644233" lon="-2.32911">
<ele>1753</ele>
<time>2013-05-04T13:08:59.000Z</time>
</trkpt>
<trkpt lat="42.644248" lon="-2.328996">
<ele>1756</ele>
<time>2013-05-04T13:09:00.000Z</time>
</trkpt>
<trkpt lat="42.644279" lon="-2.328892">
<ele>1759</ele>
<time>2013-05-04T13:09:01.000Z</time>
</trkpt>
<trkpt lat="42.644305" lon="-2.328805">
<ele>1760</ele>
<time>2013-05-04T13:09:02.000Z</time>
</trkpt>
<trkpt lat="42.644331" lon="-2.328721">
<ele>1762</ele>
<time>2013-05-04T13:09:03.000Z</time>
</trkpt>
<trkpt lat="42.644358" lon="-2.328635">
<ele>1765</ele>
<time>2013-05-04T13:09:04.000Z</time>
</trkpt>
<trkpt lat="42.644388" lon="-2.328551">
<ele>1768</ele>
<time>2013-05-04T13:09:05.000Z</time>
</trkpt>
<trkpt lat="42.644414" lon="-2.328488">
<ele>1771</ele>
<time>2013-05-04T13:09:06.000Z</time>
</trkpt>
<trkpt lat="42.644437" lon="-2.328428">
<ele>1772</ele>
<time>2013-05-04T13:09:07.000Z</time>
</trkpt>
<trkpt lat="42.64447" lon="-2.328385">
<ele>1773</ele>
<time>2013-05-04T13:09:08.000Z</time>
</trkpt>
<trkpt lat="42.644501" lon="-2.328346">
<ele>1774</ele>
<time>2013-05-04T13:09:09.000Z</time>
</trkpt>
<trkpt lat="42.644532" lon="-2.328311">
<ele>1775</ele>
<time>2013-05-04T13:09:10.000Z</time>
</trkpt>
<trkpt lat="42.64457" lon="-2.328293">
<ele>1776</ele>
<time>2013-05-04T13:09:11.000Z</time>
</trkpt>
<trkpt lat="42.644612" lon="-2.328294">
<ele>1779</ele>
<time>2013-05-04T13:09:12.000Z</time>
</trkpt>
<trkpt lat="42.644679" lon="-2.328322">
<ele>1785</ele>
<time>2013-05-04T13:09:13.000Z</time>
</trkpt>
<trkpt lat="42.644722" lon="-2.328364">
<ele>1787</ele>
<time>2013-05-04T13:09:14.000Z</time>
</trkpt>
<trkpt lat="42.644745" lon="-2.32844">
<ele>1792</ele>
<time>2013-05-04T13:09:16.000Z</time>
</trkpt>
<trkpt lat="42.644734" lon="-2.328493">
<ele>1795</ele>
<time>2013-05-04T13:09:17.000Z</time>
</trkpt>
<trkpt lat="42.644708" lon="-2.328557">
<ele>1799</ele>
<time>2013-05-04T13:09:18.000Z</time>
</trkpt>
<trkpt lat="42.644669" lon="-2.328638">
<ele>1800</ele>
<time>2013-05-04T13:09:19.000Z</time>
</trkpt>
<trkpt lat="42.644618" lon="-2.328704">
<ele>1804</ele>
<time>2013-05-04T13:09:20.000Z</time>
</trkpt>
<trkpt lat="42.644565" lon="-2.328741">
<ele>1807</ele>
<time>2013-05-04T13:09:21.000Z</time>
</trkpt>
<trkpt lat="42.64451" lon="-2.328755">
<ele>1808</ele>
<time>2013-05-04T13:09:22.000Z</time>
</trkpt>
<trkpt lat="42.644436" lon="-2.328747">
<ele>1808</ele>
<time>2013-05-04T13:09:23.000Z</time>
</trkpt>
<trkpt lat="42.644354" lon="-2.328735">
<ele>1811</ele>
<time>2013-05-04T13:09:24.000Z</time>
</trkpt>
<trkpt lat="42.644269" lon="-2.328684">
<ele>1812</ele>
<time>2013-05-04T13:09:25.000Z</time>
</trkpt>
<trkpt lat="42.644184" lon="-2.328622">
<ele>1814</ele>
<time>2013-05-04T13:09:26.000Z</time>
</trkpt>
<trkpt lat="42.644093" lon="-2.328498">
<ele>1817</ele>
<time>2013-05-04T13:09:27.000Z</time>
</trkpt>
<trkpt lat="42.644033" lon="-2.32835">
<ele>1818</ele>
<time>2013-05-04T13:09:28.000Z</time>
</trkpt>
<trkpt lat="42.643987" lon="-2.328198">
<ele>1819</ele>
<time>2013-05-04T13:09:29.000Z</time>
</trkpt>
<trkpt lat="42.643956" lon="-2.328057">
<ele>1821</ele>
<time>2013-05-04T13:09:30.000Z</time>
</trkpt>
<trkpt lat="42.643931" lon="-2.327919">
<ele>1823</ele>
<time>2013-05-04T13:09:31.000Z</time>
</trkpt>
<trkpt lat="42.643915" lon="-2.327788">
<ele>1825</ele>
<time>2013-05-04T13:09:32.000Z</time>
</trkpt>
<trkpt lat="42.64392" lon="-2.327656">
<ele>1826</ele>
<time>2013-05-04T13:09:33.000Z</time>
</trkpt>
<trkpt lat="42.643928" lon="-2.327533">
<ele>1828</ele>
<time>2013-05-04T13:09:34.000Z</time>
</trkpt>
<trkpt lat="42.643939" lon="-2.327404">
<ele>1830</ele>
<time>2013-05-04T13:09:35.000Z</time>
</trkpt>
<trkpt lat="42.643953" lon="-2.327282">
<ele>1831</ele>
<time>2013-05-04T13:09:36.000Z</time>
</trkpt>
<trkpt lat="42.643972" lon="-2.327175">
<ele>1834</ele>
<time>2013-05-04T13:09:37.000Z</time>
</trkpt>
<trkpt lat="42.643999" lon="-2.32707">
<ele>1836</ele>
<time>2013-05-04T13:09:38.000Z</time>
</trkpt>
<trkpt lat="42.644032" lon="-2.326962">
<ele>1838</ele>
<time>2013-05-04T13:09:39.000Z</time>
</trkpt>
<trkpt lat="42.644072" lon="-2.326853">
<ele>1840</ele>
<time>2013-05-04T13:09:40.000Z</time>
</trkpt>
<trkpt lat="42.644127" lon="-2.32676">
<ele>1840</ele>
<time>2013-05-04T13:09:41.000Z</time>
</trkpt>
<trkpt lat="42.644199" lon="-2.326693">
<ele>1841</ele>
<time>2013-05-04T13:09:42.000Z</time>
</trkpt>
<trkpt lat="42.644277" lon="-2.326666">
<ele>1843</ele>
<time>2013-05-04T13:09:43.000Z</time>
</trkpt>
<trkpt lat="42.64435" lon="-2.326649">
<ele>1846</ele>
<time>2013-05-04T13:09:44.000Z</time>
</trkpt>
<trkpt lat="42.644414" lon="-2.326639">
<ele>1850</ele>
<time>2013-05-04T13:09:45.000Z</time>
</trkpt>
<trkpt lat="42.644471" lon="-2.326631">
<ele>1853</ele>
<time>2013-05-04T13:09:46.000Z</time>
</trkpt>
<trkpt lat="42.644524" lon="-2.326625">
<ele>1856</ele>
<time>2013-05-04T13:09:47.000Z</time>
</trkpt>
<trkpt lat="42.644575" lon="-2.326622">
<ele>1858</ele>
<time>2013-05-04T13:09:48.000Z</time>
</trkpt>
<trkpt lat="42.644628" lon="-2.326623">
<ele>1860</ele>
<time>2013-05-04T13:09:49.000Z</time>
</trkpt>
<trkpt lat="42.644682" lon="-2.326631">
<ele>1860</ele>
<time>2013-05-04T13:09:50.000Z</time>
</trkpt>
<trkpt lat="42.644735" lon="-2.326666">
<ele>1862</ele>
<time>2013-05-04T13:09:51.000Z</time>
</trkpt>
<trkpt lat="42.644777" lon="-2.326726">
<ele>1863</ele>
<time>2013-05-04T13:09:52.000Z</time>
</trkpt>
<trkpt lat="42.644814" lon="-2.326792">
<ele>1864</ele>
<time>2013-05-04T13:09:53.000Z</time>
</trkpt>
<trkpt lat="42.644833" lon="-2.326873">
<ele>1866</ele>
<time>2013-05-04T13:09:54.000Z</time>
</trkpt>
<trkpt lat="42.644835" lon="-2.326953">
<ele>1867</ele>
<time>2013-05-04T13:09:55.000Z</time>
</trkpt>
<trkpt lat="42.644821" lon="-2.32703">
<ele>1869</ele>
<time>2013-05-04T13:09:56.000Z</time>
</trkpt>
<trkpt lat="42.644791" lon="-2.327103">
<ele>1871</ele>
<time>2013-05-04T13:09:57.000Z</time>
</trkpt>
<trkpt lat="42.644754" lon="-2.327176">
<ele>1873</ele>
<time>2013-05-04T13:09:58.000Z</time>
</trkpt>
<trkpt lat="42.644708" lon="-2.327244">
<ele>1876</ele>
<time>2013-05-04T13:09:59.000Z</time>
</trkpt>
<trkpt lat="42.644647" lon="-2.327296">
<ele>1878</ele>
<time>2013-05-04T13:10:00.000Z</time>
</trkpt>
<trkpt lat="42.644582" lon="-2.327343">
<ele>1881</ele>
<time>2013-05-04T13:10:01.000Z</time>
</trkpt>
<trkpt lat="42.644511" lon="-2.327364">
<ele>1882</ele>
<time>2013-05-04T13:10:02.000Z</time>
</trkpt>
<trkpt lat="42.644441" lon="-2.327365">
<ele>1883</ele>
<time>2013-05-04T13:10:03.000Z</time>
</trkpt>
<trkpt lat="42.644378" lon="-2.327361">
<ele>1888</ele>
<time>2013-05-04T13:10:04.000Z</time>
</trkpt>
<trkpt lat="42.644317" lon="-2.327329">
<ele>1890</ele>
<time>2013-05-04T13:10:05.000Z</time>
</trkpt>
<trkpt lat="42.644259" lon="-2.327295">
<ele>1892</ele>
<time>2013-05-04T13:10:06.000Z</time>
</trkpt>
<trkpt lat="42.644192" lon="-2.327252">
<ele>1891</ele>
<time>2013-05-04T13:10:07.000Z</time>
</trkpt>
<trkpt lat="42.644119" lon="-2.327173">
<ele>1893</ele>
<time>2013-05-04T13:10:08.000Z</time>
</trkpt>
<trkpt lat="42.644049" lon="-2.327063">
<ele>1896</ele>
<time>2013-05-04T13:10:09.000Z</time>
</trkpt>
<trkpt lat="42.643989" lon="-2.326942">
<ele>1898</ele>
<time>2013-05-04T13:10:10.000Z</time>
</trkpt>
<trkpt lat="42.643955" lon="-2.326807">
<ele>1900</ele>
<time>2013-05-04T13:10:11.000Z</time>
</trkpt>
<trkpt lat="42.643928" lon="-2.326679">
<ele>1902</ele>
<time>2013-05-04T13:10:12.000Z</time>
</trkpt>
<trkpt lat="42.64391" lon="-2.32657">
<ele>1905</ele>
<time>2013-05-04T13:10:13.000Z</time>
</trkpt>
<trkpt lat="42.64391" lon="-2.326452">
<ele>1907</ele>
<time>2013-05-04T13:10:14.000Z</time>
</trkpt>
<trkpt lat="42.643914" lon="-2.326334">
<ele>1906</ele>
<time>2013-05-04T13:10:15.000Z</time>
</trkpt>
<trkpt lat="42.643925" lon="-2.326216">
<ele>1907</ele>
<time>2013-05-04T13:10:16.000Z</time>
</trkpt>
<trkpt lat="42.643964" lon="-2.326106">
<ele>1906</ele>
<time>2013-05-04T13:10:17.000Z</time>
</trkpt>
<trkpt lat="42.644012" lon="-2.325996">
<ele>1907</ele>
<time>2013-05-04T13:10:18.000Z</time>
</trkpt>
<trkpt lat="42.644062" lon="-2.325899">
<ele>1907</ele>
<time>2013-05-04T13:10:19.000Z</time>
</trkpt>
<trkpt lat="42.644125" lon="-2.325822">
<ele>1909</ele>
<time>2013-05-04T13:10:20.000Z</time>
</trkpt>
<trkpt lat="42.644177" lon="-2.325767">
<ele>1911</ele>
<time>2013-05-04T13:10:21.000Z</time>
</trkpt>
<trkpt lat="42.644228" lon="-2.325724">
<ele>1913</ele>
<time>2013-05-04T13:10:22.000Z</time>
</trkpt>
<trkpt lat="42.644295" lon="-2.325688">
<ele>1915</ele>
<time>2013-05-04T13:10:23.000Z</time>
</trkpt>
<trkpt lat="42.644366" lon="-2.325656">
<ele>1916</ele>
<time>2013-05-04T13:10:24.000Z</time>
</trkpt>
<trkpt lat="42.644442" lon="-2.325643">
<ele>1917</ele>
<time>2013-05-04T13:10:25.000Z</time>
</trkpt>
<trkpt lat="42.644511" lon="-2.325658">
<ele>1918</ele>
<time>2013-05-04T13:10:26.000Z</time>
</trkpt>
<trkpt lat="42.64457" lon="-2.325693">
<ele>1919</ele>
<time>2013-05-04T13:10:27.000Z</time>
</trkpt>
<trkpt lat="42.644628" lon="-2.325735">
<ele>1920</ele>
<time>2013-05-04T13:10:28.000Z</time>
</trkpt>
<trkpt lat="42.644677" lon="-2.325794">
<ele>1923</ele>
<time>2013-05-04T13:10:29.000Z</time>
</trkpt>
<trkpt lat="42.644712" lon="-2.325865">
<ele>1923</ele>
<time>2013-05-04T13:10:30.000Z</time>
</trkpt>
<trkpt lat="42.644729" lon="-2.325938">
<ele>1924</ele>
<time>2013-05-04T13:10:31.000Z</time>
</trkpt>
<trkpt lat="42.644731" lon="-2.326018">
<ele>1923</ele>
<time>2013-05-04T13:10:32.000Z</time>
</trkpt>
<trkpt lat="42.644728" lon="-2.326095">
<ele>1923</ele>
<time>2013-05-04T13:10:33.000Z</time>
</trkpt>
<trkpt lat="42.64471" lon="-2.326169">
<ele>1923</ele>
<time>2013-05-04T13:10:34.000Z</time>
</trkpt>
<trkpt lat="42.644679" lon="-2.326231">
<ele>1924</ele>
<time>2013-05-04T13:10:35.000Z</time>
</trkpt>
<trkpt lat="42.644644" lon="-2.326292">
<ele>1925</ele>
<time>2013-05-04T13:10:36.000Z</time>
</trkpt>
<trkpt lat="42.644596" lon="-2.326356">
<ele>1927</ele>
<time>2013-05-04T13:10:37.000Z</time>
</trkpt>
<trkpt lat="42.644533" lon="-2.326403">
<ele>1928</ele>
<time>2013-05-04T13:10:38.000Z</time>
</trkpt>
<trkpt lat="42.644472" lon="-2.326439">
<ele>1929</ele>
<time>2013-05-04T13:10:39.000Z</time>
</trkpt>
<trkpt lat="42.644401" lon="-2.32645">
<ele>1930</ele>
<time>2013-05-04T13:10:40.000Z</time>
</trkpt>
<trkpt lat="42.644336" lon="-2.326453">
<ele>1931</ele>
<time>2013-05-04T13:10:41.000Z</time>
</trkpt>
<trkpt lat="42.644269" lon="-2.326451">
<ele>1933</ele>
<time>2013-05-04T13:10:42.000Z</time>
</trkpt>
<trkpt lat="42.644197" lon="-2.326442">
<ele>1934</ele>
<time>2013-05-04T13:10:43.000Z</time>
</trkpt>
<trkpt lat="42.644123" lon="-2.326404">
<ele>1936</ele>
<time>2013-05-04T13:10:44.000Z</time>
</trkpt>
<trkpt lat="42.64405" lon="-2.32636">
<ele>1936</ele>
<time>2013-05-04T13:10:45.000Z</time>
</trkpt>
<trkpt lat="42.643977" lon="-2.326288">
<ele>1938</ele>
<time>2013-05-04T13:10:46.000Z</time>
</trkpt>
<trkpt lat="42.643889" lon="-2.3262">
<ele>1941</ele>
<time>2013-05-04T13:10:47.000Z</time>
</trkpt>
<trkpt lat="42.643813" lon="-2.326086">
<ele>1944</ele>
<time>2013-05-04T13:10:48.000Z</time>
</trkpt>
<trkpt lat="42.643754" lon="-2.325982">
<ele>1946</ele>
<time>2013-05-04T13:10:49.000Z</time>
</trkpt>
<trkpt lat="42.643708" lon="-2.325885">
<ele>1948</ele>
<time>2013-05-04T13:10:50.000Z</time>
</trkpt>
<trkpt lat="42.643687" lon="-2.325781">
<ele>1948</ele>
<time>2013-05-04T13:10:51.000Z</time>
</trkpt>
<trkpt lat="42.64367" lon="-2.325675">
<ele>1948</ele>
<time>2013-05-04T13:10:52.000Z</time>
</trkpt>
<trkpt lat="42.643676" lon="-2.325555">
<ele>1947</ele>
<time>2013-05-04T13:10:53.000Z</time>
</trkpt>
<trkpt lat="42.643701" lon="-2.325434">
<ele>1947</ele>
<time>2013-05-04T13:10:54.000Z</time>
</trkpt>
<trkpt lat="42.643733" lon="-2.325322">
<ele>1948</ele>
<time>2013-05-04T13:10:55.000Z</time>
</trkpt>
<trkpt lat="42.643769" lon="-2.325223">
<ele>1949</ele>
<time>2013-05-04T13:10:56.000Z</time>
</trkpt>
<trkpt lat="42.643812" lon="-2.32513">
<ele>1950</ele>
<time>2013-05-04T13:10:57.000Z</time>
</trkpt>
<trkpt lat="42.643858" lon="-2.325035">
<ele>1952</ele>
<time>2013-05-04T13:10:58.000Z</time>
</trkpt>
<trkpt lat="42.643909" lon="-2.324938">
<ele>1954</ele>
<time>2013-05-04T13:10:59.000Z</time>
</trkpt>
<trkpt lat="42.643959" lon="-2.32485">
<ele>1954</ele>
<time>2013-05-04T13:11:00.000Z</time>
</trkpt>
<trkpt lat="42.644012" lon="-2.324776">
<ele>1955</ele>
<time>2013-05-04T13:11:01.000Z</time>
</trkpt>
<trkpt lat="42.644065" lon="-2.324709">
<ele>1955</ele>
<time>2013-05-04T13:11:02.000Z</time>
</trkpt>
<trkpt lat="42.644123" lon="-2.324639">
<ele>1957</ele>
<time>2013-05-04T13:11:03.000Z</time>
</trkpt>
<trkpt lat="42.644188" lon="-2.32456">
<ele>1957</ele>
<time>2013-05-04T13:11:04.000Z</time>
</trkpt>
<trkpt lat="42.644254" lon="-2.324473">
<ele>1957</ele>
<time>2013-05-04T13:11:05.000Z</time>
</trkpt>
<trkpt lat="42.644316" lon="-2.32439">
<ele>1958</ele>
<time>2013-05-04T13:11:06.000Z</time>
</trkpt>
<trkpt lat="42.644374" lon="-2.324316">
<ele>1958</ele>
<time>2013-05-04T13:11:07.000Z</time>
</trkpt>
<trkpt lat="42.644428" lon="-2.324253">
<ele>1959</ele>
<time>2013-05-04T13:11:08.000Z</time>
</trkpt>
<trkpt lat="42.644482" lon="-2.324185">
<ele>1959</ele>
<time>2013-05-04T13:11:09.000Z</time>
</trkpt>
<trkpt lat="42.644541" lon="-2.324112">
<ele>1960</ele>
<time>2013-05-04T13:11:10.000Z</time>
</trkpt>
<trkpt lat="42.644603" lon="-2.324039">
<ele>1959</ele>
<time>2013-05-04T13:11:11.000Z</time>
</trkpt>
<trkpt lat="42.644661" lon="-2.323978">
<ele>1958</ele>
<time>2013-05-04T13:11:12.000Z</time>
</trkpt>
<trkpt lat="42.644714" lon="-2.323923">
<ele>1959</ele>
<time>2013-05-04T13:11:13.000Z</time>
</trkpt>
<trkpt lat="42.644762" lon="-2.323866">
<ele>1960</ele>
<time>2013-05-04T13:11:14.000Z</time>
</trkpt>
<trkpt lat="42.644871" lon="-2.323718">
<ele>1959</ele>
<time>2013-05-04T13:11:16.000Z</time>
</trkpt>
<trkpt lat="42.644952" lon="-2.32365">
<ele>1959</ele>
<time>2013-05-04T13:11:17.000Z</time>
</trkpt>
<trkpt lat="42.645012" lon="-2.323604">
<ele>1958</ele>
<time>2013-05-04T13:11:18.000Z</time>
</trkpt>
<trkpt lat="42.645062" lon="-2.323593">
<ele>1956</ele>
<time>2013-05-04T13:11:19.000Z</time>
</trkpt>
<trkpt lat="42.645111" lon="-2.323608">
<ele>1954</ele>
<time>2013-05-04T13:11:20.000Z</time>
</trkpt>
<trkpt lat="42.645156" lon="-2.323626">
<ele>1952</ele>
<time>2013-05-04T13:11:21.000Z</time>
</trkpt>
<trkpt lat="42.645204" lon="-2.323646">
<ele>1949</ele>
<time>2013-05-04T13:11:22.000Z</time>
</trkpt>
<trkpt lat="42.645253" lon="-2.323669">
<ele>1947</ele>
<time>2013-05-04T13:11:23.000Z</time>
</trkpt>
<trkpt lat="42.645288" lon="-2.323716">
<ele>1945</ele>
<time>2013-05-04T13:11:24.000Z</time>
</trkpt>
<trkpt lat="42.645305" lon="-2.323792">
<ele>1943</ele>
<time>2013-05-04T13:11:25.000Z</time>
</trkpt>
<trkpt lat="42.645309" lon="-2.323899">
<ele>1942</ele>
<time>2013-05-04T13:11:26.000Z</time>
</trkpt>
<trkpt lat="42.645312" lon="-2.324015">
<ele>1941</ele>
<time>2013-05-04T13:11:27.000Z</time>
</trkpt>
<trkpt lat="42.645314" lon="-2.324114">
<ele>1942</ele>
<time>2013-05-04T13:11:28.000Z</time>
</trkpt>
<trkpt lat="42.645312" lon="-2.32421">
<ele>1942</ele>
<time>2013-05-04T13:11:29.000Z</time>
</trkpt>
<trkpt lat="42.645293" lon="-2.324317">
<ele>1941</ele>
<time>2013-05-04T13:11:30.000Z</time>
</trkpt>
<trkpt lat="42.645271" lon="-2.324422">
<ele>1940</ele>
<time>2013-05-04T13:11:31.000Z</time>
</trkpt>
<trkpt lat="42.645249" lon="-2.324521">
<ele>1941</ele>
<time>2013-05-04T13:11:32.000Z</time>
</trkpt>
<trkpt lat="42.645253" lon="-2.324595">
<ele>1945</ele>
<time>2013-05-04T13:11:33.000Z</time>
</trkpt>
<trkpt lat="42.645261" lon="-2.324661">
<ele>1947</ele>
<time>2013-05-04T13:11:34.000Z</time>
</trkpt>
<trkpt lat="42.645272" lon="-2.324722">
<ele>1948</ele>
<time>2013-05-04T13:11:35.000Z</time>
</trkpt>
<trkpt lat="42.645283" lon="-2.324798">
<ele>1948</ele>
<time>2013-05-04T13:11:36.000Z</time>
</trkpt>
<trkpt lat="42.645305" lon="-2.324864">
<ele>1950</ele>
<time>2013-05-04T13:11:37.000Z</time>
</trkpt>
<trkpt lat="42.645348" lon="-2.324917">
<ele>1951</ele>
<time>2013-05-04T13:11:38.000Z</time>
</trkpt>
<trkpt lat="42.645408" lon="-2.324953">
<ele>1952</ele>
<time>2013-05-04T13:11:39.000Z</time>
</trkpt>
<trkpt lat="42.645467" lon="-2.324987">
<ele>1953</ele>
<time>2013-05-04T13:11:40.000Z</time>
</trkpt>
<trkpt lat="42.645518" lon="-2.325015">
<ele>1955</ele>
<time>2013-05-04T13:11:41.000Z</time>
</trkpt>
<trkpt lat="42.645568" lon="-2.325041">
<ele>1957</ele>
<time>2013-05-04T13:11:42.000Z</time>
</trkpt>
<trkpt lat="42.645628" lon="-2.325052">
<ele>1958</ele>
<time>2013-05-04T13:11:43.000Z</time>
</trkpt>
<trkpt lat="42.645707" lon="-2.325041">
<ele>1959</ele>
<time>2013-05-04T13:11:44.000Z</time>
</trkpt>
<trkpt lat="42.64579" lon="-2.32502">
<ele>1961</ele>
<time>2013-05-04T13:11:45.000Z</time>
</trkpt>
<trkpt lat="42.645861" lon="-2.324996">
<ele>1963</ele>
<time>2013-05-04T13:11:46.000Z</time>
</trkpt>
<trkpt lat="42.64591" lon="-2.324984">
<ele>1964</ele>
<time>2013-05-04T13:11:47.000Z</time>
</trkpt>
<trkpt lat="42.64595" lon="-2.325003">
<ele>1965</ele>
<time>2013-05-04T13:11:48.000Z</time>
</trkpt>
<trkpt lat="42.645991" lon="-2.325037">
<ele>1966</ele>
<time>2013-05-04T13:11:49.000Z</time>
</trkpt>
<trkpt lat="42.646047" lon="-2.325079">
<ele>1967</ele>
<time>2013-05-04T13:11:50.000Z</time>
</trkpt>
<trkpt lat="42.64612" lon="-2.325113">
<ele>1968</ele>
<time>2013-05-04T13:11:51.000Z</time>
</trkpt>
<trkpt lat="42.646187" lon="-2.325146">
<ele>1968</ele>
<time>2013-05-04T13:11:52.000Z</time>
</trkpt>
<trkpt lat="42.646248" lon="-2.325182">
<ele>1969</ele>
<time>2013-05-04T13:11:53.000Z</time>
</trkpt>
<trkpt lat="42.6463" lon="-2.32524">
<ele>1970</ele>
<time>2013-05-04T13:11:54.000Z</time>
</trkpt>
<trkpt lat="42.646332" lon="-2.325308">
<ele>1969</ele>
<time>2013-05-04T13:11:55.000Z</time>
</trkpt>
<trkpt lat="42.646353" lon="-2.325392">
<ele>1969</ele>
<time>2013-05-04T13:11:56.000Z</time>
</trkpt>
<trkpt lat="42.646368" lon="-2.325476">
<ele>1969</ele>
<time>2013-05-04T13:11:57.000Z</time>
</trkpt>
<trkpt lat="42.646358" lon="-2.325566">
<ele>1970</ele>
<time>2013-05-04T13:11:58.000Z</time>
</trkpt>
<trkpt lat="42.646321" lon="-2.325656">
<ele>1970</ele>
<time>2013-05-04T13:11:59.000Z</time>
</trkpt>
<trkpt lat="42.646261" lon="-2.32574">
<ele>1969</ele>
<time>2013-05-04T13:12:00.000Z</time>
</trkpt>
<trkpt lat="42.646179" lon="-2.325806">
<ele>1968</ele>
<time>2013-05-04T13:12:01.000Z</time>
</trkpt>
<trkpt lat="42.646094" lon="-2.325861">
<ele>1968</ele>
<time>2013-05-04T13:12:02.000Z</time>
</trkpt>
<trkpt lat="42.646002" lon="-2.325877">
<ele>1968</ele>
<time>2013-05-04T13:12:03.000Z</time>
</trkpt>
<trkpt lat="42.645914" lon="-2.325863">
<ele>1969</ele>
<time>2013-05-04T13:12:04.000Z</time>
</trkpt>
<trkpt lat="42.645831" lon="-2.325838">
<ele>1971</ele>
<time>2013-05-04T13:12:05.000Z</time>
</trkpt>
<trkpt lat="42.645742" lon="-2.325781">
<ele>1973</ele>
<time>2013-05-04T13:12:06.000Z</time>
</trkpt>
<trkpt lat="42.645656" lon="-2.325716">
<ele>1975</ele>
<time>2013-05-04T13:12:07.000Z</time>
</trkpt>
<trkpt lat="42.645574" lon="-2.32564">
<ele>1976</ele>
<time>2013-05-04T13:12:08.000Z</time>
</trkpt>
<trkpt lat="42.645506" lon="-2.325528">
<ele>1978</ele>
<time>2013-05-04T13:12:09.000Z</time>
</trkpt>
<trkpt lat="42.64544" lon="-2.325409">
<ele>1979</ele>
<time>2013-05-04T13:12:10.000Z</time>
</trkpt>
<trkpt lat="42.645407" lon="-2.325279">
<ele>1980</ele>
<time>2013-05-04T13:12:11.000Z</time>
</trkpt>
<trkpt lat="42.645385" lon="-2.325159">
<ele>1982</ele>
<time>2013-05-04T13:12:12.000Z</time>
</trkpt>
<trkpt lat="42.645368" lon="-2.325037">
<ele>1984</ele>
<time>2013-05-04T13:12:13.000Z</time>
</trkpt>
<trkpt lat="42.645358" lon="-2.324925">
<ele>1986</ele>
<time>2013-05-04T13:12:14.000Z</time>
</trkpt>
<trkpt lat="42.645354" lon="-2.324817">
<ele>1987</ele>
<time>2013-05-04T13:12:15.000Z</time>
</trkpt>
<trkpt lat="42.645377" lon="-2.324708">
<ele>1988</ele>
<time>2013-05-04T13:12:16.000Z</time>
</trkpt>
<trkpt lat="42.645429" lon="-2.324609">
<ele>1987</ele>
<time>2013-05-04T13:12:17.000Z</time>
</trkpt>
<trkpt lat="42.645506" lon="-2.324529">
<ele>1987</ele>
<time>2013-05-04T13:12:18.000Z</time>
</trkpt>
<trkpt lat="42.645589" lon="-2.324479">
<ele>1988</ele>
<time>2013-05-04T13:12:19.000Z</time>
</trkpt>
<trkpt lat="42.645664" lon="-2.324447">
<ele>1989</ele>
<time>2013-05-04T13:12:20.000Z</time>
</trkpt>
<trkpt lat="42.645729" lon="-2.324428">
<ele>1991</ele>
<time>2013-05-04T13:12:21.000Z</time>
</trkpt>
<trkpt lat="42.645765" lon="-2.324403">
<ele>1993</ele>
<time>2013-05-04T13:12:22.000Z</time>
</trkpt>
<trkpt lat="42.645791" lon="-2.324355">
<ele>1994</ele>
<time>2013-05-04T13:12:23.000Z</time>
</trkpt>
<trkpt lat="42.645821" lon="-2.324305">
<ele>1996</ele>
<time>2013-05-04T13:12:24.000Z</time>
</trkpt>
<trkpt lat="42.645874" lon="-2.324259">
<ele>1995</ele>
<time>2013-05-04T13:12:25.000Z</time>
</trkpt>
<trkpt lat="42.645935" lon="-2.324207">
<ele>1993</ele>
<time>2013-05-04T13:12:26.000Z</time>
</trkpt>
<trkpt lat="42.645989" lon="-2.324128">
<ele>1991</ele>
<time>2013-05-04T13:12:27.000Z</time>
</trkpt>
<trkpt lat="42.64602" lon="-2.32403">
<ele>1992</ele>
<time>2013-05-04T13:12:28.000Z</time>
</trkpt>
<trkpt lat="42.646031" lon="-2.323932">
<ele>1993</ele>
<time>2013-05-04T13:12:29.000Z</time>
</trkpt>
<trkpt lat="42.646038" lon="-2.323841">
<ele>1994</ele>
<time>2013-05-04T13:12:30.000Z</time>
</trkpt>
<trkpt lat="42.646038" lon="-2.32376">
<ele>1993</ele>
<time>2013-05-04T13:12:31.000Z</time>
</trkpt>
<trkpt lat="42.646037" lon="-2.323667">
<ele>1991</ele>
<time>2013-05-04T13:12:32.000Z</time>
</trkpt>
<trkpt lat="42.646027" lon="-2.323547">
<ele>1989</ele>
<time>2013-05-04T13:12:33.000Z</time>
</trkpt>
<trkpt lat="42.646007" lon="-2.32339">
<ele>1984</ele>
<time>2013-05-04T13:12:34.000Z</time>
</trkpt>
<trkpt lat="42.645985" lon="-2.323245">
<ele>1982</ele>
<time>2013-05-04T13:12:35.000Z</time>
</trkpt>
<trkpt lat="42.645967" lon="-2.323126">
<ele>1981</ele>
<time>2013-05-04T13:12:36.000Z</time>
</trkpt>
<trkpt lat="42.645952" lon="-2.323034">
<ele>1979</ele>
<time>2013-05-04T13:12:37.000Z</time>
</trkpt>
<trkpt lat="42.645937" lon="-2.322938">
<ele>1978</ele>
<time>2013-05-04T13:12:38.000Z</time>
</trkpt>
<trkpt lat="42.645917" lon="-2.32283">
<ele>1975</ele>
<time>2013-05-04T13:12:39.000Z</time>
</trkpt>
<trkpt lat="42.645896" lon="-2.322716">
<ele>1972</ele>
<time>2013-05-04T13:12:40.000Z</time>
</trkpt>
<trkpt lat="42.645883" lon="-2.322595">
<ele>1971</ele>
<time>2013-05-04T13:12:41.000Z</time>
</trkpt>
<trkpt lat="42.645877" lon="-2.322487">
<ele>1970</ele>
<time>2013-05-04T13:12:42.000Z</time>
</trkpt>
<trkpt lat="42.645877" lon="-2.322394">
<ele>1968</ele>
<time>2013-05-04T13:12:43.000Z</time>
</trkpt>
<trkpt lat="42.645878" lon="-2.322306">
<ele>1966</ele>
<time>2013-05-04T13:12:44.000Z</time>
</trkpt>
<trkpt lat="42.645883" lon="-2.322216">
<ele>1963</ele>
<time>2013-05-04T13:12:45.000Z</time>
</trkpt>
<trkpt lat="42.645906" lon="-2.322119">
<ele>1960</ele>
<time>2013-05-04T13:12:46.000Z</time>
</trkpt>
<trkpt lat="42.645934" lon="-2.322017">
<ele>1957</ele>
<time>2013-05-04T13:12:47.000Z</time>
</trkpt>
<trkpt lat="42.645964" lon="-2.321915">
<ele>1954</ele>
<time>2013-05-04T13:12:48.000Z</time>
</trkpt>
<trkpt lat="42.646" lon="-2.321807">
<ele>1950</ele>
<time>2013-05-04T13:12:49.000Z</time>
</trkpt>
<trkpt lat="42.646034" lon="-2.3217">
<ele>1947</ele>
<time>2013-05-04T13:12:50.000Z</time>
</trkpt>
<trkpt lat="42.64607" lon="-2.321589">
<ele>1947</ele>
<time>2013-05-04T13:12:51.000Z</time>
</trkpt>
<trkpt lat="42.646101" lon="-2.321489">
<ele>1946</ele>
<time>2013-05-04T13:12:52.000Z</time>
</trkpt>
<trkpt lat="42.646127" lon="-2.321408">
<ele>1945</ele>
<time>2013-05-04T13:12:53.000Z</time>
</trkpt>
<trkpt lat="42.646167" lon="-2.321369">
<ele>1944</ele>
<time>2013-05-04T13:12:54.000Z</time>
</trkpt>
<trkpt lat="42.646219" lon="-2.321359">
<ele>1943</ele>
<time>2013-05-04T13:12:55.000Z</time>
</trkpt>
<trkpt lat="42.646274" lon="-2.321382">
<ele>1940</ele>
<time>2013-05-04T13:12:56.000Z</time>
</trkpt>
<trkpt lat="42.646326" lon="-2.321436">
<ele>1936</ele>
<time>2013-05-04T13:12:57.000Z</time>
</trkpt>
<trkpt lat="42.646367" lon="-2.32151">
<ele>1933</ele>
<time>2013-05-04T13:12:58.000Z</time>
</trkpt>
<trkpt lat="42.646401" lon="-2.321581">
<ele>1930</ele>
<time>2013-05-04T13:12:59.000Z</time>
</trkpt>
<trkpt lat="42.646426" lon="-2.321672">
<ele>1927</ele>
<time>2013-05-04T13:13:00.000Z</time>
</trkpt>
<trkpt lat="42.646454" lon="-2.321778">
<ele>1924</ele>
<time>2013-05-04T13:13:01.000Z</time>
</trkpt>
<trkpt lat="42.646475" lon="-2.321884">
<ele>1921</ele>
<time>2013-05-04T13:13:02.000Z</time>
</trkpt>
<trkpt lat="42.646473" lon="-2.322008">
<ele>1919</ele>
<time>2013-05-04T13:13:03.000Z</time>
</trkpt>
<trkpt lat="42.646468" lon="-2.322143">
<ele>1916</ele>
<time>2013-05-04T13:13:04.000Z</time>
</trkpt>
<trkpt lat="42.646461" lon="-2.322276">
<ele>1915</ele>
<time>2013-05-04T13:13:05.000Z</time>
</trkpt>
<trkpt lat="42.646458" lon="-2.322394">
<ele>1914</ele>
<time>2013-05-04T13:13:06.000Z</time>
</trkpt>
<trkpt lat="42.646455" lon="-2.322495">
<ele>1913</ele>
<time>2013-05-04T13:13:07.000Z</time>
</trkpt>
<trkpt lat="42.646447" lon="-2.322583">
<ele>1911</ele>
<time>2013-05-04T13:13:08.000Z</time>
</trkpt>
<trkpt lat="42.646422" lon="-2.322676">
<ele>1908</ele>
<time>2013-05-04T13:13:09.000Z</time>
</trkpt>
<trkpt lat="42.646397" lon="-2.322774">
<ele>1905</ele>
<time>2013-05-04T13:13:10.000Z</time>
</trkpt>
<trkpt lat="42.64637" lon="-2.322886">
<ele>1902</ele>
<time>2013-05-04T13:13:11.000Z</time>
</trkpt>
<trkpt lat="42.646347" lon="-2.323006">
<ele>1900</ele>
<time>2013-05-04T13:13:12.000Z</time>
</trkpt>
<trkpt lat="42.646324" lon="-2.323123">
<ele>1898</ele>
<time>2013-05-04T13:13:13.000Z</time>
</trkpt>
<trkpt lat="42.6463" lon="-2.323226">
<ele>1898</ele>
<time>2013-05-04T13:13:14.000Z</time>
</trkpt>
<trkpt lat="42.646273" lon="-2.323325">
<ele>1897</ele>
<time>2013-05-04T13:13:15.000Z</time>
</trkpt>
<trkpt lat="42.646243" lon="-2.323434">
<ele>1897</ele>
<time>2013-05-04T13:13:16.000Z</time>
</trkpt>
<trkpt lat="42.646211" lon="-2.323553">
<ele>1896</ele>
<time>2013-05-04T13:13:17.000Z</time>
</trkpt>
<trkpt lat="42.646179" lon="-2.323671">
<ele>1895</ele>
<time>2013-05-04T13:13:18.000Z</time>
</trkpt>
<trkpt lat="42.646145" lon="-2.323778">
<ele>1896</ele>
<time>2013-05-04T13:13:19.000Z</time>
</trkpt>
<trkpt lat="42.646111" lon="-2.323866">
<ele>1897</ele>
<time>2013-05-04T13:13:20.000Z</time>
</trkpt>
<trkpt lat="42.64608" lon="-2.323941">
<ele>1897</ele>
<time>2013-05-04T13:13:21.000Z</time>
</trkpt>
<trkpt lat="42.646048" lon="-2.324017">
<ele>1897</ele>
<time>2013-05-04T13:13:22.000Z</time>
</trkpt>
<trkpt lat="42.646013" lon="-2.324102">
<ele>1895</ele>
<time>2013-05-04T13:13:23.000Z</time>
</trkpt>
<trkpt lat="42.645975" lon="-2.324196">
<ele>1894</ele>
<time>2013-05-04T13:13:24.000Z</time>
</trkpt>
<trkpt lat="42.645937" lon="-2.3243">
<ele>1893</ele>
<time>2013-05-04T13:13:25.000Z</time>
</trkpt>
<trkpt lat="42.645899" lon="-2.324396">
<ele>1894</ele>
<time>2013-05-04T13:13:26.000Z</time>
</trkpt>
<trkpt lat="42.645861" lon="-2.324482">
<ele>1894</ele>
<time>2013-05-04T13:13:27.000Z</time>
</trkpt>
<trkpt lat="42.645824" lon="-2.324558">
<ele>1893</ele>
<time>2013-05-04T13:13:28.000Z</time>
</trkpt>
<trkpt lat="42.645783" lon="-2.324634">
<ele>1892</ele>
<time>2013-05-04T13:13:29.000Z</time>
</trkpt>
<trkpt lat="42.645736" lon="-2.324723">
<ele>1889</ele>
<time>2013-05-04T13:13:30.000Z</time>
</trkpt>
<trkpt lat="42.645679" lon="-2.324827">
<ele>1887</ele>
<time>2013-05-04T13:13:31.000Z</time>
</trkpt>
<trkpt lat="42.645613" lon="-2.324936">
<ele>1885</ele>
<time>2013-05-04T13:13:32.000Z</time>
</trkpt>
<trkpt lat="42.645539" lon="-2.325047">
<ele>1885</ele>
<time>2013-05-04T13:13:33.000Z</time>
</trkpt>
<trkpt lat="42.645466" lon="-2.325152">
<ele>1885</ele>
<time>2013-05-04T13:13:34.000Z</time>
</trkpt>
<trkpt lat="42.645403" lon="-2.325242">
<ele>1886</ele>
<time>2013-05-04T13:13:35.000Z</time>
</trkpt>
<trkpt lat="42.645348" lon="-2.325317">
<ele>1887</ele>
<time>2013-05-04T13:13:36.000Z</time>
</trkpt>
<trkpt lat="42.645299" lon="-2.325382">
<ele>1888</ele>
<time>2013-05-04T13:13:37.000Z</time>
</trkpt>
<trkpt lat="42.645247" lon="-2.325447">
<ele>1889</ele>
<time>2013-05-04T13:13:38.000Z</time>
</trkpt>
<trkpt lat="42.645198" lon="-2.325512">
<ele>1889</ele>
<time>2013-05-04T13:13:39.000Z</time>
</trkpt>
<trkpt lat="42.645139" lon="-2.325582">
<ele>1889</ele>
<time>2013-05-04T13:13:40.000Z</time>
</trkpt>
<trkpt lat="42.645072" lon="-2.325657">
<ele>1889</ele>
<time>2013-05-04T13:13:41.000Z</time>
</trkpt>
<trkpt lat="42.645004" lon="-2.325724">
<ele>1889</ele>
<time>2013-05-04T13:13:42.000Z</time>
</trkpt>
<trkpt lat="42.644935" lon="-2.325788">
<ele>1890</ele>
<time>2013-05-04T13:13:43.000Z</time>
</trkpt>
<trkpt lat="42.644868" lon="-2.32585">
<ele>1890</ele>
<time>2013-05-04T13:13:44.000Z</time>
</trkpt>
<trkpt lat="42.644804" lon="-2.325908">
<ele>1890</ele>
<time>2013-05-04T13:13:45.000Z</time>
</trkpt>
<trkpt lat="42.644736" lon="-2.325965">
<ele>1890</ele>
<time>2013-05-04T13:13:46.000Z</time>
</trkpt>
<trkpt lat="42.644661" lon="-2.326024">
<ele>1889</ele>
<time>2013-05-04T13:13:47.000Z</time>
</trkpt>
<trkpt lat="42.644586" lon="-2.326086">
<ele>1888</ele>
<time>2013-05-04T13:13:48.000Z</time>
</trkpt>
<trkpt lat="42.644517" lon="-2.326146">
<ele>1888</ele>
<time>2013-05-04T13:13:49.000Z</time>
</trkpt>
<trkpt lat="42.644455" lon="-2.326205">
<ele>1888</ele>
<time>2013-05-04T13:13:50.000Z</time>
</trkpt>
<trkpt lat="42.644397" lon="-2.326258">
<ele>1888</ele>
<time>2013-05-04T13:13:51.000Z</time>
</trkpt>
<trkpt lat="42.644335" lon="-2.326323">
<ele>1888</ele>
<time>2013-05-04T13:13:52.000Z</time>
</trkpt>
<trkpt lat="42.644282" lon="-2.326414">
<ele>1888</ele>
<time>2013-05-04T13:13:53.000Z</time>
</trkpt>
<trkpt lat="42.644231" lon="-2.326506">
<ele>1887</ele>
<time>2013-05-04T13:13:54.000Z</time>
</trkpt>
<trkpt lat="42.644185" lon="-2.326594">
<ele>1887</ele>
<time>2013-05-04T13:13:55.000Z</time>
</trkpt>
<trkpt lat="42.644134" lon="-2.326655">
<ele>1887</ele>
<time>2013-05-04T13:13:56.000Z</time>
</trkpt>
<trkpt lat="42.64408" lon="-2.326707">
<ele>1887</ele>
<time>2013-05-04T13:13:57.000Z</time>
</trkpt>
<trkpt lat="42.644019" lon="-2.326757">
<ele>1888</ele>
<time>2013-05-04T13:13:58.000Z</time>
</trkpt>
<trkpt lat="42.643957" lon="-2.326808">
<ele>1889</ele>
<time>2013-05-04T13:13:59.000Z</time>
</trkpt>
<trkpt lat="42.643898" lon="-2.326857">
<ele>1890</ele>
<time>2013-05-04T13:14:00.000Z</time>
</trkpt>
<trkpt lat="42.643844" lon="-2.326903">
<ele>1891</ele>
<time>2013-05-04T13:14:01.000Z</time>
</trkpt>
<trkpt lat="42.643794" lon="-2.326944">
<ele>1891</ele>
<time>2013-05-04T13:14:02.000Z</time>
</trkpt>
<trkpt lat="42.643738" lon="-2.326984">
<ele>1891</ele>
<time>2013-05-04T13:14:03.000Z</time>
</trkpt>
<trkpt lat="42.643676" lon="-2.327027">
<ele>1891</ele>
<time>2013-05-04T13:14:04.000Z</time>
</trkpt>
<trkpt lat="42.643614" lon="-2.327076">
<ele>1891</ele>
<time>2013-05-04T13:14:05.000Z</time>
</trkpt>
<trkpt lat="42.643556" lon="-2.327129">
<ele>1890</ele>
<time>2013-05-04T13:14:06.000Z</time>
</trkpt>
<trkpt lat="42.643496" lon="-2.327188">
<ele>1889</ele>
<time>2013-05-04T13:14:07.000Z</time>
</trkpt>
<trkpt lat="42.643431" lon="-2.327249">
<ele>1889</ele>
<time>2013-05-04T13:14:08.000Z</time>
</trkpt>
<trkpt lat="42.643363" lon="-2.327307">
<ele>1889</ele>
<time>2013-05-04T13:14:09.000Z</time>
</trkpt>
<trkpt lat="42.643294" lon="-2.327364">
<ele>1890</ele>
<time>2013-05-04T13:14:10.000Z</time>
</trkpt>
<trkpt lat="42.64323" lon="-2.327417">
<ele>1891</ele>
<time>2013-05-04T13:14:11.000Z</time>
</trkpt>
<trkpt lat="42.643168" lon="-2.327465">
<ele>1892</ele>
<time>2013-05-04T13:14:12.000Z</time>
</trkpt>
<trkpt lat="42.643107" lon="-2.327509">
<ele>1892</ele>
<time>2013-05-04T13:14:13.000Z</time>
</trkpt>
<trkpt lat="42.643052" lon="-2.327548">
<ele>1893</ele>
<time>2013-05-04T13:14:14.000Z</time>
</trkpt>
<trkpt lat="42.643005" lon="-2.327586">
<ele>1894</ele>
<time>2013-05-04T13:14:15.000Z</time>
</trkpt>
<trkpt lat="42.642954" lon="-2.327632">
<ele>1894</ele>
<time>2013-05-04T13:14:16.000Z</time>
</trkpt>
<trkpt lat="42.642898" lon="-2.327686">
<ele>1895</ele>
<time>2013-05-04T13:14:17.000Z</time>
</trkpt>
<trkpt lat="42.64284" lon="-2.327745">
<ele>1896</ele>
<time>2013-05-04T13:14:18.000Z</time>
</trkpt>
<trkpt lat="42.642785" lon="-2.3278">
<ele>1898</ele>
<time>2013-05-04T13:14:19.000Z</time>
</trkpt>
<trkpt lat="42.642737" lon="-2.327853">
<ele>1899</ele>
<time>2013-05-04T13:14:20.000Z</time>
</trkpt>
<trkpt lat="42.642702" lon="-2.327899">
<ele>1899</ele>
<time>2013-05-04T13:14:21.000Z</time>
</trkpt>
<trkpt lat="42.642685" lon="-2.327956">
<ele>1899</ele>
<time>2013-05-04T13:14:22.000Z</time>
</trkpt>
<trkpt lat="42.642677" lon="-2.328018">
<ele>1899</ele>
<time>2013-05-04T13:14:23.000Z</time>
</trkpt>
<trkpt lat="42.642673" lon="-2.328082">
<ele>1898</ele>
<time>2013-05-04T13:14:24.000Z</time>
</trkpt>
<trkpt lat="42.642681" lon="-2.32814">
<ele>1896</ele>
<time>2013-05-04T13:14:25.000Z</time>
</trkpt>
<trkpt lat="42.642699" lon="-2.328201">
<ele>1896</ele>
<time>2013-05-04T13:14:26.000Z</time>
</trkpt>
<trkpt lat="42.642726" lon="-2.328252">
<ele>1896</ele>
<time>2013-05-04T13:14:27.000Z</time>
</trkpt>
<trkpt lat="42.642758" lon="-2.32829">
<ele>1896</ele>
<time>2013-05-04T13:14:28.000Z</time>
</trkpt>
<trkpt lat="42.642798" lon="-2.328314">
<ele>1896</ele>
<time>2013-05-04T13:14:29.000Z</time>
</trkpt>
<trkpt lat="42.642842" lon="-2.328321">
<ele>1896</ele>
<time>2013-05-04T13:14:30.000Z</time>
</trkpt>
<trkpt lat="42.642888" lon="-2.32832">
<ele>1896</ele>
<time>2013-05-04T13:14:31.000Z</time>
</trkpt>
<trkpt lat="42.642939" lon="-2.328316">
<ele>1895</ele>
<time>2013-05-04T13:14:32.000Z</time>
</trkpt>
<trkpt lat="42.642994" lon="-2.328304">
<ele>1895</ele>
<time>2013-05-04T13:14:33.000Z</time>
</trkpt>
<trkpt lat="42.643048" lon="-2.328271">
<ele>1893</ele>
<time>2013-05-04T13:14:34.000Z</time>
</trkpt>
<trkpt lat="42.643105" lon="-2.328206">
<ele>1892</ele>
<time>2013-05-04T13:14:35.000Z</time>
</trkpt>
<trkpt lat="42.643175" lon="-2.328127">
<ele>1892</ele>
<time>2013-05-04T13:14:36.000Z</time>
</trkpt>
<trkpt lat="42.643245" lon="-2.328056">
<ele>1891</ele>
<time>2013-05-04T13:14:37.000Z</time>
</trkpt>
<trkpt lat="42.643305" lon="-2.327999">
<ele>1889</ele>
<time>2013-05-04T13:14:38.000Z</time>
</trkpt>
<trkpt lat="42.64337" lon="-2.32794">
<ele>1889</ele>
<time>2013-05-04T13:14:39.000Z</time>
</trkpt>
<trkpt lat="42.643441" lon="-2.327874">
<ele>1888</ele>
<time>2013-05-04T13:14:40.000Z</time>
</trkpt>
<trkpt lat="42.643506" lon="-2.327806">
<ele>1888</ele>
<time>2013-05-04T13:14:41.000Z</time>
</trkpt>
<trkpt lat="42.643561" lon="-2.327747">
<ele>1888</ele>
<time>2013-05-04T13:14:42.000Z</time>
</trkpt>
<trkpt lat="42.643613" lon="-2.327692">
<ele>1888</ele>
<time>2013-05-04T13:14:43.000Z</time>
</trkpt>
<trkpt lat="42.643666" lon="-2.327637">
<ele>1888</ele>
<time>2013-05-04T13:14:44.000Z</time>
</trkpt>
<trkpt lat="42.643722" lon="-2.32758">
<ele>1889</ele>
<time>2013-05-04T13:14:45.000Z</time>
</trkpt>
<trkpt lat="42.643774" lon="-2.327518">
<ele>1891</ele>
<time>2013-05-04T13:14:46.000Z</time>
</trkpt>
<trkpt lat="42.643823" lon="-2.327454">
<ele>1893</ele>
<time>2013-05-04T13:14:47.000Z</time>
</trkpt>
<trkpt lat="42.643867" lon="-2.327388">
<ele>1895</ele>
<time>2013-05-04T13:14:48.000Z</time>
</trkpt>
<trkpt lat="42.643914" lon="-2.327319">
<ele>1896</ele>
<time>2013-05-04T13:14:49.000Z</time>
</trkpt>
<trkpt lat="42.643962" lon="-2.327258">
<ele>1897</ele>
<time>2013-05-04T13:14:50.000Z</time>
</trkpt>
<trkpt lat="42.644025" lon="-2.327216">
<ele>1899</ele>
<time>2013-05-04T13:14:51.000Z</time>
</trkpt>
<trkpt lat="42.644086" lon="-2.32718">
<ele>1902</ele>
<time>2013-05-04T13:14:52.000Z</time>
</trkpt>
<trkpt lat="42.644143" lon="-2.327153">
<ele>1905</ele>
<time>2013-05-04T13:14:53.000Z</time>
</trkpt>
<trkpt lat="42.644189" lon="-2.327138">
<ele>1906</ele>
<time>2013-05-04T13:14:54.000Z</time>
</trkpt>
<trkpt lat="42.644232" lon="-2.32715">
<ele>1908</ele>
<time>2013-05-04T13:14:55.000Z</time>
</trkpt>
<trkpt lat="42.644273" lon="-2.327188">
<ele>1911</ele>
<time>2013-05-04T13:14:56.000Z</time>
</trkpt>
<trkpt lat="42.644309" lon="-2.327226">
<ele>1914</ele>
<time>2013-05-04T13:14:57.000Z</time>
</trkpt>
<trkpt lat="42.644353" lon="-2.32723">
<ele>1914</ele>
<time>2013-05-04T13:14:58.000Z</time>
</trkpt>
<trkpt lat="42.644403" lon="-2.327194">
<ele>1914</ele>
<time>2013-05-04T13:14:59.000Z</time>
</trkpt>
<trkpt lat="42.644446" lon="-2.327119">
<ele>1914</ele>
<time>2013-05-04T13:15:00.000Z</time>
</trkpt>
<trkpt lat="42.644481" lon="-2.327022">
<ele>1917</ele>
<time>2013-05-04T13:15:01.000Z</time>
</trkpt>
<trkpt lat="42.644513" lon="-2.326922">
<ele>1920</ele>
<time>2013-05-04T13:15:02.000Z</time>
</trkpt>
<trkpt lat="42.644519" lon="-2.32682">
<ele>1922</ele>
<time>2013-05-04T13:15:03.000Z</time>
</trkpt>
<trkpt lat="42.644518" lon="-2.32671">
<ele>1923</ele>
<time>2013-05-04T13:15:04.000Z</time>
</trkpt>
<trkpt lat="42.644495" lon="-2.326591">
<ele>1923</ele>
<time>2013-05-04T13:15:05.000Z</time>
</trkpt>
<trkpt lat="42.64445" lon="-2.326473">
<ele>1924</ele>
<time>2013-05-04T13:15:06.000Z</time>
</trkpt>
<trkpt lat="42.644385" lon="-2.326379">
<ele>1925</ele>
<time>2013-05-04T13:15:07.000Z</time>
</trkpt>
<trkpt lat="42.644309" lon="-2.326318">
<ele>1926</ele>
<time>2013-05-04T13:15:08.000Z</time>
</trkpt>
<trkpt lat="42.644227" lon="-2.326289">
<ele>1927</ele>
<time>2013-05-04T13:15:09.000Z</time>
</trkpt>
<trkpt lat="42.644146" lon="-2.326273">
<ele>1928</ele>
<time>2013-05-04T13:15:10.000Z</time>
</trkpt>
<trkpt lat="42.64407" lon="-2.326281">
<ele>1929</ele>
<time>2013-05-04T13:15:11.000Z</time>
</trkpt>
<trkpt lat="42.644004" lon="-2.326309">
<ele>1930</ele>
<time>2013-05-04T13:15:12.000Z</time>
</trkpt>
<trkpt lat="42.643972" lon="-2.326357">
<ele>1930</ele>
<time>2013-05-04T13:15:13.000Z</time>
</trkpt>
<trkpt lat="42.643968" lon="-2.32642">
<ele>1932</ele>
<time>2013-05-04T13:15:14.000Z</time>
</trkpt>
<trkpt lat="42.643981" lon="-2.326483">
<ele>1932</ele>
<time>2013-05-04T13:15:15.000Z</time>
</trkpt>
<trkpt lat="42.644001" lon="-2.326531">
<ele>1933</ele>
<time>2013-05-04T13:15:16.000Z</time>
</trkpt>
<trkpt lat="42.644024" lon="-2.326556">
<ele>1935</ele>
<time>2013-05-04T13:15:17.000Z</time>
</trkpt>
<trkpt lat="42.644048" lon="-2.326561">
<ele>1937</ele>
<time>2013-05-04T13:15:18.000Z</time>
</trkpt>
<trkpt lat="42.644082" lon="-2.326565">
<ele>1938</ele>
<time>2013-05-04T13:15:19.000Z</time>
</trkpt>
<trkpt lat="42.644132" lon="-2.326567">
<ele>1938</ele>
<time>2013-05-04T13:15:20.000Z</time>
</trkpt>
<trkpt lat="42.644189" lon="-2.326549">
<ele>1938</ele>
<time>2013-05-04T13:15:21.000Z</time>
</trkpt>
<trkpt lat="42.644237" lon="-2.326506">
<ele>1939</ele>
<time>2013-05-04T13:15:22.000Z</time>
</trkpt>
<trkpt lat="42.644284" lon="-2.326429">
<ele>1940</ele>
<time>2013-05-04T13:15:23.000Z</time>
</trkpt>
<trkpt lat="42.644326" lon="-2.326351">
<ele>1940</ele>
<time>2013-05-04T13:15:24.000Z</time>
</trkpt>
<trkpt lat="42.644363" lon="-2.326277">
<ele>1941</ele>
<time>2013-05-04T13:15:25.000Z</time>
</trkpt>
<trkpt lat="42.644398" lon="-2.326203">
<ele>1941</ele>
<time>2013-05-04T13:15:26.000Z</time>
</trkpt>
<trkpt lat="42.644435" lon="-2.326117">
<ele>1941</ele>
<time>2013-05-04T13:15:27.000Z</time>
</trkpt>
<trkpt lat="42.644472" lon="-2.326015">
<ele>1941</ele>
<time>2013-05-04T13:15:28.000Z</time>
</trkpt>
<trkpt lat="42.644512" lon="-2.325903">
<ele>1940</ele>
<time>2013-05-04T13:15:29.000Z</time>
</trkpt>
<trkpt lat="42.644556" lon="-2.325793">
<ele>1940</ele>
<time>2013-05-04T13:15:30.000Z</time>
</trkpt>
<trkpt lat="42.644601" lon="-2.325699">
<ele>1940</ele>
<time>2013-05-04T13:15:31.000Z</time>
</trkpt>
<trkpt lat="42.644643" lon="-2.325621">
<ele>1940</ele>
<time>2013-05-04T13:15:32.000Z</time>
</trkpt>
<trkpt lat="42.644681" lon="-2.325551">
<ele>1941</ele>
<time>2013-05-04T13:15:33.000Z</time>
</trkpt>
<trkpt lat="42.644721" lon="-2.325474">
<ele>1941</ele>
<time>2013-05-04T13:15:34.000Z</time>
</trkpt>
<trkpt lat="42.644772" lon="-2.325387">
<ele>1940</ele>
<time>2013-05-04T13:15:35.000Z</time>
</trkpt>
<trkpt lat="42.644825" lon="-2.325299">
<ele>1939</ele>
<time>2013-05-04T13:15:36.000Z</time>
</trkpt>
<trkpt lat="42.644871" lon="-2.325228">
<ele>1940</ele>
<time>2013-05-04T13:15:37.000Z</time>
</trkpt>
<trkpt lat="42.644912" lon="-2.325169">
<ele>1940</ele>
<time>2013-05-04T13:15:38.000Z</time>
</trkpt>
<trkpt lat="42.64495" lon="-2.32511">
<ele>1941</ele>
<time>2013-05-04T13:15:39.000Z</time>
</trkpt>
<trkpt lat="42.644992" lon="-2.325042">
<ele>1942</ele>
<time>2013-05-04T13:15:40.000Z</time>
</trkpt>
<trkpt lat="42.645039" lon="-2.324965">
<ele>1942</ele>
<time>2013-05-04T13:15:41.000Z</time>
</trkpt>
<trkpt lat="42.645095" lon="-2.324879">
<ele>1942</ele>
<time>2013-05-04T13:15:42.000Z</time>
</trkpt>
<trkpt lat="42.645153" lon="-2.324797">
<ele>1943</ele>
<time>2013-05-04T13:15:43.000Z</time>
</trkpt>
<trkpt lat="42.645206" lon="-2.324724">
<ele>1944</ele>
<time>2013-05-04T13:15:44.000Z</time>
</trkpt>
<trkpt lat="42.645246" lon="-2.32466">
<ele>1946</ele>
<time>2013-05-04T13:15:45.000Z</time>
</trkpt>
<trkpt lat="42.645279" lon="-2.324602">
<ele>1947</ele>
<time>2013-05-04T13:15:46.000Z</time>
</trkpt>
<trkpt lat="42.645319" lon="-2.324538">
<ele>1948</ele>
<time>2013-05-04T13:15:47.000Z</time>
</trkpt>
<trkpt lat="42.64537" lon="-2.324467">
<ele>1947</ele>
<time>2013-05-04T13:15:48.000Z</time>
</trkpt>
<trkpt lat="42.645431" lon="-2.324391">
<ele>1946</ele>
<time>2013-05-04T13:15:49.000Z</time>
</trkpt>
<trkpt lat="42.645488" lon="-2.324325">
<ele>1947</ele>
<time>2013-05-04T13:15:50.000Z</time>
</trkpt>
<trkpt lat="42.645541" lon="-2.324268">
<ele>1948</ele>
<time>2013-05-04T13:15:51.000Z</time>
</trkpt>
<trkpt lat="42.645587" lon="-2.324214">
<ele>1950</ele>
<time>2013-05-04T13:15:52.000Z</time>
</trkpt>
<trkpt lat="42.645634" lon="-2.324158">
<ele>1952</ele>
<time>2013-05-04T13:15:53.000Z</time>
</trkpt>
<trkpt lat="42.645679" lon="-2.324108">
<ele>1954</ele>
<time>2013-05-04T13:15:54.000Z</time>
</trkpt>
<trkpt lat="42.645723" lon="-2.324062">
<ele>1955</ele>
<time>2013-05-04T13:15:55.000Z</time>
</trkpt>
<trkpt lat="42.64578" lon="-2.324021">
<ele>1955</ele>
<time>2013-05-04T13:15:56.000Z</time>
</trkpt>
<trkpt lat="42.645841" lon="-2.323978">
<ele>1954</ele>
<time>2013-05-04T13:15:57.000Z</time>
</trkpt>
<trkpt lat="42.645906" lon="-2.323933">
<ele>1954</ele>
<time>2013-05-04T13:15:58.000Z</time>
</trkpt>
<trkpt lat="42.645976" lon="-2.323886">
<ele>1955</ele>
<time>2013-05-04T13:15:59.000Z</time>
</trkpt>
<trkpt lat="42.646045" lon="-2.323831">
<ele>1956</ele>
<time>2013-05-04T13:16:00.000Z</time>
</trkpt>
<trkpt lat="42.646112" lon="-2.323771">
<ele>1957</ele>
<time>2013-05-04T13:16:01.000Z</time>
</trkpt>
<trkpt lat="42.646178" lon="-2.32371">
<ele>1958</ele>
<time>2013-05-04T13:16:02.000Z</time>
</trkpt>
<trkpt lat="42.646247" lon="-2.323645">
<ele>1958</ele>
<time>2013-05-04T13:16:03.000Z</time>
</trkpt>
<trkpt lat="42.646321" lon="-2.323576">
<ele>1958</ele>
<time>2013-05-04T13:16:04.000Z</time>
</trkpt>
<trkpt lat="42.646402" lon="-2.323495">
<ele>1956</ele>
<time>2013-05-04T13:16:05.000Z</time>
</trkpt>
<trkpt lat="42.646482" lon="-2.323404">
<ele>1956</ele>
<time>2013-05-04T13:16:06.000Z</time>
</trkpt>
<trkpt lat="42.646542" lon="-2.323301">
<ele>1955</ele>
<time>2013-05-04T13:16:07.000Z</time>
</trkpt>
<trkpt lat="42.646597" lon="-2.323205">
<ele>1954</ele>
<time>2013-05-04T13:16:08.000Z</time>
</trkpt>
<trkpt lat="42.646649" lon="-2.323113">
<ele>1953</ele>
<time>2013-05-04T13:16:09.000Z</time>
</trkpt>
<trkpt lat="42.646707" lon="-2.323019">
<ele>1952</ele>
<time>2013-05-04T13:16:10.000Z</time>
</trkpt>
<trkpt lat="42.646773" lon="-2.322915">
<ele>1952</ele>
<time>2013-05-04T13:16:11.000Z</time>
</trkpt>
<trkpt lat="42.646839" lon="-2.322812">
<ele>1952</ele>
<time>2013-05-04T13:16:12.000Z</time>
</trkpt>
<trkpt lat="42.646904" lon="-2.322717">
<ele>1952</ele>
<time>2013-05-04T13:16:13.000Z</time>
</trkpt>
<trkpt lat="42.646965" lon="-2.322629">
<ele>1951</ele>
<time>2013-05-04T13:16:14.000Z</time>
</trkpt>
<trkpt lat="42.647025" lon="-2.322546">
<ele>1949</ele>
<time>2013-05-04T13:16:15.000Z</time>
</trkpt>
<trkpt lat="42.647084" lon="-2.322468">
<ele>1946</ele>
<time>2013-05-04T13:16:16.000Z</time>
</trkpt>
<trkpt lat="42.647147" lon="-2.322381">
<ele>1943</ele>
<time>2013-05-04T13:16:17.000Z</time>
</trkpt>
<trkpt lat="42.647205" lon="-2.322296">
<ele>1940</ele>
<time>2013-05-04T13:16:18.000Z</time>
</trkpt>
<trkpt lat="42.647264" lon="-2.32221">
<ele>1937</ele>
<time>2013-05-04T13:16:19.000Z</time>
</trkpt>
<trkpt lat="42.647325" lon="-2.322121">
<ele>1936</ele>
<time>2013-05-04T13:16:20.000Z</time>
</trkpt>
<trkpt lat="42.647389" lon="-2.322024">
<ele>1935</ele>
<time>2013-05-04T13:16:21.000Z</time>
</trkpt>
<trkpt lat="42.647434" lon="-2.321914">
<ele>1935</ele>
<time>2013-05-04T13:16:22.000Z</time>
</trkpt>
<trkpt lat="42.647473" lon="-2.321811">
<ele>1937</ele>
<time>2013-05-04T13:16:23.000Z</time>
</trkpt>
<trkpt lat="42.647509" lon="-2.321719">
<ele>1938</ele>
<time>2013-05-04T13:16:24.000Z</time>
</trkpt>
<trkpt lat="42.647543" lon="-2.321644">
<ele>1938</ele>
<time>2013-05-04T13:16:25.000Z</time>
</trkpt>
<trkpt lat="42.647576" lon="-2.32157">
<ele>1938</ele>
<time>2013-05-04T13:16:26.000Z</time>
</trkpt>
<trkpt lat="42.647613" lon="-2.321497">
<ele>1938</ele>
<time>2013-05-04T13:16:27.000Z</time>
</trkpt>
<trkpt lat="42.647654" lon="-2.32142">
<ele>1939</ele>
<time>2013-05-04T13:16:28.000Z</time>
</trkpt>
<trkpt lat="42.647696" lon="-2.321346">
<ele>1938</ele>
<time>2013-05-04T13:16:29.000Z</time>
</trkpt>
<trkpt lat="42.647736" lon="-2.321277">
<ele>1938</ele>
<time>2013-05-04T13:16:30.000Z</time>
</trkpt>
<trkpt lat="42.647776" lon="-2.321213">
<ele>1937</ele>
<time>2013-05-04T13:16:31.000Z</time>
</trkpt>
<trkpt lat="42.647816" lon="-2.321152">
<ele>1936</ele>
<time>2013-05-04T13:16:32.000Z</time>
</trkpt>
<trkpt lat="42.647863" lon="-2.32108">
<ele>1935</ele>
<time>2013-05-04T13:16:33.000Z</time>
</trkpt>
<trkpt lat="42.647917" lon="-2.320988">
<ele>1934</ele>
<time>2013-05-04T13:16:34.000Z</time>
</trkpt>
<trkpt lat="42.647971" lon="-2.320891">
<ele>1933</ele>
<time>2013-05-04T13:16:35.000Z</time>
</trkpt>
<trkpt lat="42.648021" lon="-2.320797">
<ele>1934</ele>
<time>2013-05-04T13:16:36.000Z</time>
</trkpt>
<trkpt lat="42.648064" lon="-2.32072">
<ele>1935</ele>
<time>2013-05-04T13:16:37.000Z</time>
</trkpt>
<trkpt lat="42.648104" lon="-2.320648">
<ele>1935</ele>
<time>2013-05-04T13:16:38.000Z</time>
</trkpt>
<trkpt lat="42.648139" lon="-2.320584">
<ele>1932</ele>
<time>2013-05-04T13:16:39.000Z</time>
</trkpt>
<trkpt lat="42.648175" lon="-2.320521">
<ele>1927</ele>
<time>2013-05-04T13:16:40.000Z</time>
</trkpt>
<trkpt lat="42.648221" lon="-2.320448">
<ele>1923</ele>
<time>2013-05-04T13:16:41.000Z</time>
</trkpt>
<trkpt lat="42.648272" lon="-2.320379">
<ele>1921</ele>
<time>2013-05-04T13:16:42.000Z</time>
</trkpt>
<trkpt lat="42.648327" lon="-2.320313">
<ele>1920</ele>
<time>2013-05-04T13:16:43.000Z</time>
</trkpt>
<trkpt lat="42.648384" lon="-2.320241">
<ele>1919</ele>
<time>2013-05-04T13:16:44.000Z</time>
</trkpt>
<trkpt lat="42.648428" lon="-2.320152">
<ele>1916</ele>
<time>2013-05-04T13:16:45.000Z</time>
</trkpt>
<trkpt lat="42.648475" lon="-2.320053">
<ele>1913</ele>
<time>2013-05-04T13:16:46.000Z</time>
</trkpt>
<trkpt lat="42.64853" lon="-2.319947">
<ele>1911</ele>
<time>2013-05-04T13:16:47.000Z</time>
</trkpt>
<trkpt lat="42.64859" lon="-2.319843">
<ele>1908</ele>
<time>2013-05-04T13:16:48.000Z</time>
</trkpt>
<trkpt lat="42.648648" lon="-2.319752">
<ele>1907</ele>
<time>2013-05-04T13:16:49.000Z</time>
</trkpt>
<trkpt lat="42.648702" lon="-2.319668">
<ele>1906</ele>
<time>2013-05-04T13:16:50.000Z</time>
</trkpt>
<trkpt lat="42.64876" lon="-2.319582">
<ele>1904</ele>
<time>2013-05-04T13:16:51.000Z</time>
</trkpt>
<trkpt lat="42.648818" lon="-2.319494">
<ele>1903</ele>
<time>2013-05-04T13:16:52.000Z</time>
</trkpt>
<trkpt lat="42.648878" lon="-2.319404">
<ele>1901</ele>
<time>2013-05-04T13:16:53.000Z</time>
</trkpt>
<trkpt lat="42.648936" lon="-2.31931">
<ele>1901</ele>
<time>2013-05-04T13:16:54.000Z</time>
</trkpt>
<trkpt lat="42.648989" lon="-2.319222">
<ele>1903</ele>
<time>2013-05-04T13:16:55.000Z</time>
</trkpt>
<trkpt lat="42.649037" lon="-2.319142">
<ele>1903</ele>
<time>2013-05-04T13:16:56.000Z</time>
</trkpt>
<trkpt lat="42.649082" lon="-2.319073">
<ele>1903</ele>
<time>2013-05-04T13:16:57.000Z</time>
</trkpt>
<trkpt lat="42.649128" lon="-2.319">
<ele>1902</ele>
<time>2013-05-04T13:16:58.000Z</time>
</trkpt>
<trkpt lat="42.649174" lon="-2.318922">
<ele>1901</ele>
<time>2013-05-04T13:16:59.000Z</time>
</trkpt>
<trkpt lat="42.649223" lon="-2.318833">
<ele>1898</ele>
<time>2013-05-04T13:17:00.000Z</time>
</trkpt>
<trkpt lat="42.649274" lon="-2.318733">
<ele>1896</ele>
<time>2013-05-04T13:17:01.000Z</time>
</trkpt>
<trkpt lat="42.649322" lon="-2.318639">
<ele>1894</ele>
<time>2013-05-04T13:17:02.000Z</time>
</trkpt>
<trkpt lat="42.649369" lon="-2.31855">
<ele>1893</ele>
<time>2013-05-04T13:17:03.000Z</time>
</trkpt>
<trkpt lat="42.649412" lon="-2.318468">
<ele>1891</ele>
<time>2013-05-04T13:17:04.000Z</time>
</trkpt>
<trkpt lat="42.649452" lon="-2.31839">
<ele>1888</ele>
<time>2013-05-04T13:17:05.000Z</time>
</trkpt>
<trkpt lat="42.649497" lon="-2.318303">
<ele>1885</ele>
<time>2013-05-04T13:17:06.000Z</time>
</trkpt>
<trkpt lat="42.649551" lon="-2.318207">
<ele>1881</ele>
<time>2013-05-04T13:17:07.000Z</time>
</trkpt>
<trkpt lat="42.649614" lon="-2.318103">
<ele>1879</ele>
<time>2013-05-04T13:17:08.000Z</time>
</trkpt>
<trkpt lat="42.649681" lon="-2.317998">
<ele>1878</ele>
<time>2013-05-04T13:17:09.000Z</time>
</trkpt>
<trkpt lat="42.649744" lon="-2.317898">
<ele>1878</ele>
<time>2013-05-04T13:17:10.000Z</time>
</trkpt>
<trkpt lat="42.6498" lon="-2.317811">
<ele>1878</ele>
<time>2013-05-04T13:17:11.000Z</time>
</trkpt>
<trkpt lat="42.649851" lon="-2.31773">
<ele>1879</ele>
<time>2013-05-04T13:17:12.000Z</time>
</trkpt>
<trkpt lat="42.649898" lon="-2.317663">
<ele>1879</ele>
<time>2013-05-04T13:17:13.000Z</time>
</trkpt>
<trkpt lat="42.649951" lon="-2.317594">
<ele>1880</ele>
<time>2013-05-04T13:17:14.000Z</time>
</trkpt>
<trkpt lat="42.650004" lon="-2.317526">
<ele>1881</ele>
<time>2013-05-04T13:17:15.000Z</time>
</trkpt>
<trkpt lat="42.650055" lon="-2.317461">
<ele>1882</ele>
<time>2013-05-04T13:17:16.000Z</time>
</trkpt>
<trkpt lat="42.650107" lon="-2.317396">
<ele>1883</ele>
<time>2013-05-04T13:17:17.000Z</time>
</trkpt>
<trkpt lat="42.65016" lon="-2.317323">
<ele>1883</ele>
<time>2013-05-04T13:17:18.000Z</time>
</trkpt>
<trkpt lat="42.650216" lon="-2.317234">
<ele>1883</ele>
<time>2013-05-04T13:17:19.000Z</time>
</trkpt>
<trkpt lat="42.650272" lon="-2.317136">
<ele>1883</ele>
<time>2013-05-04T13:17:20.000Z</time>
</trkpt>
<trkpt lat="42.650325" lon="-2.317037">
<ele>1885</ele>
<time>2013-05-04T13:17:21.000Z</time>
</trkpt>
<trkpt lat="42.650372" lon="-2.316942">
<ele>1888</ele>
<time>2013-05-04T13:17:22.000Z</time>
</trkpt>
<trkpt lat="42.650415" lon="-2.316849">
<ele>1891</ele>
<time>2013-05-04T13:17:23.000Z</time>
</trkpt>
<trkpt lat="42.650455" lon="-2.316768">
<ele>1894</ele>
<time>2013-05-04T13:17:24.000Z</time>
</trkpt>
<trkpt lat="42.650493" lon="-2.316691">
<ele>1898</ele>
<time>2013-05-04T13:17:25.000Z</time>
</trkpt>
<trkpt lat="42.650528" lon="-2.316617">
<ele>1902</ele>
<time>2013-05-04T13:17:26.000Z</time>
</trkpt>
<trkpt lat="42.65056" lon="-2.316551">
<ele>1905</ele>
<time>2013-05-04T13:17:27.000Z</time>
</trkpt>
<trkpt lat="42.650594" lon="-2.31649">
<ele>1907</ele>
<time>2013-05-04T13:17:28.000Z</time>
</trkpt>
<trkpt lat="42.650636" lon="-2.316444">
<ele>1908</ele>
<time>2013-05-04T13:17:29.000Z</time>
</trkpt>
<trkpt lat="42.650688" lon="-2.316409">
<ele>1908</ele>
<time>2013-05-04T13:17:30.000Z</time>
</trkpt>
<trkpt lat="42.65074" lon="-2.316382">
<ele>1907</ele>
<time>2013-05-04T13:17:31.000Z</time>
</trkpt>
<trkpt lat="42.650798" lon="-2.316389">
<ele>1907</ele>
<time>2013-05-04T13:17:32.000Z</time>
</trkpt>
<trkpt lat="42.650847" lon="-2.316435">
<ele>1906</ele>
<time>2013-05-04T13:17:33.000Z</time>
</trkpt>
<trkpt lat="42.650869" lon="-2.316506">
<ele>1905</ele>
<time>2013-05-04T13:17:34.000Z</time>
</trkpt>
<trkpt lat="42.650866" lon="-2.316585">
<ele>1905</ele>
<time>2013-05-04T13:17:35.000Z</time>
</trkpt>
<trkpt lat="42.650852" lon="-2.316669">
<ele>1906</ele>
<time>2013-05-04T13:17:36.000Z</time>
</trkpt>
<trkpt lat="42.650822" lon="-2.316736">
<ele>1908</ele>
<time>2013-05-04T13:17:37.000Z</time>
</trkpt>
<trkpt lat="42.650783" lon="-2.316787">
<ele>1909</ele>
<time>2013-05-04T13:17:38.000Z</time>
</trkpt>
<trkpt lat="42.650731" lon="-2.316844">
<ele>1910</ele>
<time>2013-05-04T13:17:39.000Z</time>
</trkpt>
<trkpt lat="42.650669" lon="-2.316898">
<ele>1912</ele>
<time>2013-05-04T13:17:40.000Z</time>
</trkpt>
<trkpt lat="42.650589" lon="-2.31693">
<ele>1911</ele>
<time>2013-05-04T13:17:41.000Z</time>
</trkpt>
<trkpt lat="42.650508" lon="-2.316934">
<ele>1913</ele>
<time>2013-05-04T13:17:42.000Z</time>
</trkpt>
<trkpt lat="42.650446" lon="-2.316909">
<ele>1914</ele>
<time>2013-05-04T13:17:43.000Z</time>
</trkpt>
<trkpt lat="42.650391" lon="-2.316876">
<ele>1916</ele>
<time>2013-05-04T13:17:44.000Z</time>
</trkpt>
<trkpt lat="42.650339" lon="-2.316822">
<ele>1918</ele>
<time>2013-05-04T13:17:45.000Z</time>
</trkpt>
<trkpt lat="42.650286" lon="-2.316764">
<ele>1919</ele>
<time>2013-05-04T13:17:46.000Z</time>
</trkpt>
<trkpt lat="42.650231" lon="-2.316698">
<ele>1920</ele>
<time>2013-05-04T13:17:47.000Z</time>
</trkpt>
<trkpt lat="42.650163" lon="-2.316621">
<ele>1924</ele>
<time>2013-05-04T13:17:48.000Z</time>
</trkpt>
<trkpt lat="42.6501" lon="-2.316538">
<ele>1926</ele>
<time>2013-05-04T13:17:49.000Z</time>
</trkpt>
<trkpt lat="42.650047" lon="-2.316456">
<ele>1928</ele>
<time>2013-05-04T13:17:50.000Z</time>
</trkpt>
<trkpt lat="42.650011" lon="-2.316364">
<ele>1928</ele>
<time>2013-05-04T13:17:51.000Z</time>
</trkpt>
<trkpt lat="42.649976" lon="-2.31627">
<ele>1929</ele>
<time>2013-05-04T13:17:52.000Z</time>
</trkpt>
<trkpt lat="42.649943" lon="-2.316169">
<ele>1927</ele>
<time>2013-05-04T13:17:53.000Z</time>
</trkpt>
<trkpt lat="42.64991" lon="-2.316062">
<ele>1927</ele>
<time>2013-05-04T13:17:54.000Z</time>
</trkpt>
<trkpt lat="42.649877" lon="-2.315946">
<ele>1926</ele>
<time>2013-05-04T13:17:55.000Z</time>
</trkpt>
<trkpt lat="42.649848" lon="-2.315831">
<ele>1925</ele>
<time>2013-05-04T13:17:56.000Z</time>
</trkpt>
<trkpt lat="42.649825" lon="-2.315724">
<ele>1924</ele>
<time>2013-05-04T13:17:57.000Z</time>
</trkpt>
<trkpt lat="42.649807" lon="-2.315617">
<ele>1922</ele>
<time>2013-05-04T13:17:58.000Z</time>
</trkpt>
<trkpt lat="42.649813" lon="-2.315495">
<ele>1919</ele>
<time>2013-05-04T13:17:59.000Z</time>
</trkpt>
<trkpt lat="42.64982" lon="-2.315355">
<ele>1915</ele>
<time>2013-05-04T13:18:00.000Z</time>
</trkpt>
<trkpt lat="42.649834" lon="-2.315212">
<ele>1913</ele>
<time>2013-05-04T13:18:01.000Z</time>
</trkpt>
<trkpt lat="42.649855" lon="-2.315069">
<ele>1911</ele>
<time>2013-05-04T13:18:02.000Z</time>
</trkpt>
<trkpt lat="42.649884" lon="-2.314948">
<ele>1909</ele>
<time>2013-05-04T13:18:03.000Z</time>
</trkpt>
<trkpt lat="42.649917" lon="-2.314843">
<ele>1908</ele>
<time>2013-05-04T13:18:04.000Z</time>
</trkpt>
<trkpt lat="42.649955" lon="-2.314736">
<ele>1907</ele>
<time>2013-05-04T13:18:05.000Z</time>
</trkpt>
<trkpt lat="42.650004" lon="-2.314622">
<ele>1905</ele>
<time>2013-05-04T13:18:06.000Z</time>
</trkpt>
<trkpt lat="42.65006" lon="-2.314503">
<ele>1903</ele>
<time>2013-05-04T13:18:07.000Z</time>
</trkpt>
<trkpt lat="42.650116" lon="-2.314385">
<ele>1903</ele>
<time>2013-05-04T13:18:08.000Z</time>
</trkpt>
<trkpt lat="42.650172" lon="-2.314282">
<ele>1904</ele>
<time>2013-05-04T13:18:09.000Z</time>
</trkpt>
<trkpt lat="42.650242" lon="-2.314203">
<ele>1904</ele>
<time>2013-05-04T13:18:10.000Z</time>
</trkpt>
<trkpt lat="42.650303" lon="-2.314136">
<ele>1905</ele>
<time>2013-05-04T13:18:11.000Z</time>
</trkpt>
<trkpt lat="42.650366" lon="-2.314067">
<ele>1905</ele>
<time>2013-05-04T13:18:12.000Z</time>
</trkpt>
<trkpt lat="42.65044" lon="-2.313989">
<ele>1905</ele>
<time>2013-05-04T13:18:13.000Z</time>
</trkpt>
<trkpt lat="42.650513" lon="-2.313908">
<ele>1905</ele>
<time>2013-05-04T13:18:14.000Z</time>
</trkpt>
<trkpt lat="42.650584" lon="-2.313841">
<ele>1905</ele>
<time>2013-05-04T13:18:15.000Z</time>
</trkpt>
<trkpt lat="42.650664" lon="-2.313797">
<ele>1904</ele>
<time>2013-05-04T13:18:16.000Z</time>
</trkpt>
<trkpt lat="42.650739" lon="-2.31376">
<ele>1904</ele>
<time>2013-05-04T13:18:17.000Z</time>
</trkpt>
<trkpt lat="42.650807" lon="-2.313719">
<ele>1902</ele>
<time>2013-05-04T13:18:18.000Z</time>
</trkpt>
<trkpt lat="42.650849" lon="-2.313639">
<ele>1901</ele>
<time>2013-05-04T13:18:19.000Z</time>
</trkpt>
<trkpt lat="42.650891" lon="-2.313547">
<ele>1898</ele>
<time>2013-05-04T13:18:20.000Z</time>
</trkpt>
<trkpt lat="42.650934" lon="-2.313444">
<ele>1896</ele>
<time>2013-05-04T13:18:21.000Z</time>
</trkpt>
<trkpt lat="42.650977" lon="-2.313339">
<ele>1896</ele>
<time>2013-05-04T13:18:22.000Z</time>
</trkpt>
<trkpt lat="42.651012" lon="-2.313242">
<ele>1896</ele>
<time>2013-05-04T13:18:23.000Z</time>
</trkpt>
<trkpt lat="42.651046" lon="-2.313146">
<ele>1896</ele>
<time>2013-05-04T13:18:24.000Z</time>
</trkpt>
<trkpt lat="42.651078" lon="-2.313047">
<ele>1896</ele>
<time>2013-05-04T13:18:25.000Z</time>
</trkpt>
<trkpt lat="42.651105" lon="-2.312945">
<ele>1896</ele>
<time>2013-05-04T13:18:26.000Z</time>
</trkpt>
<trkpt lat="42.651132" lon="-2.312839">
<ele>1895</ele>
<time>2013-05-04T13:18:27.000Z</time>
</trkpt>
<trkpt lat="42.651161" lon="-2.312731">
<ele>1894</ele>
<time>2013-05-04T13:18:28.000Z</time>
</trkpt>
<trkpt lat="42.651191" lon="-2.312623">
<ele>1892</ele>
<time>2013-05-04T13:18:29.000Z</time>
</trkpt>
<trkpt lat="42.651226" lon="-2.312518">
<ele>1892</ele>
<time>2013-05-04T13:18:30.000Z</time>
</trkpt>
<trkpt lat="42.651261" lon="-2.312414">
<ele>1892</ele>
<time>2013-05-04T13:18:31.000Z</time>
</trkpt>
<trkpt lat="42.651296" lon="-2.312311">
<ele>1891</ele>
<time>2013-05-04T13:18:32.000Z</time>
</trkpt>
<trkpt lat="42.651327" lon="-2.312204">
<ele>1890</ele>
<time>2013-05-04T13:18:33.000Z</time>
</trkpt>
<trkpt lat="42.651354" lon="-2.31209">
<ele>1889</ele>
<time>2013-05-04T13:18:34.000Z</time>
</trkpt>
<trkpt lat="42.651384" lon="-2.311966">
<ele>1887</ele>
<time>2013-05-04T13:18:35.000Z</time>
</trkpt>
<trkpt lat="42.651416" lon="-2.311837">
<ele>1884</ele>
<time>2013-05-04T13:18:36.000Z</time>
</trkpt>
<trkpt lat="42.65145" lon="-2.311716">
<ele>1883</ele>
<time>2013-05-04T13:18:37.000Z</time>
</trkpt>
<trkpt lat="42.651484" lon="-2.311606">
<ele>1883</ele>
<time>2013-05-04T13:18:38.000Z</time>
</trkpt>
<trkpt lat="42.651516" lon="-2.311503">
<ele>1882</ele>
<time>2013-05-04T13:18:39.000Z</time>
</trkpt>
<trkpt lat="42.651544" lon="-2.3114">
<ele>1881</ele>
<time>2013-05-04T13:18:40.000Z</time>
</trkpt>
<trkpt lat="42.651574" lon="-2.311288">
<ele>1880</ele>
<time>2013-05-04T13:18:41.000Z</time>
</trkpt>
<trkpt lat="42.651605" lon="-2.311173">
<ele>1879</ele>
<time>2013-05-04T13:18:42.000Z</time>
</trkpt>
<trkpt lat="42.651633" lon="-2.311066">
<ele>1878</ele>
<time>2013-05-04T13:18:43.000Z</time>
</trkpt>
<trkpt lat="42.651657" lon="-2.31097">
<ele>1879</ele>
<time>2013-05-04T13:18:44.000Z</time>
</trkpt>
<trkpt lat="42.651676" lon="-2.310889">
<ele>1880</ele>
<time>2013-05-04T13:18:45.000Z</time>
</trkpt>
<trkpt lat="42.651693" lon="-2.310817">
<ele>1882</ele>
<time>2013-05-04T13:18:46.000Z</time>
</trkpt>
<trkpt lat="42.651711" lon="-2.310751">
<ele>1883</ele>
<time>2013-05-04T13:18:47.000Z</time>
</trkpt>
<trkpt lat="42.65173" lon="-2.310683">
<ele>1883</ele>
<time>2013-05-04T13:18:48.000Z</time>
</trkpt>
<trkpt lat="42.651753" lon="-2.310613">
<ele>1883</ele>
<time>2013-05-04T13:18:49.000Z</time>
</trkpt>
<trkpt lat="42.651781" lon="-2.310529">
<ele>1882</ele>
<time>2013-05-04T13:18:50.000Z</time>
</trkpt>
<trkpt lat="42.651814" lon="-2.310425">
<ele>1882</ele>
<time>2013-05-04T13:18:51.000Z</time>
</trkpt>
<trkpt lat="42.651844" lon="-2.310316">
<ele>1883</ele>
<time>2013-05-04T13:18:52.000Z</time>
</trkpt>
<trkpt lat="42.651871" lon="-2.310211">
<ele>1884</ele>
<time>2013-05-04T13:18:53.000Z</time>
</trkpt>
<trkpt lat="42.651891" lon="-2.310114">
<ele>1886</ele>
<time>2013-05-04T13:18:54.000Z</time>
</trkpt>
<trkpt lat="42.651905" lon="-2.310025">
<ele>1888</ele>
<time>2013-05-04T13:18:55.000Z</time>
</trkpt>
<trkpt lat="42.651917" lon="-2.309936">
<ele>1888</ele>
<time>2013-05-04T13:18:56.000Z</time>
</trkpt>
<trkpt lat="42.651929" lon="-2.309841">
<ele>1888</ele>
<time>2013-05-04T13:18:57.000Z</time>
</trkpt>
<trkpt lat="42.651944" lon="-2.309733">
<ele>1886</ele>
<time>2013-05-04T13:18:58.000Z</time>
</trkpt>
<trkpt lat="42.651965" lon="-2.309616">
<ele>1885</ele>
<time>2013-05-04T13:18:59.000Z</time>
</trkpt>
<trkpt lat="42.651987" lon="-2.309493">
<ele>1886</ele>
<time>2013-05-04T13:19:00.000Z</time>
</trkpt>
<trkpt lat="42.651999" lon="-2.309388">
<ele>1887</ele>
<time>2013-05-04T13:19:01.000Z</time>
</trkpt>
<trkpt lat="42.651991" lon="-2.309299">
<ele>1888</ele>
<time>2013-05-04T13:19:02.000Z</time>
</trkpt>
<trkpt lat="42.651987" lon="-2.309236">
<ele>1889</ele>
<time>2013-05-04T13:19:03.000Z</time>
</trkpt>
<trkpt lat="42.651993" lon="-2.309177">
<ele>1888</ele>
<time>2013-05-04T13:19:04.000Z</time>
</trkpt>
<trkpt lat="42.652006" lon="-2.309099">
<ele>1886</ele>
<time>2013-05-04T13:19:05.000Z</time>
</trkpt>
<trkpt lat="42.652021" lon="-2.309005">
<ele>1883</ele>
<time>2013-05-04T13:19:06.000Z</time>
</trkpt>
<trkpt lat="42.652034" lon="-2.308898">
<ele>1880</ele>
<time>2013-05-04T13:19:07.000Z</time>
</trkpt>
<trkpt lat="42.652045" lon="-2.308798">
<ele>1877</ele>
<time>2013-05-04T13:19:08.000Z</time>
</trkpt>
<trkpt lat="42.652052" lon="-2.308716">
<ele>1874</ele>
<time>2013-05-04T13:19:09.000Z</time>
</trkpt>
<trkpt lat="42.652063" lon="-2.308643">
<ele>1871</ele>
<time>2013-05-04T13:19:10.000Z</time>
</trkpt>
<trkpt lat="42.652078" lon="-2.308572">
<ele>1868</ele>
<time>2013-05-04T13:19:11.000Z</time>
</trkpt>
<trkpt lat="42.652096" lon="-2.308492">
<ele>1863</ele>
<time>2013-05-04T13:19:12.000Z</time>
</trkpt>
<trkpt lat="42.652114" lon="-2.308411">
<ele>1858</ele>
<time>2013-05-04T13:19:13.000Z</time>
</trkpt>
<trkpt lat="42.652133" lon="-2.308328">
<ele>1856</ele>
<time>2013-05-04T13:19:14.000Z</time>
</trkpt>
<trkpt lat="42.652151" lon="-2.308248">
<ele>1853</ele>
<time>2013-05-04T13:19:15.000Z</time>
</trkpt>
<trkpt lat="42.652186" lon="-2.3081">
<ele>1848</ele>
<time>2013-05-04T13:19:17.000Z</time>
</trkpt>
<trkpt lat="42.652198" lon="-2.30802">
<ele>1846</ele>
<time>2013-05-04T13:19:18.000Z</time>
</trkpt>
<trkpt lat="42.652196" lon="-2.307938">
<ele>1843</ele>
<time>2013-05-04T13:19:19.000Z</time>
</trkpt>
<trkpt lat="42.652193" lon="-2.307855">
<ele>1840</ele>
<time>2013-05-04T13:19:20.000Z</time>
</trkpt>
<trkpt lat="42.652189" lon="-2.307774">
<ele>1836</ele>
<time>2013-05-04T13:19:21.000Z</time>
</trkpt>
<trkpt lat="42.652185" lon="-2.307685">
<ele>1833</ele>
<time>2013-05-04T13:19:22.000Z</time>
</trkpt>
<trkpt lat="42.652183" lon="-2.307594">
<ele>1831</ele>
<time>2013-05-04T13:19:23.000Z</time>
</trkpt>
<trkpt lat="42.652183" lon="-2.307499">
<ele>1828</ele>
<time>2013-05-04T13:19:24.000Z</time>
</trkpt>
<trkpt lat="42.652182" lon="-2.307407">
<ele>1825</ele>
<time>2013-05-04T13:19:25.000Z</time>
</trkpt>
<trkpt lat="42.652181" lon="-2.307315">
<ele>1822</ele>
<time>2013-05-04T13:19:26.000Z</time>
</trkpt>
<trkpt lat="42.65218" lon="-2.307223">
<ele>1819</ele>
<time>2013-05-04T13:19:27.000Z</time>
</trkpt>
<trkpt lat="42.652179" lon="-2.307123">
<ele>1816</ele>
<time>2013-05-04T13:19:28.000Z</time>
</trkpt>
<trkpt lat="42.652184" lon="-2.307006">
<ele>1814</ele>
<time>2013-05-04T13:19:29.000Z</time>
</trkpt>
<trkpt lat="42.652196" lon="-2.306883">
<ele>1812</ele>
<time>2013-05-04T13:19:30.000Z</time>
</trkpt>
<trkpt lat="42.652215" lon="-2.306761">
<ele>1812</ele>
<time>2013-05-04T13:19:31.000Z</time>
</trkpt>
<trkpt lat="42.652241" lon="-2.306647">
<ele>1813</ele>
<time>2013-05-04T13:19:32.000Z</time>
</trkpt>
<trkpt lat="42.652269" lon="-2.306545">
<ele>1814</ele>
<time>2013-05-04T13:19:33.000Z</time>
</trkpt>
<trkpt lat="42.652295" lon="-2.306455">
<ele>1816</ele>
<time>2013-05-04T13:19:34.000Z</time>
</trkpt>
<trkpt lat="42.652324" lon="-2.306374">
<ele>1819</ele>
<time>2013-05-04T13:19:35.000Z</time>
</trkpt>
<trkpt lat="42.652364" lon="-2.306308">
<ele>1822</ele>
<time>2013-05-04T13:19:36.000Z</time>
</trkpt>
<trkpt lat="42.652401" lon="-2.306247">
<ele>1824</ele>
<time>2013-05-04T13:19:37.000Z</time>
</trkpt>
<trkpt lat="42.652439" lon="-2.306182">
<ele>1825</ele>
<time>2013-05-04T13:19:38.000Z</time>
</trkpt>
<trkpt lat="42.652476" lon="-2.306106">
<ele>1827</ele>
<time>2013-05-04T13:19:39.000Z</time>
</trkpt>
<trkpt lat="42.652511" lon="-2.306022">
<ele>1828</ele>
<time>2013-05-04T13:19:40.000Z</time>
</trkpt>
<trkpt lat="42.652545" lon="-2.305924">
<ele>1831</ele>
<time>2013-05-04T13:19:41.000Z</time>
</trkpt>
<trkpt lat="42.652572" lon="-2.305826">
<ele>1835</ele>
<time>2013-05-04T13:19:42.000Z</time>
</trkpt>
<trkpt lat="42.652577" lon="-2.305734">
<ele>1839</ele>
<time>2013-05-04T13:19:43.000Z</time>
</trkpt>
<trkpt lat="42.652577" lon="-2.305661">
<ele>1844</ele>
<time>2013-05-04T13:19:44.000Z</time>
</trkpt>
<trkpt lat="42.652565" lon="-2.305596">
<ele>1848</ele>
<time>2013-05-04T13:19:45.000Z</time>
</trkpt>
<trkpt lat="42.652556" lon="-2.305534">
<ele>1852</ele>
<time>2013-05-04T13:19:46.000Z</time>
</trkpt>
<trkpt lat="42.652551" lon="-2.305467">
<ele>1855</ele>
<time>2013-05-04T13:19:47.000Z</time>
</trkpt>
<trkpt lat="42.652545" lon="-2.305395">
<ele>1857</ele>
<time>2013-05-04T13:19:48.000Z</time>
</trkpt>
<trkpt lat="42.652536" lon="-2.30531">
<ele>1859</ele>
<time>2013-05-04T13:19:49.000Z</time>
</trkpt>
<trkpt lat="42.652529" lon="-2.305224">
<ele>1860</ele>
<time>2013-05-04T13:19:50.000Z</time>
</trkpt>
<trkpt lat="42.652544" lon="-2.305136">
<ele>1862</ele>
<time>2013-05-04T13:19:51.000Z</time>
</trkpt>
<trkpt lat="42.652573" lon="-2.305052">
<ele>1864</ele>
<time>2013-05-04T13:19:52.000Z</time>
</trkpt>
<trkpt lat="42.652605" lon="-2.304974">
<ele>1866</ele>
<time>2013-05-04T13:19:53.000Z</time>
</trkpt>
<trkpt lat="42.652639" lon="-2.304898">
<ele>1867</ele>
<time>2013-05-04T13:19:54.000Z</time>
</trkpt>
<trkpt lat="42.652674" lon="-2.304835">
<ele>1868</ele>
<time>2013-05-04T13:19:55.000Z</time>
</trkpt>
<trkpt lat="42.652723" lon="-2.304786">
<ele>1868</ele>
<time>2013-05-04T13:19:56.000Z</time>
</trkpt>
<trkpt lat="42.65277" lon="-2.304748">
<ele>1870</ele>
<time>2013-05-04T13:19:57.000Z</time>
</trkpt>
<trkpt lat="42.652831" lon="-2.304726">
<ele>1872</ele>
<time>2013-05-04T13:19:58.000Z</time>
</trkpt>
<trkpt lat="42.652892" lon="-2.304708">
<ele>1872</ele>
<time>2013-05-04T13:19:59.000Z</time>
</trkpt>
<trkpt lat="42.65297" lon="-2.304717">
<ele>1871</ele>
<time>2013-05-04T13:20:00.000Z</time>
</trkpt>
<trkpt lat="42.653054" lon="-2.304766">
<ele>1871</ele>
<time>2013-05-04T13:20:01.000Z</time>
</trkpt>
<trkpt lat="42.653129" lon="-2.304843">
<ele>1873</ele>
<time>2013-05-04T13:20:02.000Z</time>
</trkpt>
<trkpt lat="42.653195" lon="-2.304926">
<ele>1876</ele>
<time>2013-05-04T13:20:03.000Z</time>
</trkpt>
<trkpt lat="42.653242" lon="-2.305023">
<ele>1878</ele>
<time>2013-05-04T13:20:04.000Z</time>
</trkpt>
<trkpt lat="42.653281" lon="-2.305113">
<ele>1881</ele>
<time>2013-05-04T13:20:05.000Z</time>
</trkpt>
<trkpt lat="42.653293" lon="-2.305211">
<ele>1883</ele>
<time>2013-05-04T13:20:06.000Z</time>
</trkpt>
<trkpt lat="42.653289" lon="-2.305311">
<ele>1885</ele>
<time>2013-05-04T13:20:07.000Z</time>
</trkpt>
<trkpt lat="42.653279" lon="-2.305404">
<ele>1888</ele>
<time>2013-05-04T13:20:08.000Z</time>
</trkpt>
<trkpt lat="42.653249" lon="-2.305497">
<ele>1890</ele>
<time>2013-05-04T13:20:09.000Z</time>
</trkpt>
<trkpt lat="42.653201" lon="-2.305562">
<ele>1894</ele>
<time>2013-05-04T13:20:10.000Z</time>
</trkpt>
<trkpt lat="42.653132" lon="-2.305623">
<ele>1898</ele>
<time>2013-05-04T13:20:11.000Z</time>
</trkpt>
<trkpt lat="42.653056" lon="-2.305677">
<ele>1902</ele>
<time>2013-05-04T13:20:12.000Z</time>
</trkpt>
<trkpt lat="42.652973" lon="-2.305695">
<ele>1903</ele>
<time>2013-05-04T13:20:13.000Z</time>
</trkpt>
<trkpt lat="42.652894" lon="-2.305686">
<ele>1907</ele>
<time>2013-05-04T13:20:14.000Z</time>
</trkpt>
<trkpt lat="42.652823" lon="-2.305646">
<ele>1909</ele>
<time>2013-05-04T13:20:15.000Z</time>
</trkpt>
<trkpt lat="42.652749" lon="-2.305594">
<ele>1910</ele>
<time>2013-05-04T13:20:16.000Z</time>
</trkpt>
<trkpt lat="42.652598" lon="-2.305454">
<ele>1911</ele>
<time>2013-05-04T13:20:18.000Z</time>
</trkpt>
<trkpt lat="42.652542" lon="-2.305349">
<ele>1913</ele>
<time>2013-05-04T13:20:19.000Z</time>
</trkpt>
<trkpt lat="42.652497" lon="-2.305245">
<ele>1915</ele>
<time>2013-05-04T13:20:20.000Z</time>
</trkpt>
<trkpt lat="42.652481" lon="-2.30514">
<ele>1918</ele>
<time>2013-05-04T13:20:21.000Z</time>
</trkpt>
<trkpt lat="42.652489" lon="-2.305063">
<ele>1919</ele>
<time>2013-05-04T13:20:22.000Z</time>
</trkpt>
<trkpt lat="42.652515" lon="-2.304978">
<ele>1921</ele>
<time>2013-05-04T13:20:23.000Z</time>
</trkpt>
<trkpt lat="42.652547" lon="-2.304897">
<ele>1923</ele>
<time>2013-05-04T13:20:24.000Z</time>
</trkpt>
<trkpt lat="42.652599" lon="-2.304819">
<ele>1924</ele>
<time>2013-05-04T13:20:25.000Z</time>
</trkpt>
<trkpt lat="42.652652" lon="-2.304746">
<ele>1925</ele>
<time>2013-05-04T13:20:26.000Z</time>
</trkpt>
<trkpt lat="42.652706" lon="-2.304678">
<ele>1927</ele>
<time>2013-05-04T13:20:27.000Z</time>
</trkpt>
<trkpt lat="42.652755" lon="-2.304614">
<ele>1929</ele>
<time>2013-05-04T13:20:28.000Z</time>
</trkpt>
<trkpt lat="42.652799" lon="-2.304555">
<ele>1930</ele>
<time>2013-05-04T13:20:29.000Z</time>
</trkpt>
<trkpt lat="42.652845" lon="-2.304492">
<ele>1930</ele>
<time>2013-05-04T13:20:30.000Z</time>
</trkpt>
<trkpt lat="42.652895" lon="-2.304427">
<ele>1932</ele>
<time>2013-05-04T13:20:31.000Z</time>
</trkpt>
<trkpt lat="42.652945" lon="-2.304365">
<ele>1934</ele>
<time>2013-05-04T13:20:32.000Z</time>
</trkpt>
<trkpt lat="42.652991" lon="-2.304308">
<ele>1935</ele>
<time>2013-05-04T13:20:33.000Z</time>
</trkpt>
<trkpt lat="42.653037" lon="-2.30425">
<ele>1937</ele>
<time>2013-05-04T13:20:34.000Z</time>
</trkpt>
<trkpt lat="42.65309" lon="-2.304183">
<ele>1938</ele>
<time>2013-05-04T13:20:35.000Z</time>
</trkpt>
<trkpt lat="42.653144" lon="-2.304111">
<ele>1938</ele>
<time>2013-05-04T13:20:36.000Z</time>
</trkpt>
<trkpt lat="42.653202" lon="-2.304043">
<ele>1938</ele>
<time>2013-05-04T13:20:37.000Z</time>
</trkpt>
<trkpt lat="42.653267" lon="-2.303976">
<ele>1938</ele>
<time>2013-05-04T13:20:38.000Z</time>
</trkpt>
<trkpt lat="42.653334" lon="-2.303908">
<ele>1938</ele>
<time>2013-05-04T13:20:39.000Z</time>
</trkpt>
<trkpt lat="42.6534" lon="-2.303833">
<ele>1939</ele>
<time>2013-05-04T13:20:40.000Z</time>
</trkpt>
<trkpt lat="42.653467" lon="-2.303751">
<ele>1940</ele>
<time>2013-05-04T13:20:41.000Z</time>
</trkpt>
<trkpt lat="42.65353" lon="-2.303668">
<ele>1939</ele>
<time>2013-05-04T13:20:42.000Z</time>
</trkpt>
<trkpt lat="42.653571" lon="-2.303568">
<ele>1940</ele>
<time>2013-05-04T13:20:43.000Z</time>
</trkpt>
<trkpt lat="42.653608" lon="-2.303466">
<ele>1940</ele>
<time>2013-05-04T13:20:44.000Z</time>
</trkpt>
<trkpt lat="42.653639" lon="-2.303368">
<ele>1941</ele>
<time>2013-05-04T13:20:45.000Z</time>
</trkpt>
<trkpt lat="42.653668" lon="-2.303276">
<ele>1942</ele>
<time>2013-05-04T13:20:46.000Z</time>
</trkpt>
<trkpt lat="42.6537" lon="-2.303189">
<ele>1943</ele>
<time>2013-05-04T13:20:47.000Z</time>
</trkpt>
<trkpt lat="42.65373" lon="-2.303104">
<ele>1944</ele>
<time>2013-05-04T13:20:48.000Z</time>
</trkpt>
<trkpt lat="42.653741" lon="-2.303023">
<ele>1944</ele>
<time>2013-05-04T13:20:49.000Z</time>
</trkpt>
<trkpt lat="42.653748" lon="-2.302948">
<ele>1945</ele>
<time>2013-05-04T13:20:50.000Z</time>
</trkpt>
<trkpt lat="42.653753" lon="-2.30288">
<ele>1945</ele>
<time>2013-05-04T13:20:51.000Z</time>
</trkpt>
<trkpt lat="42.65376" lon="-2.302817">
<ele>1945</ele>
<time>2013-05-04T13:20:52.000Z</time>
</trkpt>
<trkpt lat="42.65377" lon="-2.302757">
<ele>1945</ele>
<time>2013-05-04T13:20:53.000Z</time>
</trkpt>
<trkpt lat="42.653782" lon="-2.302699">
<ele>1945</ele>
<time>2013-05-04T13:20:54.000Z</time>
</trkpt>
<trkpt lat="42.653798" lon="-2.302637">
<ele>1945</ele>
<time>2013-05-04T13:20:55.000Z</time>
</trkpt>
<trkpt lat="42.653815" lon="-2.302572">
<ele>1944</ele>
<time>2013-05-04T13:20:56.000Z</time>
</trkpt>
<trkpt lat="42.65383" lon="-2.302503">
<ele>1944</ele>
<time>2013-05-04T13:20:57.000Z</time>
</trkpt>
<trkpt lat="42.653845" lon="-2.302428">
<ele>1943</ele>
<time>2013-05-04T13:20:58.000Z</time>
</trkpt>
<trkpt lat="42.653861" lon="-2.30235">
<ele>1942</ele>
<time>2013-05-04T13:20:59.000Z</time>
</trkpt>
<trkpt lat="42.653878" lon="-2.302278">
<ele>1942</ele>
<time>2013-05-04T13:21:00.000Z</time>
</trkpt>
<trkpt lat="42.653895" lon="-2.302212">
<ele>1943</ele>
<time>2013-05-04T13:21:01.000Z</time>
</trkpt>
<trkpt lat="42.65391" lon="-2.302146">
<ele>1943</ele>
<time>2013-05-04T13:21:02.000Z</time>
</trkpt>
<trkpt lat="42.653926" lon="-2.302079">
<ele>1943</ele>
<time>2013-05-04T13:21:03.000Z</time>
</trkpt>
<trkpt lat="42.653941" lon="-2.302013">
<ele>1943</ele>
<time>2013-05-04T13:21:04.000Z</time>
</trkpt>
<trkpt lat="42.653956" lon="-2.301949">
<ele>1943</ele>
<time>2013-05-04T13:21:05.000Z</time>
</trkpt>
<trkpt lat="42.653971" lon="-2.301885">
<ele>1943</ele>
<time>2013-05-04T13:21:06.000Z</time>
</trkpt>
<trkpt lat="42.653987" lon="-2.301817">
<ele>1943</ele>
<time>2013-05-04T13:21:07.000Z</time>
</trkpt>
<trkpt lat="42.654005" lon="-2.301743">
<ele>1942</ele>
<time>2013-05-04T13:21:08.000Z</time>
</trkpt>
<trkpt lat="42.654024" lon="-2.301668">
<ele>1942</ele>
<time>2013-05-04T13:21:09.000Z</time>
</trkpt>
<trkpt lat="42.654043" lon="-2.301592">
<ele>1941</ele>
<time>2013-05-04T13:21:10.000Z</time>
</trkpt>
<trkpt lat="42.654057" lon="-2.301525">
<ele>1942</ele>
<time>2013-05-04T13:21:11.000Z</time>
</trkpt>
<trkpt lat="42.654055" lon="-2.301474">
<ele>1942</ele>
<time>2013-05-04T13:21:12.000Z</time>
</trkpt>
<trkpt lat="42.654052" lon="-2.301427">
<ele>1941</ele>
<time>2013-05-04T13:21:13.000Z</time>
</trkpt>
<trkpt lat="42.654047" lon="-2.301362">
<ele>1940</ele>
<time>2013-05-04T13:21:14.000Z</time>
</trkpt>
<trkpt lat="42.654042" lon="-2.301281">
<ele>1938</ele>
<time>2013-05-04T13:21:15.000Z</time>
</trkpt>
<trkpt lat="42.654035" lon="-2.301186">
<ele>1937</ele>
<time>2013-05-04T13:21:16.000Z</time>
</trkpt>
<trkpt lat="42.654021" lon="-2.301046">
<ele>1932</ele>
<time>2013-05-04T13:21:18.000Z</time>
</trkpt>
<trkpt lat="42.654017" lon="-2.300995">
<ele>1931</ele>
<time>2013-05-04T13:21:19.000Z</time>
</trkpt>
<trkpt lat="42.654025" lon="-2.30093">
<ele>1930</ele>
<time>2013-05-04T13:21:20.000Z</time>
</trkpt>
<trkpt lat="42.654034" lon="-2.300853">
<ele>1929</ele>
<time>2013-05-04T13:21:21.000Z</time>
</trkpt>
<trkpt lat="42.654043" lon="-2.300765">
<ele>1929</ele>
<time>2013-05-04T13:21:22.000Z</time>
</trkpt>
<trkpt lat="42.654046" lon="-2.300674">
<ele>1928</ele>
<time>2013-05-04T13:21:23.000Z</time>
</trkpt>
<trkpt lat="42.654044" lon="-2.300579">
<ele>1928</ele>
<time>2013-05-04T13:21:24.000Z</time>
</trkpt>
<trkpt lat="42.654043" lon="-2.300489">
<ele>1929</ele>
<time>2013-05-04T13:21:25.000Z</time>
</trkpt>
<trkpt lat="42.654042" lon="-2.30041">
<ele>1930</ele>
<time>2013-05-04T13:21:26.000Z</time>
</trkpt>
<trkpt lat="42.654039" lon="-2.300335">
<ele>1930</ele>
<time>2013-05-04T13:21:27.000Z</time>
</trkpt>
<trkpt lat="42.654033" lon="-2.30026">
<ele>1931</ele>
<time>2013-05-04T13:21:28.000Z</time>
</trkpt>
<trkpt lat="42.654023" lon="-2.300186">
<ele>1930</ele>
<time>2013-05-04T13:21:29.000Z</time>
</trkpt>
<trkpt lat="42.654017" lon="-2.300112">
<ele>1929</ele>
<time>2013-05-04T13:21:30.000Z</time>
</trkpt>
<trkpt lat="42.654028" lon="-2.300044">
<ele>1928</ele>
<time>2013-05-04T13:21:31.000Z</time>
</trkpt>
<trkpt lat="42.654055" lon="-2.299972">
<ele>1926</ele>
<time>2013-05-04T13:21:32.000Z</time>
</trkpt>
<trkpt lat="42.654089" lon="-2.299898">
<ele>1926</ele>
<time>2013-05-04T13:21:33.000Z</time>
</trkpt>
<trkpt lat="42.654124" lon="-2.299828">
<ele>1926</ele>
<time>2013-05-04T13:21:34.000Z</time>
</trkpt>
<trkpt lat="42.654158" lon="-2.29976">
<ele>1927</ele>
<time>2013-05-04T13:21:35.000Z</time>
</trkpt>
<trkpt lat="42.654187" lon="-2.299698">
<ele>1928</ele>
<time>2013-05-04T13:21:36.000Z</time>
</trkpt>
<trkpt lat="42.654221" lon="-2.29965">
<ele>1931</ele>
<time>2013-05-04T13:21:37.000Z</time>
</trkpt>
<trkpt lat="42.654255" lon="-2.299607">
<ele>1932</ele>
<time>2013-05-04T13:21:38.000Z</time>
</trkpt>
<trkpt lat="42.65429" lon="-2.299567">
<ele>1934</ele>
<time>2013-05-04T13:21:39.000Z</time>
</trkpt>
<trkpt lat="42.654325" lon="-2.299521">
<ele>1936</ele>
<time>2013-05-04T13:21:40.000Z</time>
</trkpt>
<trkpt lat="42.654353" lon="-2.299464">
<ele>1937</ele>
<time>2013-05-04T13:21:41.000Z</time>
</trkpt>
<trkpt lat="42.654385" lon="-2.299396">
<ele>1939</ele>
<time>2013-05-04T13:21:42.000Z</time>
</trkpt>
<trkpt lat="42.654419" lon="-2.299324">
<ele>1941</ele>
<time>2013-05-04T13:21:43.000Z</time>
</trkpt>
<trkpt lat="42.654454" lon="-2.299249">
<ele>1943</ele>
<time>2013-05-04T13:21:44.000Z</time>
</trkpt>
<trkpt lat="42.654487" lon="-2.299175">
<ele>1946</ele>
<time>2013-05-04T13:21:45.000Z</time>
</trkpt>
<trkpt lat="42.654515" lon="-2.299098">
<ele>1949</ele>
<time>2013-05-04T13:21:46.000Z</time>
</trkpt>
<trkpt lat="42.65454" lon="-2.299019">
<ele>1952</ele>
<time>2013-05-04T13:21:47.000Z</time>
</trkpt>
<trkpt lat="42.65456" lon="-2.298947">
<ele>1955</ele>
<time>2013-05-04T13:21:48.000Z</time>
</trkpt>
<trkpt lat="42.65458" lon="-2.29888">
<ele>1959</ele>
<time>2013-05-04T13:21:49.000Z</time>
</trkpt>
<trkpt lat="42.654604" lon="-2.29881">
<ele>1962</ele>
<time>2013-05-04T13:21:50.000Z</time>
</trkpt>
<trkpt lat="42.654629" lon="-2.298736">
<ele>1966</ele>
<time>2013-05-04T13:21:51.000Z</time>
</trkpt>
<trkpt lat="42.654644" lon="-2.298654">
<ele>1970</ele>
<time>2013-05-04T13:21:52.000Z</time>
</trkpt>
<trkpt lat="42.654637" lon="-2.298571">
<ele>1973</ele>
<time>2013-05-04T13:21:53.000Z</time>
</trkpt>
<trkpt lat="42.65461" lon="-2.298488">
<ele>1976</ele>
<time>2013-05-04T13:21:54.000Z</time>
</trkpt>
<trkpt lat="42.654562" lon="-2.298404">
<ele>1978</ele>
<time>2013-05-04T13:21:55.000Z</time>
</trkpt>
<trkpt lat="42.65451" lon="-2.298318">
<ele>1981</ele>
<time>2013-05-04T13:21:56.000Z</time>
</trkpt>
<trkpt lat="42.654461" lon="-2.298247">
<ele>1983</ele>
<time>2013-05-04T13:21:57.000Z</time>
</trkpt>
<trkpt lat="42.654402" lon="-2.298201">
<ele>1985</ele>
<time>2013-05-04T13:21:58.000Z</time>
</trkpt>
<trkpt lat="42.654341" lon="-2.298183">
<ele>1987</ele>
<time>2013-05-04T13:21:59.000Z</time>
</trkpt>
<trkpt lat="42.654274" lon="-2.298183">
<ele>1988</ele>
<time>2013-05-04T13:22:00.000Z</time>
</trkpt>
<trkpt lat="42.654195" lon="-2.298183">
<ele>1991</ele>
<time>2013-05-04T13:22:01.000Z</time>
</trkpt>
<trkpt lat="42.654111" lon="-2.298189">
<ele>1995</ele>
<time>2013-05-04T13:22:02.000Z</time>
</trkpt>
<trkpt lat="42.654033" lon="-2.298232">
<ele>1999</ele>
<time>2013-05-04T13:22:03.000Z</time>
</trkpt>
<trkpt lat="42.653964" lon="-2.2983">
<ele>2002</ele>
<time>2013-05-04T13:22:04.000Z</time>
</trkpt>
<trkpt lat="42.653914" lon="-2.298383">
<ele>2004</ele>
<time>2013-05-04T13:22:05.000Z</time>
</trkpt>
<trkpt lat="42.653881" lon="-2.298476">
<ele>2007</ele>
<time>2013-05-04T13:22:06.000Z</time>
</trkpt>
<trkpt lat="42.653855" lon="-2.298567">
<ele>2010</ele>
<time>2013-05-04T13:22:07.000Z</time>
</trkpt>
<trkpt lat="42.653854" lon="-2.298643">
<ele>2012</ele>
<time>2013-05-04T13:22:08.000Z</time>
</trkpt>
<trkpt lat="42.653868" lon="-2.298717">
<ele>2015</ele>
<time>2013-05-04T13:22:09.000Z</time>
</trkpt>
<trkpt lat="42.653896" lon="-2.298791">
<ele>2019</ele>
<time>2013-05-04T13:22:10.000Z</time>
</trkpt>
<trkpt lat="42.653927" lon="-2.298869">
<ele>2024</ele>
<time>2013-05-04T13:22:11.000Z</time>
</trkpt>
<trkpt lat="42.653968" lon="-2.298927">
<ele>2028</ele>
<time>2013-05-04T13:22:12.000Z</time>
</trkpt>
<trkpt lat="42.654014" lon="-2.298964">
<ele>2031</ele>
<time>2013-05-04T13:22:13.000Z</time>
</trkpt>
<trkpt lat="42.65407" lon="-2.298969">
<ele>2034</ele>
<time>2013-05-04T13:22:14.000Z</time>
</trkpt>
<trkpt lat="42.654133" lon="-2.298945">
<ele>2036</ele>
<time>2013-05-04T13:22:15.000Z</time>
</trkpt>
<trkpt lat="42.654204" lon="-2.298908">
<ele>2038</ele>
<time>2013-05-04T13:22:16.000Z</time>
</trkpt>
<trkpt lat="42.654272" lon="-2.298782">
<ele>2043</ele>
<time>2013-05-04T13:22:18.000Z</time>
</trkpt>
<trkpt lat="42.654279" lon="-2.298697">
<ele>2045</ele>
<time>2013-05-04T13:22:19.000Z</time>
</trkpt>
<trkpt lat="42.654283" lon="-2.298613">
<ele>2045</ele>
<time>2013-05-04T13:22:20.000Z</time>
</trkpt>
<trkpt lat="42.654287" lon="-2.298517">
<ele>2048</ele>
<time>2013-05-04T13:22:21.000Z</time>
</trkpt>
<trkpt lat="42.654287" lon="-2.298415">
<ele>2050</ele>
<time>2013-05-04T13:22:22.000Z</time>
</trkpt>
<trkpt lat="42.654262" lon="-2.298311">
<ele>2052</ele>
<time>2013-05-04T13:22:23.000Z</time>
</trkpt>
<trkpt lat="42.654212" lon="-2.298223">
<ele>2054</ele>
<time>2013-05-04T13:22:24.000Z</time>
</trkpt>
<trkpt lat="42.654149" lon="-2.29816">
<ele>2055</ele>
<time>2013-05-04T13:22:25.000Z</time>
</trkpt>
<trkpt lat="42.654082" lon="-2.298104">
<ele>2056</ele>
<time>2013-05-04T13:22:26.000Z</time>
</trkpt>
<trkpt lat="42.654007" lon="-2.298056">
<ele>2058</ele>
<time>2013-05-04T13:22:27.000Z</time>
</trkpt>
<trkpt lat="42.653922" lon="-2.298037">
<ele>2060</ele>
<time>2013-05-04T13:22:28.000Z</time>
</trkpt>
<trkpt lat="42.653829" lon="-2.29803">
<ele>2061</ele>
<time>2013-05-04T13:22:29.000Z</time>
</trkpt>
<trkpt lat="42.653726" lon="-2.298072">
<ele>2062</ele>
<time>2013-05-04T13:22:30.000Z</time>
</trkpt>
<trkpt lat="42.653635" lon="-2.298139">
<ele>2064</ele>
<time>2013-05-04T13:22:31.000Z</time>
</trkpt>
<trkpt lat="42.653561" lon="-2.298202">
<ele>2067</ele>
<time>2013-05-04T13:22:32.000Z</time>
</trkpt>
<trkpt lat="42.653518" lon="-2.29828">
<ele>2068</ele>
<time>2013-05-04T13:22:33.000Z</time>
</trkpt>
<trkpt lat="42.653478" lon="-2.298365">
<ele>2069</ele>
<time>2013-05-04T13:22:34.000Z</time>
</trkpt>
<trkpt lat="42.653439" lon="-2.298457">
<ele>2070</ele>
<time>2013-05-04T13:22:35.000Z</time>
</trkpt>
<trkpt lat="42.653401" lon="-2.298552">
<ele>2070</ele>
<time>2013-05-04T13:22:36.000Z</time>
</trkpt>
<trkpt lat="42.65337" lon="-2.298656">
<ele>2073</ele>
<time>2013-05-04T13:22:37.000Z</time>
</trkpt>
<trkpt lat="42.653356" lon="-2.298766">
<ele>2077</ele>
<time>2013-05-04T13:22:38.000Z</time>
</trkpt>
<trkpt lat="42.653344" lon="-2.298854">
<ele>2081</ele>
<time>2013-05-04T13:22:39.000Z</time>
</trkpt>
<trkpt lat="42.653334" lon="-2.298932">
<ele>2085</ele>
<time>2013-05-04T13:22:40.000Z</time>
</trkpt>
<trkpt lat="42.653325" lon="-2.299003">
<ele>2088</ele>
<time>2013-05-04T13:22:41.000Z</time>
</trkpt>
<trkpt lat="42.653321" lon="-2.299081">
<ele>2090</ele>
<time>2013-05-04T13:22:42.000Z</time>
</trkpt>
<trkpt lat="42.653332" lon="-2.299177">
<ele>2091</ele>
<time>2013-05-04T13:22:43.000Z</time>
</trkpt>
<trkpt lat="42.653349" lon="-2.299278">
<ele>2092</ele>
<time>2013-05-04T13:22:44.000Z</time>
</trkpt>
<trkpt lat="42.653372" lon="-2.299378">
<ele>2094</ele>
<time>2013-05-04T13:22:45.000Z</time>
</trkpt>
<trkpt lat="42.653419" lon="-2.299454">
<ele>2098</ele>
<time>2013-05-04T13:22:46.000Z</time>
</trkpt>
<trkpt lat="42.653468" lon="-2.299501">
<ele>2102</ele>
<time>2013-05-04T13:22:47.000Z</time>
</trkpt>
<trkpt lat="42.653517" lon="-2.299527">
<ele>2104</ele>
<time>2013-05-04T13:22:48.000Z</time>
</trkpt>
<trkpt lat="42.653568" lon="-2.299544">
<ele>2107</ele>
<time>2013-05-04T13:22:49.000Z</time>
</trkpt>
<trkpt lat="42.653627" lon="-2.299542">
<ele>2108</ele>
<time>2013-05-04T13:22:50.000Z</time>
</trkpt>
<trkpt lat="42.653687" lon="-2.299515">
<ele>2111</ele>
<time>2013-05-04T13:22:51.000Z</time>
</trkpt>
<trkpt lat="42.653734" lon="-2.299469">
<ele>2113</ele>
<time>2013-05-04T13:22:52.000Z</time>
</trkpt>
<trkpt lat="42.653759" lon="-2.299418">
<ele>2115</ele>
<time>2013-05-04T13:22:53.000Z</time>
</trkpt>
<trkpt lat="42.653781" lon="-2.299372">
<ele>2117</ele>
<time>2013-05-04T13:22:54.000Z</time>
</trkpt>
<trkpt lat="42.653801" lon="-2.29933">
<ele>2119</ele>
<time>2013-05-04T13:22:55.000Z</time>
</trkpt>
<trkpt lat="42.653825" lon="-2.299289">
<ele>2121</ele>
<time>2013-05-04T13:22:56.000Z</time>
</trkpt>
<trkpt lat="42.653852" lon="-2.299244">
<ele>2123</ele>
<time>2013-05-04T13:22:57.000Z</time>
</trkpt>
<trkpt lat="42.653868" lon="-2.299183">
<ele>2124</ele>
<time>2013-05-04T13:22:58.000Z</time>
</trkpt>
<trkpt lat="42.653874" lon="-2.299101">
<ele>2126</ele>
<time>2013-05-04T13:22:59.000Z</time>
</trkpt>
<trkpt lat="42.653864" lon="-2.29901">
<ele>2128</ele>
<time>2013-05-04T13:23:00.000Z</time>
</trkpt>
<trkpt lat="42.653847" lon="-2.298918">
<ele>2131</ele>
<time>2013-05-04T13:23:01.000Z</time>
</trkpt>
<trkpt lat="42.653816" lon="-2.298834">
<ele>2133</ele>
<time>2013-05-04T13:23:02.000Z</time>
</trkpt>
<trkpt lat="42.653785" lon="-2.298758">
<ele>2136</ele>
<time>2013-05-04T13:23:03.000Z</time>
</trkpt>
<trkpt lat="42.65375" lon="-2.298684">
<ele>2139</ele>
<time>2013-05-04T13:23:04.000Z</time>
</trkpt>
<trkpt lat="42.653709" lon="-2.298611">
<ele>2141</ele>
<time>2013-05-04T13:23:05.000Z</time>
</trkpt>
<trkpt lat="42.653649" lon="-2.298547">
<ele>2143</ele>
<time>2013-05-04T13:23:06.000Z</time>
</trkpt>
<trkpt lat="42.653578" lon="-2.298488">
<ele>2144</ele>
<time>2013-05-04T13:23:07.000Z</time>
</trkpt>
<trkpt lat="42.653483" lon="-2.298464">
<ele>2147</ele>
<time>2013-05-04T13:23:08.000Z</time>
</trkpt>
<trkpt lat="42.65339" lon="-2.29847">
<ele>2150</ele>
<time>2013-05-04T13:23:09.000Z</time>
</trkpt>
<trkpt lat="42.653309" lon="-2.298482">
<ele>2153</ele>
<time>2013-05-04T13:23:10.000Z</time>
</trkpt>
<trkpt lat="42.653232" lon="-2.298502">
<ele>2155</ele>
<time>2013-05-04T13:23:11.000Z</time>
</trkpt>
<trkpt lat="42.653152" lon="-2.298528">
<ele>2157</ele>
<time>2013-05-04T13:23:12.000Z</time>
</trkpt>
<trkpt lat="42.653069" lon="-2.298561">
<ele>2158</ele>
<time>2013-05-04T13:23:13.000Z</time>
</trkpt>
<trkpt lat="42.652982" lon="-2.29861">
<ele>2158</ele>
<time>2013-05-04T13:23:14.000Z</time>
</trkpt>
<trkpt lat="42.652899" lon="-2.298692">
<ele>2157</ele>
<time>2013-05-04T13:23:15.000Z</time>
</trkpt>
<trkpt lat="42.652822" lon="-2.298779">
<ele>2157</ele>
<time>2013-05-04T13:23:16.000Z</time>
</trkpt>
<trkpt lat="42.652723" lon="-2.298971">
<ele>2160</ele>
<time>2013-05-04T13:23:18.000Z</time>
</trkpt>
<trkpt lat="42.652696" lon="-2.299075">
<ele>2161</ele>
<time>2013-05-04T13:23:19.000Z</time>
</trkpt>
<trkpt lat="42.652674" lon="-2.299176">
<ele>2163</ele>
<time>2013-05-04T13:23:20.000Z</time>
</trkpt>
<trkpt lat="42.65267" lon="-2.299269">
<ele>2164</ele>
<time>2013-05-04T13:23:21.000Z</time>
</trkpt>
<trkpt lat="42.652679" lon="-2.299363">
<ele>2165</ele>
<time>2013-05-04T13:23:22.000Z</time>
</trkpt>
<trkpt lat="42.652704" lon="-2.299457">
<ele>2166</ele>
<time>2013-05-04T13:23:23.000Z</time>
</trkpt>
<trkpt lat="42.652735" lon="-2.29954">
<ele>2168</ele>
<time>2013-05-04T13:23:24.000Z</time>
</trkpt>
<trkpt lat="42.652782" lon="-2.299601">
<ele>2170</ele>
<time>2013-05-04T13:23:25.000Z</time>
</trkpt>
<trkpt lat="42.652828" lon="-2.299651">
<ele>2171</ele>
<time>2013-05-04T13:23:26.000Z</time>
</trkpt>
<trkpt lat="42.652882" lon="-2.29969">
<ele>2173</ele>
<time>2013-05-04T13:23:27.000Z</time>
</trkpt>
<trkpt lat="42.652936" lon="-2.299727">
<ele>2175</ele>
<time>2013-05-04T13:23:28.000Z</time>
</trkpt>
<trkpt lat="42.652986" lon="-2.299757">
<ele>2176</ele>
<time>2013-05-04T13:23:29.000Z</time>
</trkpt>
<trkpt lat="42.653034" lon="-2.299787">
<ele>2178</ele>
<time>2013-05-04T13:23:30.000Z</time>
</trkpt>
<trkpt lat="42.653089" lon="-2.29982">
<ele>2179</ele>
<time>2013-05-04T13:23:31.000Z</time>
</trkpt>
<trkpt lat="42.653152" lon="-2.299855">
<ele>2179</ele>
<time>2013-05-04T13:23:32.000Z</time>
</trkpt>
<trkpt lat="42.653222" lon="-2.299889">
<ele>2180</ele>
<time>2013-05-04T13:23:33.000Z</time>
</trkpt>
<trkpt lat="42.65329" lon="-2.299915">
<ele>2182</ele>
<time>2013-05-04T13:23:34.000Z</time>
</trkpt>
<trkpt lat="42.653353" lon="-2.29993">
<ele>2183</ele>
<time>2013-05-04T13:23:35.000Z</time>
</trkpt>
<trkpt lat="42.653411" lon="-2.299938">
<ele>2185</ele>
<time>2013-05-04T13:23:36.000Z</time>
</trkpt>
<trkpt lat="42.653466" lon="-2.299942">
<ele>2186</ele>
<time>2013-05-04T13:23:37.000Z</time>
</trkpt>
<trkpt lat="42.653524" lon="-2.299942">
<ele>2187</ele>
<time>2013-05-04T13:23:38.000Z</time>
</trkpt>
<trkpt lat="42.653587" lon="-2.299939">
<ele>2187</ele>
<time>2013-05-04T13:23:39.000Z</time>
</trkpt>
<trkpt lat="42.653651" lon="-2.299933">
<ele>2188</ele>
<time>2013-05-04T13:23:40.000Z</time>
</trkpt>
<trkpt lat="42.653713" lon="-2.299908">
<ele>2188</ele>
<time>2013-05-04T13:23:41.000Z</time>
</trkpt>
<trkpt lat="42.65377" lon="-2.299878">
<ele>2188</ele>
<time>2013-05-04T13:23:42.000Z</time>
</trkpt>
<trkpt lat="42.653823" lon="-2.299821">
<ele>2188</ele>
<time>2013-05-04T13:23:43.000Z</time>
</trkpt>
<trkpt lat="42.653865" lon="-2.299743">
<ele>2188</ele>
<time>2013-05-04T13:23:44.000Z</time>
</trkpt>
<trkpt lat="42.65389" lon="-2.29966">
<ele>2189</ele>
<time>2013-05-04T13:23:45.000Z</time>
</trkpt>
<trkpt lat="42.653911" lon="-2.299577">
<ele>2190</ele>
<time>2013-05-04T13:23:46.000Z</time>
</trkpt>
<trkpt lat="42.653929" lon="-2.299496">
<ele>2190</ele>
<time>2013-05-04T13:23:47.000Z</time>
</trkpt>
<trkpt lat="42.653942" lon="-2.299411">
<ele>2191</ele>
<time>2013-05-04T13:23:48.000Z</time>
</trkpt>
<trkpt lat="42.653938" lon="-2.299311">
<ele>2192</ele>
<time>2013-05-04T13:23:49.000Z</time>
</trkpt>
<trkpt lat="42.653927" lon="-2.299198">
<ele>2192</ele>
<time>2013-05-04T13:23:50.000Z</time>
</trkpt>
<trkpt lat="42.653891" lon="-2.299102">
<ele>2191</ele>
<time>2013-05-04T13:23:51.000Z</time>
</trkpt>
<trkpt lat="42.653851" lon="-2.299009">
<ele>2190</ele>
<time>2013-05-04T13:23:52.000Z</time>
</trkpt>
<trkpt lat="42.653809" lon="-2.298911">
<ele>2191</ele>
<time>2013-05-04T13:23:53.000Z</time>
</trkpt>
<trkpt lat="42.65377" lon="-2.298819">
<ele>2192</ele>
<time>2013-05-04T13:23:54.000Z</time>
</trkpt>
<trkpt lat="42.653736" lon="-2.298727">
<ele>2192</ele>
<time>2013-05-04T13:23:55.000Z</time>
</trkpt>
<trkpt lat="42.653704" lon="-2.298636">
<ele>2191</ele>
<time>2013-05-04T13:23:56.000Z</time>
</trkpt>
<trkpt lat="42.653674" lon="-2.298553">
<ele>2193</ele>
<time>2013-05-04T13:23:57.000Z</time>
</trkpt>
<trkpt lat="42.653647" lon="-2.298479">
<ele>2194</ele>
<time>2013-05-04T13:23:58.000Z</time>
</trkpt>
<trkpt lat="42.653621" lon="-2.298398">
<ele>2195</ele>
<time>2013-05-04T13:23:59.000Z</time>
</trkpt>
<trkpt lat="42.653609" lon="-2.298307">
<ele>2196</ele>
<time>2013-05-04T13:24:00.000Z</time>
</trkpt>
<trkpt lat="42.653611" lon="-2.298209">
<ele>2196</ele>
<time>2013-05-04T13:24:01.000Z</time>
</trkpt>
<trkpt lat="42.653632" lon="-2.298108">
<ele>2195</ele>
<time>2013-05-04T13:24:02.000Z</time>
</trkpt>
<trkpt lat="42.653655" lon="-2.298017">
<ele>2195</ele>
<time>2013-05-04T13:24:03.000Z</time>
</trkpt>
<trkpt lat="42.653674" lon="-2.297933">
<ele>2195</ele>
<time>2013-05-04T13:24:04.000Z</time>
</trkpt>
<trkpt lat="42.653677" lon="-2.297847">
<ele>2196</ele>
<time>2013-05-04T13:24:05.000Z</time>
</trkpt>
<trkpt lat="42.653679" lon="-2.297758">
<ele>2197</ele>
<time>2013-05-04T13:24:06.000Z</time>
</trkpt>
<trkpt lat="42.653682" lon="-2.297669">
<ele>2198</ele>
<time>2013-05-04T13:24:07.000Z</time>
</trkpt>
<trkpt lat="42.653688" lon="-2.297575">
<ele>2197</ele>
<time>2013-05-04T13:24:08.000Z</time>
</trkpt>
<trkpt lat="42.653698" lon="-2.29747">
<ele>2197</ele>
<time>2013-05-04T13:24:09.000Z</time>
</trkpt>
<trkpt lat="42.653709" lon="-2.297351">
<ele>2197</ele>
<time>2013-05-04T13:24:10.000Z</time>
</trkpt>
<trkpt lat="42.653723" lon="-2.297228">
<ele>2194</ele>
<time>2013-05-04T13:24:11.000Z</time>
</trkpt>
<trkpt lat="42.653749" lon="-2.297129">
<ele>2194</ele>
<time>2013-05-04T13:24:12.000Z</time>
</trkpt>
<trkpt lat="42.653784" lon="-2.297076">
<ele>2193</ele>
<time>2013-05-04T13:24:13.000Z</time>
</trkpt>
<trkpt lat="42.653822" lon="-2.29703">
<ele>2193</ele>
<time>2013-05-04T13:24:14.000Z</time>
</trkpt>
<trkpt lat="42.653872" lon="-2.296979">
<ele>2191</ele>
<time>2013-05-04T13:24:15.000Z</time>
</trkpt>
<trkpt lat="42.653933" lon="-2.296917">
<ele>2189</ele>
<time>2013-05-04T13:24:16.000Z</time>
</trkpt>
<trkpt lat="42.654097" lon="-2.296821">
<ele>2184</ele>
<time>2013-05-04T13:24:18.000Z</time>
</trkpt>
<trkpt lat="42.654187" lon="-2.296809">
<ele>2182</ele>
<time>2013-05-04T13:24:19.000Z</time>
</trkpt>
<trkpt lat="42.65427" lon="-2.296809">
<ele>2180</ele>
<time>2013-05-04T13:24:20.000Z</time>
</trkpt>
<trkpt lat="42.654348" lon="-2.296837">
<ele>2178</ele>
<time>2013-05-04T13:24:21.000Z</time>
</trkpt>
<trkpt lat="42.654423" lon="-2.296868">
<ele>2175</ele>
<time>2013-05-04T13:24:22.000Z</time>
</trkpt>
<trkpt lat="42.654506" lon="-2.296909">
<ele>2172</ele>
<time>2013-05-04T13:24:23.000Z</time>
</trkpt>
<trkpt lat="42.65459" lon="-2.296959">
<ele>2170</ele>
<time>2013-05-04T13:24:24.000Z</time>
</trkpt>
<trkpt lat="42.654667" lon="-2.297038">
<ele>2167</ele>
<time>2013-05-04T13:24:25.000Z</time>
</trkpt>
<trkpt lat="42.65474" lon="-2.29712">
<ele>2166</ele>
<time>2013-05-04T13:24:26.000Z</time>
</trkpt>
<trkpt lat="42.654808" lon="-2.297204">
<ele>2165</ele>
<time>2013-05-04T13:24:27.000Z</time>
</trkpt>
<trkpt lat="42.654866" lon="-2.297287">
<ele>2164</ele>
<time>2013-05-04T13:24:28.000Z</time>
</trkpt>
<trkpt lat="42.654929" lon="-2.297388">
<ele>2163</ele>
<time>2013-05-04T13:24:29.000Z</time>
</trkpt>
<trkpt lat="42.655002" lon="-2.297501">
<ele>2162</ele>
<time>2013-05-04T13:24:30.000Z</time>
</trkpt>
<trkpt lat="42.655067" lon="-2.297612">
<ele>2161</ele>
<time>2013-05-04T13:24:31.000Z</time>
</trkpt>
<trkpt lat="42.655119" lon="-2.297716">
<ele>2160</ele>
<time>2013-05-04T13:24:32.000Z</time>
</trkpt>
<trkpt lat="42.655158" lon="-2.297818">
<ele>2157</ele>
<time>2013-05-04T13:24:33.000Z</time>
</trkpt>
<trkpt lat="42.655196" lon="-2.297918">
<ele>2155</ele>
<time>2013-05-04T13:24:34.000Z</time>
</trkpt>
<trkpt lat="42.655238" lon="-2.298028">
<ele>2153</ele>
<time>2013-05-04T13:24:35.000Z</time>
</trkpt>
<trkpt lat="42.65528" lon="-2.29813">
<ele>2152</ele>
<time>2013-05-04T13:24:36.000Z</time>
</trkpt>
<trkpt lat="42.655329" lon="-2.298195">
<ele>2151</ele>
<time>2013-05-04T13:24:37.000Z</time>
</trkpt>
<trkpt lat="42.655391" lon="-2.29822">
<ele>2150</ele>
<time>2013-05-04T13:24:38.000Z</time>
</trkpt>
<trkpt lat="42.655471" lon="-2.298219">
<ele>2147</ele>
<time>2013-05-04T13:24:39.000Z</time>
</trkpt>
<trkpt lat="42.655553" lon="-2.298189">
<ele>2146</ele>
<time>2013-05-04T13:24:40.000Z</time>
</trkpt>
<trkpt lat="42.655636" lon="-2.298146">
<ele>2144</ele>
<time>2013-05-04T13:24:41.000Z</time>
</trkpt>
<trkpt lat="42.655698" lon="-2.298079">
<ele>2143</ele>
<time>2013-05-04T13:24:42.000Z</time>
</trkpt>
<trkpt lat="42.655762" lon="-2.298007">
<ele>2142</ele>
<time>2013-05-04T13:24:43.000Z</time>
</trkpt>
<trkpt lat="42.655822" lon="-2.297937">
<ele>2141</ele>
<time>2013-05-04T13:24:44.000Z</time>
</trkpt>
<trkpt lat="42.65588" lon="-2.297869">
<ele>2140</ele>
<time>2013-05-04T13:24:45.000Z</time>
</trkpt>
<trkpt lat="42.655936" lon="-2.297804">
<ele>2139</ele>
<time>2013-05-04T13:24:46.000Z</time>
</trkpt>
<trkpt lat="42.655991" lon="-2.297729">
<ele>2138</ele>
<time>2013-05-04T13:24:47.000Z</time>
</trkpt>
<trkpt lat="42.656025" lon="-2.297631">
<ele>2136</ele>
<time>2013-05-04T13:24:48.000Z</time>
</trkpt>
<trkpt lat="42.656054" lon="-2.297531">
<ele>2134</ele>
<time>2013-05-04T13:24:49.000Z</time>
</trkpt>
<trkpt lat="42.656074" lon="-2.29744">
<ele>2134</ele>
<time>2013-05-04T13:24:50.000Z</time>
</trkpt>
<trkpt lat="42.656086" lon="-2.297362">
<ele>2132</ele>
<time>2013-05-04T13:24:51.000Z</time>
</trkpt>
<trkpt lat="42.656095" lon="-2.297288">
<ele>2131</ele>
<time>2013-05-04T13:24:52.000Z</time>
</trkpt>
<trkpt lat="42.656101" lon="-2.297204">
<ele>2131</ele>
<time>2013-05-04T13:24:53.000Z</time>
</trkpt>
<trkpt lat="42.656108" lon="-2.297097">
<ele>2129</ele>
<time>2013-05-04T13:24:54.000Z</time>
</trkpt>
<trkpt lat="42.656118" lon="-2.296974">
<ele>2126</ele>
<time>2013-05-04T13:24:55.000Z</time>
</trkpt>
<trkpt lat="42.656134" lon="-2.296844">
<ele>2124</ele>
<time>2013-05-04T13:24:56.000Z</time>
</trkpt>
<trkpt lat="42.656154" lon="-2.296728">
<ele>2122</ele>
<time>2013-05-04T13:24:57.000Z</time>
</trkpt>
<trkpt lat="42.656179" lon="-2.296628">
<ele>2120</ele>
<time>2013-05-04T13:24:58.000Z</time>
</trkpt>
<trkpt lat="42.65621" lon="-2.296531">
<ele>2120</ele>
<time>2013-05-04T13:24:59.000Z</time>
</trkpt>
<trkpt lat="42.656247" lon="-2.296433">
<ele>2118</ele>
<time>2013-05-04T13:25:00.000Z</time>
</trkpt>
<trkpt lat="42.65629" lon="-2.29634">
<ele>2117</ele>
<time>2013-05-04T13:25:01.000Z</time>
</trkpt>
<trkpt lat="42.656352" lon="-2.296262">
<ele>2115</ele>
<time>2013-05-04T13:25:02.000Z</time>
</trkpt>
<trkpt lat="42.656411" lon="-2.296188">
<ele>2112</ele>
<time>2013-05-04T13:25:03.000Z</time>
</trkpt>
<trkpt lat="42.65647" lon="-2.296111">
<ele>2110</ele>
<time>2013-05-04T13:25:04.000Z</time>
</trkpt>
<trkpt lat="42.656513" lon="-2.296021">
<ele>2109</ele>
<time>2013-05-04T13:25:05.000Z</time>
</trkpt>
<trkpt lat="42.656552" lon="-2.295928">
<ele>2107</ele>
<time>2013-05-04T13:25:06.000Z</time>
</trkpt>
<trkpt lat="42.656586" lon="-2.295827">
<ele>2104</ele>
<time>2013-05-04T13:25:07.000Z</time>
</trkpt>
<trkpt lat="42.656614" lon="-2.295724">
<ele>2101</ele>
<time>2013-05-04T13:25:08.000Z</time>
</trkpt>
<trkpt lat="42.656641" lon="-2.295618">
<ele>2097</ele>
<time>2013-05-04T13:25:09.000Z</time>
</trkpt>
<trkpt lat="42.656668" lon="-2.295512">
<ele>2095</ele>
<time>2013-05-04T13:25:10.000Z</time>
</trkpt>
<trkpt lat="42.656692" lon="-2.295405">
<ele>2093</ele>
<time>2013-05-04T13:25:11.000Z</time>
</trkpt>
<trkpt lat="42.656717" lon="-2.295293">
<ele>2090</ele>
<time>2013-05-04T13:25:12.000Z</time>
</trkpt>
<trkpt lat="42.656745" lon="-2.295179">
<ele>2088</ele>
<time>2013-05-04T13:25:13.000Z</time>
</trkpt>
<trkpt lat="42.65677" lon="-2.295064">
<ele>2085</ele>
<time>2013-05-04T13:25:14.000Z</time>
</trkpt>
<trkpt lat="42.656795" lon="-2.294947">
<ele>2083</ele>
<time>2013-05-04T13:25:15.000Z</time>
</trkpt>
<trkpt lat="42.656821" lon="-2.294823">
<ele>2080</ele>
<time>2013-05-04T13:25:16.000Z</time>
</trkpt>
<trkpt lat="42.656875" lon="-2.294569">
<ele>2076</ele>
<time>2013-05-04T13:25:18.000Z</time>
</trkpt>
<trkpt lat="42.656899" lon="-2.294446">
<ele>2075</ele>
<time>2013-05-04T13:25:19.000Z</time>
</trkpt>
<trkpt lat="42.656918" lon="-2.294324">
<ele>2073</ele>
<time>2013-05-04T13:25:20.000Z</time>
</trkpt>
<trkpt lat="42.656933" lon="-2.294203">
<ele>2071</ele>
<time>2013-05-04T13:25:21.000Z</time>
</trkpt>
<trkpt lat="42.656951" lon="-2.294073">
<ele>2069</ele>
<time>2013-05-04T13:25:22.000Z</time>
</trkpt>
<trkpt lat="42.656969" lon="-2.293947">
<ele>2067</ele>
<time>2013-05-04T13:25:23.000Z</time>
</trkpt>
<trkpt lat="42.656987" lon="-2.293826">
<ele>2065</ele>
<time>2013-05-04T13:25:24.000Z</time>
</trkpt>
<trkpt lat="42.657007" lon="-2.293703">
<ele>2062</ele>
<time>2013-05-04T13:25:25.000Z</time>
</trkpt>
<trkpt lat="42.657025" lon="-2.293583">
<ele>2060</ele>
<time>2013-05-04T13:25:26.000Z</time>
</trkpt>
<trkpt lat="42.65704" lon="-2.293471">
<ele>2057</ele>
<time>2013-05-04T13:25:27.000Z</time>
</trkpt>
<trkpt lat="42.657056" lon="-2.293358">
<ele>2053</ele>
<time>2013-05-04T13:25:28.000Z</time>
</trkpt>
<trkpt lat="42.657075" lon="-2.293246">
<ele>2049</ele>
<time>2013-05-04T13:25:29.000Z</time>
</trkpt>
<trkpt lat="42.657098" lon="-2.293127">
<ele>2046</ele>
<time>2013-05-04T13:25:30.000Z</time>
</trkpt>
<trkpt lat="42.657123" lon="-2.292991">
<ele>2044</ele>
<time>2013-05-04T13:25:31.000Z</time>
</trkpt>
<trkpt lat="42.657142" lon="-2.292845">
<ele>2041</ele>
<time>2013-05-04T13:25:32.000Z</time>
</trkpt>
<trkpt lat="42.657153" lon="-2.292696">
<ele>2038</ele>
<time>2013-05-04T13:25:33.000Z</time>
</trkpt>
<trkpt lat="42.657161" lon="-2.292562">
<ele>2036</ele>
<time>2013-05-04T13:25:34.000Z</time>
</trkpt>
<trkpt lat="42.657168" lon="-2.292441">
<ele>2033</ele>
<time>2013-05-04T13:25:35.000Z</time>
</trkpt>
<trkpt lat="42.657178" lon="-2.292326">
<ele>2031</ele>
<time>2013-05-04T13:25:36.000Z</time>
</trkpt>
<trkpt lat="42.657189" lon="-2.292206">
<ele>2029</ele>
<time>2013-05-04T13:25:37.000Z</time>
</trkpt>
<trkpt lat="42.657196" lon="-2.292061">
<ele>2027</ele>
<time>2013-05-04T13:25:38.000Z</time>
</trkpt>
<trkpt lat="42.657195" lon="-2.291894">
<ele>2024</ele>
<time>2013-05-04T13:25:39.000Z</time>
</trkpt>
<trkpt lat="42.657163" lon="-2.291743">
<ele>2023</ele>
<time>2013-05-04T13:25:40.000Z</time>
</trkpt>
<trkpt lat="42.657131" lon="-2.291618">
<ele>2021</ele>
<time>2013-05-04T13:25:41.000Z</time>
</trkpt>
<trkpt lat="42.657103" lon="-2.291486">
<ele>2021</ele>
<time>2013-05-04T13:25:42.000Z</time>
</trkpt>
<trkpt lat="42.657078" lon="-2.291362">
<ele>2017</ele>
<time>2013-05-04T13:25:43.000Z</time>
</trkpt>
<trkpt lat="42.657055" lon="-2.29122">
<ele>2014</ele>
<time>2013-05-04T13:25:44.000Z</time>
</trkpt>
<trkpt lat="42.657033" lon="-2.291052">
<ele>2013</ele>
<time>2013-05-04T13:25:45.000Z</time>
</trkpt>
<trkpt lat="42.657012" lon="-2.290899">
<ele>2014</ele>
<time>2013-05-04T13:25:46.000Z</time>
</trkpt>
<trkpt lat="42.656994" lon="-2.29078">
<ele>2015</ele>
<time>2013-05-04T13:25:47.000Z</time>
</trkpt>
<trkpt lat="42.656984" lon="-2.290699">
<ele>2016</ele>
<time>2013-05-04T13:25:48.000Z</time>
</trkpt>
<trkpt lat="42.65699" lon="-2.290612">
<ele>2016</ele>
<time>2013-05-04T13:25:49.000Z</time>
</trkpt>
<trkpt lat="42.656997" lon="-2.290503">
<ele>2015</ele>
<time>2013-05-04T13:25:50.000Z</time>
</trkpt>
<trkpt lat="42.657005" lon="-2.290371">
<ele>2013</ele>
<time>2013-05-04T13:25:51.000Z</time>
</trkpt>
<trkpt lat="42.657014" lon="-2.290224">
<ele>2013</ele>
<time>2013-05-04T13:25:52.000Z</time>
</trkpt>
<trkpt lat="42.657022" lon="-2.290087">
<ele>2012</ele>
<time>2013-05-04T13:25:53.000Z</time>
</trkpt>
<trkpt lat="42.657033" lon="-2.289958">
<ele>2012</ele>
<time>2013-05-04T13:25:54.000Z</time>
</trkpt>
<trkpt lat="42.657048" lon="-2.289834">
<ele>2012</ele>
<time>2013-05-04T13:25:55.000Z</time>
</trkpt>
<trkpt lat="42.657068" lon="-2.289709">
<ele>2011</ele>
<time>2013-05-04T13:25:56.000Z</time>
</trkpt>
<trkpt lat="42.657089" lon="-2.289579">
<ele>2010</ele>
<time>2013-05-04T13:25:57.000Z</time>
</trkpt>
<trkpt lat="42.657109" lon="-2.289443">
<ele>2009</ele>
<time>2013-05-04T13:25:58.000Z</time>
</trkpt>
<trkpt lat="42.657131" lon="-2.289301">
<ele>2008</ele>
<time>2013-05-04T13:25:59.000Z</time>
</trkpt>
<trkpt lat="42.657155" lon="-2.289167">
<ele>2007</ele>
<time>2013-05-04T13:26:00.000Z</time>
</trkpt>
<trkpt lat="42.657177" lon="-2.289036">
<ele>2006</ele>
<time>2013-05-04T13:26:01.000Z</time>
</trkpt>
<trkpt lat="42.657203" lon="-2.2889">
<ele>2004</ele>
<time>2013-05-04T13:26:02.000Z</time>
</trkpt>
<trkpt lat="42.657231" lon="-2.288754">
<ele>2003</ele>
<time>2013-05-04T13:26:03.000Z</time>
</trkpt>
<trkpt lat="42.657256" lon="-2.288617">
<ele>2002</ele>
<time>2013-05-04T13:26:04.000Z</time>
</trkpt>
<trkpt lat="42.657276" lon="-2.28849">
<ele>2001</ele>
<time>2013-05-04T13:26:05.000Z</time>
</trkpt>
<trkpt lat="42.657296" lon="-2.288366">
<ele>1999</ele>
<time>2013-05-04T13:26:06.000Z</time>
</trkpt>
<trkpt lat="42.657316" lon="-2.288238">
<ele>1998</ele>
<time>2013-05-04T13:26:07.000Z</time>
</trkpt>
<trkpt lat="42.657335" lon="-2.288099">
<ele>1998</ele>
<time>2013-05-04T13:26:08.000Z</time>
</trkpt>
<trkpt lat="42.657349" lon="-2.287953">
<ele>1998</ele>
<time>2013-05-04T13:26:09.000Z</time>
</trkpt>
<trkpt lat="42.657356" lon="-2.287811">
<ele>1997</ele>
<time>2013-05-04T13:26:10.000Z</time>
</trkpt>
<trkpt lat="42.657358" lon="-2.287659">
<ele>1997</ele>
<time>2013-05-04T13:26:11.000Z</time>
</trkpt>
<trkpt lat="42.657357" lon="-2.287521">
<ele>1997</ele>
<time>2013-05-04T13:26:12.000Z</time>
</trkpt>
<trkpt lat="42.657352" lon="-2.287386">
<ele>1996</ele>
<time>2013-05-04T13:26:13.000Z</time>
</trkpt>
<trkpt lat="42.657346" lon="-2.287257">
<ele>1995</ele>
<time>2013-05-04T13:26:14.000Z</time>
</trkpt>
<trkpt lat="42.657339" lon="-2.28712">
<ele>1993</ele>
<time>2013-05-04T13:26:15.000Z</time>
</trkpt>
<trkpt lat="42.657329" lon="-2.286973">
<ele>1991</ele>
<time>2013-05-04T13:26:16.000Z</time>
</trkpt>
<trkpt lat="42.657303" lon="-2.286652">
<ele>1990</ele>
<time>2013-05-04T13:26:18.000Z</time>
</trkpt>
<trkpt lat="42.657288" lon="-2.286509">
<ele>1989</ele>
<time>2013-05-04T13:26:19.000Z</time>
</trkpt>
<trkpt lat="42.657275" lon="-2.286379">
<ele>1989</ele>
<time>2013-05-04T13:26:20.000Z</time>
</trkpt>
<trkpt lat="42.657264" lon="-2.286257">
<ele>1987</ele>
<time>2013-05-04T13:26:21.000Z</time>
</trkpt>
<trkpt lat="42.657253" lon="-2.286128">
<ele>1985</ele>
<time>2013-05-04T13:26:22.000Z</time>
</trkpt>
<trkpt lat="42.65724" lon="-2.285965">
<ele>1984</ele>
<time>2013-05-04T13:26:23.000Z</time>
</trkpt>
<trkpt lat="42.657224" lon="-2.285805">
<ele>1983</ele>
<time>2013-05-04T13:26:24.000Z</time>
</trkpt>
<trkpt lat="42.657208" lon="-2.285649">
<ele>1983</ele>
<time>2013-05-04T13:26:25.000Z</time>
</trkpt>
<trkpt lat="42.657193" lon="-2.285507">
<ele>1983</ele>
<time>2013-05-04T13:26:26.000Z</time>
</trkpt>
<trkpt lat="42.65718" lon="-2.285377">
<ele>1982</ele>
<time>2013-05-04T13:26:27.000Z</time>
</trkpt>
<trkpt lat="42.657169" lon="-2.285239">
<ele>1983</ele>
<time>2013-05-04T13:26:28.000Z</time>
</trkpt>
<trkpt lat="42.657159" lon="-2.285093">
<ele>1983</ele>
<time>2013-05-04T13:26:29.000Z</time>
</trkpt>
<trkpt lat="42.657153" lon="-2.284941">
<ele>1981</ele>
<time>2013-05-04T13:26:30.000Z</time>
</trkpt>
<trkpt lat="42.65715" lon="-2.284785">
<ele>1980</ele>
<time>2013-05-04T13:26:31.000Z</time>
</trkpt>
<trkpt lat="42.657147" lon="-2.284626">
<ele>1979</ele>
<time>2013-05-04T13:26:32.000Z</time>
</trkpt>
<trkpt lat="42.657143" lon="-2.284486">
<ele>1978</ele>
<time>2013-05-04T13:26:33.000Z</time>
</trkpt>
<trkpt lat="42.657134" lon="-2.284353">
<ele>1977</ele>
<time>2013-05-04T13:26:34.000Z</time>
</trkpt>
<trkpt lat="42.657124" lon="-2.284226">
<ele>1977</ele>
<time>2013-05-04T13:26:35.000Z</time>
</trkpt>
<trkpt lat="42.657113" lon="-2.284083">
<ele>1976</ele>
<time>2013-05-04T13:26:36.000Z</time>
</trkpt>
<trkpt lat="42.657109" lon="-2.283934">
<ele>1975</ele>
<time>2013-05-04T13:26:37.000Z</time>
</trkpt>
<trkpt lat="42.657107" lon="-2.283777">
<ele>1973</ele>
<time>2013-05-04T13:26:38.000Z</time>
</trkpt>
<trkpt lat="42.657105" lon="-2.283626">
<ele>1972</ele>
<time>2013-05-04T13:26:39.000Z</time>
</trkpt>
<trkpt lat="42.657106" lon="-2.283493">
<ele>1971</ele>
<time>2013-05-04T13:26:40.000Z</time>
</trkpt>
<trkpt lat="42.65711" lon="-2.283366">
<ele>1970</ele>
<time>2013-05-04T13:26:41.000Z</time>
</trkpt>
<trkpt lat="42.657118" lon="-2.283224">
<ele>1970</ele>
<time>2013-05-04T13:26:42.000Z</time>
</trkpt>
<trkpt lat="42.65713" lon="-2.283068">
<ele>1969</ele>
<time>2013-05-04T13:26:43.000Z</time>
</trkpt>
<trkpt lat="42.657142" lon="-2.282902">
<ele>1968</ele>
<time>2013-05-04T13:26:44.000Z</time>
</trkpt>
<trkpt lat="42.657155" lon="-2.282737">
<ele>1967</ele>
<time>2013-05-04T13:26:45.000Z</time>
</trkpt>
<trkpt lat="42.657168" lon="-2.282582">
<ele>1967</ele>
<time>2013-05-04T13:26:46.000Z</time>
</trkpt>
<trkpt lat="42.657177" lon="-2.282439">
<ele>1968</ele>
<time>2013-05-04T13:26:47.000Z</time>
</trkpt>
<trkpt lat="42.657184" lon="-2.282291">
<ele>1968</ele>
<time>2013-05-04T13:26:48.000Z</time>
</trkpt>
<trkpt lat="42.657192" lon="-2.28212">
<ele>1968</ele>
<time>2013-05-04T13:26:49.000Z</time>
</trkpt>
<trkpt lat="42.657201" lon="-2.281925">
<ele>1964</ele>
<time>2013-05-04T13:26:50.000Z</time>
</trkpt>
<trkpt lat="42.657215" lon="-2.281754">
<ele>1962</ele>
<time>2013-05-04T13:26:51.000Z</time>
</trkpt>
<trkpt lat="42.65723" lon="-2.281618">
<ele>1962</ele>
<time>2013-05-04T13:26:52.000Z</time>
</trkpt>
<trkpt lat="42.657242" lon="-2.281511">
<ele>1961</ele>
<time>2013-05-04T13:26:53.000Z</time>
</trkpt>
<trkpt lat="42.657252" lon="-2.281387">
<ele>1958</ele>
<time>2013-05-04T13:26:54.000Z</time>
</trkpt>
<trkpt lat="42.657258" lon="-2.281247">
<ele>1956</ele>
<time>2013-05-04T13:26:55.000Z</time>
</trkpt>
<trkpt lat="42.657262" lon="-2.281112">
<ele>1955</ele>
<time>2013-05-04T13:26:56.000Z</time>
</trkpt>
<trkpt lat="42.65727" lon="-2.280998">
<ele>1955</ele>
<time>2013-05-04T13:26:57.000Z</time>
</trkpt>
<trkpt lat="42.657284" lon="-2.280886">
<ele>1956</ele>
<time>2013-05-04T13:26:58.000Z</time>
</trkpt>
<trkpt lat="42.657304" lon="-2.280778">
<ele>1954</ele>
<time>2013-05-04T13:26:59.000Z</time>
</trkpt>
<trkpt lat="42.657325" lon="-2.280665">
<ele>1952</ele>
<time>2013-05-04T13:27:00.000Z</time>
</trkpt>
<trkpt lat="42.657352" lon="-2.280536">
<ele>1948</ele>
<time>2013-05-04T13:27:01.000Z</time>
</trkpt>
<trkpt lat="42.657406" lon="-2.280412">
<ele>1945</ele>
<time>2013-05-04T13:27:02.000Z</time>
</trkpt>
<trkpt lat="42.657468" lon="-2.280285">
<ele>1944</ele>
<time>2013-05-04T13:27:03.000Z</time>
</trkpt>
<trkpt lat="42.657534" lon="-2.280148">
<ele>1943</ele>
<time>2013-05-04T13:27:04.000Z</time>
</trkpt>
<trkpt lat="42.65759" lon="-2.280013">
<ele>1943</ele>
<time>2013-05-04T13:27:05.000Z</time>
</trkpt>
<trkpt lat="42.657617" lon="-2.279875">
<ele>1943</ele>
<time>2013-05-04T13:27:06.000Z</time>
</trkpt>
<trkpt lat="42.657639" lon="-2.279757">
<ele>1943</ele>
<time>2013-05-04T13:27:07.000Z</time>
</trkpt>
<trkpt lat="42.657661" lon="-2.279641">
<ele>1942</ele>
<time>2013-05-04T13:27:08.000Z</time>
</trkpt>
<trkpt lat="42.657687" lon="-2.279514">
<ele>1941</ele>
<time>2013-05-04T13:27:09.000Z</time>
</trkpt>
<trkpt lat="42.657714" lon="-2.279385">
<ele>1940</ele>
<time>2013-05-04T13:27:10.000Z</time>
</trkpt>
<trkpt lat="42.657734" lon="-2.279247">
<ele>1939</ele>
<time>2013-05-04T13:27:11.000Z</time>
</trkpt>
<trkpt lat="42.657731" lon="-2.279103">
<ele>1938</ele>
<time>2013-05-04T13:27:12.000Z</time>
</trkpt>
<trkpt lat="42.657723" lon="-2.278966">
<ele>1940</ele>
<time>2013-05-04T13:27:13.000Z</time>
</trkpt>
<trkpt lat="42.657714" lon="-2.278841">
<ele>1941</ele>
<time>2013-05-04T13:27:14.000Z</time>
</trkpt>
<trkpt lat="42.657705" lon="-2.278713">
<ele>1939</ele>
<time>2013-05-04T13:27:15.000Z</time>
</trkpt>
<trkpt lat="42.657702" lon="-2.278586">
<ele>1935</ele>
<time>2013-05-04T13:27:16.000Z</time>
</trkpt>
<trkpt lat="42.657707" lon="-2.278316">
<ele>1931</ele>
<time>2013-05-04T13:27:18.000Z</time>
</trkpt>
<trkpt lat="42.657711" lon="-2.278167">
<ele>1927</ele>
<time>2013-05-04T13:27:19.000Z</time>
</trkpt>
<trkpt lat="42.657712" lon="-2.278026">
<ele>1924</ele>
<time>2013-05-04T13:27:20.000Z</time>
</trkpt>
<trkpt lat="42.657714" lon="-2.277892">
<ele>1922</ele>
<time>2013-05-04T13:27:21.000Z</time>
</trkpt>
<trkpt lat="42.657719" lon="-2.277774">
<ele>1920</ele>
<time>2013-05-04T13:27:22.000Z</time>
</trkpt>
<trkpt lat="42.65773" lon="-2.277633">
<ele>1918</ele>
<time>2013-05-04T13:27:23.000Z</time>
</trkpt>
<trkpt lat="42.657741" lon="-2.277481">
<ele>1916</ele>
<time>2013-05-04T13:27:24.000Z</time>
</trkpt>
<trkpt lat="42.657748" lon="-2.277329">
<ele>1913</ele>
<time>2013-05-04T13:27:25.000Z</time>
</trkpt>
<trkpt lat="42.65775" lon="-2.277193">
<ele>1912</ele>
<time>2013-05-04T13:27:26.000Z</time>
</trkpt>
<trkpt lat="42.657751" lon="-2.277077">
<ele>1910</ele>
<time>2013-05-04T13:27:27.000Z</time>
</trkpt>
<trkpt lat="42.657754" lon="-2.276958">
<ele>1911</ele>
<time>2013-05-04T13:27:28.000Z</time>
</trkpt>
<trkpt lat="42.65776" lon="-2.276834">
<ele>1910</ele>
<time>2013-05-04T13:27:29.000Z</time>
</trkpt>
<trkpt lat="42.657768" lon="-2.276716">
<ele>1906</ele>
<time>2013-05-04T13:27:30.000Z</time>
</trkpt>
<trkpt lat="42.657766" lon="-2.276593">
<ele>1901</ele>
<time>2013-05-04T13:27:31.000Z</time>
</trkpt>
<trkpt lat="42.657742" lon="-2.276466">
<ele>1898</ele>
<time>2013-05-04T13:27:32.000Z</time>
</trkpt>
<trkpt lat="42.657718" lon="-2.276346">
<ele>1895</ele>
<time>2013-05-04T13:27:33.000Z</time>
</trkpt>
<trkpt lat="42.657698" lon="-2.276235">
<ele>1893</ele>
<time>2013-05-04T13:27:34.000Z</time>
</trkpt>
<trkpt lat="42.657683" lon="-2.276109">
<ele>1892</ele>
<time>2013-05-04T13:27:35.000Z</time>
</trkpt>
<trkpt lat="42.65767" lon="-2.275984">
<ele>1891</ele>
<time>2013-05-04T13:27:36.000Z</time>
</trkpt>
<trkpt lat="42.657655" lon="-2.27585">
<ele>1888</ele>
<time>2013-05-04T13:27:37.000Z</time>
</trkpt>
<trkpt lat="42.657632" lon="-2.275715">
<ele>1884</ele>
<time>2013-05-04T13:27:38.000Z</time>
</trkpt>
<trkpt lat="42.657605" lon="-2.275584">
<ele>1882</ele>
<time>2013-05-04T13:27:39.000Z</time>
</trkpt>
<trkpt lat="42.65758" lon="-2.275464">
<ele>1879</ele>
<time>2013-05-04T13:27:40.000Z</time>
</trkpt>
<trkpt lat="42.657561" lon="-2.275349">
<ele>1877</ele>
<time>2013-05-04T13:27:41.000Z</time>
</trkpt>
<trkpt lat="42.657541" lon="-2.27522">
<ele>1875</ele>
<time>2013-05-04T13:27:42.000Z</time>
</trkpt>
<trkpt lat="42.657523" lon="-2.275088">
<ele>1873</ele>
<time>2013-05-04T13:27:43.000Z</time>
</trkpt>
<trkpt lat="42.657503" lon="-2.274954">
<ele>1871</ele>
<time>2013-05-04T13:27:44.000Z</time>
</trkpt>
<trkpt lat="42.657481" lon="-2.274828">
<ele>1870</ele>
<time>2013-05-04T13:27:45.000Z</time>
</trkpt>
<trkpt lat="42.657461" lon="-2.274702">
<ele>1870</ele>
<time>2013-05-04T13:27:46.000Z</time>
</trkpt>
<trkpt lat="42.657445" lon="-2.274579">
<ele>1870</ele>
<time>2013-05-04T13:27:47.000Z</time>
</trkpt>
<trkpt lat="42.65743" lon="-2.274452">
<ele>1870</ele>
<time>2013-05-04T13:27:48.000Z</time>
</trkpt>
<trkpt lat="42.657415" lon="-2.274324">
<ele>1867</ele>
<time>2013-05-04T13:27:49.000Z</time>
</trkpt>
<trkpt lat="42.657395" lon="-2.2742">
<ele>1866</ele>
<time>2013-05-04T13:27:50.000Z</time>
</trkpt>
<trkpt lat="42.657371" lon="-2.274086">
<ele>1865</ele>
<time>2013-05-04T13:27:51.000Z</time>
</trkpt>
<trkpt lat="42.657344" lon="-2.273978">
<ele>1862</ele>
<time>2013-05-04T13:27:52.000Z</time>
</trkpt>
<trkpt lat="42.657318" lon="-2.273858">
<ele>1860</ele>
<time>2013-05-04T13:27:53.000Z</time>
</trkpt>
<trkpt lat="42.657294" lon="-2.273725">
<ele>1859</ele>
<time>2013-05-04T13:27:54.000Z</time>
</trkpt>
<trkpt lat="42.657276" lon="-2.2736">
<ele>1856</ele>
<time>2013-05-04T13:27:55.000Z</time>
</trkpt>
<trkpt lat="42.657262" lon="-2.273484">
<ele>1854</ele>
<time>2013-05-04T13:27:56.000Z</time>
</trkpt>
<trkpt lat="42.657248" lon="-2.273366">
<ele>1852</ele>
<time>2013-05-04T13:27:57.000Z</time>
</trkpt>
<trkpt lat="42.657233" lon="-2.273243">
<ele>1849</ele>
<time>2013-05-04T13:27:58.000Z</time>
</trkpt>
<trkpt lat="42.657217" lon="-2.273107">
<ele>1847</ele>
<time>2013-05-04T13:27:59.000Z</time>
</trkpt>
<trkpt lat="42.657204" lon="-2.272957">
<ele>1845</ele>
<time>2013-05-04T13:28:00.000Z</time>
</trkpt>
<trkpt lat="42.65719" lon="-2.272811">
<ele>1844</ele>
<time>2013-05-04T13:28:01.000Z</time>
</trkpt>
<trkpt lat="42.657179" lon="-2.272671">
<ele>1844</ele>
<time>2013-05-04T13:28:02.000Z</time>
</trkpt>
<trkpt lat="42.657167" lon="-2.272545">
<ele>1844</ele>
<time>2013-05-04T13:28:03.000Z</time>
</trkpt>
<trkpt lat="42.657156" lon="-2.272417">
<ele>1844</ele>
<time>2013-05-04T13:28:04.000Z</time>
</trkpt>
<trkpt lat="42.657144" lon="-2.272282">
<ele>1844</ele>
<time>2013-05-04T13:28:05.000Z</time>
</trkpt>
<trkpt lat="42.657135" lon="-2.272139">
<ele>1843</ele>
<time>2013-05-04T13:28:06.000Z</time>
</trkpt>
<trkpt lat="42.657125" lon="-2.271991">
<ele>1841</ele>
<time>2013-05-04T13:28:07.000Z</time>
</trkpt>
<trkpt lat="42.657111" lon="-2.271838">
<ele>1840</ele>
<time>2013-05-04T13:28:08.000Z</time>
</trkpt>
<trkpt lat="42.657097" lon="-2.271688">
<ele>1839</ele>
<time>2013-05-04T13:28:09.000Z</time>
</trkpt>
<trkpt lat="42.657081" lon="-2.271545">
<ele>1840</ele>
<time>2013-05-04T13:28:10.000Z</time>
</trkpt>
<trkpt lat="42.657067" lon="-2.271413">
<ele>1840</ele>
<time>2013-05-04T13:28:11.000Z</time>
</trkpt>
<trkpt lat="42.657057" lon="-2.271286">
<ele>1840</ele>
<time>2013-05-04T13:28:12.000Z</time>
</trkpt>
<trkpt lat="42.657046" lon="-2.271156">
<ele>1839</ele>
<time>2013-05-04T13:28:13.000Z</time>
</trkpt>
<trkpt lat="42.657035" lon="-2.27102">
<ele>1839</ele>
<time>2013-05-04T13:28:14.000Z</time>
</trkpt>
<trkpt lat="42.65702" lon="-2.270888">
<ele>1838</ele>
<time>2013-05-04T13:28:15.000Z</time>
</trkpt>
<trkpt lat="42.657004" lon="-2.270748">
<ele>1837</ele>
<time>2013-05-04T13:28:16.000Z</time>
</trkpt>
<trkpt lat="42.656963" lon="-2.270457">
<ele>1834</ele>
<time>2013-05-04T13:28:18.000Z</time>
</trkpt>
<trkpt lat="42.656942" lon="-2.270316">
<ele>1832</ele>
<time>2013-05-04T13:28:19.000Z</time>
</trkpt>
<trkpt lat="42.656919" lon="-2.270171">
<ele>1831</ele>
<time>2013-05-04T13:28:20.000Z</time>
</trkpt>
<trkpt lat="42.656898" lon="-2.27003">
<ele>1832</ele>
<time>2013-05-04T13:28:21.000Z</time>
</trkpt>
<trkpt lat="42.65688" lon="-2.269893">
<ele>1832</ele>
<time>2013-05-04T13:28:22.000Z</time>
</trkpt>
<trkpt lat="42.656864" lon="-2.26976">
<ele>1832</ele>
<time>2013-05-04T13:28:23.000Z</time>
</trkpt>
<trkpt lat="42.65685" lon="-2.269626">
<ele>1831</ele>
<time>2013-05-04T13:28:24.000Z</time>
</trkpt>
<trkpt lat="42.656837" lon="-2.269489">
<ele>1830</ele>
<time>2013-05-04T13:28:25.000Z</time>
</trkpt>
<trkpt lat="42.656827" lon="-2.269349">
<ele>1829</ele>
<time>2013-05-04T13:28:26.000Z</time>
</trkpt>
<trkpt lat="42.656817" lon="-2.269207">
<ele>1827</ele>
<time>2013-05-04T13:28:27.000Z</time>
</trkpt>
<trkpt lat="42.656809" lon="-2.269064">
<ele>1826</ele>
<time>2013-05-04T13:28:28.000Z</time>
</trkpt>
<trkpt lat="42.656801" lon="-2.268926">
<ele>1824</ele>
<time>2013-05-04T13:28:29.000Z</time>
</trkpt>
<trkpt lat="42.656793" lon="-2.268793">
<ele>1823</ele>
<time>2013-05-04T13:28:30.000Z</time>
</trkpt>
<trkpt lat="42.656784" lon="-2.268658">
<ele>1822</ele>
<time>2013-05-04T13:28:31.000Z</time>
</trkpt>
<trkpt lat="42.656775" lon="-2.268526">
<ele>1821</ele>
<time>2013-05-04T13:28:32.000Z</time>
</trkpt>
<trkpt lat="42.656768" lon="-2.2684">
<ele>1819</ele>
<time>2013-05-04T13:28:33.000Z</time>
</trkpt>
<trkpt lat="42.656762" lon="-2.268273">
<ele>1818</ele>
<time>2013-05-04T13:28:34.000Z</time>
</trkpt>
<trkpt lat="42.656759" lon="-2.268136">
<ele>1817</ele>
<time>2013-05-04T13:28:35.000Z</time>
</trkpt>
<trkpt lat="42.656755" lon="-2.267991">
<ele>1815</ele>
<time>2013-05-04T13:28:36.000Z</time>
</trkpt>
<trkpt lat="42.656751" lon="-2.267844">
<ele>1815</ele>
<time>2013-05-04T13:28:37.000Z</time>
</trkpt>
<trkpt lat="42.656745" lon="-2.267705">
<ele>1814</ele>
<time>2013-05-04T13:28:38.000Z</time>
</trkpt>
<trkpt lat="42.656734" lon="-2.26757">
<ele>1814</ele>
<time>2013-05-04T13:28:39.000Z</time>
</trkpt>
<trkpt lat="42.656724" lon="-2.267439">
<ele>1813</ele>
<time>2013-05-04T13:28:40.000Z</time>
</trkpt>
<trkpt lat="42.656714" lon="-2.267307">
<ele>1812</ele>
<time>2013-05-04T13:28:41.000Z</time>
</trkpt>
<trkpt lat="42.656703" lon="-2.267177">
<ele>1811</ele>
<time>2013-05-04T13:28:42.000Z</time>
</trkpt>
<trkpt lat="42.656689" lon="-2.267051">
<ele>1809</ele>
<time>2013-05-04T13:28:43.000Z</time>
</trkpt>
<trkpt lat="42.656675" lon="-2.266925">
<ele>1807</ele>
<time>2013-05-04T13:28:44.000Z</time>
</trkpt>
<trkpt lat="42.656656" lon="-2.266792">
<ele>1805</ele>
<time>2013-05-04T13:28:45.000Z</time>
</trkpt>
<trkpt lat="42.656633" lon="-2.26665">
<ele>1804</ele>
<time>2013-05-04T13:28:46.000Z</time>
</trkpt>
<trkpt lat="42.656609" lon="-2.266512">
<ele>1803</ele>
<time>2013-05-04T13:28:47.000Z</time>
</trkpt>
<trkpt lat="42.656583" lon="-2.266386">
<ele>1803</ele>
<time>2013-05-04T13:28:48.000Z</time>
</trkpt>
<trkpt lat="42.656561" lon="-2.266271">
<ele>1801</ele>
<time>2013-05-04T13:28:49.000Z</time>
</trkpt>
<trkpt lat="42.65654" lon="-2.26616">
<ele>1802</ele>
<time>2013-05-04T13:28:50.000Z</time>
</trkpt>
<trkpt lat="42.656519" lon="-2.266043">
<ele>1802</ele>
<time>2013-05-04T13:28:51.000Z</time>
</trkpt>
<trkpt lat="42.656495" lon="-2.265907">
<ele>1801</ele>
<time>2013-05-04T13:28:52.000Z</time>
</trkpt>
<trkpt lat="42.656471" lon="-2.265763">
<ele>1801</ele>
<time>2013-05-04T13:28:53.000Z</time>
</trkpt>
<trkpt lat="42.656447" lon="-2.265625">
<ele>1799</ele>
<time>2013-05-04T13:28:54.000Z</time>
</trkpt>
<trkpt lat="42.656426" lon="-2.265503">
<ele>1799</ele>
<time>2013-05-04T13:28:55.000Z</time>
</trkpt>
<trkpt lat="42.656407" lon="-2.265387">
<ele>1798</ele>
<time>2013-05-04T13:28:56.000Z</time>
</trkpt>
<trkpt lat="42.656386" lon="-2.265263">
<ele>1797</ele>
<time>2013-05-04T13:28:57.000Z</time>
</trkpt>
<trkpt lat="42.656365" lon="-2.265139">
<ele>1795</ele>
<time>2013-05-04T13:28:58.000Z</time>
</trkpt>
<trkpt lat="42.656336" lon="-2.265004">
<ele>1790</ele>
<time>2013-05-04T13:28:59.000Z</time>
</trkpt>
<trkpt lat="42.656309" lon="-2.264881">
<ele>1786</ele>
<time>2013-05-04T13:29:00.000Z</time>
</trkpt>
<trkpt lat="42.656287" lon="-2.264769">
<ele>1785</ele>
<time>2013-05-04T13:29:01.000Z</time>
</trkpt>
<trkpt lat="42.656269" lon="-2.26465">
<ele>1782</ele>
<time>2013-05-04T13:29:02.000Z</time>
</trkpt>
<trkpt lat="42.656254" lon="-2.264528">
<ele>1780</ele>
<time>2013-05-04T13:29:03.000Z</time>
</trkpt>
<trkpt lat="42.656237" lon="-2.264396">
<ele>1779</ele>
<time>2013-05-04T13:29:04.000Z</time>
</trkpt>
<trkpt lat="42.65622" lon="-2.264265">
<ele>1779</ele>
<time>2013-05-04T13:29:05.000Z</time>
</trkpt>
<trkpt lat="42.656204" lon="-2.264145">
<ele>1778</ele>
<time>2013-05-04T13:29:06.000Z</time>
</trkpt>
<trkpt lat="42.656193" lon="-2.264031">
<ele>1776</ele>
<time>2013-05-04T13:29:07.000Z</time>
</trkpt>
<trkpt lat="42.656184" lon="-2.263916">
<ele>1775</ele>
<time>2013-05-04T13:29:08.000Z</time>
</trkpt>
<trkpt lat="42.656178" lon="-2.263798">
<ele>1773</ele>
<time>2013-05-04T13:29:09.000Z</time>
</trkpt>
<trkpt lat="42.656171" lon="-2.263675">
<ele>1771</ele>
<time>2013-05-04T13:29:10.000Z</time>
</trkpt>
<trkpt lat="42.656165" lon="-2.263553">
<ele>1771</ele>
<time>2013-05-04T13:29:11.000Z</time>
</trkpt>
<trkpt lat="42.656158" lon="-2.263432">
<ele>1769</ele>
<time>2013-05-04T13:29:12.000Z</time>
</trkpt>
<trkpt lat="42.656149" lon="-2.263312">
<ele>1768</ele>
<time>2013-05-04T13:29:13.000Z</time>
</trkpt>
<trkpt lat="42.656139" lon="-2.263191">
<ele>1766</ele>
<time>2013-05-04T13:29:14.000Z</time>
</trkpt>
<trkpt lat="42.65613" lon="-2.263067">
<ele>1765</ele>
<time>2013-05-04T13:29:15.000Z</time>
</trkpt>
<trkpt lat="42.656119" lon="-2.262945">
<ele>1763</ele>
<time>2013-05-04T13:29:16.000Z</time>
</trkpt>
<trkpt lat="42.656081" lon="-2.262713">
<ele>1759</ele>
<time>2013-05-04T13:29:18.000Z</time>
</trkpt>
<trkpt lat="42.656061" lon="-2.262595">
<ele>1757</ele>
<time>2013-05-04T13:29:19.000Z</time>
</trkpt>
<trkpt lat="42.656044" lon="-2.262469">
<ele>1754</ele>
<time>2013-05-04T13:29:20.000Z</time>
</trkpt>
<trkpt lat="42.65603" lon="-2.262337">
<ele>1752</ele>
<time>2013-05-04T13:29:21.000Z</time>
</trkpt>
<trkpt lat="42.656018" lon="-2.262208">
<ele>1751</ele>
<time>2013-05-04T13:29:22.000Z</time>
</trkpt>
<trkpt lat="42.656006" lon="-2.262086">
<ele>1749</ele>
<time>2013-05-04T13:29:23.000Z</time>
</trkpt>
<trkpt lat="42.655993" lon="-2.261968">
<ele>1746</ele>
<time>2013-05-04T13:29:24.000Z</time>
</trkpt>
<trkpt lat="42.655982" lon="-2.261848">
<ele>1744</ele>
<time>2013-05-04T13:29:25.000Z</time>
</trkpt>
<trkpt lat="42.655972" lon="-2.261724">
<ele>1742</ele>
<time>2013-05-04T13:29:26.000Z</time>
</trkpt>
<trkpt lat="42.655961" lon="-2.261595">
<ele>1740</ele>
<time>2013-05-04T13:29:27.000Z</time>
</trkpt>
<trkpt lat="42.655951" lon="-2.261468">
<ele>1739</ele>
<time>2013-05-04T13:29:28.000Z</time>
</trkpt>
<trkpt lat="42.655937" lon="-2.261354">
<ele>1738</ele>
<time>2013-05-04T13:29:29.000Z</time>
</trkpt>
<trkpt lat="42.655921" lon="-2.261248">
<ele>1736</ele>
<time>2013-05-04T13:29:30.000Z</time>
</trkpt>
<trkpt lat="42.655906" lon="-2.261142">
<ele>1734</ele>
<time>2013-05-04T13:29:31.000Z</time>
</trkpt>
<trkpt lat="42.655891" lon="-2.261027">
<ele>1731</ele>
<time>2013-05-04T13:29:32.000Z</time>
</trkpt>
<trkpt lat="42.655877" lon="-2.260898">
<ele>1729</ele>
<time>2013-05-04T13:29:33.000Z</time>
</trkpt>
<trkpt lat="42.655866" lon="-2.26077">
<ele>1726</ele>
<time>2013-05-04T13:29:34.000Z</time>
</trkpt>
<trkpt lat="42.655855" lon="-2.260651">
<ele>1727</ele>
<time>2013-05-04T13:29:35.000Z</time>
</trkpt>
<trkpt lat="42.655845" lon="-2.260544">
<ele>1726</ele>
<time>2013-05-04T13:29:36.000Z</time>
</trkpt>
<trkpt lat="42.655836" lon="-2.26044">
<ele>1725</ele>
<time>2013-05-04T13:29:37.000Z</time>
</trkpt>
<trkpt lat="42.655824" lon="-2.260323">
<ele>1724</ele>
<time>2013-05-04T13:29:38.000Z</time>
</trkpt>
<trkpt lat="42.655811" lon="-2.260199">
<ele>1721</ele>
<time>2013-05-04T13:29:39.000Z</time>
</trkpt>
<trkpt lat="42.655798" lon="-2.260068">
<ele>1719</ele>
<time>2013-05-04T13:29:40.000Z</time>
</trkpt>
<trkpt lat="42.655782" lon="-2.259943">
<ele>1716</ele>
<time>2013-05-04T13:29:41.000Z</time>
</trkpt>
<trkpt lat="42.655766" lon="-2.259822">
<ele>1714</ele>
<time>2013-05-04T13:29:42.000Z</time>
</trkpt>
<trkpt lat="42.655751" lon="-2.259705">
<ele>1712</ele>
<time>2013-05-04T13:29:43.000Z</time>
</trkpt>
<trkpt lat="42.655736" lon="-2.259584">
<ele>1709</ele>
<time>2013-05-04T13:29:44.000Z</time>
</trkpt>
<trkpt lat="42.655721" lon="-2.25945">
<ele>1707</ele>
<time>2013-05-04T13:29:45.000Z</time>
</trkpt>
<trkpt lat="42.655705" lon="-2.259307">
<ele>1704</ele>
<time>2013-05-04T13:29:46.000Z</time>
</trkpt>
<trkpt lat="42.655687" lon="-2.259172">
<ele>1703</ele>
<time>2013-05-04T13:29:47.000Z</time>
</trkpt>
<trkpt lat="42.655667" lon="-2.259046">
<ele>1700</ele>
<time>2013-05-04T13:29:48.000Z</time>
</trkpt>
<trkpt lat="42.655646" lon="-2.258926">
<ele>1699</ele>
<time>2013-05-04T13:29:49.000Z</time>
</trkpt>
<trkpt lat="42.655625" lon="-2.258809">
<ele>1696</ele>
<time>2013-05-04T13:29:50.000Z</time>
</trkpt>
<trkpt lat="42.655601" lon="-2.258681">
<ele>1693</ele>
<time>2013-05-04T13:29:51.000Z</time>
</trkpt>
<trkpt lat="42.655575" lon="-2.258546">
<ele>1690</ele>
<time>2013-05-04T13:29:52.000Z</time>
</trkpt>
<trkpt lat="42.655549" lon="-2.258413">
<ele>1688</ele>
<time>2013-05-04T13:29:53.000Z</time>
</trkpt>
<trkpt lat="42.655523" lon="-2.258286">
<ele>1687</ele>
<time>2013-05-04T13:29:54.000Z</time>
</trkpt>
<trkpt lat="42.655499" lon="-2.258172">
<ele>1685</ele>
<time>2013-05-04T13:29:55.000Z</time>
</trkpt>
<trkpt lat="42.655479" lon="-2.258061">
<ele>1684</ele>
<time>2013-05-04T13:29:56.000Z</time>
</trkpt>
<trkpt lat="42.655459" lon="-2.257946">
<ele>1682</ele>
<time>2013-05-04T13:29:57.000Z</time>
</trkpt>
<trkpt lat="42.655438" lon="-2.257821">
<ele>1679</ele>
<time>2013-05-04T13:29:58.000Z</time>
</trkpt>
<trkpt lat="42.655416" lon="-2.257687">
<ele>1677</ele>
<time>2013-05-04T13:29:59.000Z</time>
</trkpt>
<trkpt lat="42.655392" lon="-2.257554">
<ele>1674</ele>
<time>2013-05-04T13:30:00.000Z</time>
</trkpt>
<trkpt lat="42.655368" lon="-2.257429">
<ele>1673</ele>
<time>2013-05-04T13:30:01.000Z</time>
</trkpt>
<trkpt lat="42.655342" lon="-2.257308">
<ele>1671</ele>
<time>2013-05-04T13:30:02.000Z</time>
</trkpt>
<trkpt lat="42.655317" lon="-2.257186">
<ele>1668</ele>
<time>2013-05-04T13:30:03.000Z</time>
</trkpt>
<trkpt lat="42.655294" lon="-2.257057">
<ele>1666</ele>
<time>2013-05-04T13:30:04.000Z</time>
</trkpt>
<trkpt lat="42.655273" lon="-2.256925">
<ele>1663</ele>
<time>2013-05-04T13:30:05.000Z</time>
</trkpt>
<trkpt lat="42.655255" lon="-2.256792">
<ele>1661</ele>
<time>2013-05-04T13:30:06.000Z</time>
</trkpt>
<trkpt lat="42.65524" lon="-2.256661">
<ele>1658</ele>
<time>2013-05-04T13:30:07.000Z</time>
</trkpt>
<trkpt lat="42.65523" lon="-2.256534">
<ele>1656</ele>
<time>2013-05-04T13:30:08.000Z</time>
</trkpt>
<trkpt lat="42.655224" lon="-2.256409">
<ele>1654</ele>
<time>2013-05-04T13:30:09.000Z</time>
</trkpt>
<trkpt lat="42.65522" lon="-2.256284">
<ele>1652</ele>
<time>2013-05-04T13:30:10.000Z</time>
</trkpt>
<trkpt lat="42.655215" lon="-2.256158">
<ele>1650</ele>
<time>2013-05-04T13:30:11.000Z</time>
</trkpt>
<trkpt lat="42.655213" lon="-2.256033">
<ele>1647</ele>
<time>2013-05-04T13:30:12.000Z</time>
</trkpt>
<trkpt lat="42.65521" lon="-2.25591">
<ele>1645</ele>
<time>2013-05-04T13:30:13.000Z</time>
</trkpt>
<trkpt lat="42.65521" lon="-2.255785">
<ele>1643</ele>
<time>2013-05-04T13:30:14.000Z</time>
</trkpt>
<trkpt lat="42.655208" lon="-2.255657">
<ele>1641</ele>
<time>2013-05-04T13:30:15.000Z</time>
</trkpt>
<trkpt lat="42.655201" lon="-2.25553">
<ele>1640</ele>
<time>2013-05-04T13:30:16.000Z</time>
</trkpt>
<trkpt lat="42.655189" lon="-2.255407">
<ele>1639</ele>
<time>2013-05-04T13:30:17.000Z</time>
</trkpt>
<trkpt lat="42.655175" lon="-2.255281">
<ele>1638</ele>
<time>2013-05-04T13:30:18.000Z</time>
</trkpt>
<trkpt lat="42.655159" lon="-2.255154">
<ele>1638</ele>
<time>2013-05-04T13:30:19.000Z</time>
</trkpt>
<trkpt lat="42.655141" lon="-2.255027">
<ele>1637</ele>
<time>2013-05-04T13:30:20.000Z</time>
</trkpt>
<trkpt lat="42.65512" lon="-2.254895">
<ele>1635</ele>
<time>2013-05-04T13:30:21.000Z</time>
</trkpt>
<trkpt lat="42.655094" lon="-2.254759">
<ele>1634</ele>
<time>2013-05-04T13:30:22.000Z</time>
</trkpt>
<trkpt lat="42.655063" lon="-2.254625">
<ele>1633</ele>
<time>2013-05-04T13:30:23.000Z</time>
</trkpt>
<trkpt lat="42.655034" lon="-2.254498">
<ele>1631</ele>
<time>2013-05-04T13:30:24.000Z</time>
</trkpt>
<trkpt lat="42.655004" lon="-2.254377">
<ele>1630</ele>
<time>2013-05-04T13:30:25.000Z</time>
</trkpt>
<trkpt lat="42.654973" lon="-2.254252">
<ele>1629</ele>
<time>2013-05-04T13:30:26.000Z</time>
</trkpt>
<trkpt lat="42.654942" lon="-2.254128">
<ele>1628</ele>
<time>2013-05-04T13:30:27.000Z</time>
</trkpt>
<trkpt lat="42.654908" lon="-2.254006">
<ele>1628</ele>
<time>2013-05-04T13:30:28.000Z</time>
</trkpt>
<trkpt lat="42.654872" lon="-2.253892">
<ele>1626</ele>
<time>2013-05-04T13:30:29.000Z</time>
</trkpt>
<trkpt lat="42.654834" lon="-2.253779">
<ele>1626</ele>
<time>2013-05-04T13:30:30.000Z</time>
</trkpt>
<trkpt lat="42.654796" lon="-2.253666">
<ele>1625</ele>
<time>2013-05-04T13:30:31.000Z</time>
</trkpt>
<trkpt lat="42.654758" lon="-2.25355">
<ele>1624</ele>
<time>2013-05-04T13:30:32.000Z</time>
</trkpt>
<trkpt lat="42.654719" lon="-2.253433">
<ele>1623</ele>
<time>2013-05-04T13:30:33.000Z</time>
</trkpt>
<trkpt lat="42.654678" lon="-2.253314">
<ele>1623</ele>
<time>2013-05-04T13:30:34.000Z</time>
</trkpt>
<trkpt lat="42.654638" lon="-2.253202">
<ele>1622</ele>
<time>2013-05-04T13:30:35.000Z</time>
</trkpt>
<trkpt lat="42.654596" lon="-2.253095">
<ele>1620</ele>
<time>2013-05-04T13:30:36.000Z</time>
</trkpt>
<trkpt lat="42.654557" lon="-2.252987">
<ele>1619</ele>
<time>2013-05-04T13:30:37.000Z</time>
</trkpt>
<trkpt lat="42.654518" lon="-2.252869">
<ele>1617</ele>
<time>2013-05-04T13:30:38.000Z</time>
</trkpt>
<trkpt lat="42.654483" lon="-2.252747">
<ele>1616</ele>
<time>2013-05-04T13:30:39.000Z</time>
</trkpt>
<trkpt lat="42.654449" lon="-2.252622">
<ele>1615</ele>
<time>2013-05-04T13:30:40.000Z</time>
</trkpt>
<trkpt lat="42.654419" lon="-2.252507">
<ele>1614</ele>
<time>2013-05-04T13:30:41.000Z</time>
</trkpt>
<trkpt lat="42.654393" lon="-2.252398">
<ele>1612</ele>
<time>2013-05-04T13:30:42.000Z</time>
</trkpt>
<trkpt lat="42.654366" lon="-2.252283">
<ele>1610</ele>
<time>2013-05-04T13:30:43.000Z</time>
</trkpt>
<trkpt lat="42.65434" lon="-2.252163">
<ele>1608</ele>
<time>2013-05-04T13:30:44.000Z</time>
</trkpt>
<trkpt lat="42.654316" lon="-2.252037">
<ele>1606</ele>
<time>2013-05-04T13:30:45.000Z</time>
</trkpt>
<trkpt lat="42.65429" lon="-2.251898">
<ele>1606</ele>
<time>2013-05-04T13:30:46.000Z</time>
</trkpt>
<trkpt lat="42.654268" lon="-2.25177">
<ele>1606</ele>
<time>2013-05-04T13:30:47.000Z</time>
</trkpt>
<trkpt lat="42.654249" lon="-2.251658">
<ele>1605</ele>
<time>2013-05-04T13:30:48.000Z</time>
</trkpt>
<trkpt lat="42.654234" lon="-2.251551">
<ele>1603</ele>
<time>2013-05-04T13:30:49.000Z</time>
</trkpt>
<trkpt lat="42.65422" lon="-2.25144">
<ele>1601</ele>
<time>2013-05-04T13:30:50.000Z</time>
</trkpt>
<trkpt lat="42.654204" lon="-2.251314">
<ele>1600</ele>
<time>2013-05-04T13:30:51.000Z</time>
</trkpt>
<trkpt lat="42.654186" lon="-2.251182">
<ele>1598</ele>
<time>2013-05-04T13:30:52.000Z</time>
</trkpt>
<trkpt lat="42.654169" lon="-2.251053">
<ele>1597</ele>
<time>2013-05-04T13:30:53.000Z</time>
</trkpt>
<trkpt lat="42.654152" lon="-2.250932">
<ele>1596</ele>
<time>2013-05-04T13:30:54.000Z</time>
</trkpt>
<trkpt lat="42.654133" lon="-2.250811">
<ele>1597</ele>
<time>2013-05-04T13:30:55.000Z</time>
</trkpt>
<trkpt lat="42.654117" lon="-2.250705">
<ele>1596</ele>
<time>2013-05-04T13:30:56.000Z</time>
</trkpt>
<trkpt lat="42.654101" lon="-2.250589">
<ele>1595</ele>
<time>2013-05-04T13:30:57.000Z</time>
</trkpt>
<trkpt lat="42.654084" lon="-2.250467">
<ele>1593</ele>
<time>2013-05-04T13:30:58.000Z</time>
</trkpt>
<trkpt lat="42.654062" lon="-2.250339">
<ele>1591</ele>
<time>2013-05-04T13:30:59.000Z</time>
</trkpt>
<trkpt lat="42.654036" lon="-2.250213">
<ele>1589</ele>
<time>2013-05-04T13:31:00.000Z</time>
</trkpt>
<trkpt lat="42.65401" lon="-2.25009">
<ele>1588</ele>
<time>2013-05-04T13:31:01.000Z</time>
</trkpt>
<trkpt lat="42.653981" lon="-2.249963">
<ele>1587</ele>
<time>2013-05-04T13:31:02.000Z</time>
</trkpt>
<trkpt lat="42.653952" lon="-2.249833">
<ele>1586</ele>
<time>2013-05-04T13:31:03.000Z</time>
</trkpt>
<trkpt lat="42.653924" lon="-2.249702">
<ele>1585</ele>
<time>2013-05-04T13:31:04.000Z</time>
</trkpt>
<trkpt lat="42.653899" lon="-2.249572">
<ele>1585</ele>
<time>2013-05-04T13:31:05.000Z</time>
</trkpt>
<trkpt lat="42.653879" lon="-2.249448">
<ele>1584</ele>
<time>2013-05-04T13:31:06.000Z</time>
</trkpt>
<trkpt lat="42.653862" lon="-2.249327">
<ele>1583</ele>
<time>2013-05-04T13:31:07.000Z</time>
</trkpt>
<trkpt lat="42.653848" lon="-2.249205">
<ele>1583</ele>
<time>2013-05-04T13:31:08.000Z</time>
</trkpt>
<trkpt lat="42.653837" lon="-2.249083">
<ele>1582</ele>
<time>2013-05-04T13:31:09.000Z</time>
</trkpt>
<trkpt lat="42.653829" lon="-2.248959">
<ele>1582</ele>
<time>2013-05-04T13:31:10.000Z</time>
</trkpt>
<trkpt lat="42.653825" lon="-2.248835">
<ele>1581</ele>
<time>2013-05-04T13:31:11.000Z</time>
</trkpt>
<trkpt lat="42.653825" lon="-2.248708">
<ele>1580</ele>
<time>2013-05-04T13:31:12.000Z</time>
</trkpt>
<trkpt lat="42.653824" lon="-2.248577">
<ele>1579</ele>
<time>2013-05-04T13:31:13.000Z</time>
</trkpt>
<trkpt lat="42.653824" lon="-2.248438">
<ele>1579</ele>
<time>2013-05-04T13:31:14.000Z</time>
</trkpt>
<trkpt lat="42.653824" lon="-2.248302">
<ele>1578</ele>
<time>2013-05-04T13:31:15.000Z</time>
</trkpt>
<trkpt lat="42.653824" lon="-2.248169">
<ele>1577</ele>
<time>2013-05-04T13:31:16.000Z</time>
</trkpt>
<trkpt lat="42.653822" lon="-2.247917">
<ele>1576</ele>
<time>2013-05-04T13:31:18.000Z</time>
</trkpt>
<trkpt lat="42.65382" lon="-2.247789">
<ele>1575</ele>
<time>2013-05-04T13:31:19.000Z</time>
</trkpt>
<trkpt lat="42.653818" lon="-2.247668">
<ele>1573</ele>
<time>2013-05-04T13:31:20.000Z</time>
</trkpt>
<trkpt lat="42.653817" lon="-2.24755">
<ele>1573</ele>
<time>2013-05-04T13:31:21.000Z</time>
</trkpt>
<trkpt lat="42.653819" lon="-2.247433">
<ele>1572</ele>
<time>2013-05-04T13:31:22.000Z</time>
</trkpt>
<trkpt lat="42.653826" lon="-2.247316">
<ele>1571</ele>
<time>2013-05-04T13:31:23.000Z</time>
</trkpt>
<trkpt lat="42.653835" lon="-2.247199">
<ele>1569</ele>
<time>2013-05-04T13:31:24.000Z</time>
</trkpt>
<trkpt lat="42.653848" lon="-2.247089">
<ele>1568</ele>
<time>2013-05-04T13:31:25.000Z</time>
</trkpt>
<trkpt lat="42.653879" lon="-2.24698">
<ele>1568</ele>
<time>2013-05-04T13:31:26.000Z</time>
</trkpt>
<trkpt lat="42.653911" lon="-2.246877">
<ele>1567</ele>
<time>2013-05-04T13:31:27.000Z</time>
</trkpt>
<trkpt lat="42.653958" lon="-2.246795">
<ele>1565</ele>
<time>2013-05-04T13:31:28.000Z</time>
</trkpt>
<trkpt lat="42.654006" lon="-2.246711">
<ele>1564</ele>
<time>2013-05-04T13:31:29.000Z</time>
</trkpt>
<trkpt lat="42.654052" lon="-2.246625">
<ele>1562</ele>
<time>2013-05-04T13:31:30.000Z</time>
</trkpt>
<trkpt lat="42.654094" lon="-2.24653">
<ele>1560</ele>
<time>2013-05-04T13:31:31.000Z</time>
</trkpt>
<trkpt lat="42.65413" lon="-2.246433">
<ele>1558</ele>
<time>2013-05-04T13:31:32.000Z</time>
</trkpt>
<trkpt lat="42.654149" lon="-2.246324">
<ele>1555</ele>
<time>2013-05-04T13:31:33.000Z</time>
</trkpt>
<trkpt lat="42.654166" lon="-2.246211">
<ele>1553</ele>
<time>2013-05-04T13:31:34.000Z</time>
</trkpt>
<trkpt lat="42.654176" lon="-2.246094">
<ele>1550</ele>
<time>2013-05-04T13:31:35.000Z</time>
</trkpt>
<trkpt lat="42.654187" lon="-2.245983">
<ele>1548</ele>
<time>2013-05-04T13:31:36.000Z</time>
</trkpt>
<trkpt lat="42.654204" lon="-2.245871">
<ele>1545</ele>
<time>2013-05-04T13:31:37.000Z</time>
</trkpt>
<trkpt lat="42.654228" lon="-2.245772">
<ele>1542</ele>
<time>2013-05-04T13:31:38.000Z</time>
</trkpt>
<trkpt lat="42.654252" lon="-2.245678">
<ele>1540</ele>
<time>2013-05-04T13:31:39.000Z</time>
</trkpt>
<trkpt lat="42.654276" lon="-2.245578">
<ele>1538</ele>
<time>2013-05-04T13:31:40.000Z</time>
</trkpt>
<trkpt lat="42.654297" lon="-2.245472">
<ele>1535</ele>
<time>2013-05-04T13:31:41.000Z</time>
</trkpt>
<trkpt lat="42.654315" lon="-2.245368">
<ele>1532</ele>
<time>2013-05-04T13:31:42.000Z</time>
</trkpt>
<trkpt lat="42.654328" lon="-2.245269">
<ele>1529</ele>
<time>2013-05-04T13:31:43.000Z</time>
</trkpt>
<trkpt lat="42.654341" lon="-2.245168">
<ele>1526</ele>
<time>2013-05-04T13:31:44.000Z</time>
</trkpt>
<trkpt lat="42.654349" lon="-2.245058">
<ele>1524</ele>
<time>2013-05-04T13:31:45.000Z</time>
</trkpt>
<trkpt lat="42.654354" lon="-2.244946">
<ele>1523</ele>
<time>2013-05-04T13:31:46.000Z</time>
</trkpt>
<trkpt lat="42.654354" lon="-2.244839">
<ele>1521</ele>
<time>2013-05-04T13:31:47.000Z</time>
</trkpt>
<trkpt lat="42.654352" lon="-2.244741">
<ele>1519</ele>
<time>2013-05-04T13:31:48.000Z</time>
</trkpt>
<trkpt lat="42.654352" lon="-2.244646">
<ele>1516</ele>
<time>2013-05-04T13:31:49.000Z</time>
</trkpt>
<trkpt lat="42.654349" lon="-2.244547">
<ele>1512</ele>
<time>2013-05-04T13:31:50.000Z</time>
</trkpt>
<trkpt lat="42.654346" lon="-2.244441">
<ele>1508</ele>
<time>2013-05-04T13:31:51.000Z</time>
</trkpt>
<trkpt lat="42.654341" lon="-2.244333">
<ele>1506</ele>
<time>2013-05-04T13:31:52.000Z</time>
</trkpt>
<trkpt lat="42.654335" lon="-2.244234">
<ele>1503</ele>
<time>2013-05-04T13:31:53.000Z</time>
</trkpt>
<trkpt lat="42.65433" lon="-2.244145">
<ele>1500</ele>
<time>2013-05-04T13:31:54.000Z</time>
</trkpt>
<trkpt lat="42.654324" lon="-2.244055">
<ele>1498</ele>
<time>2013-05-04T13:31:55.000Z</time>
</trkpt>
<trkpt lat="42.654319" lon="-2.243963">
<ele>1495</ele>
<time>2013-05-04T13:31:56.000Z</time>
</trkpt>
<trkpt lat="42.654314" lon="-2.24387">
<ele>1492</ele>
<time>2013-05-04T13:31:57.000Z</time>
</trkpt>
<trkpt lat="42.654309" lon="-2.243775">
<ele>1490</ele>
<time>2013-05-04T13:31:58.000Z</time>
</trkpt>
<trkpt lat="42.654303" lon="-2.243679">
<ele>1487</ele>
<time>2013-05-04T13:31:59.000Z</time>
</trkpt>
<trkpt lat="42.654297" lon="-2.243581">
<ele>1485</ele>
<time>2013-05-04T13:32:00.000Z</time>
</trkpt>
<trkpt lat="42.654293" lon="-2.243481">
<ele>1483</ele>
<time>2013-05-04T13:32:01.000Z</time>
</trkpt>
<trkpt lat="42.65429" lon="-2.243382">
<ele>1481</ele>
<time>2013-05-04T13:32:02.000Z</time>
</trkpt>
<trkpt lat="42.654286" lon="-2.243286">
<ele>1479</ele>
<time>2013-05-04T13:32:03.000Z</time>
</trkpt>
<trkpt lat="42.654281" lon="-2.243194">
<ele>1478</ele>
<time>2013-05-04T13:32:04.000Z</time>
</trkpt>
<trkpt lat="42.654274" lon="-2.243105">
<ele>1476</ele>
<time>2013-05-04T13:32:05.000Z</time>
</trkpt>
<trkpt lat="42.654267" lon="-2.243017">
<ele>1474</ele>
<time>2013-05-04T13:32:06.000Z</time>
</trkpt>
<trkpt lat="42.65426" lon="-2.242929">
<ele>1472</ele>
<time>2013-05-04T13:32:07.000Z</time>
</trkpt>
<trkpt lat="42.654252" lon="-2.242839">
<ele>1469</ele>
<time>2013-05-04T13:32:08.000Z</time>
</trkpt>
<trkpt lat="42.654243" lon="-2.242748">
<ele>1468</ele>
<time>2013-05-04T13:32:09.000Z</time>
</trkpt>
<trkpt lat="42.654232" lon="-2.24266">
<ele>1467</ele>
<time>2013-05-04T13:32:10.000Z</time>
</trkpt>
<trkpt lat="42.654219" lon="-2.242581">
<ele>1466</ele>
<time>2013-05-04T13:32:11.000Z</time>
</trkpt>
<trkpt lat="42.654206" lon="-2.242506">
<ele>1464</ele>
<time>2013-05-04T13:32:12.000Z</time>
</trkpt>
<trkpt lat="42.654194" lon="-2.24243">
<ele>1462</ele>
<time>2013-05-04T13:32:13.000Z</time>
</trkpt>
<trkpt lat="42.654182" lon="-2.242354">
<ele>1459</ele>
<time>2013-05-04T13:32:14.000Z</time>
</trkpt>
<trkpt lat="42.654173" lon="-2.242278">
<ele>1456</ele>
<time>2013-05-04T13:32:15.000Z</time>
</trkpt>
<trkpt lat="42.654164" lon="-2.242206">
<ele>1454</ele>
<time>2013-05-04T13:32:16.000Z</time>
</trkpt>
<trkpt lat="42.654144" lon="-2.242063">
<ele>1450</ele>
<time>2013-05-04T13:32:18.000Z</time>
</trkpt>
<trkpt lat="42.654134" lon="-2.241987">
<ele>1448</ele>
<time>2013-05-04T13:32:19.000Z</time>
</trkpt>
<trkpt lat="42.654123" lon="-2.241911">
<ele>1446</ele>
<time>2013-05-04T13:32:20.000Z</time>
</trkpt>
<trkpt lat="42.654113" lon="-2.241834">
<ele>1444</ele>
<time>2013-05-04T13:32:21.000Z</time>
</trkpt>
<trkpt lat="42.654102" lon="-2.241758">
<ele>1442</ele>
<time>2013-05-04T13:32:22.000Z</time>
</trkpt>
<trkpt lat="42.654092" lon="-2.241677">
<ele>1439</ele>
<time>2013-05-04T13:32:23.000Z</time>
</trkpt>
<trkpt lat="42.654082" lon="-2.241594">
<ele>1436</ele>
<time>2013-05-04T13:32:24.000Z</time>
</trkpt>
<trkpt lat="42.654072" lon="-2.241512">
<ele>1434</ele>
<time>2013-05-04T13:32:25.000Z</time>
</trkpt>
<trkpt lat="42.654063" lon="-2.241432">
<ele>1432</ele>
<time>2013-05-04T13:32:26.000Z</time>
</trkpt>
<trkpt lat="42.654055" lon="-2.241356">
<ele>1430</ele>
<time>2013-05-04T13:32:27.000Z</time>
</trkpt>
<trkpt lat="42.654049" lon="-2.241277">
<ele>1427</ele>
<time>2013-05-04T13:32:28.000Z</time>
</trkpt>
<trkpt lat="42.654044" lon="-2.241194">
<ele>1424</ele>
<time>2013-05-04T13:32:29.000Z</time>
</trkpt>
<trkpt lat="42.654038" lon="-2.241103">
<ele>1421</ele>
<time>2013-05-04T13:32:30.000Z</time>
</trkpt>
<trkpt lat="42.654034" lon="-2.241017">
<ele>1419</ele>
<time>2013-05-04T13:32:31.000Z</time>
</trkpt>
<trkpt lat="42.654033" lon="-2.240941">
<ele>1417</ele>
<time>2013-05-04T13:32:32.000Z</time>
</trkpt>
<trkpt lat="42.654035" lon="-2.24087">
<ele>1414</ele>
<time>2013-05-04T13:32:33.000Z</time>
</trkpt>
<trkpt lat="42.654038" lon="-2.240803">
<ele>1411</ele>
<time>2013-05-04T13:32:34.000Z</time>
</trkpt>
<trkpt lat="42.654044" lon="-2.240728">
<ele>1408</ele>
<time>2013-05-04T13:32:35.000Z</time>
</trkpt>
<trkpt lat="42.654051" lon="-2.240634">
<ele>1405</ele>
<time>2013-05-04T13:32:36.000Z</time>
</trkpt>
<trkpt lat="42.654056" lon="-2.240525">
<ele>1403</ele>
<time>2013-05-04T13:32:37.000Z</time>
</trkpt>
<trkpt lat="42.654058" lon="-2.240418">
<ele>1401</ele>
<time>2013-05-04T13:32:38.000Z</time>
</trkpt>
<trkpt lat="42.654057" lon="-2.240322">
<ele>1400</ele>
<time>2013-05-04T13:32:39.000Z</time>
</trkpt>
<trkpt lat="42.654051" lon="-2.240241">
<ele>1399</ele>
<time>2013-05-04T13:32:40.000Z</time>
</trkpt>
<trkpt lat="42.654046" lon="-2.24017">
<ele>1399</ele>
<time>2013-05-04T13:32:41.000Z</time>
</trkpt>
<trkpt lat="42.654039" lon="-2.240099">
<ele>1399</ele>
<time>2013-05-04T13:32:42.000Z</time>
</trkpt>
<trkpt lat="42.654029" lon="-2.240018">
<ele>1397</ele>
<time>2013-05-04T13:32:43.000Z</time>
</trkpt>
<trkpt lat="42.654021" lon="-2.239925">
<ele>1396</ele>
<time>2013-05-04T13:32:44.000Z</time>
</trkpt>
<trkpt lat="42.654017" lon="-2.239857">
<ele>1395</ele>
<time>2013-05-04T13:32:45.000Z</time>
</trkpt>
<trkpt lat="42.654026" lon="-2.239811">
<ele>1396</ele>
<time>2013-05-04T13:32:46.000Z</time>
</trkpt>
<trkpt lat="42.654044" lon="-2.239773">
<ele>1397</ele>
<time>2013-05-04T13:32:47.000Z</time>
</trkpt>
<trkpt lat="42.654069" lon="-2.23972">
<ele>1395</ele>
<time>2013-05-04T13:32:48.000Z</time>
</trkpt>
<trkpt lat="42.654101" lon="-2.239632">
<ele>1394</ele>
<time>2013-05-04T13:32:49.000Z</time>
</trkpt>
<trkpt lat="42.654116" lon="-2.239523">
<ele>1391</ele>
<time>2013-05-04T13:32:50.000Z</time>
</trkpt>
<trkpt lat="42.654125" lon="-2.23943">
<ele>1389</ele>
<time>2013-05-04T13:32:51.000Z</time>
</trkpt>
<trkpt lat="42.654131" lon="-2.239349">
<ele>1388</ele>
<time>2013-05-04T13:32:52.000Z</time>
</trkpt>
<trkpt lat="42.654139" lon="-2.239267">
<ele>1387</ele>
<time>2013-05-04T13:32:53.000Z</time>
</trkpt>
<trkpt lat="42.654151" lon="-2.23918">
<ele>1385</ele>
<time>2013-05-04T13:32:54.000Z</time>
</trkpt>
<trkpt lat="42.654166" lon="-2.239094">
<ele>1383</ele>
<time>2013-05-04T13:32:55.000Z</time>
</trkpt>
<trkpt lat="42.65418" lon="-2.239003">
<ele>1381</ele>
<time>2013-05-04T13:32:56.000Z</time>
</trkpt>
<trkpt lat="42.654189" lon="-2.238901">
<ele>1380</ele>
<time>2013-05-04T13:32:57.000Z</time>
</trkpt>
<trkpt lat="42.654195" lon="-2.238795">
<ele>1378</ele>
<time>2013-05-04T13:32:58.000Z</time>
</trkpt>
<trkpt lat="42.654198" lon="-2.238697">
<ele>1378</ele>
<time>2013-05-04T13:32:59.000Z</time>
</trkpt>
<trkpt lat="42.654202" lon="-2.238604">
<ele>1378</ele>
<time>2013-05-04T13:33:00.000Z</time>
</trkpt>
<trkpt lat="42.654208" lon="-2.238511">
<ele>1377</ele>
<time>2013-05-04T13:33:01.000Z</time>
</trkpt>
<trkpt lat="42.654214" lon="-2.238412">
<ele>1377</ele>
<time>2013-05-04T13:33:02.000Z</time>
</trkpt>
<trkpt lat="42.654221" lon="-2.238304">
<ele>1376</ele>
<time>2013-05-04T13:33:03.000Z</time>
</trkpt>
<trkpt lat="42.65423" lon="-2.238188">
<ele>1376</ele>
<time>2013-05-04T13:33:04.000Z</time>
</trkpt>
<trkpt lat="42.654238" lon="-2.238077">
<ele>1376</ele>
<time>2013-05-04T13:33:05.000Z</time>
</trkpt>
<trkpt lat="42.654251" lon="-2.237977">
<ele>1377</ele>
<time>2013-05-04T13:33:06.000Z</time>
</trkpt>
<trkpt lat="42.654266" lon="-2.237889">
<ele>1377</ele>
<time>2013-05-04T13:33:07.000Z</time>
</trkpt>
<trkpt lat="42.654284" lon="-2.237802">
<ele>1377</ele>
<time>2013-05-04T13:33:08.000Z</time>
</trkpt>
<trkpt lat="42.654304" lon="-2.23771">
<ele>1377</ele>
<time>2013-05-04T13:33:09.000Z</time>
</trkpt>
<trkpt lat="42.654323" lon="-2.23762">
<ele>1378</ele>
<time>2013-05-04T13:33:10.000Z</time>
</trkpt>
<trkpt lat="42.654337" lon="-2.237539">
<ele>1378</ele>
<time>2013-05-04T13:33:11.000Z</time>
</trkpt>
<trkpt lat="42.654348" lon="-2.237458">
<ele>1379</ele>
<time>2013-05-04T13:33:12.000Z</time>
</trkpt>
<trkpt lat="42.654355" lon="-2.237363">
<ele>1378</ele>
<time>2013-05-04T13:33:13.000Z</time>
</trkpt>
<trkpt lat="42.654358" lon="-2.237254">
<ele>1378</ele>
<time>2013-05-04T13:33:14.000Z</time>
</trkpt>
<trkpt lat="42.654353" lon="-2.237145">
<ele>1377</ele>
<time>2013-05-04T13:33:15.000Z</time>
</trkpt>
<trkpt lat="42.654346" lon="-2.237045">
<ele>1377</ele>
<time>2013-05-04T13:33:16.000Z</time>
</trkpt>
<trkpt lat="42.654333" lon="-2.236856">
<ele>1377</ele>
<time>2013-05-04T13:33:18.000Z</time>
</trkpt>
<trkpt lat="42.654329" lon="-2.236747">
<ele>1377</ele>
<time>2013-05-04T13:33:19.000Z</time>
</trkpt>
<trkpt lat="42.654326" lon="-2.236634">
<ele>1378</ele>
<time>2013-05-04T13:33:20.000Z</time>
</trkpt>
<trkpt lat="42.654324" lon="-2.236527">
<ele>1379</ele>
<time>2013-05-04T13:33:21.000Z</time>
</trkpt>
<trkpt lat="42.654322" lon="-2.236428">
<ele>1379</ele>
<time>2013-05-04T13:33:22.000Z</time>
</trkpt>
<trkpt lat="42.654315" lon="-2.236336">
<ele>1379</ele>
<time>2013-05-04T13:33:23.000Z</time>
</trkpt>
<trkpt lat="42.654306" lon="-2.236248">
<ele>1378</ele>
<time>2013-05-04T13:33:24.000Z</time>
</trkpt>
<trkpt lat="42.654295" lon="-2.236165">
<ele>1378</ele>
<time>2013-05-04T13:33:25.000Z</time>
</trkpt>
<trkpt lat="42.654285" lon="-2.236078">
<ele>1379</ele>
<time>2013-05-04T13:33:26.000Z</time>
</trkpt>
<trkpt lat="42.654278" lon="-2.235996">
<ele>1378</ele>
<time>2013-05-04T13:33:27.000Z</time>
</trkpt>
<trkpt lat="42.654289" lon="-2.235922">
<ele>1380</ele>
<time>2013-05-04T13:33:28.000Z</time>
</trkpt>
<trkpt lat="42.654318" lon="-2.235842">
<ele>1379</ele>
<time>2013-05-04T13:33:29.000Z</time>
</trkpt>
<trkpt lat="42.654355" lon="-2.23575">
<ele>1377</ele>
<time>2013-05-04T13:33:30.000Z</time>
</trkpt>
<trkpt lat="42.654391" lon="-2.235659">
<ele>1376</ele>
<time>2013-05-04T13:33:31.000Z</time>
</trkpt>
<trkpt lat="42.654428" lon="-2.235572">
<ele>1374</ele>
<time>2013-05-04T13:33:32.000Z</time>
</trkpt>
<trkpt lat="42.654466" lon="-2.235491">
<ele>1370</ele>
<time>2013-05-04T13:33:33.000Z</time>
</trkpt>
<trkpt lat="42.654501" lon="-2.235413">
<ele>1369</ele>
<time>2013-05-04T13:33:34.000Z</time>
</trkpt>
<trkpt lat="42.654534" lon="-2.235325">
<ele>1366</ele>
<time>2013-05-04T13:33:35.000Z</time>
</trkpt>
<trkpt lat="42.654563" lon="-2.235224">
<ele>1364</ele>
<time>2013-05-04T13:33:36.000Z</time>
</trkpt>
<trkpt lat="42.654588" lon="-2.235118">
<ele>1363</ele>
<time>2013-05-04T13:33:37.000Z</time>
</trkpt>
<trkpt lat="42.654605" lon="-2.23502">
<ele>1363</ele>
<time>2013-05-04T13:33:38.000Z</time>
</trkpt>
<trkpt lat="42.654615" lon="-2.234933">
<ele>1363</ele>
<time>2013-05-04T13:33:39.000Z</time>
</trkpt>
<trkpt lat="42.654622" lon="-2.234856">
<ele>1363</ele>
<time>2013-05-04T13:33:40.000Z</time>
</trkpt>
<trkpt lat="42.654631" lon="-2.234762">
<ele>1363</ele>
<time>2013-05-04T13:33:41.000Z</time>
</trkpt>
<trkpt lat="42.654642" lon="-2.234646">
<ele>1362</ele>
<time>2013-05-04T13:33:42.000Z</time>
</trkpt>
<trkpt lat="42.654656" lon="-2.23455">
<ele>1358</ele>
<time>2013-05-04T13:33:43.000Z</time>
</trkpt>
<trkpt lat="42.654671" lon="-2.234459">
<ele>1356</ele>
<time>2013-05-04T13:33:44.000Z</time>
</trkpt>
<trkpt lat="42.654685" lon="-2.234374">
<ele>1355</ele>
<time>2013-05-04T13:33:45.000Z</time>
</trkpt>
<trkpt lat="42.6547" lon="-2.234281">
<ele>1355</ele>
<time>2013-05-04T13:33:46.000Z</time>
</trkpt>
<trkpt lat="42.654714" lon="-2.234174">
<ele>1355</ele>
<time>2013-05-04T13:33:47.000Z</time>
</trkpt>
<trkpt lat="42.654725" lon="-2.234051">
<ele>1353</ele>
<time>2013-05-04T13:33:48.000Z</time>
</trkpt>
<trkpt lat="42.654742" lon="-2.233918">
<ele>1351</ele>
<time>2013-05-04T13:33:49.000Z</time>
</trkpt>
<trkpt lat="42.654761" lon="-2.233795">
<ele>1347</ele>
<time>2013-05-04T13:33:50.000Z</time>
</trkpt>
<trkpt lat="42.654779" lon="-2.233688">
<ele>1344</ele>
<time>2013-05-04T13:33:51.000Z</time>
</trkpt>
<trkpt lat="42.654797" lon="-2.233582">
<ele>1342</ele>
<time>2013-05-04T13:33:52.000Z</time>
</trkpt>
<trkpt lat="42.654815" lon="-2.233474">
<ele>1340</ele>
<time>2013-05-04T13:33:53.000Z</time>
</trkpt>
<trkpt lat="42.654831" lon="-2.233352">
<ele>1340</ele>
<time>2013-05-04T13:33:54.000Z</time>
</trkpt>
<trkpt lat="42.654845" lon="-2.233225">
<ele>1340</ele>
<time>2013-05-04T13:33:55.000Z</time>
</trkpt>
<trkpt lat="42.654859" lon="-2.233107">
<ele>1338</ele>
<time>2013-05-04T13:33:56.000Z</time>
</trkpt>
<trkpt lat="42.654874" lon="-2.232986">
<ele>1337</ele>
<time>2013-05-04T13:33:57.000Z</time>
</trkpt>
<trkpt lat="42.65489" lon="-2.232861">
<ele>1335</ele>
<time>2013-05-04T13:33:58.000Z</time>
</trkpt>
<trkpt lat="42.654906" lon="-2.232737">
<ele>1334</ele>
<time>2013-05-04T13:33:59.000Z</time>
</trkpt>
<trkpt lat="42.654917" lon="-2.232617">
<ele>1332</ele>
<time>2013-05-04T13:34:00.000Z</time>
</trkpt>
<trkpt lat="42.654925" lon="-2.232505">
<ele>1332</ele>
<time>2013-05-04T13:34:01.000Z</time>
</trkpt>
<trkpt lat="42.654933" lon="-2.232405">
<ele>1331</ele>
<time>2013-05-04T13:34:02.000Z</time>
</trkpt>
<trkpt lat="42.654943" lon="-2.232308">
<ele>1330</ele>
<time>2013-05-04T13:34:03.000Z</time>
</trkpt>
<trkpt lat="42.654956" lon="-2.232199">
<ele>1328</ele>
<time>2013-05-04T13:34:04.000Z</time>
</trkpt>
<trkpt lat="42.65497" lon="-2.232077">
<ele>1326</ele>
<time>2013-05-04T13:34:05.000Z</time>
</trkpt>
<trkpt lat="42.654984" lon="-2.231952">
<ele>1323</ele>
<time>2013-05-04T13:34:06.000Z</time>
</trkpt>
<trkpt lat="42.655001" lon="-2.23182">
<ele>1321</ele>
<time>2013-05-04T13:34:07.000Z</time>
</trkpt>
<trkpt lat="42.655017" lon="-2.231686">
<ele>1318</ele>
<time>2013-05-04T13:34:08.000Z</time>
</trkpt>
<trkpt lat="42.655032" lon="-2.231546">
<ele>1316</ele>
<time>2013-05-04T13:34:09.000Z</time>
</trkpt>
<trkpt lat="42.65504" lon="-2.231404">
<ele>1314</ele>
<time>2013-05-04T13:34:10.000Z</time>
</trkpt>
<trkpt lat="42.655038" lon="-2.231266">
<ele>1313</ele>
<time>2013-05-04T13:34:11.000Z</time>
</trkpt>
<trkpt lat="42.655034" lon="-2.231126">
<ele>1313</ele>
<time>2013-05-04T13:34:12.000Z</time>
</trkpt>
<trkpt lat="42.655028" lon="-2.230997">
<ele>1313</ele>
<time>2013-05-04T13:34:13.000Z</time>
</trkpt>
<trkpt lat="42.655022" lon="-2.230869">
<ele>1311</ele>
<time>2013-05-04T13:34:14.000Z</time>
</trkpt>
<trkpt lat="42.655016" lon="-2.230734">
<ele>1308</ele>
<time>2013-05-04T13:34:15.000Z</time>
</trkpt>
<trkpt lat="42.655011" lon="-2.23059">
<ele>1306</ele>
<time>2013-05-04T13:34:16.000Z</time>
</trkpt>
<trkpt lat="42.654986" lon="-2.230305">
<ele>1302</ele>
<time>2013-05-04T13:34:18.000Z</time>
</trkpt>
<trkpt lat="42.654972" lon="-2.230166">
<ele>1301</ele>
<time>2013-05-04T13:34:19.000Z</time>
</trkpt>
<trkpt lat="42.654961" lon="-2.230049">
<ele>1300</ele>
<time>2013-05-04T13:34:20.000Z</time>
</trkpt>
<trkpt lat="42.654956" lon="-2.229939">
<ele>1296</ele>
<time>2013-05-04T13:34:21.000Z</time>
</trkpt>
<trkpt lat="42.654952" lon="-2.229809">
<ele>1294</ele>
<time>2013-05-04T13:34:22.000Z</time>
</trkpt>
<trkpt lat="42.654944" lon="-2.229655">
<ele>1292</ele>
<time>2013-05-04T13:34:23.000Z</time>
</trkpt>
<trkpt lat="42.65493" lon="-2.229479">
<ele>1290</ele>
<time>2013-05-04T13:34:24.000Z</time>
</trkpt>
<trkpt lat="42.654918" lon="-2.229313">
<ele>1289</ele>
<time>2013-05-04T13:34:25.000Z</time>
</trkpt>
<trkpt lat="42.654911" lon="-2.229186">
<ele>1288</ele>
<time>2013-05-04T13:34:26.000Z</time>
</trkpt>
<trkpt lat="42.65491" lon="-2.22911">
<ele>1288</ele>
<time>2013-05-04T13:34:27.000Z</time>
</trkpt>
<trkpt lat="42.654915" lon="-2.229045">
<ele>1291</ele>
<time>2013-05-04T13:34:28.000Z</time>
</trkpt>
<trkpt lat="42.654921" lon="-2.228994">
<ele>1292</ele>
<time>2013-05-04T13:34:29.000Z</time>
</trkpt>
<trkpt lat="42.654931" lon="-2.228941">
<ele>1293</ele>
<time>2013-05-04T13:34:30.000Z</time>
</trkpt>
<trkpt lat="42.654945" lon="-2.228885">
<ele>1294</ele>
<time>2013-05-04T13:34:31.000Z</time>
</trkpt>
<trkpt lat="42.654962" lon="-2.228814">
<ele>1293</ele>
<time>2013-05-04T13:34:32.000Z</time>
</trkpt>
<trkpt lat="42.65498" lon="-2.228738">
<ele>1293</ele>
<time>2013-05-04T13:34:33.000Z</time>
</trkpt>
<trkpt lat="42.654998" lon="-2.22865">
<ele>1293</ele>
<time>2013-05-04T13:34:34.000Z</time>
</trkpt>
<trkpt lat="42.655018" lon="-2.228551">
<ele>1292</ele>
<time>2013-05-04T13:34:35.000Z</time>
</trkpt>
<trkpt lat="42.655041" lon="-2.228432">
<ele>1293</ele>
<time>2013-05-04T13:34:36.000Z</time>
</trkpt>
<trkpt lat="42.655058" lon="-2.228317">
<ele>1293</ele>
<time>2013-05-04T13:34:37.000Z</time>
</trkpt>
<trkpt lat="42.655051" lon="-2.228218">
<ele>1292</ele>
<time>2013-05-04T13:34:38.000Z</time>
</trkpt>
<trkpt lat="42.655028" lon="-2.228135">
<ele>1293</ele>
<time>2013-05-04T13:34:39.000Z</time>
</trkpt>
<trkpt lat="42.655004" lon="-2.228061">
<ele>1293</ele>
<time>2013-05-04T13:34:40.000Z</time>
</trkpt>
<trkpt lat="42.654985" lon="-2.227996">
<ele>1292</ele>
<time>2013-05-04T13:34:41.000Z</time>
</trkpt>
<trkpt lat="42.654982" lon="-2.227914">
<ele>1294</ele>
<time>2013-05-04T13:34:42.000Z</time>
</trkpt>
<trkpt lat="42.654981" lon="-2.227825">
<ele>1295</ele>
<time>2013-05-04T13:34:43.000Z</time>
</trkpt>
<trkpt lat="42.65498" lon="-2.227726">
<ele>1296</ele>
<time>2013-05-04T13:34:44.000Z</time>
</trkpt>
<trkpt lat="42.654978" lon="-2.22764">
<ele>1295</ele>
<time>2013-05-04T13:34:45.000Z</time>
</trkpt>
<trkpt lat="42.654976" lon="-2.227556">
<ele>1295</ele>
<time>2013-05-04T13:34:46.000Z</time>
</trkpt>
<trkpt lat="42.654972" lon="-2.227478">
<ele>1295</ele>
<time>2013-05-04T13:34:47.000Z</time>
</trkpt>
<trkpt lat="42.65497" lon="-2.227404">
<ele>1295</ele>
<time>2013-05-04T13:34:48.000Z</time>
</trkpt>
<trkpt lat="42.654964" lon="-2.227335">
<ele>1296</ele>
<time>2013-05-04T13:34:49.000Z</time>
</trkpt>
<trkpt lat="42.654949" lon="-2.227271">
<ele>1297</ele>
<time>2013-05-04T13:34:50.000Z</time>
</trkpt>
<trkpt lat="42.654932" lon="-2.227209">
<ele>1296</ele>
<time>2013-05-04T13:34:51.000Z</time>
</trkpt>
<trkpt lat="42.654911" lon="-2.227142">
<ele>1295</ele>
<time>2013-05-04T13:34:52.000Z</time>
</trkpt>
<trkpt lat="42.654883" lon="-2.227061">
<ele>1296</ele>
<time>2013-05-04T13:34:53.000Z</time>
</trkpt>
<trkpt lat="42.654852" lon="-2.226991">
<ele>1296</ele>
<time>2013-05-04T13:34:54.000Z</time>
</trkpt>
<trkpt lat="42.65482" lon="-2.226931">
<ele>1297</ele>
<time>2013-05-04T13:34:55.000Z</time>
</trkpt>
<trkpt lat="42.65479" lon="-2.226867">
<ele>1297</ele>
<time>2013-05-04T13:34:56.000Z</time>
</trkpt>
<trkpt lat="42.654776" lon="-2.226789">
<ele>1297</ele>
<time>2013-05-04T13:34:57.000Z</time>
</trkpt>
<trkpt lat="42.654766" lon="-2.226704">
<ele>1299</ele>
<time>2013-05-04T13:34:58.000Z</time>
</trkpt>
<trkpt lat="42.65476" lon="-2.226621">
<ele>1301</ele>
<time>2013-05-04T13:34:59.000Z</time>
</trkpt>
<trkpt lat="42.654752" lon="-2.226538">
<ele>1302</ele>
<time>2013-05-04T13:35:00.000Z</time>
</trkpt>
<trkpt lat="42.654739" lon="-2.226456">
<ele>1302</ele>
<time>2013-05-04T13:35:01.000Z</time>
</trkpt>
<trkpt lat="42.654713" lon="-2.226377">
<ele>1304</ele>
<time>2013-05-04T13:35:02.000Z</time>
</trkpt>
<trkpt lat="42.654672" lon="-2.226317">
<ele>1305</ele>
<time>2013-05-04T13:35:03.000Z</time>
</trkpt>
<trkpt lat="42.654622" lon="-2.226278">
<ele>1306</ele>
<time>2013-05-04T13:35:04.000Z</time>
</trkpt>
<trkpt lat="42.654569" lon="-2.226243">
<ele>1308</ele>
<time>2013-05-04T13:35:05.000Z</time>
</trkpt>
<trkpt lat="42.654517" lon="-2.226211">
<ele>1309</ele>
<time>2013-05-04T13:35:06.000Z</time>
</trkpt>
<trkpt lat="42.654468" lon="-2.226186">
<ele>1310</ele>
<time>2013-05-04T13:35:07.000Z</time>
</trkpt>
<trkpt lat="42.654408" lon="-2.226174">
<ele>1312</ele>
<time>2013-05-04T13:35:08.000Z</time>
</trkpt>
<trkpt lat="42.654347" lon="-2.22617">
<ele>1312</ele>
<time>2013-05-04T13:35:09.000Z</time>
</trkpt>
<trkpt lat="42.654287" lon="-2.226183">
<ele>1313</ele>
<time>2013-05-04T13:35:10.000Z</time>
</trkpt>
<trkpt lat="42.654232" lon="-2.226199">
<ele>1313</ele>
<time>2013-05-04T13:35:11.000Z</time>
</trkpt>
<trkpt lat="42.654187" lon="-2.226231">
<ele>1312</ele>
<time>2013-05-04T13:35:12.000Z</time>
</trkpt>
<trkpt lat="42.654135" lon="-2.22627">
<ele>1311</ele>
<time>2013-05-04T13:35:13.000Z</time>
</trkpt>
<trkpt lat="42.654068" lon="-2.226326">
<ele>1311</ele>
<time>2013-05-04T13:35:14.000Z</time>
</trkpt>
<trkpt lat="42.654001" lon="-2.226388">
<ele>1312</ele>
<time>2013-05-04T13:35:15.000Z</time>
</trkpt>
<trkpt lat="42.653956" lon="-2.226469">
<ele>1312</ele>
<time>2013-05-04T13:35:16.000Z</time>
</trkpt>
<trkpt lat="42.653919" lon="-2.226652">
<ele>1314</ele>
<time>2013-05-04T13:35:18.000Z</time>
</trkpt>
<trkpt lat="42.653904" lon="-2.226745">
<ele>1315</ele>
<time>2013-05-04T13:35:19.000Z</time>
</trkpt>
<trkpt lat="42.653887" lon="-2.226839">
<ele>1314</ele>
<time>2013-05-04T13:35:20.000Z</time>
</trkpt>
<trkpt lat="42.653865" lon="-2.226926">
<ele>1314</ele>
<time>2013-05-04T13:35:21.000Z</time>
</trkpt>
<trkpt lat="42.653842" lon="-2.227006">
<ele>1316</ele>
<time>2013-05-04T13:35:22.000Z</time>
</trkpt>
<trkpt lat="42.653817" lon="-2.227085">
<ele>1316</ele>
<time>2013-05-04T13:35:23.000Z</time>
</trkpt>
<trkpt lat="42.65378" lon="-2.227146">
<ele>1316</ele>
<time>2013-05-04T13:35:24.000Z</time>
</trkpt>
<trkpt lat="42.653728" lon="-2.227188">
<ele>1317</ele>
<time>2013-05-04T13:35:25.000Z</time>
</trkpt>
<trkpt lat="42.653664" lon="-2.227208">
<ele>1318</ele>
<time>2013-05-04T13:35:26.000Z</time>
</trkpt>
<trkpt lat="42.653609" lon="-2.227203">
<ele>1320</ele>
<time>2013-05-04T13:35:27.000Z</time>
</trkpt>
<trkpt lat="42.653568" lon="-2.227179">
<ele>1322</ele>
<time>2013-05-04T13:35:28.000Z</time>
</trkpt>
<trkpt lat="42.653531" lon="-2.227138">
<ele>1323</ele>
<time>2013-05-04T13:35:29.000Z</time>
</trkpt>
<trkpt lat="42.653497" lon="-2.227077">
<ele>1325</ele>
<time>2013-05-04T13:35:30.000Z</time>
</trkpt>
<trkpt lat="42.653465" lon="-2.227008">
<ele>1327</ele>
<time>2013-05-04T13:35:31.000Z</time>
</trkpt>
<trkpt lat="42.653447" lon="-2.226929">
<ele>1327</ele>
<time>2013-05-04T13:35:32.000Z</time>
</trkpt>
<trkpt lat="42.653445" lon="-2.226851">
<ele>1328</ele>
<time>2013-05-04T13:35:33.000Z</time>
</trkpt>
<trkpt lat="42.653467" lon="-2.226776">
<ele>1329</ele>
<time>2013-05-04T13:35:34.000Z</time>
</trkpt>
<trkpt lat="42.65351" lon="-2.226715">
<ele>1330</ele>
<time>2013-05-04T13:35:35.000Z</time>
</trkpt>
<trkpt lat="42.653569" lon="-2.22667">
<ele>1331</ele>
<time>2013-05-04T13:35:36.000Z</time>
</trkpt>
<trkpt lat="42.653631" lon="-2.226632">
<ele>1332</ele>
<time>2013-05-04T13:35:37.000Z</time>
</trkpt>
<trkpt lat="42.653703" lon="-2.226619">
<ele>1333</ele>
<time>2013-05-04T13:35:38.000Z</time>
</trkpt>
<trkpt lat="42.653779" lon="-2.22663">
<ele>1335</ele>
<time>2013-05-04T13:35:39.000Z</time>
</trkpt>
<trkpt lat="42.653856" lon="-2.226672">
<ele>1337</ele>
<time>2013-05-04T13:35:40.000Z</time>
</trkpt>
<trkpt lat="42.653926" lon="-2.226739">
<ele>1339</ele>
<time>2013-05-04T13:35:41.000Z</time>
</trkpt>
<trkpt lat="42.653991" lon="-2.22681">
<ele>1340</ele>
<time>2013-05-04T13:35:42.000Z</time>
</trkpt>
<trkpt lat="42.654044" lon="-2.226882">
<ele>1341</ele>
<time>2013-05-04T13:35:43.000Z</time>
</trkpt>
<trkpt lat="42.654081" lon="-2.226979">
<ele>1341</ele>
<time>2013-05-04T13:35:44.000Z</time>
</trkpt>
<trkpt lat="42.654113" lon="-2.227084">
<ele>1341</ele>
<time>2013-05-04T13:35:45.000Z</time>
</trkpt>
<trkpt lat="42.654117" lon="-2.227201">
<ele>1341</ele>
<time>2013-05-04T13:35:46.000Z</time>
</trkpt>
<trkpt lat="42.654115" lon="-2.227316">
<ele>1341</ele>
<time>2013-05-04T13:35:47.000Z</time>
</trkpt>
<trkpt lat="42.654093" lon="-2.227435">
<ele>1341</ele>
<time>2013-05-04T13:35:48.000Z</time>
</trkpt>
<trkpt lat="42.654072" lon="-2.227548">
<ele>1340</ele>
<time>2013-05-04T13:35:49.000Z</time>
</trkpt>
<trkpt lat="42.65405" lon="-2.227651">
<ele>1341</ele>
<time>2013-05-04T13:35:50.000Z</time>
</trkpt>
<trkpt lat="42.654029" lon="-2.22774">
<ele>1343</ele>
<time>2013-05-04T13:35:51.000Z</time>
</trkpt>
<trkpt lat="42.654007" lon="-2.22782">
<ele>1345</ele>
<time>2013-05-04T13:35:52.000Z</time>
</trkpt>
<trkpt lat="42.653983" lon="-2.227888">
<ele>1346</ele>
<time>2013-05-04T13:35:53.000Z</time>
</trkpt>
<trkpt lat="42.653944" lon="-2.227949">
<ele>1348</ele>
<time>2013-05-04T13:35:54.000Z</time>
</trkpt>
<trkpt lat="42.653896" lon="-2.228012">
<ele>1350</ele>
<time>2013-05-04T13:35:55.000Z</time>
</trkpt>
<trkpt lat="42.653849" lon="-2.228058">
<ele>1351</ele>
<time>2013-05-04T13:35:56.000Z</time>
</trkpt>
<trkpt lat="42.653791" lon="-2.228086">
<ele>1352</ele>
<time>2013-05-04T13:35:57.000Z</time>
</trkpt>
<trkpt lat="42.653737" lon="-2.228108">
<ele>1351</ele>
<time>2013-05-04T13:35:58.000Z</time>
</trkpt>
<trkpt lat="42.653696" lon="-2.228105">
<ele>1353</ele>
<time>2013-05-04T13:35:59.000Z</time>
</trkpt>
<trkpt lat="42.653658" lon="-2.22808">
<ele>1354</ele>
<time>2013-05-04T13:36:00.000Z</time>
</trkpt>
<trkpt lat="42.65362" lon="-2.228029">
<ele>1356</ele>
<time>2013-05-04T13:36:01.000Z</time>
</trkpt>
<trkpt lat="42.653593" lon="-2.227954">
<ele>1357</ele>
<time>2013-05-04T13:36:02.000Z</time>
</trkpt>
<trkpt lat="42.653581" lon="-2.227862">
<ele>1359</ele>
<time>2013-05-04T13:36:03.000Z</time>
</trkpt>
<trkpt lat="42.653576" lon="-2.227777">
<ele>1361</ele>
<time>2013-05-04T13:36:04.000Z</time>
</trkpt>
<trkpt lat="42.653577" lon="-2.2277">
<ele>1361</ele>
<time>2013-05-04T13:36:05.000Z</time>
</trkpt>
<trkpt lat="42.653595" lon="-2.227634">
<ele>1363</ele>
<time>2013-05-04T13:36:06.000Z</time>
</trkpt>
<trkpt lat="42.653634" lon="-2.227566">
<ele>1360</ele>
<time>2013-05-04T13:36:07.000Z</time>
</trkpt>
<trkpt lat="42.653681" lon="-2.227503">
<ele>1357</ele>
<time>2013-05-04T13:36:08.000Z</time>
</trkpt>
<trkpt lat="42.653746" lon="-2.227442">
<ele>1356</ele>
<time>2013-05-04T13:36:09.000Z</time>
</trkpt>
<trkpt lat="42.653807" lon="-2.227392">
<ele>1357</ele>
<time>2013-05-04T13:36:10.000Z</time>
</trkpt>
<trkpt lat="42.653873" lon="-2.227361">
<ele>1358</ele>
<time>2013-05-04T13:36:11.000Z</time>
</trkpt>
<trkpt lat="42.653933" lon="-2.227333">
<ele>1360</ele>
<time>2013-05-04T13:36:12.000Z</time>
</trkpt>
<trkpt lat="42.653987" lon="-2.227313">
<ele>1361</ele>
<time>2013-05-04T13:36:13.000Z</time>
</trkpt>
<trkpt lat="42.654051" lon="-2.227324">
<ele>1361</ele>
<time>2013-05-04T13:36:14.000Z</time>
</trkpt>
<trkpt lat="42.654116" lon="-2.227361">
<ele>1362</ele>
<time>2013-05-04T13:36:15.000Z</time>
</trkpt>
<trkpt lat="42.654189" lon="-2.227409">
<ele>1363</ele>
<time>2013-05-04T13:36:16.000Z</time>
</trkpt>
<trkpt lat="42.654325" lon="-2.227549">
<ele>1367</ele>
<time>2013-05-04T13:36:18.000Z</time>
</trkpt>
<trkpt lat="42.654386" lon="-2.227627">
<ele>1369</ele>
<time>2013-05-04T13:36:19.000Z</time>
</trkpt>
<trkpt lat="42.654439" lon="-2.227701">
<ele>1371</ele>
<time>2013-05-04T13:36:20.000Z</time>
</trkpt>
<trkpt lat="42.654485" lon="-2.227779">
<ele>1373</ele>
<time>2013-05-04T13:36:21.000Z</time>
</trkpt>
<trkpt lat="42.654514" lon="-2.227863">
<ele>1374</ele>
<time>2013-05-04T13:36:22.000Z</time>
</trkpt>
<trkpt lat="42.65453" lon="-2.227949">
<ele>1375</ele>
<time>2013-05-04T13:36:23.000Z</time>
</trkpt>
<trkpt lat="42.65453" lon="-2.228034">
<ele>1376</ele>
<time>2013-05-04T13:36:24.000Z</time>
</trkpt>
<trkpt lat="42.654515" lon="-2.228117">
<ele>1376</ele>
<time>2013-05-04T13:36:25.000Z</time>
</trkpt>
<trkpt lat="42.65449" lon="-2.228185">
<ele>1375</ele>
<time>2013-05-04T13:36:26.000Z</time>
</trkpt>
<trkpt lat="42.654449" lon="-2.228223">
<ele>1374</ele>
<time>2013-05-04T13:36:27.000Z</time>
</trkpt>
<trkpt lat="42.654395" lon="-2.228234">
<ele>1373</ele>
<time>2013-05-04T13:36:28.000Z</time>
</trkpt>
<trkpt lat="42.654336" lon="-2.228227">
<ele>1375</ele>
<time>2013-05-04T13:36:29.000Z</time>
</trkpt>
<trkpt lat="42.654282" lon="-2.228213">
<ele>1378</ele>
<time>2013-05-04T13:36:30.000Z</time>
</trkpt>
<trkpt lat="42.654229" lon="-2.228174">
<ele>1380</ele>
<time>2013-05-04T13:36:31.000Z</time>
</trkpt>
<trkpt lat="42.654178" lon="-2.228128">
<ele>1381</ele>
<time>2013-05-04T13:36:32.000Z</time>
</trkpt>
<trkpt lat="42.654135" lon="-2.228057">
<ele>1381</ele>
<time>2013-05-04T13:36:33.000Z</time>
</trkpt>
<trkpt lat="42.654101" lon="-2.227989">
<ele>1382</ele>
<time>2013-05-04T13:36:34.000Z</time>
</trkpt>
<trkpt lat="42.654073" lon="-2.227921">
<ele>1383</ele>
<time>2013-05-04T13:36:35.000Z</time>
</trkpt>
<trkpt lat="42.654051" lon="-2.227857">
<ele>1383</ele>
<time>2013-05-04T13:36:36.000Z</time>
</trkpt>
<trkpt lat="42.654031" lon="-2.227797">
<ele>1383</ele>
<time>2013-05-04T13:36:37.000Z</time>
</trkpt>
<trkpt lat="42.65401" lon="-2.22773">
<ele>1382</ele>
<time>2013-05-04T13:36:38.000Z</time>
</trkpt>
<trkpt lat="42.653999" lon="-2.227642">
<ele>1381</ele>
<time>2013-05-04T13:36:39.000Z</time>
</trkpt>
<trkpt lat="42.654011" lon="-2.227548">
<ele>1380</ele>
<time>2013-05-04T13:36:40.000Z</time>
</trkpt>
<trkpt lat="42.654054" lon="-2.227433">
<ele>1382</ele>
<time>2013-05-04T13:36:41.000Z</time>
</trkpt>
<trkpt lat="42.654122" lon="-2.227316">
<ele>1383</ele>
<time>2013-05-04T13:36:42.000Z</time>
</trkpt>
<trkpt lat="42.654183" lon="-2.227214">
<ele>1383</ele>
<time>2013-05-04T13:36:43.000Z</time>
</trkpt>
<trkpt lat="42.654236" lon="-2.227133">
<ele>1385</ele>
<time>2013-05-04T13:36:44.000Z</time>
</trkpt>
<trkpt lat="42.654288" lon="-2.227064">
<ele>1386</ele>
<time>2013-05-04T13:36:45.000Z</time>
</trkpt>
<trkpt lat="42.654353" lon="-2.227011">
<ele>1386</ele>
<time>2013-05-04T13:36:46.000Z</time>
</trkpt>
<trkpt lat="42.654431" lon="-2.22696">
<ele>1387</ele>
<time>2013-05-04T13:36:47.000Z</time>
</trkpt>
<trkpt lat="42.654531" lon="-2.226932">
<ele>1387</ele>
<time>2013-05-04T13:36:48.000Z</time>
</trkpt>
<trkpt lat="42.654621" lon="-2.226914">
<ele>1387</ele>
<time>2013-05-04T13:36:49.000Z</time>
</trkpt>
<trkpt lat="42.654705" lon="-2.226926">
<ele>1387</ele>
<time>2013-05-04T13:36:50.000Z</time>
</trkpt>
<trkpt lat="42.654788" lon="-2.226945">
<ele>1388</ele>
<time>2013-05-04T13:36:51.000Z</time>
</trkpt>
<trkpt lat="42.654866" lon="-2.226972">
<ele>1388</ele>
<time>2013-05-04T13:36:52.000Z</time>
</trkpt>
<trkpt lat="42.654952" lon="-2.22701">
<ele>1389</ele>
<time>2013-05-04T13:36:53.000Z</time>
</trkpt>
<trkpt lat="42.655043" lon="-2.227059">
<ele>1390</ele>
<time>2013-05-04T13:36:54.000Z</time>
</trkpt>
<trkpt lat="42.655125" lon="-2.227138">
<ele>1392</ele>
<time>2013-05-04T13:36:55.000Z</time>
</trkpt>
<trkpt lat="42.655195" lon="-2.22721">
<ele>1393</ele>
<time>2013-05-04T13:36:56.000Z</time>
</trkpt>
<trkpt lat="42.65526" lon="-2.227277">
<ele>1394</ele>
<time>2013-05-04T13:36:57.000Z</time>
</trkpt>
<trkpt lat="42.655327" lon="-2.227335">
<ele>1394</ele>
<time>2013-05-04T13:36:58.000Z</time>
</trkpt>
<trkpt lat="42.655409" lon="-2.227363">
<ele>1393</ele>
<time>2013-05-04T13:36:59.000Z</time>
</trkpt>
<trkpt lat="42.655499" lon="-2.227381">
<ele>1392</ele>
<time>2013-05-04T13:37:00.000Z</time>
</trkpt>
<trkpt lat="42.655592" lon="-2.227361">
<ele>1392</ele>
<time>2013-05-04T13:37:01.000Z</time>
</trkpt>
<trkpt lat="42.655675" lon="-2.227311">
<ele>1391</ele>
<time>2013-05-04T13:37:02.000Z</time>
</trkpt>
<trkpt lat="42.655724" lon="-2.227234">
<ele>1392</ele>
<time>2013-05-04T13:37:03.000Z</time>
</trkpt>
<trkpt lat="42.655748" lon="-2.227151">
<ele>1393</ele>
<time>2013-05-04T13:37:04.000Z</time>
</trkpt>
<trkpt lat="42.655748" lon="-2.227079">
<ele>1395</ele>
<time>2013-05-04T13:37:05.000Z</time>
</trkpt>
<trkpt lat="42.65573" lon="-2.227017">
<ele>1394</ele>
<time>2013-05-04T13:37:06.000Z</time>
</trkpt>
<trkpt lat="42.655691" lon="-2.226971">
<ele>1394</ele>
<time>2013-05-04T13:37:07.000Z</time>
</trkpt>
<trkpt lat="42.655642" lon="-2.226949">
<ele>1393</ele>
<time>2013-05-04T13:37:08.000Z</time>
</trkpt>
<trkpt lat="42.655589" lon="-2.226948">
<ele>1393</ele>
<time>2013-05-04T13:37:09.000Z</time>
</trkpt>
<trkpt lat="42.655545" lon="-2.226964">
<ele>1393</ele>
<time>2013-05-04T13:37:10.000Z</time>
</trkpt>
<trkpt lat="42.655511" lon="-2.226996">
<ele>1393</ele>
<time>2013-05-04T13:37:11.000Z</time>
</trkpt>
<trkpt lat="42.655474" lon="-2.227031">
<ele>1392</ele>
<time>2013-05-04T13:37:12.000Z</time>
</trkpt>
<trkpt lat="42.655435" lon="-2.227068">
<ele>1391</ele>
<time>2013-05-04T13:37:13.000Z</time>
</trkpt>
<trkpt lat="42.655383" lon="-2.227114">
<ele>1392</ele>
<time>2013-05-04T13:37:14.000Z</time>
</trkpt>
<trkpt lat="42.655329" lon="-2.227165">
<ele>1392</ele>
<time>2013-05-04T13:37:15.000Z</time>
</trkpt>
<trkpt lat="42.655278" lon="-2.227218">
<ele>1392</ele>
<time>2013-05-04T13:37:16.000Z</time>
</trkpt>
<trkpt lat="42.65523" lon="-2.227273">
<ele>1393</ele>
<time>2013-05-04T13:37:17.000Z</time>
</trkpt>
<trkpt lat="42.655194" lon="-2.227341">
<ele>1393</ele>
<time>2013-05-04T13:37:18.000Z</time>
</trkpt>
<trkpt lat="42.65516" lon="-2.227414">
<ele>1393</ele>
<time>2013-05-04T13:37:19.000Z</time>
</trkpt>
<trkpt lat="42.655129" lon="-2.227497">
<ele>1393</ele>
<time>2013-05-04T13:37:20.000Z</time>
</trkpt>
<trkpt lat="42.655099" lon="-2.227588">
<ele>1394</ele>
<time>2013-05-04T13:37:21.000Z</time>
</trkpt>
<trkpt lat="42.655074" lon="-2.227679">
<ele>1394</ele>
<time>2013-05-04T13:37:22.000Z</time>
</trkpt>
<trkpt lat="42.655054" lon="-2.227767">
<ele>1394</ele>
<time>2013-05-04T13:37:23.000Z</time>
</trkpt>
<trkpt lat="42.655051" lon="-2.227854">
<ele>1394</ele>
<time>2013-05-04T13:37:24.000Z</time>
</trkpt>
<trkpt lat="42.655049" lon="-2.227938">
<ele>1395</ele>
<time>2013-05-04T13:37:25.000Z</time>
</trkpt>
<trkpt lat="42.655047" lon="-2.228015">
<ele>1397</ele>
<time>2013-05-04T13:37:26.000Z</time>
</trkpt>
<trkpt lat="42.655042" lon="-2.228083">
<ele>1399</ele>
<time>2013-05-04T13:37:27.000Z</time>
</trkpt>
<trkpt lat="42.655035" lon="-2.228143">
<ele>1400</ele>
<time>2013-05-04T13:37:28.000Z</time>
</trkpt>
<trkpt lat="42.655026" lon="-2.228201">
<ele>1401</ele>
<time>2013-05-04T13:37:29.000Z</time>
</trkpt>
<trkpt lat="42.655016" lon="-2.228267">
<ele>1401</ele>
<time>2013-05-04T13:37:30.000Z</time>
</trkpt>
<trkpt lat="42.655006" lon="-2.228344">
<ele>1401</ele>
<time>2013-05-04T13:37:31.000Z</time>
</trkpt>
<trkpt lat="42.655018" lon="-2.228439">
<ele>1401</ele>
<time>2013-05-04T13:37:32.000Z</time>
</trkpt>
<trkpt lat="42.65505" lon="-2.228537">
<ele>1402</ele>
<time>2013-05-04T13:37:33.000Z</time>
</trkpt>
<trkpt lat="42.655098" lon="-2.228624">
<ele>1404</ele>
<time>2013-05-04T13:37:34.000Z</time>
</trkpt>
<trkpt lat="42.655146" lon="-2.228693">
<ele>1405</ele>
<time>2013-05-04T13:37:35.000Z</time>
</trkpt>
<trkpt lat="42.655208" lon="-2.228734">
<ele>1406</ele>
<time>2013-05-04T13:37:36.000Z</time>
</trkpt>
<trkpt lat="42.655276" lon="-2.228773">
<ele>1407</ele>
<time>2013-05-04T13:37:37.000Z</time>
</trkpt>
<trkpt lat="42.655353" lon="-2.228807">
<ele>1407</ele>
<time>2013-05-04T13:37:38.000Z</time>
</trkpt>
<trkpt lat="42.655451" lon="-2.228811">
<ele>1407</ele>
<time>2013-05-04T13:37:39.000Z</time>
</trkpt>
<trkpt lat="42.655552" lon="-2.228803">
<ele>1407</ele>
<time>2013-05-04T13:37:40.000Z</time>
</trkpt>
<trkpt lat="42.655646" lon="-2.228763">
<ele>1408</ele>
<time>2013-05-04T13:37:41.000Z</time>
</trkpt>
<trkpt lat="42.655724" lon="-2.22872">
<ele>1409</ele>
<time>2013-05-04T13:37:42.000Z</time>
</trkpt>
<trkpt lat="42.655793" lon="-2.228674">
<ele>1410</ele>
<time>2013-05-04T13:37:43.000Z</time>
</trkpt>
<trkpt lat="42.655858" lon="-2.228628">
<ele>1410</ele>
<time>2013-05-04T13:37:44.000Z</time>
</trkpt>
<trkpt lat="42.65592" lon="-2.228579">
<ele>1411</ele>
<time>2013-05-04T13:37:45.000Z</time>
</trkpt>
<trkpt lat="42.655977" lon="-2.228531">
<ele>1411</ele>
<time>2013-05-04T13:37:46.000Z</time>
</trkpt>
<trkpt lat="42.656024" lon="-2.228469">
<ele>1410</ele>
<time>2013-05-04T13:37:47.000Z</time>
</trkpt>
<trkpt lat="42.656058" lon="-2.228397">
<ele>1412</ele>
<time>2013-05-04T13:37:48.000Z</time>
</trkpt>
<trkpt lat="42.656077" lon="-2.228321">
<ele>1412</ele>
<time>2013-05-04T13:37:49.000Z</time>
</trkpt>
<trkpt lat="42.656092" lon="-2.228248">
<ele>1412</ele>
<time>2013-05-04T13:37:50.000Z</time>
</trkpt>
<trkpt lat="42.656103" lon="-2.228177">
<ele>1412</ele>
<time>2013-05-04T13:37:51.000Z</time>
</trkpt>
<trkpt lat="42.656109" lon="-2.228097">
<ele>1411</ele>
<time>2013-05-04T13:37:52.000Z</time>
</trkpt>
<trkpt lat="42.656111" lon="-2.228014">
<ele>1411</ele>
<time>2013-05-04T13:37:53.000Z</time>
</trkpt>
<trkpt lat="42.656111" lon="-2.227934">
<ele>1411</ele>
<time>2013-05-04T13:37:54.000Z</time>
</trkpt>
<trkpt lat="42.656111" lon="-2.227857">
<ele>1411</ele>
<time>2013-05-04T13:37:55.000Z</time>
</trkpt>
<trkpt lat="42.656112" lon="-2.227795">
<ele>1411</ele>
<time>2013-05-04T13:37:56.000Z</time>
</trkpt>
<trkpt lat="42.656111" lon="-2.227735">
<ele>1411</ele>
<time>2013-05-04T13:37:57.000Z</time>
</trkpt>
<trkpt lat="42.656099" lon="-2.227666">
<ele>1410</ele>
<time>2013-05-04T13:37:58.000Z</time>
</trkpt>
<trkpt lat="42.656083" lon="-2.227593">
<ele>1410</ele>
<time>2013-05-04T13:37:59.000Z</time>
</trkpt>
<trkpt lat="42.656048" lon="-2.227514">
<ele>1409</ele>
<time>2013-05-04T13:38:00.000Z</time>
</trkpt>
<trkpt lat="42.656005" lon="-2.227456">
<ele>1408</ele>
<time>2013-05-04T13:38:01.000Z</time>
</trkpt>
<trkpt lat="42.655962" lon="-2.227425">
<ele>1407</ele>
<time>2013-05-04T13:38:02.000Z</time>
</trkpt>
<trkpt lat="42.65592" lon="-2.227415">
<ele>1406</ele>
<time>2013-05-04T13:38:03.000Z</time>
</trkpt>
<trkpt lat="42.655871" lon="-2.227417">
<ele>1406</ele>
<time>2013-05-04T13:38:04.000Z</time>
</trkpt>
<trkpt lat="42.655819" lon="-2.227428">
<ele>1407</ele>
<time>2013-05-04T13:38:05.000Z</time>
</trkpt>
<trkpt lat="42.655762" lon="-2.227442">
<ele>1406</ele>
<time>2013-05-04T13:38:06.000Z</time>
</trkpt>
<trkpt lat="42.655707" lon="-2.227461">
<ele>1406</ele>
<time>2013-05-04T13:38:07.000Z</time>
</trkpt>
<trkpt lat="42.655656" lon="-2.227498">
<ele>1405</ele>
<time>2013-05-04T13:38:08.000Z</time>
</trkpt>
<trkpt lat="42.655608" lon="-2.227539">
<ele>1405</ele>
<time>2013-05-04T13:38:09.000Z</time>
</trkpt>
<trkpt lat="42.655566" lon="-2.227599">
<ele>1405</ele>
<time>2013-05-04T13:38:10.000Z</time>
</trkpt>
<trkpt lat="42.655524" lon="-2.227669">
<ele>1406</ele>
<time>2013-05-04T13:38:11.000Z</time>
</trkpt>
<trkpt lat="42.655494" lon="-2.227749">
<ele>1406</ele>
<time>2013-05-04T13:38:12.000Z</time>
</trkpt>
<trkpt lat="42.655468" lon="-2.227824">
<ele>1406</ele>
<time>2013-05-04T13:38:13.000Z</time>
</trkpt>
<trkpt lat="42.655442" lon="-2.227897">
<ele>1407</ele>
<time>2013-05-04T13:38:14.000Z</time>
</trkpt>
<trkpt lat="42.655413" lon="-2.227971">
<ele>1408</ele>
<time>2013-05-04T13:38:15.000Z</time>
</trkpt>
<trkpt lat="42.655373" lon="-2.228035">
<ele>1408</ele>
<time>2013-05-04T13:38:16.000Z</time>
</trkpt>
<trkpt lat="42.65529" lon="-2.228153">
<ele>1408</ele>
<time>2013-05-04T13:38:18.000Z</time>
</trkpt>
<trkpt lat="42.655248" lon="-2.228214">
<ele>1408</ele>
<time>2013-05-04T13:38:19.000Z</time>
</trkpt>
<trkpt lat="42.655205" lon="-2.228268">
<ele>1409</ele>
<time>2013-05-04T13:38:20.000Z</time>
</trkpt>
<trkpt lat="42.655156" lon="-2.228297">
<ele>1410</ele>
<time>2013-05-04T13:38:21.000Z</time>
</trkpt>
<trkpt lat="42.655106" lon="-2.228305">
<ele>1410</ele>
<time>2013-05-04T13:38:22.000Z</time>
</trkpt>
<trkpt lat="42.655053" lon="-2.228296">
<ele>1407</ele>
<time>2013-05-04T13:38:23.000Z</time>
</trkpt>
<trkpt lat="42.655012" lon="-2.228271">
<ele>1408</ele>
<time>2013-05-04T13:38:24.000Z</time>
</trkpt>
<trkpt lat="42.654974" lon="-2.228209">
<ele>1407</ele>
<time>2013-05-04T13:38:25.000Z</time>
</trkpt>
<trkpt lat="42.654952" lon="-2.228127">
<ele>1407</ele>
<time>2013-05-04T13:38:26.000Z</time>
</trkpt>
<trkpt lat="42.654934" lon="-2.228037">
<ele>1406</ele>
<time>2013-05-04T13:38:27.000Z</time>
</trkpt>
<trkpt lat="42.654943" lon="-2.227949">
<ele>1406</ele>
<time>2013-05-04T13:38:28.000Z</time>
</trkpt>
<trkpt lat="42.654973" lon="-2.227862">
<ele>1406</ele>
<time>2013-05-04T13:38:29.000Z</time>
</trkpt>
<trkpt lat="42.655007" lon="-2.227786">
<ele>1406</ele>
<time>2013-05-04T13:38:30.000Z</time>
</trkpt>
<trkpt lat="42.655044" lon="-2.227708">
<ele>1408</ele>
<time>2013-05-04T13:38:31.000Z</time>
</trkpt>
<trkpt lat="42.655082" lon="-2.227627">
<ele>1409</ele>
<time>2013-05-04T13:38:32.000Z</time>
</trkpt>
<trkpt lat="42.655121" lon="-2.227548">
<ele>1407</ele>
<time>2013-05-04T13:38:33.000Z</time>
</trkpt>
<trkpt lat="42.655163" lon="-2.22748">
<ele>1408</ele>
<time>2013-05-04T13:38:34.000Z</time>
</trkpt>
<trkpt lat="42.655225" lon="-2.227415">
<ele>1404</ele>
<time>2013-05-04T13:38:35.000Z</time>
</trkpt>
<trkpt lat="42.655294" lon="-2.227343">
<ele>1401</ele>
<time>2013-05-04T13:38:36.000Z</time>
</trkpt>
<trkpt lat="42.655365" lon="-2.227261">
<ele>1400</ele>
<time>2013-05-04T13:38:37.000Z</time>
</trkpt>
<trkpt lat="42.655431" lon="-2.227185">
<ele>1399</ele>
<time>2013-05-04T13:38:38.000Z</time>
</trkpt>
<trkpt lat="42.655493" lon="-2.227115">
<ele>1398</ele>
<time>2013-05-04T13:38:39.000Z</time>
</trkpt>
<trkpt lat="42.655551" lon="-2.227054">
<ele>1398</ele>
<time>2013-05-04T13:38:40.000Z</time>
</trkpt>
<trkpt lat="42.655612" lon="-2.226993">
<ele>1397</ele>
<time>2013-05-04T13:38:41.000Z</time>
</trkpt>
<trkpt lat="42.655675" lon="-2.226924">
<ele>1396</ele>
<time>2013-05-04T13:38:42.000Z</time>
</trkpt>
<trkpt lat="42.655738" lon="-2.226844">
<ele>1395</ele>
<time>2013-05-04T13:38:43.000Z</time>
</trkpt>
<trkpt lat="42.655796" lon="-2.226764">
<ele>1395</ele>
<time>2013-05-04T13:38:44.000Z</time>
</trkpt>
<trkpt lat="42.655848" lon="-2.226689">
<ele>1396</ele>
<time>2013-05-04T13:38:45.000Z</time>
</trkpt>
<trkpt lat="42.655896" lon="-2.226623">
<ele>1396</ele>
<time>2013-05-04T13:38:46.000Z</time>
</trkpt>
<trkpt lat="42.655943" lon="-2.22656">
<ele>1395</ele>
<time>2013-05-04T13:38:47.000Z</time>
</trkpt>
<trkpt lat="42.655995" lon="-2.226497">
<ele>1395</ele>
<time>2013-05-04T13:38:48.000Z</time>
</trkpt>
<trkpt lat="42.656053" lon="-2.226437">
<ele>1395</ele>
<time>2013-05-04T13:38:49.000Z</time>
</trkpt>
<trkpt lat="42.656115" lon="-2.226379">
<ele>1396</ele>
<time>2013-05-04T13:38:50.000Z</time>
</trkpt>
<trkpt lat="42.656181" lon="-2.226325">
<ele>1396</ele>
<time>2013-05-04T13:38:51.000Z</time>
</trkpt>
<trkpt lat="42.656245" lon="-2.226274">
<ele>1396</ele>
<time>2013-05-04T13:38:52.000Z</time>
</trkpt>
<trkpt lat="42.656306" lon="-2.226221">
<ele>1397</ele>
<time>2013-05-04T13:38:53.000Z</time>
</trkpt>
<trkpt lat="42.656364" lon="-2.226163">
<ele>1397</ele>
<time>2013-05-04T13:38:54.000Z</time>
</trkpt>
<trkpt lat="42.656417" lon="-2.226106">
<ele>1396</ele>
<time>2013-05-04T13:38:55.000Z</time>
</trkpt>
<trkpt lat="42.65647" lon="-2.22605">
<ele>1395</ele>
<time>2013-05-04T13:38:56.000Z</time>
</trkpt>
<trkpt lat="42.656525" lon="-2.225992">
<ele>1393</ele>
<time>2013-05-04T13:38:57.000Z</time>
</trkpt>
<trkpt lat="42.656583" lon="-2.225932">
<ele>1392</ele>
<time>2013-05-04T13:38:58.000Z</time>
</trkpt>
<trkpt lat="42.656641" lon="-2.225878">
<ele>1390</ele>
<time>2013-05-04T13:38:59.000Z</time>
</trkpt>
<trkpt lat="42.656702" lon="-2.225827">
<ele>1388</ele>
<time>2013-05-04T13:39:00.000Z</time>
</trkpt>
<trkpt lat="42.656764" lon="-2.225773">
<ele>1387</ele>
<time>2013-05-04T13:39:01.000Z</time>
</trkpt>
<trkpt lat="42.656825" lon="-2.225707">
<ele>1385</ele>
<time>2013-05-04T13:39:02.000Z</time>
</trkpt>
<trkpt lat="42.656876" lon="-2.225617">
<ele>1383</ele>
<time>2013-05-04T13:39:03.000Z</time>
</trkpt>
<trkpt lat="42.656924" lon="-2.225529">
<ele>1382</ele>
<time>2013-05-04T13:39:04.000Z</time>
</trkpt>
<trkpt lat="42.656968" lon="-2.225445">
<ele>1381</ele>
<time>2013-05-04T13:39:05.000Z</time>
</trkpt>
<trkpt lat="42.657011" lon="-2.225366">
<ele>1381</ele>
<time>2013-05-04T13:39:06.000Z</time>
</trkpt>
<trkpt lat="42.657058" lon="-2.225283">
<ele>1381</ele>
<time>2013-05-04T13:39:07.000Z</time>
</trkpt>
<trkpt lat="42.657109" lon="-2.225193">
<ele>1380</ele>
<time>2013-05-04T13:39:08.000Z</time>
</trkpt>
<trkpt lat="42.657166" lon="-2.225094">
<ele>1379</ele>
<time>2013-05-04T13:39:09.000Z</time>
</trkpt>
<trkpt lat="42.657222" lon="-2.224998">
<ele>1379</ele>
<time>2013-05-04T13:39:10.000Z</time>
</trkpt>
<trkpt lat="42.657275" lon="-2.224914">
<ele>1380</ele>
<time>2013-05-04T13:39:11.000Z</time>
</trkpt>
<trkpt lat="42.657326" lon="-2.224836">
<ele>1380</ele>
<time>2013-05-04T13:39:12.000Z</time>
</trkpt>
<trkpt lat="42.657375" lon="-2.224762">
<ele>1382</ele>
<time>2013-05-04T13:39:13.000Z</time>
</trkpt>
<trkpt lat="42.657429" lon="-2.224684">
<ele>1384</ele>
<time>2013-05-04T13:39:14.000Z</time>
</trkpt>
<trkpt lat="42.657478" lon="-2.22461">
<ele>1386</ele>
<time>2013-05-04T13:39:15.000Z</time>
</trkpt>
<trkpt lat="42.657526" lon="-2.224544">
<ele>1388</ele>
<time>2013-05-04T13:39:16.000Z</time>
</trkpt>
<trkpt lat="42.657575" lon="-2.224485">
<ele>1390</ele>
<time>2013-05-04T13:39:17.000Z</time>
</trkpt>
<trkpt lat="42.657637" lon="-2.224438">
<ele>1391</ele>
<time>2013-05-04T13:39:18.000Z</time>
</trkpt>
<trkpt lat="42.657693" lon="-2.224399">
<ele>1393</ele>
<time>2013-05-04T13:39:19.000Z</time>
</trkpt>
<trkpt lat="42.657748" lon="-2.224369">
<ele>1395</ele>
<time>2013-05-04T13:39:20.000Z</time>
</trkpt>
<trkpt lat="42.657805" lon="-2.22434">
<ele>1397</ele>
<time>2013-05-04T13:39:21.000Z</time>
</trkpt>
<trkpt lat="42.657863" lon="-2.2243">
<ele>1398</ele>
<time>2013-05-04T13:39:22.000Z</time>
</trkpt>
<trkpt lat="42.657902" lon="-2.224231">
<ele>1399</ele>
<time>2013-05-04T13:39:23.000Z</time>
</trkpt>
<trkpt lat="42.657945" lon="-2.224144">
<ele>1401</ele>
<time>2013-05-04T13:39:24.000Z</time>
</trkpt>
<trkpt lat="42.657971" lon="-2.224043">
<ele>1404</ele>
<time>2013-05-04T13:39:25.000Z</time>
</trkpt>
<trkpt lat="42.657975" lon="-2.223949">
<ele>1406</ele>
<time>2013-05-04T13:39:26.000Z</time>
</trkpt>
<trkpt lat="42.657963" lon="-2.223863">
<ele>1408</ele>
<time>2013-05-04T13:39:27.000Z</time>
</trkpt>
<trkpt lat="42.657941" lon="-2.223786">
<ele>1411</ele>
<time>2013-05-04T13:39:28.000Z</time>
</trkpt>
<trkpt lat="42.657917" lon="-2.223717">
<ele>1413</ele>
<time>2013-05-04T13:39:29.000Z</time>
</trkpt>
<trkpt lat="42.657878" lon="-2.223662">
<ele>1412</ele>
<time>2013-05-04T13:39:30.000Z</time>
</trkpt>
<trkpt lat="42.657824" lon="-2.223624">
<ele>1410</ele>
<time>2013-05-04T13:39:31.000Z</time>
</trkpt>
<trkpt lat="42.657753" lon="-2.223604">
<ele>1408</ele>
<time>2013-05-04T13:39:32.000Z</time>
</trkpt>
<trkpt lat="42.657671" lon="-2.223613">
<ele>1407</ele>
<time>2013-05-04T13:39:33.000Z</time>
</trkpt>
<trkpt lat="42.657584" lon="-2.223653">
<ele>1408</ele>
<time>2013-05-04T13:39:34.000Z</time>
</trkpt>
<trkpt lat="42.65751" lon="-2.223722">
<ele>1409</ele>
<time>2013-05-04T13:39:35.000Z</time>
</trkpt>
<trkpt lat="42.657457" lon="-2.223799">
<ele>1411</ele>
<time>2013-05-04T13:39:36.000Z</time>
</trkpt>
<trkpt lat="42.657431" lon="-2.223873">
<ele>1413</ele>
<time>2013-05-04T13:39:37.000Z</time>
</trkpt>
<trkpt lat="42.657411" lon="-2.223936">
<ele>1414</ele>
<time>2013-05-04T13:39:38.000Z</time>
</trkpt>
<trkpt lat="42.657392" lon="-2.224003">
<ele>1415</ele>
<time>2013-05-04T13:39:39.000Z</time>
</trkpt>
<trkpt lat="42.657372" lon="-2.224083">
<ele>1416</ele>
<time>2013-05-04T13:39:40.000Z</time>
</trkpt>
<trkpt lat="42.657356" lon="-2.224172">
<ele>1417</ele>
<time>2013-05-04T13:39:41.000Z</time>
</trkpt>
<trkpt lat="42.657363" lon="-2.224246">
<ele>1419</ele>
<time>2013-05-04T13:39:42.000Z</time>
</trkpt>
<trkpt lat="42.657375" lon="-2.224319">
<ele>1421</ele>
<time>2013-05-04T13:39:43.000Z</time>
</trkpt>
<trkpt lat="42.657393" lon="-2.224397">
<ele>1423</ele>
<time>2013-05-04T13:39:44.000Z</time>
</trkpt>
<trkpt lat="42.657413" lon="-2.224476">
<ele>1426</ele>
<time>2013-05-04T13:39:45.000Z</time>
</trkpt>
<trkpt lat="42.657434" lon="-2.224547">
<ele>1427</ele>
<time>2013-05-04T13:39:46.000Z</time>
</trkpt>
<trkpt lat="42.657456" lon="-2.224631">
<ele>1428</ele>
<time>2013-05-04T13:39:47.000Z</time>
</trkpt>
<trkpt lat="42.657461" lon="-2.224726">
<ele>1430</ele>
<time>2013-05-04T13:39:48.000Z</time>
</trkpt>
<trkpt lat="42.657447" lon="-2.22481">
<ele>1431</ele>
<time>2013-05-04T13:39:49.000Z</time>
</trkpt>
<trkpt lat="42.657411" lon="-2.224888">
<ele>1430</ele>
<time>2013-05-04T13:39:50.000Z</time>
</trkpt>
<trkpt lat="42.657369" lon="-2.22496">
<ele>1429</ele>
<time>2013-05-04T13:39:51.000Z</time>
</trkpt>
<trkpt lat="42.657307" lon="-2.225033">
<ele>1428</ele>
<time>2013-05-04T13:39:52.000Z</time>
</trkpt>
<trkpt lat="42.657239" lon="-2.22508">
<ele>1428</ele>
<time>2013-05-04T13:39:53.000Z</time>
</trkpt>
<trkpt lat="42.657172" lon="-2.225089">
<ele>1428</ele>
<time>2013-05-04T13:39:54.000Z</time>
</trkpt>
<trkpt lat="42.657112" lon="-2.225047">
<ele>1429</ele>
<time>2013-05-04T13:39:55.000Z</time>
</trkpt>
<trkpt lat="42.657059" lon="-2.22497">
<ele>1431</ele>
<time>2013-05-04T13:39:56.000Z</time>
</trkpt>
<trkpt lat="42.657012" lon="-2.224893">
<ele>1435</ele>
<time>2013-05-04T13:39:57.000Z</time>
</trkpt>
<trkpt lat="42.656976" lon="-2.224821">
<ele>1437</ele>
<time>2013-05-04T13:39:58.000Z</time>
</trkpt>
<trkpt lat="42.656952" lon="-2.224746">
<ele>1440</ele>
<time>2013-05-04T13:39:59.000Z</time>
</trkpt>
<trkpt lat="42.656946" lon="-2.22466">
<ele>1441</ele>
<time>2013-05-04T13:40:00.000Z</time>
</trkpt>
<trkpt lat="42.656947" lon="-2.224559">
<ele>1440</ele>
<time>2013-05-04T13:40:01.000Z</time>
</trkpt>
<trkpt lat="42.656953" lon="-2.224448">
<ele>1439</ele>
<time>2013-05-04T13:40:02.000Z</time>
</trkpt>
<trkpt lat="42.656982" lon="-2.224337">
<ele>1437</ele>
<time>2013-05-04T13:40:03.000Z</time>
</trkpt>
<trkpt lat="42.657037" lon="-2.224259">
<ele>1437</ele>
<time>2013-05-04T13:40:04.000Z</time>
</trkpt>
<trkpt lat="42.657106" lon="-2.224237">
<ele>1437</ele>
<time>2013-05-04T13:40:05.000Z</time>
</trkpt>
<trkpt lat="42.657192" lon="-2.224261">
<ele>1435</ele>
<time>2013-05-04T13:40:06.000Z</time>
</trkpt>
<trkpt lat="42.657271" lon="-2.224321">
<ele>1433</ele>
<time>2013-05-04T13:40:07.000Z</time>
</trkpt>
<trkpt lat="42.657356" lon="-2.224385">
<ele>1434</ele>
<time>2013-05-04T13:40:08.000Z</time>
</trkpt>
<trkpt lat="42.657422" lon="-2.224439">
<ele>1435</ele>
<time>2013-05-04T13:40:09.000Z</time>
</trkpt>
<trkpt lat="42.657478" lon="-2.224494">
<ele>1438</ele>
<time>2013-05-04T13:40:10.000Z</time>
</trkpt>
<trkpt lat="42.657524" lon="-2.22454">
<ele>1441</ele>
<time>2013-05-04T13:40:11.000Z</time>
</trkpt>
<trkpt lat="42.65757" lon="-2.224582">
<ele>1442</ele>
<time>2013-05-04T13:40:12.000Z</time>
</trkpt>
<trkpt lat="42.65762" lon="-2.224632">
<ele>1443</ele>
<time>2013-05-04T13:40:13.000Z</time>
</trkpt>
<trkpt lat="42.657665" lon="-2.224705">
<ele>1444</ele>
<time>2013-05-04T13:40:14.000Z</time>
</trkpt>
<trkpt lat="42.657702" lon="-2.224779">
<ele>1445</ele>
<time>2013-05-04T13:40:15.000Z</time>
</trkpt>
<trkpt lat="42.657715" lon="-2.224861">
<ele>1446</ele>
<time>2013-05-04T13:40:16.000Z</time>
</trkpt>
<trkpt lat="42.657695" lon="-2.225038">
<ele>1445</ele>
<time>2013-05-04T13:40:18.000Z</time>
</trkpt>
<trkpt lat="42.657678" lon="-2.225131">
<ele>1445</ele>
<time>2013-05-04T13:40:19.000Z</time>
</trkpt>
<trkpt lat="42.65767" lon="-2.225214">
<ele>1444</ele>
<time>2013-05-04T13:40:20.000Z</time>
</trkpt>
<trkpt lat="42.657697" lon="-2.225289">
<ele>1444</ele>
<time>2013-05-04T13:40:21.000Z</time>
</trkpt>
<trkpt lat="42.657745" lon="-2.225347">
<ele>1444</ele>
<time>2013-05-04T13:40:22.000Z</time>
</trkpt>
<trkpt lat="42.6578" lon="-2.225373">
<ele>1443</ele>
<time>2013-05-04T13:40:23.000Z</time>
</trkpt>
<trkpt lat="42.657859" lon="-2.225378">
<ele>1443</ele>
<time>2013-05-04T13:40:24.000Z</time>
</trkpt>
<trkpt lat="42.657926" lon="-2.225364">
<ele>1444</ele>
<time>2013-05-04T13:40:25.000Z</time>
</trkpt>
<trkpt lat="42.657995" lon="-2.225337">
<ele>1444</ele>
<time>2013-05-04T13:40:26.000Z</time>
</trkpt>
<trkpt lat="42.65806" lon="-2.225282">
<ele>1445</ele>
<time>2013-05-04T13:40:27.000Z</time>
</trkpt>
<trkpt lat="42.658126" lon="-2.22522">
<ele>1445</ele>
<time>2013-05-04T13:40:28.000Z</time>
</trkpt>
<trkpt lat="42.658184" lon="-2.22516">
<ele>1447</ele>
<time>2013-05-04T13:40:29.000Z</time>
</trkpt>
<trkpt lat="42.658236" lon="-2.225104">
<ele>1448</ele>
<time>2013-05-04T13:40:30.000Z</time>
</trkpt>
<trkpt lat="42.658288" lon="-2.22505">
<ele>1450</ele>
<time>2013-05-04T13:40:31.000Z</time>
</trkpt>
<trkpt lat="42.658342" lon="-2.224995">
<ele>1451</ele>
<time>2013-05-04T13:40:32.000Z</time>
</trkpt>
<trkpt lat="42.658402" lon="-2.224937">
<ele>1452</ele>
<time>2013-05-04T13:40:33.000Z</time>
</trkpt>
<trkpt lat="42.658468" lon="-2.224879">
<ele>1454</ele>
<time>2013-05-04T13:40:34.000Z</time>
</trkpt>
<trkpt lat="42.658533" lon="-2.224821">
<ele>1455</ele>
<time>2013-05-04T13:40:35.000Z</time>
</trkpt>
<trkpt lat="42.658591" lon="-2.224769">
<ele>1457</ele>
<time>2013-05-04T13:40:36.000Z</time>
</trkpt>
<trkpt lat="42.658638" lon="-2.224716">
<ele>1458</ele>
<time>2013-05-04T13:40:37.000Z</time>
</trkpt>
<trkpt lat="42.65868" lon="-2.224661">
<ele>1458</ele>
<time>2013-05-04T13:40:38.000Z</time>
</trkpt>
<trkpt lat="42.658727" lon="-2.224593">
<ele>1459</ele>
<time>2013-05-04T13:40:39.000Z</time>
</trkpt>
<trkpt lat="42.658776" lon="-2.224513">
<ele>1458</ele>
<time>2013-05-04T13:40:40.000Z</time>
</trkpt>
<trkpt lat="42.658808" lon="-2.224422">
<ele>1458</ele>
<time>2013-05-04T13:40:41.000Z</time>
</trkpt>
<trkpt lat="42.658835" lon="-2.22433">
<ele>1458</ele>
<time>2013-05-04T13:40:42.000Z</time>
</trkpt>
<trkpt lat="42.658841" lon="-2.224231">
<ele>1459</ele>
<time>2013-05-04T13:40:43.000Z</time>
</trkpt>
<trkpt lat="42.658819" lon="-2.224131">
<ele>1459</ele>
<time>2013-05-04T13:40:44.000Z</time>
</trkpt>
<trkpt lat="42.65877" lon="-2.224041">
<ele>1458</ele>
<time>2013-05-04T13:40:45.000Z</time>
</trkpt>
<trkpt lat="42.658708" lon="-2.223983">
<ele>1459</ele>
<time>2013-05-04T13:40:46.000Z</time>
</trkpt>
<trkpt lat="42.658649" lon="-2.223959">
<ele>1459</ele>
<time>2013-05-04T13:40:47.000Z</time>
</trkpt>
<trkpt lat="42.658589" lon="-2.223954">
<ele>1459</ele>
<time>2013-05-04T13:40:48.000Z</time>
</trkpt>
<trkpt lat="42.65853" lon="-2.223953">
<ele>1459</ele>
<time>2013-05-04T13:40:49.000Z</time>
</trkpt>
<trkpt lat="42.65848" lon="-2.223961">
<ele>1458</ele>
<time>2013-05-04T13:40:50.000Z</time>
</trkpt>
<trkpt lat="42.658427" lon="-2.223994">
<ele>1458</ele>
<time>2013-05-04T13:40:51.000Z</time>
</trkpt>
<trkpt lat="42.658367" lon="-2.224034">
<ele>1457</ele>
<time>2013-05-04T13:40:52.000Z</time>
</trkpt>
<trkpt lat="42.658302" lon="-2.224081">
<ele>1457</ele>
<time>2013-05-04T13:40:53.000Z</time>
</trkpt>
<trkpt lat="42.658238" lon="-2.224138">
<ele>1458</ele>
<time>2013-05-04T13:40:54.000Z</time>
</trkpt>
<trkpt lat="42.658176" lon="-2.224204">
<ele>1459</ele>
<time>2013-05-04T13:40:55.000Z</time>
</trkpt>
<trkpt lat="42.658114" lon="-2.224271">
<ele>1460</ele>
<time>2013-05-04T13:40:56.000Z</time>
</trkpt>
<trkpt lat="42.658056" lon="-2.224335">
<ele>1462</ele>
<time>2013-05-04T13:40:57.000Z</time>
</trkpt>
<trkpt lat="42.658004" lon="-2.224399">
<ele>1464</ele>
<time>2013-05-04T13:40:58.000Z</time>
</trkpt>
<trkpt lat="42.657958" lon="-2.224463">
<ele>1466</ele>
<time>2013-05-04T13:40:59.000Z</time>
</trkpt>
<trkpt lat="42.657927" lon="-2.224533">
<ele>1467</ele>
<time>2013-05-04T13:41:00.000Z</time>
</trkpt>
<trkpt lat="42.657897" lon="-2.224595">
<ele>1469</ele>
<time>2013-05-04T13:41:01.000Z</time>
</trkpt>
<trkpt lat="42.657863" lon="-2.224661">
<ele>1470</ele>
<time>2013-05-04T13:41:02.000Z</time>
</trkpt>
<trkpt lat="42.657827" lon="-2.224728">
<ele>1470</ele>
<time>2013-05-04T13:41:03.000Z</time>
</trkpt>
<trkpt lat="42.65779" lon="-2.224794">
<ele>1471</ele>
<time>2013-05-04T13:41:04.000Z</time>
</trkpt>
<trkpt lat="42.657756" lon="-2.224867">
<ele>1470</ele>
<time>2013-05-04T13:41:05.000Z</time>
</trkpt>
<trkpt lat="42.657735" lon="-2.22495">
<ele>1470</ele>
<time>2013-05-04T13:41:06.000Z</time>
</trkpt>
<trkpt lat="42.657716" lon="-2.225035">
<ele>1470</ele>
<time>2013-05-04T13:41:07.000Z</time>
</trkpt>
<trkpt lat="42.657711" lon="-2.225124">
<ele>1470</ele>
<time>2013-05-04T13:41:08.000Z</time>
</trkpt>
<trkpt lat="42.657722" lon="-2.225204">
<ele>1469</ele>
<time>2013-05-04T13:41:09.000Z</time>
</trkpt>
<trkpt lat="42.657747" lon="-2.225273">
<ele>1468</ele>
<time>2013-05-04T13:41:10.000Z</time>
</trkpt>
<trkpt lat="42.657779" lon="-2.225342">
<ele>1466</ele>
<time>2013-05-04T13:41:11.000Z</time>
</trkpt>
<trkpt lat="42.657826" lon="-2.225404">
<ele>1464</ele>
<time>2013-05-04T13:41:12.000Z</time>
</trkpt>
<trkpt lat="42.657887" lon="-2.225448">
<ele>1463</ele>
<time>2013-05-04T13:41:13.000Z</time>
</trkpt>
<trkpt lat="42.657958" lon="-2.225466">
<ele>1462</ele>
<time>2013-05-04T13:41:14.000Z</time>
</trkpt>
<trkpt lat="42.658036" lon="-2.225459">
<ele>1462</ele>
<time>2013-05-04T13:41:15.000Z</time>
</trkpt>
<trkpt lat="42.658116" lon="-2.225427">
<ele>1461</ele>
<time>2013-05-04T13:41:16.000Z</time>
</trkpt>
<trkpt lat="42.658191" lon="-2.225372">
<ele>1460</ele>
<time>2013-05-04T13:41:17.000Z</time>
</trkpt>
<trkpt lat="42.658255" lon="-2.225297">
<ele>1458</ele>
<time>2013-05-04T13:41:18.000Z</time>
</trkpt>
<trkpt lat="42.658318" lon="-2.225214">
<ele>1457</ele>
<time>2013-05-04T13:41:19.000Z</time>
</trkpt>
<trkpt lat="42.65838" lon="-2.225121">
<ele>1456</ele>
<time>2013-05-04T13:41:20.000Z</time>
</trkpt>
<trkpt lat="42.65844" lon="-2.22502">
<ele>1455</ele>
<time>2013-05-04T13:41:21.000Z</time>
</trkpt>
<trkpt lat="42.658495" lon="-2.224915">
<ele>1455</ele>
<time>2013-05-04T13:41:22.000Z</time>
</trkpt>
<trkpt lat="42.658532" lon="-2.224799">
<ele>1455</ele>
<time>2013-05-04T13:41:23.000Z</time>
</trkpt>
<trkpt lat="42.658562" lon="-2.224688">
<ele>1456</ele>
<time>2013-05-04T13:41:24.000Z</time>
</trkpt>
<trkpt lat="42.658584" lon="-2.224586">
<ele>1458</ele>
<time>2013-05-04T13:41:25.000Z</time>
</trkpt>
<trkpt lat="42.658605" lon="-2.224496">
<ele>1458</ele>
<time>2013-05-04T13:41:26.000Z</time>
</trkpt>
<trkpt lat="42.658626" lon="-2.224411">
<ele>1459</ele>
<time>2013-05-04T13:41:27.000Z</time>
</trkpt>
<trkpt lat="42.658651" lon="-2.224333">
<ele>1460</ele>
<time>2013-05-04T13:41:28.000Z</time>
</trkpt>
<trkpt lat="42.658678" lon="-2.224261">
<ele>1460</ele>
<time>2013-05-04T13:41:29.000Z</time>
</trkpt>
<trkpt lat="42.65871" lon="-2.224185">
<ele>1460</ele>
<time>2013-05-04T13:41:30.000Z</time>
</trkpt>
<trkpt lat="42.658747" lon="-2.224102">
<ele>1460</ele>
<time>2013-05-04T13:41:31.000Z</time>
</trkpt>
<trkpt lat="42.658786" lon="-2.224013">
<ele>1459</ele>
<time>2013-05-04T13:41:32.000Z</time>
</trkpt>
<trkpt lat="42.658825" lon="-2.223913">
<ele>1460</ele>
<time>2013-05-04T13:41:33.000Z</time>
</trkpt>
<trkpt lat="42.658859" lon="-2.223812">
<ele>1461</ele>
<time>2013-05-04T13:41:34.000Z</time>
</trkpt>
<trkpt lat="42.658888" lon="-2.223704">
<ele>1463</ele>
<time>2013-05-04T13:41:35.000Z</time>
</trkpt>
<trkpt lat="42.65891" lon="-2.223598">
<ele>1463</ele>
<time>2013-05-04T13:41:36.000Z</time>
</trkpt>
<trkpt lat="42.658928" lon="-2.223485">
<ele>1465</ele>
<time>2013-05-04T13:41:37.000Z</time>
</trkpt>
<trkpt lat="42.658946" lon="-2.223379">
<ele>1463</ele>
<time>2013-05-04T13:41:38.000Z</time>
</trkpt>
<trkpt lat="42.658965" lon="-2.22327">
<ele>1461</ele>
<time>2013-05-04T13:41:39.000Z</time>
</trkpt>
<trkpt lat="42.658981" lon="-2.223153">
<ele>1460</ele>
<time>2013-05-04T13:41:40.000Z</time>
</trkpt>
<trkpt lat="42.658993" lon="-2.223044">
<ele>1457</ele>
<time>2013-05-04T13:41:41.000Z</time>
</trkpt>
<trkpt lat="42.659001" lon="-2.222938">
<ele>1454</ele>
<time>2013-05-04T13:41:42.000Z</time>
</trkpt>
<trkpt lat="42.659009" lon="-2.222831">
<ele>1451</ele>
<time>2013-05-04T13:41:43.000Z</time>
</trkpt>
<trkpt lat="42.659021" lon="-2.22273">
<ele>1448</ele>
<time>2013-05-04T13:41:44.000Z</time>
</trkpt>
<trkpt lat="42.659049" lon="-2.222636">
<ele>1445</ele>
<time>2013-05-04T13:41:45.000Z</time>
</trkpt>
<trkpt lat="42.659075" lon="-2.222555">
<ele>1443</ele>
<time>2013-05-04T13:41:46.000Z</time>
</trkpt>
<trkpt lat="42.659103" lon="-2.222478">
<ele>1440</ele>
<time>2013-05-04T13:41:47.000Z</time>
</trkpt>
<trkpt lat="42.659133" lon="-2.2224">
<ele>1436</ele>
<time>2013-05-04T13:41:48.000Z</time>
</trkpt>
<trkpt lat="42.659162" lon="-2.222314">
<ele>1437</ele>
<time>2013-05-04T13:41:49.000Z</time>
</trkpt>
<trkpt lat="42.659182" lon="-2.222194">
<ele>1436</ele>
<time>2013-05-04T13:41:50.000Z</time>
</trkpt>
<trkpt lat="42.6592" lon="-2.222063">
<ele>1433</ele>
<time>2013-05-04T13:41:51.000Z</time>
</trkpt>
<trkpt lat="42.659211" lon="-2.221936">
<ele>1429</ele>
<time>2013-05-04T13:41:52.000Z</time>
</trkpt>
<trkpt lat="42.659213" lon="-2.221827">
<ele>1425</ele>
<time>2013-05-04T13:41:53.000Z</time>
</trkpt>
<trkpt lat="42.659213" lon="-2.221744">
<ele>1420</ele>
<time>2013-05-04T13:41:54.000Z</time>
</trkpt>
<trkpt lat="42.65921" lon="-2.221662">
<ele>1419</ele>
<time>2013-05-04T13:41:55.000Z</time>
</trkpt>
<trkpt lat="42.659202" lon="-2.221558">
<ele>1413</ele>
<time>2013-05-04T13:41:56.000Z</time>
</trkpt>
<trkpt lat="42.659195" lon="-2.221441">
<ele>1410</ele>
<time>2013-05-04T13:41:57.000Z</time>
</trkpt>
<trkpt lat="42.659185" lon="-2.221336">
<ele>1409</ele>
<time>2013-05-04T13:41:58.000Z</time>
</trkpt>
<trkpt lat="42.659175" lon="-2.221255">
<ele>1407</ele>
<time>2013-05-04T13:41:59.000Z</time>
</trkpt>
<trkpt lat="42.659168" lon="-2.22118">
<ele>1405</ele>
<time>2013-05-04T13:42:00.000Z</time>
</trkpt>
<trkpt lat="42.659161" lon="-2.221094">
<ele>1403</ele>
<time>2013-05-04T13:42:01.000Z</time>
</trkpt>
<trkpt lat="42.659154" lon="-2.221001">
<ele>1400</ele>
<time>2013-05-04T13:42:02.000Z</time>
</trkpt>
<trkpt lat="42.659149" lon="-2.2209">
<ele>1397</ele>
<time>2013-05-04T13:42:03.000Z</time>
</trkpt>
<trkpt lat="42.659145" lon="-2.220788">
<ele>1394</ele>
<time>2013-05-04T13:42:04.000Z</time>
</trkpt>
<trkpt lat="42.659141" lon="-2.220682">
<ele>1392</ele>
<time>2013-05-04T13:42:05.000Z</time>
</trkpt>
<trkpt lat="42.659135" lon="-2.22058">
<ele>1390</ele>
<time>2013-05-04T13:42:06.000Z</time>
</trkpt>
<trkpt lat="42.659133" lon="-2.220471">
<ele>1388</ele>
<time>2013-05-04T13:42:07.000Z</time>
</trkpt>
<trkpt lat="42.659132" lon="-2.220356">
<ele>1386</ele>
<time>2013-05-04T13:42:08.000Z</time>
</trkpt>
<trkpt lat="42.659135" lon="-2.22024">
<ele>1383</ele>
<time>2013-05-04T13:42:09.000Z</time>
</trkpt>
<trkpt lat="42.659142" lon="-2.220126">
<ele>1381</ele>
<time>2013-05-04T13:42:10.000Z</time>
</trkpt>
<trkpt lat="42.659151" lon="-2.220011">
<ele>1379</ele>
<time>2013-05-04T13:42:11.000Z</time>
</trkpt>
<trkpt lat="42.659159" lon="-2.219898">
<ele>1376</ele>
<time>2013-05-04T13:42:12.000Z</time>
</trkpt>
<trkpt lat="42.659167" lon="-2.219787">
<ele>1373</ele>
<time>2013-05-04T13:42:13.000Z</time>
</trkpt>
<trkpt lat="42.659173" lon="-2.219673">
<ele>1370</ele>
<time>2013-05-04T13:42:14.000Z</time>
</trkpt>
<trkpt lat="42.659176" lon="-2.219557">
<ele>1367</ele>
<time>2013-05-04T13:42:15.000Z</time>
</trkpt>
<trkpt lat="42.659179" lon="-2.219443">
<ele>1365</ele>
<time>2013-05-04T13:42:16.000Z</time>
</trkpt>
<trkpt lat="42.659179" lon="-2.219329">
<ele>1364</ele>
<time>2013-05-04T13:42:17.000Z</time>
</trkpt>
<trkpt lat="42.659179" lon="-2.219219">
<ele>1363</ele>
<time>2013-05-04T13:42:18.000Z</time>
</trkpt>
<trkpt lat="42.65918" lon="-2.219111">
<ele>1361</ele>
<time>2013-05-04T13:42:19.000Z</time>
</trkpt>
<trkpt lat="42.659182" lon="-2.219002">
<ele>1358</ele>
<time>2013-05-04T13:42:20.000Z</time>
</trkpt>
<trkpt lat="42.659185" lon="-2.218889">
<ele>1356</ele>
<time>2013-05-04T13:42:21.000Z</time>
</trkpt>
<trkpt lat="42.659188" lon="-2.218772">
<ele>1354</ele>
<time>2013-05-04T13:42:22.000Z</time>
</trkpt>
<trkpt lat="42.659191" lon="-2.218658">
<ele>1352</ele>
<time>2013-05-04T13:42:23.000Z</time>
</trkpt>
<trkpt lat="42.65919" lon="-2.218547">
<ele>1350</ele>
<time>2013-05-04T13:42:24.000Z</time>
</trkpt>
<trkpt lat="42.659189" lon="-2.218441">
<ele>1348</ele>
<time>2013-05-04T13:42:25.000Z</time>
</trkpt>
<trkpt lat="42.659188" lon="-2.218337">
<ele>1346</ele>
<time>2013-05-04T13:42:26.000Z</time>
</trkpt>
<trkpt lat="42.659186" lon="-2.21823">
<ele>1344</ele>
<time>2013-05-04T13:42:27.000Z</time>
</trkpt>
<trkpt lat="42.659184" lon="-2.218122">
<ele>1342</ele>
<time>2013-05-04T13:42:28.000Z</time>
</trkpt>
<trkpt lat="42.65918" lon="-2.218015">
<ele>1339</ele>
<time>2013-05-04T13:42:29.000Z</time>
</trkpt>
<trkpt lat="42.659174" lon="-2.21791">
<ele>1337</ele>
<time>2013-05-04T13:42:30.000Z</time>
</trkpt>
<trkpt lat="42.659167" lon="-2.217802">
<ele>1333</ele>
<time>2013-05-04T13:42:31.000Z</time>
</trkpt>
<trkpt lat="42.659162" lon="-2.217694">
<ele>1331</ele>
<time>2013-05-04T13:42:32.000Z</time>
</trkpt>
<trkpt lat="42.659157" lon="-2.217582">
<ele>1328</ele>
<time>2013-05-04T13:42:33.000Z</time>
</trkpt>
<trkpt lat="42.659155" lon="-2.217468">
<ele>1326</ele>
<time>2013-05-04T13:42:34.000Z</time>
</trkpt>
<trkpt lat="42.659153" lon="-2.217351">
<ele>1324</ele>
<time>2013-05-04T13:42:35.000Z</time>
</trkpt>
<trkpt lat="42.659149" lon="-2.217233">
<ele>1321</ele>
<time>2013-05-04T13:42:36.000Z</time>
</trkpt>
<trkpt lat="42.659147" lon="-2.217109">
<ele>1319</ele>
<time>2013-05-04T13:42:37.000Z</time>
</trkpt>
<trkpt lat="42.659149" lon="-2.216996">
<ele>1317</ele>
<time>2013-05-04T13:42:38.000Z</time>
</trkpt>
<trkpt lat="42.659152" lon="-2.216895">
<ele>1314</ele>
<time>2013-05-04T13:42:39.000Z</time>
</trkpt>
<trkpt lat="42.659156" lon="-2.216796">
<ele>1311</ele>
<time>2013-05-04T13:42:40.000Z</time>
</trkpt>
<trkpt lat="42.659165" lon="-2.216679">
<ele>1309</ele>
<time>2013-05-04T13:42:41.000Z</time>
</trkpt>
<trkpt lat="42.659177" lon="-2.216554">
<ele>1308</ele>
<time>2013-05-04T13:42:42.000Z</time>
</trkpt>
<trkpt lat="42.659187" lon="-2.216434">
<ele>1306</ele>
<time>2013-05-04T13:42:43.000Z</time>
</trkpt>
<trkpt lat="42.659198" lon="-2.216325">
<ele>1305</ele>
<time>2013-05-04T13:42:44.000Z</time>
</trkpt>
<trkpt lat="42.65921" lon="-2.216217">
<ele>1303</ele>
<time>2013-05-04T13:42:45.000Z</time>
</trkpt>
<trkpt lat="42.659224" lon="-2.216109">
<ele>1300</ele>
<time>2013-05-04T13:42:46.000Z</time>
</trkpt>
<trkpt lat="42.659241" lon="-2.215996">
<ele>1298</ele>
<time>2013-05-04T13:42:47.000Z</time>
</trkpt>
<trkpt lat="42.659259" lon="-2.215878">
<ele>1296</ele>
<time>2013-05-04T13:42:48.000Z</time>
</trkpt>
<trkpt lat="42.659281" lon="-2.215749">
<ele>1295</ele>
<time>2013-05-04T13:42:49.000Z</time>
</trkpt>
<trkpt lat="42.659301" lon="-2.215626">
<ele>1296</ele>
<time>2013-05-04T13:42:50.000Z</time>
</trkpt>
<trkpt lat="42.659318" lon="-2.215508">
<ele>1296</ele>
<time>2013-05-04T13:42:51.000Z</time>
</trkpt>
<trkpt lat="42.659334" lon="-2.215399">
<ele>1295</ele>
<time>2013-05-04T13:42:52.000Z</time>
</trkpt>
<trkpt lat="42.659352" lon="-2.215291">
<ele>1294</ele>
<time>2013-05-04T13:42:53.000Z</time>
</trkpt>
<trkpt lat="42.659371" lon="-2.215185">
<ele>1292</ele>
<time>2013-05-04T13:42:54.000Z</time>
</trkpt>
<trkpt lat="42.659389" lon="-2.215083">
<ele>1290</ele>
<time>2013-05-04T13:42:55.000Z</time>
</trkpt>
<trkpt lat="42.659406" lon="-2.214979">
<ele>1288</ele>
<time>2013-05-04T13:42:56.000Z</time>
</trkpt>
<trkpt lat="42.65942" lon="-2.214872">
<ele>1287</ele>
<time>2013-05-04T13:42:57.000Z</time>
</trkpt>
<trkpt lat="42.659428" lon="-2.214763">
<ele>1285</ele>
<time>2013-05-04T13:42:58.000Z</time>
</trkpt>
<trkpt lat="42.659433" lon="-2.214661">
<ele>1284</ele>
<time>2013-05-04T13:42:59.000Z</time>
</trkpt>
<trkpt lat="42.659435" lon="-2.214568">
<ele>1282</ele>
<time>2013-05-04T13:43:00.000Z</time>
</trkpt>
<trkpt lat="42.659437" lon="-2.214476">
<ele>1280</ele>
<time>2013-05-04T13:43:01.000Z</time>
</trkpt>
<trkpt lat="42.659437" lon="-2.214376">
<ele>1277</ele>
<time>2013-05-04T13:43:02.000Z</time>
</trkpt>
<trkpt lat="42.659437" lon="-2.214262">
<ele>1275</ele>
<time>2013-05-04T13:43:03.000Z</time>
</trkpt>
<trkpt lat="42.659434" lon="-2.214142">
<ele>1272</ele>
<time>2013-05-04T13:43:04.000Z</time>
</trkpt>
<trkpt lat="42.659427" lon="-2.214027">
<ele>1271</ele>
<time>2013-05-04T13:43:05.000Z</time>
</trkpt>
<trkpt lat="42.659418" lon="-2.213922">
<ele>1269</ele>
<time>2013-05-04T13:43:06.000Z</time>
</trkpt>
<trkpt lat="42.659409" lon="-2.213824">
<ele>1267</ele>
<time>2013-05-04T13:43:07.000Z</time>
</trkpt>
<trkpt lat="42.6594" lon="-2.213726">
<ele>1265</ele>
<time>2013-05-04T13:43:08.000Z</time>
</trkpt>
<trkpt lat="42.659391" lon="-2.213627">
<ele>1263</ele>
<time>2013-05-04T13:43:09.000Z</time>
</trkpt>
<trkpt lat="42.659381" lon="-2.213522">
<ele>1260</ele>
<time>2013-05-04T13:43:10.000Z</time>
</trkpt>
<trkpt lat="42.659372" lon="-2.213404">
<ele>1258</ele>
<time>2013-05-04T13:43:11.000Z</time>
</trkpt>
<trkpt lat="42.659365" lon="-2.213286">
<ele>1256</ele>
<time>2013-05-04T13:43:12.000Z</time>
</trkpt>
<trkpt lat="42.659352" lon="-2.213168">
<ele>1253</ele>
<time>2013-05-04T13:43:13.000Z</time>
</trkpt>
<trkpt lat="42.659334" lon="-2.213052">
<ele>1252</ele>
<time>2013-05-04T13:43:14.000Z</time>
</trkpt>
<trkpt lat="42.659314" lon="-2.212935">
<ele>1252</ele>
<time>2013-05-04T13:43:15.000Z</time>
</trkpt>
<trkpt lat="42.659292" lon="-2.212826">
<ele>1250</ele>
<time>2013-05-04T13:43:16.000Z</time>
</trkpt>
<trkpt lat="42.659274" lon="-2.212725">
<ele>1247</ele>
<time>2013-05-04T13:43:17.000Z</time>
</trkpt>
<trkpt lat="42.659279" lon="-2.212615">
<ele>1246</ele>
<time>2013-05-04T13:43:18.000Z</time>
</trkpt>
<trkpt lat="42.659288" lon="-2.212499">
<ele>1243</ele>
<time>2013-05-04T13:43:19.000Z</time>
</trkpt>
<trkpt lat="42.6593" lon="-2.21237">
<ele>1240</ele>
<time>2013-05-04T13:43:20.000Z</time>
</trkpt>
<trkpt lat="42.659306" lon="-2.212246">
<ele>1238</ele>
<time>2013-05-04T13:43:21.000Z</time>
</trkpt>
<trkpt lat="42.659305" lon="-2.212137">
<ele>1236</ele>
<time>2013-05-04T13:43:22.000Z</time>
</trkpt>
<trkpt lat="42.659303" lon="-2.212044">
<ele>1233</ele>
<time>2013-05-04T13:43:23.000Z</time>
</trkpt>
<trkpt lat="42.65931" lon="-2.211945">
<ele>1230</ele>
<time>2013-05-04T13:43:24.000Z</time>
</trkpt>
<trkpt lat="42.659326" lon="-2.211835">
<ele>1226</ele>
<time>2013-05-04T13:43:25.000Z</time>
</trkpt>
<trkpt lat="42.659348" lon="-2.211709">
<ele>1223</ele>
<time>2013-05-04T13:43:26.000Z</time>
</trkpt>
<trkpt lat="42.659365" lon="-2.211599">
<ele>1219</ele>
<time>2013-05-04T13:43:27.000Z</time>
</trkpt>
<trkpt lat="42.659379" lon="-2.211513">
<ele>1218</ele>
<time>2013-05-04T13:43:28.000Z</time>
</trkpt>
<trkpt lat="42.659391" lon="-2.211444">
<ele>1217</ele>
<time>2013-05-04T13:43:29.000Z</time>
</trkpt>
<trkpt lat="42.659409" lon="-2.211369">
<ele>1215</ele>
<time>2013-05-04T13:43:30.000Z</time>
</trkpt>
<trkpt lat="42.659439" lon="-2.211271">
<ele>1212</ele>
<time>2013-05-04T13:43:31.000Z</time>
</trkpt>
<trkpt lat="42.659469" lon="-2.211156">
<ele>1209</ele>
<time>2013-05-04T13:43:32.000Z</time>
</trkpt>
<trkpt lat="42.659486" lon="-2.211061">
<ele>1209</ele>
<time>2013-05-04T13:43:33.000Z</time>
</trkpt>
<trkpt lat="42.659475" lon="-2.210984">
<ele>1210</ele>
<time>2013-05-04T13:43:34.000Z</time>
</trkpt>
<trkpt lat="42.659467" lon="-2.210923">
<ele>1211</ele>
<time>2013-05-04T13:43:35.000Z</time>
</trkpt>
<trkpt lat="42.659468" lon="-2.210861">
<ele>1211</ele>
<time>2013-05-04T13:43:36.000Z</time>
</trkpt>
<trkpt lat="42.659474" lon="-2.210795">
<ele>1210</ele>
<time>2013-05-04T13:43:37.000Z</time>
</trkpt>
<trkpt lat="42.659479" lon="-2.210725">
<ele>1210</ele>
<time>2013-05-04T13:43:38.000Z</time>
</trkpt>
<trkpt lat="42.659482" lon="-2.21065">
<ele>1210</ele>
<time>2013-05-04T13:43:39.000Z</time>
</trkpt>
<trkpt lat="42.659465" lon="-2.210581">
<ele>1211</ele>
<time>2013-05-04T13:43:40.000Z</time>
</trkpt>
<trkpt lat="42.659446" lon="-2.210513">
<ele>1211</ele>
<time>2013-05-04T13:43:41.000Z</time>
</trkpt>
<trkpt lat="42.659427" lon="-2.210448">
<ele>1211</ele>
<time>2013-05-04T13:43:42.000Z</time>
</trkpt>
<trkpt lat="42.659411" lon="-2.210384">
<ele>1213</ele>
<time>2013-05-04T13:43:43.000Z</time>
</trkpt>
<trkpt lat="42.659399" lon="-2.210315">
<ele>1212</ele>
<time>2013-05-04T13:43:44.000Z</time>
</trkpt>
<trkpt lat="42.659388" lon="-2.21024">
<ele>1211</ele>
<time>2013-05-04T13:43:45.000Z</time>
</trkpt>
<trkpt lat="42.659378" lon="-2.210157">
<ele>1210</ele>
<time>2013-05-04T13:43:46.000Z</time>
</trkpt>
<trkpt lat="42.659366" lon="-2.210068">
<ele>1209</ele>
<time>2013-05-04T13:43:47.000Z</time>
</trkpt>
<trkpt lat="42.659354" lon="-2.209969">
<ele>1209</ele>
<time>2013-05-04T13:43:48.000Z</time>
</trkpt>
<trkpt lat="42.659348" lon="-2.209882">
<ele>1209</ele>
<time>2013-05-04T13:43:49.000Z</time>
</trkpt>
<trkpt lat="42.659345" lon="-2.2098">
<ele>1208</ele>
<time>2013-05-04T13:43:50.000Z</time>
</trkpt>
<trkpt lat="42.659343" lon="-2.209714">
<ele>1208</ele>
<time>2013-05-04T13:43:51.000Z</time>
</trkpt>
<trkpt lat="42.659343" lon="-2.209624">
<ele>1207</ele>
<time>2013-05-04T13:43:52.000Z</time>
</trkpt>
<trkpt lat="42.659341" lon="-2.20953">
<ele>1206</ele>
<time>2013-05-04T13:43:53.000Z</time>
</trkpt>
<trkpt lat="42.659337" lon="-2.209431">
<ele>1204</ele>
<time>2013-05-04T13:43:54.000Z</time>
</trkpt>
<trkpt lat="42.659335" lon="-2.209325">
<ele>1203</ele>
<time>2013-05-04T13:43:55.000Z</time>
</trkpt>
<trkpt lat="42.659333" lon="-2.20922">
<ele>1203</ele>
<time>2013-05-04T13:43:56.000Z</time>
</trkpt>
<trkpt lat="42.659328" lon="-2.20912">
<ele>1202</ele>
<time>2013-05-04T13:43:57.000Z</time>
</trkpt>
<trkpt lat="42.65932" lon="-2.209034">
<ele>1203</ele>
<time>2013-05-04T13:43:58.000Z</time>
</trkpt>
<trkpt lat="42.659314" lon="-2.208964">
<ele>1202</ele>
<time>2013-05-04T13:43:59.000Z</time>
</trkpt>
<trkpt lat="42.659309" lon="-2.208881">
<ele>1202</ele>
<time>2013-05-04T13:44:00.000Z</time>
</trkpt>
<trkpt lat="42.659305" lon="-2.208788">
<ele>1203</ele>
<time>2013-05-04T13:44:01.000Z</time>
</trkpt>
<trkpt lat="42.659301" lon="-2.208693">
<ele>1203</ele>
<time>2013-05-04T13:44:02.000Z</time>
</trkpt>
<trkpt lat="42.659297" lon="-2.208599">
<ele>1201</ele>
<time>2013-05-04T13:44:03.000Z</time>
</trkpt>
<trkpt lat="42.659292" lon="-2.208502">
<ele>1200</ele>
<time>2013-05-04T13:44:04.000Z</time>
</trkpt>
<trkpt lat="42.65929" lon="-2.208413">
<ele>1200</ele>
<time>2013-05-04T13:44:05.000Z</time>
</trkpt>
<trkpt lat="42.659288" lon="-2.208321">
<ele>1200</ele>
<time>2013-05-04T13:44:06.000Z</time>
</trkpt>
<trkpt lat="42.659285" lon="-2.208225">
<ele>1199</ele>
<time>2013-05-04T13:44:07.000Z</time>
</trkpt>
<trkpt lat="42.659281" lon="-2.208117">
<ele>1198</ele>
<time>2013-05-04T13:44:08.000Z</time>
</trkpt>
<trkpt lat="42.659273" lon="-2.208001">
<ele>1197</ele>
<time>2013-05-04T13:44:09.000Z</time>
</trkpt>
<trkpt lat="42.659264" lon="-2.207888">
<ele>1195</ele>
<time>2013-05-04T13:44:10.000Z</time>
</trkpt>
<trkpt lat="42.65925" lon="-2.207776">
<ele>1195</ele>
<time>2013-05-04T13:44:11.000Z</time>
</trkpt>
<trkpt lat="42.659218" lon="-2.207675">
<ele>1194</ele>
<time>2013-05-04T13:44:12.000Z</time>
</trkpt>
<trkpt lat="42.659182" lon="-2.207585">
<ele>1193</ele>
<time>2013-05-04T13:44:13.000Z</time>
</trkpt>
<trkpt lat="42.659147" lon="-2.207509">
<ele>1194</ele>
<time>2013-05-04T13:44:14.000Z</time>
</trkpt>
<trkpt lat="42.659115" lon="-2.207428">
<ele>1194</ele>
<time>2013-05-04T13:44:15.000Z</time>
</trkpt>
<trkpt lat="42.659105" lon="-2.207328">
<ele>1192</ele>
<time>2013-05-04T13:44:16.000Z</time>
</trkpt>
<trkpt lat="42.659096" lon="-2.207211">
<ele>1191</ele>
<time>2013-05-04T13:44:17.000Z</time>
</trkpt>
<trkpt lat="42.659087" lon="-2.207093">
<ele>1190</ele>
<time>2013-05-04T13:44:18.000Z</time>
</trkpt>
<trkpt lat="42.659075" lon="-2.206982">
<ele>1188</ele>
<time>2013-05-04T13:44:19.000Z</time>
</trkpt>
<trkpt lat="42.659062" lon="-2.206877">
<ele>1185</ele>
<time>2013-05-04T13:44:20.000Z</time>
</trkpt>
<trkpt lat="42.659055" lon="-2.20677">
<ele>1180</ele>
<time>2013-05-04T13:44:21.000Z</time>
</trkpt>
<trkpt lat="42.659049" lon="-2.206653">
<ele>1165</ele>
<time>2013-05-04T13:44:22.000Z</time>
</trkpt>
<trkpt lat="42.659044" lon="-2.206539">
<ele>1159</ele>
<time>2013-05-04T13:44:23.000Z</time>
</trkpt>
<trkpt lat="42.659039" lon="-2.206421">
<ele>1155</ele>
<time>2013-05-04T13:44:24.000Z</time>
</trkpt>
<trkpt lat="42.659016" lon="-2.206314">
<ele>1153</ele>
<time>2013-05-04T13:44:25.000Z</time>
</trkpt>
<trkpt lat="42.658994" lon="-2.206212">
<ele>1151</ele>
<time>2013-05-04T13:44:26.000Z</time>
</trkpt>
<trkpt lat="42.658973" lon="-2.206111">
<ele>1148</ele>
<time>2013-05-04T13:44:27.000Z</time>
</trkpt>
<trkpt lat="42.658954" lon="-2.206008">
<ele>1145</ele>
<time>2013-05-04T13:44:28.000Z</time>
</trkpt>
<trkpt lat="42.658938" lon="-2.205907">
<ele>1142</ele>
<time>2013-05-04T13:44:29.000Z</time>
</trkpt>
<trkpt lat="42.658922" lon="-2.205804">
<ele>1139</ele>
<time>2013-05-04T13:44:30.000Z</time>
</trkpt>
<trkpt lat="42.658907" lon="-2.205704">
<ele>1136</ele>
<time>2013-05-04T13:44:31.000Z</time>
</trkpt>
<trkpt lat="42.658895" lon="-2.2056">
<ele>1132</ele>
<time>2013-05-04T13:44:32.000Z</time>
</trkpt>
<trkpt lat="42.658882" lon="-2.205495">
<ele>1129</ele>
<time>2013-05-04T13:44:33.000Z</time>
</trkpt>
<trkpt lat="42.658864" lon="-2.205394">
<ele>1125</ele>
<time>2013-05-04T13:44:34.000Z</time>
</trkpt>
<trkpt lat="42.658839" lon="-2.205298">
<ele>1122</ele>
<time>2013-05-04T13:44:35.000Z</time>
</trkpt>
<trkpt lat="42.658808" lon="-2.205206">
<ele>1119</ele>
<time>2013-05-04T13:44:36.000Z</time>
</trkpt>
<trkpt lat="42.658775" lon="-2.205115">
<ele>1115</ele>
<time>2013-05-04T13:44:37.000Z</time>
</trkpt>
<trkpt lat="42.658741" lon="-2.205016">
<ele>1112</ele>
<time>2013-05-04T13:44:38.000Z</time>
</trkpt>
<trkpt lat="42.658716" lon="-2.204923">
<ele>1108</ele>
<time>2013-05-04T13:44:39.000Z</time>
</trkpt>
<trkpt lat="42.658694" lon="-2.204829">
<ele>1104</ele>
<time>2013-05-04T13:44:40.000Z</time>
</trkpt>
<trkpt lat="42.658672" lon="-2.204729">
<ele>1100</ele>
<time>2013-05-04T13:44:41.000Z</time>
</trkpt>
<trkpt lat="42.65865" lon="-2.204623">
<ele>1097</ele>
<time>2013-05-04T13:44:42.000Z</time>
</trkpt>
<trkpt lat="42.658629" lon="-2.2045">
<ele>1094</ele>
<time>2013-05-04T13:44:43.000Z</time>
</trkpt>
<trkpt lat="42.658612" lon="-2.204373">
<ele>1090</ele>
<time>2013-05-04T13:44:44.000Z</time>
</trkpt>
<trkpt lat="42.658601" lon="-2.204253">
<ele>1088</ele>
<time>2013-05-04T13:44:45.000Z</time>
</trkpt>
<trkpt lat="42.658595" lon="-2.20414">
<ele>1085</ele>
<time>2013-05-04T13:44:46.000Z</time>
</trkpt>
<trkpt lat="42.658593" lon="-2.204029">
<ele>1084</ele>
<time>2013-05-04T13:44:47.000Z</time>
</trkpt>
<trkpt lat="42.658589" lon="-2.203915">
<ele>1081</ele>
<time>2013-05-04T13:44:48.000Z</time>
</trkpt>
<trkpt lat="42.658585" lon="-2.203801">
<ele>1079</ele>
<time>2013-05-04T13:44:49.000Z</time>
</trkpt>
<trkpt lat="42.65858" lon="-2.203686">
<ele>1078</ele>
<time>2013-05-04T13:44:50.000Z</time>
</trkpt>
<trkpt lat="42.658575" lon="-2.203565">
<ele>1075</ele>
<time>2013-05-04T13:44:51.000Z</time>
</trkpt>
<trkpt lat="42.658568" lon="-2.203445">
<ele>1073</ele>
<time>2013-05-04T13:44:52.000Z</time>
</trkpt>
<trkpt lat="42.658558" lon="-2.203326">
<ele>1070</ele>
<time>2013-05-04T13:44:53.000Z</time>
</trkpt>
<trkpt lat="42.658546" lon="-2.203211">
<ele>1068</ele>
<time>2013-05-04T13:44:54.000Z</time>
</trkpt>
<trkpt lat="42.658536" lon="-2.203105">
<ele>1066</ele>
<time>2013-05-04T13:44:55.000Z</time>
</trkpt>
<trkpt lat="42.658529" lon="-2.203001">
<ele>1065</ele>
<time>2013-05-04T13:44:56.000Z</time>
</trkpt>
<trkpt lat="42.658526" lon="-2.202905">
<ele>1062</ele>
<time>2013-05-04T13:44:57.000Z</time>
</trkpt>
<trkpt lat="42.658524" lon="-2.202799">
<ele>1060</ele>
<time>2013-05-04T13:44:58.000Z</time>
</trkpt>
<trkpt lat="42.658525" lon="-2.202679">
<ele>1056</ele>
<time>2013-05-04T13:44:59.000Z</time>
</trkpt>
<trkpt lat="42.658528" lon="-2.202552">
<ele>1053</ele>
<time>2013-05-04T13:45:00.000Z</time>
</trkpt>
<trkpt lat="42.658531" lon="-2.202429">
<ele>1051</ele>
<time>2013-05-04T13:45:01.000Z</time>
</trkpt>
<trkpt lat="42.658533" lon="-2.202325">
<ele>1050</ele>
<time>2013-05-04T13:45:02.000Z</time>
</trkpt>
<trkpt lat="42.658537" lon="-2.202229">
<ele>1049</ele>
<time>2013-05-04T13:45:03.000Z</time>
</trkpt>
<trkpt lat="42.658541" lon="-2.202128">
<ele>1046</ele>
<time>2013-05-04T13:45:04.000Z</time>
</trkpt>
<trkpt lat="42.658548" lon="-2.202018">
<ele>1044</ele>
<time>2013-05-04T13:45:05.000Z</time>
</trkpt>
<trkpt lat="42.658554" lon="-2.201893">
<ele>1041</ele>
<time>2013-05-04T13:45:06.000Z</time>
</trkpt>
<trkpt lat="42.658557" lon="-2.201774">
<ele>1040</ele>
<time>2013-05-04T13:45:07.000Z</time>
</trkpt>
<trkpt lat="42.658557" lon="-2.201663">
<ele>1038</ele>
<time>2013-05-04T13:45:08.000Z</time>
</trkpt>
<trkpt lat="42.658556" lon="-2.201564">
<ele>1037</ele>
<time>2013-05-04T13:45:09.000Z</time>
</trkpt>
<trkpt lat="42.658553" lon="-2.20147">
<ele>1034</ele>
<time>2013-05-04T13:45:10.000Z</time>
</trkpt>
<trkpt lat="42.658551" lon="-2.201368">
<ele>1033</ele>
<time>2013-05-04T13:45:11.000Z</time>
</trkpt>
<trkpt lat="42.658549" lon="-2.201265">
<ele>1032</ele>
<time>2013-05-04T13:45:12.000Z</time>
</trkpt>
<trkpt lat="42.658543" lon="-2.201173">
<ele>1031</ele>
<time>2013-05-04T13:45:13.000Z</time>
</trkpt>
<trkpt lat="42.658534" lon="-2.201092">
<ele>1030</ele>
<time>2013-05-04T13:45:14.000Z</time>
</trkpt>
<trkpt lat="42.658524" lon="-2.201007">
<ele>1028</ele>
<time>2013-05-04T13:45:15.000Z</time>
</trkpt>
<trkpt lat="42.658512" lon="-2.200921">
<ele>1027</ele>
<time>2013-05-04T13:45:16.000Z</time>
</trkpt>
<trkpt lat="42.658498" lon="-2.200827">
<ele>1025</ele>
<time>2013-05-04T13:45:17.000Z</time>
</trkpt>
<trkpt lat="42.658484" lon="-2.200729">
<ele>1023</ele>
<time>2013-05-04T13:45:18.000Z</time>
</trkpt>
<trkpt lat="42.658472" lon="-2.200635">
<ele>1021</ele>
<time>2013-05-04T13:45:19.000Z</time>
</trkpt>
<trkpt lat="42.65846" lon="-2.200543">
<ele>1019</ele>
<time>2013-05-04T13:45:20.000Z</time>
</trkpt>
<trkpt lat="42.658451" lon="-2.20045">
<ele>1017</ele>
<time>2013-05-04T13:45:21.000Z</time>
</trkpt>
<trkpt lat="42.658447" lon="-2.200355">
<ele>1015</ele>
<time>2013-05-04T13:45:22.000Z</time>
</trkpt>
<trkpt lat="42.658447" lon="-2.200254">
<ele>1013</ele>
<time>2013-05-04T13:45:23.000Z</time>
</trkpt>
<trkpt lat="42.658451" lon="-2.200153">
<ele>1011</ele>
<time>2013-05-04T13:45:24.000Z</time>
</trkpt>
<trkpt lat="42.658458" lon="-2.200053">
<ele>1008</ele>
<time>2013-05-04T13:45:25.000Z</time>
</trkpt>
<trkpt lat="42.658468" lon="-2.199957">
<ele>1006</ele>
<time>2013-05-04T13:45:26.000Z</time>
</trkpt>
<trkpt lat="42.658482" lon="-2.199862">
<ele>1004</ele>
<time>2013-05-04T13:45:27.000Z</time>
</trkpt>
<trkpt lat="42.658496" lon="-2.199765">
<ele>1001</ele>
<time>2013-05-04T13:45:28.000Z</time>
</trkpt>
<trkpt lat="42.65851" lon="-2.199665">
<ele>998</ele>
<time>2013-05-04T13:45:29.000Z</time>
</trkpt>
<trkpt lat="42.658526" lon="-2.199567">
<ele>997</ele>
<time>2013-05-04T13:45:30.000Z</time>
</trkpt>
<trkpt lat="42.658542" lon="-2.19947">
<ele>996</ele>
<time>2013-05-04T13:45:31.000Z</time>
</trkpt>
<trkpt lat="42.658556" lon="-2.199378">
<ele>994</ele>
<time>2013-05-04T13:45:32.000Z</time>
</trkpt>
<trkpt lat="42.65857" lon="-2.199293">
<ele>992</ele>
<time>2013-05-04T13:45:33.000Z</time>
</trkpt>
<trkpt lat="42.658584" lon="-2.199212">
<ele>990</ele>
<time>2013-05-04T13:45:34.000Z</time>
</trkpt>
<trkpt lat="42.658599" lon="-2.199128">
<ele>989</ele>
<time>2013-05-04T13:45:35.000Z</time>
</trkpt>
<trkpt lat="42.658618" lon="-2.199037">
<ele>987</ele>
<time>2013-05-04T13:45:36.000Z</time>
</trkpt>
<trkpt lat="42.658638" lon="-2.198943">
<ele>985</ele>
<time>2013-05-04T13:45:37.000Z</time>
</trkpt>
<trkpt lat="42.658657" lon="-2.198852">
<ele>983</ele>
<time>2013-05-04T13:45:38.000Z</time>
</trkpt>
<trkpt lat="42.658672" lon="-2.198766">
<ele>982</ele>
<time>2013-05-04T13:45:39.000Z</time>
</trkpt>
<trkpt lat="42.658684" lon="-2.198686">
<ele>980</ele>
<time>2013-05-04T13:45:40.000Z</time>
</trkpt>
<trkpt lat="42.658696" lon="-2.198607">
<ele>979</ele>
<time>2013-05-04T13:45:41.000Z</time>
</trkpt>
<trkpt lat="42.658709" lon="-2.19852">
<ele>977</ele>
<time>2013-05-04T13:45:42.000Z</time>
</trkpt>
<trkpt lat="42.658722" lon="-2.19843">
<ele>975</ele>
<time>2013-05-04T13:45:43.000Z</time>
</trkpt>
<trkpt lat="42.658731" lon="-2.19834">
<ele>973</ele>
<time>2013-05-04T13:45:44.000Z</time>
</trkpt>
<trkpt lat="42.658737" lon="-2.198255">
<ele>971</ele>
<time>2013-05-04T13:45:45.000Z</time>
</trkpt>
<trkpt lat="42.658742" lon="-2.198169">
<ele>969</ele>
<time>2013-05-04T13:45:46.000Z</time>
</trkpt>
<trkpt lat="42.658747" lon="-2.198083">
<ele>967</ele>
<time>2013-05-04T13:45:47.000Z</time>
</trkpt>
<trkpt lat="42.658751" lon="-2.197993">
<ele>966</ele>
<time>2013-05-04T13:45:48.000Z</time>
</trkpt>
<trkpt lat="42.658755" lon="-2.197906">
<ele>965</ele>
<time>2013-05-04T13:45:49.000Z</time>
</trkpt>
<trkpt lat="42.658757" lon="-2.197815">
<ele>963</ele>
<time>2013-05-04T13:45:50.000Z</time>
</trkpt>
<trkpt lat="42.658757" lon="-2.19773">
<ele>962</ele>
<time>2013-05-04T13:45:51.000Z</time>
</trkpt>
<trkpt lat="42.658758" lon="-2.197643">
<ele>960</ele>
<time>2013-05-04T13:45:52.000Z</time>
</trkpt>
<trkpt lat="42.658759" lon="-2.197549">
<ele>958</ele>
<time>2013-05-04T13:45:53.000Z</time>
</trkpt>
<trkpt lat="42.658764" lon="-2.197447">
<ele>956</ele>
<time>2013-05-04T13:45:54.000Z</time>
</trkpt>
<trkpt lat="42.658769" lon="-2.197342">
<ele>955</ele>
<time>2013-05-04T13:45:55.000Z</time>
</trkpt>
<trkpt lat="42.658772" lon="-2.197249">
<ele>954</ele>
<time>2013-05-04T13:45:56.000Z</time>
</trkpt>
<trkpt lat="42.658772" lon="-2.197168">
<ele>953</ele>
<time>2013-05-04T13:45:57.000Z</time>
</trkpt>
<trkpt lat="42.658773" lon="-2.197091">
<ele>952</ele>
<time>2013-05-04T13:45:58.000Z</time>
</trkpt>
<trkpt lat="42.658774" lon="-2.197016">
<ele>950</ele>
<time>2013-05-04T13:45:59.000Z</time>
</trkpt>
<trkpt lat="42.658778" lon="-2.196936">
<ele>947</ele>
<time>2013-05-04T13:46:00.000Z</time>
</trkpt>
<trkpt lat="42.658784" lon="-2.196853">
<ele>945</ele>
<time>2013-05-04T13:46:01.000Z</time>
</trkpt>
<trkpt lat="42.658788" lon="-2.196772">
<ele>943</ele>
<time>2013-05-04T13:46:02.000Z</time>
</trkpt>
<trkpt lat="42.658789" lon="-2.196685">
<ele>942</ele>
<time>2013-05-04T13:46:03.000Z</time>
</trkpt>
<trkpt lat="42.658787" lon="-2.196593">
<ele>941</ele>
<time>2013-05-04T13:46:04.000Z</time>
</trkpt>
<trkpt lat="42.658782" lon="-2.196503">
<ele>938</ele>
<time>2013-05-04T13:46:05.000Z</time>
</trkpt>
<trkpt lat="42.658773" lon="-2.196421">
<ele>935</ele>
<time>2013-05-04T13:46:06.000Z</time>
</trkpt>
<trkpt lat="42.658762" lon="-2.19634">
<ele>933</ele>
<time>2013-05-04T13:46:07.000Z</time>
</trkpt>
<trkpt lat="42.658751" lon="-2.196261">
<ele>930</ele>
<time>2013-05-04T13:46:08.000Z</time>
</trkpt>
<trkpt lat="42.65874" lon="-2.196179">
<ele>927</ele>
<time>2013-05-04T13:46:09.000Z</time>
</trkpt>
<trkpt lat="42.658731" lon="-2.196094">
<ele>924</ele>
<time>2013-05-04T13:46:10.000Z</time>
</trkpt>
<trkpt lat="42.658724" lon="-2.196011">
<ele>922</ele>
<time>2013-05-04T13:46:11.000Z</time>
</trkpt>
<trkpt lat="42.658721" lon="-2.19593">
<ele>920</ele>
<time>2013-05-04T13:46:12.000Z</time>
</trkpt>
<trkpt lat="42.658723" lon="-2.195844">
<ele>918</ele>
<time>2013-05-04T13:46:13.000Z</time>
</trkpt>
<trkpt lat="42.65873" lon="-2.195752">
<ele>916</ele>
<time>2013-05-04T13:46:14.000Z</time>
</trkpt>
<trkpt lat="42.658741" lon="-2.195664">
<ele>914</ele>
<time>2013-05-04T13:46:15.000Z</time>
</trkpt>
<trkpt lat="42.658756" lon="-2.195579">
<ele>912</ele>
<time>2013-05-04T13:46:16.000Z</time>
</trkpt>
<trkpt lat="42.658773" lon="-2.195499">
<ele>911</ele>
<time>2013-05-04T13:46:17.000Z</time>
</trkpt>
<trkpt lat="42.658792" lon="-2.19542">
<ele>910</ele>
<time>2013-05-04T13:46:18.000Z</time>
</trkpt>
<trkpt lat="42.658809" lon="-2.195337">
<ele>908</ele>
<time>2013-05-04T13:46:19.000Z</time>
</trkpt>
<trkpt lat="42.658826" lon="-2.195248">
<ele>905</ele>
<time>2013-05-04T13:46:20.000Z</time>
</trkpt>
<trkpt lat="42.658844" lon="-2.195153">
<ele>903</ele>
<time>2013-05-04T13:46:21.000Z</time>
</trkpt>
<trkpt lat="42.658862" lon="-2.195058">
<ele>901</ele>
<time>2013-05-04T13:46:22.000Z</time>
</trkpt>
<trkpt lat="42.658879" lon="-2.194963">
<ele>899</ele>
<time>2013-05-04T13:46:23.000Z</time>
</trkpt>
<trkpt lat="42.658891" lon="-2.194873">
<ele>897</ele>
<time>2013-05-04T13:46:24.000Z</time>
</trkpt>
<trkpt lat="42.658896" lon="-2.19479">
<ele>895</ele>
<time>2013-05-04T13:46:25.000Z</time>
</trkpt>
<trkpt lat="42.6589" lon="-2.194704">
<ele>893</ele>
<time>2013-05-04T13:46:26.000Z</time>
</trkpt>
<trkpt lat="42.658904" lon="-2.194612">
<ele>891</ele>
<time>2013-05-04T13:46:27.000Z</time>
</trkpt>
<trkpt lat="42.658907" lon="-2.194522">
<ele>889</ele>
<time>2013-05-04T13:46:28.000Z</time>
</trkpt>
<trkpt lat="42.658908" lon="-2.194424">
<ele>887</ele>
<time>2013-05-04T13:46:29.000Z</time>
</trkpt>
<trkpt lat="42.658905" lon="-2.194329">
<ele>886</ele>
<time>2013-05-04T13:46:30.000Z</time>
</trkpt>
<trkpt lat="42.658897" lon="-2.194239">
<ele>884</ele>
<time>2013-05-04T13:46:31.000Z</time>
</trkpt>
<trkpt lat="42.658886" lon="-2.194152">
<ele>881</ele>
<time>2013-05-04T13:46:32.000Z</time>
</trkpt>
<trkpt lat="42.658876" lon="-2.194065">
<ele>879</ele>
<time>2013-05-04T13:46:33.000Z</time>
</trkpt>
<trkpt lat="42.658864" lon="-2.19397">
<ele>877</ele>
<time>2013-05-04T13:46:34.000Z</time>
</trkpt>
<trkpt lat="42.658852" lon="-2.193874">
<ele>875</ele>
<time>2013-05-04T13:46:35.000Z</time>
</trkpt>
<trkpt lat="42.658839" lon="-2.193779">
<ele>873</ele>
<time>2013-05-04T13:46:36.000Z</time>
</trkpt>
<trkpt lat="42.658823" lon="-2.193689">
<ele>871</ele>
<time>2013-05-04T13:46:37.000Z</time>
</trkpt>
<trkpt lat="42.658807" lon="-2.193599">
<ele>868</ele>
<time>2013-05-04T13:46:38.000Z</time>
</trkpt>
<trkpt lat="42.658792" lon="-2.193503">
<ele>865</ele>
<time>2013-05-04T13:46:39.000Z</time>
</trkpt>
<trkpt lat="42.658777" lon="-2.193402">
<ele>863</ele>
<time>2013-05-04T13:46:40.000Z</time>
</trkpt>
<trkpt lat="42.65876" lon="-2.1933">
<ele>860</ele>
<time>2013-05-04T13:46:41.000Z</time>
</trkpt>
<trkpt lat="42.658744" lon="-2.193199">
<ele>858</ele>
<time>2013-05-04T13:46:42.000Z</time>
</trkpt>
<trkpt lat="42.658729" lon="-2.193098">
<ele>856</ele>
<time>2013-05-04T13:46:43.000Z</time>
</trkpt>
<trkpt lat="42.658718" lon="-2.192997">
<ele>854</ele>
<time>2013-05-04T13:46:44.000Z</time>
</trkpt>
<trkpt lat="42.658708" lon="-2.192889">
<ele>852</ele>
<time>2013-05-04T13:46:45.000Z</time>
</trkpt>
<trkpt lat="42.6587" lon="-2.192774">
<ele>849</ele>
<time>2013-05-04T13:46:46.000Z</time>
</trkpt>
<trkpt lat="42.658696" lon="-2.192654">
<ele>848</ele>
<time>2013-05-04T13:46:47.000Z</time>
</trkpt>
<trkpt lat="42.658694" lon="-2.19255">
<ele>845</ele>
<time>2013-05-04T13:46:48.000Z</time>
</trkpt>
<trkpt lat="42.658694" lon="-2.192453">
<ele>843</ele>
<time>2013-05-04T13:46:49.000Z</time>
</trkpt>
<trkpt lat="42.658695" lon="-2.192359">
<ele>841</ele>
<time>2013-05-04T13:46:50.000Z</time>
</trkpt>
<trkpt lat="42.658697" lon="-2.192267">
<ele>838</ele>
<time>2013-05-04T13:46:51.000Z</time>
</trkpt>
<trkpt lat="42.658702" lon="-2.192157">
<ele>836</ele>
<time>2013-05-04T13:46:52.000Z</time>
</trkpt>
<trkpt lat="42.658707" lon="-2.192041">
<ele>834</ele>
<time>2013-05-04T13:46:53.000Z</time>
</trkpt>
<trkpt lat="42.658711" lon="-2.19195">
<ele>830</ele>
<time>2013-05-04T13:46:54.000Z</time>
</trkpt>
<trkpt lat="42.658712" lon="-2.191861">
<ele>827</ele>
<time>2013-05-04T13:46:55.000Z</time>
</trkpt>
<trkpt lat="42.658707" lon="-2.191776">
<ele>824</ele>
<time>2013-05-04T13:46:56.000Z</time>
</trkpt>
<trkpt lat="42.658698" lon="-2.191681">
<ele>822</ele>
<time>2013-05-04T13:46:57.000Z</time>
</trkpt>
<trkpt lat="42.658685" lon="-2.191575">
<ele>819</ele>
<time>2013-05-04T13:46:58.000Z</time>
</trkpt>
<trkpt lat="42.658672" lon="-2.191465">
<ele>816</ele>
<time>2013-05-04T13:46:59.000Z</time>
</trkpt>
<trkpt lat="42.658663" lon="-2.191356">
<ele>815</ele>
<time>2013-05-04T13:47:00.000Z</time>
</trkpt>
<trkpt lat="42.658657" lon="-2.191252">
<ele>813</ele>
<time>2013-05-04T13:47:01.000Z</time>
</trkpt>
<trkpt lat="42.658655" lon="-2.191133">
<ele>812</ele>
<time>2013-05-04T13:47:02.000Z</time>
</trkpt>
<trkpt lat="42.658655" lon="-2.191005">
<ele>811</ele>
<time>2013-05-04T13:47:03.000Z</time>
</trkpt>
<trkpt lat="42.65866" lon="-2.190889">
<ele>810</ele>
<time>2013-05-04T13:47:04.000Z</time>
</trkpt>
<trkpt lat="42.658668" lon="-2.190796">
<ele>809</ele>
<time>2013-05-04T13:47:05.000Z</time>
</trkpt>
<trkpt lat="42.65868" lon="-2.190697">
<ele>807</ele>
<time>2013-05-04T13:47:06.000Z</time>
</trkpt>
<trkpt lat="42.658693" lon="-2.190611">
<ele>804</ele>
<time>2013-05-04T13:47:07.000Z</time>
</trkpt>
<trkpt lat="42.658706" lon="-2.190515">
<ele>800</ele>
<time>2013-05-04T13:47:08.000Z</time>
</trkpt>
<trkpt lat="42.658718" lon="-2.190408">
<ele>797</ele>
<time>2013-05-04T13:47:09.000Z</time>
</trkpt>
<trkpt lat="42.65873" lon="-2.190298">
<ele>795</ele>
<time>2013-05-04T13:47:10.000Z</time>
</trkpt>
<trkpt lat="42.658748" lon="-2.190181">
<ele>794</ele>
<time>2013-05-04T13:47:11.000Z</time>
</trkpt>
<trkpt lat="42.658786" lon="-2.190074">
<ele>795</ele>
<time>2013-05-04T13:47:12.000Z</time>
</trkpt>
<trkpt lat="42.658824" lon="-2.189971">
<ele>793</ele>
<time>2013-05-04T13:47:13.000Z</time>
</trkpt>
<trkpt lat="42.658864" lon="-2.189861">
<ele>793</ele>
<time>2013-05-04T13:47:14.000Z</time>
</trkpt>
<trkpt lat="42.658903" lon="-2.189749">
<ele>793</ele>
<time>2013-05-04T13:47:15.000Z</time>
</trkpt>
<trkpt lat="42.658937" lon="-2.189646">
<ele>790</ele>
<time>2013-05-04T13:47:16.000Z</time>
</trkpt>
<trkpt lat="42.658969" lon="-2.189545">
<ele>785</ele>
<time>2013-05-04T13:47:17.000Z</time>
</trkpt>
<trkpt lat="42.659" lon="-2.189434">
<ele>782</ele>
<time>2013-05-04T13:47:18.000Z</time>
</trkpt>
<trkpt lat="42.659026" lon="-2.189325">
<ele>779</ele>
<time>2013-05-04T13:47:19.000Z</time>
</trkpt>
<trkpt lat="42.659046" lon="-2.189215">
<ele>776</ele>
<time>2013-05-04T13:47:20.000Z</time>
</trkpt>
<trkpt lat="42.659061" lon="-2.189097">
<ele>774</ele>
<time>2013-05-04T13:47:21.000Z</time>
</trkpt>
<trkpt lat="42.659072" lon="-2.188974">
<ele>771</ele>
<time>2013-05-04T13:47:22.000Z</time>
</trkpt>
<trkpt lat="42.659078" lon="-2.188854">
<ele>770</ele>
<time>2013-05-04T13:47:23.000Z</time>
</trkpt>
<trkpt lat="42.65908" lon="-2.18874">
<ele>769</ele>
<time>2013-05-04T13:47:24.000Z</time>
</trkpt>
<trkpt lat="42.659081" lon="-2.188638">
<ele>768</ele>
<time>2013-05-04T13:47:25.000Z</time>
</trkpt>
<trkpt lat="42.659083" lon="-2.188533">
<ele>768</ele>
<time>2013-05-04T13:47:26.000Z</time>
</trkpt>
<trkpt lat="42.659086" lon="-2.188423">
<ele>766</ele>
<time>2013-05-04T13:47:27.000Z</time>
</trkpt>
<trkpt lat="42.659091" lon="-2.188305">
<ele>765</ele>
<time>2013-05-04T13:47:28.000Z</time>
</trkpt>
<trkpt lat="42.659097" lon="-2.188183">
<ele>763</ele>
<time>2013-05-04T13:47:29.000Z</time>
</trkpt>
<trkpt lat="42.659102" lon="-2.188073">
<ele>762</ele>
<time>2013-05-04T13:47:30.000Z</time>
</trkpt>
<trkpt lat="42.659104" lon="-2.187964">
<ele>760</ele>
<time>2013-05-04T13:47:31.000Z</time>
</trkpt>
<trkpt lat="42.659105" lon="-2.187856">
<ele>757</ele>
<time>2013-05-04T13:47:32.000Z</time>
</trkpt>
<trkpt lat="42.659107" lon="-2.187744">
<ele>755</ele>
<time>2013-05-04T13:47:33.000Z</time>
</trkpt>
<trkpt lat="42.659112" lon="-2.187632">
<ele>754</ele>
<time>2013-05-04T13:47:34.000Z</time>
</trkpt>
<trkpt lat="42.659118" lon="-2.187519">
<ele>752</ele>
<time>2013-05-04T13:47:35.000Z</time>
</trkpt>
<trkpt lat="42.65912" lon="-2.187411">
<ele>750</ele>
<time>2013-05-04T13:47:36.000Z</time>
</trkpt>
<trkpt lat="42.65912" lon="-2.187311">
<ele>749</ele>
<time>2013-05-04T13:47:37.000Z</time>
</trkpt>
<trkpt lat="42.659118" lon="-2.187212">
<ele>748</ele>
<time>2013-05-04T13:47:38.000Z</time>
</trkpt>
<trkpt lat="42.659112" lon="-2.187111">
<ele>746</ele>
<time>2013-05-04T13:47:39.000Z</time>
</trkpt>
<trkpt lat="42.659109" lon="-2.187005">
<ele>746</ele>
<time>2013-05-04T13:47:40.000Z</time>
</trkpt>
<trkpt lat="42.659107" lon="-2.186901">
<ele>745</ele>
<time>2013-05-04T13:47:41.000Z</time>
</trkpt>
<trkpt lat="42.659108" lon="-2.186798">
<ele>745</ele>
<time>2013-05-04T13:47:42.000Z</time>
</trkpt>
<trkpt lat="42.659109" lon="-2.186695">
<ele>745</ele>
<time>2013-05-04T13:47:43.000Z</time>
</trkpt>
<trkpt lat="42.659103" lon="-2.186597">
<ele>745</ele>
<time>2013-05-04T13:47:44.000Z</time>
</trkpt>
<trkpt lat="42.659093" lon="-2.186501">
<ele>745</ele>
<time>2013-05-04T13:47:45.000Z</time>
</trkpt>
<trkpt lat="42.65908" lon="-2.186419">
<ele>746</ele>
<time>2013-05-04T13:47:46.000Z</time>
</trkpt>
<trkpt lat="42.659068" lon="-2.186349">
<ele>748</ele>
<time>2013-05-04T13:47:47.000Z</time>
</trkpt>
<trkpt lat="42.659067" lon="-2.186297">
<ele>747</ele>
<time>2013-05-04T13:47:48.000Z</time>
</trkpt>
<trkpt lat="42.659065" lon="-2.186237">
<ele>746</ele>
<time>2013-05-04T13:47:49.000Z</time>
</trkpt>
<trkpt lat="42.659069" lon="-2.186171">
<ele>745</ele>
<time>2013-05-04T13:47:50.000Z</time>
</trkpt>
<trkpt lat="42.659079" lon="-2.186097">
<ele>745</ele>
<time>2013-05-04T13:47:51.000Z</time>
</trkpt>
<trkpt lat="42.65909" lon="-2.186032">
<ele>743</ele>
<time>2013-05-04T13:47:52.000Z</time>
</trkpt>
<trkpt lat="42.65911" lon="-2.185949">
<ele>743</ele>
<time>2013-05-04T13:47:53.000Z</time>
</trkpt>
<trkpt lat="42.65913" lon="-2.185869">
<ele>743</ele>
<time>2013-05-04T13:47:54.000Z</time>
</trkpt>
<trkpt lat="42.659141" lon="-2.185799">
<ele>743</ele>
<time>2013-05-04T13:47:55.000Z</time>
</trkpt>
<trkpt lat="42.659134" lon="-2.185737">
<ele>743</ele>
<time>2013-05-04T13:47:56.000Z</time>
</trkpt>
<trkpt lat="42.659123" lon="-2.185663">
<ele>743</ele>
<time>2013-05-04T13:47:57.000Z</time>
</trkpt>
<trkpt lat="42.65911" lon="-2.18563">
<ele>742</ele>
<time>2013-05-04T13:47:58.000Z</time>
</trkpt>
<trkpt lat="42.659094" lon="-2.185558">
<ele>741</ele>
<time>2013-05-04T13:47:59.000Z</time>
</trkpt>
<trkpt lat="42.659077" lon="-2.185498">
<ele>741</ele>
<time>2013-05-04T13:48:00.000Z</time>
</trkpt>
<trkpt lat="42.659059" lon="-2.185429">
<ele>740</ele>
<time>2013-05-04T13:48:01.000Z</time>
</trkpt>
<trkpt lat="42.65904" lon="-2.185343">
<ele>740</ele>
<time>2013-05-04T13:48:02.000Z</time>
</trkpt>
<trkpt lat="42.659023" lon="-2.185238">
<ele>739</ele>
<time>2013-05-04T13:48:03.000Z</time>
</trkpt>
<trkpt lat="42.659012" lon="-2.185155">
<ele>739</ele>
<time>2013-05-04T13:48:04.000Z</time>
</trkpt>
<trkpt lat="42.659002" lon="-2.185077">
<ele>738</ele>
<time>2013-05-04T13:48:05.000Z</time>
</trkpt>
<trkpt lat="42.658988" lon="-2.184989">
<ele>737</ele>
<time>2013-05-04T13:48:06.000Z</time>
</trkpt>
<trkpt lat="42.65897" lon="-2.184882">
<ele>736</ele>
<time>2013-05-04T13:48:07.000Z</time>
</trkpt>
<trkpt lat="42.658953" lon="-2.184774">
<ele>735</ele>
<time>2013-05-04T13:48:08.000Z</time>
</trkpt>
<trkpt lat="42.658941" lon="-2.184679">
<ele>734</ele>
<time>2013-05-04T13:48:09.000Z</time>
</trkpt>
<trkpt lat="42.658932" lon="-2.184597">
<ele>734</ele>
<time>2013-05-04T13:48:10.000Z</time>
</trkpt>
<trkpt lat="42.658925" lon="-2.184517">
<ele>734</ele>
<time>2013-05-04T13:48:11.000Z</time>
</trkpt>
<trkpt lat="42.658919" lon="-2.184436">
<ele>733</ele>
<time>2013-05-04T13:48:12.000Z</time>
</trkpt>
<trkpt lat="42.658911" lon="-2.184347">
<ele>731</ele>
<time>2013-05-04T13:48:13.000Z</time>
</trkpt>
<trkpt lat="42.6589" lon="-2.184249">
<ele>730</ele>
<time>2013-05-04T13:48:14.000Z</time>
</trkpt>
<trkpt lat="42.658886" lon="-2.184148">
<ele>730</ele>
<time>2013-05-04T13:48:15.000Z</time>
</trkpt>
<trkpt lat="42.658873" lon="-2.184057">
<ele>730</ele>
<time>2013-05-04T13:48:16.000Z</time>
</trkpt>
<trkpt lat="42.658862" lon="-2.183971">
<ele>729</ele>
<time>2013-05-04T13:48:17.000Z</time>
</trkpt>
<trkpt lat="42.658852" lon="-2.183888">
<ele>729</ele>
<time>2013-05-04T13:48:18.000Z</time>
</trkpt>
<trkpt lat="42.65884" lon="-2.183799">
<ele>729</ele>
<time>2013-05-04T13:48:19.000Z</time>
</trkpt>
<trkpt lat="42.658827" lon="-2.183707">
<ele>728</ele>
<time>2013-05-04T13:48:20.000Z</time>
</trkpt>
<trkpt lat="42.658812" lon="-2.183602">
<ele>728</ele>
<time>2013-05-04T13:48:21.000Z</time>
</trkpt>
<trkpt lat="42.658803" lon="-2.183506">
<ele>728</ele>
<time>2013-05-04T13:48:22.000Z</time>
</trkpt>
<trkpt lat="42.658795" lon="-2.18341">
<ele>729</ele>
<time>2013-05-04T13:48:23.000Z</time>
</trkpt>
<trkpt lat="42.658787" lon="-2.183319">
<ele>729</ele>
<time>2013-05-04T13:48:24.000Z</time>
</trkpt>
<trkpt lat="42.658777" lon="-2.183234">
<ele>730</ele>
<time>2013-05-04T13:48:25.000Z</time>
</trkpt>
<trkpt lat="42.658768" lon="-2.183157">
<ele>730</ele>
<time>2013-05-04T13:48:26.000Z</time>
</trkpt>
<trkpt lat="42.658763" lon="-2.183072">
<ele>730</ele>
<time>2013-05-04T13:48:27.000Z</time>
</trkpt>
<trkpt lat="42.658761" lon="-2.182993">
<ele>730</ele>
<time>2013-05-04T13:48:28.000Z</time>
</trkpt>
<trkpt lat="42.658761" lon="-2.182919">
<ele>731</ele>
<time>2013-05-04T13:48:29.000Z</time>
</trkpt>
<trkpt lat="42.65876" lon="-2.182848">
<ele>733</ele>
<time>2013-05-04T13:48:30.000Z</time>
</trkpt>
<trkpt lat="42.658756" lon="-2.182786">
<ele>734</ele>
<time>2013-05-04T13:48:31.000Z</time>
</trkpt>
<trkpt lat="42.658742" lon="-2.18272">
<ele>736</ele>
<time>2013-05-04T13:48:32.000Z</time>
</trkpt>
<trkpt lat="42.658715" lon="-2.182664">
<ele>736</ele>
<time>2013-05-04T13:48:33.000Z</time>
</trkpt>
<trkpt lat="42.658684" lon="-2.182633">
<ele>738</ele>
<time>2013-05-04T13:48:34.000Z</time>
</trkpt>
<trkpt lat="42.658643" lon="-2.182627">
<ele>739</ele>
<time>2013-05-04T13:48:35.000Z</time>
</trkpt>
<trkpt lat="42.658597" lon="-2.182653">
<ele>740</ele>
<time>2013-05-04T13:48:36.000Z</time>
</trkpt>
<trkpt lat="42.658549" lon="-2.182704">
<ele>742</ele>
<time>2013-05-04T13:48:37.000Z</time>
</trkpt>
<trkpt lat="42.658513" lon="-2.182776">
<ele>744</ele>
<time>2013-05-04T13:48:38.000Z</time>
</trkpt>
<trkpt lat="42.658481" lon="-2.182852">
<ele>745</ele>
<time>2013-05-04T13:48:39.000Z</time>
</trkpt>
<trkpt lat="42.65847" lon="-2.182945">
<ele>744</ele>
<time>2013-05-04T13:48:40.000Z</time>
</trkpt>
<trkpt lat="42.658476" lon="-2.183047">
<ele>745</ele>
<time>2013-05-04T13:48:41.000Z</time>
</trkpt>
<trkpt lat="42.658516" lon="-2.183154">
<ele>744</ele>
<time>2013-05-04T13:48:42.000Z</time>
</trkpt>
<trkpt lat="42.658592" lon="-2.183265">
<ele>743</ele>
<time>2013-05-04T13:48:43.000Z</time>
</trkpt>
<trkpt lat="42.658669" lon="-2.183367">
<ele>743</ele>
<time>2013-05-04T13:48:44.000Z</time>
</trkpt>
<trkpt lat="42.658741" lon="-2.183448">
<ele>742</ele>
<time>2013-05-04T13:48:45.000Z</time>
</trkpt>
<trkpt lat="42.658814" lon="-2.183522">
<ele>744</ele>
<time>2013-05-04T13:48:46.000Z</time>
</trkpt>
<trkpt lat="42.6589" lon="-2.183568">
<ele>746</ele>
<time>2013-05-04T13:48:47.000Z</time>
</trkpt>
<trkpt lat="42.658983" lon="-2.183597">
<ele>748</ele>
<time>2013-05-04T13:48:48.000Z</time>
</trkpt>
<trkpt lat="42.659062" lon="-2.183612">
<ele>749</ele>
<time>2013-05-04T13:48:49.000Z</time>
</trkpt>
<trkpt lat="42.659148" lon="-2.18362">
<ele>750</ele>
<time>2013-05-04T13:48:50.000Z</time>
</trkpt>
<trkpt lat="42.65926" lon="-2.183596">
<ele>751</ele>
<time>2013-05-04T13:48:51.000Z</time>
</trkpt>
<trkpt lat="42.659353" lon="-2.183546">
<ele>752</ele>
<time>2013-05-04T13:48:52.000Z</time>
</trkpt>
<trkpt lat="42.659441" lon="-2.183468">
<ele>753</ele>
<time>2013-05-04T13:48:53.000Z</time>
</trkpt>
<trkpt lat="42.659509" lon="-2.183373">
<ele>754</ele>
<time>2013-05-04T13:48:54.000Z</time>
</trkpt>
<trkpt lat="42.659562" lon="-2.183281">
<ele>755</ele>
<time>2013-05-04T13:48:55.000Z</time>
</trkpt>
<trkpt lat="42.659584" lon="-2.183188">
<ele>757</ele>
<time>2013-05-04T13:48:56.000Z</time>
</trkpt>
<trkpt lat="42.659598" lon="-2.183105">
<ele>757</ele>
<time>2013-05-04T13:48:57.000Z</time>
</trkpt>
<trkpt lat="42.659592" lon="-2.183036">
<ele>756</ele>
<time>2013-05-04T13:48:58.000Z</time>
</trkpt>
<trkpt lat="42.659585" lon="-2.182977">
<ele>756</ele>
<time>2013-05-04T13:48:59.000Z</time>
</trkpt>
<trkpt lat="42.659576" lon="-2.182918">
<ele>756</ele>
<time>2013-05-04T13:49:00.000Z</time>
</trkpt>
<trkpt lat="42.659567" lon="-2.182855">
<ele>756</ele>
<time>2013-05-04T13:49:01.000Z</time>
</trkpt>
<trkpt lat="42.659558" lon="-2.182781">
<ele>756</ele>
<time>2013-05-04T13:49:02.000Z</time>
</trkpt>
<trkpt lat="42.659548" lon="-2.182694">
<ele>756</ele>
<time>2013-05-04T13:49:03.000Z</time>
</trkpt>
<trkpt lat="42.659534" lon="-2.182608">
<ele>757</ele>
<time>2013-05-04T13:49:04.000Z</time>
</trkpt>
<trkpt lat="42.65951" lon="-2.182541">
<ele>760</ele>
<time>2013-05-04T13:49:05.000Z</time>
</trkpt>
<trkpt lat="42.659475" lon="-2.182514">
<ele>763</ele>
<time>2013-05-04T13:49:06.000Z</time>
</trkpt>
<trkpt lat="42.659437" lon="-2.182507">
<ele>763</ele>
<time>2013-05-04T13:49:07.000Z</time>
</trkpt>
<trkpt lat="42.659399" lon="-2.182505">
<ele>764</ele>
<time>2013-05-04T13:49:08.000Z</time>
</trkpt>
<trkpt lat="42.659353" lon="-2.182515">
<ele>764</ele>
<time>2013-05-04T13:49:09.000Z</time>
</trkpt>
<trkpt lat="42.659308" lon="-2.182554">
<ele>764</ele>
<time>2013-05-04T13:49:10.000Z</time>
</trkpt>
<trkpt lat="42.65927" lon="-2.182637">
<ele>762</ele>
<time>2013-05-04T13:49:11.000Z</time>
</trkpt>
<trkpt lat="42.659241" lon="-2.182756">
<ele>760</ele>
<time>2013-05-04T13:49:12.000Z</time>
</trkpt>
<trkpt lat="42.659235" lon="-2.182879">
<ele>760</ele>
<time>2013-05-04T13:49:13.000Z</time>
</trkpt>
<trkpt lat="42.659256" lon="-2.183002">
<ele>759</ele>
<time>2013-05-04T13:49:14.000Z</time>
</trkpt>
<trkpt lat="42.659305" lon="-2.183109">
<ele>758</ele>
<time>2013-05-04T13:49:15.000Z</time>
</trkpt>
<trkpt lat="42.659379" lon="-2.183185">
<ele>758</ele>
<time>2013-05-04T13:49:16.000Z</time>
</trkpt>
<trkpt lat="42.659469" lon="-2.183234">
<ele>758</ele>
<time>2013-05-04T13:49:17.000Z</time>
</trkpt>
<trkpt lat="42.659558" lon="-2.183274">
<ele>760</ele>
<time>2013-05-04T13:49:18.000Z</time>
</trkpt>
<trkpt lat="42.659637" lon="-2.183298">
<ele>762</ele>
<time>2013-05-04T13:49:19.000Z</time>
</trkpt>
<trkpt lat="42.659705" lon="-2.183309">
<ele>764</ele>
<time>2013-05-04T13:49:20.000Z</time>
</trkpt>
<trkpt lat="42.659785" lon="-2.183317">
<ele>768</ele>
<time>2013-05-04T13:49:21.000Z</time>
</trkpt>
<trkpt lat="42.659849" lon="-2.183295">
<ele>769</ele>
<time>2013-05-04T13:49:22.000Z</time>
</trkpt>
<trkpt lat="42.659919" lon="-2.183271">
<ele>768</ele>
<time>2013-05-04T13:49:23.000Z</time>
</trkpt>
<trkpt lat="42.66" lon="-2.183244">
<ele>767</ele>
<time>2013-05-04T13:49:24.000Z</time>
</trkpt>
<trkpt lat="42.6601" lon="-2.183207">
<ele>768</ele>
<time>2013-05-04T13:49:25.000Z</time>
</trkpt>
<trkpt lat="42.660193" lon="-2.183139">
<ele>769</ele>
<time>2013-05-04T13:49:26.000Z</time>
</trkpt>
<trkpt lat="42.660258" lon="-2.18305">
<ele>770</ele>
<time>2013-05-04T13:49:27.000Z</time>
</trkpt>
<trkpt lat="42.660311" lon="-2.182946">
<ele>772</ele>
<time>2013-05-04T13:49:28.000Z</time>
</trkpt>
<trkpt lat="42.660354" lon="-2.182852">
<ele>775</ele>
<time>2013-05-04T13:49:29.000Z</time>
</trkpt>
<trkpt lat="42.660394" lon="-2.182757">
<ele>776</ele>
<time>2013-05-04T13:49:30.000Z</time>
</trkpt>
<trkpt lat="42.660433" lon="-2.18268">
<ele>778</ele>
<time>2013-05-04T13:49:31.000Z</time>
</trkpt>
<trkpt lat="42.660496" lon="-2.182616">
<ele>779</ele>
<time>2013-05-04T13:49:32.000Z</time>
</trkpt>
<trkpt lat="42.660555" lon="-2.182555">
<ele>780</ele>
<time>2013-05-04T13:49:33.000Z</time>
</trkpt>
<trkpt lat="42.660609" lon="-2.182497">
<ele>781</ele>
<time>2013-05-04T13:49:34.000Z</time>
</trkpt>
<trkpt lat="42.660663" lon="-2.182428">
<ele>781</ele>
<time>2013-05-04T13:49:35.000Z</time>
</trkpt>
<trkpt lat="42.660698" lon="-2.182342">
<ele>781</ele>
<time>2013-05-04T13:49:36.000Z</time>
</trkpt>
<trkpt lat="42.660716" lon="-2.182255">
<ele>779</ele>
<time>2013-05-04T13:49:37.000Z</time>
</trkpt>
<trkpt lat="42.66071" lon="-2.182171">
<ele>778</ele>
<time>2013-05-04T13:49:38.000Z</time>
</trkpt>
<trkpt lat="42.66068" lon="-2.182118">
<ele>775</ele>
<time>2013-05-04T13:49:39.000Z</time>
</trkpt>
<trkpt lat="42.660633" lon="-2.182097">
<ele>773</ele>
<time>2013-05-04T13:49:40.000Z</time>
</trkpt>
<trkpt lat="42.660579" lon="-2.182105">
<ele>770</ele>
<time>2013-05-04T13:49:41.000Z</time>
</trkpt>
<trkpt lat="42.660534" lon="-2.182135">
<ele>769</ele>
<time>2013-05-04T13:49:42.000Z</time>
</trkpt>
<trkpt lat="42.660505" lon="-2.182182">
<ele>769</ele>
<time>2013-05-04T13:49:43.000Z</time>
</trkpt>
<trkpt lat="42.660473" lon="-2.182249">
<ele>768</ele>
<time>2013-05-04T13:49:44.000Z</time>
</trkpt>
<trkpt lat="42.660451" lon="-2.182338">
<ele>767</ele>
<time>2013-05-04T13:49:45.000Z</time>
</trkpt>
<trkpt lat="42.660434" lon="-2.18244">
<ele>765</ele>
<time>2013-05-04T13:49:46.000Z</time>
</trkpt>
<trkpt lat="42.660433" lon="-2.182551">
<ele>763</ele>
<time>2013-05-04T13:49:47.000Z</time>
</trkpt>
<trkpt lat="42.660437" lon="-2.182672">
<ele>760</ele>
<time>2013-05-04T13:49:48.000Z</time>
</trkpt>
<trkpt lat="42.660451" lon="-2.182766">
<ele>760</ele>
<time>2013-05-04T13:49:49.000Z</time>
</trkpt>
<trkpt lat="42.660463" lon="-2.182854">
<ele>759</ele>
<time>2013-05-04T13:49:50.000Z</time>
</trkpt>
<trkpt lat="42.660475" lon="-2.182939">
<ele>759</ele>
<time>2013-05-04T13:49:51.000Z</time>
</trkpt>
<trkpt lat="42.660489" lon="-2.183017">
<ele>759</ele>
<time>2013-05-04T13:49:52.000Z</time>
</trkpt>
<trkpt lat="42.660528" lon="-2.18311">
<ele>760</ele>
<time>2013-05-04T13:49:53.000Z</time>
</trkpt>
<trkpt lat="42.660574" lon="-2.18321">
<ele>760</ele>
<time>2013-05-04T13:49:54.000Z</time>
</trkpt>
<trkpt lat="42.660623" lon="-2.183304">
<ele>761</ele>
<time>2013-05-04T13:49:55.000Z</time>
</trkpt>
<trkpt lat="42.660676" lon="-2.183397">
<ele>760</ele>
<time>2013-05-04T13:49:56.000Z</time>
</trkpt>
<trkpt lat="42.66073" lon="-2.183484">
<ele>762</ele>
<time>2013-05-04T13:49:57.000Z</time>
</trkpt>
<trkpt lat="42.660787" lon="-2.183566">
<ele>765</ele>
<time>2013-05-04T13:49:58.000Z</time>
</trkpt>
<trkpt lat="42.66085" lon="-2.183626">
<ele>767</ele>
<time>2013-05-04T13:49:59.000Z</time>
</trkpt>
<trkpt lat="42.660911" lon="-2.183684">
<ele>769</ele>
<time>2013-05-04T13:50:00.000Z</time>
</trkpt>
<trkpt lat="42.660977" lon="-2.183748">
<ele>770</ele>
<time>2013-05-04T13:50:01.000Z</time>
</trkpt>
<trkpt lat="42.661048" lon="-2.183809">
<ele>771</ele>
<time>2013-05-04T13:50:02.000Z</time>
</trkpt>
<trkpt lat="42.661126" lon="-2.183868">
<ele>772</ele>
<time>2013-05-04T13:50:03.000Z</time>
</trkpt>
<trkpt lat="42.661199" lon="-2.183919">
<ele>774</ele>
<time>2013-05-04T13:50:04.000Z</time>
</trkpt>
<trkpt lat="42.661272" lon="-2.183962">
<ele>776</ele>
<time>2013-05-04T13:50:05.000Z</time>
</trkpt>
<trkpt lat="42.661347" lon="-2.184008">
<ele>778</ele>
<time>2013-05-04T13:50:06.000Z</time>
</trkpt>
<trkpt lat="42.661408" lon="-2.184079">
<ele>777</ele>
<time>2013-05-04T13:50:07.000Z</time>
</trkpt>
<trkpt lat="42.661458" lon="-2.184168">
<ele>777</ele>
<time>2013-05-04T13:50:08.000Z</time>
</trkpt>
<trkpt lat="42.661497" lon="-2.18425">
<ele>777</ele>
<time>2013-05-04T13:50:09.000Z</time>
</trkpt>
<trkpt lat="42.661505" lon="-2.184322">
<ele>776</ele>
<time>2013-05-04T13:50:10.000Z</time>
</trkpt>
<trkpt lat="42.661482" lon="-2.184367">
<ele>778</ele>
<time>2013-05-04T13:50:11.000Z</time>
</trkpt>
<trkpt lat="42.661444" lon="-2.184388">
<ele>778</ele>
<time>2013-05-04T13:50:12.000Z</time>
</trkpt>
<trkpt lat="42.661405" lon="-2.184387">
<ele>780</ele>
<time>2013-05-04T13:50:13.000Z</time>
</trkpt>
<trkpt lat="42.661386" lon="-2.184381">
<ele>784</ele>
<time>2013-05-04T13:50:14.000Z</time>
</trkpt>
<trkpt lat="42.661367" lon="-2.184356">
<ele>782</ele>
<time>2013-05-04T13:50:15.000Z</time>
</trkpt>
<trkpt lat="42.661338" lon="-2.184311">
<ele>784</ele>
<time>2013-05-04T13:50:16.000Z</time>
</trkpt>
<trkpt lat="42.661321" lon="-2.18424">
<ele>782</ele>
<time>2013-05-04T13:50:17.000Z</time>
</trkpt>
<trkpt lat="42.661326" lon="-2.184167">
<ele>780</ele>
<time>2013-05-04T13:50:18.000Z</time>
</trkpt>
<trkpt lat="42.661334" lon="-2.184069">
<ele>779</ele>
<time>2013-05-04T13:50:19.000Z</time>
</trkpt>
<trkpt lat="42.661365" lon="-2.183979">
<ele>777</ele>
<time>2013-05-04T13:50:20.000Z</time>
</trkpt>
<trkpt lat="42.661411" lon="-2.183889">
<ele>781</ele>
<time>2013-05-04T13:50:21.000Z</time>
</trkpt>
<trkpt lat="42.66147" lon="-2.183833">
<ele>784</ele>
<time>2013-05-04T13:50:22.000Z</time>
</trkpt>
<trkpt lat="42.661548" lon="-2.183807">
<ele>788</ele>
<time>2013-05-04T13:50:23.000Z</time>
</trkpt>
<trkpt lat="42.661633" lon="-2.183782">
<ele>789</ele>
<time>2013-05-04T13:50:24.000Z</time>
</trkpt>
<trkpt lat="42.661721" lon="-2.183762">
<ele>792</ele>
<time>2013-05-04T13:50:25.000Z</time>
</trkpt>
<trkpt lat="42.66181" lon="-2.183756">
<ele>795</ele>
<time>2013-05-04T13:50:26.000Z</time>
</trkpt>
<trkpt lat="42.661892" lon="-2.183791">
<ele>796</ele>
<time>2013-05-04T13:50:27.000Z</time>
</trkpt>
<trkpt lat="42.661954" lon="-2.183846">
<ele>797</ele>
<time>2013-05-04T13:50:28.000Z</time>
</trkpt>
<trkpt lat="42.662014" lon="-2.183908">
<ele>796</ele>
<time>2013-05-04T13:50:29.000Z</time>
</trkpt>
<trkpt lat="42.662061" lon="-2.183996">
<ele>797</ele>
<time>2013-05-04T13:50:30.000Z</time>
</trkpt>
<trkpt lat="42.662087" lon="-2.184097">
<ele>798</ele>
<time>2013-05-04T13:50:31.000Z</time>
</trkpt>
<trkpt lat="42.662094" lon="-2.184182">
<ele>799</ele>
<time>2013-05-04T13:50:32.000Z</time>
</trkpt>
<trkpt lat="42.662097" lon="-2.184247">
<ele>798</ele>
<time>2013-05-04T13:50:33.000Z</time>
</trkpt>
<trkpt lat="42.662096" lon="-2.184316">
<ele>796</ele>
<time>2013-05-04T13:50:34.000Z</time>
</trkpt>
<trkpt lat="42.662087" lon="-2.184372">
<ele>798</ele>
<time>2013-05-04T13:50:35.000Z</time>
</trkpt>
<trkpt lat="42.662074" lon="-2.184412">
<ele>800</ele>
<time>2013-05-04T13:50:36.000Z</time>
</trkpt>
<trkpt lat="42.662054" lon="-2.18444">
<ele>801</ele>
<time>2013-05-04T13:50:37.000Z</time>
</trkpt>
<trkpt lat="42.662028" lon="-2.184463">
<ele>800</ele>
<time>2013-05-04T13:50:38.000Z</time>
</trkpt>
<trkpt lat="42.662002" lon="-2.184478">
<ele>799</ele>
<time>2013-05-04T13:50:39.000Z</time>
</trkpt>
<trkpt lat="42.661976" lon="-2.184482">
<ele>798</ele>
<time>2013-05-04T13:50:40.000Z</time>
</trkpt>
<trkpt lat="42.661942" lon="-2.184475">
<ele>798</ele>
<time>2013-05-04T13:50:41.000Z</time>
</trkpt>
<trkpt lat="42.661911" lon="-2.184449">
<ele>797</ele>
<time>2013-05-04T13:50:42.000Z</time>
</trkpt>
<trkpt lat="42.661884" lon="-2.184402">
<ele>796</ele>
<time>2013-05-04T13:50:43.000Z</time>
</trkpt>
<trkpt lat="42.661864" lon="-2.184325">
<ele>799</ele>
<time>2013-05-04T13:50:44.000Z</time>
</trkpt>
<trkpt lat="42.661872" lon="-2.184231">
<ele>803</ele>
<time>2013-05-04T13:50:45.000Z</time>
</trkpt>
<trkpt lat="42.661912" lon="-2.184139">
<ele>807</ele>
<time>2013-05-04T13:50:46.000Z</time>
</trkpt>
<trkpt lat="42.661968" lon="-2.18407">
<ele>809</ele>
<time>2013-05-04T13:50:47.000Z</time>
</trkpt>
<trkpt lat="42.662029" lon="-2.183997">
<ele>812</ele>
<time>2013-05-04T13:50:48.000Z</time>
</trkpt>
<trkpt lat="42.662089" lon="-2.18393">
<ele>814</ele>
<time>2013-05-04T13:50:49.000Z</time>
</trkpt>
<trkpt lat="42.662151" lon="-2.183866">
<ele>819</ele>
<time>2013-05-04T13:50:50.000Z</time>
</trkpt>
<trkpt lat="42.66222" lon="-2.183818">
<ele>821</ele>
<time>2013-05-04T13:50:51.000Z</time>
</trkpt>
<trkpt lat="42.66229" lon="-2.183783">
<ele>820</ele>
<time>2013-05-04T13:50:52.000Z</time>
</trkpt>
<trkpt lat="42.662363" lon="-2.183761">
<ele>819</ele>
<time>2013-05-04T13:50:53.000Z</time>
</trkpt>
<trkpt lat="42.662442" lon="-2.183768">
<ele>820</ele>
<time>2013-05-04T13:50:54.000Z</time>
</trkpt>
<trkpt lat="42.662519" lon="-2.183783">
<ele>820</ele>
<time>2013-05-04T13:50:55.000Z</time>
</trkpt>
<trkpt lat="42.662598" lon="-2.18383">
<ele>820</ele>
<time>2013-05-04T13:50:56.000Z</time>
</trkpt>
<trkpt lat="42.662675" lon="-2.183882">
<ele>819</ele>
<time>2013-05-04T13:50:57.000Z</time>
</trkpt>
<trkpt lat="42.662739" lon="-2.183959">
<ele>821</ele>
<time>2013-05-04T13:50:58.000Z</time>
</trkpt>
<trkpt lat="42.662788" lon="-2.184052">
<ele>823</ele>
<time>2013-05-04T13:50:59.000Z</time>
</trkpt>
<trkpt lat="42.662828" lon="-2.184144">
<ele>825</ele>
<time>2013-05-04T13:51:00.000Z</time>
</trkpt>
<trkpt lat="42.662843" lon="-2.184248">
<ele>828</ele>
<time>2013-05-04T13:51:01.000Z</time>
</trkpt>
<trkpt lat="42.662839" lon="-2.184342">
<ele>829</ele>
<time>2013-05-04T13:51:02.000Z</time>
</trkpt>
<trkpt lat="42.66282" lon="-2.184408">
<ele>831</ele>
<time>2013-05-04T13:51:03.000Z</time>
</trkpt>
<trkpt lat="42.662791" lon="-2.184451">
<ele>833</ele>
<time>2013-05-04T13:51:04.000Z</time>
</trkpt>
<trkpt lat="42.662761" lon="-2.184487">
<ele>835</ele>
<time>2013-05-04T13:51:05.000Z</time>
</trkpt>
<trkpt lat="42.66273" lon="-2.184507">
<ele>836</ele>
<time>2013-05-04T13:51:06.000Z</time>
</trkpt>
<trkpt lat="42.662705" lon="-2.184512">
<ele>837</ele>
<time>2013-05-04T13:51:07.000Z</time>
</trkpt>
<trkpt lat="42.662682" lon="-2.184508">
<ele>837</ele>
<time>2013-05-04T13:51:08.000Z</time>
</trkpt>
<trkpt lat="42.662656" lon="-2.184493">
<ele>838</ele>
<time>2013-05-04T13:51:09.000Z</time>
</trkpt>
<trkpt lat="42.662633" lon="-2.184458">
<ele>838</ele>
<time>2013-05-04T13:51:10.000Z</time>
</trkpt>
<trkpt lat="42.66262" lon="-2.184389">
<ele>840</ele>
<time>2013-05-04T13:51:11.000Z</time>
</trkpt>
<trkpt lat="42.662631" lon="-2.184288">
<ele>843</ele>
<time>2013-05-04T13:51:12.000Z</time>
</trkpt>
<trkpt lat="42.662665" lon="-2.184194">
<ele>845</ele>
<time>2013-05-04T13:51:13.000Z</time>
</trkpt>
<trkpt lat="42.662717" lon="-2.184116">
<ele>847</ele>
<time>2013-05-04T13:51:14.000Z</time>
</trkpt>
<trkpt lat="42.662778" lon="-2.184061">
<ele>849</ele>
<time>2013-05-04T13:51:15.000Z</time>
</trkpt>
<trkpt lat="42.662844" lon="-2.184005">
<ele>853</ele>
<time>2013-05-04T13:51:16.000Z</time>
</trkpt>
<trkpt lat="42.662917" lon="-2.183954">
<ele>853</ele>
<time>2013-05-04T13:51:17.000Z</time>
</trkpt>
<trkpt lat="42.66299" lon="-2.183907">
<ele>852</ele>
<time>2013-05-04T13:51:18.000Z</time>
</trkpt>
<trkpt lat="42.663078" lon="-2.183883">
<ele>852</ele>
<time>2013-05-04T13:51:19.000Z</time>
</trkpt>
<trkpt lat="42.663173" lon="-2.183886">
<ele>854</ele>
<time>2013-05-04T13:51:20.000Z</time>
</trkpt>
<trkpt lat="42.663248" lon="-2.183924">
<ele>853</ele>
<time>2013-05-04T13:51:21.000Z</time>
</trkpt>
<trkpt lat="42.663318" lon="-2.183961">
<ele>854</ele>
<time>2013-05-04T13:51:22.000Z</time>
</trkpt>
<trkpt lat="42.663382" lon="-2.183998">
<ele>857</ele>
<time>2013-05-04T13:51:23.000Z</time>
</trkpt>
<trkpt lat="42.663435" lon="-2.184029">
<ele>858</ele>
<time>2013-05-04T13:51:24.000Z</time>
</trkpt>
<trkpt lat="42.663489" lon="-2.184058">
<ele>860</ele>
<time>2013-05-04T13:51:25.000Z</time>
</trkpt>
<trkpt lat="42.663565" lon="-2.184096">
<ele>863</ele>
<time>2013-05-04T13:51:26.000Z</time>
</trkpt>
<trkpt lat="42.663633" lon="-2.184161">
<ele>865</ele>
<time>2013-05-04T13:51:27.000Z</time>
</trkpt>
<trkpt lat="42.663687" lon="-2.184224">
<ele>866</ele>
<time>2013-05-04T13:51:28.000Z</time>
</trkpt>
<trkpt lat="42.66372" lon="-2.184301">
<ele>868</ele>
<time>2013-05-04T13:51:29.000Z</time>
</trkpt>
<trkpt lat="42.663741" lon="-2.18437">
<ele>870</ele>
<time>2013-05-04T13:51:30.000Z</time>
</trkpt>
<trkpt lat="42.663743" lon="-2.18444">
<ele>872</ele>
<time>2013-05-04T13:51:31.000Z</time>
</trkpt>
<trkpt lat="42.663744" lon="-2.184498">
<ele>873</ele>
<time>2013-05-04T13:51:32.000Z</time>
</trkpt>
<trkpt lat="42.663734" lon="-2.184598">
<ele>873</ele>
<time>2013-05-04T13:51:33.000Z</time>
</trkpt>
<trkpt lat="42.663708" lon="-2.184684">
<ele>877</ele>
<time>2013-05-04T13:51:34.000Z</time>
</trkpt>
<trkpt lat="42.66367" lon="-2.184745">
<ele>879</ele>
<time>2013-05-04T13:51:35.000Z</time>
</trkpt>
<trkpt lat="42.663625" lon="-2.184784">
<ele>881</ele>
<time>2013-05-04T13:51:36.000Z</time>
</trkpt>
<trkpt lat="42.663587" lon="-2.184801">
<ele>882</ele>
<time>2013-05-04T13:51:37.000Z</time>
</trkpt>
<trkpt lat="42.663558" lon="-2.184795">
<ele>884</ele>
<time>2013-05-04T13:51:38.000Z</time>
</trkpt>
<trkpt lat="42.663535" lon="-2.184774">
<ele>885</ele>
<time>2013-05-04T13:51:39.000Z</time>
</trkpt>
<trkpt lat="42.663518" lon="-2.184737">
<ele>885</ele>
<time>2013-05-04T13:51:40.000Z</time>
</trkpt>
<trkpt lat="42.663502" lon="-2.184686">
<ele>886</ele>
<time>2013-05-04T13:51:41.000Z</time>
</trkpt>
<trkpt lat="42.663485" lon="-2.184631">
<ele>888</ele>
<time>2013-05-04T13:51:42.000Z</time>
</trkpt>
<trkpt lat="42.663469" lon="-2.184569">
<ele>888</ele>
<time>2013-05-04T13:51:43.000Z</time>
</trkpt>
<trkpt lat="42.663453" lon="-2.184501">
<ele>890</ele>
<time>2013-05-04T13:51:44.000Z</time>
</trkpt>
<trkpt lat="42.663447" lon="-2.184404">
<ele>892</ele>
<time>2013-05-04T13:51:45.000Z</time>
</trkpt>
<trkpt lat="42.663461" lon="-2.18431">
<ele>895</ele>
<time>2013-05-04T13:51:46.000Z</time>
</trkpt>
<trkpt lat="42.663507" lon="-2.184217">
<ele>897</ele>
<time>2013-05-04T13:51:47.000Z</time>
</trkpt>
<trkpt lat="42.663575" lon="-2.184138">
<ele>899</ele>
<time>2013-05-04T13:51:48.000Z</time>
</trkpt>
<trkpt lat="42.663645" lon="-2.184069">
<ele>899</ele>
<time>2013-05-04T13:51:49.000Z</time>
</trkpt>
<trkpt lat="42.663731" lon="-2.184024">
<ele>899</ele>
<time>2013-05-04T13:51:50.000Z</time>
</trkpt>
<trkpt lat="42.663818" lon="-2.184008">
<ele>899</ele>
<time>2013-05-04T13:51:51.000Z</time>
</trkpt>
<trkpt lat="42.663907" lon="-2.184025">
<ele>900</ele>
<time>2013-05-04T13:51:52.000Z</time>
</trkpt>
<trkpt lat="42.663995" lon="-2.184049">
<ele>900</ele>
<time>2013-05-04T13:51:53.000Z</time>
</trkpt>
<trkpt lat="42.66407" lon="-2.184099">
<ele>900</ele>
<time>2013-05-04T13:51:54.000Z</time>
</trkpt>
<trkpt lat="42.664136" lon="-2.184153">
<ele>901</ele>
<time>2013-05-04T13:51:55.000Z</time>
</trkpt>
<trkpt lat="42.664202" lon="-2.184219">
<ele>904</ele>
<time>2013-05-04T13:51:56.000Z</time>
</trkpt>
<trkpt lat="42.664268" lon="-2.184298">
<ele>906</ele>
<time>2013-05-04T13:51:57.000Z</time>
</trkpt>
<trkpt lat="42.664338" lon="-2.184371">
<ele>909</ele>
<time>2013-05-04T13:51:58.000Z</time>
</trkpt>
<trkpt lat="42.664422" lon="-2.184401">
<ele>911</ele>
<time>2013-05-04T13:51:59.000Z</time>
</trkpt>
<trkpt lat="42.664506" lon="-2.184399">
<ele>912</ele>
<time>2013-05-04T13:52:00.000Z</time>
</trkpt>
<trkpt lat="42.664592" lon="-2.184372">
<ele>915</ele>
<time>2013-05-04T13:52:01.000Z</time>
</trkpt>
<trkpt lat="42.664656" lon="-2.184308">
<ele>916</ele>
<time>2013-05-04T13:52:02.000Z</time>
</trkpt>
<trkpt lat="42.664713" lon="-2.184216">
<ele>918</ele>
<time>2013-05-04T13:52:03.000Z</time>
</trkpt>
<trkpt lat="42.664752" lon="-2.184115">
<ele>921</ele>
<time>2013-05-04T13:52:04.000Z</time>
</trkpt>
<trkpt lat="42.66478" lon="-2.184018">
<ele>922</ele>
<time>2013-05-04T13:52:05.000Z</time>
</trkpt>
<trkpt lat="42.66479" lon="-2.183929">
<ele>923</ele>
<time>2013-05-04T13:52:06.000Z</time>
</trkpt>
<trkpt lat="42.664795" lon="-2.183845">
<ele>925</ele>
<time>2013-05-04T13:52:07.000Z</time>
</trkpt>
<trkpt lat="42.664786" lon="-2.18377">
<ele>928</ele>
<time>2013-05-04T13:52:08.000Z</time>
</trkpt>
<trkpt lat="42.664763" lon="-2.183703">
<ele>931</ele>
<time>2013-05-04T13:52:09.000Z</time>
</trkpt>
<trkpt lat="42.664731" lon="-2.183673">
<ele>933</ele>
<time>2013-05-04T13:52:10.000Z</time>
</trkpt>
<trkpt lat="42.664697" lon="-2.183671">
<ele>934</ele>
<time>2013-05-04T13:52:11.000Z</time>
</trkpt>
<trkpt lat="42.664663" lon="-2.183681">
<ele>937</ele>
<time>2013-05-04T13:52:12.000Z</time>
</trkpt>
<trkpt lat="42.664637" lon="-2.183691">
<ele>940</ele>
<time>2013-05-04T13:52:13.000Z</time>
</trkpt>
<trkpt lat="42.664621" lon="-2.183717">
<ele>943</ele>
<time>2013-05-04T13:52:14.000Z</time>
</trkpt>
<trkpt lat="42.664604" lon="-2.18375">
<ele>945</ele>
<time>2013-05-04T13:52:15.000Z</time>
</trkpt>
<trkpt lat="42.664595" lon="-2.183797">
<ele>946</ele>
<time>2013-05-04T13:52:16.000Z</time>
</trkpt>
<trkpt lat="42.664591" lon="-2.183872">
<ele>948</ele>
<time>2013-05-04T13:52:17.000Z</time>
</trkpt>
<trkpt lat="42.664601" lon="-2.183948">
<ele>951</ele>
<time>2013-05-04T13:52:18.000Z</time>
</trkpt>
<trkpt lat="42.664628" lon="-2.183999">
<ele>951</ele>
<time>2013-05-04T13:52:19.000Z</time>
</trkpt>
<trkpt lat="42.664661" lon="-2.184051">
<ele>952</ele>
<time>2013-05-04T13:52:20.000Z</time>
</trkpt>
<trkpt lat="42.664702" lon="-2.184106">
<ele>953</ele>
<time>2013-05-04T13:52:21.000Z</time>
</trkpt>
<trkpt lat="42.664749" lon="-2.184165">
<ele>955</ele>
<time>2013-05-04T13:52:22.000Z</time>
</trkpt>
<trkpt lat="42.664813" lon="-2.184217">
<ele>958</ele>
<time>2013-05-04T13:52:23.000Z</time>
</trkpt>
<trkpt lat="42.66489" lon="-2.18427">
<ele>960</ele>
<time>2013-05-04T13:52:24.000Z</time>
</trkpt>
<trkpt lat="42.664976" lon="-2.184285">
<ele>962</ele>
<time>2013-05-04T13:52:25.000Z</time>
</trkpt>
<trkpt lat="42.665059" lon="-2.184287">
<ele>963</ele>
<time>2013-05-04T13:52:26.000Z</time>
</trkpt>
<trkpt lat="42.66513" lon="-2.18428">
<ele>965</ele>
<time>2013-05-04T13:52:27.000Z</time>
</trkpt>
<trkpt lat="42.665196" lon="-2.184267">
<ele>966</ele>
<time>2013-05-04T13:52:28.000Z</time>
</trkpt>
<trkpt lat="42.665258" lon="-2.184237">
<ele>967</ele>
<time>2013-05-04T13:52:29.000Z</time>
</trkpt>
<trkpt lat="42.665331" lon="-2.184197">
<ele>969</ele>
<time>2013-05-04T13:52:30.000Z</time>
</trkpt>
<trkpt lat="42.665423" lon="-2.184147">
<ele>972</ele>
<time>2013-05-04T13:52:31.000Z</time>
</trkpt>
<trkpt lat="42.665527" lon="-2.184093">
<ele>974</ele>
<time>2013-05-04T13:52:32.000Z</time>
</trkpt>
<trkpt lat="42.665631" lon="-2.184033">
<ele>977</ele>
<time>2013-05-04T13:52:33.000Z</time>
</trkpt>
<trkpt lat="42.665722" lon="-2.183973">
<ele>981</ele>
<time>2013-05-04T13:52:34.000Z</time>
</trkpt>
<trkpt lat="42.66579" lon="-2.183902">
<ele>984</ele>
<time>2013-05-04T13:52:35.000Z</time>
</trkpt>
<trkpt lat="42.665855" lon="-2.183831">
<ele>987</ele>
<time>2013-05-04T13:52:36.000Z</time>
</trkpt>
<trkpt lat="42.665918" lon="-2.183756">
<ele>988</ele>
<time>2013-05-04T13:52:37.000Z</time>
</trkpt>
<trkpt lat="42.66598" lon="-2.183675">
<ele>989</ele>
<time>2013-05-04T13:52:38.000Z</time>
</trkpt>
<trkpt lat="42.666028" lon="-2.183578">
<ele>991</ele>
<time>2013-05-04T13:52:39.000Z</time>
</trkpt>
<trkpt lat="42.66607" lon="-2.183478">
<ele>992</ele>
<time>2013-05-04T13:52:40.000Z</time>
</trkpt>
<trkpt lat="42.666085" lon="-2.183375">
<ele>994</ele>
<time>2013-05-04T13:52:41.000Z</time>
</trkpt>
<trkpt lat="42.666092" lon="-2.183295">
<ele>997</ele>
<time>2013-05-04T13:52:42.000Z</time>
</trkpt>
<trkpt lat="42.666099" lon="-2.183214">
<ele>998</ele>
<time>2013-05-04T13:52:43.000Z</time>
</trkpt>
<trkpt lat="42.666102" lon="-2.183126">
<ele>999</ele>
<time>2013-05-04T13:52:44.000Z</time>
</trkpt>
<trkpt lat="42.666085" lon="-2.183032">
<ele>1000</ele>
<time>2013-05-04T13:52:45.000Z</time>
</trkpt>
<trkpt lat="42.666047" lon="-2.182945">
<ele>1002</ele>
<time>2013-05-04T13:52:46.000Z</time>
</trkpt>
<trkpt lat="42.666" lon="-2.182891">
<ele>1002</ele>
<time>2013-05-04T13:52:47.000Z</time>
</trkpt>
<trkpt lat="42.665946" lon="-2.182858">
<ele>1000</ele>
<time>2013-05-04T13:52:48.000Z</time>
</trkpt>
<trkpt lat="42.66589" lon="-2.182852">
<ele>1000</ele>
<time>2013-05-04T13:52:49.000Z</time>
</trkpt>
<trkpt lat="42.665832" lon="-2.182869">
<ele>1000</ele>
<time>2013-05-04T13:52:50.000Z</time>
</trkpt>
<trkpt lat="42.665777" lon="-2.182904">
<ele>1000</ele>
<time>2013-05-04T13:52:51.000Z</time>
</trkpt>
<trkpt lat="42.665726" lon="-2.182944">
<ele>1001</ele>
<time>2013-05-04T13:52:52.000Z</time>
</trkpt>
<trkpt lat="42.665681" lon="-2.182986">
<ele>1003</ele>
<time>2013-05-04T13:52:53.000Z</time>
</trkpt>
<trkpt lat="42.665644" lon="-2.183039">
<ele>1004</ele>
<time>2013-05-04T13:52:54.000Z</time>
</trkpt>
<trkpt lat="42.665611" lon="-2.18309">
<ele>1006</ele>
<time>2013-05-04T13:52:55.000Z</time>
</trkpt>
<trkpt lat="42.665578" lon="-2.183141">
<ele>1008</ele>
<time>2013-05-04T13:52:56.000Z</time>
</trkpt>
<trkpt lat="42.665545" lon="-2.183191">
<ele>1009</ele>
<time>2013-05-04T13:52:57.000Z</time>
</trkpt>
<trkpt lat="42.66551" lon="-2.18324">
<ele>1010</ele>
<time>2013-05-04T13:52:58.000Z</time>
</trkpt>
<trkpt lat="42.665477" lon="-2.18329">
<ele>1012</ele>
<time>2013-05-04T13:52:59.000Z</time>
</trkpt>
<trkpt lat="42.665453" lon="-2.183348">
<ele>1013</ele>
<time>2013-05-04T13:53:00.000Z</time>
</trkpt>
<trkpt lat="42.665433" lon="-2.183409">
<ele>1014</ele>
<time>2013-05-04T13:53:01.000Z</time>
</trkpt>
<trkpt lat="42.665416" lon="-2.183471">
<ele>1014</ele>
<time>2013-05-04T13:53:02.000Z</time>
</trkpt>
<trkpt lat="42.665402" lon="-2.183535">
<ele>1015</ele>
<time>2013-05-04T13:53:03.000Z</time>
</trkpt>
<trkpt lat="42.6654" lon="-2.183609">
<ele>1016</ele>
<time>2013-05-04T13:53:04.000Z</time>
</trkpt>
<trkpt lat="42.665411" lon="-2.183688">
<ele>1016</ele>
<time>2013-05-04T13:53:05.000Z</time>
</trkpt>
<trkpt lat="42.665438" lon="-2.183775">
<ele>1018</ele>
<time>2013-05-04T13:53:06.000Z</time>
</trkpt>
<trkpt lat="42.665475" lon="-2.183844">
<ele>1019</ele>
<time>2013-05-04T13:53:07.000Z</time>
</trkpt>
<trkpt lat="42.665515" lon="-2.183911">
<ele>1020</ele>
<time>2013-05-04T13:53:08.000Z</time>
</trkpt>
<trkpt lat="42.665562" lon="-2.183979">
<ele>1021</ele>
<time>2013-05-04T13:53:09.000Z</time>
</trkpt>
<trkpt lat="42.665616" lon="-2.184049">
<ele>1023</ele>
<time>2013-05-04T13:53:10.000Z</time>
</trkpt>
<trkpt lat="42.665685" lon="-2.18411">
<ele>1025</ele>
<time>2013-05-04T13:53:11.000Z</time>
</trkpt>
<trkpt lat="42.665763" lon="-2.184168">
<ele>1026</ele>
<time>2013-05-04T13:53:12.000Z</time>
</trkpt>
<trkpt lat="42.665851" lon="-2.184202">
<ele>1027</ele>
<time>2013-05-04T13:53:13.000Z</time>
</trkpt>
<trkpt lat="42.665935" lon="-2.184221">
<ele>1029</ele>
<time>2013-05-04T13:53:14.000Z</time>
</trkpt>
<trkpt lat="42.66601" lon="-2.184208">
<ele>1031</ele>
<time>2013-05-04T13:53:15.000Z</time>
</trkpt>
<trkpt lat="42.666076" lon="-2.184189">
<ele>1033</ele>
<time>2013-05-04T13:53:16.000Z</time>
</trkpt>
<trkpt lat="42.666152" lon="-2.184161">
<ele>1036</ele>
<time>2013-05-04T13:53:17.000Z</time>
</trkpt>
<trkpt lat="42.666235" lon="-2.184127">
<ele>1038</ele>
<time>2013-05-04T13:53:18.000Z</time>
</trkpt>
<trkpt lat="42.666332" lon="-2.184086">
<ele>1041</ele>
<time>2013-05-04T13:53:19.000Z</time>
</trkpt>
<trkpt lat="42.666433" lon="-2.184035">
<ele>1044</ele>
<time>2013-05-04T13:53:20.000Z</time>
</trkpt>
<trkpt lat="42.666522" lon="-2.183951">
<ele>1047</ele>
<time>2013-05-04T13:53:21.000Z</time>
</trkpt>
<trkpt lat="42.666603" lon="-2.183863">
<ele>1051</ele>
<time>2013-05-04T13:53:22.000Z</time>
</trkpt>
<trkpt lat="42.666655" lon="-2.183764">
<ele>1055</ele>
<time>2013-05-04T13:53:23.000Z</time>
</trkpt>
<trkpt lat="42.666697" lon="-2.183668">
<ele>1057</ele>
<time>2013-05-04T13:53:24.000Z</time>
</trkpt>
<trkpt lat="42.666727" lon="-2.183585">
<ele>1060</ele>
<time>2013-05-04T13:53:25.000Z</time>
</trkpt>
<trkpt lat="42.666742" lon="-2.183493">
<ele>1065</ele>
<time>2013-05-04T13:53:26.000Z</time>
</trkpt>
<trkpt lat="42.666755" lon="-2.183392">
<ele>1066</ele>
<time>2013-05-04T13:53:27.000Z</time>
</trkpt>
<trkpt lat="42.666751" lon="-2.183291">
<ele>1068</ele>
<time>2013-05-04T13:53:28.000Z</time>
</trkpt>
<trkpt lat="42.666731" lon="-2.183205">
<ele>1069</ele>
<time>2013-05-04T13:53:29.000Z</time>
</trkpt>
<trkpt lat="42.666694" lon="-2.183141">
<ele>1068</ele>
<time>2013-05-04T13:53:30.000Z</time>
</trkpt>
<trkpt lat="42.666646" lon="-2.183098">
<ele>1068</ele>
<time>2013-05-04T13:53:31.000Z</time>
</trkpt>
<trkpt lat="42.666593" lon="-2.183073">
<ele>1066</ele>
<time>2013-05-04T13:53:32.000Z</time>
</trkpt>
<trkpt lat="42.666536" lon="-2.183072">
<ele>1065</ele>
<time>2013-05-04T13:53:33.000Z</time>
</trkpt>
<trkpt lat="42.666489" lon="-2.183098">
<ele>1065</ele>
<time>2013-05-04T13:53:34.000Z</time>
</trkpt>
<trkpt lat="42.666451" lon="-2.183152">
<ele>1067</ele>
<time>2013-05-04T13:53:35.000Z</time>
</trkpt>
<trkpt lat="42.666425" lon="-2.183219">
<ele>1068</ele>
<time>2013-05-04T13:53:36.000Z</time>
</trkpt>
<trkpt lat="42.666403" lon="-2.18329">
<ele>1069</ele>
<time>2013-05-04T13:53:37.000Z</time>
</trkpt>
<trkpt lat="42.666387" lon="-2.183366">
<ele>1070</ele>
<time>2013-05-04T13:53:38.000Z</time>
</trkpt>
<trkpt lat="42.666391" lon="-2.183444">
<ele>1070</ele>
<time>2013-05-04T13:53:39.000Z</time>
</trkpt>
<trkpt lat="42.666402" lon="-2.183532">
<ele>1070</ele>
<time>2013-05-04T13:53:40.000Z</time>
</trkpt>
<trkpt lat="42.666431" lon="-2.183608">
<ele>1069</ele>
<time>2013-05-04T13:53:41.000Z</time>
</trkpt>
<trkpt lat="42.666459" lon="-2.183682">
<ele>1070</ele>
<time>2013-05-04T13:53:42.000Z</time>
</trkpt>
<trkpt lat="42.666487" lon="-2.183752">
<ele>1072</ele>
<time>2013-05-04T13:53:43.000Z</time>
</trkpt>
<trkpt lat="42.666517" lon="-2.183829">
<ele>1075</ele>
<time>2013-05-04T13:53:44.000Z</time>
</trkpt>
<trkpt lat="42.666549" lon="-2.183907">
<ele>1077</ele>
<time>2013-05-04T13:53:45.000Z</time>
</trkpt>
<trkpt lat="42.666589" lon="-2.183996">
<ele>1080</ele>
<time>2013-05-04T13:53:46.000Z</time>
</trkpt>
<trkpt lat="42.666633" lon="-2.18409">
<ele>1083</ele>
<time>2013-05-04T13:53:47.000Z</time>
</trkpt>
<trkpt lat="42.666693" lon="-2.18416">
<ele>1086</ele>
<time>2013-05-04T13:53:48.000Z</time>
</trkpt>
<trkpt lat="42.666748" lon="-2.184219">
<ele>1088</ele>
<time>2013-05-04T13:53:49.000Z</time>
</trkpt>
<trkpt lat="42.666804" lon="-2.184282">
<ele>1089</ele>
<time>2013-05-04T13:53:50.000Z</time>
</trkpt>
<trkpt lat="42.666854" lon="-2.184349">
<ele>1091</ele>
<time>2013-05-04T13:53:51.000Z</time>
</trkpt>
<trkpt lat="42.666885" lon="-2.184436">
<ele>1093</ele>
<time>2013-05-04T13:53:52.000Z</time>
</trkpt>
<trkpt lat="42.666898" lon="-2.184523">
<ele>1095</ele>
<time>2013-05-04T13:53:53.000Z</time>
</trkpt>
<trkpt lat="42.666905" lon="-2.184603">
<ele>1097</ele>
<time>2013-05-04T13:53:54.000Z</time>
</trkpt>
<trkpt lat="42.666907" lon="-2.184673">
<ele>1099</ele>
<time>2013-05-04T13:53:55.000Z</time>
</trkpt>
<trkpt lat="42.666892" lon="-2.184763">
<ele>1100</ele>
<time>2013-05-04T13:53:56.000Z</time>
</trkpt>
<trkpt lat="42.666873" lon="-2.184852">
<ele>1101</ele>
<time>2013-05-04T13:53:57.000Z</time>
</trkpt>
<trkpt lat="42.66683" lon="-2.184911">
<ele>1102</ele>
<time>2013-05-04T13:53:58.000Z</time>
</trkpt>
<trkpt lat="42.666788" lon="-2.184917">
<ele>1106</ele>
<time>2013-05-04T13:53:59.000Z</time>
</trkpt>
<trkpt lat="42.666755" lon="-2.184888">
<ele>1107</ele>
<time>2013-05-04T13:54:00.000Z</time>
</trkpt>
<trkpt lat="42.666726" lon="-2.184831">
<ele>1112</ele>
<time>2013-05-04T13:54:01.000Z</time>
</trkpt>
<trkpt lat="42.666719" lon="-2.184756">
<ele>1116</ele>
<time>2013-05-04T13:54:02.000Z</time>
</trkpt>
<trkpt lat="42.666729" lon="-2.184676">
<ele>1117</ele>
<time>2013-05-04T13:54:03.000Z</time>
</trkpt>
<trkpt lat="42.666746" lon="-2.184577">
<ele>1118</ele>
<time>2013-05-04T13:54:04.000Z</time>
</trkpt>
<trkpt lat="42.666771" lon="-2.184459">
<ele>1119</ele>
<time>2013-05-04T13:54:05.000Z</time>
</trkpt>
<trkpt lat="42.666809" lon="-2.184318">
<ele>1119</ele>
<time>2013-05-04T13:54:06.000Z</time>
</trkpt>
<trkpt lat="42.666881" lon="-2.184175">
<ele>1118</ele>
<time>2013-05-04T13:54:07.000Z</time>
</trkpt>
<trkpt lat="42.666967" lon="-2.18407">
<ele>1119</ele>
<time>2013-05-04T13:54:08.000Z</time>
</trkpt>
<trkpt lat="42.667046" lon="-2.18399">
<ele>1121</ele>
<time>2013-05-04T13:54:09.000Z</time>
</trkpt>
<trkpt lat="42.667116" lon="-2.183951">
<ele>1123</ele>
<time>2013-05-04T13:54:10.000Z</time>
</trkpt>
<trkpt lat="42.667182" lon="-2.183914">
<ele>1125</ele>
<time>2013-05-04T13:54:11.000Z</time>
</trkpt>
<trkpt lat="42.667258" lon="-2.183878">
<ele>1127</ele>
<time>2013-05-04T13:54:12.000Z</time>
</trkpt>
<trkpt lat="42.667335" lon="-2.183848">
<ele>1128</ele>
<time>2013-05-04T13:54:13.000Z</time>
</trkpt>
<trkpt lat="42.667415" lon="-2.183823">
<ele>1131</ele>
<time>2013-05-04T13:54:14.000Z</time>
</trkpt>
<trkpt lat="42.6675" lon="-2.183803">
<ele>1132</ele>
<time>2013-05-04T13:54:15.000Z</time>
</trkpt>
<trkpt lat="42.667583" lon="-2.18379">
<ele>1134</ele>
<time>2013-05-04T13:54:16.000Z</time>
</trkpt>
<trkpt lat="42.667663" lon="-2.183781">
<ele>1135</ele>
<time>2013-05-04T13:54:17.000Z</time>
</trkpt>
<trkpt lat="42.667744" lon="-2.183777">
<ele>1136</ele>
<time>2013-05-04T13:54:18.000Z</time>
</trkpt>
<trkpt lat="42.667826" lon="-2.183775">
<ele>1136</ele>
<time>2013-05-04T13:54:19.000Z</time>
</trkpt>
<trkpt lat="42.667905" lon="-2.183807">
<ele>1136</ele>
<time>2013-05-04T13:54:20.000Z</time>
</trkpt>
<trkpt lat="42.667992" lon="-2.183849">
<ele>1138</ele>
<time>2013-05-04T13:54:21.000Z</time>
</trkpt>
<trkpt lat="42.668066" lon="-2.18391">
<ele>1141</ele>
<time>2013-05-04T13:54:22.000Z</time>
</trkpt>
<trkpt lat="42.668118" lon="-2.183962">
<ele>1144</ele>
<time>2013-05-04T13:54:23.000Z</time>
</trkpt>
<trkpt lat="42.668147" lon="-2.184019">
<ele>1146</ele>
<time>2013-05-04T13:54:24.000Z</time>
</trkpt>
<trkpt lat="42.668159" lon="-2.184083">
<ele>1148</ele>
<time>2013-05-04T13:54:25.000Z</time>
</trkpt>
<trkpt lat="42.668156" lon="-2.184149">
<ele>1149</ele>
<time>2013-05-04T13:54:26.000Z</time>
</trkpt>
<trkpt lat="42.668143" lon="-2.184216">
<ele>1151</ele>
<time>2013-05-04T13:54:27.000Z</time>
</trkpt>
<trkpt lat="42.66812" lon="-2.184278">
<ele>1152</ele>
<time>2013-05-04T13:54:28.000Z</time>
</trkpt>
<trkpt lat="42.668095" lon="-2.184334">
<ele>1153</ele>
<time>2013-05-04T13:54:29.000Z</time>
</trkpt>
<trkpt lat="42.668063" lon="-2.184378">
<ele>1156</ele>
<time>2013-05-04T13:54:30.000Z</time>
</trkpt>
<trkpt lat="42.668032" lon="-2.184412">
<ele>1158</ele>
<time>2013-05-04T13:54:31.000Z</time>
</trkpt>
<trkpt lat="42.668002" lon="-2.184446">
<ele>1159</ele>
<time>2013-05-04T13:54:32.000Z</time>
</trkpt>
<trkpt lat="42.667971" lon="-2.18448">
<ele>1160</ele>
<time>2013-05-04T13:54:33.000Z</time>
</trkpt>
<trkpt lat="42.667938" lon="-2.184511">
<ele>1161</ele>
<time>2013-05-04T13:54:34.000Z</time>
</trkpt>
<trkpt lat="42.667898" lon="-2.184534">
<ele>1163</ele>
<time>2013-05-04T13:54:35.000Z</time>
</trkpt>
<trkpt lat="42.667857" lon="-2.184553">
<ele>1165</ele>
<time>2013-05-04T13:54:36.000Z</time>
</trkpt>
<trkpt lat="42.667815" lon="-2.184551">
<ele>1167</ele>
<time>2013-05-04T13:54:37.000Z</time>
</trkpt>
<trkpt lat="42.667775" lon="-2.184537">
<ele>1167</ele>
<time>2013-05-04T13:54:38.000Z</time>
</trkpt>
<trkpt lat="42.66774" lon="-2.184505">
<ele>1167</ele>
<time>2013-05-04T13:54:39.000Z</time>
</trkpt>
<trkpt lat="42.667703" lon="-2.184449">
<ele>1168</ele>
<time>2013-05-04T13:54:40.000Z</time>
</trkpt>
<trkpt lat="42.667666" lon="-2.184382">
<ele>1169</ele>
<time>2013-05-04T13:54:41.000Z</time>
</trkpt>
<trkpt lat="42.667628" lon="-2.184306">
<ele>1170</ele>
<time>2013-05-04T13:54:42.000Z</time>
</trkpt>
<trkpt lat="42.667594" lon="-2.184236">
<ele>1171</ele>
<time>2013-05-04T13:54:43.000Z</time>
</trkpt>
<trkpt lat="42.667561" lon="-2.184164">
<ele>1172</ele>
<time>2013-05-04T13:54:44.000Z</time>
</trkpt>
<trkpt lat="42.667533" lon="-2.18409">
<ele>1171</ele>
<time>2013-05-04T13:54:45.000Z</time>
</trkpt>
<trkpt lat="42.667519" lon="-2.183992">
<ele>1171</ele>
<time>2013-05-04T13:54:46.000Z</time>
</trkpt>
<trkpt lat="42.667506" lon="-2.183878">
<ele>1172</ele>
<time>2013-05-04T13:54:47.000Z</time>
</trkpt>
<trkpt lat="42.667516" lon="-2.183769">
<ele>1172</ele>
<time>2013-05-04T13:54:48.000Z</time>
</trkpt>
<trkpt lat="42.667532" lon="-2.183649">
<ele>1172</ele>
<time>2013-05-04T13:54:49.000Z</time>
</trkpt>
<trkpt lat="42.667576" lon="-2.183519">
<ele>1173</ele>
<time>2013-05-04T13:54:50.000Z</time>
</trkpt>
<trkpt lat="42.667628" lon="-2.183388">
<ele>1171</ele>
<time>2013-05-04T13:54:51.000Z</time>
</trkpt>
<trkpt lat="42.667706" lon="-2.183284">
<ele>1171</ele>
<time>2013-05-04T13:54:52.000Z</time>
</trkpt>
<trkpt lat="42.667797" lon="-2.183213">
<ele>1170</ele>
<time>2013-05-04T13:54:53.000Z</time>
</trkpt>
<trkpt lat="42.667888" lon="-2.183155">
<ele>1169</ele>
<time>2013-05-04T13:54:54.000Z</time>
</trkpt>
<trkpt lat="42.667981" lon="-2.183149">
<ele>1169</ele>
<time>2013-05-04T13:54:55.000Z</time>
</trkpt>
<trkpt lat="42.668064" lon="-2.18315">
<ele>1169</ele>
<time>2013-05-04T13:54:56.000Z</time>
</trkpt>
<trkpt lat="42.668139" lon="-2.183187">
<ele>1171</ele>
<time>2013-05-04T13:54:57.000Z</time>
</trkpt>
<trkpt lat="42.668207" lon="-2.183224">
<ele>1172</ele>
<time>2013-05-04T13:54:58.000Z</time>
</trkpt>
<trkpt lat="42.668274" lon="-2.183269">
<ele>1174</ele>
<time>2013-05-04T13:54:59.000Z</time>
</trkpt>
<trkpt lat="42.66832" lon="-2.183329">
<ele>1175</ele>
<time>2013-05-04T13:55:00.000Z</time>
</trkpt>
<trkpt lat="42.668368" lon="-2.183392">
<ele>1176</ele>
<time>2013-05-04T13:55:01.000Z</time>
</trkpt>
<trkpt lat="42.668418" lon="-2.183459">
<ele>1177</ele>
<time>2013-05-04T13:55:02.000Z</time>
</trkpt>
<trkpt lat="42.668472" lon="-2.183526">
<ele>1180</ele>
<time>2013-05-04T13:55:03.000Z</time>
</trkpt>
<trkpt lat="42.668533" lon="-2.183565">
<ele>1181</ele>
<time>2013-05-04T13:55:04.000Z</time>
</trkpt>
<trkpt lat="42.668605" lon="-2.183583">
<ele>1182</ele>
<time>2013-05-04T13:55:05.000Z</time>
</trkpt>
<trkpt lat="42.668683" lon="-2.183572">
<ele>1183</ele>
<time>2013-05-04T13:55:06.000Z</time>
</trkpt>
<trkpt lat="42.668759" lon="-2.183524">
<ele>1184</ele>
<time>2013-05-04T13:55:07.000Z</time>
</trkpt>
<trkpt lat="42.668835" lon="-2.183462">
<ele>1185</ele>
<time>2013-05-04T13:55:08.000Z</time>
</trkpt>
<trkpt lat="42.668884" lon="-2.183371">
<ele>1186</ele>
<time>2013-05-04T13:55:09.000Z</time>
</trkpt>
<trkpt lat="42.668931" lon="-2.183267">
<ele>1187</ele>
<time>2013-05-04T13:55:10.000Z</time>
</trkpt>
<trkpt lat="42.668958" lon="-2.183145">
<ele>1187</ele>
<time>2013-05-04T13:55:11.000Z</time>
</trkpt>
<trkpt lat="42.668977" lon="-2.183011">
<ele>1188</ele>
<time>2013-05-04T13:55:12.000Z</time>
</trkpt>
<trkpt lat="42.668955" lon="-2.182885">
<ele>1188</ele>
<time>2013-05-04T13:55:13.000Z</time>
</trkpt>
<trkpt lat="42.668906" lon="-2.18279">
<ele>1187</ele>
<time>2013-05-04T13:55:14.000Z</time>
</trkpt>
<trkpt lat="42.668835" lon="-2.182718">
<ele>1187</ele>
<time>2013-05-04T13:55:15.000Z</time>
</trkpt>
<trkpt lat="42.668761" lon="-2.182682">
<ele>1188</ele>
<time>2013-05-04T13:55:16.000Z</time>
</trkpt>
<trkpt lat="42.668716" lon="-2.182674">
<ele>1190</ele>
<time>2013-05-04T13:55:17.000Z</time>
</trkpt>
<trkpt lat="42.668683" lon="-2.182674">
<ele>1190</ele>
<time>2013-05-04T13:55:18.000Z</time>
</trkpt>
<trkpt lat="42.668642" lon="-2.182664">
<ele>1190</ele>
<time>2013-05-04T13:55:19.000Z</time>
</trkpt>
<trkpt lat="42.668595" lon="-2.18265">
<ele>1190</ele>
<time>2013-05-04T13:55:20.000Z</time>
</trkpt>
<trkpt lat="42.668537" lon="-2.182633">
<ele>1191</ele>
<time>2013-05-04T13:55:21.000Z</time>
</trkpt>
<trkpt lat="42.668469" lon="-2.182634">
<ele>1191</ele>
<time>2013-05-04T13:55:22.000Z</time>
</trkpt>
<trkpt lat="42.668405" lon="-2.18264">
<ele>1192</ele>
<time>2013-05-04T13:55:23.000Z</time>
</trkpt>
<trkpt lat="42.668349" lon="-2.182645">
<ele>1194</ele>
<time>2013-05-04T13:55:24.000Z</time>
</trkpt>
<trkpt lat="42.668311" lon="-2.182645">
<ele>1196</ele>
<time>2013-05-04T13:55:25.000Z</time>
</trkpt>
<trkpt lat="42.668284" lon="-2.182631">
<ele>1198</ele>
<time>2013-05-04T13:55:26.000Z</time>
</trkpt>
<trkpt lat="42.668247" lon="-2.182615">
<ele>1198</ele>
<time>2013-05-04T13:55:27.000Z</time>
</trkpt>
<trkpt lat="42.668205" lon="-2.182598">
<ele>1198</ele>
<time>2013-05-04T13:55:28.000Z</time>
</trkpt>
<trkpt lat="42.668158" lon="-2.18259">
<ele>1197</ele>
<time>2013-05-04T13:55:29.000Z</time>
</trkpt>
<trkpt lat="42.668115" lon="-2.18261">
<ele>1195</ele>
<time>2013-05-04T13:55:30.000Z</time>
</trkpt>
<trkpt lat="42.668086" lon="-2.182655">
<ele>1194</ele>
<time>2013-05-04T13:55:31.000Z</time>
</trkpt>
<trkpt lat="42.66808" lon="-2.182726">
<ele>1194</ele>
<time>2013-05-04T13:55:32.000Z</time>
</trkpt>
<trkpt lat="42.668102" lon="-2.182807">
<ele>1193</ele>
<time>2013-05-04T13:55:33.000Z</time>
</trkpt>
<trkpt lat="42.66815" lon="-2.182881">
<ele>1193</ele>
<time>2013-05-04T13:55:34.000Z</time>
</trkpt>
<trkpt lat="42.668204" lon="-2.182951">
<ele>1192</ele>
<time>2013-05-04T13:55:35.000Z</time>
</trkpt>
<trkpt lat="42.668259" lon="-2.183013">
<ele>1192</ele>
<time>2013-05-04T13:55:36.000Z</time>
</trkpt>
<trkpt lat="42.668316" lon="-2.183074">
<ele>1192</ele>
<time>2013-05-04T13:55:37.000Z</time>
</trkpt>
<trkpt lat="42.668375" lon="-2.18314">
<ele>1192</ele>
<time>2013-05-04T13:55:38.000Z</time>
</trkpt>
<trkpt lat="42.668437" lon="-2.183207">
<ele>1192</ele>
<time>2013-05-04T13:55:39.000Z</time>
</trkpt>
<trkpt lat="42.668493" lon="-2.183257">
<ele>1192</ele>
<time>2013-05-04T13:55:40.000Z</time>
</trkpt>
<trkpt lat="42.668555" lon="-2.183302">
<ele>1191</ele>
<time>2013-05-04T13:55:41.000Z</time>
</trkpt>
<trkpt lat="42.668624" lon="-2.183351">
<ele>1191</ele>
<time>2013-05-04T13:55:42.000Z</time>
</trkpt>
<trkpt lat="42.668685" lon="-2.183399">
<ele>1191</ele>
<time>2013-05-04T13:55:43.000Z</time>
</trkpt>
<trkpt lat="42.668743" lon="-2.183448">
<ele>1190</ele>
<time>2013-05-04T13:55:44.000Z</time>
</trkpt>
<trkpt lat="42.668802" lon="-2.183491">
<ele>1189</ele>
<time>2013-05-04T13:55:45.000Z</time>
</trkpt>
<trkpt lat="42.668884" lon="-2.183521">
<ele>1189</ele>
<time>2013-05-04T13:55:46.000Z</time>
</trkpt>
<trkpt lat="42.668978" lon="-2.183545">
<ele>1188</ele>
<time>2013-05-04T13:55:47.000Z</time>
</trkpt>
<trkpt lat="42.669084" lon="-2.183539">
<ele>1188</ele>
<time>2013-05-04T13:55:48.000Z</time>
</trkpt>
<trkpt lat="42.669179" lon="-2.183528">
<ele>1189</ele>
<time>2013-05-04T13:55:49.000Z</time>
</trkpt>
<trkpt lat="42.669269" lon="-2.183513">
<ele>1188</ele>
<time>2013-05-04T13:55:50.000Z</time>
</trkpt>
<trkpt lat="42.669356" lon="-2.183494">
<ele>1189</ele>
<time>2013-05-04T13:55:51.000Z</time>
</trkpt>
<trkpt lat="42.66944" lon="-2.183474">
<ele>1190</ele>
<time>2013-05-04T13:55:52.000Z</time>
</trkpt>
<trkpt lat="42.669525" lon="-2.183452">
<ele>1191</ele>
<time>2013-05-04T13:55:53.000Z</time>
</trkpt>
<trkpt lat="42.669609" lon="-2.183426">
<ele>1193</ele>
<time>2013-05-04T13:55:54.000Z</time>
</trkpt>
<trkpt lat="42.669685" lon="-2.183397">
<ele>1195</ele>
<time>2013-05-04T13:55:55.000Z</time>
</trkpt>
<trkpt lat="42.669764" lon="-2.183368">
<ele>1197</ele>
<time>2013-05-04T13:55:56.000Z</time>
</trkpt>
<trkpt lat="42.669849" lon="-2.183339">
<ele>1198</ele>
<time>2013-05-04T13:55:57.000Z</time>
</trkpt>
<trkpt lat="42.66994" lon="-2.183307">
<ele>1199</ele>
<time>2013-05-04T13:55:58.000Z</time>
</trkpt>
<trkpt lat="42.670027" lon="-2.183274">
<ele>1199</ele>
<time>2013-05-04T13:55:59.000Z</time>
</trkpt>
<trkpt lat="42.67011" lon="-2.183232">
<ele>1200</ele>
<time>2013-05-04T13:56:00.000Z</time>
</trkpt>
<trkpt lat="42.670183" lon="-2.183168">
<ele>1201</ele>
<time>2013-05-04T13:56:01.000Z</time>
</trkpt>
<trkpt lat="42.670251" lon="-2.183095">
<ele>1200</ele>
<time>2013-05-04T13:56:02.000Z</time>
</trkpt>
<trkpt lat="42.670322" lon="-2.183011">
<ele>1200</ele>
<time>2013-05-04T13:56:03.000Z</time>
</trkpt>
<trkpt lat="42.670398" lon="-2.182912">
<ele>1200</ele>
<time>2013-05-04T13:56:04.000Z</time>
</trkpt>
<trkpt lat="42.670456" lon="-2.18279">
<ele>1201</ele>
<time>2013-05-04T13:56:05.000Z</time>
</trkpt>
<trkpt lat="42.67051" lon="-2.182668">
<ele>1202</ele>
<time>2013-05-04T13:56:06.000Z</time>
</trkpt>
<trkpt lat="42.670557" lon="-2.182552">
<ele>1203</ele>
<time>2013-05-04T13:56:07.000Z</time>
</trkpt>
<trkpt lat="42.670595" lon="-2.182439">
<ele>1203</ele>
<time>2013-05-04T13:56:08.000Z</time>
</trkpt>
<trkpt lat="42.670611" lon="-2.182333">
<ele>1205</ele>
<time>2013-05-04T13:56:09.000Z</time>
</trkpt>
<trkpt lat="42.670624" lon="-2.182224">
<ele>1206</ele>
<time>2013-05-04T13:56:10.000Z</time>
</trkpt>
<trkpt lat="42.670603" lon="-2.182105">
<ele>1207</ele>
<time>2013-05-04T13:56:11.000Z</time>
</trkpt>
<trkpt lat="42.670558" lon="-2.181997">
<ele>1207</ele>
<time>2013-05-04T13:56:12.000Z</time>
</trkpt>
<trkpt lat="42.670498" lon="-2.181919">
<ele>1208</ele>
<time>2013-05-04T13:56:13.000Z</time>
</trkpt>
<trkpt lat="42.670439" lon="-2.18186">
<ele>1207</ele>
<time>2013-05-04T13:56:14.000Z</time>
</trkpt>
<trkpt lat="42.670379" lon="-2.181813">
<ele>1206</ele>
<time>2013-05-04T13:56:15.000Z</time>
</trkpt>
<trkpt lat="42.670313" lon="-2.181781">
<ele>1203</ele>
<time>2013-05-04T13:56:16.000Z</time>
</trkpt>
<trkpt lat="42.670241" lon="-2.181754">
<ele>1201</ele>
<time>2013-05-04T13:56:17.000Z</time>
</trkpt>
<trkpt lat="42.670164" lon="-2.181751">
<ele>1200</ele>
<time>2013-05-04T13:56:18.000Z</time>
</trkpt>
<trkpt lat="42.670091" lon="-2.181774">
<ele>1199</ele>
<time>2013-05-04T13:56:19.000Z</time>
</trkpt>
<trkpt lat="42.67003" lon="-2.181825">
<ele>1201</ele>
<time>2013-05-04T13:56:20.000Z</time>
</trkpt>
<trkpt lat="42.669971" lon="-2.181881">
<ele>1201</ele>
<time>2013-05-04T13:56:21.000Z</time>
</trkpt>
<trkpt lat="42.669919" lon="-2.181933">
<ele>1201</ele>
<time>2013-05-04T13:56:22.000Z</time>
</trkpt>
<trkpt lat="42.669884" lon="-2.181996">
<ele>1200</ele>
<time>2013-05-04T13:56:23.000Z</time>
</trkpt>
<trkpt lat="42.669867" lon="-2.18207">
<ele>1199</ele>
<time>2013-05-04T13:56:24.000Z</time>
</trkpt>
<trkpt lat="42.669868" lon="-2.182156">
<ele>1198</ele>
<time>2013-05-04T13:56:25.000Z</time>
</trkpt>
<trkpt lat="42.669888" lon="-2.182238">
<ele>1196</ele>
<time>2013-05-04T13:56:26.000Z</time>
</trkpt>
<trkpt lat="42.669915" lon="-2.182333">
<ele>1196</ele>
<time>2013-05-04T13:56:27.000Z</time>
</trkpt>
<trkpt lat="42.669955" lon="-2.182403">
<ele>1196</ele>
<time>2013-05-04T13:56:28.000Z</time>
</trkpt>
<trkpt lat="42.669997" lon="-2.182477">
<ele>1198</ele>
<time>2013-05-04T13:56:29.000Z</time>
</trkpt>
<trkpt lat="42.670038" lon="-2.182552">
<ele>1199</ele>
<time>2013-05-04T13:56:30.000Z</time>
</trkpt>
<trkpt lat="42.670077" lon="-2.182617">
<ele>1199</ele>
<time>2013-05-04T13:56:31.000Z</time>
</trkpt>
<trkpt lat="42.67012" lon="-2.182678">
<ele>1199</ele>
<time>2013-05-04T13:56:32.000Z</time>
</trkpt>
<trkpt lat="42.670171" lon="-2.182744">
<ele>1199</ele>
<time>2013-05-04T13:56:33.000Z</time>
</trkpt>
<trkpt lat="42.670237" lon="-2.182821">
<ele>1197</ele>
<time>2013-05-04T13:56:34.000Z</time>
</trkpt>
<trkpt lat="42.670316" lon="-2.18291">
<ele>1196</ele>
<time>2013-05-04T13:56:35.000Z</time>
</trkpt>
<trkpt lat="42.670401" lon="-2.183">
<ele>1195</ele>
<time>2013-05-04T13:56:36.000Z</time>
</trkpt>
<trkpt lat="42.670479" lon="-2.183081">
<ele>1196</ele>
<time>2013-05-04T13:56:37.000Z</time>
</trkpt>
<trkpt lat="42.67055" lon="-2.18315">
<ele>1198</ele>
<time>2013-05-04T13:56:38.000Z</time>
</trkpt>
<trkpt lat="42.670608" lon="-2.183207">
<ele>1200</ele>
<time>2013-05-04T13:56:39.000Z</time>
</trkpt>
<trkpt lat="42.670664" lon="-2.183256">
<ele>1202</ele>
<time>2013-05-04T13:56:40.000Z</time>
</trkpt>
<trkpt lat="42.670724" lon="-2.183307">
<ele>1203</ele>
<time>2013-05-04T13:56:41.000Z</time>
</trkpt>
<trkpt lat="42.670787" lon="-2.183357">
<ele>1205</ele>
<time>2013-05-04T13:56:42.000Z</time>
</trkpt>
<trkpt lat="42.670852" lon="-2.183402">
<ele>1207</ele>
<time>2013-05-04T13:56:43.000Z</time>
</trkpt>
<trkpt lat="42.670925" lon="-2.183448">
<ele>1207</ele>
<time>2013-05-04T13:56:44.000Z</time>
</trkpt>
<trkpt lat="42.671014" lon="-2.183474">
<ele>1208</ele>
<time>2013-05-04T13:56:45.000Z</time>
</trkpt>
<trkpt lat="42.671101" lon="-2.183487">
<ele>1209</ele>
<time>2013-05-04T13:56:46.000Z</time>
</trkpt>
<trkpt lat="42.671184" lon="-2.183485">
<ele>1211</ele>
<time>2013-05-04T13:56:47.000Z</time>
</trkpt>
<trkpt lat="42.67127" lon="-2.183479">
<ele>1213</ele>
<time>2013-05-04T13:56:48.000Z</time>
</trkpt>
<trkpt lat="42.671353" lon="-2.183484">
<ele>1212</ele>
<time>2013-05-04T13:56:49.000Z</time>
</trkpt>
<trkpt lat="42.671423" lon="-2.18353">
<ele>1212</ele>
<time>2013-05-04T13:56:50.000Z</time>
</trkpt>
<trkpt lat="42.671498" lon="-2.18359">
<ele>1211</ele>
<time>2013-05-04T13:56:51.000Z</time>
</trkpt>
<trkpt lat="42.671571" lon="-2.183661">
<ele>1211</ele>
<time>2013-05-04T13:56:52.000Z</time>
</trkpt>
<trkpt lat="42.67163" lon="-2.183748">
<ele>1212</ele>
<time>2013-05-04T13:56:53.000Z</time>
</trkpt>
<trkpt lat="42.671672" lon="-2.18385">
<ele>1213</ele>
<time>2013-05-04T13:56:54.000Z</time>
</trkpt>
<trkpt lat="42.671689" lon="-2.183961">
<ele>1214</ele>
<time>2013-05-04T13:56:55.000Z</time>
</trkpt>
<trkpt lat="42.671685" lon="-2.184066">
<ele>1214</ele>
<time>2013-05-04T13:56:56.000Z</time>
</trkpt>
<trkpt lat="42.671676" lon="-2.184153">
<ele>1215</ele>
<time>2013-05-04T13:56:57.000Z</time>
</trkpt>
<trkpt lat="42.671656" lon="-2.184225">
<ele>1215</ele>
<time>2013-05-04T13:56:58.000Z</time>
</trkpt>
<trkpt lat="42.671623" lon="-2.18429">
<ele>1216</ele>
<time>2013-05-04T13:56:59.000Z</time>
</trkpt>
<trkpt lat="42.671583" lon="-2.184317">
<ele>1217</ele>
<time>2013-05-04T13:57:00.000Z</time>
</trkpt>
<trkpt lat="42.671528" lon="-2.184312">
<ele>1218</ele>
<time>2013-05-04T13:57:01.000Z</time>
</trkpt>
<trkpt lat="42.671472" lon="-2.184279">
<ele>1219</ele>
<time>2013-05-04T13:57:02.000Z</time>
</trkpt>
<trkpt lat="42.671428" lon="-2.184221">
<ele>1217</ele>
<time>2013-05-04T13:57:03.000Z</time>
</trkpt>
<trkpt lat="42.671391" lon="-2.184161">
<ele>1218</ele>
<time>2013-05-04T13:57:04.000Z</time>
</trkpt>
<trkpt lat="42.671368" lon="-2.184094">
<ele>1218</ele>
<time>2013-05-04T13:57:05.000Z</time>
</trkpt>
<trkpt lat="42.671345" lon="-2.184022">
<ele>1218</ele>
<time>2013-05-04T13:57:06.000Z</time>
</trkpt>
<trkpt lat="42.671325" lon="-2.183942">
<ele>1220</ele>
<time>2013-05-04T13:57:07.000Z</time>
</trkpt>
<trkpt lat="42.671317" lon="-2.183838">
<ele>1223</ele>
<time>2013-05-04T13:57:08.000Z</time>
</trkpt>
<trkpt lat="42.671308" lon="-2.183703">
<ele>1223</ele>
<time>2013-05-04T13:57:09.000Z</time>
</trkpt>
<trkpt lat="42.671304" lon="-2.18356">
<ele>1222</ele>
<time>2013-05-04T13:57:10.000Z</time>
</trkpt>
<trkpt lat="42.671307" lon="-2.183433">
<ele>1221</ele>
<time>2013-05-04T13:57:11.000Z</time>
</trkpt>
<trkpt lat="42.671318" lon="-2.183329">
<ele>1221</ele>
<time>2013-05-04T13:57:12.000Z</time>
</trkpt>
<trkpt lat="42.671332" lon="-2.183222">
<ele>1222</ele>
<time>2013-05-04T13:57:13.000Z</time>
</trkpt>
<trkpt lat="42.671346" lon="-2.183116">
<ele>1223</ele>
<time>2013-05-04T13:57:14.000Z</time>
</trkpt>
<trkpt lat="42.671365" lon="-2.183003">
<ele>1223</ele>
<time>2013-05-04T13:57:15.000Z</time>
</trkpt>
<trkpt lat="42.671389" lon="-2.182876">
<ele>1222</ele>
<time>2013-05-04T13:57:16.000Z</time>
</trkpt>
<trkpt lat="42.671418" lon="-2.182756">
<ele>1226</ele>
<time>2013-05-04T13:57:17.000Z</time>
</trkpt>
<trkpt lat="42.671453" lon="-2.182648">
<ele>1226</ele>
<time>2013-05-04T13:57:18.000Z</time>
</trkpt>
<trkpt lat="42.671486" lon="-2.18255">
<ele>1227</ele>
<time>2013-05-04T13:57:19.000Z</time>
</trkpt>
<trkpt lat="42.671514" lon="-2.182451">
<ele>1228</ele>
<time>2013-05-04T13:57:20.000Z</time>
</trkpt>
<trkpt lat="42.671543" lon="-2.182334">
<ele>1227</ele>
<time>2013-05-04T13:57:21.000Z</time>
</trkpt>
<trkpt lat="42.671572" lon="-2.182208">
<ele>1228</ele>
<time>2013-05-04T13:57:22.000Z</time>
</trkpt>
<trkpt lat="42.6716" lon="-2.182082">
<ele>1230</ele>
<time>2013-05-04T13:57:23.000Z</time>
</trkpt>
<trkpt lat="42.671622" lon="-2.181967">
<ele>1227</ele>
<time>2013-05-04T13:57:24.000Z</time>
</trkpt>
<trkpt lat="42.671624" lon="-2.181853">
<ele>1225</ele>
<time>2013-05-04T13:57:25.000Z</time>
</trkpt>
<trkpt lat="42.671623" lon="-2.181751">
<ele>1226</ele>
<time>2013-05-04T13:57:26.000Z</time>
</trkpt>
<trkpt lat="42.671616" lon="-2.181637">
<ele>1225</ele>
<time>2013-05-04T13:57:27.000Z</time>
</trkpt>
<trkpt lat="42.671604" lon="-2.181508">
<ele>1223</ele>
<time>2013-05-04T13:57:28.000Z</time>
</trkpt>
<trkpt lat="42.671588" lon="-2.181374">
<ele>1222</ele>
<time>2013-05-04T13:57:29.000Z</time>
</trkpt>
<trkpt lat="42.671569" lon="-2.181247">
<ele>1220</ele>
<time>2013-05-04T13:57:30.000Z</time>
</trkpt>
<trkpt lat="42.671548" lon="-2.181127">
<ele>1218</ele>
<time>2013-05-04T13:57:31.000Z</time>
</trkpt>
<trkpt lat="42.671527" lon="-2.181015">
<ele>1216</ele>
<time>2013-05-04T13:57:32.000Z</time>
</trkpt>
<trkpt lat="42.671507" lon="-2.180911">
<ele>1215</ele>
<time>2013-05-04T13:57:33.000Z</time>
</trkpt>
<trkpt lat="42.671482" lon="-2.180776">
<ele>1212</ele>
<time>2013-05-04T13:57:34.000Z</time>
</trkpt>
<trkpt lat="42.671459" lon="-2.180647">
<ele>1209</ele>
<time>2013-05-04T13:57:35.000Z</time>
</trkpt>
<trkpt lat="42.671429" lon="-2.180508">
<ele>1204</ele>
<time>2013-05-04T13:57:36.000Z</time>
</trkpt>
<trkpt lat="42.671399" lon="-2.180375">
<ele>1204</ele>
<time>2013-05-04T13:57:37.000Z</time>
</trkpt>
<trkpt lat="42.67137" lon="-2.180249">
<ele>1202</ele>
<time>2013-05-04T13:57:38.000Z</time>
</trkpt>
<trkpt lat="42.671343" lon="-2.180128">
<ele>1203</ele>
<time>2013-05-04T13:57:39.000Z</time>
</trkpt>
<trkpt lat="42.671324" lon="-2.18">
<ele>1206</ele>
<time>2013-05-04T13:57:40.000Z</time>
</trkpt>
<trkpt lat="42.671313" lon="-2.179869">
<ele>1206</ele>
<time>2013-05-04T13:57:41.000Z</time>
</trkpt>
<trkpt lat="42.671304" lon="-2.179748">
<ele>1198</ele>
<time>2013-05-04T13:57:42.000Z</time>
</trkpt>
<trkpt lat="42.671289" lon="-2.179636">
<ele>1196</ele>
<time>2013-05-04T13:57:43.000Z</time>
</trkpt>
<trkpt lat="42.671271" lon="-2.179532">
<ele>1196</ele>
<time>2013-05-04T13:57:44.000Z</time>
</trkpt>
<trkpt lat="42.67125" lon="-2.179421">
<ele>1194</ele>
<time>2013-05-04T13:57:45.000Z</time>
</trkpt>
<trkpt lat="42.671229" lon="-2.179299">
<ele>1195</ele>
<time>2013-05-04T13:57:46.000Z</time>
</trkpt>
<trkpt lat="42.67121" lon="-2.179163">
<ele>1196</ele>
<time>2013-05-04T13:57:47.000Z</time>
</trkpt>
<trkpt lat="42.671192" lon="-2.17903">
<ele>1196</ele>
<time>2013-05-04T13:57:48.000Z</time>
</trkpt>
<trkpt lat="42.671175" lon="-2.178906">
<ele>1194</ele>
<time>2013-05-04T13:57:49.000Z</time>
</trkpt>
<trkpt lat="42.671158" lon="-2.178795">
<ele>1193</ele>
<time>2013-05-04T13:57:50.000Z</time>
</trkpt>
<trkpt lat="42.671142" lon="-2.178685">
<ele>1195</ele>
<time>2013-05-04T13:57:51.000Z</time>
</trkpt>
<trkpt lat="42.671119" lon="-2.178559">
<ele>1191</ele>
<time>2013-05-04T13:57:52.000Z</time>
</trkpt>
<trkpt lat="42.671093" lon="-2.178415">
<ele>1189</ele>
<time>2013-05-04T13:57:53.000Z</time>
</trkpt>
<trkpt lat="42.671066" lon="-2.178255">
<ele>1186</ele>
<time>2013-05-04T13:57:54.000Z</time>
</trkpt>
<trkpt lat="42.671045" lon="-2.178114">
<ele>1182</ele>
<time>2013-05-04T13:57:55.000Z</time>
</trkpt>
<trkpt lat="42.671029" lon="-2.177997">
<ele>1181</ele>
<time>2013-05-04T13:57:56.000Z</time>
</trkpt>
<trkpt lat="42.671015" lon="-2.177891">
<ele>1181</ele>
<time>2013-05-04T13:57:57.000Z</time>
</trkpt>
<trkpt lat="42.671001" lon="-2.177794">
<ele>1180</ele>
<time>2013-05-04T13:57:58.000Z</time>
</trkpt>
<trkpt lat="42.670979" lon="-2.177682">
<ele>1178</ele>
<time>2013-05-04T13:57:59.000Z</time>
</trkpt>
<trkpt lat="42.670952" lon="-2.177556">
<ele>1175</ele>
<time>2013-05-04T13:58:00.000Z</time>
</trkpt>
<trkpt lat="42.670927" lon="-2.177439">
<ele>1173</ele>
<time>2013-05-04T13:58:01.000Z</time>
</trkpt>
<trkpt lat="42.670908" lon="-2.177327">
<ele>1169</ele>
<time>2013-05-04T13:58:02.000Z</time>
</trkpt>
<trkpt lat="42.670891" lon="-2.177225">
<ele>1168</ele>
<time>2013-05-04T13:58:03.000Z</time>
</trkpt>
<trkpt lat="42.670871" lon="-2.177116">
<ele>1164</ele>
<time>2013-05-04T13:58:04.000Z</time>
</trkpt>
<trkpt lat="42.670849" lon="-2.177015">
<ele>1161</ele>
<time>2013-05-04T13:58:05.000Z</time>
</trkpt>
<trkpt lat="42.670822" lon="-2.176903">
<ele>1157</ele>
<time>2013-05-04T13:58:06.000Z</time>
</trkpt>
<trkpt lat="42.670793" lon="-2.176779">
<ele>1153</ele>
<time>2013-05-04T13:58:07.000Z</time>
</trkpt>
<trkpt lat="42.670764" lon="-2.176662">
<ele>1149</ele>
<time>2013-05-04T13:58:08.000Z</time>
</trkpt>
<trkpt lat="42.670732" lon="-2.176555">
<ele>1145</ele>
<time>2013-05-04T13:58:09.000Z</time>
</trkpt>
<trkpt lat="42.670697" lon="-2.176454">
<ele>1142</ele>
<time>2013-05-04T13:58:10.000Z</time>
</trkpt>
<trkpt lat="42.670662" lon="-2.176349">
<ele>1137</ele>
<time>2013-05-04T13:58:11.000Z</time>
</trkpt>
<trkpt lat="42.670624" lon="-2.176235">
<ele>1132</ele>
<time>2013-05-04T13:58:12.000Z</time>
</trkpt>
<trkpt lat="42.670592" lon="-2.176133">
<ele>1131</ele>
<time>2013-05-04T13:58:13.000Z</time>
</trkpt>
<trkpt lat="42.670561" lon="-2.176024">
<ele>1128</ele>
<time>2013-05-04T13:58:14.000Z</time>
</trkpt>
<trkpt lat="42.670527" lon="-2.175901">
<ele>1123</ele>
<time>2013-05-04T13:58:15.000Z</time>
</trkpt>
<trkpt lat="42.670488" lon="-2.175769">
<ele>1118</ele>
<time>2013-05-04T13:58:16.000Z</time>
</trkpt>
<trkpt lat="42.670448" lon="-2.175652">
<ele>1113</ele>
<time>2013-05-04T13:58:17.000Z</time>
</trkpt>
<trkpt lat="42.670408" lon="-2.17553">
<ele>1109</ele>
<time>2013-05-04T13:58:18.000Z</time>
</trkpt>
<trkpt lat="42.670367" lon="-2.175402">
<ele>1107</ele>
<time>2013-05-04T13:58:19.000Z</time>
</trkpt>
<trkpt lat="42.670325" lon="-2.175274">
<ele>1105</ele>
<time>2013-05-04T13:58:20.000Z</time>
</trkpt>
<trkpt lat="42.670286" lon="-2.175152">
<ele>1103</ele>
<time>2013-05-04T13:58:21.000Z</time>
</trkpt>
<trkpt lat="42.67025" lon="-2.175049">
<ele>1101</ele>
<time>2013-05-04T13:58:22.000Z</time>
</trkpt>
<trkpt lat="42.670218" lon="-2.174956">
<ele>1099</ele>
<time>2013-05-04T13:58:23.000Z</time>
</trkpt>
<trkpt lat="42.670187" lon="-2.17486">
<ele>1096</ele>
<time>2013-05-04T13:58:24.000Z</time>
</trkpt>
<trkpt lat="42.670158" lon="-2.174753">
<ele>1093</ele>
<time>2013-05-04T13:58:25.000Z</time>
</trkpt>
<trkpt lat="42.670129" lon="-2.174637">
<ele>1092</ele>
<time>2013-05-04T13:58:26.000Z</time>
</trkpt>
<trkpt lat="42.6701" lon="-2.174519">
<ele>1090</ele>
<time>2013-05-04T13:58:27.000Z</time>
</trkpt>
<trkpt lat="42.670074" lon="-2.174406">
<ele>1088</ele>
<time>2013-05-04T13:58:28.000Z</time>
</trkpt>
<trkpt lat="42.670047" lon="-2.174289">
<ele>1087</ele>
<time>2013-05-04T13:58:29.000Z</time>
</trkpt>
<trkpt lat="42.670019" lon="-2.174177">
<ele>1084</ele>
<time>2013-05-04T13:58:30.000Z</time>
</trkpt>
<trkpt lat="42.669995" lon="-2.174088">
<ele>1083</ele>
<time>2013-05-04T13:58:31.000Z</time>
</trkpt>
<trkpt lat="42.669979" lon="-2.174014">
<ele>1082</ele>
<time>2013-05-04T13:58:32.000Z</time>
</trkpt>
<trkpt lat="42.66997" lon="-2.173957">
<ele>1081</ele>
<time>2013-05-04T13:58:33.000Z</time>
</trkpt>
<trkpt lat="42.669959" lon="-2.173901">
<ele>1079</ele>
<time>2013-05-04T13:58:34.000Z</time>
</trkpt>
<trkpt lat="42.669947" lon="-2.173841">
<ele>1075</ele>
<time>2013-05-04T13:58:35.000Z</time>
</trkpt>
<trkpt lat="42.669932" lon="-2.173752">
<ele>1075</ele>
<time>2013-05-04T13:58:36.000Z</time>
</trkpt>
<trkpt lat="42.66992" lon="-2.173634">
<ele>1071</ele>
<time>2013-05-04T13:58:37.000Z</time>
</trkpt>
<trkpt lat="42.669929" lon="-2.17351">
<ele>1071</ele>
<time>2013-05-04T13:58:38.000Z</time>
</trkpt>
<trkpt lat="42.669934" lon="-2.17339">
<ele>1069</ele>
<time>2013-05-04T13:58:39.000Z</time>
</trkpt>
<trkpt lat="42.669934" lon="-2.173305">
<ele>1070</ele>
<time>2013-05-04T13:58:40.000Z</time>
</trkpt>
<trkpt lat="42.669908" lon="-2.173238">
<ele>1070</ele>
<time>2013-05-04T13:58:41.000Z</time>
</trkpt>
<trkpt lat="42.669881" lon="-2.173181">
<ele>1072</ele>
<time>2013-05-04T13:58:42.000Z</time>
</trkpt>
<trkpt lat="42.669851" lon="-2.173107">
<ele>1072</ele>
<time>2013-05-04T13:58:43.000Z</time>
</trkpt>
<trkpt lat="42.669822" lon="-2.173017">
<ele>1071</ele>
<time>2013-05-04T13:58:44.000Z</time>
</trkpt>
<trkpt lat="42.669794" lon="-2.172924">
<ele>1067</ele>
<time>2013-05-04T13:58:45.000Z</time>
</trkpt>
<trkpt lat="42.669768" lon="-2.172841">
<ele>1064</ele>
<time>2013-05-04T13:58:46.000Z</time>
</trkpt>
<trkpt lat="42.669739" lon="-2.172761">
<ele>1062</ele>
<time>2013-05-04T13:58:47.000Z</time>
</trkpt>
<trkpt lat="42.669711" lon="-2.172695">
<ele>1061</ele>
<time>2013-05-04T13:58:48.000Z</time>
</trkpt>
<trkpt lat="42.669682" lon="-2.17263">
<ele>1060</ele>
<time>2013-05-04T13:58:49.000Z</time>
</trkpt>
<trkpt lat="42.669652" lon="-2.172551">
<ele>1059</ele>
<time>2013-05-04T13:58:50.000Z</time>
</trkpt>
<trkpt lat="42.669616" lon="-2.172454">
<ele>1056</ele>
<time>2013-05-04T13:58:51.000Z</time>
</trkpt>
<trkpt lat="42.669575" lon="-2.172345">
<ele>1052</ele>
<time>2013-05-04T13:58:52.000Z</time>
</trkpt>
<trkpt lat="42.669533" lon="-2.172243">
<ele>1048</ele>
<time>2013-05-04T13:58:53.000Z</time>
</trkpt>
<trkpt lat="42.669492" lon="-2.172146">
<ele>1043</ele>
<time>2013-05-04T13:58:54.000Z</time>
</trkpt>
<trkpt lat="42.669453" lon="-2.17204">
<ele>1040</ele>
<time>2013-05-04T13:58:55.000Z</time>
</trkpt>
<trkpt lat="42.669417" lon="-2.171929">
<ele>1038</ele>
<time>2013-05-04T13:58:56.000Z</time>
</trkpt>
<trkpt lat="42.669383" lon="-2.171826">
<ele>1037</ele>
<time>2013-05-04T13:58:57.000Z</time>
</trkpt>
<trkpt lat="42.669353" lon="-2.171736">
<ele>1036</ele>
<time>2013-05-04T13:58:58.000Z</time>
</trkpt>
<trkpt lat="42.669325" lon="-2.171652">
<ele>1035</ele>
<time>2013-05-04T13:58:59.000Z</time>
</trkpt>
<trkpt lat="42.669294" lon="-2.171558">
<ele>1033</ele>
<time>2013-05-04T13:59:00.000Z</time>
</trkpt>
<trkpt lat="42.669264" lon="-2.171454">
<ele>1032</ele>
<time>2013-05-04T13:59:01.000Z</time>
</trkpt>
<trkpt lat="42.669235" lon="-2.171349">
<ele>1031</ele>
<time>2013-05-04T13:59:02.000Z</time>
</trkpt>
<trkpt lat="42.669208" lon="-2.171252">
<ele>1031</ele>
<time>2013-05-04T13:59:03.000Z</time>
</trkpt>
<trkpt lat="42.669185" lon="-2.171171">
<ele>1032</ele>
<time>2013-05-04T13:59:04.000Z</time>
</trkpt>
<trkpt lat="42.669166" lon="-2.1711">
<ele>1031</ele>
<time>2013-05-04T13:59:05.000Z</time>
</trkpt>
<trkpt lat="42.66915" lon="-2.171021">
<ele>1031</ele>
<time>2013-05-04T13:59:06.000Z</time>
</trkpt>
<trkpt lat="42.669137" lon="-2.170933">
<ele>1031</ele>
<time>2013-05-04T13:59:07.000Z</time>
</trkpt>
<trkpt lat="42.669122" lon="-2.170828">
<ele>1031</ele>
<time>2013-05-04T13:59:08.000Z</time>
</trkpt>
<trkpt lat="42.669099" lon="-2.170707">
<ele>1029</ele>
<time>2013-05-04T13:59:09.000Z</time>
</trkpt>
<trkpt lat="42.669076" lon="-2.170601">
<ele>1028</ele>
<time>2013-05-04T13:59:10.000Z</time>
</trkpt>
<trkpt lat="42.669055" lon="-2.170508">
<ele>1029</ele>
<time>2013-05-04T13:59:11.000Z</time>
</trkpt>
<trkpt lat="42.669039" lon="-2.170428">
<ele>1031</ele>
<time>2013-05-04T13:59:12.000Z</time>
</trkpt>
<trkpt lat="42.669024" lon="-2.170335">
<ele>1030</ele>
<time>2013-05-04T13:59:13.000Z</time>
</trkpt>
<trkpt lat="42.669009" lon="-2.170238">
<ele>1029</ele>
<time>2013-05-04T13:59:14.000Z</time>
</trkpt>
<trkpt lat="42.668988" lon="-2.17013">
<ele>1028</ele>
<time>2013-05-04T13:59:15.000Z</time>
</trkpt>
<trkpt lat="42.668966" lon="-2.170024">
<ele>1028</ele>
<time>2013-05-04T13:59:16.000Z</time>
</trkpt>
<trkpt lat="42.668945" lon="-2.169924">
<ele>1027</ele>
<time>2013-05-04T13:59:17.000Z</time>
</trkpt>
<trkpt lat="42.668931" lon="-2.169832">
<ele>1025</ele>
<time>2013-05-04T13:59:18.000Z</time>
</trkpt>
<trkpt lat="42.66892" lon="-2.169736">
<ele>1024</ele>
<time>2013-05-04T13:59:19.000Z</time>
</trkpt>
<trkpt lat="42.668908" lon="-2.16964">
<ele>1024</ele>
<time>2013-05-04T13:59:20.000Z</time>
</trkpt>
<trkpt lat="42.668896" lon="-2.169546">
<ele>1023</ele>
<time>2013-05-04T13:59:21.000Z</time>
</trkpt>
<trkpt lat="42.668881" lon="-2.169457">
<ele>1023</ele>
<time>2013-05-04T13:59:22.000Z</time>
</trkpt>
<trkpt lat="42.668866" lon="-2.169369">
<ele>1023</ele>
<time>2013-05-04T13:59:23.000Z</time>
</trkpt>
<trkpt lat="42.668849" lon="-2.169277">
<ele>1022</ele>
<time>2013-05-04T13:59:24.000Z</time>
</trkpt>
<trkpt lat="42.668831" lon="-2.169177">
<ele>1021</ele>
<time>2013-05-04T13:59:25.000Z</time>
</trkpt>
<trkpt lat="42.668813" lon="-2.169066">
<ele>1019</ele>
<time>2013-05-04T13:59:26.000Z</time>
</trkpt>
<trkpt lat="42.668794" lon="-2.168943">
<ele>1020</ele>
<time>2013-05-04T13:59:27.000Z</time>
</trkpt>
<trkpt lat="42.668779" lon="-2.168845">
<ele>1021</ele>
<time>2013-05-04T13:59:28.000Z</time>
</trkpt>
<trkpt lat="42.668771" lon="-2.168766">
<ele>1021</ele>
<time>2013-05-04T13:59:29.000Z</time>
</trkpt>
<trkpt lat="42.668766" lon="-2.168684">
<ele>1022</ele>
<time>2013-05-04T13:59:30.000Z</time>
</trkpt>
<trkpt lat="42.668761" lon="-2.168593">
<ele>1022</ele>
<time>2013-05-04T13:59:31.000Z</time>
</trkpt>
<trkpt lat="42.668755" lon="-2.168481">
<ele>1023</ele>
<time>2013-05-04T13:59:32.000Z</time>
</trkpt>
<trkpt lat="42.668739" lon="-2.16835">
<ele>1023</ele>
<time>2013-05-04T13:59:33.000Z</time>
</trkpt>
<trkpt lat="42.668721" lon="-2.168226">
<ele>1020</ele>
<time>2013-05-04T13:59:34.000Z</time>
</trkpt>
<trkpt lat="42.668707" lon="-2.168119">
<ele>1019</ele>
<time>2013-05-04T13:59:35.000Z</time>
</trkpt>
<trkpt lat="42.668698" lon="-2.168022">
<ele>1019</ele>
<time>2013-05-04T13:59:36.000Z</time>
</trkpt>
<trkpt lat="42.66869" lon="-2.16793">
<ele>1018</ele>
<time>2013-05-04T13:59:37.000Z</time>
</trkpt>
<trkpt lat="42.668682" lon="-2.167833">
<ele>1017</ele>
<time>2013-05-04T13:59:38.000Z</time>
</trkpt>
<trkpt lat="42.66867" lon="-2.167732">
<ele>1016</ele>
<time>2013-05-04T13:59:39.000Z</time>
</trkpt>
<trkpt lat="42.668657" lon="-2.167625">
<ele>1016</ele>
<time>2013-05-04T13:59:40.000Z</time>
</trkpt>
<trkpt lat="42.668642" lon="-2.167517">
<ele>1018</ele>
<time>2013-05-04T13:59:41.000Z</time>
</trkpt>
<trkpt lat="42.668628" lon="-2.167414">
<ele>1018</ele>
<time>2013-05-04T13:59:42.000Z</time>
</trkpt>
<trkpt lat="42.668613" lon="-2.167311">
<ele>1018</ele>
<time>2013-05-04T13:59:43.000Z</time>
</trkpt>
<trkpt lat="42.668597" lon="-2.167193">
<ele>1020</ele>
<time>2013-05-04T13:59:44.000Z</time>
</trkpt>
<trkpt lat="42.66858" lon="-2.167067">
<ele>1021</ele>
<time>2013-05-04T13:59:45.000Z</time>
</trkpt>
<trkpt lat="42.668561" lon="-2.166944">
<ele>1021</ele>
<time>2013-05-04T13:59:46.000Z</time>
</trkpt>
<trkpt lat="42.66854" lon="-2.166831">
<ele>1021</ele>
<time>2013-05-04T13:59:47.000Z</time>
</trkpt>
<trkpt lat="42.668518" lon="-2.166728">
<ele>1021</ele>
<time>2013-05-04T13:59:48.000Z</time>
</trkpt>
<trkpt lat="42.668497" lon="-2.166627">
<ele>1021</ele>
<time>2013-05-04T13:59:49.000Z</time>
</trkpt>
<trkpt lat="42.668477" lon="-2.16653">
<ele>1021</ele>
<time>2013-05-04T13:59:50.000Z</time>
</trkpt>
<trkpt lat="42.668456" lon="-2.16643">
<ele>1020</ele>
<time>2013-05-04T13:59:51.000Z</time>
</trkpt>
<trkpt lat="42.668435" lon="-2.16633">
<ele>1018</ele>
<time>2013-05-04T13:59:52.000Z</time>
</trkpt>
<trkpt lat="42.66841" lon="-2.166223">
<ele>1016</ele>
<time>2013-05-04T13:59:53.000Z</time>
</trkpt>
<trkpt lat="42.668383" lon="-2.166117">
<ele>1013</ele>
<time>2013-05-04T13:59:54.000Z</time>
</trkpt>
<trkpt lat="42.668354" lon="-2.166011">
<ele>1012</ele>
<time>2013-05-04T13:59:55.000Z</time>
</trkpt>
<trkpt lat="42.668322" lon="-2.165905">
<ele>1012</ele>
<time>2013-05-04T13:59:56.000Z</time>
</trkpt>
<trkpt lat="42.66829" lon="-2.165796">
<ele>1011</ele>
<time>2013-05-04T13:59:57.000Z</time>
</trkpt>
<trkpt lat="42.668259" lon="-2.16569">
<ele>1009</ele>
<time>2013-05-04T13:59:58.000Z</time>
</trkpt>
<trkpt lat="42.668229" lon="-2.165587">
<ele>1007</ele>
<time>2013-05-04T13:59:59.000Z</time>
</trkpt>
<trkpt lat="42.6682" lon="-2.165487">
<ele>1004</ele>
<time>2013-05-04T14:00:00.000Z</time>
</trkpt>
<trkpt lat="42.668167" lon="-2.165382">
<ele>1001</ele>
<time>2013-05-04T14:00:01.000Z</time>
</trkpt>
<trkpt lat="42.668133" lon="-2.165274">
<ele>999</ele>
<time>2013-05-04T14:00:02.000Z</time>
</trkpt>
<trkpt lat="42.6681" lon="-2.16517">
<ele>996</ele>
<time>2013-05-04T14:00:03.000Z</time>
</trkpt>
<trkpt lat="42.668067" lon="-2.165066">
<ele>993</ele>
<time>2013-05-04T14:00:04.000Z</time>
</trkpt>
<trkpt lat="42.668034" lon="-2.164954">
<ele>991</ele>
<time>2013-05-04T14:00:05.000Z</time>
</trkpt>
<trkpt lat="42.668002" lon="-2.164845">
<ele>988</ele>
<time>2013-05-04T14:00:06.000Z</time>
</trkpt>
<trkpt lat="42.667968" lon="-2.164729">
<ele>986</ele>
<time>2013-05-04T14:00:07.000Z</time>
</trkpt>
<trkpt lat="42.667929" lon="-2.164616">
<ele>984</ele>
<time>2013-05-04T14:00:08.000Z</time>
</trkpt>
<trkpt lat="42.667886" lon="-2.164505">
<ele>980</ele>
<time>2013-05-04T14:00:09.000Z</time>
</trkpt>
<trkpt lat="42.667847" lon="-2.164403">
<ele>977</ele>
<time>2013-05-04T14:00:10.000Z</time>
</trkpt>
<trkpt lat="42.667812" lon="-2.16431">
<ele>975</ele>
<time>2013-05-04T14:00:11.000Z</time>
</trkpt>
<trkpt lat="42.667782" lon="-2.16422">
<ele>974</ele>
<time>2013-05-04T14:00:12.000Z</time>
</trkpt>
<trkpt lat="42.667753" lon="-2.164129">
<ele>972</ele>
<time>2013-05-04T14:00:13.000Z</time>
</trkpt>
<trkpt lat="42.667719" lon="-2.164018">
<ele>970</ele>
<time>2013-05-04T14:00:14.000Z</time>
</trkpt>
<trkpt lat="42.667686" lon="-2.163905">
<ele>969</ele>
<time>2013-05-04T14:00:15.000Z</time>
</trkpt>
<trkpt lat="42.667653" lon="-2.163793">
<ele>969</ele>
<time>2013-05-04T14:00:16.000Z</time>
</trkpt>
<trkpt lat="42.667622" lon="-2.163688">
<ele>968</ele>
<time>2013-05-04T14:00:17.000Z</time>
</trkpt>
<trkpt lat="42.667594" lon="-2.163592">
<ele>968</ele>
<time>2013-05-04T14:00:18.000Z</time>
</trkpt>
<trkpt lat="42.667567" lon="-2.163503">
<ele>967</ele>
<time>2013-05-04T14:00:19.000Z</time>
</trkpt>
<trkpt lat="42.667542" lon="-2.16342">
<ele>967</ele>
<time>2013-05-04T14:00:20.000Z</time>
</trkpt>
<trkpt lat="42.667519" lon="-2.163343">
<ele>967</ele>
<time>2013-05-04T14:00:21.000Z</time>
</trkpt>
<trkpt lat="42.667498" lon="-2.163263">
<ele>965</ele>
<time>2013-05-04T14:00:22.000Z</time>
</trkpt>
<trkpt lat="42.667479" lon="-2.163179">
<ele>964</ele>
<time>2013-05-04T14:00:23.000Z</time>
</trkpt>
<trkpt lat="42.667458" lon="-2.163089">
<ele>964</ele>
<time>2013-05-04T14:00:24.000Z</time>
</trkpt>
<trkpt lat="42.667434" lon="-2.163002">
<ele>964</ele>
<time>2013-05-04T14:00:25.000Z</time>
</trkpt>
<trkpt lat="42.667413" lon="-2.162942">
<ele>963</ele>
<time>2013-05-04T14:00:26.000Z</time>
</trkpt>
<trkpt lat="42.667392" lon="-2.162877">
<ele>962</ele>
<time>2013-05-04T14:00:27.000Z</time>
</trkpt>
<trkpt lat="42.667372" lon="-2.162813">
<ele>962</ele>
<time>2013-05-04T14:00:28.000Z</time>
</trkpt>
<trkpt lat="42.667351" lon="-2.162735">
<ele>961</ele>
<time>2013-05-04T14:00:29.000Z</time>
</trkpt>
<trkpt lat="42.667328" lon="-2.162652">
<ele>960</ele>
<time>2013-05-04T14:00:30.000Z</time>
</trkpt>
<trkpt lat="42.667303" lon="-2.162578">
<ele>959</ele>
<time>2013-05-04T14:00:31.000Z</time>
</trkpt>
<trkpt lat="42.667277" lon="-2.162516">
<ele>957</ele>
<time>2013-05-04T14:00:32.000Z</time>
</trkpt>
<trkpt lat="42.66725" lon="-2.162455">
<ele>955</ele>
<time>2013-05-04T14:00:33.000Z</time>
</trkpt>
<trkpt lat="42.667222" lon="-2.162381">
<ele>954</ele>
<time>2013-05-04T14:00:34.000Z</time>
</trkpt>
<trkpt lat="42.667193" lon="-2.162293">
<ele>954</ele>
<time>2013-05-04T14:00:35.000Z</time>
</trkpt>
<trkpt lat="42.667168" lon="-2.16221">
<ele>953</ele>
<time>2013-05-04T14:00:36.000Z</time>
</trkpt>
<trkpt lat="42.667145" lon="-2.162132">
<ele>950</ele>
<time>2013-05-04T14:00:37.000Z</time>
</trkpt>
<trkpt lat="42.667124" lon="-2.162057">
<ele>950</ele>
<time>2013-05-04T14:00:38.000Z</time>
</trkpt>
<trkpt lat="42.667103" lon="-2.161979">
<ele>946</ele>
<time>2013-05-04T14:00:39.000Z</time>
</trkpt>
<trkpt lat="42.667083" lon="-2.161904">
<ele>943</ele>
<time>2013-05-04T14:00:40.000Z</time>
</trkpt>
<trkpt lat="42.667059" lon="-2.161834">
<ele>939</ele>
<time>2013-05-04T14:00:41.000Z</time>
</trkpt>
<trkpt lat="42.667015" lon="-2.161768">
<ele>936</ele>
<time>2013-05-04T14:00:42.000Z</time>
</trkpt>
<trkpt lat="42.666969" lon="-2.1617">
<ele>934</ele>
<time>2013-05-04T14:00:43.000Z</time>
</trkpt>
<trkpt lat="42.666929" lon="-2.161636">
<ele>932</ele>
<time>2013-05-04T14:00:44.000Z</time>
</trkpt>
<trkpt lat="42.666892" lon="-2.161573">
<ele>929</ele>
<time>2013-05-04T14:00:45.000Z</time>
</trkpt>
<trkpt lat="42.666867" lon="-2.161494">
<ele>927</ele>
<time>2013-05-04T14:00:46.000Z</time>
</trkpt>
<trkpt lat="42.666841" lon="-2.16141">
<ele>928</ele>
<time>2013-05-04T14:00:47.000Z</time>
</trkpt>
<trkpt lat="42.666817" lon="-2.161323">
<ele>927</ele>
<time>2013-05-04T14:00:48.000Z</time>
</trkpt>
<trkpt lat="42.66679" lon="-2.161223">
<ele>926</ele>
<time>2013-05-04T14:00:49.000Z</time>
</trkpt>
<trkpt lat="42.666764" lon="-2.16112">
<ele>925</ele>
<time>2013-05-04T14:00:50.000Z</time>
</trkpt>
<trkpt lat="42.666739" lon="-2.161023">
<ele>924</ele>
<time>2013-05-04T14:00:51.000Z</time>
</trkpt>
<trkpt lat="42.666718" lon="-2.16093">
<ele>924</ele>
<time>2013-05-04T14:00:52.000Z</time>
</trkpt>
<trkpt lat="42.666698" lon="-2.160839">
<ele>924</ele>
<time>2013-05-04T14:00:53.000Z</time>
</trkpt>
<trkpt lat="42.66668" lon="-2.160748">
<ele>921</ele>
<time>2013-05-04T14:00:54.000Z</time>
</trkpt>
<trkpt lat="42.666664" lon="-2.16065">
<ele>917</ele>
<time>2013-05-04T14:00:55.000Z</time>
</trkpt>
<trkpt lat="42.666641" lon="-2.160544">
<ele>917</ele>
<time>2013-05-04T14:00:56.000Z</time>
</trkpt>
<trkpt lat="42.666605" lon="-2.160462">
<ele>915</ele>
<time>2013-05-04T14:00:57.000Z</time>
</trkpt>
<trkpt lat="42.666567" lon="-2.160385">
<ele>914</ele>
<time>2013-05-04T14:00:58.000Z</time>
</trkpt>
<trkpt lat="42.666531" lon="-2.160311">
<ele>913</ele>
<time>2013-05-04T14:00:59.000Z</time>
</trkpt>
<trkpt lat="42.666502" lon="-2.16024">
<ele>912</ele>
<time>2013-05-04T14:01:00.000Z</time>
</trkpt>
<trkpt lat="42.66648" lon="-2.16017">
<ele>911</ele>
<time>2013-05-04T14:01:01.000Z</time>
</trkpt>
<trkpt lat="42.666459" lon="-2.160091">
<ele>911</ele>
<time>2013-05-04T14:01:02.000Z</time>
</trkpt>
<trkpt lat="42.666438" lon="-2.160016">
<ele>911</ele>
<time>2013-05-04T14:01:03.000Z</time>
</trkpt>
<trkpt lat="42.666421" lon="-2.159951">
<ele>911</ele>
<time>2013-05-04T14:01:04.000Z</time>
</trkpt>
<trkpt lat="42.666406" lon="-2.15988">
<ele>912</ele>
<time>2013-05-04T14:01:05.000Z</time>
</trkpt>
<trkpt lat="42.666388" lon="-2.159789">
<ele>912</ele>
<time>2013-05-04T14:01:06.000Z</time>
</trkpt>
<trkpt lat="42.66637" lon="-2.159696">
<ele>911</ele>
<time>2013-05-04T14:01:07.000Z</time>
</trkpt>
<trkpt lat="42.666347" lon="-2.15961">
<ele>911</ele>
<time>2013-05-04T14:01:08.000Z</time>
</trkpt>
<trkpt lat="42.666321" lon="-2.159536">
<ele>913</ele>
<time>2013-05-04T14:01:09.000Z</time>
</trkpt>
<trkpt lat="42.666296" lon="-2.15948">
<ele>913</ele>
<time>2013-05-04T14:01:10.000Z</time>
</trkpt>
<trkpt lat="42.666277" lon="-2.159434">
<ele>913</ele>
<time>2013-05-04T14:01:11.000Z</time>
</trkpt>
<trkpt lat="42.666251" lon="-2.159379">
<ele>913</ele>
<time>2013-05-04T14:01:12.000Z</time>
</trkpt>
<trkpt lat="42.666225" lon="-2.159331">
<ele>912</ele>
<time>2013-05-04T14:01:13.000Z</time>
</trkpt>
<trkpt lat="42.666191" lon="-2.159275">
<ele>911</ele>
<time>2013-05-04T14:01:14.000Z</time>
</trkpt>
<trkpt lat="42.666159" lon="-2.159217">
<ele>910</ele>
<time>2013-05-04T14:01:15.000Z</time>
</trkpt>
<trkpt lat="42.666127" lon="-2.159163">
<ele>908</ele>
<time>2013-05-04T14:01:16.000Z</time>
</trkpt>
<trkpt lat="42.666095" lon="-2.159108">
<ele>907</ele>
<time>2013-05-04T14:01:17.000Z</time>
</trkpt>
<trkpt lat="42.666063" lon="-2.15905">
<ele>906</ele>
<time>2013-05-04T14:01:18.000Z</time>
</trkpt>
<trkpt lat="42.666029" lon="-2.158987">
<ele>905</ele>
<time>2013-05-04T14:01:19.000Z</time>
</trkpt>
<trkpt lat="42.665992" lon="-2.158909">
<ele>904</ele>
<time>2013-05-04T14:01:20.000Z</time>
</trkpt>
<trkpt lat="42.665958" lon="-2.158826">
<ele>903</ele>
<time>2013-05-04T14:01:21.000Z</time>
</trkpt>
<trkpt lat="42.665925" lon="-2.158739">
<ele>902</ele>
<time>2013-05-04T14:01:22.000Z</time>
</trkpt>
<trkpt lat="42.665897" lon="-2.158666">
<ele>902</ele>
<time>2013-05-04T14:01:23.000Z</time>
</trkpt>
<trkpt lat="42.665876" lon="-2.158612">
<ele>903</ele>
<time>2013-05-04T14:01:24.000Z</time>
</trkpt>
<trkpt lat="42.665855" lon="-2.158557">
<ele>904</ele>
<time>2013-05-04T14:01:25.000Z</time>
</trkpt>
<trkpt lat="42.665829" lon="-2.158489">
<ele>903</ele>
<time>2013-05-04T14:01:26.000Z</time>
</trkpt>
<trkpt lat="42.665796" lon="-2.158404">
<ele>900</ele>
<time>2013-05-04T14:01:27.000Z</time>
</trkpt>
<trkpt lat="42.665752" lon="-2.158294">
<ele>900</ele>
<time>2013-05-04T14:01:28.000Z</time>
</trkpt>
<trkpt lat="42.665712" lon="-2.158194">
<ele>900</ele>
<time>2013-05-04T14:01:29.000Z</time>
</trkpt>
<trkpt lat="42.665681" lon="-2.158111">
<ele>900</ele>
<time>2013-05-04T14:01:30.000Z</time>
</trkpt>
<trkpt lat="42.665658" lon="-2.158039">
<ele>901</ele>
<time>2013-05-04T14:01:31.000Z</time>
</trkpt>
<trkpt lat="42.66564" lon="-2.157964">
<ele>901</ele>
<time>2013-05-04T14:01:32.000Z</time>
</trkpt>
<trkpt lat="42.665625" lon="-2.157875">
<ele>899</ele>
<time>2013-05-04T14:01:33.000Z</time>
</trkpt>
<trkpt lat="42.665606" lon="-2.157775">
<ele>898</ele>
<time>2013-05-04T14:01:34.000Z</time>
</trkpt>
<trkpt lat="42.665581" lon="-2.157676">
<ele>898</ele>
<time>2013-05-04T14:01:35.000Z</time>
</trkpt>
<trkpt lat="42.665556" lon="-2.157599">
<ele>898</ele>
<time>2013-05-04T14:01:36.000Z</time>
</trkpt>
<trkpt lat="42.66553" lon="-2.157533">
<ele>898</ele>
<time>2013-05-04T14:01:37.000Z</time>
</trkpt>
<trkpt lat="42.665508" lon="-2.157478">
<ele>899</ele>
<time>2013-05-04T14:01:38.000Z</time>
</trkpt>
<trkpt lat="42.665486" lon="-2.157424">
<ele>898</ele>
<time>2013-05-04T14:01:39.000Z</time>
</trkpt>
<trkpt lat="42.665466" lon="-2.157373">
<ele>897</ele>
<time>2013-05-04T14:01:40.000Z</time>
</trkpt>
<trkpt lat="42.665441" lon="-2.157317">
<ele>895</ele>
<time>2013-05-04T14:01:41.000Z</time>
</trkpt>
<trkpt lat="42.665412" lon="-2.157255">
<ele>894</ele>
<time>2013-05-04T14:01:42.000Z</time>
</trkpt>
<trkpt lat="42.665382" lon="-2.157183">
<ele>893</ele>
<time>2013-05-04T14:01:43.000Z</time>
</trkpt>
<trkpt lat="42.665354" lon="-2.157102">
<ele>893</ele>
<time>2013-05-04T14:01:44.000Z</time>
</trkpt>
<trkpt lat="42.66534" lon="-2.157014">
<ele>893</ele>
<time>2013-05-04T14:01:45.000Z</time>
</trkpt>
<trkpt lat="42.665326" lon="-2.156924">
<ele>894</ele>
<time>2013-05-04T14:01:46.000Z</time>
</trkpt>
<trkpt lat="42.665311" lon="-2.156841">
<ele>894</ele>
<time>2013-05-04T14:01:47.000Z</time>
</trkpt>
<trkpt lat="42.66529" lon="-2.156755">
<ele>894</ele>
<time>2013-05-04T14:01:48.000Z</time>
</trkpt>
<trkpt lat="42.665267" lon="-2.156669">
<ele>894</ele>
<time>2013-05-04T14:01:49.000Z</time>
</trkpt>
<trkpt lat="42.66524" lon="-2.156581">
<ele>894</ele>
<time>2013-05-04T14:01:50.000Z</time>
</trkpt>
<trkpt lat="42.66521" lon="-2.15649">
<ele>895</ele>
<time>2013-05-04T14:01:51.000Z</time>
</trkpt>
<trkpt lat="42.665177" lon="-2.156388">
<ele>898</ele>
<time>2013-05-04T14:01:52.000Z</time>
</trkpt>
<trkpt lat="42.665143" lon="-2.156296">
<ele>901</ele>
<time>2013-05-04T14:01:53.000Z</time>
</trkpt>
<trkpt lat="42.665106" lon="-2.156213">
<ele>902</ele>
<time>2013-05-04T14:01:54.000Z</time>
</trkpt>
<trkpt lat="42.665064" lon="-2.156139">
<ele>904</ele>
<time>2013-05-04T14:01:55.000Z</time>
</trkpt>
<trkpt lat="42.665017" lon="-2.15607">
<ele>905</ele>
<time>2013-05-04T14:01:56.000Z</time>
</trkpt>
<trkpt lat="42.664967" lon="-2.156003">
<ele>905</ele>
<time>2013-05-04T14:01:57.000Z</time>
</trkpt>
<trkpt lat="42.664919" lon="-2.155947">
<ele>903</ele>
<time>2013-05-04T14:01:58.000Z</time>
</trkpt>
<trkpt lat="42.664875" lon="-2.155894">
<ele>903</ele>
<time>2013-05-04T14:01:59.000Z</time>
</trkpt>
<trkpt lat="42.664835" lon="-2.155848">
<ele>905</ele>
<time>2013-05-04T14:02:00.000Z</time>
</trkpt>
<trkpt lat="42.664788" lon="-2.155802">
<ele>905</ele>
<time>2013-05-04T14:02:01.000Z</time>
</trkpt>
<trkpt lat="42.664725" lon="-2.155771">
<ele>905</ele>
<time>2013-05-04T14:02:02.000Z</time>
</trkpt>
<trkpt lat="42.664657" lon="-2.155753">
<ele>905</ele>
<time>2013-05-04T14:02:03.000Z</time>
</trkpt>
<trkpt lat="42.66459" lon="-2.155766">
<ele>907</ele>
<time>2013-05-04T14:02:04.000Z</time>
</trkpt>
<trkpt lat="42.664537" lon="-2.155805">
<ele>908</ele>
<time>2013-05-04T14:02:05.000Z</time>
</trkpt>
<trkpt lat="42.664493" lon="-2.155851">
<ele>911</ele>
<time>2013-05-04T14:02:06.000Z</time>
</trkpt>
<trkpt lat="42.664453" lon="-2.155899">
<ele>913</ele>
<time>2013-05-04T14:02:07.000Z</time>
</trkpt>
<trkpt lat="42.664417" lon="-2.155948">
<ele>913</ele>
<time>2013-05-04T14:02:08.000Z</time>
</trkpt>
<trkpt lat="42.664391" lon="-2.156011">
<ele>915</ele>
<time>2013-05-04T14:02:09.000Z</time>
</trkpt>
<trkpt lat="42.664375" lon="-2.15609">
<ele>916</ele>
<time>2013-05-04T14:02:10.000Z</time>
</trkpt>
<trkpt lat="42.664376" lon="-2.156181">
<ele>917</ele>
<time>2013-05-04T14:02:11.000Z</time>
</trkpt>
<trkpt lat="42.664392" lon="-2.156269">
<ele>916</ele>
<time>2013-05-04T14:02:12.000Z</time>
</trkpt>
<trkpt lat="42.664411" lon="-2.156355">
<ele>915</ele>
<time>2013-05-04T14:02:13.000Z</time>
</trkpt>
<trkpt lat="42.664445" lon="-2.156421">
<ele>914</ele>
<time>2013-05-04T14:02:14.000Z</time>
</trkpt>
<trkpt lat="42.664484" lon="-2.156483">
<ele>913</ele>
<time>2013-05-04T14:02:15.000Z</time>
</trkpt>
<trkpt lat="42.664536" lon="-2.156536">
<ele>912</ele>
<time>2013-05-04T14:02:16.000Z</time>
</trkpt>
<trkpt lat="42.664599" lon="-2.156572">
<ele>912</ele>
<time>2013-05-04T14:02:17.000Z</time>
</trkpt>
<trkpt lat="42.664666" lon="-2.156597">
<ele>911</ele>
<time>2013-05-04T14:02:18.000Z</time>
</trkpt>
<trkpt lat="42.664745" lon="-2.156598">
<ele>912</ele>
<time>2013-05-04T14:02:19.000Z</time>
</trkpt>
<trkpt lat="42.664824" lon="-2.156568">
<ele>912</ele>
<time>2013-05-04T14:02:20.000Z</time>
</trkpt>
<trkpt lat="42.664898" lon="-2.156511">
<ele>912</ele>
<time>2013-05-04T14:02:21.000Z</time>
</trkpt>
<trkpt lat="42.664971" lon="-2.156443">
<ele>913</ele>
<time>2013-05-04T14:02:22.000Z</time>
</trkpt>
<trkpt lat="42.665044" lon="-2.156364">
<ele>914</ele>
<time>2013-05-04T14:02:23.000Z</time>
</trkpt>
<trkpt lat="42.665109" lon="-2.156279">
<ele>915</ele>
<time>2013-05-04T14:02:24.000Z</time>
</trkpt>
<trkpt lat="42.665154" lon="-2.156185">
<ele>915</ele>
<time>2013-05-04T14:02:25.000Z</time>
</trkpt>
<trkpt lat="42.665197" lon="-2.156091">
<ele>916</ele>
<time>2013-05-04T14:02:26.000Z</time>
</trkpt>
<trkpt lat="42.665238" lon="-2.155997">
<ele>916</ele>
<time>2013-05-04T14:02:27.000Z</time>
</trkpt>
<trkpt lat="42.665278" lon="-2.155901">
<ele>916</ele>
<time>2013-05-04T14:02:28.000Z</time>
</trkpt>
<trkpt lat="42.665315" lon="-2.155807">
<ele>917</ele>
<time>2013-05-04T14:02:29.000Z</time>
</trkpt>
<trkpt lat="42.665345" lon="-2.155715">
<ele>919</ele>
<time>2013-05-04T14:02:30.000Z</time>
</trkpt>
<trkpt lat="42.665352" lon="-2.155619">
<ele>921</ele>
<time>2013-05-04T14:02:31.000Z</time>
</trkpt>
<trkpt lat="42.665358" lon="-2.155524">
<ele>923</ele>
<time>2013-05-04T14:02:32.000Z</time>
</trkpt>
<trkpt lat="42.665364" lon="-2.155437">
<ele>925</ele>
<time>2013-05-04T14:02:33.000Z</time>
</trkpt>
<trkpt lat="42.665373" lon="-2.155351">
<ele>926</ele>
<time>2013-05-04T14:02:34.000Z</time>
</trkpt>
<trkpt lat="42.665402" lon="-2.155273">
<ele>928</ele>
<time>2013-05-04T14:02:35.000Z</time>
</trkpt>
<trkpt lat="42.665432" lon="-2.155205">
<ele>928</ele>
<time>2013-05-04T14:02:36.000Z</time>
</trkpt>
<trkpt lat="42.665465" lon="-2.155147">
<ele>929</ele>
<time>2013-05-04T14:02:37.000Z</time>
</trkpt>
<trkpt lat="42.665493" lon="-2.155085">
<ele>930</ele>
<time>2013-05-04T14:02:38.000Z</time>
</trkpt>
<trkpt lat="42.665494" lon="-2.155003">
<ele>931</ele>
<time>2013-05-04T14:02:39.000Z</time>
</trkpt>
<trkpt lat="42.665475" lon="-2.154938">
<ele>931</ele>
<time>2013-05-04T14:02:40.000Z</time>
</trkpt>
<trkpt lat="42.665438" lon="-2.154883">
<ele>932</ele>
<time>2013-05-04T14:02:41.000Z</time>
</trkpt>
<trkpt lat="42.66539" lon="-2.154853">
<ele>934</ele>
<time>2013-05-04T14:02:42.000Z</time>
</trkpt>
<trkpt lat="42.665336" lon="-2.154851">
<ele>933</ele>
<time>2013-05-04T14:02:43.000Z</time>
</trkpt>
<trkpt lat="42.665272" lon="-2.154877">
<ele>934</ele>
<time>2013-05-04T14:02:44.000Z</time>
</trkpt>
<trkpt lat="42.665213" lon="-2.154904">
<ele>934</ele>
<time>2013-05-04T14:02:45.000Z</time>
</trkpt>
<trkpt lat="42.665166" lon="-2.154931">
<ele>936</ele>
<time>2013-05-04T14:02:46.000Z</time>
</trkpt>
<trkpt lat="42.665118" lon="-2.15496">
<ele>937</ele>
<time>2013-05-04T14:02:47.000Z</time>
</trkpt>
<trkpt lat="42.665062" lon="-2.15499">
<ele>937</ele>
<time>2013-05-04T14:02:48.000Z</time>
</trkpt>
<trkpt lat="42.664998" lon="-2.155032">
<ele>937</ele>
<time>2013-05-04T14:02:49.000Z</time>
</trkpt>
<trkpt lat="42.664936" lon="-2.155117">
<ele>937</ele>
<time>2013-05-04T14:02:50.000Z</time>
</trkpt>
<trkpt lat="42.664896" lon="-2.155216">
<ele>936</ele>
<time>2013-05-04T14:02:51.000Z</time>
</trkpt>
<trkpt lat="42.664878" lon="-2.155315">
<ele>936</ele>
<time>2013-05-04T14:02:52.000Z</time>
</trkpt>
<trkpt lat="42.664867" lon="-2.155403">
<ele>937</ele>
<time>2013-05-04T14:02:53.000Z</time>
</trkpt>
<trkpt lat="42.664861" lon="-2.155488">
<ele>938</ele>
<time>2013-05-04T14:02:54.000Z</time>
</trkpt>
<trkpt lat="42.664857" lon="-2.155585">
<ele>938</ele>
<time>2013-05-04T14:02:55.000Z</time>
</trkpt>
<trkpt lat="42.664857" lon="-2.155693">
<ele>939</ele>
<time>2013-05-04T14:02:56.000Z</time>
</trkpt>
<trkpt lat="42.664862" lon="-2.155795">
<ele>941</ele>
<time>2013-05-04T14:02:57.000Z</time>
</trkpt>
<trkpt lat="42.664874" lon="-2.155884">
<ele>943</ele>
<time>2013-05-04T14:02:58.000Z</time>
</trkpt>
<trkpt lat="42.664901" lon="-2.155964">
<ele>945</ele>
<time>2013-05-04T14:02:59.000Z</time>
</trkpt>
<trkpt lat="42.664927" lon="-2.156032">
<ele>945</ele>
<time>2013-05-04T14:03:00.000Z</time>
</trkpt>
<trkpt lat="42.664953" lon="-2.156101">
<ele>944</ele>
<time>2013-05-04T14:03:01.000Z</time>
</trkpt>
<trkpt lat="42.664991" lon="-2.156165">
<ele>942</ele>
<time>2013-05-04T14:03:02.000Z</time>
</trkpt>
<trkpt lat="42.665036" lon="-2.156237">
<ele>942</ele>
<time>2013-05-04T14:03:03.000Z</time>
</trkpt>
<trkpt lat="42.665083" lon="-2.156302">
<ele>942</ele>
<time>2013-05-04T14:03:04.000Z</time>
</trkpt>
<trkpt lat="42.66513" lon="-2.156368">
<ele>942</ele>
<time>2013-05-04T14:03:05.000Z</time>
</trkpt>
<trkpt lat="42.665163" lon="-2.156447">
<ele>944</ele>
<time>2013-05-04T14:03:06.000Z</time>
</trkpt>
<trkpt lat="42.665179" lon="-2.15653">
<ele>945</ele>
<time>2013-05-04T14:03:07.000Z</time>
</trkpt>
<trkpt lat="42.66518" lon="-2.156604">
<ele>950</ele>
<time>2013-05-04T14:03:08.000Z</time>
</trkpt>
<trkpt lat="42.665168" lon="-2.156678">
<ele>956</ele>
<time>2013-05-04T14:03:09.000Z</time>
</trkpt>
<trkpt lat="42.665141" lon="-2.156731">
<ele>959</ele>
<time>2013-05-04T14:03:10.000Z</time>
</trkpt>
<trkpt lat="42.665104" lon="-2.156764">
<ele>962</ele>
<time>2013-05-04T14:03:11.000Z</time>
</trkpt>
<trkpt lat="42.665052" lon="-2.15678">
<ele>963</ele>
<time>2013-05-04T14:03:12.000Z</time>
</trkpt>
<trkpt lat="42.664996" lon="-2.156769">
<ele>962</ele>
<time>2013-05-04T14:03:13.000Z</time>
</trkpt>
<trkpt lat="42.664936" lon="-2.156748">
<ele>960</ele>
<time>2013-05-04T14:03:14.000Z</time>
</trkpt>
<trkpt lat="42.664879" lon="-2.156701">
<ele>959</ele>
<time>2013-05-04T14:03:15.000Z</time>
</trkpt>
<trkpt lat="42.664834" lon="-2.156641">
<ele>958</ele>
<time>2013-05-04T14:03:16.000Z</time>
</trkpt>
<trkpt lat="42.66481" lon="-2.156565">
<ele>958</ele>
<time>2013-05-04T14:03:17.000Z</time>
</trkpt>
<trkpt lat="42.664807" lon="-2.156474">
<ele>959</ele>
<time>2013-05-04T14:03:18.000Z</time>
</trkpt>
<trkpt lat="42.664831" lon="-2.156394">
<ele>960</ele>
<time>2013-05-04T14:03:19.000Z</time>
</trkpt>
<trkpt lat="42.664872" lon="-2.156324">
<ele>961</ele>
<time>2013-05-04T14:03:20.000Z</time>
</trkpt>
<trkpt lat="42.664912" lon="-2.156246">
<ele>966</ele>
<time>2013-05-04T14:03:21.000Z</time>
</trkpt>
<trkpt lat="42.664954" lon="-2.156179">
<ele>969</ele>
<time>2013-05-04T14:03:22.000Z</time>
</trkpt>
<trkpt lat="42.664995" lon="-2.156123">
<ele>968</ele>
<time>2013-05-04T14:03:23.000Z</time>
</trkpt>
<trkpt lat="42.665044" lon="-2.15607">
<ele>968</ele>
<time>2013-05-04T14:03:24.000Z</time>
</trkpt>
<trkpt lat="42.665092" lon="-2.156019">
<ele>968</ele>
<time>2013-05-04T14:03:25.000Z</time>
</trkpt>
<trkpt lat="42.665143" lon="-2.15597">
<ele>968</ele>
<time>2013-05-04T14:03:26.000Z</time>
</trkpt>
<trkpt lat="42.665206" lon="-2.155934">
<ele>969</ele>
<time>2013-05-04T14:03:27.000Z</time>
</trkpt>
<trkpt lat="42.665276" lon="-2.155915">
<ele>971</ele>
<time>2013-05-04T14:03:28.000Z</time>
</trkpt>
<trkpt lat="42.665344" lon="-2.155904">
<ele>974</ele>
<time>2013-05-04T14:03:29.000Z</time>
</trkpt>
<trkpt lat="42.665404" lon="-2.155916">
<ele>976</ele>
<time>2013-05-04T14:03:30.000Z</time>
</trkpt>
<trkpt lat="42.665457" lon="-2.155941">
<ele>976</ele>
<time>2013-05-04T14:03:31.000Z</time>
</trkpt>
<trkpt lat="42.665502" lon="-2.155989">
<ele>977</ele>
<time>2013-05-04T14:03:32.000Z</time>
</trkpt>
<trkpt lat="42.665554" lon="-2.156048">
<ele>980</ele>
<time>2013-05-04T14:03:33.000Z</time>
</trkpt>
<trkpt lat="42.665588" lon="-2.156113">
<ele>983</ele>
<time>2013-05-04T14:03:34.000Z</time>
</trkpt>
<trkpt lat="42.665613" lon="-2.156172">
<ele>986</ele>
<time>2013-05-04T14:03:35.000Z</time>
</trkpt>
<trkpt lat="42.665618" lon="-2.156247">
<ele>989</ele>
<time>2013-05-04T14:03:36.000Z</time>
</trkpt>
<trkpt lat="42.665607" lon="-2.156327">
<ele>992</ele>
<time>2013-05-04T14:03:37.000Z</time>
</trkpt>
<trkpt lat="42.665576" lon="-2.156408">
<ele>996</ele>
<time>2013-05-04T14:03:38.000Z</time>
</trkpt>
<trkpt lat="42.665534" lon="-2.156458">
<ele>999</ele>
<time>2013-05-04T14:03:39.000Z</time>
</trkpt>
<trkpt lat="42.665484" lon="-2.156491">
<ele>1001</ele>
<time>2013-05-04T14:03:40.000Z</time>
</trkpt>
<trkpt lat="42.66544" lon="-2.1565">
<ele>1001</ele>
<time>2013-05-04T14:03:41.000Z</time>
</trkpt>
<trkpt lat="42.665395" lon="-2.156488">
<ele>999</ele>
<time>2013-05-04T14:03:42.000Z</time>
</trkpt>
<trkpt lat="42.665346" lon="-2.156467">
<ele>998</ele>
<time>2013-05-04T14:03:43.000Z</time>
</trkpt>
<trkpt lat="42.66529" lon="-2.156436">
<ele>998</ele>
<time>2013-05-04T14:03:44.000Z</time>
</trkpt>
<trkpt lat="42.665241" lon="-2.156384">
<ele>998</ele>
<time>2013-05-04T14:03:45.000Z</time>
</trkpt>
<trkpt lat="42.665214" lon="-2.156308">
<ele>998</ele>
<time>2013-05-04T14:03:46.000Z</time>
</trkpt>
<trkpt lat="42.665216" lon="-2.156223">
<ele>999</ele>
<time>2013-05-04T14:03:47.000Z</time>
</trkpt>
<trkpt lat="42.665223" lon="-2.156138">
<ele>998</ele>
<time>2013-05-04T14:03:48.000Z</time>
</trkpt>
<trkpt lat="42.665228" lon="-2.156063">
<ele>998</ele>
<time>2013-05-04T14:03:49.000Z</time>
</trkpt>
<trkpt lat="42.665221" lon="-2.155992">
<ele>998</ele>
<time>2013-05-04T14:03:50.000Z</time>
</trkpt>
<trkpt lat="42.665226" lon="-2.155923">
<ele>999</ele>
<time>2013-05-04T14:03:51.000Z</time>
</trkpt>
<trkpt lat="42.665252" lon="-2.155865">
<ele>998</ele>
<time>2013-05-04T14:03:52.000Z</time>
</trkpt>
<trkpt lat="42.665287" lon="-2.155776">
<ele>1004</ele>
<time>2013-05-04T14:03:53.000Z</time>
</trkpt>
<trkpt lat="42.665333" lon="-2.155682">
<ele>1005</ele>
<time>2013-05-04T14:03:54.000Z</time>
</trkpt>
<trkpt lat="42.665375" lon="-2.155586">
<ele>1006</ele>
<time>2013-05-04T14:03:55.000Z</time>
</trkpt>
<trkpt lat="42.665412" lon="-2.155497">
<ele>1007</ele>
<time>2013-05-04T14:03:56.000Z</time>
</trkpt>
<trkpt lat="42.665458" lon="-2.155445">
<ele>1009</ele>
<time>2013-05-04T14:03:57.000Z</time>
</trkpt>
<trkpt lat="42.665499" lon="-2.155438">
<ele>1005</ele>
<time>2013-05-04T14:03:58.000Z</time>
</trkpt>
<trkpt lat="42.665549" lon="-2.155444">
<ele>1006</ele>
<time>2013-05-04T14:03:59.000Z</time>
</trkpt>
<trkpt lat="42.665605" lon="-2.155455">
<ele>1008</ele>
<time>2013-05-04T14:04:00.000Z</time>
</trkpt>
<trkpt lat="42.665663" lon="-2.155474">
<ele>1009</ele>
<time>2013-05-04T14:04:01.000Z</time>
</trkpt>
<trkpt lat="42.665712" lon="-2.155491">
<ele>1009</ele>
<time>2013-05-04T14:04:02.000Z</time>
</trkpt>
<trkpt lat="42.665762" lon="-2.155508">
<ele>1010</ele>
<time>2013-05-04T14:04:03.000Z</time>
</trkpt>
<trkpt lat="42.665815" lon="-2.155527">
<ele>1011</ele>
<time>2013-05-04T14:04:04.000Z</time>
</trkpt>
<trkpt lat="42.665875" lon="-2.155555">
<ele>1014</ele>
<time>2013-05-04T14:04:05.000Z</time>
</trkpt>
<trkpt lat="42.665929" lon="-2.155584">
<ele>1015</ele>
<time>2013-05-04T14:04:06.000Z</time>
</trkpt>
<trkpt lat="42.665982" lon="-2.15562">
<ele>1017</ele>
<time>2013-05-04T14:04:07.000Z</time>
</trkpt>
<trkpt lat="42.666032" lon="-2.155679">
<ele>1019</ele>
<time>2013-05-04T14:04:08.000Z</time>
</trkpt>
<trkpt lat="42.666071" lon="-2.155728">
<ele>1021</ele>
<time>2013-05-04T14:04:09.000Z</time>
</trkpt>
<trkpt lat="42.666114" lon="-2.155758">
<ele>1022</ele>
<time>2013-05-04T14:04:10.000Z</time>
</trkpt>
<trkpt lat="42.666171" lon="-2.155771">
<ele>1024</ele>
<time>2013-05-04T14:04:11.000Z</time>
</trkpt>
<trkpt lat="42.666233" lon="-2.155755">
<ele>1025</ele>
<time>2013-05-04T14:04:12.000Z</time>
</trkpt>
<trkpt lat="42.666283" lon="-2.155715">
<ele>1026</ele>
<time>2013-05-04T14:04:13.000Z</time>
</trkpt>
<trkpt lat="42.666322" lon="-2.155654">
<ele>1028</ele>
<time>2013-05-04T14:04:14.000Z</time>
</trkpt>
<trkpt lat="42.666352" lon="-2.155572">
<ele>1030</ele>
<time>2013-05-04T14:04:15.000Z</time>
</trkpt>
<trkpt lat="42.666374" lon="-2.155482">
<ele>1032</ele>
<time>2013-05-04T14:04:16.000Z</time>
</trkpt>
<trkpt lat="42.666378" lon="-2.155389">
<ele>1035</ele>
<time>2013-05-04T14:04:17.000Z</time>
</trkpt>
<trkpt lat="42.666378" lon="-2.155297">
<ele>1036</ele>
<time>2013-05-04T14:04:18.000Z</time>
</trkpt>
<trkpt lat="42.666359" lon="-2.155223">
<ele>1034</ele>
<time>2013-05-04T14:04:19.000Z</time>
</trkpt>
<trkpt lat="42.666324" lon="-2.15516">
<ele>1034</ele>
<time>2013-05-04T14:04:20.000Z</time>
</trkpt>
<trkpt lat="42.666287" lon="-2.155105">
<ele>1033</ele>
<time>2013-05-04T14:04:21.000Z</time>
</trkpt>
<trkpt lat="42.666242" lon="-2.155072">
<ele>1032</ele>
<time>2013-05-04T14:04:22.000Z</time>
</trkpt>
<trkpt lat="42.666192" lon="-2.155044">
<ele>1031</ele>
<time>2013-05-04T14:04:23.000Z</time>
</trkpt>
<trkpt lat="42.666138" lon="-2.155044">
<ele>1029</ele>
<time>2013-05-04T14:04:24.000Z</time>
</trkpt>
<trkpt lat="42.666077" lon="-2.15505">
<ele>1027</ele>
<time>2013-05-04T14:04:25.000Z</time>
</trkpt>
<trkpt lat="42.666003" lon="-2.155078">
<ele>1024</ele>
<time>2013-05-04T14:04:26.000Z</time>
</trkpt>
<trkpt lat="42.665921" lon="-2.155111">
<ele>1023</ele>
<time>2013-05-04T14:04:27.000Z</time>
</trkpt>
<trkpt lat="42.665845" lon="-2.155167">
<ele>1022</ele>
<time>2013-05-04T14:04:28.000Z</time>
</trkpt>
<trkpt lat="42.665774" lon="-2.155229">
<ele>1022</ele>
<time>2013-05-04T14:04:29.000Z</time>
</trkpt>
<trkpt lat="42.665711" lon="-2.155297">
<ele>1023</ele>
<time>2013-05-04T14:04:30.000Z</time>
</trkpt>
<trkpt lat="42.66566" lon="-2.155362">
<ele>1024</ele>
<time>2013-05-04T14:04:31.000Z</time>
</trkpt>
<trkpt lat="42.66562" lon="-2.155419">
<ele>1025</ele>
<time>2013-05-04T14:04:32.000Z</time>
</trkpt>
<trkpt lat="42.665593" lon="-2.155484">
<ele>1026</ele>
<time>2013-05-04T14:04:33.000Z</time>
</trkpt>
<trkpt lat="42.665566" lon="-2.155559">
<ele>1025</ele>
<time>2013-05-04T14:04:34.000Z</time>
</trkpt>
<trkpt lat="42.665543" lon="-2.155643">
<ele>1024</ele>
<time>2013-05-04T14:04:35.000Z</time>
</trkpt>
<trkpt lat="42.665521" lon="-2.155723">
<ele>1024</ele>
<time>2013-05-04T14:04:36.000Z</time>
</trkpt>
<trkpt lat="42.665512" lon="-2.155806">
<ele>1025</ele>
<time>2013-05-04T14:04:37.000Z</time>
</trkpt>
<trkpt lat="42.665527" lon="-2.155878">
<ele>1024</ele>
<time>2013-05-04T14:04:38.000Z</time>
</trkpt>
<trkpt lat="42.665563" lon="-2.155958">
<ele>1023</ele>
<time>2013-05-04T14:04:39.000Z</time>
</trkpt>
<trkpt lat="42.66561" lon="-2.156051">
<ele>1023</ele>
<time>2013-05-04T14:04:40.000Z</time>
</trkpt>
<trkpt lat="42.665669" lon="-2.156155">
<ele>1023</ele>
<time>2013-05-04T14:04:41.000Z</time>
</trkpt>
<trkpt lat="42.66575" lon="-2.156243">
<ele>1025</ele>
<time>2013-05-04T14:04:42.000Z</time>
</trkpt>
<trkpt lat="42.66583" lon="-2.156318">
<ele>1026</ele>
<time>2013-05-04T14:04:43.000Z</time>
</trkpt>
<trkpt lat="42.665909" lon="-2.156356">
<ele>1026</ele>
<time>2013-05-04T14:04:44.000Z</time>
</trkpt>
<trkpt lat="42.665986" lon="-2.15639">
<ele>1028</ele>
<time>2013-05-04T14:04:45.000Z</time>
</trkpt>
<trkpt lat="42.666061" lon="-2.156419">
<ele>1029</ele>
<time>2013-05-04T14:04:46.000Z</time>
</trkpt>
<trkpt lat="42.66614" lon="-2.156449">
<ele>1031</ele>
<time>2013-05-04T14:04:47.000Z</time>
</trkpt>
<trkpt lat="42.666219" lon="-2.15648">
<ele>1034</ele>
<time>2013-05-04T14:04:48.000Z</time>
</trkpt>
<trkpt lat="42.666277" lon="-2.156496">
<ele>1034</ele>
<time>2013-05-04T14:04:49.000Z</time>
</trkpt>
<trkpt lat="42.666336" lon="-2.156511">
<ele>1038</ele>
<time>2013-05-04T14:04:50.000Z</time>
</trkpt>
<trkpt lat="42.666399" lon="-2.156529">
<ele>1040</ele>
<time>2013-05-04T14:04:51.000Z</time>
</trkpt>
<trkpt lat="42.666458" lon="-2.156542">
<ele>1041</ele>
<time>2013-05-04T14:04:52.000Z</time>
</trkpt>
<trkpt lat="42.66651" lon="-2.156551">
<ele>1043</ele>
<time>2013-05-04T14:04:53.000Z</time>
</trkpt>
<trkpt lat="42.666569" lon="-2.156554">
<ele>1043</ele>
<time>2013-05-04T14:04:54.000Z</time>
</trkpt>
<trkpt lat="42.666633" lon="-2.156557">
<ele>1043</ele>
<time>2013-05-04T14:04:55.000Z</time>
</trkpt>
<trkpt lat="42.66669" lon="-2.156581">
<ele>1044</ele>
<time>2013-05-04T14:04:56.000Z</time>
</trkpt>
<trkpt lat="42.666738" lon="-2.156633">
<ele>1045</ele>
<time>2013-05-04T14:04:57.000Z</time>
</trkpt>
<trkpt lat="42.666765" lon="-2.156698">
<ele>1046</ele>
<time>2013-05-04T14:04:58.000Z</time>
</trkpt>
<trkpt lat="42.66679" lon="-2.156771">
<ele>1047</ele>
<time>2013-05-04T14:04:59.000Z</time>
</trkpt>
<trkpt lat="42.666803" lon="-2.156846">
<ele>1051</ele>
<time>2013-05-04T14:05:00.000Z</time>
</trkpt>
<trkpt lat="42.6668" lon="-2.156919">
<ele>1054</ele>
<time>2013-05-04T14:05:01.000Z</time>
</trkpt>
<trkpt lat="42.666775" lon="-2.156981">
<ele>1055</ele>
<time>2013-05-04T14:05:02.000Z</time>
</trkpt>
<trkpt lat="42.666731" lon="-2.157049">
<ele>1057</ele>
<time>2013-05-04T14:05:03.000Z</time>
</trkpt>
<trkpt lat="42.666683" lon="-2.157113">
<ele>1059</ele>
<time>2013-05-04T14:05:04.000Z</time>
</trkpt>
<trkpt lat="42.666635" lon="-2.157162">
<ele>1061</ele>
<time>2013-05-04T14:05:05.000Z</time>
</trkpt>
<trkpt lat="42.666589" lon="-2.15719">
<ele>1065</ele>
<time>2013-05-04T14:05:06.000Z</time>
</trkpt>
<trkpt lat="42.666545" lon="-2.157191">
<ele>1067</ele>
<time>2013-05-04T14:05:07.000Z</time>
</trkpt>
<trkpt lat="42.6665" lon="-2.157189">
<ele>1070</ele>
<time>2013-05-04T14:05:08.000Z</time>
</trkpt>
<trkpt lat="42.666446" lon="-2.157181">
<ele>1072</ele>
<time>2013-05-04T14:05:09.000Z</time>
</trkpt>
<trkpt lat="42.666389" lon="-2.157164">
<ele>1073</ele>
<time>2013-05-04T14:05:10.000Z</time>
</trkpt>
<trkpt lat="42.666331" lon="-2.157123">
<ele>1073</ele>
<time>2013-05-04T14:05:11.000Z</time>
</trkpt>
<trkpt lat="42.666282" lon="-2.157056">
<ele>1073</ele>
<time>2013-05-04T14:05:12.000Z</time>
</trkpt>
<trkpt lat="42.666247" lon="-2.156968">
<ele>1073</ele>
<time>2013-05-04T14:05:13.000Z</time>
</trkpt>
<trkpt lat="42.66623" lon="-2.156867">
<ele>1073</ele>
<time>2013-05-04T14:05:14.000Z</time>
</trkpt>
<trkpt lat="42.666216" lon="-2.156756">
<ele>1074</ele>
<time>2013-05-04T14:05:15.000Z</time>
</trkpt>
<trkpt lat="42.666221" lon="-2.156651">
<ele>1077</ele>
<time>2013-05-04T14:05:16.000Z</time>
</trkpt>
<trkpt lat="42.666246" lon="-2.156552">
<ele>1079</ele>
<time>2013-05-04T14:05:17.000Z</time>
</trkpt>
<trkpt lat="42.666273" lon="-2.156458">
<ele>1083</ele>
<time>2013-05-04T14:05:18.000Z</time>
</trkpt>
<trkpt lat="42.666303" lon="-2.156369">
<ele>1085</ele>
<time>2013-05-04T14:05:19.000Z</time>
</trkpt>
<trkpt lat="42.666336" lon="-2.156282">
<ele>1084</ele>
<time>2013-05-04T14:05:20.000Z</time>
</trkpt>
<trkpt lat="42.66638" lon="-2.156218">
<ele>1085</ele>
<time>2013-05-04T14:05:21.000Z</time>
</trkpt>
<trkpt lat="42.666434" lon="-2.156176">
<ele>1085</ele>
<time>2013-05-04T14:05:22.000Z</time>
</trkpt>
<trkpt lat="42.666488" lon="-2.156168">
<ele>1085</ele>
<time>2013-05-04T14:05:23.000Z</time>
</trkpt>
<trkpt lat="42.666532" lon="-2.156182">
<ele>1087</ele>
<time>2013-05-04T14:05:24.000Z</time>
</trkpt>
<trkpt lat="42.666585" lon="-2.156206">
<ele>1088</ele>
<time>2013-05-04T14:05:25.000Z</time>
</trkpt>
<trkpt lat="42.666637" lon="-2.156238">
<ele>1088</ele>
<time>2013-05-04T14:05:26.000Z</time>
</trkpt>
<trkpt lat="42.666668" lon="-2.156293">
<ele>1087</ele>
<time>2013-05-04T14:05:27.000Z</time>
</trkpt>
<trkpt lat="42.666694" lon="-2.156375">
<ele>1087</ele>
<time>2013-05-04T14:05:28.000Z</time>
</trkpt>
<trkpt lat="42.666692" lon="-2.15647">
<ele>1089</ele>
<time>2013-05-04T14:05:29.000Z</time>
</trkpt>
<trkpt lat="42.666662" lon="-2.156559">
<ele>1091</ele>
<time>2013-05-04T14:05:30.000Z</time>
</trkpt>
<trkpt lat="42.666613" lon="-2.156638">
<ele>1095</ele>
<time>2013-05-04T14:05:31.000Z</time>
</trkpt>
<trkpt lat="42.666556" lon="-2.156679">
<ele>1098</ele>
<time>2013-05-04T14:05:32.000Z</time>
</trkpt>
<trkpt lat="42.666497" lon="-2.156696">
<ele>1100</ele>
<time>2013-05-04T14:05:33.000Z</time>
</trkpt>
<trkpt lat="42.666436" lon="-2.156686">
<ele>1102</ele>
<time>2013-05-04T14:05:34.000Z</time>
</trkpt>
<trkpt lat="42.666373" lon="-2.156668">
<ele>1103</ele>
<time>2013-05-04T14:05:35.000Z</time>
</trkpt>
<trkpt lat="42.666305" lon="-2.156643">
<ele>1104</ele>
<time>2013-05-04T14:05:36.000Z</time>
</trkpt>
<trkpt lat="42.666235" lon="-2.156615">
<ele>1104</ele>
<time>2013-05-04T14:05:37.000Z</time>
</trkpt>
<trkpt lat="42.666176" lon="-2.15657">
<ele>1104</ele>
<time>2013-05-04T14:05:38.000Z</time>
</trkpt>
<trkpt lat="42.666126" lon="-2.156521">
<ele>1105</ele>
<time>2013-05-04T14:05:39.000Z</time>
</trkpt>
<trkpt lat="42.666087" lon="-2.15645">
<ele>1105</ele>
<time>2013-05-04T14:05:40.000Z</time>
</trkpt>
<trkpt lat="42.666051" lon="-2.156375">
<ele>1105</ele>
<time>2013-05-04T14:05:41.000Z</time>
</trkpt>
<trkpt lat="42.666017" lon="-2.15629">
<ele>1107</ele>
<time>2013-05-04T14:05:42.000Z</time>
</trkpt>
<trkpt lat="42.665999" lon="-2.15619">
<ele>1108</ele>
<time>2013-05-04T14:05:43.000Z</time>
</trkpt>
<trkpt lat="42.665996" lon="-2.156085">
<ele>1106</ele>
<time>2013-05-04T14:05:44.000Z</time>
</trkpt>
<trkpt lat="42.665999" lon="-2.155976">
<ele>1105</ele>
<time>2013-05-04T14:05:45.000Z</time>
</trkpt>
<trkpt lat="42.66602" lon="-2.155865">
<ele>1104</ele>
<time>2013-05-04T14:05:46.000Z</time>
</trkpt>
<trkpt lat="42.666046" lon="-2.155751">
<ele>1104</ele>
<time>2013-05-04T14:05:47.000Z</time>
</trkpt>
<trkpt lat="42.666094" lon="-2.155662">
<ele>1104</ele>
<time>2013-05-04T14:05:48.000Z</time>
</trkpt>
<trkpt lat="42.666165" lon="-2.155605">
<ele>1103</ele>
<time>2013-05-04T14:05:49.000Z</time>
</trkpt>
<trkpt lat="42.666245" lon="-2.155585">
<ele>1102</ele>
<time>2013-05-04T14:05:50.000Z</time>
</trkpt>
<trkpt lat="42.66633" lon="-2.155611">
<ele>1101</ele>
<time>2013-05-04T14:05:51.000Z</time>
</trkpt>
<trkpt lat="42.6664" lon="-2.155672">
<ele>1100</ele>
<time>2013-05-04T14:05:52.000Z</time>
</trkpt>
<trkpt lat="42.666455" lon="-2.155745">
<ele>1100</ele>
<time>2013-05-04T14:05:53.000Z</time>
</trkpt>
<trkpt lat="42.666499" lon="-2.155806">
<ele>1101</ele>
<time>2013-05-04T14:05:54.000Z</time>
</trkpt>
<trkpt lat="42.666537" lon="-2.15586">
<ele>1101</ele>
<time>2013-05-04T14:05:55.000Z</time>
</trkpt>
<trkpt lat="42.666575" lon="-2.155924">
<ele>1100</ele>
<time>2013-05-04T14:05:56.000Z</time>
</trkpt>
<trkpt lat="42.666619" lon="-2.156005">
<ele>1099</ele>
<time>2013-05-04T14:05:57.000Z</time>
</trkpt>
<trkpt lat="42.666677" lon="-2.156102">
<ele>1099</ele>
<time>2013-05-04T14:05:58.000Z</time>
</trkpt>
<trkpt lat="42.666729" lon="-2.15619">
<ele>1098</ele>
<time>2013-05-04T14:05:59.000Z</time>
</trkpt>
<trkpt lat="42.666768" lon="-2.156267">
<ele>1095</ele>
<time>2013-05-04T14:06:00.000Z</time>
</trkpt>
<trkpt lat="42.666803" lon="-2.15635">
<ele>1094</ele>
<time>2013-05-04T14:06:01.000Z</time>
</trkpt>
<trkpt lat="42.666836" lon="-2.156438">
<ele>1093</ele>
<time>2013-05-04T14:06:02.000Z</time>
</trkpt>
<trkpt lat="42.666875" lon="-2.156531">
<ele>1091</ele>
<time>2013-05-04T14:06:03.000Z</time>
</trkpt>
<trkpt lat="42.666935" lon="-2.156606">
<ele>1090</ele>
<time>2013-05-04T14:06:04.000Z</time>
</trkpt>
<trkpt lat="42.666997" lon="-2.156673">
<ele>1090</ele>
<time>2013-05-04T14:06:05.000Z</time>
</trkpt>
<trkpt lat="42.667064" lon="-2.156685">
<ele>1090</ele>
<time>2013-05-04T14:06:06.000Z</time>
</trkpt>
<trkpt lat="42.667134" lon="-2.156666">
<ele>1090</ele>
<time>2013-05-04T14:06:07.000Z</time>
</trkpt>
<trkpt lat="42.667189" lon="-2.156612">
<ele>1087</ele>
<time>2013-05-04T14:06:08.000Z</time>
</trkpt>
<trkpt lat="42.667235" lon="-2.156534">
<ele>1085</ele>
<time>2013-05-04T14:06:09.000Z</time>
</trkpt>
<trkpt lat="42.667281" lon="-2.156442">
<ele>1084</ele>
<time>2013-05-04T14:06:10.000Z</time>
</trkpt>
<trkpt lat="42.66732" lon="-2.156354">
<ele>1083</ele>
<time>2013-05-04T14:06:11.000Z</time>
</trkpt>
<trkpt lat="42.667356" lon="-2.156264">
<ele>1083</ele>
<time>2013-05-04T14:06:12.000Z</time>
</trkpt>
<trkpt lat="42.667389" lon="-2.156168">
<ele>1082</ele>
<time>2013-05-04T14:06:13.000Z</time>
</trkpt>
<trkpt lat="42.66741" lon="-2.156056">
<ele>1081</ele>
<time>2013-05-04T14:06:14.000Z</time>
</trkpt>
<trkpt lat="42.66743" lon="-2.155936">
<ele>1080</ele>
<time>2013-05-04T14:06:15.000Z</time>
</trkpt>
<trkpt lat="42.667445" lon="-2.155814">
<ele>1081</ele>
<time>2013-05-04T14:06:16.000Z</time>
</trkpt>
<trkpt lat="42.667454" lon="-2.1557">
<ele>1081</ele>
<time>2013-05-04T14:06:17.000Z</time>
</trkpt>
<trkpt lat="42.667457" lon="-2.155594">
<ele>1083</ele>
<time>2013-05-04T14:06:18.000Z</time>
</trkpt>
<trkpt lat="42.667458" lon="-2.15539">
<ele>1082</ele>
<time>2013-05-04T14:06:20.000Z</time>
</trkpt>
<trkpt lat="42.667454" lon="-2.155285">
<ele>1084</ele>
<time>2013-05-04T14:06:21.000Z</time>
</trkpt>
<trkpt lat="42.667449" lon="-2.155187">
<ele>1085</ele>
<time>2013-05-04T14:06:22.000Z</time>
</trkpt>
<trkpt lat="42.667445" lon="-2.155089">
<ele>1085</ele>
<time>2013-05-04T14:06:23.000Z</time>
</trkpt>
<trkpt lat="42.667439" lon="-2.154986">
<ele>1083</ele>
<time>2013-05-04T14:06:24.000Z</time>
</trkpt>
<trkpt lat="42.667434" lon="-2.154881">
<ele>1082</ele>
<time>2013-05-04T14:06:25.000Z</time>
</trkpt>
<trkpt lat="42.667426" lon="-2.154772">
<ele>1083</ele>
<time>2013-05-04T14:06:26.000Z</time>
</trkpt>
<trkpt lat="42.667417" lon="-2.154662">
<ele>1083</ele>
<time>2013-05-04T14:06:27.000Z</time>
</trkpt>
<trkpt lat="42.667408" lon="-2.154544">
<ele>1083</ele>
<time>2013-05-04T14:06:28.000Z</time>
</trkpt>
<trkpt lat="42.667398" lon="-2.154435">
<ele>1081</ele>
<time>2013-05-04T14:06:29.000Z</time>
</trkpt>
<trkpt lat="42.667389" lon="-2.154344">
<ele>1081</ele>
<time>2013-05-04T14:06:30.000Z</time>
</trkpt>
<trkpt lat="42.667381" lon="-2.154274">
<ele>1082</ele>
<time>2013-05-04T14:06:31.000Z</time>
</trkpt>
<trkpt lat="42.667371" lon="-2.154213">
<ele>1083</ele>
<time>2013-05-04T14:06:32.000Z</time>
</trkpt>
<trkpt lat="42.66736" lon="-2.154162">
<ele>1085</ele>
<time>2013-05-04T14:06:33.000Z</time>
</trkpt>
<trkpt lat="42.667352" lon="-2.15411">
<ele>1086</ele>
<time>2013-05-04T14:06:34.000Z</time>
</trkpt>
<trkpt lat="42.66736" lon="-2.154053">
<ele>1087</ele>
<time>2013-05-04T14:06:35.000Z</time>
</trkpt>
<trkpt lat="42.667369" lon="-2.153987">
<ele>1087</ele>
<time>2013-05-04T14:06:36.000Z</time>
</trkpt>
<trkpt lat="42.667367" lon="-2.153914">
<ele>1088</ele>
<time>2013-05-04T14:06:37.000Z</time>
</trkpt>
<trkpt lat="42.667343" lon="-2.153848">
<ele>1088</ele>
<time>2013-05-04T14:06:38.000Z</time>
</trkpt>
<trkpt lat="42.667301" lon="-2.153795">
<ele>1090</ele>
<time>2013-05-04T14:06:39.000Z</time>
</trkpt>
<trkpt lat="42.667253" lon="-2.153748">
<ele>1092</ele>
<time>2013-05-04T14:06:40.000Z</time>
</trkpt>
<trkpt lat="42.667197" lon="-2.153703">
<ele>1093</ele>
<time>2013-05-04T14:06:41.000Z</time>
</trkpt>
<trkpt lat="42.667133" lon="-2.153658">
<ele>1095</ele>
<time>2013-05-04T14:06:42.000Z</time>
</trkpt>
<trkpt lat="42.667063" lon="-2.153633">
<ele>1097</ele>
<time>2013-05-04T14:06:43.000Z</time>
</trkpt>
<trkpt lat="42.666979" lon="-2.153631">
<ele>1097</ele>
<time>2013-05-04T14:06:44.000Z</time>
</trkpt>
<trkpt lat="42.666886" lon="-2.153655">
<ele>1098</ele>
<time>2013-05-04T14:06:45.000Z</time>
</trkpt>
<trkpt lat="42.666802" lon="-2.153687">
<ele>1100</ele>
<time>2013-05-04T14:06:46.000Z</time>
</trkpt>
<trkpt lat="42.666724" lon="-2.153723">
<ele>1101</ele>
<time>2013-05-04T14:06:47.000Z</time>
</trkpt>
<trkpt lat="42.666652" lon="-2.15376">
<ele>1102</ele>
<time>2013-05-04T14:06:48.000Z</time>
</trkpt>
<trkpt lat="42.666588" lon="-2.153801">
<ele>1103</ele>
<time>2013-05-04T14:06:49.000Z</time>
</trkpt>
<trkpt lat="42.666523" lon="-2.153864">
<ele>1104</ele>
<time>2013-05-04T14:06:50.000Z</time>
</trkpt>
<trkpt lat="42.66646" lon="-2.153954">
<ele>1104</ele>
<time>2013-05-04T14:06:51.000Z</time>
</trkpt>
<trkpt lat="42.666416" lon="-2.154066">
<ele>1105</ele>
<time>2013-05-04T14:06:52.000Z</time>
</trkpt>
<trkpt lat="42.666396" lon="-2.15418">
<ele>1104</ele>
<time>2013-05-04T14:06:53.000Z</time>
</trkpt>
<trkpt lat="42.666395" lon="-2.154291">
<ele>1104</ele>
<time>2013-05-04T14:06:54.000Z</time>
</trkpt>
<trkpt lat="42.666412" lon="-2.154391">
<ele>1104</ele>
<time>2013-05-04T14:06:55.000Z</time>
</trkpt>
<trkpt lat="42.666445" lon="-2.154471">
<ele>1104</ele>
<time>2013-05-04T14:06:56.000Z</time>
</trkpt>
<trkpt lat="42.666491" lon="-2.154533">
<ele>1104</ele>
<time>2013-05-04T14:06:57.000Z</time>
</trkpt>
<trkpt lat="42.666545" lon="-2.154578">
<ele>1102</ele>
<time>2013-05-04T14:06:58.000Z</time>
</trkpt>
<trkpt lat="42.66661" lon="-2.1546">
<ele>1100</ele>
<time>2013-05-04T14:06:59.000Z</time>
</trkpt>
<trkpt lat="42.666663" lon="-2.154587">
<ele>1099</ele>
<time>2013-05-04T14:07:00.000Z</time>
</trkpt>
<trkpt lat="42.66671" lon="-2.154552">
<ele>1099</ele>
<time>2013-05-04T14:07:01.000Z</time>
</trkpt>
<trkpt lat="42.666756" lon="-2.154499">
<ele>1100</ele>
<time>2013-05-04T14:07:02.000Z</time>
</trkpt>
<trkpt lat="42.666793" lon="-2.154428">
<ele>1101</ele>
<time>2013-05-04T14:07:03.000Z</time>
</trkpt>
<trkpt lat="42.666824" lon="-2.15436">
<ele>1102</ele>
<time>2013-05-04T14:07:04.000Z</time>
</trkpt>
<trkpt lat="42.666833" lon="-2.154288">
<ele>1102</ele>
<time>2013-05-04T14:07:05.000Z</time>
</trkpt>
<trkpt lat="42.666839" lon="-2.154216">
<ele>1103</ele>
<time>2013-05-04T14:07:06.000Z</time>
</trkpt>
<trkpt lat="42.666845" lon="-2.154133">
<ele>1104</ele>
<time>2013-05-04T14:07:07.000Z</time>
</trkpt>
<trkpt lat="42.666851" lon="-2.154038">
<ele>1105</ele>
<time>2013-05-04T14:07:08.000Z</time>
</trkpt>
<trkpt lat="42.666854" lon="-2.153942">
<ele>1105</ele>
<time>2013-05-04T14:07:09.000Z</time>
</trkpt>
<trkpt lat="42.666839" lon="-2.153845">
<ele>1106</ele>
<time>2013-05-04T14:07:10.000Z</time>
</trkpt>
<trkpt lat="42.666824" lon="-2.153761">
<ele>1108</ele>
<time>2013-05-04T14:07:11.000Z</time>
</trkpt>
<trkpt lat="42.66681" lon="-2.15369">
<ele>1110</ele>
<time>2013-05-04T14:07:12.000Z</time>
</trkpt>
<trkpt lat="42.666807" lon="-2.153609">
<ele>1112</ele>
<time>2013-05-04T14:07:13.000Z</time>
</trkpt>
<trkpt lat="42.666808" lon="-2.153524">
<ele>1114</ele>
<time>2013-05-04T14:07:14.000Z</time>
</trkpt>
<trkpt lat="42.666815" lon="-2.153436">
<ele>1115</ele>
<time>2013-05-04T14:07:15.000Z</time>
</trkpt>
<trkpt lat="42.666842" lon="-2.153355">
<ele>1116</ele>
<time>2013-05-04T14:07:16.000Z</time>
</trkpt>
<trkpt lat="42.666888" lon="-2.153291">
<ele>1117</ele>
<time>2013-05-04T14:07:17.000Z</time>
</trkpt>
<trkpt lat="42.666943" lon="-2.153258">
<ele>1119</ele>
<time>2013-05-04T14:07:18.000Z</time>
</trkpt>
<trkpt lat="42.667055" lon="-2.153246">
<ele>1121</ele>
<time>2013-05-04T14:07:20.000Z</time>
</trkpt>
<trkpt lat="42.667115" lon="-2.153275">
<ele>1121</ele>
<time>2013-05-04T14:07:21.000Z</time>
</trkpt>
<trkpt lat="42.667186" lon="-2.15334">
<ele>1123</ele>
<time>2013-05-04T14:07:22.000Z</time>
</trkpt>
<trkpt lat="42.66724" lon="-2.153427">
<ele>1122</ele>
<time>2013-05-04T14:07:23.000Z</time>
</trkpt>
<trkpt lat="42.667281" lon="-2.153504">
<ele>1123</ele>
<time>2013-05-04T14:07:24.000Z</time>
</trkpt>
<trkpt lat="42.6673" lon="-2.153595">
<ele>1127</ele>
<time>2013-05-04T14:07:25.000Z</time>
</trkpt>
<trkpt lat="42.667299" lon="-2.153679">
<ele>1132</ele>
<time>2013-05-04T14:07:26.000Z</time>
</trkpt>
<trkpt lat="42.667293" lon="-2.153774">
<ele>1136</ele>
<time>2013-05-04T14:07:27.000Z</time>
</trkpt>
<trkpt lat="42.667281" lon="-2.153873">
<ele>1138</ele>
<time>2013-05-04T14:07:28.000Z</time>
</trkpt>
<trkpt lat="42.667265" lon="-2.153969">
<ele>1141</ele>
<time>2013-05-04T14:07:29.000Z</time>
</trkpt>
<trkpt lat="42.667245" lon="-2.154056">
<ele>1143</ele>
<time>2013-05-04T14:07:30.000Z</time>
</trkpt>
<trkpt lat="42.667211" lon="-2.154142">
<ele>1146</ele>
<time>2013-05-04T14:07:31.000Z</time>
</trkpt>
<trkpt lat="42.667162" lon="-2.154208">
<ele>1149</ele>
<time>2013-05-04T14:07:32.000Z</time>
</trkpt>
<trkpt lat="42.667099" lon="-2.154255">
<ele>1152</ele>
<time>2013-05-04T14:07:33.000Z</time>
</trkpt>
<trkpt lat="42.667027" lon="-2.154297">
<ele>1153</ele>
<time>2013-05-04T14:07:34.000Z</time>
</trkpt>
<trkpt lat="42.666955" lon="-2.154327">
<ele>1155</ele>
<time>2013-05-04T14:07:35.000Z</time>
</trkpt>
<trkpt lat="42.666877" lon="-2.154318">
<ele>1155</ele>
<time>2013-05-04T14:07:36.000Z</time>
</trkpt>
<trkpt lat="42.666802" lon="-2.154277">
<ele>1155</ele>
<time>2013-05-04T14:07:37.000Z</time>
</trkpt>
<trkpt lat="42.666741" lon="-2.154207">
<ele>1156</ele>
<time>2013-05-04T14:07:38.000Z</time>
</trkpt>
<trkpt lat="42.666686" lon="-2.154129">
<ele>1156</ele>
<time>2013-05-04T14:07:39.000Z</time>
</trkpt>
<trkpt lat="42.666652" lon="-2.154032">
<ele>1158</ele>
<time>2013-05-04T14:07:40.000Z</time>
</trkpt>
<trkpt lat="42.666621" lon="-2.15393">
<ele>1162</ele>
<time>2013-05-04T14:07:41.000Z</time>
</trkpt>
<trkpt lat="42.66661" lon="-2.153826">
<ele>1165</ele>
<time>2013-05-04T14:07:42.000Z</time>
</trkpt>
<trkpt lat="42.666608" lon="-2.153726">
<ele>1166</ele>
<time>2013-05-04T14:07:43.000Z</time>
</trkpt>
<trkpt lat="42.666613" lon="-2.15363">
<ele>1167</ele>
<time>2013-05-04T14:07:44.000Z</time>
</trkpt>
<trkpt lat="42.666637" lon="-2.153542">
<ele>1169</ele>
<time>2013-05-04T14:07:45.000Z</time>
</trkpt>
<trkpt lat="42.666674" lon="-2.153472">
<ele>1170</ele>
<time>2013-05-04T14:07:46.000Z</time>
</trkpt>
<trkpt lat="42.666724" lon="-2.153417">
<ele>1170</ele>
<time>2013-05-04T14:07:47.000Z</time>
</trkpt>
<trkpt lat="42.666773" lon="-2.153372">
<ele>1172</ele>
<time>2013-05-04T14:07:48.000Z</time>
</trkpt>
<trkpt lat="42.666822" lon="-2.153335">
<ele>1172</ele>
<time>2013-05-04T14:07:49.000Z</time>
</trkpt>
<trkpt lat="42.666872" lon="-2.153303">
<ele>1171</ele>
<time>2013-05-04T14:07:50.000Z</time>
</trkpt>
<trkpt lat="42.66693" lon="-2.15327">
<ele>1170</ele>
<time>2013-05-04T14:07:51.000Z</time>
</trkpt>
<trkpt lat="42.666995" lon="-2.153238">
<ele>1171</ele>
<time>2013-05-04T14:07:52.000Z</time>
</trkpt>
<trkpt lat="42.667071" lon="-2.153224">
<ele>1172</ele>
<time>2013-05-04T14:07:53.000Z</time>
</trkpt>
<trkpt lat="42.667146" lon="-2.153217">
<ele>1173</ele>
<time>2013-05-04T14:07:54.000Z</time>
</trkpt>
<trkpt lat="42.667224" lon="-2.153219">
<ele>1175</ele>
<time>2013-05-04T14:07:55.000Z</time>
</trkpt>
<trkpt lat="42.667303" lon="-2.153241">
<ele>1175</ele>
<time>2013-05-04T14:07:56.000Z</time>
</trkpt>
<trkpt lat="42.667382" lon="-2.153266">
<ele>1176</ele>
<time>2013-05-04T14:07:57.000Z</time>
</trkpt>
<trkpt lat="42.667463" lon="-2.153298">
<ele>1178</ele>
<time>2013-05-04T14:07:58.000Z</time>
</trkpt>
<trkpt lat="42.667537" lon="-2.15335">
<ele>1178</ele>
<time>2013-05-04T14:07:59.000Z</time>
</trkpt>
<trkpt lat="42.667611" lon="-2.153405">
<ele>1179</ele>
<time>2013-05-04T14:08:00.000Z</time>
</trkpt>
<trkpt lat="42.667681" lon="-2.153462">
<ele>1180</ele>
<time>2013-05-04T14:08:01.000Z</time>
</trkpt>
<trkpt lat="42.667746" lon="-2.153521">
<ele>1181</ele>
<time>2013-05-04T14:08:02.000Z</time>
</trkpt>
<trkpt lat="42.667808" lon="-2.153588">
<ele>1182</ele>
<time>2013-05-04T14:08:03.000Z</time>
</trkpt>
<trkpt lat="42.667859" lon="-2.153683">
<ele>1182</ele>
<time>2013-05-04T14:08:04.000Z</time>
</trkpt>
<trkpt lat="42.66792" lon="-2.153813">
<ele>1187</ele>
<time>2013-05-04T14:08:05.000Z</time>
</trkpt>
<trkpt lat="42.667955" lon="-2.153949">
<ele>1188</ele>
<time>2013-05-04T14:08:06.000Z</time>
</trkpt>
<trkpt lat="42.667974" lon="-2.154067">
<ele>1190</ele>
<time>2013-05-04T14:08:07.000Z</time>
</trkpt>
<trkpt lat="42.667969" lon="-2.154173">
<ele>1191</ele>
<time>2013-05-04T14:08:08.000Z</time>
</trkpt>
<trkpt lat="42.667965" lon="-2.154265">
<ele>1192</ele>
<time>2013-05-04T14:08:09.000Z</time>
</trkpt>
<trkpt lat="42.66796" lon="-2.154359">
<ele>1191</ele>
<time>2013-05-04T14:08:10.000Z</time>
</trkpt>
<trkpt lat="42.667948" lon="-2.15447">
<ele>1191</ele>
<time>2013-05-04T14:08:11.000Z</time>
</trkpt>
<trkpt lat="42.667908" lon="-2.154585">
<ele>1193</ele>
<time>2013-05-04T14:08:12.000Z</time>
</trkpt>
<trkpt lat="42.667849" lon="-2.15469">
<ele>1195</ele>
<time>2013-05-04T14:08:13.000Z</time>
</trkpt>
<trkpt lat="42.667792" lon="-2.154777">
<ele>1196</ele>
<time>2013-05-04T14:08:14.000Z</time>
</trkpt>
<trkpt lat="42.667726" lon="-2.15484">
<ele>1198</ele>
<time>2013-05-04T14:08:15.000Z</time>
</trkpt>
<trkpt lat="42.667666" lon="-2.154893">
<ele>1199</ele>
<time>2013-05-04T14:08:16.000Z</time>
</trkpt>
<trkpt lat="42.667598" lon="-2.154944">
<ele>1201</ele>
<time>2013-05-04T14:08:17.000Z</time>
</trkpt>
<trkpt lat="42.667525" lon="-2.154989">
<ele>1202</ele>
<time>2013-05-04T14:08:18.000Z</time>
</trkpt>
<trkpt lat="42.667447" lon="-2.155028">
<ele>1201</ele>
<time>2013-05-04T14:08:19.000Z</time>
</trkpt>
<trkpt lat="42.667365" lon="-2.155061">
<ele>1202</ele>
<time>2013-05-04T14:08:20.000Z</time>
</trkpt>
<trkpt lat="42.667291" lon="-2.155081">
<ele>1203</ele>
<time>2013-05-04T14:08:21.000Z</time>
</trkpt>
<trkpt lat="42.66721" lon="-2.155077">
<ele>1204</ele>
<time>2013-05-04T14:08:22.000Z</time>
</trkpt>
<trkpt lat="42.667132" lon="-2.155067">
<ele>1207</ele>
<time>2013-05-04T14:08:23.000Z</time>
</trkpt>
<trkpt lat="42.667062" lon="-2.155051">
<ele>1209</ele>
<time>2013-05-04T14:08:24.000Z</time>
</trkpt>
<trkpt lat="42.666992" lon="-2.155026">
<ele>1210</ele>
<time>2013-05-04T14:08:25.000Z</time>
</trkpt>
<trkpt lat="42.66692" lon="-2.154991">
<ele>1212</ele>
<time>2013-05-04T14:08:26.000Z</time>
</trkpt>
<trkpt lat="42.666839" lon="-2.154938">
<ele>1213</ele>
<time>2013-05-04T14:08:27.000Z</time>
</trkpt>
<trkpt lat="42.666771" lon="-2.15487">
<ele>1213</ele>
<time>2013-05-04T14:08:28.000Z</time>
</trkpt>
<trkpt lat="42.666711" lon="-2.154796">
<ele>1215</ele>
<time>2013-05-04T14:08:29.000Z</time>
</trkpt>
<trkpt lat="42.666675" lon="-2.154714">
<ele>1216</ele>
<time>2013-05-04T14:08:30.000Z</time>
</trkpt>
<trkpt lat="42.666644" lon="-2.154638">
<ele>1218</ele>
<time>2013-05-04T14:08:31.000Z</time>
</trkpt>
<trkpt lat="42.666619" lon="-2.154561">
<ele>1220</ele>
<time>2013-05-04T14:08:32.000Z</time>
</trkpt>
<trkpt lat="42.666621" lon="-2.154468">
<ele>1220</ele>
<time>2013-05-04T14:08:33.000Z</time>
</trkpt>
<trkpt lat="42.666646" lon="-2.154365">
<ele>1222</ele>
<time>2013-05-04T14:08:34.000Z</time>
</trkpt>
<trkpt lat="42.666691" lon="-2.154259">
<ele>1221</ele>
<time>2013-05-04T14:08:35.000Z</time>
</trkpt>
<trkpt lat="42.666761" lon="-2.154168">
<ele>1222</ele>
<time>2013-05-04T14:08:36.000Z</time>
</trkpt>
<trkpt lat="42.666835" lon="-2.154126">
<ele>1224</ele>
<time>2013-05-04T14:08:37.000Z</time>
</trkpt>
<trkpt lat="42.666912" lon="-2.154128">
<ele>1225</ele>
<time>2013-05-04T14:08:38.000Z</time>
</trkpt>
<trkpt lat="42.666989" lon="-2.154167">
<ele>1227</ele>
<time>2013-05-04T14:08:39.000Z</time>
</trkpt>
<trkpt lat="42.667055" lon="-2.154235">
<ele>1228</ele>
<time>2013-05-04T14:08:40.000Z</time>
</trkpt>
<trkpt lat="42.667123" lon="-2.154311">
<ele>1231</ele>
<time>2013-05-04T14:08:41.000Z</time>
</trkpt>
<trkpt lat="42.66716" lon="-2.154403">
<ele>1231</ele>
<time>2013-05-04T14:08:42.000Z</time>
</trkpt>
<trkpt lat="42.667191" lon="-2.154492">
<ele>1233</ele>
<time>2013-05-04T14:08:43.000Z</time>
</trkpt>
<trkpt lat="42.667196" lon="-2.154593">
<ele>1236</ele>
<time>2013-05-04T14:08:44.000Z</time>
</trkpt>
<trkpt lat="42.667181" lon="-2.154687">
<ele>1237</ele>
<time>2013-05-04T14:08:45.000Z</time>
</trkpt>
<trkpt lat="42.667157" lon="-2.154791">
<ele>1238</ele>
<time>2013-05-04T14:08:46.000Z</time>
</trkpt>
<trkpt lat="42.667125" lon="-2.154899">
<ele>1239</ele>
<time>2013-05-04T14:08:47.000Z</time>
</trkpt>
<trkpt lat="42.667086" lon="-2.155003">
<ele>1240</ele>
<time>2013-05-04T14:08:48.000Z</time>
</trkpt>
<trkpt lat="42.667028" lon="-2.155094">
<ele>1243</ele>
<time>2013-05-04T14:08:49.000Z</time>
</trkpt>
<trkpt lat="42.666964" lon="-2.155176">
<ele>1245</ele>
<time>2013-05-04T14:08:50.000Z</time>
</trkpt>
<trkpt lat="42.666888" lon="-2.155236">
<ele>1247</ele>
<time>2013-05-04T14:08:51.000Z</time>
</trkpt>
<trkpt lat="42.666817" lon="-2.155287">
<ele>1249</ele>
<time>2013-05-04T14:08:52.000Z</time>
</trkpt>
<trkpt lat="42.666751" lon="-2.155327">
<ele>1251</ele>
<time>2013-05-04T14:08:53.000Z</time>
</trkpt>
<trkpt lat="42.666689" lon="-2.155362">
<ele>1253</ele>
<time>2013-05-04T14:08:54.000Z</time>
</trkpt>
<trkpt lat="42.666619" lon="-2.155393">
<ele>1256</ele>
<time>2013-05-04T14:08:55.000Z</time>
</trkpt>
<trkpt lat="42.666537" lon="-2.155405">
<ele>1258</ele>
<time>2013-05-04T14:08:56.000Z</time>
</trkpt>
<trkpt lat="42.666449" lon="-2.15541">
<ele>1260</ele>
<time>2013-05-04T14:08:57.000Z</time>
</trkpt>
<trkpt lat="42.66636" lon="-2.155392">
<ele>1263</ele>
<time>2013-05-04T14:08:58.000Z</time>
</trkpt>
<trkpt lat="42.666275" lon="-2.155375">
<ele>1266</ele>
<time>2013-05-04T14:08:59.000Z</time>
</trkpt>
<trkpt lat="42.666197" lon="-2.15536">
<ele>1269</ele>
<time>2013-05-04T14:09:00.000Z</time>
</trkpt>
<trkpt lat="42.666127" lon="-2.155369">
<ele>1271</ele>
<time>2013-05-04T14:09:01.000Z</time>
</trkpt>
<trkpt lat="42.666057" lon="-2.155385">
<ele>1273</ele>
<time>2013-05-04T14:09:02.000Z</time>
</trkpt>
<trkpt lat="42.665994" lon="-2.155423">
<ele>1275</ele>
<time>2013-05-04T14:09:03.000Z</time>
</trkpt>
<trkpt lat="42.665935" lon="-2.15547">
<ele>1276</ele>
<time>2013-05-04T14:09:04.000Z</time>
</trkpt>
<trkpt lat="42.665889" lon="-2.155548">
<ele>1277</ele>
<time>2013-05-04T14:09:05.000Z</time>
</trkpt>
<trkpt lat="42.665858" lon="-2.155642">
<ele>1276</ele>
<time>2013-05-04T14:09:06.000Z</time>
</trkpt>
<trkpt lat="42.665842" lon="-2.15575">
<ele>1276</ele>
<time>2013-05-04T14:09:07.000Z</time>
</trkpt>
<trkpt lat="42.665851" lon="-2.15586">
<ele>1275</ele>
<time>2013-05-04T14:09:08.000Z</time>
</trkpt>
<trkpt lat="42.66588" lon="-2.155946">
<ele>1276</ele>
<time>2013-05-04T14:09:09.000Z</time>
</trkpt>
<trkpt lat="42.665926" lon="-2.156002">
<ele>1278</ele>
<time>2013-05-04T14:09:10.000Z</time>
</trkpt>
<trkpt lat="42.665975" lon="-2.156053">
<ele>1281</ele>
<time>2013-05-04T14:09:11.000Z</time>
</trkpt>
<trkpt lat="42.666014" lon="-2.156106">
<ele>1282</ele>
<time>2013-05-04T14:09:12.000Z</time>
</trkpt>
<trkpt lat="42.666048" lon="-2.156182">
<ele>1284</ele>
<time>2013-05-04T14:09:13.000Z</time>
</trkpt>
<trkpt lat="42.666087" lon="-2.156265">
<ele>1287</ele>
<time>2013-05-04T14:09:14.000Z</time>
</trkpt>
<trkpt lat="42.666136" lon="-2.156326">
<ele>1289</ele>
<time>2013-05-04T14:09:15.000Z</time>
</trkpt>
<trkpt lat="42.666182" lon="-2.156376">
<ele>1291</ele>
<time>2013-05-04T14:09:16.000Z</time>
</trkpt>
<trkpt lat="42.666229" lon="-2.156417">
<ele>1292</ele>
<time>2013-05-04T14:09:17.000Z</time>
</trkpt>
<trkpt lat="42.666281" lon="-2.156464">
<ele>1295</ele>
<time>2013-05-04T14:09:18.000Z</time>
</trkpt>
<trkpt lat="42.666338" lon="-2.156518">
<ele>1297</ele>
<time>2013-05-04T14:09:19.000Z</time>
</trkpt>
<trkpt lat="42.666401" lon="-2.156571">
<ele>1301</ele>
<time>2013-05-04T14:09:20.000Z</time>
</trkpt>
<trkpt lat="42.666462" lon="-2.156611">
<ele>1304</ele>
<time>2013-05-04T14:09:21.000Z</time>
</trkpt>
<trkpt lat="42.666509" lon="-2.156638">
<ele>1307</ele>
<time>2013-05-04T14:09:22.000Z</time>
</trkpt>
<trkpt lat="42.666554" lon="-2.156645">
<ele>1309</ele>
<time>2013-05-04T14:09:23.000Z</time>
</trkpt>
<trkpt lat="42.666604" lon="-2.156637">
<ele>1313</ele>
<time>2013-05-04T14:09:24.000Z</time>
</trkpt>
<trkpt lat="42.66665" lon="-2.156615">
<ele>1316</ele>
<time>2013-05-04T14:09:25.000Z</time>
</trkpt>
<trkpt lat="42.666695" lon="-2.156578">
<ele>1320</ele>
<time>2013-05-04T14:09:26.000Z</time>
</trkpt>
<trkpt lat="42.666725" lon="-2.156525">
<ele>1323</ele>
<time>2013-05-04T14:09:27.000Z</time>
</trkpt>
<trkpt lat="42.666746" lon="-2.156448">
<ele>1324</ele>
<time>2013-05-04T14:09:28.000Z</time>
</trkpt>
<trkpt lat="42.66675" lon="-2.15635">
<ele>1324</ele>
<time>2013-05-04T14:09:29.000Z</time>
</trkpt>
<trkpt lat="42.666732" lon="-2.156263">
<ele>1327</ele>
<time>2013-05-04T14:09:30.000Z</time>
</trkpt>
<trkpt lat="42.666694" lon="-2.156215">
<ele>1331</ele>
<time>2013-05-04T14:09:31.000Z</time>
</trkpt>
<trkpt lat="42.666645" lon="-2.156186">
<ele>1334</ele>
<time>2013-05-04T14:09:32.000Z</time>
</trkpt>
<trkpt lat="42.666588" lon="-2.156153">
<ele>1337</ele>
<time>2013-05-04T14:09:33.000Z</time>
</trkpt>
<trkpt lat="42.666525" lon="-2.156118">
<ele>1338</ele>
<time>2013-05-04T14:09:34.000Z</time>
</trkpt>
<trkpt lat="42.666446" lon="-2.156085">
<ele>1342</ele>
<time>2013-05-04T14:09:35.000Z</time>
</trkpt>
<trkpt lat="42.666346" lon="-2.156101">
<ele>1345</ele>
<time>2013-05-04T14:09:36.000Z</time>
</trkpt>
<trkpt lat="42.666248" lon="-2.15615">
<ele>1350</ele>
<time>2013-05-04T14:09:37.000Z</time>
</trkpt>
<trkpt lat="42.66617" lon="-2.156229">
<ele>1354</ele>
<time>2013-05-04T14:09:38.000Z</time>
</trkpt>
<trkpt lat="42.666116" lon="-2.15631">
<ele>1358</ele>
<time>2013-05-04T14:09:39.000Z</time>
</trkpt>
<trkpt lat="42.666073" lon="-2.156393">
<ele>1363</ele>
<time>2013-05-04T14:09:40.000Z</time>
</trkpt>
<trkpt lat="42.666035" lon="-2.15647">
<ele>1367</ele>
<time>2013-05-04T14:09:41.000Z</time>
</trkpt>
<trkpt lat="42.665993" lon="-2.156554">
<ele>1370</ele>
<time>2013-05-04T14:09:42.000Z</time>
</trkpt>
<trkpt lat="42.665951" lon="-2.156656">
<ele>1372</ele>
<time>2013-05-04T14:09:43.000Z</time>
</trkpt>
<trkpt lat="42.665935" lon="-2.15677">
<ele>1372</ele>
<time>2013-05-04T14:09:44.000Z</time>
</trkpt>
<trkpt lat="42.665942" lon="-2.156881">
<ele>1373</ele>
<time>2013-05-04T14:09:45.000Z</time>
</trkpt>
<trkpt lat="42.665972" lon="-2.156968">
<ele>1377</ele>
<time>2013-05-04T14:09:46.000Z</time>
</trkpt>
<trkpt lat="42.666011" lon="-2.157025">
<ele>1380</ele>
<time>2013-05-04T14:09:47.000Z</time>
</trkpt>
<trkpt lat="42.666058" lon="-2.157064">
<ele>1383</ele>
<time>2013-05-04T14:09:48.000Z</time>
</trkpt>
<trkpt lat="42.66611" lon="-2.157101">
<ele>1385</ele>
<time>2013-05-04T14:09:49.000Z</time>
</trkpt>
<trkpt lat="42.666159" lon="-2.157115">
<ele>1387</ele>
<time>2013-05-04T14:09:50.000Z</time>
</trkpt>
<trkpt lat="42.666213" lon="-2.157104">
<ele>1389</ele>
<time>2013-05-04T14:09:51.000Z</time>
</trkpt>
<trkpt lat="42.666271" lon="-2.157065">
<ele>1390</ele>
<time>2013-05-04T14:09:52.000Z</time>
</trkpt>
<trkpt lat="42.666328" lon="-2.156996">
<ele>1394</ele>
<time>2013-05-04T14:09:53.000Z</time>
</trkpt>
<trkpt lat="42.66638" lon="-2.156921">
<ele>1397</ele>
<time>2013-05-04T14:09:54.000Z</time>
</trkpt>
<trkpt lat="42.66641" lon="-2.156832">
<ele>1400</ele>
<time>2013-05-04T14:09:55.000Z</time>
</trkpt>
<trkpt lat="42.666432" lon="-2.156749">
<ele>1404</ele>
<time>2013-05-04T14:09:56.000Z</time>
</trkpt>
<trkpt lat="42.666446" lon="-2.156664">
<ele>1406</ele>
<time>2013-05-04T14:09:57.000Z</time>
</trkpt>
<trkpt lat="42.666456" lon="-2.156582">
<ele>1408</ele>
<time>2013-05-04T14:09:58.000Z</time>
</trkpt>
<trkpt lat="42.666448" lon="-2.156501">
<ele>1409</ele>
<time>2013-05-04T14:09:59.000Z</time>
</trkpt>
<trkpt lat="42.666421" lon="-2.156419">
<ele>1411</ele>
<time>2013-05-04T14:10:00.000Z</time>
</trkpt>
<trkpt lat="42.66638" lon="-2.156354">
<ele>1414</ele>
<time>2013-05-04T14:10:01.000Z</time>
</trkpt>
<trkpt lat="42.666332" lon="-2.156285">
<ele>1417</ele>
<time>2013-05-04T14:10:02.000Z</time>
</trkpt>
<trkpt lat="42.666274" lon="-2.156216">
<ele>1422</ele>
<time>2013-05-04T14:10:03.000Z</time>
</trkpt>
<trkpt lat="42.666205" lon="-2.156167">
<ele>1428</ele>
<time>2013-05-04T14:10:04.000Z</time>
</trkpt>
<trkpt lat="42.666135" lon="-2.156131">
<ele>1432</ele>
<time>2013-05-04T14:10:05.000Z</time>
</trkpt>
<trkpt lat="42.666046" lon="-2.156129">
<ele>1435</ele>
<time>2013-05-04T14:10:06.000Z</time>
</trkpt>
<trkpt lat="42.665949" lon="-2.156157">
<ele>1437</ele>
<time>2013-05-04T14:10:07.000Z</time>
</trkpt>
<trkpt lat="42.66585" lon="-2.156232">
<ele>1439</ele>
<time>2013-05-04T14:10:08.000Z</time>
</trkpt>
<trkpt lat="42.665779" lon="-2.156342">
<ele>1443</ele>
<time>2013-05-04T14:10:09.000Z</time>
</trkpt>
<trkpt lat="42.66573" lon="-2.156426">
<ele>1448</ele>
<time>2013-05-04T14:10:10.000Z</time>
</trkpt>
<trkpt lat="42.665698" lon="-2.156484">
<ele>1451</ele>
<time>2013-05-04T14:10:11.000Z</time>
</trkpt>
<trkpt lat="42.665668" lon="-2.156532">
<ele>1453</ele>
<time>2013-05-04T14:10:12.000Z</time>
</trkpt>
<trkpt lat="42.665628" lon="-2.156595">
<ele>1455</ele>
<time>2013-05-04T14:10:13.000Z</time>
</trkpt>
<trkpt lat="42.665575" lon="-2.156691">
<ele>1458</ele>
<time>2013-05-04T14:10:14.000Z</time>
</trkpt>
<trkpt lat="42.665551" lon="-2.156804">
<ele>1460</ele>
<time>2013-05-04T14:10:15.000Z</time>
</trkpt>
<trkpt lat="42.665535" lon="-2.156915">
<ele>1463</ele>
<time>2013-05-04T14:10:16.000Z</time>
</trkpt>
<trkpt lat="42.665546" lon="-2.157">
<ele>1466</ele>
<time>2013-05-04T14:10:17.000Z</time>
</trkpt>
<trkpt lat="42.665559" lon="-2.157061">
<ele>1469</ele>
<time>2013-05-04T14:10:18.000Z</time>
</trkpt>
<trkpt lat="42.665583" lon="-2.157103">
<ele>1471</ele>
<time>2013-05-04T14:10:19.000Z</time>
</trkpt>
<trkpt lat="42.665614" lon="-2.157155">
<ele>1473</ele>
<time>2013-05-04T14:10:20.000Z</time>
</trkpt>
<trkpt lat="42.665647" lon="-2.157205">
<ele>1473</ele>
<time>2013-05-04T14:10:21.000Z</time>
</trkpt>
<trkpt lat="42.665707" lon="-2.157256">
<ele>1477</ele>
<time>2013-05-04T14:10:22.000Z</time>
</trkpt>
<trkpt lat="42.665761" lon="-2.157276">
<ele>1479</ele>
<time>2013-05-04T14:10:23.000Z</time>
</trkpt>
<trkpt lat="42.665808" lon="-2.157257">
<ele>1482</ele>
<time>2013-05-04T14:10:24.000Z</time>
</trkpt>
<trkpt lat="42.665866" lon="-2.157205">
<ele>1485</ele>
<time>2013-05-04T14:10:25.000Z</time>
</trkpt>
<trkpt lat="42.665923" lon="-2.157144">
<ele>1489</ele>
<time>2013-05-04T14:10:26.000Z</time>
</trkpt>
<trkpt lat="42.66596" lon="-2.157073">
<ele>1491</ele>
<time>2013-05-04T14:10:27.000Z</time>
</trkpt>
<trkpt lat="42.665986" lon="-2.15699">
<ele>1494</ele>
<time>2013-05-04T14:10:28.000Z</time>
</trkpt>
<trkpt lat="42.666005" lon="-2.156897">
<ele>1496</ele>
<time>2013-05-04T14:10:29.000Z</time>
</trkpt>
<trkpt lat="42.666003" lon="-2.156797">
<ele>1496</ele>
<time>2013-05-04T14:10:30.000Z</time>
</trkpt>
<trkpt lat="42.665995" lon="-2.156709">
<ele>1496</ele>
<time>2013-05-04T14:10:31.000Z</time>
</trkpt>
<trkpt lat="42.665963" lon="-2.156626">
<ele>1496</ele>
<time>2013-05-04T14:10:32.000Z</time>
</trkpt>
<trkpt lat="42.665926" lon="-2.156545">
<ele>1498</ele>
<time>2013-05-04T14:10:33.000Z</time>
</trkpt>
<trkpt lat="42.665868" lon="-2.156466">
<ele>1503</ele>
<time>2013-05-04T14:10:34.000Z</time>
</trkpt>
<trkpt lat="42.665806" lon="-2.156406">
<ele>1508</ele>
<time>2013-05-04T14:10:35.000Z</time>
</trkpt>
<trkpt lat="42.665743" lon="-2.156359">
<ele>1512</ele>
<time>2013-05-04T14:10:36.000Z</time>
</trkpt>
<trkpt lat="42.665677" lon="-2.156324">
<ele>1513</ele>
<time>2013-05-04T14:10:37.000Z</time>
</trkpt>
<trkpt lat="42.66561" lon="-2.156291">
<ele>1514</ele>
<time>2013-05-04T14:10:38.000Z</time>
</trkpt>
<trkpt lat="42.66555" lon="-2.156261">
<ele>1516</ele>
<time>2013-05-04T14:10:39.000Z</time>
</trkpt>
<trkpt lat="42.665488" lon="-2.156236">
<ele>1519</ele>
<time>2013-05-04T14:10:40.000Z</time>
</trkpt>
<trkpt lat="42.665411" lon="-2.15624">
<ele>1521</ele>
<time>2013-05-04T14:10:41.000Z</time>
</trkpt>
<trkpt lat="42.665332" lon="-2.156272">
<ele>1523</ele>
<time>2013-05-04T14:10:42.000Z</time>
</trkpt>
<trkpt lat="42.665251" lon="-2.156319">
<ele>1525</ele>
<time>2013-05-04T14:10:43.000Z</time>
</trkpt>
<trkpt lat="42.665185" lon="-2.156396">
<ele>1527</ele>
<time>2013-05-04T14:10:44.000Z</time>
</trkpt>
<trkpt lat="42.665137" lon="-2.156485">
<ele>1529</ele>
<time>2013-05-04T14:10:45.000Z</time>
</trkpt>
<trkpt lat="42.665094" lon="-2.156582">
<ele>1531</ele>
<time>2013-05-04T14:10:46.000Z</time>
</trkpt>
<trkpt lat="42.66507" lon="-2.156686">
<ele>1532</ele>
<time>2013-05-04T14:10:47.000Z</time>
</trkpt>
<trkpt lat="42.665051" lon="-2.156791">
<ele>1534</ele>
<time>2013-05-04T14:10:48.000Z</time>
</trkpt>
<trkpt lat="42.665041" lon="-2.156885">
<ele>1535</ele>
<time>2013-05-04T14:10:49.000Z</time>
</trkpt>
<trkpt lat="42.665047" lon="-2.156967">
<ele>1535</ele>
<time>2013-05-04T14:10:50.000Z</time>
</trkpt>
<trkpt lat="42.665055" lon="-2.157049">
<ele>1536</ele>
<time>2013-05-04T14:10:51.000Z</time>
</trkpt>
<trkpt lat="42.665069" lon="-2.157143">
<ele>1537</ele>
<time>2013-05-04T14:10:52.000Z</time>
</trkpt>
<trkpt lat="42.665099" lon="-2.157236">
<ele>1538</ele>
<time>2013-05-04T14:10:53.000Z</time>
</trkpt>
<trkpt lat="42.665134" lon="-2.157331">
<ele>1541</ele>
<time>2013-05-04T14:10:54.000Z</time>
</trkpt>
<trkpt lat="42.665181" lon="-2.157395">
<ele>1543</ele>
<time>2013-05-04T14:10:55.000Z</time>
</trkpt>
<trkpt lat="42.665223" lon="-2.157447">
<ele>1546</ele>
<time>2013-05-04T14:10:56.000Z</time>
</trkpt>
<trkpt lat="42.665261" lon="-2.157493">
<ele>1549</ele>
<time>2013-05-04T14:10:57.000Z</time>
</trkpt>
<trkpt lat="42.665293" lon="-2.15753">
<ele>1551</ele>
<time>2013-05-04T14:10:58.000Z</time>
</trkpt>
<trkpt lat="42.665332" lon="-2.157567">
<ele>1552</ele>
<time>2013-05-04T14:10:59.000Z</time>
</trkpt>
<trkpt lat="42.665382" lon="-2.157597">
<ele>1553</ele>
<time>2013-05-04T14:11:00.000Z</time>
</trkpt>
<trkpt lat="42.665436" lon="-2.157626">
<ele>1554</ele>
<time>2013-05-04T14:11:01.000Z</time>
</trkpt>
<trkpt lat="42.665485" lon="-2.157635">
<ele>1555</ele>
<time>2013-05-04T14:11:02.000Z</time>
</trkpt>
<trkpt lat="42.665532" lon="-2.157622">
<ele>1555</ele>
<time>2013-05-04T14:11:03.000Z</time>
</trkpt>
<trkpt lat="42.665587" lon="-2.157602">
<ele>1556</ele>
<time>2013-05-04T14:11:04.000Z</time>
</trkpt>
<trkpt lat="42.665651" lon="-2.157575">
<ele>1557</ele>
<time>2013-05-04T14:11:05.000Z</time>
</trkpt>
<trkpt lat="42.665726" lon="-2.157546">
<ele>1559</ele>
<time>2013-05-04T14:11:06.000Z</time>
</trkpt>
<trkpt lat="42.665795" lon="-2.15752">
<ele>1561</ele>
<time>2013-05-04T14:11:07.000Z</time>
</trkpt>
<trkpt lat="42.665853" lon="-2.15749">
<ele>1564</ele>
<time>2013-05-04T14:11:08.000Z</time>
</trkpt>
<trkpt lat="42.665899" lon="-2.15744">
<ele>1567</ele>
<time>2013-05-04T14:11:09.000Z</time>
</trkpt>
<trkpt lat="42.665944" lon="-2.157385">
<ele>1570</ele>
<time>2013-05-04T14:11:10.000Z</time>
</trkpt>
<trkpt lat="42.665991" lon="-2.157324">
<ele>1572</ele>
<time>2013-05-04T14:11:11.000Z</time>
</trkpt>
<trkpt lat="42.666036" lon="-2.157257">
<ele>1574</ele>
<time>2013-05-04T14:11:12.000Z</time>
</trkpt>
<trkpt lat="42.666064" lon="-2.157176">
<ele>1575</ele>
<time>2013-05-04T14:11:13.000Z</time>
</trkpt>
<trkpt lat="42.666068" lon="-2.157087">
<ele>1575</ele>
<time>2013-05-04T14:11:14.000Z</time>
</trkpt>
<trkpt lat="42.666045" lon="-2.156996">
<ele>1576</ele>
<time>2013-05-04T14:11:15.000Z</time>
</trkpt>
<trkpt lat="42.666009" lon="-2.156898">
<ele>1580</ele>
<time>2013-05-04T14:11:16.000Z</time>
</trkpt>
<trkpt lat="42.665969" lon="-2.156808">
<ele>1585</ele>
<time>2013-05-04T14:11:17.000Z</time>
</trkpt>
<trkpt lat="42.665934" lon="-2.156731">
<ele>1588</ele>
<time>2013-05-04T14:11:18.000Z</time>
</trkpt>
<trkpt lat="42.665856" lon="-2.156582">
<ele>1595</ele>
<time>2013-05-04T14:11:20.000Z</time>
</trkpt>
<trkpt lat="42.665793" lon="-2.156522">
<ele>1597</ele>
<time>2013-05-04T14:11:21.000Z</time>
</trkpt>
<trkpt lat="42.66573" lon="-2.156472">
<ele>1599</ele>
<time>2013-05-04T14:11:22.000Z</time>
</trkpt>
<trkpt lat="42.665658" lon="-2.156446">
<ele>1600</ele>
<time>2013-05-04T14:11:23.000Z</time>
</trkpt>
<trkpt lat="42.665578" lon="-2.156441">
<ele>1600</ele>
<time>2013-05-04T14:11:24.000Z</time>
</trkpt>
<trkpt lat="42.66548" lon="-2.156446">
<ele>1600</ele>
<time>2013-05-04T14:11:25.000Z</time>
</trkpt>
<trkpt lat="42.665374" lon="-2.156491">
<ele>1598</ele>
<time>2013-05-04T14:11:26.000Z</time>
</trkpt>
<trkpt lat="42.665271" lon="-2.156543">
<ele>1598</ele>
<time>2013-05-04T14:11:27.000Z</time>
</trkpt>
<trkpt lat="42.665187" lon="-2.156622">
<ele>1598</ele>
<time>2013-05-04T14:11:28.000Z</time>
</trkpt>
<trkpt lat="42.665124" lon="-2.156723">
<ele>1601</ele>
<time>2013-05-04T14:11:29.000Z</time>
</trkpt>
<trkpt lat="42.665082" lon="-2.156836">
<ele>1603</ele>
<time>2013-05-04T14:11:30.000Z</time>
</trkpt>
<trkpt lat="42.665053" lon="-2.156943">
<ele>1605</ele>
<time>2013-05-04T14:11:31.000Z</time>
</trkpt>
<trkpt lat="42.66503" lon="-2.157047">
<ele>1605</ele>
<time>2013-05-04T14:11:32.000Z</time>
</trkpt>
<trkpt lat="42.665015" lon="-2.157149">
<ele>1605</ele>
<time>2013-05-04T14:11:33.000Z</time>
</trkpt>
<trkpt lat="42.665015" lon="-2.157263">
<ele>1605</ele>
<time>2013-05-04T14:11:34.000Z</time>
</trkpt>
<trkpt lat="42.665033" lon="-2.157379">
<ele>1606</ele>
<time>2013-05-04T14:11:35.000Z</time>
</trkpt>
<trkpt lat="42.665054" lon="-2.157469">
<ele>1606</ele>
<time>2013-05-04T14:11:36.000Z</time>
</trkpt>
<trkpt lat="42.665079" lon="-2.15755">
<ele>1606</ele>
<time>2013-05-04T14:11:37.000Z</time>
</trkpt>
<trkpt lat="42.665106" lon="-2.15763">
<ele>1606</ele>
<time>2013-05-04T14:11:38.000Z</time>
</trkpt>
<trkpt lat="42.665137" lon="-2.157708">
<ele>1607</ele>
<time>2013-05-04T14:11:39.000Z</time>
</trkpt>
<trkpt lat="42.665171" lon="-2.157788">
<ele>1607</ele>
<time>2013-05-04T14:11:40.000Z</time>
</trkpt>
<trkpt lat="42.665203" lon="-2.157868">
<ele>1609</ele>
<time>2013-05-04T14:11:41.000Z</time>
</trkpt>
<trkpt lat="42.665233" lon="-2.157949">
<ele>1610</ele>
<time>2013-05-04T14:11:42.000Z</time>
</trkpt>
<trkpt lat="42.665258" lon="-2.158034">
<ele>1611</ele>
<time>2013-05-04T14:11:43.000Z</time>
</trkpt>
<trkpt lat="42.66528" lon="-2.158124">
<ele>1612</ele>
<time>2013-05-04T14:11:44.000Z</time>
</trkpt>
<trkpt lat="42.665301" lon="-2.15822">
<ele>1613</ele>
<time>2013-05-04T14:11:45.000Z</time>
</trkpt>
<trkpt lat="42.665322" lon="-2.158314">
<ele>1612</ele>
<time>2013-05-04T14:11:46.000Z</time>
</trkpt>
<trkpt lat="42.665341" lon="-2.158406">
<ele>1614</ele>
<time>2013-05-04T14:11:47.000Z</time>
</trkpt>
<trkpt lat="42.66536" lon="-2.158493">
<ele>1616</ele>
<time>2013-05-04T14:11:48.000Z</time>
</trkpt>
<trkpt lat="42.665382" lon="-2.158575">
<ele>1618</ele>
<time>2013-05-04T14:11:49.000Z</time>
</trkpt>
<trkpt lat="42.665407" lon="-2.15865">
<ele>1620</ele>
<time>2013-05-04T14:11:50.000Z</time>
</trkpt>
<trkpt lat="42.665435" lon="-2.158724">
<ele>1622</ele>
<time>2013-05-04T14:11:51.000Z</time>
</trkpt>
<trkpt lat="42.665466" lon="-2.158797">
<ele>1624</ele>
<time>2013-05-04T14:11:52.000Z</time>
</trkpt>
<trkpt lat="42.665502" lon="-2.158873">
<ele>1626</ele>
<time>2013-05-04T14:11:53.000Z</time>
</trkpt>
<trkpt lat="42.665542" lon="-2.158948">
<ele>1629</ele>
<time>2013-05-04T14:11:54.000Z</time>
</trkpt>
<trkpt lat="42.665588" lon="-2.158997">
<ele>1630</ele>
<time>2013-05-04T14:11:55.000Z</time>
</trkpt>
<trkpt lat="42.665631" lon="-2.15904">
<ele>1631</ele>
<time>2013-05-04T14:11:56.000Z</time>
</trkpt>
<trkpt lat="42.665679" lon="-2.159068">
<ele>1633</ele>
<time>2013-05-04T14:11:57.000Z</time>
</trkpt>
<trkpt lat="42.66572" lon="-2.159078">
<ele>1635</ele>
<time>2013-05-04T14:11:58.000Z</time>
</trkpt>
<trkpt lat="42.665761" lon="-2.159082">
<ele>1637</ele>
<time>2013-05-04T14:11:59.000Z</time>
</trkpt>
<trkpt lat="42.665806" lon="-2.159071">
<ele>1638</ele>
<time>2013-05-04T14:12:00.000Z</time>
</trkpt>
<trkpt lat="42.665857" lon="-2.159052">
<ele>1639</ele>
<time>2013-05-04T14:12:01.000Z</time>
</trkpt>
<trkpt lat="42.665904" lon="-2.159002">
<ele>1640</ele>
<time>2013-05-04T14:12:02.000Z</time>
</trkpt>
<trkpt lat="42.665953" lon="-2.158937">
<ele>1641</ele>
<time>2013-05-04T14:12:03.000Z</time>
</trkpt>
<trkpt lat="42.665984" lon="-2.158849">
<ele>1643</ele>
<time>2013-05-04T14:12:04.000Z</time>
</trkpt>
<trkpt lat="42.665997" lon="-2.158765">
<ele>1646</ele>
<time>2013-05-04T14:12:05.000Z</time>
</trkpt>
<trkpt lat="42.666005" lon="-2.158686">
<ele>1648</ele>
<time>2013-05-04T14:12:06.000Z</time>
</trkpt>
<trkpt lat="42.665999" lon="-2.158605">
<ele>1650</ele>
<time>2013-05-04T14:12:07.000Z</time>
</trkpt>
<trkpt lat="42.665993" lon="-2.158526">
<ele>1650</ele>
<time>2013-05-04T14:12:08.000Z</time>
</trkpt>
<trkpt lat="42.665984" lon="-2.15844">
<ele>1651</ele>
<time>2013-05-04T14:12:09.000Z</time>
</trkpt>
<trkpt lat="42.665956" lon="-2.158359">
<ele>1653</ele>
<time>2013-05-04T14:12:10.000Z</time>
</trkpt>
<trkpt lat="42.665912" lon="-2.158283">
<ele>1653</ele>
<time>2013-05-04T14:12:11.000Z</time>
</trkpt>
<trkpt lat="42.665857" lon="-2.158198">
<ele>1655</ele>
<time>2013-05-04T14:12:12.000Z</time>
</trkpt>
<trkpt lat="42.6658" lon="-2.158128">
<ele>1657</ele>
<time>2013-05-04T14:12:13.000Z</time>
</trkpt>
<trkpt lat="42.665735" lon="-2.158085">
<ele>1658</ele>
<time>2013-05-04T14:12:14.000Z</time>
</trkpt>
<trkpt lat="42.665667" lon="-2.158046">
<ele>1659</ele>
<time>2013-05-04T14:12:15.000Z</time>
</trkpt>
<trkpt lat="42.665596" lon="-2.158016">
<ele>1660</ele>
<time>2013-05-04T14:12:16.000Z</time>
</trkpt>
<trkpt lat="42.665518" lon="-2.157991">
<ele>1661</ele>
<time>2013-05-04T14:12:17.000Z</time>
</trkpt>
<trkpt lat="42.665436" lon="-2.157991">
<ele>1662</ele>
<time>2013-05-04T14:12:18.000Z</time>
</trkpt>
<trkpt lat="42.665359" lon="-2.157996">
<ele>1663</ele>
<time>2013-05-04T14:12:19.000Z</time>
</trkpt>
<trkpt lat="42.665295" lon="-2.158004">
<ele>1665</ele>
<time>2013-05-04T14:12:20.000Z</time>
</trkpt>
<trkpt lat="42.665237" lon="-2.158019">
<ele>1665</ele>
<time>2013-05-04T14:12:21.000Z</time>
</trkpt>
<trkpt lat="42.665176" lon="-2.158055">
<ele>1664</ele>
<time>2013-05-04T14:12:22.000Z</time>
</trkpt>
<trkpt lat="42.665105" lon="-2.158103">
<ele>1662</ele>
<time>2013-05-04T14:12:23.000Z</time>
</trkpt>
<trkpt lat="42.665025" lon="-2.158161">
<ele>1661</ele>
<time>2013-05-04T14:12:24.000Z</time>
</trkpt>
<trkpt lat="42.664946" lon="-2.158226">
<ele>1661</ele>
<time>2013-05-04T14:12:25.000Z</time>
</trkpt>
<trkpt lat="42.664881" lon="-2.158292">
<ele>1661</ele>
<time>2013-05-04T14:12:26.000Z</time>
</trkpt>
<trkpt lat="42.664826" lon="-2.158381">
<ele>1661</ele>
<time>2013-05-04T14:12:27.000Z</time>
</trkpt>
<trkpt lat="42.664774" lon="-2.158478">
<ele>1661</ele>
<time>2013-05-04T14:12:28.000Z</time>
</trkpt>
<trkpt lat="42.664726" lon="-2.158582">
<ele>1659</ele>
<time>2013-05-04T14:12:29.000Z</time>
</trkpt>
<trkpt lat="42.66468" lon="-2.158695">
<ele>1658</ele>
<time>2013-05-04T14:12:30.000Z</time>
</trkpt>
<trkpt lat="42.664641" lon="-2.158804">
<ele>1658</ele>
<time>2013-05-04T14:12:31.000Z</time>
</trkpt>
<trkpt lat="42.664603" lon="-2.158908">
<ele>1657</ele>
<time>2013-05-04T14:12:32.000Z</time>
</trkpt>
<trkpt lat="42.664564" lon="-2.159009">
<ele>1655</ele>
<time>2013-05-04T14:12:33.000Z</time>
</trkpt>
<trkpt lat="42.664526" lon="-2.159114">
<ele>1653</ele>
<time>2013-05-04T14:12:34.000Z</time>
</trkpt>
<trkpt lat="42.664495" lon="-2.15922">
<ele>1651</ele>
<time>2013-05-04T14:12:35.000Z</time>
</trkpt>
<trkpt lat="42.664472" lon="-2.159329">
<ele>1651</ele>
<time>2013-05-04T14:12:36.000Z</time>
</trkpt>
<trkpt lat="42.664452" lon="-2.159433">
<ele>1651</ele>
<time>2013-05-04T14:12:37.000Z</time>
</trkpt>
<trkpt lat="42.664432" lon="-2.159531">
<ele>1651</ele>
<time>2013-05-04T14:12:38.000Z</time>
</trkpt>
<trkpt lat="42.664412" lon="-2.159636">
<ele>1650</ele>
<time>2013-05-04T14:12:39.000Z</time>
</trkpt>
<trkpt lat="42.66442" lon="-2.159754">
<ele>1646</ele>
<time>2013-05-04T14:12:40.000Z</time>
</trkpt>
<trkpt lat="42.664437" lon="-2.159895">
<ele>1641</ele>
<time>2013-05-04T14:12:41.000Z</time>
</trkpt>
<trkpt lat="42.664488" lon="-2.160038">
<ele>1638</ele>
<time>2013-05-04T14:12:42.000Z</time>
</trkpt>
<trkpt lat="42.66454" lon="-2.160148">
<ele>1635</ele>
<time>2013-05-04T14:12:43.000Z</time>
</trkpt>
<trkpt lat="42.664612" lon="-2.160211">
<ele>1632</ele>
<time>2013-05-04T14:12:44.000Z</time>
</trkpt>
<trkpt lat="42.664679" lon="-2.160263">
<ele>1630</ele>
<time>2013-05-04T14:12:45.000Z</time>
</trkpt>
<trkpt lat="42.664755" lon="-2.160322">
<ele>1628</ele>
<time>2013-05-04T14:12:46.000Z</time>
</trkpt>
<trkpt lat="42.664831" lon="-2.160369">
<ele>1626</ele>
<time>2013-05-04T14:12:47.000Z</time>
</trkpt>
<trkpt lat="42.664901" lon="-2.160404">
<ele>1625</ele>
<time>2013-05-04T14:12:48.000Z</time>
</trkpt>
<trkpt lat="42.664959" lon="-2.160415">
<ele>1624</ele>
<time>2013-05-04T14:12:49.000Z</time>
</trkpt>
<trkpt lat="42.665024" lon="-2.160429">
<ele>1625</ele>
<time>2013-05-04T14:12:50.000Z</time>
</trkpt>
<trkpt lat="42.6651" lon="-2.160419">
<ele>1624</ele>
<time>2013-05-04T14:12:51.000Z</time>
</trkpt>
<trkpt lat="42.665181" lon="-2.160405">
<ele>1624</ele>
<time>2013-05-04T14:12:52.000Z</time>
</trkpt>
<trkpt lat="42.665258" lon="-2.160387">
<ele>1625</ele>
<time>2013-05-04T14:12:53.000Z</time>
</trkpt>
<trkpt lat="42.665331" lon="-2.160368">
<ele>1625</ele>
<time>2013-05-04T14:12:54.000Z</time>
</trkpt>
<trkpt lat="42.665401" lon="-2.160352">
<ele>1626</ele>
<time>2013-05-04T14:12:55.000Z</time>
</trkpt>
<trkpt lat="42.665473" lon="-2.160341">
<ele>1626</ele>
<time>2013-05-04T14:12:56.000Z</time>
</trkpt>
<trkpt lat="42.665546" lon="-2.160334">
<ele>1627</ele>
<time>2013-05-04T14:12:57.000Z</time>
</trkpt>
<trkpt lat="42.665612" lon="-2.160329">
<ele>1628</ele>
<time>2013-05-04T14:12:58.000Z</time>
</trkpt>
<trkpt lat="42.665684" lon="-2.160325">
<ele>1629</ele>
<time>2013-05-04T14:12:59.000Z</time>
</trkpt>
<trkpt lat="42.665759" lon="-2.160321">
<ele>1630</ele>
<time>2013-05-04T14:13:00.000Z</time>
</trkpt>
<trkpt lat="42.665836" lon="-2.160315">
<ele>1632</ele>
<time>2013-05-04T14:13:01.000Z</time>
</trkpt>
<trkpt lat="42.6659" lon="-2.16029">
<ele>1634</ele>
<time>2013-05-04T14:13:02.000Z</time>
</trkpt>
<trkpt lat="42.66596" lon="-2.160259">
<ele>1637</ele>
<time>2013-05-04T14:13:03.000Z</time>
</trkpt>
<trkpt lat="42.666004" lon="-2.160219">
<ele>1640</ele>
<time>2013-05-04T14:13:04.000Z</time>
</trkpt>
<trkpt lat="42.666042" lon="-2.160184">
<ele>1643</ele>
<time>2013-05-04T14:13:05.000Z</time>
</trkpt>
<trkpt lat="42.666075" lon="-2.160153">
<ele>1646</ele>
<time>2013-05-04T14:13:06.000Z</time>
</trkpt>
<trkpt lat="42.666114" lon="-2.16012">
<ele>1647</ele>
<time>2013-05-04T14:13:07.000Z</time>
</trkpt>
<trkpt lat="42.666158" lon="-2.160085">
<ele>1649</ele>
<time>2013-05-04T14:13:08.000Z</time>
</trkpt>
<trkpt lat="42.666206" lon="-2.16005">
<ele>1650</ele>
<time>2013-05-04T14:13:09.000Z</time>
</trkpt>
<trkpt lat="42.666259" lon="-2.160035">
<ele>1652</ele>
<time>2013-05-04T14:13:10.000Z</time>
</trkpt>
<trkpt lat="42.666307" lon="-2.160028">
<ele>1654</ele>
<time>2013-05-04T14:13:11.000Z</time>
</trkpt>
<trkpt lat="42.666359" lon="-2.160049">
<ele>1655</ele>
<time>2013-05-04T14:13:12.000Z</time>
</trkpt>
<trkpt lat="42.666418" lon="-2.160081">
<ele>1655</ele>
<time>2013-05-04T14:13:13.000Z</time>
</trkpt>
<trkpt lat="42.666476" lon="-2.160163">
<ele>1657</ele>
<time>2013-05-04T14:13:14.000Z</time>
</trkpt>
<trkpt lat="42.666519" lon="-2.160275">
<ele>1658</ele>
<time>2013-05-04T14:13:15.000Z</time>
</trkpt>
<trkpt lat="42.666536" lon="-2.160397">
<ele>1660</ele>
<time>2013-05-04T14:13:16.000Z</time>
</trkpt>
<trkpt lat="42.66653" lon="-2.160511">
<ele>1662</ele>
<time>2013-05-04T14:13:17.000Z</time>
</trkpt>
<trkpt lat="42.66652" lon="-2.160603">
<ele>1663</ele>
<time>2013-05-04T14:13:18.000Z</time>
</trkpt>
<trkpt lat="42.666505" lon="-2.160698">
<ele>1666</ele>
<time>2013-05-04T14:13:19.000Z</time>
</trkpt>
<trkpt lat="42.666468" lon="-2.160802">
<ele>1668</ele>
<time>2013-05-04T14:13:20.000Z</time>
</trkpt>
<trkpt lat="42.666405" lon="-2.160901">
<ele>1670</ele>
<time>2013-05-04T14:13:21.000Z</time>
</trkpt>
<trkpt lat="42.666325" lon="-2.160974">
<ele>1672</ele>
<time>2013-05-04T14:13:22.000Z</time>
</trkpt>
<trkpt lat="42.666247" lon="-2.160993">
<ele>1673</ele>
<time>2013-05-04T14:13:23.000Z</time>
</trkpt>
<trkpt lat="42.666169" lon="-2.160991">
<ele>1672</ele>
<time>2013-05-04T14:13:24.000Z</time>
</trkpt>
<trkpt lat="42.666116" lon="-2.160984">
<ele>1674</ele>
<time>2013-05-04T14:13:25.000Z</time>
</trkpt>
<trkpt lat="42.666072" lon="-2.160978">
<ele>1675</ele>
<time>2013-05-04T14:13:26.000Z</time>
</trkpt>
<trkpt lat="42.666023" lon="-2.160968">
<ele>1676</ele>
<time>2013-05-04T14:13:27.000Z</time>
</trkpt>
<trkpt lat="42.66597" lon="-2.160949">
<ele>1678</ele>
<time>2013-05-04T14:13:28.000Z</time>
</trkpt>
<trkpt lat="42.665914" lon="-2.160899">
<ele>1678</ele>
<time>2013-05-04T14:13:29.000Z</time>
</trkpt>
<trkpt lat="42.66586" lon="-2.160842">
<ele>1678</ele>
<time>2013-05-04T14:13:30.000Z</time>
</trkpt>
<trkpt lat="42.665824" lon="-2.160762">
<ele>1679</ele>
<time>2013-05-04T14:13:31.000Z</time>
</trkpt>
<trkpt lat="42.665794" lon="-2.160683">
<ele>1680</ele>
<time>2013-05-04T14:13:32.000Z</time>
</trkpt>
<trkpt lat="42.66577" lon="-2.160606">
<ele>1680</ele>
<time>2013-05-04T14:13:33.000Z</time>
</trkpt>
<trkpt lat="42.665753" lon="-2.160536">
<ele>1681</ele>
<time>2013-05-04T14:13:34.000Z</time>
</trkpt>
<trkpt lat="42.665754" lon="-2.160466">
<ele>1682</ele>
<time>2013-05-04T14:13:35.000Z</time>
</trkpt>
<trkpt lat="42.665769" lon="-2.1604">
<ele>1683</ele>
<time>2013-05-04T14:13:36.000Z</time>
</trkpt>
<trkpt lat="42.665797" lon="-2.160336">
<ele>1683</ele>
<time>2013-05-04T14:13:37.000Z</time>
</trkpt>
<trkpt lat="42.665832" lon="-2.160271">
<ele>1683</ele>
<time>2013-05-04T14:13:38.000Z</time>
</trkpt>
<trkpt lat="42.665869" lon="-2.1602">
<ele>1682</ele>
<time>2013-05-04T14:13:39.000Z</time>
</trkpt>
<trkpt lat="42.665909" lon="-2.160122">
<ele>1682</ele>
<time>2013-05-04T14:13:40.000Z</time>
</trkpt>
<trkpt lat="42.665945" lon="-2.160039">
<ele>1683</ele>
<time>2013-05-04T14:13:41.000Z</time>
</trkpt>
<trkpt lat="42.665974" lon="-2.159966">
<ele>1684</ele>
<time>2013-05-04T14:13:42.000Z</time>
</trkpt>
<trkpt lat="42.665999" lon="-2.159903">
<ele>1685</ele>
<time>2013-05-04T14:13:43.000Z</time>
</trkpt>
<trkpt lat="42.666026" lon="-2.159842">
<ele>1686</ele>
<time>2013-05-04T14:13:44.000Z</time>
</trkpt>
<trkpt lat="42.666058" lon="-2.159776">
<ele>1687</ele>
<time>2013-05-04T14:13:45.000Z</time>
</trkpt>
<trkpt lat="42.666092" lon="-2.159705">
<ele>1687</ele>
<time>2013-05-04T14:13:46.000Z</time>
</trkpt>
<trkpt lat="42.666123" lon="-2.159632">
<ele>1688</ele>
<time>2013-05-04T14:13:47.000Z</time>
</trkpt>
<trkpt lat="42.666151" lon="-2.159564">
<ele>1689</ele>
<time>2013-05-04T14:13:48.000Z</time>
</trkpt>
<trkpt lat="42.666175" lon="-2.159502">
<ele>1690</ele>
<time>2013-05-04T14:13:49.000Z</time>
</trkpt>
<trkpt lat="42.666201" lon="-2.159444">
<ele>1692</ele>
<time>2013-05-04T14:13:50.000Z</time>
</trkpt>
<trkpt lat="42.666228" lon="-2.159387">
<ele>1693</ele>
<time>2013-05-04T14:13:51.000Z</time>
</trkpt>
<trkpt lat="42.666258" lon="-2.159332">
<ele>1695</ele>
<time>2013-05-04T14:13:52.000Z</time>
</trkpt>
<trkpt lat="42.666289" lon="-2.159281">
<ele>1696</ele>
<time>2013-05-04T14:13:53.000Z</time>
</trkpt>
<trkpt lat="42.666333" lon="-2.159245">
<ele>1696</ele>
<time>2013-05-04T14:13:54.000Z</time>
</trkpt>
<trkpt lat="42.666387" lon="-2.159211">
<ele>1696</ele>
<time>2013-05-04T14:13:55.000Z</time>
</trkpt>
<trkpt lat="42.666454" lon="-2.159189">
<ele>1697</ele>
<time>2013-05-04T14:13:56.000Z</time>
</trkpt>
<trkpt lat="42.666525" lon="-2.159169">
<ele>1699</ele>
<time>2013-05-04T14:13:57.000Z</time>
</trkpt>
<trkpt lat="42.666597" lon="-2.159159">
<ele>1701</ele>
<time>2013-05-04T14:13:58.000Z</time>
</trkpt>
<trkpt lat="42.666673" lon="-2.15918">
<ele>1702</ele>
<time>2013-05-04T14:13:59.000Z</time>
</trkpt>
<trkpt lat="42.666749" lon="-2.15921">
<ele>1702</ele>
<time>2013-05-04T14:14:00.000Z</time>
</trkpt>
<trkpt lat="42.666819" lon="-2.159264">
<ele>1702</ele>
<time>2013-05-04T14:14:01.000Z</time>
</trkpt>
<trkpt lat="42.666882" lon="-2.159348">
<ele>1702</ele>
<time>2013-05-04T14:14:02.000Z</time>
</trkpt>
<trkpt lat="42.666934" lon="-2.159437">
<ele>1704</ele>
<time>2013-05-04T14:14:03.000Z</time>
</trkpt>
<trkpt lat="42.666967" lon="-2.159542">
<ele>1705</ele>
<time>2013-05-04T14:14:04.000Z</time>
</trkpt>
<trkpt lat="42.666995" lon="-2.159653">
<ele>1707</ele>
<time>2013-05-04T14:14:05.000Z</time>
</trkpt>
<trkpt lat="42.667015" lon="-2.159779">
<ele>1712</ele>
<time>2013-05-04T14:14:06.000Z</time>
</trkpt>
<trkpt lat="42.667004" lon="-2.159897">
<ele>1714</ele>
<time>2013-05-04T14:14:07.000Z</time>
</trkpt>
<trkpt lat="42.666984" lon="-2.160024">
<ele>1716</ele>
<time>2013-05-04T14:14:08.000Z</time>
</trkpt>
<trkpt lat="42.666954" lon="-2.16016">
<ele>1719</ele>
<time>2013-05-04T14:14:09.000Z</time>
</trkpt>
<trkpt lat="42.666902" lon="-2.160288">
<ele>1721</ele>
<time>2013-05-04T14:14:10.000Z</time>
</trkpt>
<trkpt lat="42.666847" lon="-2.160404">
<ele>1723</ele>
<time>2013-05-04T14:14:11.000Z</time>
</trkpt>
<trkpt lat="42.666769" lon="-2.160493">
<ele>1725</ele>
<time>2013-05-04T14:14:12.000Z</time>
</trkpt>
<trkpt lat="42.666696" lon="-2.160563">
<ele>1727</ele>
<time>2013-05-04T14:14:13.000Z</time>
</trkpt>
<trkpt lat="42.666608" lon="-2.160602">
<ele>1729</ele>
<time>2013-05-04T14:14:14.000Z</time>
</trkpt>
<trkpt lat="42.666525" lon="-2.160636">
<ele>1731</ele>
<time>2013-05-04T14:14:15.000Z</time>
</trkpt>
<trkpt lat="42.666456" lon="-2.160657">
<ele>1732</ele>
<time>2013-05-04T14:14:16.000Z</time>
</trkpt>
<trkpt lat="42.666384" lon="-2.16065">
<ele>1732</ele>
<time>2013-05-04T14:14:17.000Z</time>
</trkpt>
<trkpt lat="42.66632" lon="-2.160634">
<ele>1732</ele>
<time>2013-05-04T14:14:18.000Z</time>
</trkpt>
<trkpt lat="42.666257" lon="-2.160599">
<ele>1731</ele>
<time>2013-05-04T14:14:19.000Z</time>
</trkpt>
<trkpt lat="42.666197" lon="-2.160566">
<ele>1731</ele>
<time>2013-05-04T14:14:20.000Z</time>
</trkpt>
<trkpt lat="42.66614" lon="-2.160533">
<ele>1732</ele>
<time>2013-05-04T14:14:21.000Z</time>
</trkpt>
<trkpt lat="42.666089" lon="-2.160497">
<ele>1734</ele>
<time>2013-05-04T14:14:22.000Z</time>
</trkpt>
<trkpt lat="42.66605" lon="-2.160447">
<ele>1734</ele>
<time>2013-05-04T14:14:23.000Z</time>
</trkpt>
<trkpt lat="42.666025" lon="-2.160375">
<ele>1735</ele>
<time>2013-05-04T14:14:24.000Z</time>
</trkpt>
<trkpt lat="42.666009" lon="-2.160286">
<ele>1737</ele>
<time>2013-05-04T14:14:25.000Z</time>
</trkpt>
<trkpt lat="42.666" lon="-2.1602">
<ele>1739</ele>
<time>2013-05-04T14:14:26.000Z</time>
</trkpt>
<trkpt lat="42.666008" lon="-2.16013">
<ele>1739</ele>
<time>2013-05-04T14:14:27.000Z</time>
</trkpt>
<trkpt lat="42.666028" lon="-2.160073">
<ele>1740</ele>
<time>2013-05-04T14:14:28.000Z</time>
</trkpt>
<trkpt lat="42.666052" lon="-2.160015">
<ele>1741</ele>
<time>2013-05-04T14:14:29.000Z</time>
</trkpt>
<trkpt lat="42.666087" lon="-2.159963">
<ele>1741</ele>
<time>2013-05-04T14:14:30.000Z</time>
</trkpt>
<trkpt lat="42.666125" lon="-2.15991">
<ele>1740</ele>
<time>2013-05-04T14:14:31.000Z</time>
</trkpt>
<trkpt lat="42.666175" lon="-2.159868">
<ele>1740</ele>
<time>2013-05-04T14:14:32.000Z</time>
</trkpt>
<trkpt lat="42.666232" lon="-2.159817">
<ele>1740</ele>
<time>2013-05-04T14:14:33.000Z</time>
</trkpt>
<trkpt lat="42.666275" lon="-2.159749">
<ele>1741</ele>
<time>2013-05-04T14:14:34.000Z</time>
</trkpt>
<trkpt lat="42.666302" lon="-2.159677">
<ele>1741</ele>
<time>2013-05-04T14:14:35.000Z</time>
</trkpt>
<trkpt lat="42.666323" lon="-2.15961">
<ele>1742</ele>
<time>2013-05-04T14:14:36.000Z</time>
</trkpt>
<trkpt lat="42.66634" lon="-2.159545">
<ele>1744</ele>
<time>2013-05-04T14:14:37.000Z</time>
</trkpt>
<trkpt lat="42.666355" lon="-2.159483">
<ele>1746</ele>
<time>2013-05-04T14:14:38.000Z</time>
</trkpt>
<trkpt lat="42.666355" lon="-2.159416">
<ele>1748</ele>
<time>2013-05-04T14:14:39.000Z</time>
</trkpt>
<trkpt lat="42.666339" lon="-2.159349">
<ele>1749</ele>
<time>2013-05-04T14:14:40.000Z</time>
</trkpt>
<trkpt lat="42.666306" lon="-2.159286">
<ele>1751</ele>
<time>2013-05-04T14:14:41.000Z</time>
</trkpt>
<trkpt lat="42.666264" lon="-2.159238">
<ele>1751</ele>
<time>2013-05-04T14:14:42.000Z</time>
</trkpt>
<trkpt lat="42.666214" lon="-2.1592">
<ele>1753</ele>
<time>2013-05-04T14:14:43.000Z</time>
</trkpt>
<trkpt lat="42.666157" lon="-2.159175">
<ele>1754</ele>
<time>2013-05-04T14:14:44.000Z</time>
</trkpt>
<trkpt lat="42.666089" lon="-2.15917">
<ele>1755</ele>
<time>2013-05-04T14:14:45.000Z</time>
</trkpt>
<trkpt lat="42.666008" lon="-2.159191">
<ele>1755</ele>
<time>2013-05-04T14:14:46.000Z</time>
</trkpt>
<trkpt lat="42.665922" lon="-2.159241">
<ele>1755</ele>
<time>2013-05-04T14:14:47.000Z</time>
</trkpt>
<trkpt lat="42.665851" lon="-2.159319">
<ele>1756</ele>
<time>2013-05-04T14:14:48.000Z</time>
</trkpt>
<trkpt lat="42.665799" lon="-2.159414">
<ele>1758</ele>
<time>2013-05-04T14:14:49.000Z</time>
</trkpt>
<trkpt lat="42.665751" lon="-2.159509">
<ele>1757</ele>
<time>2013-05-04T14:14:50.000Z</time>
</trkpt>
<trkpt lat="42.66571" lon="-2.159607">
<ele>1757</ele>
<time>2013-05-04T14:14:51.000Z</time>
</trkpt>
<trkpt lat="42.665676" lon="-2.159714">
<ele>1757</ele>
<time>2013-05-04T14:14:52.000Z</time>
</trkpt>
<trkpt lat="42.665659" lon="-2.159839">
<ele>1758</ele>
<time>2013-05-04T14:14:53.000Z</time>
</trkpt>
<trkpt lat="42.665647" lon="-2.159973">
<ele>1757</ele>
<time>2013-05-04T14:14:54.000Z</time>
</trkpt>
<trkpt lat="42.665656" lon="-2.160115">
<ele>1757</ele>
<time>2013-05-04T14:14:55.000Z</time>
</trkpt>
<trkpt lat="42.665674" lon="-2.160259">
<ele>1757</ele>
<time>2013-05-04T14:14:56.000Z</time>
</trkpt>
<trkpt lat="42.665722" lon="-2.160379">
<ele>1755</ele>
<time>2013-05-04T14:14:57.000Z</time>
</trkpt>
<trkpt lat="42.665784" lon="-2.160467">
<ele>1754</ele>
<time>2013-05-04T14:14:58.000Z</time>
</trkpt>
<trkpt lat="42.665853" lon="-2.16053">
<ele>1753</ele>
<time>2013-05-04T14:14:59.000Z</time>
</trkpt>
<trkpt lat="42.665913" lon="-2.160575">
<ele>1754</ele>
<time>2013-05-04T14:15:00.000Z</time>
</trkpt>
<trkpt lat="42.665963" lon="-2.160601">
<ele>1755</ele>
<time>2013-05-04T14:15:01.000Z</time>
</trkpt>
<trkpt lat="42.666012" lon="-2.160613">
<ele>1757</ele>
<time>2013-05-04T14:15:02.000Z</time>
</trkpt>
<trkpt lat="42.666067" lon="-2.160629">
<ele>1758</ele>
<time>2013-05-04T14:15:03.000Z</time>
</trkpt>
<trkpt lat="42.666128" lon="-2.160642">
<ele>1759</ele>
<time>2013-05-04T14:15:04.000Z</time>
</trkpt>
<trkpt lat="42.666193" lon="-2.160652">
<ele>1760</ele>
<time>2013-05-04T14:15:05.000Z</time>
</trkpt>
<trkpt lat="42.66626" lon="-2.160659">
<ele>1760</ele>
<time>2013-05-04T14:15:06.000Z</time>
</trkpt>
<trkpt lat="42.666322" lon="-2.16066">
<ele>1762</ele>
<time>2013-05-04T14:15:07.000Z</time>
</trkpt>
<trkpt lat="42.666381" lon="-2.160658">
<ele>1764</ele>
<time>2013-05-04T14:15:08.000Z</time>
</trkpt>
<trkpt lat="42.666431" lon="-2.160642">
<ele>1765</ele>
<time>2013-05-04T14:15:09.000Z</time>
</trkpt>
<trkpt lat="42.66648" lon="-2.160621">
<ele>1765</ele>
<time>2013-05-04T14:15:10.000Z</time>
</trkpt>
<trkpt lat="42.66653" lon="-2.160578">
<ele>1766</ele>
<time>2013-05-04T14:15:11.000Z</time>
</trkpt>
<trkpt lat="42.666575" lon="-2.160519">
<ele>1768</ele>
<time>2013-05-04T14:15:12.000Z</time>
</trkpt>
<trkpt lat="42.666607" lon="-2.160452">
<ele>1769</ele>
<time>2013-05-04T14:15:13.000Z</time>
</trkpt>
<trkpt lat="42.666622" lon="-2.160386">
<ele>1770</ele>
<time>2013-05-04T14:15:14.000Z</time>
</trkpt>
<trkpt lat="42.66662" lon="-2.160323">
<ele>1771</ele>
<time>2013-05-04T14:15:15.000Z</time>
</trkpt>
<trkpt lat="42.666614" lon="-2.160253">
<ele>1771</ele>
<time>2013-05-04T14:15:16.000Z</time>
</trkpt>
<trkpt lat="42.666591" lon="-2.160177">
<ele>1771</ele>
<time>2013-05-04T14:15:17.000Z</time>
</trkpt>
<trkpt lat="42.666552" lon="-2.160108">
<ele>1771</ele>
<time>2013-05-04T14:15:18.000Z</time>
</trkpt>
<trkpt lat="42.666496" lon="-2.160052">
<ele>1771</ele>
<time>2013-05-04T14:15:19.000Z</time>
</trkpt>
<trkpt lat="42.666429" lon="-2.159991">
<ele>1773</ele>
<time>2013-05-04T14:15:20.000Z</time>
</trkpt>
<trkpt lat="42.666363" lon="-2.159959">
<ele>1775</ele>
<time>2013-05-04T14:15:21.000Z</time>
</trkpt>
<trkpt lat="42.666299" lon="-2.15993">
<ele>1777</ele>
<time>2013-05-04T14:15:22.000Z</time>
</trkpt>
<trkpt lat="42.666233" lon="-2.159905">
<ele>1778</ele>
<time>2013-05-04T14:15:23.000Z</time>
</trkpt>
<trkpt lat="42.666159" lon="-2.159883">
<ele>1778</ele>
<time>2013-05-04T14:15:24.000Z</time>
</trkpt>
<trkpt lat="42.66608" lon="-2.159883">
<ele>1777</ele>
<time>2013-05-04T14:15:25.000Z</time>
</trkpt>
<trkpt lat="42.665992" lon="-2.159888">
<ele>1779</ele>
<time>2013-05-04T14:15:26.000Z</time>
</trkpt>
<trkpt lat="42.665907" lon="-2.159923">
<ele>1780</ele>
<time>2013-05-04T14:15:27.000Z</time>
</trkpt>
<trkpt lat="42.665825" lon="-2.159965">
<ele>1780</ele>
<time>2013-05-04T14:15:28.000Z</time>
</trkpt>
<trkpt lat="42.665748" lon="-2.160018">
<ele>1781</ele>
<time>2013-05-04T14:15:29.000Z</time>
</trkpt>
<trkpt lat="42.665675" lon="-2.160077">
<ele>1781</ele>
<time>2013-05-04T14:15:30.000Z</time>
</trkpt>
<trkpt lat="42.665606" lon="-2.160143">
<ele>1781</ele>
<time>2013-05-04T14:15:31.000Z</time>
</trkpt>
<trkpt lat="42.665548" lon="-2.160228">
<ele>1781</ele>
<time>2013-05-04T14:15:32.000Z</time>
</trkpt>
<trkpt lat="42.665492" lon="-2.160326">
<ele>1780</ele>
<time>2013-05-04T14:15:33.000Z</time>
</trkpt>
<trkpt lat="42.665448" lon="-2.16045">
<ele>1781</ele>
<time>2013-05-04T14:15:34.000Z</time>
</trkpt>
<trkpt lat="42.665414" lon="-2.160565">
<ele>1781</ele>
<time>2013-05-04T14:15:35.000Z</time>
</trkpt>
<trkpt lat="42.665386" lon="-2.160678">
<ele>1780</ele>
<time>2013-05-04T14:15:36.000Z</time>
</trkpt>
<trkpt lat="42.665366" lon="-2.160788">
<ele>1780</ele>
<time>2013-05-04T14:15:37.000Z</time>
</trkpt>
<trkpt lat="42.665362" lon="-2.160918">
<ele>1779</ele>
<time>2013-05-04T14:15:38.000Z</time>
</trkpt>
<trkpt lat="42.665364" lon="-2.161038">
<ele>1778</ele>
<time>2013-05-04T14:15:39.000Z</time>
</trkpt>
<trkpt lat="42.665392" lon="-2.161158">
<ele>1777</ele>
<time>2013-05-04T14:15:40.000Z</time>
</trkpt>
<trkpt lat="42.66542" lon="-2.161266">
<ele>1776</ele>
<time>2013-05-04T14:15:41.000Z</time>
</trkpt>
<trkpt lat="42.665455" lon="-2.161385">
<ele>1776</ele>
<time>2013-05-04T14:15:42.000Z</time>
</trkpt>
<trkpt lat="42.665495" lon="-2.161502">
<ele>1776</ele>
<time>2013-05-04T14:15:43.000Z</time>
</trkpt>
<trkpt lat="42.665556" lon="-2.161588">
<ele>1776</ele>
<time>2013-05-04T14:15:44.000Z</time>
</trkpt>
<trkpt lat="42.665628" lon="-2.161646">
<ele>1775</ele>
<time>2013-05-04T14:15:45.000Z</time>
</trkpt>
<trkpt lat="42.665713" lon="-2.161682">
<ele>1773</ele>
<time>2013-05-04T14:15:46.000Z</time>
</trkpt>
<trkpt lat="42.665786" lon="-2.161703">
<ele>1772</ele>
<time>2013-05-04T14:15:47.000Z</time>
</trkpt>
<trkpt lat="42.66586" lon="-2.1617">
<ele>1772</ele>
<time>2013-05-04T14:15:48.000Z</time>
</trkpt>
<trkpt lat="42.665925" lon="-2.16169">
<ele>1771</ele>
<time>2013-05-04T14:15:49.000Z</time>
</trkpt>
<trkpt lat="42.665987" lon="-2.161672">
<ele>1770</ele>
<time>2013-05-04T14:15:50.000Z</time>
</trkpt>
<trkpt lat="42.666044" lon="-2.161651">
<ele>1769</ele>
<time>2013-05-04T14:15:51.000Z</time>
</trkpt>
<trkpt lat="42.666098" lon="-2.161629">
<ele>1769</ele>
<time>2013-05-04T14:15:52.000Z</time>
</trkpt>
<trkpt lat="42.666145" lon="-2.161605">
<ele>1769</ele>
<time>2013-05-04T14:15:53.000Z</time>
</trkpt>
<trkpt lat="42.666187" lon="-2.161564">
<ele>1767</ele>
<time>2013-05-04T14:15:54.000Z</time>
</trkpt>
<trkpt lat="42.666233" lon="-2.161516">
<ele>1765</ele>
<time>2013-05-04T14:15:55.000Z</time>
</trkpt>
<trkpt lat="42.666273" lon="-2.161455">
<ele>1764</ele>
<time>2013-05-04T14:15:56.000Z</time>
</trkpt>
<trkpt lat="42.666308" lon="-2.161401">
<ele>1764</ele>
<time>2013-05-04T14:15:57.000Z</time>
</trkpt>
<trkpt lat="42.666341" lon="-2.161357">
<ele>1765</ele>
<time>2013-05-04T14:15:58.000Z</time>
</trkpt>
<trkpt lat="42.666374" lon="-2.161316">
<ele>1764</ele>
<time>2013-05-04T14:15:59.000Z</time>
</trkpt>
<trkpt lat="42.666408" lon="-2.161268">
<ele>1763</ele>
<time>2013-05-04T14:16:00.000Z</time>
</trkpt>
<trkpt lat="42.666417" lon="-2.161203">
<ele>1761</ele>
<time>2013-05-04T14:16:01.000Z</time>
</trkpt>
<trkpt lat="42.666425" lon="-2.161119">
<ele>1759</ele>
<time>2013-05-04T14:16:02.000Z</time>
</trkpt>
<trkpt lat="42.666426" lon="-2.161038">
<ele>1758</ele>
<time>2013-05-04T14:16:03.000Z</time>
</trkpt>
<trkpt lat="42.666428" lon="-2.160964">
<ele>1756</ele>
<time>2013-05-04T14:16:04.000Z</time>
</trkpt>
<trkpt lat="42.666441" lon="-2.160895">
<ele>1754</ele>
<time>2013-05-04T14:16:05.000Z</time>
</trkpt>
<trkpt lat="42.666457" lon="-2.160817">
<ele>1751</ele>
<time>2013-05-04T14:16:06.000Z</time>
</trkpt>
<trkpt lat="42.666474" lon="-2.160725">
<ele>1748</ele>
<time>2013-05-04T14:16:07.000Z</time>
</trkpt>
<trkpt lat="42.666472" lon="-2.160625">
<ele>1746</ele>
<time>2013-05-04T14:16:08.000Z</time>
</trkpt>
<trkpt lat="42.666464" lon="-2.160532">
<ele>1745</ele>
<time>2013-05-04T14:16:09.000Z</time>
</trkpt>
<trkpt lat="42.666452" lon="-2.16044">
<ele>1745</ele>
<time>2013-05-04T14:16:10.000Z</time>
</trkpt>
<trkpt lat="42.666434" lon="-2.16034">
<ele>1743</ele>
<time>2013-05-04T14:16:11.000Z</time>
</trkpt>
<trkpt lat="42.666418" lon="-2.160236">
<ele>1742</ele>
<time>2013-05-04T14:16:12.000Z</time>
</trkpt>
<trkpt lat="42.666405" lon="-2.160122">
<ele>1738</ele>
<time>2013-05-04T14:16:13.000Z</time>
</trkpt>
<trkpt lat="42.666396" lon="-2.160003">
<ele>1736</ele>
<time>2013-05-04T14:16:14.000Z</time>
</trkpt>
<trkpt lat="42.666389" lon="-2.159895">
<ele>1735</ele>
<time>2013-05-04T14:16:15.000Z</time>
</trkpt>
<trkpt lat="42.666382" lon="-2.159799">
<ele>1734</ele>
<time>2013-05-04T14:16:16.000Z</time>
</trkpt>
<trkpt lat="42.666375" lon="-2.159699">
<ele>1733</ele>
<time>2013-05-04T14:16:17.000Z</time>
</trkpt>
<trkpt lat="42.666367" lon="-2.159596">
<ele>1732</ele>
<time>2013-05-04T14:16:18.000Z</time>
</trkpt>
<trkpt lat="42.666362" lon="-2.159482">
<ele>1729</ele>
<time>2013-05-04T14:16:19.000Z</time>
</trkpt>
<trkpt lat="42.666357" lon="-2.159369">
<ele>1726</ele>
<time>2013-05-04T14:16:20.000Z</time>
</trkpt>
<trkpt lat="42.666355" lon="-2.159267">
<ele>1726</ele>
<time>2013-05-04T14:16:21.000Z</time>
</trkpt>
<trkpt lat="42.666354" lon="-2.159174">
<ele>1725</ele>
<time>2013-05-04T14:16:22.000Z</time>
</trkpt>
<trkpt lat="42.666353" lon="-2.15908">
<ele>1724</ele>
<time>2013-05-04T14:16:23.000Z</time>
</trkpt>
<trkpt lat="42.666355" lon="-2.158974">
<ele>1722</ele>
<time>2013-05-04T14:16:24.000Z</time>
</trkpt>
<trkpt lat="42.666357" lon="-2.15886">
<ele>1721</ele>
<time>2013-05-04T14:16:25.000Z</time>
</trkpt>
<trkpt lat="42.666355" lon="-2.158754">
<ele>1720</ele>
<time>2013-05-04T14:16:26.000Z</time>
</trkpt>
<trkpt lat="42.666351" lon="-2.158656">
<ele>1720</ele>
<time>2013-05-04T14:16:27.000Z</time>
</trkpt>
<trkpt lat="42.666346" lon="-2.158567">
<ele>1719</ele>
<time>2013-05-04T14:16:28.000Z</time>
</trkpt>
<trkpt lat="42.666342" lon="-2.158477">
<ele>1718</ele>
<time>2013-05-04T14:16:29.000Z</time>
</trkpt>
<trkpt lat="42.666338" lon="-2.158382">
<ele>1715</ele>
<time>2013-05-04T14:16:30.000Z</time>
</trkpt>
<trkpt lat="42.666337" lon="-2.15828">
<ele>1713</ele>
<time>2013-05-04T14:16:31.000Z</time>
</trkpt>
<trkpt lat="42.666337" lon="-2.158166">
<ele>1712</ele>
<time>2013-05-04T14:16:32.000Z</time>
</trkpt>
<trkpt lat="42.666336" lon="-2.158044">
<ele>1710</ele>
<time>2013-05-04T14:16:33.000Z</time>
</trkpt>
<trkpt lat="42.666334" lon="-2.157938">
<ele>1708</ele>
<time>2013-05-04T14:16:34.000Z</time>
</trkpt>
<trkpt lat="42.666332" lon="-2.157856">
<ele>1707</ele>
<time>2013-05-04T14:16:35.000Z</time>
</trkpt>
<trkpt lat="42.666345" lon="-2.157776">
<ele>1708</ele>
<time>2013-05-04T14:16:36.000Z</time>
</trkpt>
<trkpt lat="42.666356" lon="-2.157696">
<ele>1707</ele>
<time>2013-05-04T14:16:37.000Z</time>
</trkpt>
<trkpt lat="42.666365" lon="-2.157604">
<ele>1706</ele>
<time>2013-05-04T14:16:38.000Z</time>
</trkpt>
<trkpt lat="42.66637" lon="-2.157494">
<ele>1703</ele>
<time>2013-05-04T14:16:39.000Z</time>
</trkpt>
<trkpt lat="42.666369" lon="-2.157398">
<ele>1702</ele>
<time>2013-05-04T14:16:40.000Z</time>
</trkpt>
<trkpt lat="42.666366" lon="-2.157315">
<ele>1701</ele>
<time>2013-05-04T14:16:41.000Z</time>
</trkpt>
<trkpt lat="42.666365" lon="-2.157239">
<ele>1702</ele>
<time>2013-05-04T14:16:42.000Z</time>
</trkpt>
<trkpt lat="42.666363" lon="-2.157167">
<ele>1700</ele>
<time>2013-05-04T14:16:43.000Z</time>
</trkpt>
<trkpt lat="42.666357" lon="-2.157077">
<ele>1699</ele>
<time>2013-05-04T14:16:44.000Z</time>
</trkpt>
<trkpt lat="42.666346" lon="-2.15697">
<ele>1698</ele>
<time>2013-05-04T14:16:45.000Z</time>
</trkpt>
<trkpt lat="42.666335" lon="-2.156857">
<ele>1699</ele>
<time>2013-05-04T14:16:46.000Z</time>
</trkpt>
<trkpt lat="42.666324" lon="-2.15677">
<ele>1697</ele>
<time>2013-05-04T14:16:47.000Z</time>
</trkpt>
<trkpt lat="42.666318" lon="-2.156699">
<ele>1696</ele>
<time>2013-05-04T14:16:48.000Z</time>
</trkpt>
<trkpt lat="42.666312" lon="-2.156623">
<ele>1694</ele>
<time>2013-05-04T14:16:49.000Z</time>
</trkpt>
<trkpt lat="42.666302" lon="-2.156528">
<ele>1692</ele>
<time>2013-05-04T14:16:50.000Z</time>
</trkpt>
<trkpt lat="42.666293" lon="-2.156427">
<ele>1690</ele>
<time>2013-05-04T14:16:51.000Z</time>
</trkpt>
<trkpt lat="42.666287" lon="-2.156327">
<ele>1688</ele>
<time>2013-05-04T14:16:52.000Z</time>
</trkpt>
<trkpt lat="42.666281" lon="-2.156234">
<ele>1686</ele>
<time>2013-05-04T14:16:53.000Z</time>
</trkpt>
<trkpt lat="42.666275" lon="-2.156147">
<ele>1686</ele>
<time>2013-05-04T14:16:54.000Z</time>
</trkpt>
<trkpt lat="42.666269" lon="-2.156067">
<ele>1685</ele>
<time>2013-05-04T14:16:55.000Z</time>
</trkpt>
<trkpt lat="42.666265" lon="-2.155989">
<ele>1686</ele>
<time>2013-05-04T14:16:56.000Z</time>
</trkpt>
<trkpt lat="42.666264" lon="-2.155889">
<ele>1685</ele>
<time>2013-05-04T14:16:57.000Z</time>
</trkpt>
<trkpt lat="42.666264" lon="-2.15578">
<ele>1685</ele>
<time>2013-05-04T14:16:58.000Z</time>
</trkpt>
<trkpt lat="42.666262" lon="-2.155677">
<ele>1685</ele>
<time>2013-05-04T14:16:59.000Z</time>
</trkpt>
<trkpt lat="42.666255" lon="-2.155593">
<ele>1685</ele>
<time>2013-05-04T14:17:00.000Z</time>
</trkpt>
<trkpt lat="42.666243" lon="-2.155513">
<ele>1686</ele>
<time>2013-05-04T14:17:01.000Z</time>
</trkpt>
<trkpt lat="42.666228" lon="-2.155431">
<ele>1685</ele>
<time>2013-05-04T14:17:02.000Z</time>
</trkpt>
<trkpt lat="42.666213" lon="-2.155343">
<ele>1684</ele>
<time>2013-05-04T14:17:03.000Z</time>
</trkpt>
<trkpt lat="42.666202" lon="-2.155254">
<ele>1683</ele>
<time>2013-05-04T14:17:04.000Z</time>
</trkpt>
<trkpt lat="42.666194" lon="-2.155164">
<ele>1683</ele>
<time>2013-05-04T14:17:05.000Z</time>
</trkpt>
<trkpt lat="42.666187" lon="-2.155082">
<ele>1682</ele>
<time>2013-05-04T14:17:06.000Z</time>
</trkpt>
<trkpt lat="42.666182" lon="-2.154999">
<ele>1682</ele>
<time>2013-05-04T14:17:07.000Z</time>
</trkpt>
<trkpt lat="42.666178" lon="-2.154919">
<ele>1682</ele>
<time>2013-05-04T14:17:08.000Z</time>
</trkpt>
<trkpt lat="42.666178" lon="-2.154838">
<ele>1681</ele>
<time>2013-05-04T14:17:09.000Z</time>
</trkpt>
<trkpt lat="42.666181" lon="-2.154754">
<ele>1680</ele>
<time>2013-05-04T14:17:10.000Z</time>
</trkpt>
<trkpt lat="42.666186" lon="-2.154676">
<ele>1679</ele>
<time>2013-05-04T14:17:11.000Z</time>
</trkpt>
<trkpt lat="42.66619" lon="-2.154593">
<ele>1679</ele>
<time>2013-05-04T14:17:12.000Z</time>
</trkpt>
<trkpt lat="42.66619" lon="-2.154512">
<ele>1678</ele>
<time>2013-05-04T14:17:13.000Z</time>
</trkpt>
<trkpt lat="42.666188" lon="-2.154428">
<ele>1677</ele>
<time>2013-05-04T14:17:14.000Z</time>
</trkpt>
<trkpt lat="42.666182" lon="-2.154346">
<ele>1676</ele>
<time>2013-05-04T14:17:15.000Z</time>
</trkpt>
<trkpt lat="42.666173" lon="-2.15426">
<ele>1676</ele>
<time>2013-05-04T14:17:16.000Z</time>
</trkpt>
<trkpt lat="42.666162" lon="-2.154172">
<ele>1676</ele>
<time>2013-05-04T14:17:17.000Z</time>
</trkpt>
<trkpt lat="42.666148" lon="-2.154089">
<ele>1675</ele>
<time>2013-05-04T14:17:18.000Z</time>
</trkpt>
<trkpt lat="42.666132" lon="-2.154009">
<ele>1675</ele>
<time>2013-05-04T14:17:19.000Z</time>
</trkpt>
<trkpt lat="42.666114" lon="-2.153928">
<ele>1675</ele>
<time>2013-05-04T14:17:20.000Z</time>
</trkpt>
<trkpt lat="42.666093" lon="-2.153844">
<ele>1675</ele>
<time>2013-05-04T14:17:21.000Z</time>
</trkpt>
<trkpt lat="42.666072" lon="-2.153756">
<ele>1675</ele>
<time>2013-05-04T14:17:22.000Z</time>
</trkpt>
<trkpt lat="42.666052" lon="-2.153676">
<ele>1674</ele>
<time>2013-05-04T14:17:23.000Z</time>
</trkpt>
<trkpt lat="42.666033" lon="-2.153598">
<ele>1672</ele>
<time>2013-05-04T14:17:24.000Z</time>
</trkpt>
<trkpt lat="42.666014" lon="-2.153528">
<ele>1670</ele>
<time>2013-05-04T14:17:25.000Z</time>
</trkpt>
<trkpt lat="42.665994" lon="-2.153448">
<ele>1670</ele>
<time>2013-05-04T14:17:26.000Z</time>
</trkpt>
<trkpt lat="42.66597" lon="-2.153364">
<ele>1671</ele>
<time>2013-05-04T14:17:27.000Z</time>
</trkpt>
<trkpt lat="42.665944" lon="-2.153276">
<ele>1669</ele>
<time>2013-05-04T14:17:28.000Z</time>
</trkpt>
<trkpt lat="42.665914" lon="-2.153175">
<ele>1670</ele>
<time>2013-05-04T14:17:29.000Z</time>
</trkpt>
<trkpt lat="42.665884" lon="-2.153081">
<ele>1670</ele>
<time>2013-05-04T14:17:30.000Z</time>
</trkpt>
<trkpt lat="42.665857" lon="-2.152998">
<ele>1670</ele>
<time>2013-05-04T14:17:31.000Z</time>
</trkpt>
<trkpt lat="42.665831" lon="-2.152916">
<ele>1671</ele>
<time>2013-05-04T14:17:32.000Z</time>
</trkpt>
<trkpt lat="42.665803" lon="-2.152828">
<ele>1671</ele>
<time>2013-05-04T14:17:33.000Z</time>
</trkpt>
<trkpt lat="42.665772" lon="-2.152737">
<ele>1668</ele>
<time>2013-05-04T14:17:34.000Z</time>
</trkpt>
<trkpt lat="42.665738" lon="-2.152635">
<ele>1667</ele>
<time>2013-05-04T14:17:35.000Z</time>
</trkpt>
<trkpt lat="42.665709" lon="-2.152529">
<ele>1665</ele>
<time>2013-05-04T14:17:36.000Z</time>
</trkpt>
<trkpt lat="42.665685" lon="-2.15242">
<ele>1665</ele>
<time>2013-05-04T14:17:37.000Z</time>
</trkpt>
<trkpt lat="42.66567" lon="-2.152317">
<ele>1664</ele>
<time>2013-05-04T14:17:38.000Z</time>
</trkpt>
<trkpt lat="42.665658" lon="-2.152216">
<ele>1664</ele>
<time>2013-05-04T14:17:39.000Z</time>
</trkpt>
<trkpt lat="42.665648" lon="-2.152121">
<ele>1663</ele>
<time>2013-05-04T14:17:40.000Z</time>
</trkpt>
<trkpt lat="42.66564" lon="-2.152028">
<ele>1661</ele>
<time>2013-05-04T14:17:41.000Z</time>
</trkpt>
<trkpt lat="42.665634" lon="-2.151939">
<ele>1657</ele>
<time>2013-05-04T14:17:42.000Z</time>
</trkpt>
<trkpt lat="42.665632" lon="-2.151845">
<ele>1654</ele>
<time>2013-05-04T14:17:43.000Z</time>
</trkpt>
<trkpt lat="42.665632" lon="-2.151751">
<ele>1650</ele>
<time>2013-05-04T14:17:44.000Z</time>
</trkpt>
<trkpt lat="42.665632" lon="-2.151653">
<ele>1648</ele>
<time>2013-05-04T14:17:45.000Z</time>
</trkpt>
<trkpt lat="42.665632" lon="-2.151538">
<ele>1647</ele>
<time>2013-05-04T14:17:46.000Z</time>
</trkpt>
<trkpt lat="42.665631" lon="-2.151425">
<ele>1646</ele>
<time>2013-05-04T14:17:47.000Z</time>
</trkpt>
<trkpt lat="42.665633" lon="-2.151316">
<ele>1645</ele>
<time>2013-05-04T14:17:48.000Z</time>
</trkpt>
<trkpt lat="42.665634" lon="-2.151207">
<ele>1645</ele>
<time>2013-05-04T14:17:49.000Z</time>
</trkpt>
<trkpt lat="42.665631" lon="-2.151102">
<ele>1644</ele>
<time>2013-05-04T14:17:50.000Z</time>
</trkpt>
<trkpt lat="42.665624" lon="-2.151009">
<ele>1644</ele>
<time>2013-05-04T14:17:51.000Z</time>
</trkpt>
<trkpt lat="42.665614" lon="-2.150926">
<ele>1643</ele>
<time>2013-05-04T14:17:52.000Z</time>
</trkpt>
<trkpt lat="42.665601" lon="-2.150842">
<ele>1643</ele>
<time>2013-05-04T14:17:53.000Z</time>
</trkpt>
<trkpt lat="42.665586" lon="-2.150754">
<ele>1642</ele>
<time>2013-05-04T14:17:54.000Z</time>
</trkpt>
<trkpt lat="42.665568" lon="-2.150657">
<ele>1640</ele>
<time>2013-05-04T14:17:55.000Z</time>
</trkpt>
<trkpt lat="42.665545" lon="-2.150551">
<ele>1639</ele>
<time>2013-05-04T14:17:56.000Z</time>
</trkpt>
<trkpt lat="42.665516" lon="-2.150447">
<ele>1638</ele>
<time>2013-05-04T14:17:57.000Z</time>
</trkpt>
<trkpt lat="42.665482" lon="-2.150349">
<ele>1637</ele>
<time>2013-05-04T14:17:58.000Z</time>
</trkpt>
<trkpt lat="42.665446" lon="-2.150249">
<ele>1637</ele>
<time>2013-05-04T14:17:59.000Z</time>
</trkpt>
<trkpt lat="42.66541" lon="-2.150152">
<ele>1637</ele>
<time>2013-05-04T14:18:00.000Z</time>
</trkpt>
<trkpt lat="42.665375" lon="-2.150055">
<ele>1637</ele>
<time>2013-05-04T14:18:01.000Z</time>
</trkpt>
<trkpt lat="42.665338" lon="-2.149952">
<ele>1636</ele>
<time>2013-05-04T14:18:02.000Z</time>
</trkpt>
<trkpt lat="42.665295" lon="-2.149849">
<ele>1634</ele>
<time>2013-05-04T14:18:03.000Z</time>
</trkpt>
<trkpt lat="42.665242" lon="-2.149742">
<ele>1632</ele>
<time>2013-05-04T14:18:04.000Z</time>
</trkpt>
<trkpt lat="42.665184" lon="-2.14965">
<ele>1631</ele>
<time>2013-05-04T14:18:05.000Z</time>
</trkpt>
<trkpt lat="42.665129" lon="-2.149579">
<ele>1628</ele>
<time>2013-05-04T14:18:06.000Z</time>
</trkpt>
<trkpt lat="42.665081" lon="-2.149503">
<ele>1629</ele>
<time>2013-05-04T14:18:07.000Z</time>
</trkpt>
<trkpt lat="42.665039" lon="-2.149432">
<ele>1629</ele>
<time>2013-05-04T14:18:08.000Z</time>
</trkpt>
<trkpt lat="42.664999" lon="-2.149359">
<ele>1631</ele>
<time>2013-05-04T14:18:09.000Z</time>
</trkpt>
<trkpt lat="42.664959" lon="-2.149292">
<ele>1632</ele>
<time>2013-05-04T14:18:10.000Z</time>
</trkpt>
<trkpt lat="42.664912" lon="-2.149222">
<ele>1633</ele>
<time>2013-05-04T14:18:11.000Z</time>
</trkpt>
<trkpt lat="42.664863" lon="-2.149147">
<ele>1633</ele>
<time>2013-05-04T14:18:12.000Z</time>
</trkpt>
<trkpt lat="42.664817" lon="-2.149076">
<ele>1634</ele>
<time>2013-05-04T14:18:13.000Z</time>
</trkpt>
<trkpt lat="42.664775" lon="-2.149004">
<ele>1635</ele>
<time>2013-05-04T14:18:14.000Z</time>
</trkpt>
<trkpt lat="42.664739" lon="-2.148936">
<ele>1635</ele>
<time>2013-05-04T14:18:15.000Z</time>
</trkpt>
<trkpt lat="42.664708" lon="-2.148874">
<ele>1635</ele>
<time>2013-05-04T14:18:16.000Z</time>
</trkpt>
<trkpt lat="42.664672" lon="-2.1488">
<ele>1635</ele>
<time>2013-05-04T14:18:17.000Z</time>
</trkpt>
<trkpt lat="42.664631" lon="-2.148728">
<ele>1636</ele>
<time>2013-05-04T14:18:18.000Z</time>
</trkpt>
<trkpt lat="42.664572" lon="-2.14868">
<ele>1639</ele>
<time>2013-05-04T14:18:19.000Z</time>
</trkpt>
<trkpt lat="42.664509" lon="-2.148637">
<ele>1640</ele>
<time>2013-05-04T14:18:20.000Z</time>
</trkpt>
<trkpt lat="42.664449" lon="-2.148599">
<ele>1640</ele>
<time>2013-05-04T14:18:21.000Z</time>
</trkpt>
<trkpt lat="42.664392" lon="-2.14856">
<ele>1639</ele>
<time>2013-05-04T14:18:22.000Z</time>
</trkpt>
<trkpt lat="42.664343" lon="-2.148502">
<ele>1639</ele>
<time>2013-05-04T14:18:23.000Z</time>
</trkpt>
<trkpt lat="42.66429" lon="-2.148431">
<ele>1637</ele>
<time>2013-05-04T14:18:24.000Z</time>
</trkpt>
<trkpt lat="42.664227" lon="-2.148339">
<ele>1633</ele>
<time>2013-05-04T14:18:25.000Z</time>
</trkpt>
<trkpt lat="42.664161" lon="-2.148236">
<ele>1631</ele>
<time>2013-05-04T14:18:26.000Z</time>
</trkpt>
<trkpt lat="42.664104" lon="-2.148138">
<ele>1631</ele>
<time>2013-05-04T14:18:27.000Z</time>
</trkpt>
<trkpt lat="42.664053" lon="-2.148038">
<ele>1631</ele>
<time>2013-05-04T14:18:28.000Z</time>
</trkpt>
<trkpt lat="42.664011" lon="-2.147938">
<ele>1630</ele>
<time>2013-05-04T14:18:29.000Z</time>
</trkpt>
<trkpt lat="42.663967" lon="-2.147813">
<ele>1629</ele>
<time>2013-05-04T14:18:30.000Z</time>
</trkpt>
<trkpt lat="42.663921" lon="-2.14767">
<ele>1627</ele>
<time>2013-05-04T14:18:31.000Z</time>
</trkpt>
<trkpt lat="42.663874" lon="-2.147521">
<ele>1625</ele>
<time>2013-05-04T14:18:32.000Z</time>
</trkpt>
<trkpt lat="42.663831" lon="-2.147379">
<ele>1625</ele>
<time>2013-05-04T14:18:33.000Z</time>
</trkpt>
<trkpt lat="42.663794" lon="-2.147256">
<ele>1626</ele>
<time>2013-05-04T14:18:34.000Z</time>
</trkpt>
<trkpt lat="42.663759" lon="-2.14715">
<ele>1628</ele>
<time>2013-05-04T14:18:35.000Z</time>
</trkpt>
<trkpt lat="42.663725" lon="-2.147053">
<ele>1630</ele>
<time>2013-05-04T14:18:36.000Z</time>
</trkpt>
<trkpt lat="42.66369" lon="-2.146952">
<ele>1632</ele>
<time>2013-05-04T14:18:37.000Z</time>
</trkpt>
<trkpt lat="42.663661" lon="-2.146863">
<ele>1635</ele>
<time>2013-05-04T14:18:38.000Z</time>
</trkpt>
<trkpt lat="42.663637" lon="-2.146771">
<ele>1639</ele>
<time>2013-05-04T14:18:39.000Z</time>
</trkpt>
<trkpt lat="42.663632" lon="-2.146689">
<ele>1642</ele>
<time>2013-05-04T14:18:40.000Z</time>
</trkpt>
<trkpt lat="42.663625" lon="-2.146613">
<ele>1644</ele>
<time>2013-05-04T14:18:41.000Z</time>
</trkpt>
<trkpt lat="42.663599" lon="-2.146536">
<ele>1646</ele>
<time>2013-05-04T14:18:42.000Z</time>
</trkpt>
<trkpt lat="42.663553" lon="-2.146451">
<ele>1650</ele>
<time>2013-05-04T14:18:43.000Z</time>
</trkpt>
<trkpt lat="42.6635" lon="-2.146368">
<ele>1654</ele>
<time>2013-05-04T14:18:44.000Z</time>
</trkpt>
<trkpt lat="42.663436" lon="-2.146309">
<ele>1658</ele>
<time>2013-05-04T14:18:45.000Z</time>
</trkpt>
<trkpt lat="42.663365" lon="-2.146247">
<ele>1662</ele>
<time>2013-05-04T14:18:46.000Z</time>
</trkpt>
<trkpt lat="42.663278" lon="-2.146223">
<ele>1665</ele>
<time>2013-05-04T14:18:47.000Z</time>
</trkpt>
<trkpt lat="42.663183" lon="-2.146244">
<ele>1667</ele>
<time>2013-05-04T14:18:48.000Z</time>
</trkpt>
<trkpt lat="42.663087" lon="-2.146281">
<ele>1670</ele>
<time>2013-05-04T14:18:49.000Z</time>
</trkpt>
<trkpt lat="42.663002" lon="-2.146327">
<ele>1674</ele>
<time>2013-05-04T14:18:50.000Z</time>
</trkpt>
<trkpt lat="42.662932" lon="-2.146375">
<ele>1678</ele>
<time>2013-05-04T14:18:51.000Z</time>
</trkpt>
<trkpt lat="42.662875" lon="-2.146439">
<ele>1681</ele>
<time>2013-05-04T14:18:52.000Z</time>
</trkpt>
<trkpt lat="42.662825" lon="-2.146504">
<ele>1683</ele>
<time>2013-05-04T14:18:53.000Z</time>
</trkpt>
<trkpt lat="42.662785" lon="-2.146591">
<ele>1685</ele>
<time>2013-05-04T14:18:54.000Z</time>
</trkpt>
<trkpt lat="42.662747" lon="-2.146683">
<ele>1686</ele>
<time>2013-05-04T14:18:55.000Z</time>
</trkpt>
<trkpt lat="42.662715" lon="-2.146774">
<ele>1685</ele>
<time>2013-05-04T14:18:56.000Z</time>
</trkpt>
<trkpt lat="42.662709" lon="-2.146858">
<ele>1684</ele>
<time>2013-05-04T14:18:57.000Z</time>
</trkpt>
<trkpt lat="42.662718" lon="-2.146948">
<ele>1684</ele>
<time>2013-05-04T14:18:58.000Z</time>
</trkpt>
<trkpt lat="42.662746" lon="-2.147035">
<ele>1683</ele>
<time>2013-05-04T14:18:59.000Z</time>
</trkpt>
<trkpt lat="42.66279" lon="-2.147104">
<ele>1683</ele>
<time>2013-05-04T14:19:00.000Z</time>
</trkpt>
<trkpt lat="42.662839" lon="-2.147173">
<ele>1684</ele>
<time>2013-05-04T14:19:01.000Z</time>
</trkpt>
<trkpt lat="42.662895" lon="-2.147211">
<ele>1685</ele>
<time>2013-05-04T14:19:02.000Z</time>
</trkpt>
<trkpt lat="42.662951" lon="-2.147224">
<ele>1685</ele>
<time>2013-05-04T14:19:03.000Z</time>
</trkpt>
<trkpt lat="42.663016" lon="-2.147213">
<ele>1685</ele>
<time>2013-05-04T14:19:04.000Z</time>
</trkpt>
<trkpt lat="42.663085" lon="-2.147176">
<ele>1684</ele>
<time>2013-05-04T14:19:05.000Z</time>
</trkpt>
<trkpt lat="42.663161" lon="-2.147129">
<ele>1682</ele>
<time>2013-05-04T14:19:06.000Z</time>
</trkpt>
<trkpt lat="42.663226" lon="-2.147078">
<ele>1683</ele>
<time>2013-05-04T14:19:07.000Z</time>
</trkpt>
<trkpt lat="42.663281" lon="-2.147025">
<ele>1683</ele>
<time>2013-05-04T14:19:08.000Z</time>
</trkpt>
<trkpt lat="42.663329" lon="-2.146961">
<ele>1684</ele>
<time>2013-05-04T14:19:09.000Z</time>
</trkpt>
<trkpt lat="42.663372" lon="-2.146896">
<ele>1685</ele>
<time>2013-05-04T14:19:10.000Z</time>
</trkpt>
<trkpt lat="42.663417" lon="-2.146827">
<ele>1687</ele>
<time>2013-05-04T14:19:11.000Z</time>
</trkpt>
<trkpt lat="42.663464" lon="-2.146751">
<ele>1688</ele>
<time>2013-05-04T14:19:12.000Z</time>
</trkpt>
<trkpt lat="42.663517" lon="-2.146666">
<ele>1690</ele>
<time>2013-05-04T14:19:13.000Z</time>
</trkpt>
<trkpt lat="42.663571" lon="-2.146578">
<ele>1693</ele>
<time>2013-05-04T14:19:14.000Z</time>
</trkpt>
<trkpt lat="42.663614" lon="-2.146498">
<ele>1697</ele>
<time>2013-05-04T14:19:15.000Z</time>
</trkpt>
<trkpt lat="42.663648" lon="-2.146432">
<ele>1701</ele>
<time>2013-05-04T14:19:16.000Z</time>
</trkpt>
<trkpt lat="42.663682" lon="-2.146367">
<ele>1706</ele>
<time>2013-05-04T14:19:17.000Z</time>
</trkpt>
<trkpt lat="42.663709" lon="-2.146313">
<ele>1709</ele>
<time>2013-05-04T14:19:18.000Z</time>
</trkpt>
<trkpt lat="42.663733" lon="-2.146263">
<ele>1710</ele>
<time>2013-05-04T14:19:19.000Z</time>
</trkpt>
<trkpt lat="42.663758" lon="-2.146216">
<ele>1711</ele>
<time>2013-05-04T14:19:20.000Z</time>
</trkpt>
<trkpt lat="42.663789" lon="-2.146157">
<ele>1710</ele>
<time>2013-05-04T14:19:21.000Z</time>
</trkpt>
<trkpt lat="42.663823" lon="-2.146078">
<ele>1710</ele>
<time>2013-05-04T14:19:22.000Z</time>
</trkpt>
<trkpt lat="42.663827" lon="-2.145978">
<ele>1710</ele>
<time>2013-05-04T14:19:23.000Z</time>
</trkpt>
<trkpt lat="42.663809" lon="-2.145887">
<ele>1711</ele>
<time>2013-05-04T14:19:24.000Z</time>
</trkpt>
<trkpt lat="42.663773" lon="-2.145809">
<ele>1712</ele>
<time>2013-05-04T14:19:25.000Z</time>
</trkpt>
<trkpt lat="42.66373" lon="-2.145735">
<ele>1714</ele>
<time>2013-05-04T14:19:26.000Z</time>
</trkpt>
<trkpt lat="42.663669" lon="-2.145671">
<ele>1714</ele>
<time>2013-05-04T14:19:27.000Z</time>
</trkpt>
<trkpt lat="42.663597" lon="-2.145598">
<ele>1717</ele>
<time>2013-05-04T14:19:28.000Z</time>
</trkpt>
<trkpt lat="42.66352" lon="-2.145527">
<ele>1719</ele>
<time>2013-05-04T14:19:29.000Z</time>
</trkpt>
<trkpt lat="42.663436" lon="-2.145462">
<ele>1723</ele>
<time>2013-05-04T14:19:30.000Z</time>
</trkpt>
<trkpt lat="42.663341" lon="-2.14542">
<ele>1726</ele>
<time>2013-05-04T14:19:31.000Z</time>
</trkpt>
<trkpt lat="42.663237" lon="-2.145385">
<ele>1729</ele>
<time>2013-05-04T14:19:32.000Z</time>
</trkpt>
<trkpt lat="42.663128" lon="-2.145366">
<ele>1731</ele>
<time>2013-05-04T14:19:33.000Z</time>
</trkpt>
<trkpt lat="42.663017" lon="-2.145379">
<ele>1733</ele>
<time>2013-05-04T14:19:34.000Z</time>
</trkpt>
<trkpt lat="42.662909" lon="-2.145395">
<ele>1735</ele>
<time>2013-05-04T14:19:35.000Z</time>
</trkpt>
<trkpt lat="42.662806" lon="-2.14542">
<ele>1737</ele>
<time>2013-05-04T14:19:36.000Z</time>
</trkpt>
<trkpt lat="42.662707" lon="-2.145455">
<ele>1738</ele>
<time>2013-05-04T14:19:37.000Z</time>
</trkpt>
<trkpt lat="42.662606" lon="-2.145498">
<ele>1740</ele>
<time>2013-05-04T14:19:38.000Z</time>
</trkpt>
<trkpt lat="42.662502" lon="-2.145548">
<ele>1741</ele>
<time>2013-05-04T14:19:39.000Z</time>
</trkpt>
<trkpt lat="42.662399" lon="-2.145602">
<ele>1744</ele>
<time>2013-05-04T14:19:40.000Z</time>
</trkpt>
<trkpt lat="42.662315" lon="-2.145656">
<ele>1747</ele>
<time>2013-05-04T14:19:41.000Z</time>
</trkpt>
<trkpt lat="42.662245" lon="-2.14574">
<ele>1750</ele>
<time>2013-05-04T14:19:42.000Z</time>
</trkpt>
<trkpt lat="42.662175" lon="-2.145827">
<ele>1753</ele>
<time>2013-05-04T14:19:43.000Z</time>
</trkpt>
<trkpt lat="42.662111" lon="-2.145913">
<ele>1755</ele>
<time>2013-05-04T14:19:44.000Z</time>
</trkpt>
<trkpt lat="42.662048" lon="-2.146005">
<ele>1757</ele>
<time>2013-05-04T14:19:45.000Z</time>
</trkpt>
<trkpt lat="42.66199" lon="-2.1461">
<ele>1759</ele>
<time>2013-05-04T14:19:46.000Z</time>
</trkpt>
<trkpt lat="42.661957" lon="-2.146205">
<ele>1760</ele>
<time>2013-05-04T14:19:47.000Z</time>
</trkpt>
<trkpt lat="42.661929" lon="-2.146302">
<ele>1761</ele>
<time>2013-05-04T14:19:48.000Z</time>
</trkpt>
<trkpt lat="42.661925" lon="-2.146387">
<ele>1761</ele>
<time>2013-05-04T14:19:49.000Z</time>
</trkpt>
<trkpt lat="42.661925" lon="-2.146458">
<ele>1763</ele>
<time>2013-05-04T14:19:50.000Z</time>
</trkpt>
<trkpt lat="42.661942" lon="-2.146525">
<ele>1765</ele>
<time>2013-05-04T14:19:51.000Z</time>
</trkpt>
<trkpt lat="42.661962" lon="-2.146582">
<ele>1766</ele>
<time>2013-05-04T14:19:52.000Z</time>
</trkpt>
<trkpt lat="42.661995" lon="-2.146639">
<ele>1770</ele>
<time>2013-05-04T14:19:53.000Z</time>
</trkpt>
<trkpt lat="42.662032" lon="-2.146695">
<ele>1773</ele>
<time>2013-05-04T14:19:54.000Z</time>
</trkpt>
<trkpt lat="42.662072" lon="-2.146742">
<ele>1775</ele>
<time>2013-05-04T14:19:55.000Z</time>
</trkpt>
<trkpt lat="42.662116" lon="-2.146776">
<ele>1777</ele>
<time>2013-05-04T14:19:56.000Z</time>
</trkpt>
<trkpt lat="42.662163" lon="-2.146794">
<ele>1779</ele>
<time>2013-05-04T14:19:57.000Z</time>
</trkpt>
<trkpt lat="42.662207" lon="-2.146786">
<ele>1780</ele>
<time>2013-05-04T14:19:58.000Z</time>
</trkpt>
<trkpt lat="42.662248" lon="-2.146763">
<ele>1781</ele>
<time>2013-05-04T14:19:59.000Z</time>
</trkpt>
<trkpt lat="42.662297" lon="-2.14673">
<ele>1782</ele>
<time>2013-05-04T14:20:00.000Z</time>
</trkpt>
<trkpt lat="42.662348" lon="-2.146686">
<ele>1783</ele>
<time>2013-05-04T14:20:01.000Z</time>
</trkpt>
<trkpt lat="42.662389" lon="-2.146626">
<ele>1785</ele>
<time>2013-05-04T14:20:02.000Z</time>
</trkpt>
<trkpt lat="42.662423" lon="-2.146547">
<ele>1787</ele>
<time>2013-05-04T14:20:03.000Z</time>
</trkpt>
<trkpt lat="42.662459" lon="-2.14645">
<ele>1788</ele>
<time>2013-05-04T14:20:04.000Z</time>
</trkpt>
<trkpt lat="42.662467" lon="-2.146344">
<ele>1791</ele>
<time>2013-05-04T14:20:05.000Z</time>
</trkpt>
<trkpt lat="42.662459" lon="-2.146252">
<ele>1794</ele>
<time>2013-05-04T14:20:06.000Z</time>
</trkpt>
<trkpt lat="42.662446" lon="-2.14617">
<ele>1797</ele>
<time>2013-05-04T14:20:07.000Z</time>
</trkpt>
<trkpt lat="42.66243" lon="-2.146091">
<ele>1800</ele>
<time>2013-05-04T14:20:08.000Z</time>
</trkpt>
<trkpt lat="42.662415" lon="-2.146006">
<ele>1802</ele>
<time>2013-05-04T14:20:09.000Z</time>
</trkpt>
<trkpt lat="42.662398" lon="-2.145903">
<ele>1805</ele>
<time>2013-05-04T14:20:10.000Z</time>
</trkpt>
<trkpt lat="42.662382" lon="-2.145805">
<ele>1806</ele>
<time>2013-05-04T14:20:11.000Z</time>
</trkpt>
<trkpt lat="42.662351" lon="-2.145727">
<ele>1807</ele>
<time>2013-05-04T14:20:12.000Z</time>
</trkpt>
<trkpt lat="42.662319" lon="-2.145657">
<ele>1809</ele>
<time>2013-05-04T14:20:13.000Z</time>
</trkpt>
<trkpt lat="42.66228" lon="-2.145583">
<ele>1810</ele>
<time>2013-05-04T14:20:14.000Z</time>
</trkpt>
<trkpt lat="42.662231" lon="-2.145503">
<ele>1812</ele>
<time>2013-05-04T14:20:15.000Z</time>
</trkpt>
<trkpt lat="42.662159" lon="-2.145422">
<ele>1816</ele>
<time>2013-05-04T14:20:16.000Z</time>
</trkpt>
<trkpt lat="42.662067" lon="-2.145356">
<ele>1819</ele>
<time>2013-05-04T14:20:17.000Z</time>
</trkpt>
<trkpt lat="42.661964" lon="-2.145323">
<ele>1824</ele>
<time>2013-05-04T14:20:18.000Z</time>
</trkpt>
<trkpt lat="42.661853" lon="-2.145297">
<ele>1827</ele>
<time>2013-05-04T14:20:19.000Z</time>
</trkpt>
<trkpt lat="42.661749" lon="-2.145279">
<ele>1830</ele>
<time>2013-05-04T14:20:20.000Z</time>
</trkpt>
<trkpt lat="42.661651" lon="-2.145267">
<ele>1833</ele>
<time>2013-05-04T14:20:21.000Z</time>
</trkpt>
<trkpt lat="42.661558" lon="-2.145268">
<ele>1835</ele>
<time>2013-05-04T14:20:22.000Z</time>
</trkpt>
<trkpt lat="42.661471" lon="-2.145301">
<ele>1838</ele>
<time>2013-05-04T14:20:23.000Z</time>
</trkpt>
<trkpt lat="42.661377" lon="-2.145347">
<ele>1840</ele>
<time>2013-05-04T14:20:24.000Z</time>
</trkpt>
<trkpt lat="42.661277" lon="-2.145404">
<ele>1843</ele>
<time>2013-05-04T14:20:25.000Z</time>
</trkpt>
<trkpt lat="42.661179" lon="-2.145467">
<ele>1846</ele>
<time>2013-05-04T14:20:26.000Z</time>
</trkpt>
<trkpt lat="42.661109" lon="-2.145546">
<ele>1849</ele>
<time>2013-05-04T14:20:27.000Z</time>
</trkpt>
<trkpt lat="42.661041" lon="-2.145632">
<ele>1852</ele>
<time>2013-05-04T14:20:28.000Z</time>
</trkpt>
<trkpt lat="42.660987" lon="-2.14575">
<ele>1854</ele>
<time>2013-05-04T14:20:29.000Z</time>
</trkpt>
<trkpt lat="42.66094" lon="-2.145867">
<ele>1856</ele>
<time>2013-05-04T14:20:30.000Z</time>
</trkpt>
<trkpt lat="42.660903" lon="-2.145965">
<ele>1858</ele>
<time>2013-05-04T14:20:31.000Z</time>
</trkpt>
<trkpt lat="42.660876" lon="-2.146039">
<ele>1860</ele>
<time>2013-05-04T14:20:32.000Z</time>
</trkpt>
<trkpt lat="42.660874" lon="-2.146112">
<ele>1860</ele>
<time>2013-05-04T14:20:33.000Z</time>
</trkpt>
<trkpt lat="42.660892" lon="-2.146191">
<ele>1861</ele>
<time>2013-05-04T14:20:34.000Z</time>
</trkpt>
<trkpt lat="42.660915" lon="-2.146274">
<ele>1862</ele>
<time>2013-05-04T14:20:35.000Z</time>
</trkpt>
<trkpt lat="42.660944" lon="-2.146326">
<ele>1863</ele>
<time>2013-05-04T14:20:36.000Z</time>
</trkpt>
<trkpt lat="42.660983" lon="-2.146338">
<ele>1864</ele>
<time>2013-05-04T14:20:37.000Z</time>
</trkpt>
<trkpt lat="42.661022" lon="-2.146308">
<ele>1865</ele>
<time>2013-05-04T14:20:38.000Z</time>
</trkpt>
<trkpt lat="42.661058" lon="-2.146267">
<ele>1868</ele>
<time>2013-05-04T14:20:39.000Z</time>
</trkpt>
<trkpt lat="42.661068" lon="-2.146224">
<ele>1870</ele>
<time>2013-05-04T14:20:40.000Z</time>
</trkpt>
<trkpt lat="42.661079" lon="-2.146182">
<ele>1873</ele>
<time>2013-05-04T14:20:41.000Z</time>
</trkpt>
<trkpt lat="42.66109" lon="-2.146143">
<ele>1877</ele>
<time>2013-05-04T14:20:42.000Z</time>
</trkpt>
<trkpt lat="42.661106" lon="-2.146096">
<ele>1880</ele>
<time>2013-05-04T14:20:43.000Z</time>
</trkpt>
<trkpt lat="42.661128" lon="-2.146039">
<ele>1883</ele>
<time>2013-05-04T14:20:44.000Z</time>
</trkpt>
<trkpt lat="42.661155" lon="-2.145975">
<ele>1886</ele>
<time>2013-05-04T14:20:45.000Z</time>
</trkpt>
<trkpt lat="42.661167" lon="-2.145911">
<ele>1889</ele>
<time>2013-05-04T14:20:46.000Z</time>
</trkpt>
<trkpt lat="42.661165" lon="-2.145838">
<ele>1889</ele>
<time>2013-05-04T14:20:47.000Z</time>
</trkpt>
<trkpt lat="42.661158" lon="-2.145762">
<ele>1890</ele>
<time>2013-05-04T14:20:48.000Z</time>
</trkpt>
<trkpt lat="42.661142" lon="-2.145672">
<ele>1892</ele>
<time>2013-05-04T14:20:49.000Z</time>
</trkpt>
<trkpt lat="42.661122" lon="-2.145586">
<ele>1894</ele>
<time>2013-05-04T14:20:50.000Z</time>
</trkpt>
<trkpt lat="42.661093" lon="-2.145499">
<ele>1896</ele>
<time>2013-05-04T14:20:51.000Z</time>
</trkpt>
<trkpt lat="42.661041" lon="-2.145416">
<ele>1897</ele>
<time>2013-05-04T14:20:52.000Z</time>
</trkpt>
<trkpt lat="42.660977" lon="-2.145324">
<ele>1899</ele>
<time>2013-05-04T14:20:53.000Z</time>
</trkpt>
<trkpt lat="42.660908" lon="-2.145233">
<ele>1902</ele>
<time>2013-05-04T14:20:54.000Z</time>
</trkpt>
<trkpt lat="42.660834" lon="-2.145149">
<ele>1906</ele>
<time>2013-05-04T14:20:55.000Z</time>
</trkpt>
<trkpt lat="42.660749" lon="-2.145069">
<ele>1910</ele>
<time>2013-05-04T14:20:56.000Z</time>
</trkpt>
<trkpt lat="42.660645" lon="-2.145013">
<ele>1913</ele>
<time>2013-05-04T14:20:57.000Z</time>
</trkpt>
<trkpt lat="42.660541" lon="-2.144965">
<ele>1916</ele>
<time>2013-05-04T14:20:58.000Z</time>
</trkpt>
<trkpt lat="42.660438" lon="-2.144928">
<ele>1919</ele>
<time>2013-05-04T14:20:59.000Z</time>
</trkpt>
<trkpt lat="42.660341" lon="-2.144905">
<ele>1922</ele>
<time>2013-05-04T14:21:00.000Z</time>
</trkpt>
<trkpt lat="42.660245" lon="-2.14491">
<ele>1925</ele>
<time>2013-05-04T14:21:01.000Z</time>
</trkpt>
<trkpt lat="42.66015" lon="-2.144924">
<ele>1927</ele>
<time>2013-05-04T14:21:02.000Z</time>
</trkpt>
<trkpt lat="42.660051" lon="-2.144947">
<ele>1928</ele>
<time>2013-05-04T14:21:03.000Z</time>
</trkpt>
<trkpt lat="42.659955" lon="-2.144982">
<ele>1930</ele>
<time>2013-05-04T14:21:04.000Z</time>
</trkpt>
<trkpt lat="42.659865" lon="-2.145025">
<ele>1932</ele>
<time>2013-05-04T14:21:05.000Z</time>
</trkpt>
<trkpt lat="42.659784" lon="-2.145068">
<ele>1933</ele>
<time>2013-05-04T14:21:06.000Z</time>
</trkpt>
<trkpt lat="42.659708" lon="-2.145117">
<ele>1935</ele>
<time>2013-05-04T14:21:07.000Z</time>
</trkpt>
<trkpt lat="42.65964" lon="-2.145187">
<ele>1936</ele>
<time>2013-05-04T14:21:08.000Z</time>
</trkpt>
<trkpt lat="42.659572" lon="-2.145269">
<ele>1936</ele>
<time>2013-05-04T14:21:09.000Z</time>
</trkpt>
<trkpt lat="42.659516" lon="-2.145377">
<ele>1936</ele>
<time>2013-05-04T14:21:10.000Z</time>
</trkpt>
<trkpt lat="42.659467" lon="-2.145485">
<ele>1935</ele>
<time>2013-05-04T14:21:11.000Z</time>
</trkpt>
<trkpt lat="42.65943" lon="-2.14561">
<ele>1935</ele>
<time>2013-05-04T14:21:12.000Z</time>
</trkpt>
<trkpt lat="42.659404" lon="-2.145718">
<ele>1935</ele>
<time>2013-05-04T14:21:13.000Z</time>
</trkpt>
<trkpt lat="42.659402" lon="-2.14581">
<ele>1936</ele>
<time>2013-05-04T14:21:14.000Z</time>
</trkpt>
<trkpt lat="42.659404" lon="-2.145894">
<ele>1935</ele>
<time>2013-05-04T14:21:15.000Z</time>
</trkpt>
<trkpt lat="42.659423" lon="-2.145973">
<ele>1935</ele>
<time>2013-05-04T14:21:16.000Z</time>
</trkpt>
<trkpt lat="42.659447" lon="-2.146056">
<ele>1935</ele>
<time>2013-05-04T14:21:17.000Z</time>
</trkpt>
<trkpt lat="42.659488" lon="-2.146104">
<ele>1935</ele>
<time>2013-05-04T14:21:18.000Z</time>
</trkpt>
<trkpt lat="42.659534" lon="-2.14613">
<ele>1934</ele>
<time>2013-05-04T14:21:19.000Z</time>
</trkpt>
<trkpt lat="42.65958" lon="-2.146151">
<ele>1935</ele>
<time>2013-05-04T14:21:20.000Z</time>
</trkpt>
<trkpt lat="42.659621" lon="-2.146156">
<ele>1935</ele>
<time>2013-05-04T14:21:21.000Z</time>
</trkpt>
<trkpt lat="42.659655" lon="-2.146156">
<ele>1937</ele>
<time>2013-05-04T14:21:22.000Z</time>
</trkpt>
<trkpt lat="42.659682" lon="-2.146137">
<ele>1939</ele>
<time>2013-05-04T14:21:23.000Z</time>
</trkpt>
<trkpt lat="42.659708" lon="-2.146108">
<ele>1940</ele>
<time>2013-05-04T14:21:24.000Z</time>
</trkpt>
<trkpt lat="42.659734" lon="-2.146073">
<ele>1942</ele>
<time>2013-05-04T14:21:25.000Z</time>
</trkpt>
<trkpt lat="42.659763" lon="-2.146031">
<ele>1943</ele>
<time>2013-05-04T14:21:26.000Z</time>
</trkpt>
<trkpt lat="42.659789" lon="-2.145989">
<ele>1944</ele>
<time>2013-05-04T14:21:27.000Z</time>
</trkpt>
<trkpt lat="42.659813" lon="-2.145953">
<ele>1945</ele>
<time>2013-05-04T14:21:28.000Z</time>
</trkpt>
<trkpt lat="42.659843" lon="-2.145927">
<ele>1946</ele>
<time>2013-05-04T14:21:29.000Z</time>
</trkpt>
<trkpt lat="42.659873" lon="-2.145896">
<ele>1947</ele>
<time>2013-05-04T14:21:30.000Z</time>
</trkpt>
<trkpt lat="42.659891" lon="-2.145842">
<ele>1949</ele>
<time>2013-05-04T14:21:31.000Z</time>
</trkpt>
<trkpt lat="42.659899" lon="-2.145768">
<ele>1952</ele>
<time>2013-05-04T14:21:32.000Z</time>
</trkpt>
<trkpt lat="42.659906" lon="-2.145687">
<ele>1954</ele>
<time>2013-05-04T14:21:33.000Z</time>
</trkpt>
<trkpt lat="42.65991" lon="-2.145612">
<ele>1956</ele>
<time>2013-05-04T14:21:34.000Z</time>
</trkpt>
<trkpt lat="42.659914" lon="-2.145545">
<ele>1958</ele>
<time>2013-05-04T14:21:35.000Z</time>
</trkpt>
<trkpt lat="42.65992" lon="-2.145476">
<ele>1960</ele>
<time>2013-05-04T14:21:36.000Z</time>
</trkpt>
<trkpt lat="42.659932" lon="-2.145398">
<ele>1963</ele>
<time>2013-05-04T14:21:37.000Z</time>
</trkpt>
<trkpt lat="42.659945" lon="-2.145313">
<ele>1965</ele>
<time>2013-05-04T14:21:38.000Z</time>
</trkpt>
<trkpt lat="42.659959" lon="-2.145235">
<ele>1968</ele>
<time>2013-05-04T14:21:39.000Z</time>
</trkpt>
<trkpt lat="42.659968" lon="-2.145164">
<ele>1971</ele>
<time>2013-05-04T14:21:40.000Z</time>
</trkpt>
<trkpt lat="42.659972" lon="-2.145096">
<ele>1973</ele>
<time>2013-05-04T14:21:41.000Z</time>
</trkpt>
<trkpt lat="42.659963" lon="-2.145023">
<ele>1972</ele>
<time>2013-05-04T14:21:42.000Z</time>
</trkpt>
<trkpt lat="42.659945" lon="-2.144933">
<ele>1972</ele>
<time>2013-05-04T14:21:43.000Z</time>
</trkpt>
<trkpt lat="42.659898" lon="-2.144826">
<ele>1969</ele>
<time>2013-05-04T14:21:44.000Z</time>
</trkpt>
<trkpt lat="42.65984" lon="-2.144715">
<ele>1968</ele>
<time>2013-05-04T14:21:45.000Z</time>
</trkpt>
<trkpt lat="42.659755" lon="-2.144634">
<ele>1967</ele>
<time>2013-05-04T14:21:46.000Z</time>
</trkpt>
<trkpt lat="42.659656" lon="-2.144582">
<ele>1968</ele>
<time>2013-05-04T14:21:47.000Z</time>
</trkpt>
<trkpt lat="42.659554" lon="-2.144562">
<ele>1970</ele>
<time>2013-05-04T14:21:48.000Z</time>
</trkpt>
<trkpt lat="42.65943" lon="-2.144544">
<ele>1969</ele>
<time>2013-05-04T14:21:49.000Z</time>
</trkpt>
<trkpt lat="42.659312" lon="-2.144541">
<ele>1970</ele>
<time>2013-05-04T14:21:50.000Z</time>
</trkpt>
<trkpt lat="42.659206" lon="-2.144552">
<ele>1971</ele>
<time>2013-05-04T14:21:51.000Z</time>
</trkpt>
<trkpt lat="42.659108" lon="-2.144592">
<ele>1971</ele>
<time>2013-05-04T14:21:52.000Z</time>
</trkpt>
<trkpt lat="42.659017" lon="-2.144638">
<ele>1971</ele>
<time>2013-05-04T14:21:53.000Z</time>
</trkpt>
<trkpt lat="42.658928" lon="-2.144724">
<ele>1971</ele>
<time>2013-05-04T14:21:54.000Z</time>
</trkpt>
<trkpt lat="42.658844" lon="-2.14482">
<ele>1971</ele>
<time>2013-05-04T14:21:55.000Z</time>
</trkpt>
<trkpt lat="42.658775" lon="-2.144945">
<ele>1972</ele>
<time>2013-05-04T14:21:56.000Z</time>
</trkpt>
<trkpt lat="42.658716" lon="-2.145063">
<ele>1973</ele>
<time>2013-05-04T14:21:57.000Z</time>
</trkpt>
<trkpt lat="42.658668" lon="-2.14517">
<ele>1975</ele>
<time>2013-05-04T14:21:58.000Z</time>
</trkpt>
<trkpt lat="42.658633" lon="-2.145266">
<ele>1977</ele>
<time>2013-05-04T14:21:59.000Z</time>
</trkpt>
<trkpt lat="42.658617" lon="-2.145363">
<ele>1978</ele>
<time>2013-05-04T14:22:00.000Z</time>
</trkpt>
<trkpt lat="42.658605" lon="-2.145448">
<ele>1978</ele>
<time>2013-05-04T14:22:01.000Z</time>
</trkpt>
<trkpt lat="42.658597" lon="-2.145532">
<ele>1978</ele>
<time>2013-05-04T14:22:02.000Z</time>
</trkpt>
<trkpt lat="42.658593" lon="-2.145617">
<ele>1978</ele>
<time>2013-05-04T14:22:03.000Z</time>
</trkpt>
<trkpt lat="42.658602" lon="-2.145701">
<ele>1978</ele>
<time>2013-05-04T14:22:04.000Z</time>
</trkpt>
<trkpt lat="42.658613" lon="-2.145777">
<ele>1977</ele>
<time>2013-05-04T14:22:05.000Z</time>
</trkpt>
<trkpt lat="42.658626" lon="-2.145845">
<ele>1977</ele>
<time>2013-05-04T14:22:06.000Z</time>
</trkpt>
<trkpt lat="42.65864" lon="-2.145918">
<ele>1976</ele>
<time>2013-05-04T14:22:07.000Z</time>
</trkpt>
<trkpt lat="42.658652" lon="-2.145994">
<ele>1975</ele>
<time>2013-05-04T14:22:08.000Z</time>
</trkpt>
<trkpt lat="42.658661" lon="-2.146075">
<ele>1974</ele>
<time>2013-05-04T14:22:09.000Z</time>
</trkpt>
<trkpt lat="42.658656" lon="-2.146153">
<ele>1974</ele>
<time>2013-05-04T14:22:10.000Z</time>
</trkpt>
<trkpt lat="42.658648" lon="-2.146224">
<ele>1974</ele>
<time>2013-05-04T14:22:11.000Z</time>
</trkpt>
<trkpt lat="42.658636" lon="-2.146292">
<ele>1974</ele>
<time>2013-05-04T14:22:12.000Z</time>
</trkpt>
<trkpt lat="42.658626" lon="-2.146354">
<ele>1973</ele>
<time>2013-05-04T14:22:13.000Z</time>
</trkpt>
<trkpt lat="42.658642" lon="-2.146417">
<ele>1971</ele>
<time>2013-05-04T14:22:14.000Z</time>
</trkpt>
<trkpt lat="42.658678" lon="-2.146461">
<ele>1967</ele>
<time>2013-05-04T14:22:15.000Z</time>
</trkpt>
<trkpt lat="42.658726" lon="-2.146486">
<ele>1964</ele>
<time>2013-05-04T14:22:16.000Z</time>
</trkpt>
<trkpt lat="42.658778" lon="-2.146466">
<ele>1963</ele>
<time>2013-05-04T14:22:17.000Z</time>
</trkpt>
<trkpt lat="42.658826" lon="-2.146425">
<ele>1961</ele>
<time>2013-05-04T14:22:18.000Z</time>
</trkpt>
<trkpt lat="42.658865" lon="-2.146391">
<ele>1960</ele>
<time>2013-05-04T14:22:19.000Z</time>
</trkpt>
<trkpt lat="42.658897" lon="-2.146383">
<ele>1959</ele>
<time>2013-05-04T14:22:20.000Z</time>
</trkpt>
<trkpt lat="42.658935" lon="-2.146376">
<ele>1958</ele>
<time>2013-05-04T14:22:21.000Z</time>
</trkpt>
<trkpt lat="42.658979" lon="-2.146363">
<ele>1957</ele>
<time>2013-05-04T14:22:22.000Z</time>
</trkpt>
<trkpt lat="42.659019" lon="-2.146325">
<ele>1955</ele>
<time>2013-05-04T14:22:23.000Z</time>
</trkpt>
<trkpt lat="42.659051" lon="-2.146267">
<ele>1953</ele>
<time>2013-05-04T14:22:24.000Z</time>
</trkpt>
<trkpt lat="42.659085" lon="-2.146197">
<ele>1952</ele>
<time>2013-05-04T14:22:25.000Z</time>
</trkpt>
<trkpt lat="42.659111" lon="-2.146111">
<ele>1951</ele>
<time>2013-05-04T14:22:26.000Z</time>
</trkpt>
<trkpt lat="42.659124" lon="-2.146007">
<ele>1951</ele>
<time>2013-05-04T14:22:27.000Z</time>
</trkpt>
<trkpt lat="42.659117" lon="-2.145893">
<ele>1952</ele>
<time>2013-05-04T14:22:28.000Z</time>
</trkpt>
<trkpt lat="42.659105" lon="-2.145782">
<ele>1952</ele>
<time>2013-05-04T14:22:29.000Z</time>
</trkpt>
<trkpt lat="42.659087" lon="-2.145672">
<ele>1952</ele>
<time>2013-05-04T14:22:30.000Z</time>
</trkpt>
<trkpt lat="42.65906" lon="-2.145555">
<ele>1951</ele>
<time>2013-05-04T14:22:31.000Z</time>
</trkpt>
<trkpt lat="42.659004" lon="-2.145446">
<ele>1952</ele>
<time>2013-05-04T14:22:32.000Z</time>
</trkpt>
<trkpt lat="42.658927" lon="-2.14535">
<ele>1953</ele>
<time>2013-05-04T14:22:33.000Z</time>
</trkpt>
<trkpt lat="42.658842" lon="-2.145261">
<ele>1956</ele>
<time>2013-05-04T14:22:34.000Z</time>
</trkpt>
<trkpt lat="42.658747" lon="-2.145176">
<ele>1959</ele>
<time>2013-05-04T14:22:35.000Z</time>
</trkpt>
<trkpt lat="42.658652" lon="-2.145093">
<ele>1962</ele>
<time>2013-05-04T14:22:36.000Z</time>
</trkpt>
<trkpt lat="42.658561" lon="-2.145016">
<ele>1965</ele>
<time>2013-05-04T14:22:37.000Z</time>
</trkpt>
<trkpt lat="42.65847" lon="-2.144953">
<ele>1964</ele>
<time>2013-05-04T14:22:38.000Z</time>
</trkpt>
<trkpt lat="42.658379" lon="-2.144894">
<ele>1966</ele>
<time>2013-05-04T14:22:39.000Z</time>
</trkpt>
<trkpt lat="42.658292" lon="-2.144836">
<ele>1967</ele>
<time>2013-05-04T14:22:40.000Z</time>
</trkpt>
<trkpt lat="42.658223" lon="-2.14475">
<ele>1967</ele>
<time>2013-05-04T14:22:41.000Z</time>
</trkpt>
<trkpt lat="42.658178" lon="-2.144653">
<ele>1968</ele>
<time>2013-05-04T14:22:42.000Z</time>
</trkpt>
<trkpt lat="42.658139" lon="-2.14456">
<ele>1968</ele>
<time>2013-05-04T14:22:43.000Z</time>
</trkpt>
<trkpt lat="42.658105" lon="-2.144471">
<ele>1968</ele>
<time>2013-05-04T14:22:44.000Z</time>
</trkpt>
<trkpt lat="42.658071" lon="-2.144381">
<ele>1967</ele>
<time>2013-05-04T14:22:45.000Z</time>
</trkpt>
<trkpt lat="42.658036" lon="-2.144292">
<ele>1966</ele>
<time>2013-05-04T14:22:46.000Z</time>
</trkpt>
<trkpt lat="42.658007" lon="-2.144198">
<ele>1965</ele>
<time>2013-05-04T14:22:47.000Z</time>
</trkpt>
<trkpt lat="42.657994" lon="-2.144088">
<ele>1964</ele>
<time>2013-05-04T14:22:48.000Z</time>
</trkpt>
<trkpt lat="42.65798" lon="-2.143972">
<ele>1963</ele>
<time>2013-05-04T14:22:49.000Z</time>
</trkpt>
<trkpt lat="42.657967" lon="-2.143862">
<ele>1963</ele>
<time>2013-05-04T14:22:50.000Z</time>
</trkpt>
<trkpt lat="42.657949" lon="-2.143759">
<ele>1963</ele>
<time>2013-05-04T14:22:51.000Z</time>
</trkpt>
<trkpt lat="42.65793" lon="-2.143664">
<ele>1963</ele>
<time>2013-05-04T14:22:52.000Z</time>
</trkpt>
<trkpt lat="42.657911" lon="-2.143566">
<ele>1962</ele>
<time>2013-05-04T14:22:53.000Z</time>
</trkpt>
<trkpt lat="42.657893" lon="-2.143455">
<ele>1961</ele>
<time>2013-05-04T14:22:54.000Z</time>
</trkpt>
<trkpt lat="42.657879" lon="-2.143337">
<ele>1959</ele>
<time>2013-05-04T14:22:55.000Z</time>
</trkpt>
<trkpt lat="42.657864" lon="-2.143218">
<ele>1958</ele>
<time>2013-05-04T14:22:56.000Z</time>
</trkpt>
<trkpt lat="42.657844" lon="-2.143104">
<ele>1958</ele>
<time>2013-05-04T14:22:57.000Z</time>
</trkpt>
<trkpt lat="42.657816" lon="-2.142996">
<ele>1958</ele>
<time>2013-05-04T14:22:58.000Z</time>
</trkpt>
<trkpt lat="42.65778" lon="-2.142891">
<ele>1957</ele>
<time>2013-05-04T14:22:59.000Z</time>
</trkpt>
<trkpt lat="42.657722" lon="-2.142784">
<ele>1958</ele>
<time>2013-05-04T14:23:00.000Z</time>
</trkpt>
<trkpt lat="42.657655" lon="-2.142679">
<ele>1955</ele>
<time>2013-05-04T14:23:01.000Z</time>
</trkpt>
<trkpt lat="42.657569" lon="-2.142597">
<ele>1952</ele>
<time>2013-05-04T14:23:02.000Z</time>
</trkpt>
<trkpt lat="42.657472" lon="-2.142509">
<ele>1951</ele>
<time>2013-05-04T14:23:03.000Z</time>
</trkpt>
<trkpt lat="42.65738" lon="-2.142437">
<ele>1951</ele>
<time>2013-05-04T14:23:04.000Z</time>
</trkpt>
<trkpt lat="42.6573" lon="-2.14238">
<ele>1949</ele>
<time>2013-05-04T14:23:05.000Z</time>
</trkpt>
<trkpt lat="42.657222" lon="-2.142315">
<ele>1947</ele>
<time>2013-05-04T14:23:06.000Z</time>
</trkpt>
<trkpt lat="42.657143" lon="-2.142238">
<ele>1944</ele>
<time>2013-05-04T14:23:07.000Z</time>
</trkpt>
<trkpt lat="42.657063" lon="-2.14214">
<ele>1943</ele>
<time>2013-05-04T14:23:08.000Z</time>
</trkpt>
<trkpt lat="42.657004" lon="-2.142028">
<ele>1943</ele>
<time>2013-05-04T14:23:09.000Z</time>
</trkpt>
<trkpt lat="42.656957" lon="-2.141928">
<ele>1942</ele>
<time>2013-05-04T14:23:10.000Z</time>
</trkpt>
<trkpt lat="42.656919" lon="-2.141834">
<ele>1941</ele>
<time>2013-05-04T14:23:11.000Z</time>
</trkpt>
<trkpt lat="42.656888" lon="-2.14174">
<ele>1938</ele>
<time>2013-05-04T14:23:12.000Z</time>
</trkpt>
<trkpt lat="42.656873" lon="-2.141631">
<ele>1935</ele>
<time>2013-05-04T14:23:13.000Z</time>
</trkpt>
<trkpt lat="42.656856" lon="-2.141524">
<ele>1931</ele>
<time>2013-05-04T14:23:14.000Z</time>
</trkpt>
<trkpt lat="42.656839" lon="-2.141423">
<ele>1928</ele>
<time>2013-05-04T14:23:15.000Z</time>
</trkpt>
<trkpt lat="42.65682" lon="-2.141325">
<ele>1925</ele>
<time>2013-05-04T14:23:16.000Z</time>
</trkpt>
<trkpt lat="42.656801" lon="-2.141233">
<ele>1923</ele>
<time>2013-05-04T14:23:17.000Z</time>
</trkpt>
<trkpt lat="42.656788" lon="-2.141135">
<ele>1920</ele>
<time>2013-05-04T14:23:18.000Z</time>
</trkpt>
<trkpt lat="42.656794" lon="-2.141039">
<ele>1917</ele>
<time>2013-05-04T14:23:19.000Z</time>
</trkpt>
<trkpt lat="42.656804" lon="-2.140947">
<ele>1915</ele>
<time>2013-05-04T14:23:20.000Z</time>
</trkpt>
<trkpt lat="42.656831" lon="-2.140858">
<ele>1913</ele>
<time>2013-05-04T14:23:21.000Z</time>
</trkpt>
<trkpt lat="42.656859" lon="-2.140773">
<ele>1911</ele>
<time>2013-05-04T14:23:22.000Z</time>
</trkpt>
<trkpt lat="42.656888" lon="-2.140695">
<ele>1909</ele>
<time>2013-05-04T14:23:23.000Z</time>
</trkpt>
<trkpt lat="42.656923" lon="-2.140619">
<ele>1906</ele>
<time>2013-05-04T14:23:24.000Z</time>
</trkpt>
<trkpt lat="42.656957" lon="-2.140544">
<ele>1905</ele>
<time>2013-05-04T14:23:25.000Z</time>
</trkpt>
<trkpt lat="42.656979" lon="-2.140457">
<ele>1902</ele>
<time>2013-05-04T14:23:26.000Z</time>
</trkpt>
<trkpt lat="42.656987" lon="-2.140356">
<ele>1900</ele>
<time>2013-05-04T14:23:27.000Z</time>
</trkpt>
<trkpt lat="42.656993" lon="-2.140244">
<ele>1898</ele>
<time>2013-05-04T14:23:28.000Z</time>
</trkpt>
<trkpt lat="42.656995" lon="-2.140131">
<ele>1896</ele>
<time>2013-05-04T14:23:29.000Z</time>
</trkpt>
<trkpt lat="42.656996" lon="-2.140021">
<ele>1894</ele>
<time>2013-05-04T14:23:30.000Z</time>
</trkpt>
<trkpt lat="42.656998" lon="-2.13991">
<ele>1892</ele>
<time>2013-05-04T14:23:31.000Z</time>
</trkpt>
<trkpt lat="42.656998" lon="-2.139787">
<ele>1890</ele>
<time>2013-05-04T14:23:32.000Z</time>
</trkpt>
<trkpt lat="42.656991" lon="-2.139652">
<ele>1888</ele>
<time>2013-05-04T14:23:33.000Z</time>
</trkpt>
<trkpt lat="42.656976" lon="-2.139516">
<ele>1886</ele>
<time>2013-05-04T14:23:34.000Z</time>
</trkpt>
<trkpt lat="42.656956" lon="-2.139389">
<ele>1886</ele>
<time>2013-05-04T14:23:35.000Z</time>
</trkpt>
<trkpt lat="42.656937" lon="-2.139269">
<ele>1884</ele>
<time>2013-05-04T14:23:36.000Z</time>
</trkpt>
<trkpt lat="42.65692" lon="-2.13915">
<ele>1883</ele>
<time>2013-05-04T14:23:37.000Z</time>
</trkpt>
<trkpt lat="42.656904" lon="-2.139027">
<ele>1880</ele>
<time>2013-05-04T14:23:38.000Z</time>
</trkpt>
<trkpt lat="42.656888" lon="-2.138902">
<ele>1879</ele>
<time>2013-05-04T14:23:39.000Z</time>
</trkpt>
<trkpt lat="42.65687" lon="-2.138776">
<ele>1876</ele>
<time>2013-05-04T14:23:40.000Z</time>
</trkpt>
<trkpt lat="42.656851" lon="-2.138649">
<ele>1873</ele>
<time>2013-05-04T14:23:41.000Z</time>
</trkpt>
<trkpt lat="42.656836" lon="-2.138512">
<ele>1872</ele>
<time>2013-05-04T14:23:42.000Z</time>
</trkpt>
<trkpt lat="42.656822" lon="-2.138373">
<ele>1872</ele>
<time>2013-05-04T14:23:43.000Z</time>
</trkpt>
<trkpt lat="42.656811" lon="-2.138255">
<ele>1872</ele>
<time>2013-05-04T14:23:44.000Z</time>
</trkpt>
<trkpt lat="42.656795" lon="-2.138155">
<ele>1874</ele>
<time>2013-05-04T14:23:45.000Z</time>
</trkpt>
<trkpt lat="42.656778" lon="-2.13807">
<ele>1874</ele>
<time>2013-05-04T14:23:46.000Z</time>
</trkpt>
<trkpt lat="42.65676" lon="-2.137971">
<ele>1875</ele>
<time>2013-05-04T14:23:47.000Z</time>
</trkpt>
<trkpt lat="42.656741" lon="-2.137851">
<ele>1873</ele>
<time>2013-05-04T14:23:48.000Z</time>
</trkpt>
<trkpt lat="42.656724" lon="-2.137721">
<ele>1875</ele>
<time>2013-05-04T14:23:49.000Z</time>
</trkpt>
<trkpt lat="42.656708" lon="-2.137588">
<ele>1873</ele>
<time>2013-05-04T14:23:50.000Z</time>
</trkpt>
<trkpt lat="42.656693" lon="-2.137467">
<ele>1873</ele>
<time>2013-05-04T14:23:51.000Z</time>
</trkpt>
<trkpt lat="42.656675" lon="-2.137352">
<ele>1875</ele>
<time>2013-05-04T14:23:52.000Z</time>
</trkpt>
<trkpt lat="42.656654" lon="-2.137238">
<ele>1876</ele>
<time>2013-05-04T14:23:53.000Z</time>
</trkpt>
<trkpt lat="42.656629" lon="-2.137108">
<ele>1876</ele>
<time>2013-05-04T14:23:54.000Z</time>
</trkpt>
<trkpt lat="42.656601" lon="-2.136967">
<ele>1876</ele>
<time>2013-05-04T14:23:55.000Z</time>
</trkpt>
<trkpt lat="42.656575" lon="-2.136836">
<ele>1877</ele>
<time>2013-05-04T14:23:56.000Z</time>
</trkpt>
<trkpt lat="42.656552" lon="-2.136713">
<ele>1877</ele>
<time>2013-05-04T14:23:57.000Z</time>
</trkpt>
<trkpt lat="42.656532" lon="-2.136594">
<ele>1879</ele>
<time>2013-05-04T14:23:58.000Z</time>
</trkpt>
<trkpt lat="42.656514" lon="-2.136487">
<ele>1878</ele>
<time>2013-05-04T14:23:59.000Z</time>
</trkpt>
<trkpt lat="42.656499" lon="-2.136371">
<ele>1875</ele>
<time>2013-05-04T14:24:00.000Z</time>
</trkpt>
<trkpt lat="42.656484" lon="-2.136234">
<ele>1872</ele>
<time>2013-05-04T14:24:01.000Z</time>
</trkpt>
<trkpt lat="42.65647" lon="-2.136102">
<ele>1870</ele>
<time>2013-05-04T14:24:02.000Z</time>
</trkpt>
<trkpt lat="42.656461" lon="-2.135984">
<ele>1871</ele>
<time>2013-05-04T14:24:03.000Z</time>
</trkpt>
<trkpt lat="42.656453" lon="-2.135878">
<ele>1872</ele>
<time>2013-05-04T14:24:04.000Z</time>
</trkpt>
<trkpt lat="42.656447" lon="-2.135778">
<ele>1873</ele>
<time>2013-05-04T14:24:05.000Z</time>
</trkpt>
<trkpt lat="42.656441" lon="-2.13567">
<ele>1872</ele>
<time>2013-05-04T14:24:06.000Z</time>
</trkpt>
<trkpt lat="42.656434" lon="-2.135545">
<ele>1869</ele>
<time>2013-05-04T14:24:07.000Z</time>
</trkpt>
<trkpt lat="42.656421" lon="-2.135392">
<ele>1868</ele>
<time>2013-05-04T14:24:08.000Z</time>
</trkpt>
<trkpt lat="42.656402" lon="-2.135237">
<ele>1867</ele>
<time>2013-05-04T14:24:09.000Z</time>
</trkpt>
<trkpt lat="42.656379" lon="-2.135102">
<ele>1868</ele>
<time>2013-05-04T14:24:10.000Z</time>
</trkpt>
<trkpt lat="42.656355" lon="-2.134977">
<ele>1867</ele>
<time>2013-05-04T14:24:11.000Z</time>
</trkpt>
<trkpt lat="42.656333" lon="-2.134861">
<ele>1866</ele>
<time>2013-05-04T14:24:12.000Z</time>
</trkpt>
<trkpt lat="42.656307" lon="-2.134737">
<ele>1865</ele>
<time>2013-05-04T14:24:13.000Z</time>
</trkpt>
<trkpt lat="42.656281" lon="-2.134602">
<ele>1864</ele>
<time>2013-05-04T14:24:14.000Z</time>
</trkpt>
<trkpt lat="42.656258" lon="-2.13447">
<ele>1862</ele>
<time>2013-05-04T14:24:15.000Z</time>
</trkpt>
<trkpt lat="42.656239" lon="-2.134354">
<ele>1859</ele>
<time>2013-05-04T14:24:16.000Z</time>
</trkpt>
<trkpt lat="42.656224" lon="-2.134243">
<ele>1857</ele>
<time>2013-05-04T14:24:17.000Z</time>
</trkpt>
<trkpt lat="42.656209" lon="-2.134128">
<ele>1856</ele>
<time>2013-05-04T14:24:18.000Z</time>
</trkpt>
<trkpt lat="42.656192" lon="-2.134008">
<ele>1854</ele>
<time>2013-05-04T14:24:19.000Z</time>
</trkpt>
<trkpt lat="42.656171" lon="-2.133877">
<ele>1853</ele>
<time>2013-05-04T14:24:20.000Z</time>
</trkpt>
<trkpt lat="42.656145" lon="-2.133761">
<ele>1850</ele>
<time>2013-05-04T14:24:21.000Z</time>
</trkpt>
<trkpt lat="42.656117" lon="-2.13365">
<ele>1847</ele>
<time>2013-05-04T14:24:22.000Z</time>
</trkpt>
<trkpt lat="42.656089" lon="-2.133536">
<ele>1846</ele>
<time>2013-05-04T14:24:23.000Z</time>
</trkpt>
<trkpt lat="42.656058" lon="-2.133417">
<ele>1844</ele>
<time>2013-05-04T14:24:24.000Z</time>
</trkpt>
<trkpt lat="42.656028" lon="-2.133291">
<ele>1842</ele>
<time>2013-05-04T14:24:25.000Z</time>
</trkpt>
<trkpt lat="42.656003" lon="-2.13316">
<ele>1840</ele>
<time>2013-05-04T14:24:26.000Z</time>
</trkpt>
<trkpt lat="42.655978" lon="-2.133029">
<ele>1840</ele>
<time>2013-05-04T14:24:27.000Z</time>
</trkpt>
<trkpt lat="42.655951" lon="-2.132911">
<ele>1840</ele>
<time>2013-05-04T14:24:28.000Z</time>
</trkpt>
<trkpt lat="42.655923" lon="-2.132797">
<ele>1839</ele>
<time>2013-05-04T14:24:29.000Z</time>
</trkpt>
<trkpt lat="42.655895" lon="-2.132679">
<ele>1837</ele>
<time>2013-05-04T14:24:30.000Z</time>
</trkpt>
<trkpt lat="42.655862" lon="-2.132553">
<ele>1836</ele>
<time>2013-05-04T14:24:31.000Z</time>
</trkpt>
<trkpt lat="42.65583" lon="-2.132431">
<ele>1835</ele>
<time>2013-05-04T14:24:32.000Z</time>
</trkpt>
<trkpt lat="42.655801" lon="-2.132324">
<ele>1832</ele>
<time>2013-05-04T14:24:33.000Z</time>
</trkpt>
<trkpt lat="42.655774" lon="-2.132227">
<ele>1831</ele>
<time>2013-05-04T14:24:34.000Z</time>
</trkpt>
<trkpt lat="42.655749" lon="-2.132127">
<ele>1829</ele>
<time>2013-05-04T14:24:35.000Z</time>
</trkpt>
<trkpt lat="42.65572" lon="-2.132015">
<ele>1829</ele>
<time>2013-05-04T14:24:36.000Z</time>
</trkpt>
<trkpt lat="42.65569" lon="-2.131898">
<ele>1827</ele>
<time>2013-05-04T14:24:37.000Z</time>
</trkpt>
<trkpt lat="42.655656" lon="-2.131777">
<ele>1827</ele>
<time>2013-05-04T14:24:38.000Z</time>
</trkpt>
<trkpt lat="42.65562" lon="-2.131649">
<ele>1828</ele>
<time>2013-05-04T14:24:39.000Z</time>
</trkpt>
<trkpt lat="42.655582" lon="-2.131533">
<ele>1827</ele>
<time>2013-05-04T14:24:40.000Z</time>
</trkpt>
<trkpt lat="42.655545" lon="-2.131417">
<ele>1827</ele>
<time>2013-05-04T14:24:41.000Z</time>
</trkpt>
<trkpt lat="42.655503" lon="-2.1313">
<ele>1826</ele>
<time>2013-05-04T14:24:42.000Z</time>
</trkpt>
<trkpt lat="42.655456" lon="-2.131183">
<ele>1825</ele>
<time>2013-05-04T14:24:43.000Z</time>
</trkpt>
<trkpt lat="42.655407" lon="-2.131056">
<ele>1824</ele>
<time>2013-05-04T14:24:44.000Z</time>
</trkpt>
<trkpt lat="42.655354" lon="-2.13092">
<ele>1824</ele>
<time>2013-05-04T14:24:45.000Z</time>
</trkpt>
<trkpt lat="42.655301" lon="-2.130787">
<ele>1823</ele>
<time>2013-05-04T14:24:46.000Z</time>
</trkpt>
<trkpt lat="42.655249" lon="-2.130661">
<ele>1822</ele>
<time>2013-05-04T14:24:47.000Z</time>
</trkpt>
<trkpt lat="42.655204" lon="-2.130554">
<ele>1820</ele>
<time>2013-05-04T14:24:48.000Z</time>
</trkpt>
<trkpt lat="42.65516" lon="-2.130455">
<ele>1819</ele>
<time>2013-05-04T14:24:49.000Z</time>
</trkpt>
<trkpt lat="42.655116" lon="-2.130347">
<ele>1819</ele>
<time>2013-05-04T14:24:50.000Z</time>
</trkpt>
<trkpt lat="42.655069" lon="-2.130237">
<ele>1816</ele>
<time>2013-05-04T14:24:51.000Z</time>
</trkpt>
<trkpt lat="42.655021" lon="-2.130107">
<ele>1816</ele>
<time>2013-05-04T14:24:52.000Z</time>
</trkpt>
<trkpt lat="42.65497" lon="-2.129974">
<ele>1814</ele>
<time>2013-05-04T14:24:53.000Z</time>
</trkpt>
<trkpt lat="42.654909" lon="-2.12985">
<ele>1814</ele>
<time>2013-05-04T14:24:54.000Z</time>
</trkpt>
<trkpt lat="42.654841" lon="-2.129733">
<ele>1813</ele>
<time>2013-05-04T14:24:55.000Z</time>
</trkpt>
<trkpt lat="42.65477" lon="-2.129622">
<ele>1812</ele>
<time>2013-05-04T14:24:56.000Z</time>
</trkpt>
<trkpt lat="42.654699" lon="-2.129508">
<ele>1811</ele>
<time>2013-05-04T14:24:57.000Z</time>
</trkpt>
<trkpt lat="42.654628" lon="-2.129392">
<ele>1808</ele>
<time>2013-05-04T14:24:58.000Z</time>
</trkpt>
<trkpt lat="42.654559" lon="-2.129273">
<ele>1806</ele>
<time>2013-05-04T14:24:59.000Z</time>
</trkpt>
<trkpt lat="42.654489" lon="-2.129146">
<ele>1806</ele>
<time>2013-05-04T14:25:00.000Z</time>
</trkpt>
<trkpt lat="42.654423" lon="-2.129021">
<ele>1807</ele>
<time>2013-05-04T14:25:01.000Z</time>
</trkpt>
<trkpt lat="42.654362" lon="-2.128894">
<ele>1808</ele>
<time>2013-05-04T14:25:02.000Z</time>
</trkpt>
<trkpt lat="42.654306" lon="-2.128767">
<ele>1808</ele>
<time>2013-05-04T14:25:03.000Z</time>
</trkpt>
<trkpt lat="42.654247" lon="-2.128633">
<ele>1807</ele>
<time>2013-05-04T14:25:04.000Z</time>
</trkpt>
<trkpt lat="42.654181" lon="-2.128499">
<ele>1805</ele>
<time>2013-05-04T14:25:05.000Z</time>
</trkpt>
<trkpt lat="42.654117" lon="-2.128371">
<ele>1803</ele>
<time>2013-05-04T14:25:06.000Z</time>
</trkpt>
<trkpt lat="42.654055" lon="-2.128243">
<ele>1803</ele>
<time>2013-05-04T14:25:07.000Z</time>
</trkpt>
<trkpt lat="42.653998" lon="-2.128116">
<ele>1803</ele>
<time>2013-05-04T14:25:08.000Z</time>
</trkpt>
<trkpt lat="42.653944" lon="-2.127992">
<ele>1802</ele>
<time>2013-05-04T14:25:09.000Z</time>
</trkpt>
<trkpt lat="42.653888" lon="-2.127864">
<ele>1801</ele>
<time>2013-05-04T14:25:10.000Z</time>
</trkpt>
<trkpt lat="42.65383" lon="-2.127735">
<ele>1798</ele>
<time>2013-05-04T14:25:11.000Z</time>
</trkpt>
<trkpt lat="42.653771" lon="-2.127613">
<ele>1794</ele>
<time>2013-05-04T14:25:12.000Z</time>
</trkpt>
<trkpt lat="42.653713" lon="-2.127497">
<ele>1791</ele>
<time>2013-05-04T14:25:13.000Z</time>
</trkpt>
<trkpt lat="42.653659" lon="-2.127387">
<ele>1789</ele>
<time>2013-05-04T14:25:14.000Z</time>
</trkpt>
<trkpt lat="42.653606" lon="-2.127283">
<ele>1786</ele>
<time>2013-05-04T14:25:15.000Z</time>
</trkpt>
<trkpt lat="42.653548" lon="-2.127174">
<ele>1782</ele>
<time>2013-05-04T14:25:16.000Z</time>
</trkpt>
<trkpt lat="42.653485" lon="-2.127059">
<ele>1778</ele>
<time>2013-05-04T14:25:17.000Z</time>
</trkpt>
<trkpt lat="42.653419" lon="-2.126941">
<ele>1775</ele>
<time>2013-05-04T14:25:18.000Z</time>
</trkpt>
<trkpt lat="42.653356" lon="-2.126811">
<ele>1774</ele>
<time>2013-05-04T14:25:19.000Z</time>
</trkpt>
<trkpt lat="42.653295" lon="-2.126687">
<ele>1774</ele>
<time>2013-05-04T14:25:20.000Z</time>
</trkpt>
<trkpt lat="42.653232" lon="-2.126569">
<ele>1774</ele>
<time>2013-05-04T14:25:21.000Z</time>
</trkpt>
<trkpt lat="42.653164" lon="-2.126447">
<ele>1772</ele>
<time>2013-05-04T14:25:22.000Z</time>
</trkpt>
<trkpt lat="42.653092" lon="-2.126324">
<ele>1771</ele>
<time>2013-05-04T14:25:23.000Z</time>
</trkpt>
<trkpt lat="42.65302" lon="-2.126199">
<ele>1770</ele>
<time>2013-05-04T14:25:24.000Z</time>
</trkpt>
<trkpt lat="42.652948" lon="-2.126077">
<ele>1767</ele>
<time>2013-05-04T14:25:25.000Z</time>
</trkpt>
<trkpt lat="42.652881" lon="-2.125961">
<ele>1766</ele>
<time>2013-05-04T14:25:26.000Z</time>
</trkpt>
<trkpt lat="42.652815" lon="-2.125846">
<ele>1761</ele>
<time>2013-05-04T14:25:27.000Z</time>
</trkpt>
<trkpt lat="42.652746" lon="-2.125722">
<ele>1758</ele>
<time>2013-05-04T14:25:28.000Z</time>
</trkpt>
<trkpt lat="42.652681" lon="-2.125594">
<ele>1754</ele>
<time>2013-05-04T14:25:29.000Z</time>
</trkpt>
<trkpt lat="42.652621" lon="-2.125469">
<ele>1752</ele>
<time>2013-05-04T14:25:30.000Z</time>
</trkpt>
<trkpt lat="42.652565" lon="-2.125345">
<ele>1752</ele>
<time>2013-05-04T14:25:31.000Z</time>
</trkpt>
<trkpt lat="42.652513" lon="-2.125221">
<ele>1751</ele>
<time>2013-05-04T14:25:32.000Z</time>
</trkpt>
<trkpt lat="42.652463" lon="-2.125092">
<ele>1750</ele>
<time>2013-05-04T14:25:33.000Z</time>
</trkpt>
<trkpt lat="42.652415" lon="-2.124955">
<ele>1746</ele>
<time>2013-05-04T14:25:34.000Z</time>
</trkpt>
<trkpt lat="42.652371" lon="-2.124819">
<ele>1742</ele>
<time>2013-05-04T14:25:35.000Z</time>
</trkpt>
<trkpt lat="42.652337" lon="-2.124701">
<ele>1737</ele>
<time>2013-05-04T14:25:36.000Z</time>
</trkpt>
<trkpt lat="42.652306" lon="-2.124581">
<ele>1734</ele>
<time>2013-05-04T14:25:37.000Z</time>
</trkpt>
<trkpt lat="42.652275" lon="-2.124463">
<ele>1731</ele>
<time>2013-05-04T14:25:38.000Z</time>
</trkpt>
<trkpt lat="42.652239" lon="-2.124332">
<ele>1730</ele>
<time>2013-05-04T14:25:39.000Z</time>
</trkpt>
<trkpt lat="42.6522" lon="-2.12419">
<ele>1729</ele>
<time>2013-05-04T14:25:40.000Z</time>
</trkpt>
<trkpt lat="42.652157" lon="-2.124043">
<ele>1727</ele>
<time>2013-05-04T14:25:41.000Z</time>
</trkpt>
<trkpt lat="42.652113" lon="-2.123894">
<ele>1725</ele>
<time>2013-05-04T14:25:42.000Z</time>
</trkpt>
<trkpt lat="42.65207" lon="-2.123752">
<ele>1722</ele>
<time>2013-05-04T14:25:43.000Z</time>
</trkpt>
<trkpt lat="42.65203" lon="-2.123609">
<ele>1720</ele>
<time>2013-05-04T14:25:44.000Z</time>
</trkpt>
<trkpt lat="42.651992" lon="-2.123472">
<ele>1720</ele>
<time>2013-05-04T14:25:45.000Z</time>
</trkpt>
<trkpt lat="42.651952" lon="-2.123331">
<ele>1718</ele>
<time>2013-05-04T14:25:46.000Z</time>
</trkpt>
<trkpt lat="42.651913" lon="-2.123198">
<ele>1714</ele>
<time>2013-05-04T14:25:47.000Z</time>
</trkpt>
<trkpt lat="42.651875" lon="-2.123071">
<ele>1710</ele>
<time>2013-05-04T14:25:48.000Z</time>
</trkpt>
<trkpt lat="42.651831" lon="-2.122932">
<ele>1708</ele>
<time>2013-05-04T14:25:49.000Z</time>
</trkpt>
<trkpt lat="42.651785" lon="-2.122795">
<ele>1707</ele>
<time>2013-05-04T14:25:50.000Z</time>
</trkpt>
<trkpt lat="42.651734" lon="-2.122654">
<ele>1706</ele>
<time>2013-05-04T14:25:51.000Z</time>
</trkpt>
<trkpt lat="42.651683" lon="-2.122512">
<ele>1705</ele>
<time>2013-05-04T14:25:52.000Z</time>
</trkpt>
<trkpt lat="42.651629" lon="-2.12237">
<ele>1704</ele>
<time>2013-05-04T14:25:53.000Z</time>
</trkpt>
<trkpt lat="42.651576" lon="-2.122229">
<ele>1702</ele>
<time>2013-05-04T14:25:54.000Z</time>
</trkpt>
<trkpt lat="42.651521" lon="-2.122093">
<ele>1701</ele>
<time>2013-05-04T14:25:55.000Z</time>
</trkpt>
<trkpt lat="42.651468" lon="-2.121959">
<ele>1698</ele>
<time>2013-05-04T14:25:56.000Z</time>
</trkpt>
<trkpt lat="42.651415" lon="-2.121828">
<ele>1695</ele>
<time>2013-05-04T14:25:57.000Z</time>
</trkpt>
<trkpt lat="42.651361" lon="-2.121697">
<ele>1691</ele>
<time>2013-05-04T14:25:58.000Z</time>
</trkpt>
<trkpt lat="42.651307" lon="-2.121559">
<ele>1690</ele>
<time>2013-05-04T14:25:59.000Z</time>
</trkpt>
<trkpt lat="42.651256" lon="-2.121426">
<ele>1687</ele>
<time>2013-05-04T14:26:00.000Z</time>
</trkpt>
<trkpt lat="42.651207" lon="-2.121299">
<ele>1684</ele>
<time>2013-05-04T14:26:01.000Z</time>
</trkpt>
<trkpt lat="42.651157" lon="-2.121171">
<ele>1682</ele>
<time>2013-05-04T14:26:02.000Z</time>
</trkpt>
<trkpt lat="42.65111" lon="-2.121049">
<ele>1679</ele>
<time>2013-05-04T14:26:03.000Z</time>
</trkpt>
<trkpt lat="42.651059" lon="-2.120922">
<ele>1678</ele>
<time>2013-05-04T14:26:04.000Z</time>
</trkpt>
<trkpt lat="42.651006" lon="-2.120791">
<ele>1677</ele>
<time>2013-05-04T14:26:05.000Z</time>
</trkpt>
<trkpt lat="42.650951" lon="-2.120657">
<ele>1675</ele>
<time>2013-05-04T14:26:06.000Z</time>
</trkpt>
<trkpt lat="42.650894" lon="-2.120525">
<ele>1674</ele>
<time>2013-05-04T14:26:07.000Z</time>
</trkpt>
<trkpt lat="42.65084" lon="-2.1204">
<ele>1671</ele>
<time>2013-05-04T14:26:08.000Z</time>
</trkpt>
<trkpt lat="42.650784" lon="-2.120279">
<ele>1669</ele>
<time>2013-05-04T14:26:09.000Z</time>
</trkpt>
<trkpt lat="42.650726" lon="-2.120153">
<ele>1667</ele>
<time>2013-05-04T14:26:10.000Z</time>
</trkpt>
<trkpt lat="42.650668" lon="-2.120031">
<ele>1665</ele>
<time>2013-05-04T14:26:11.000Z</time>
</trkpt>
<trkpt lat="42.650608" lon="-2.119906">
<ele>1663</ele>
<time>2013-05-04T14:26:12.000Z</time>
</trkpt>
<trkpt lat="42.650544" lon="-2.119779">
<ele>1662</ele>
<time>2013-05-04T14:26:13.000Z</time>
</trkpt>
<trkpt lat="42.650482" lon="-2.119656">
<ele>1659</ele>
<time>2013-05-04T14:26:14.000Z</time>
</trkpt>
<trkpt lat="42.650415" lon="-2.119534">
<ele>1658</ele>
<time>2013-05-04T14:26:15.000Z</time>
</trkpt>
<trkpt lat="42.650347" lon="-2.119412">
<ele>1657</ele>
<time>2013-05-04T14:26:16.000Z</time>
</trkpt>
<trkpt lat="42.650277" lon="-2.119287">
<ele>1656</ele>
<time>2013-05-04T14:26:17.000Z</time>
</trkpt>
<trkpt lat="42.65021" lon="-2.119167">
<ele>1654</ele>
<time>2013-05-04T14:26:18.000Z</time>
</trkpt>
<trkpt lat="42.650142" lon="-2.119046">
<ele>1653</ele>
<time>2013-05-04T14:26:19.000Z</time>
</trkpt>
<trkpt lat="42.650075" lon="-2.118924">
<ele>1652</ele>
<time>2013-05-04T14:26:20.000Z</time>
</trkpt>
<trkpt lat="42.65001" lon="-2.118799">
<ele>1651</ele>
<time>2013-05-04T14:26:21.000Z</time>
</trkpt>
<trkpt lat="42.649947" lon="-2.118678">
<ele>1649</ele>
<time>2013-05-04T14:26:22.000Z</time>
</trkpt>
<trkpt lat="42.649883" lon="-2.118548">
<ele>1647</ele>
<time>2013-05-04T14:26:23.000Z</time>
</trkpt>
<trkpt lat="42.649817" lon="-2.118414">
<ele>1647</ele>
<time>2013-05-04T14:26:24.000Z</time>
</trkpt>
<trkpt lat="42.649751" lon="-2.118282">
<ele>1646</ele>
<time>2013-05-04T14:26:25.000Z</time>
</trkpt>
<trkpt lat="42.649689" lon="-2.118156">
<ele>1645</ele>
<time>2013-05-04T14:26:26.000Z</time>
</trkpt>
<trkpt lat="42.649628" lon="-2.118034">
<ele>1644</ele>
<time>2013-05-04T14:26:27.000Z</time>
</trkpt>
<trkpt lat="42.649571" lon="-2.117909">
<ele>1643</ele>
<time>2013-05-04T14:26:28.000Z</time>
</trkpt>
<trkpt lat="42.649514" lon="-2.117784">
<ele>1642</ele>
<time>2013-05-04T14:26:29.000Z</time>
</trkpt>
<trkpt lat="42.649459" lon="-2.117655">
<ele>1641</ele>
<time>2013-05-04T14:26:30.000Z</time>
</trkpt>
<trkpt lat="42.649406" lon="-2.117525">
<ele>1639</ele>
<time>2013-05-04T14:26:31.000Z</time>
</trkpt>
<trkpt lat="42.649357" lon="-2.117401">
<ele>1636</ele>
<time>2013-05-04T14:26:32.000Z</time>
</trkpt>
<trkpt lat="42.649315" lon="-2.117296">
<ele>1630</ele>
<time>2013-05-04T14:26:33.000Z</time>
</trkpt>
<trkpt lat="42.649271" lon="-2.117188">
<ele>1627</ele>
<time>2013-05-04T14:26:34.000Z</time>
</trkpt>
<trkpt lat="42.649227" lon="-2.117068">
<ele>1625</ele>
<time>2013-05-04T14:26:35.000Z</time>
</trkpt>
<trkpt lat="42.649188" lon="-2.116954">
<ele>1622</ele>
<time>2013-05-04T14:26:36.000Z</time>
</trkpt>
<trkpt lat="42.649152" lon="-2.116844">
<ele>1618</ele>
<time>2013-05-04T14:26:37.000Z</time>
</trkpt>
<trkpt lat="42.649118" lon="-2.11673">
<ele>1615</ele>
<time>2013-05-04T14:26:38.000Z</time>
</trkpt>
<trkpt lat="42.649085" lon="-2.116604">
<ele>1613</ele>
<time>2013-05-04T14:26:39.000Z</time>
</trkpt>
<trkpt lat="42.649053" lon="-2.116475">
<ele>1612</ele>
<time>2013-05-04T14:26:40.000Z</time>
</trkpt>
<trkpt lat="42.64902" lon="-2.11634">
<ele>1610</ele>
<time>2013-05-04T14:26:41.000Z</time>
</trkpt>
<trkpt lat="42.648991" lon="-2.116209">
<ele>1608</ele>
<time>2013-05-04T14:26:42.000Z</time>
</trkpt>
<trkpt lat="42.648962" lon="-2.11608">
<ele>1606</ele>
<time>2013-05-04T14:26:43.000Z</time>
</trkpt>
<trkpt lat="42.648933" lon="-2.11595">
<ele>1605</ele>
<time>2013-05-04T14:26:44.000Z</time>
</trkpt>
<trkpt lat="42.648903" lon="-2.115822">
<ele>1603</ele>
<time>2013-05-04T14:26:45.000Z</time>
</trkpt>
<trkpt lat="42.648871" lon="-2.115692">
<ele>1602</ele>
<time>2013-05-04T14:26:46.000Z</time>
</trkpt>
<trkpt lat="42.648838" lon="-2.115561">
<ele>1601</ele>
<time>2013-05-04T14:26:47.000Z</time>
</trkpt>
<trkpt lat="42.648804" lon="-2.115431">
<ele>1599</ele>
<time>2013-05-04T14:26:48.000Z</time>
</trkpt>
<trkpt lat="42.648771" lon="-2.115305">
<ele>1599</ele>
<time>2013-05-04T14:26:49.000Z</time>
</trkpt>
<trkpt lat="42.648737" lon="-2.115182">
<ele>1598</ele>
<time>2013-05-04T14:26:50.000Z</time>
</trkpt>
<trkpt lat="42.648705" lon="-2.115063">
<ele>1597</ele>
<time>2013-05-04T14:26:51.000Z</time>
</trkpt>
<trkpt lat="42.64867" lon="-2.114932">
<ele>1596</ele>
<time>2013-05-04T14:26:52.000Z</time>
</trkpt>
<trkpt lat="42.648633" lon="-2.114799">
<ele>1595</ele>
<time>2013-05-04T14:26:53.000Z</time>
</trkpt>
<trkpt lat="42.648596" lon="-2.114672">
<ele>1593</ele>
<time>2013-05-04T14:26:54.000Z</time>
</trkpt>
<trkpt lat="42.648562" lon="-2.114557">
<ele>1591</ele>
<time>2013-05-04T14:26:55.000Z</time>
</trkpt>
<trkpt lat="42.648527" lon="-2.114438">
<ele>1589</ele>
<time>2013-05-04T14:26:56.000Z</time>
</trkpt>
<trkpt lat="42.648489" lon="-2.114317">
<ele>1588</ele>
<time>2013-05-04T14:26:57.000Z</time>
</trkpt>
<trkpt lat="42.648449" lon="-2.114191">
<ele>1587</ele>
<time>2013-05-04T14:26:58.000Z</time>
</trkpt>
<trkpt lat="42.648407" lon="-2.114057">
<ele>1587</ele>
<time>2013-05-04T14:26:59.000Z</time>
</trkpt>
<trkpt lat="42.648366" lon="-2.113927">
<ele>1586</ele>
<time>2013-05-04T14:27:00.000Z</time>
</trkpt>
<trkpt lat="42.648327" lon="-2.113799">
<ele>1585</ele>
<time>2013-05-04T14:27:01.000Z</time>
</trkpt>
<trkpt lat="42.648289" lon="-2.113677">
<ele>1584</ele>
<time>2013-05-04T14:27:02.000Z</time>
</trkpt>
<trkpt lat="42.648253" lon="-2.113559">
<ele>1583</ele>
<time>2013-05-04T14:27:03.000Z</time>
</trkpt>
<trkpt lat="42.648217" lon="-2.113441">
<ele>1582</ele>
<time>2013-05-04T14:27:04.000Z</time>
</trkpt>
<trkpt lat="42.648181" lon="-2.113323">
<ele>1581</ele>
<time>2013-05-04T14:27:05.000Z</time>
</trkpt>
<trkpt lat="42.648142" lon="-2.1132">
<ele>1580</ele>
<time>2013-05-04T14:27:06.000Z</time>
</trkpt>
<trkpt lat="42.648102" lon="-2.11307">
<ele>1579</ele>
<time>2013-05-04T14:27:07.000Z</time>
</trkpt>
<trkpt lat="42.648063" lon="-2.112939">
<ele>1578</ele>
<time>2013-05-04T14:27:08.000Z</time>
</trkpt>
<trkpt lat="42.648025" lon="-2.112815">
<ele>1577</ele>
<time>2013-05-04T14:27:09.000Z</time>
</trkpt>
<trkpt lat="42.647987" lon="-2.112692">
<ele>1576</ele>
<time>2013-05-04T14:27:10.000Z</time>
</trkpt>
<trkpt lat="42.64795" lon="-2.11257">
<ele>1576</ele>
<time>2013-05-04T14:27:11.000Z</time>
</trkpt>
<trkpt lat="42.647915" lon="-2.112444">
<ele>1575</ele>
<time>2013-05-04T14:27:12.000Z</time>
</trkpt>
<trkpt lat="42.64788" lon="-2.112318">
<ele>1574</ele>
<time>2013-05-04T14:27:13.000Z</time>
</trkpt>
<trkpt lat="42.647848" lon="-2.11219">
<ele>1573</ele>
<time>2013-05-04T14:27:14.000Z</time>
</trkpt>
<trkpt lat="42.647815" lon="-2.112062">
<ele>1572</ele>
<time>2013-05-04T14:27:15.000Z</time>
</trkpt>
<trkpt lat="42.647784" lon="-2.111931">
<ele>1572</ele>
<time>2013-05-04T14:27:16.000Z</time>
</trkpt>
<trkpt lat="42.647754" lon="-2.111803">
<ele>1571</ele>
<time>2013-05-04T14:27:17.000Z</time>
</trkpt>
<trkpt lat="42.647723" lon="-2.111676">
<ele>1571</ele>
<time>2013-05-04T14:27:18.000Z</time>
</trkpt>
<trkpt lat="42.647694" lon="-2.111553">
<ele>1570</ele>
<time>2013-05-04T14:27:19.000Z</time>
</trkpt>
<trkpt lat="42.647666" lon="-2.111427">
<ele>1570</ele>
<time>2013-05-04T14:27:20.000Z</time>
</trkpt>
<trkpt lat="42.647638" lon="-2.111293">
<ele>1569</ele>
<time>2013-05-04T14:27:21.000Z</time>
</trkpt>
<trkpt lat="42.647611" lon="-2.111171">
<ele>1569</ele>
<time>2013-05-04T14:27:22.000Z</time>
</trkpt>
<trkpt lat="42.647585" lon="-2.111057">
<ele>1568</ele>
<time>2013-05-04T14:27:23.000Z</time>
</trkpt>
<trkpt lat="42.647559" lon="-2.110954">
<ele>1566</ele>
<time>2013-05-04T14:27:24.000Z</time>
</trkpt>
<trkpt lat="42.64753" lon="-2.110842">
<ele>1566</ele>
<time>2013-05-04T14:27:25.000Z</time>
</trkpt>
<trkpt lat="42.647497" lon="-2.11073">
<ele>1566</ele>
<time>2013-05-04T14:27:26.000Z</time>
</trkpt>
<trkpt lat="42.647467" lon="-2.110629">
<ele>1561</ele>
<time>2013-05-04T14:27:27.000Z</time>
</trkpt>
<trkpt lat="42.647437" lon="-2.110525">
<ele>1559</ele>
<time>2013-05-04T14:27:28.000Z</time>
</trkpt>
<trkpt lat="42.647412" lon="-2.110425">
<ele>1556</ele>
<time>2013-05-04T14:27:29.000Z</time>
</trkpt>
<trkpt lat="42.64739" lon="-2.110326">
<ele>1555</ele>
<time>2013-05-04T14:27:30.000Z</time>
</trkpt>
<trkpt lat="42.64737" lon="-2.110224">
<ele>1554</ele>
<time>2013-05-04T14:27:31.000Z</time>
</trkpt>
<trkpt lat="42.64735" lon="-2.110115">
<ele>1553</ele>
<time>2013-05-04T14:27:32.000Z</time>
</trkpt>
<trkpt lat="42.647329" lon="-2.110007">
<ele>1551</ele>
<time>2013-05-04T14:27:33.000Z</time>
</trkpt>
<trkpt lat="42.647305" lon="-2.109883">
<ele>1551</ele>
<time>2013-05-04T14:27:34.000Z</time>
</trkpt>
<trkpt lat="42.647285" lon="-2.109765">
<ele>1550</ele>
<time>2013-05-04T14:27:35.000Z</time>
</trkpt>
<trkpt lat="42.647268" lon="-2.109656">
<ele>1549</ele>
<time>2013-05-04T14:27:36.000Z</time>
</trkpt>
<trkpt lat="42.647254" lon="-2.109563">
<ele>1548</ele>
<time>2013-05-04T14:27:37.000Z</time>
</trkpt>
<trkpt lat="42.647237" lon="-2.10948">
<ele>1547</ele>
<time>2013-05-04T14:27:38.000Z</time>
</trkpt>
<trkpt lat="42.647215" lon="-2.109388">
<ele>1547</ele>
<time>2013-05-04T14:27:39.000Z</time>
</trkpt>
<trkpt lat="42.647189" lon="-2.109284">
<ele>1547</ele>
<time>2013-05-04T14:27:40.000Z</time>
</trkpt>
<trkpt lat="42.647162" lon="-2.109176">
<ele>1547</ele>
<time>2013-05-04T14:27:41.000Z</time>
</trkpt>
<trkpt lat="42.647133" lon="-2.109071">
<ele>1546</ele>
<time>2013-05-04T14:27:42.000Z</time>
</trkpt>
<trkpt lat="42.647104" lon="-2.108993">
<ele>1544</ele>
<time>2013-05-04T14:27:43.000Z</time>
</trkpt>
<trkpt lat="42.647072" lon="-2.108922">
<ele>1544</ele>
<time>2013-05-04T14:27:44.000Z</time>
</trkpt>
<trkpt lat="42.64704" lon="-2.108881">
<ele>1545</ele>
<time>2013-05-04T14:27:45.000Z</time>
</trkpt>
<trkpt lat="42.647017" lon="-2.108844">
<ele>1547</ele>
<time>2013-05-04T14:27:46.000Z</time>
</trkpt>
<trkpt lat="42.646992" lon="-2.108799">
<ele>1547</ele>
<time>2013-05-04T14:27:47.000Z</time>
</trkpt>
<trkpt lat="42.646962" lon="-2.108732">
<ele>1548</ele>
<time>2013-05-04T14:27:48.000Z</time>
</trkpt>
<trkpt lat="42.646928" lon="-2.108642">
<ele>1549</ele>
<time>2013-05-04T14:27:49.000Z</time>
</trkpt>
<trkpt lat="42.646895" lon="-2.108546">
<ele>1550</ele>
<time>2013-05-04T14:27:50.000Z</time>
</trkpt>
<trkpt lat="42.646864" lon="-2.108452">
<ele>1552</ele>
<time>2013-05-04T14:27:51.000Z</time>
</trkpt>
<trkpt lat="42.646835" lon="-2.108365">
<ele>1552</ele>
<time>2013-05-04T14:27:52.000Z</time>
</trkpt>
<trkpt lat="42.646797" lon="-2.10827">
<ele>1553</ele>
<time>2013-05-04T14:27:53.000Z</time>
</trkpt>
<trkpt lat="42.646757" lon="-2.108171">
<ele>1553</ele>
<time>2013-05-04T14:27:54.000Z</time>
</trkpt>
<trkpt lat="42.646721" lon="-2.108064">
<ele>1554</ele>
<time>2013-05-04T14:27:55.000Z</time>
</trkpt>
<trkpt lat="42.64669" lon="-2.107953">
<ele>1556</ele>
<time>2013-05-04T14:27:56.000Z</time>
</trkpt>
<trkpt lat="42.646662" lon="-2.107834">
<ele>1557</ele>
<time>2013-05-04T14:27:57.000Z</time>
</trkpt>
<trkpt lat="42.646636" lon="-2.107719">
<ele>1559</ele>
<time>2013-05-04T14:27:58.000Z</time>
</trkpt>
<trkpt lat="42.646607" lon="-2.107612">
<ele>1559</ele>
<time>2013-05-04T14:27:59.000Z</time>
</trkpt>
<trkpt lat="42.646576" lon="-2.107501">
<ele>1559</ele>
<time>2013-05-04T14:28:00.000Z</time>
</trkpt>
<trkpt lat="42.646549" lon="-2.107384">
<ele>1559</ele>
<time>2013-05-04T14:28:01.000Z</time>
</trkpt>
<trkpt lat="42.646523" lon="-2.107258">
<ele>1557</ele>
<time>2013-05-04T14:28:02.000Z</time>
</trkpt>
<trkpt lat="42.646499" lon="-2.107139">
<ele>1558</ele>
<time>2013-05-04T14:28:03.000Z</time>
</trkpt>
<trkpt lat="42.646487" lon="-2.107045">
<ele>1558</ele>
<time>2013-05-04T14:28:04.000Z</time>
</trkpt>
<trkpt lat="42.646479" lon="-2.106954">
<ele>1560</ele>
<time>2013-05-04T14:28:05.000Z</time>
</trkpt>
<trkpt lat="42.646475" lon="-2.106856">
<ele>1558</ele>
<time>2013-05-04T14:28:06.000Z</time>
</trkpt>
<trkpt lat="42.646474" lon="-2.106743">
<ele>1554</ele>
<time>2013-05-04T14:28:07.000Z</time>
</trkpt>
<trkpt lat="42.64647" lon="-2.10661">
<ele>1552</ele>
<time>2013-05-04T14:28:08.000Z</time>
</trkpt>
<trkpt lat="42.646469" lon="-2.106489">
<ele>1549</ele>
<time>2013-05-04T14:28:09.000Z</time>
</trkpt>
<trkpt lat="42.646473" lon="-2.106395">
<ele>1547</ele>
<time>2013-05-04T14:28:10.000Z</time>
</trkpt>
<trkpt lat="42.646494" lon="-2.106302">
<ele>1548</ele>
<time>2013-05-04T14:28:11.000Z</time>
</trkpt>
<trkpt lat="42.646512" lon="-2.1062">
<ele>1549</ele>
<time>2013-05-04T14:28:12.000Z</time>
</trkpt>
<trkpt lat="42.646513" lon="-2.106087">
<ele>1548</ele>
<time>2013-05-04T14:28:13.000Z</time>
</trkpt>
<trkpt lat="42.646511" lon="-2.105956">
<ele>1546</ele>
<time>2013-05-04T14:28:14.000Z</time>
</trkpt>
<trkpt lat="42.646509" lon="-2.105825">
<ele>1545</ele>
<time>2013-05-04T14:28:15.000Z</time>
</trkpt>
<trkpt lat="42.64651" lon="-2.105706">
<ele>1546</ele>
<time>2013-05-04T14:28:16.000Z</time>
</trkpt>
<trkpt lat="42.64651" lon="-2.105603">
<ele>1547</ele>
<time>2013-05-04T14:28:17.000Z</time>
</trkpt>
<trkpt lat="42.646507" lon="-2.105511">
<ele>1545</ele>
<time>2013-05-04T14:28:18.000Z</time>
</trkpt>
<trkpt lat="42.6465" lon="-2.105414">
<ele>1543</ele>
<time>2013-05-04T14:28:19.000Z</time>
</trkpt>
<trkpt lat="42.646484" lon="-2.105307">
<ele>1540</ele>
<time>2013-05-04T14:28:20.000Z</time>
</trkpt>
<trkpt lat="42.646466" lon="-2.105196">
<ele>1537</ele>
<time>2013-05-04T14:28:21.000Z</time>
</trkpt>
<trkpt lat="42.646445" lon="-2.105075">
<ele>1538</ele>
<time>2013-05-04T14:28:22.000Z</time>
</trkpt>
<trkpt lat="42.64643" lon="-2.104957">
<ele>1537</ele>
<time>2013-05-04T14:28:23.000Z</time>
</trkpt>
<trkpt lat="42.64642" lon="-2.104843">
<ele>1537</ele>
<time>2013-05-04T14:28:24.000Z</time>
</trkpt>
<trkpt lat="42.646414" lon="-2.104735">
<ele>1536</ele>
<time>2013-05-04T14:28:25.000Z</time>
</trkpt>
<trkpt lat="42.646409" lon="-2.104627">
<ele>1535</ele>
<time>2013-05-04T14:28:26.000Z</time>
</trkpt>
<trkpt lat="42.646407" lon="-2.104519">
<ele>1532</ele>
<time>2013-05-04T14:28:27.000Z</time>
</trkpt>
<trkpt lat="42.646407" lon="-2.104411">
<ele>1530</ele>
<time>2013-05-04T14:28:28.000Z</time>
</trkpt>
<trkpt lat="42.64641" lon="-2.104306">
<ele>1528</ele>
<time>2013-05-04T14:28:29.000Z</time>
</trkpt>
<trkpt lat="42.646415" lon="-2.104201">
<ele>1527</ele>
<time>2013-05-04T14:28:30.000Z</time>
</trkpt>
<trkpt lat="42.646421" lon="-2.104095">
<ele>1525</ele>
<time>2013-05-04T14:28:31.000Z</time>
</trkpt>
<trkpt lat="42.646428" lon="-2.103986">
<ele>1524</ele>
<time>2013-05-04T14:28:32.000Z</time>
</trkpt>
<trkpt lat="42.646435" lon="-2.103879">
<ele>1522</ele>
<time>2013-05-04T14:28:33.000Z</time>
</trkpt>
<trkpt lat="42.64644" lon="-2.103782">
<ele>1520</ele>
<time>2013-05-04T14:28:34.000Z</time>
</trkpt>
<trkpt lat="42.646447" lon="-2.103696">
<ele>1517</ele>
<time>2013-05-04T14:28:35.000Z</time>
</trkpt>
<trkpt lat="42.646455" lon="-2.103609">
<ele>1514</ele>
<time>2013-05-04T14:28:36.000Z</time>
</trkpt>
<trkpt lat="42.646465" lon="-2.103513">
<ele>1510</ele>
<time>2013-05-04T14:28:37.000Z</time>
</trkpt>
<trkpt lat="42.646475" lon="-2.103409">
<ele>1507</ele>
<time>2013-05-04T14:28:38.000Z</time>
</trkpt>
<trkpt lat="42.646484" lon="-2.103306">
<ele>1503</ele>
<time>2013-05-04T14:28:39.000Z</time>
</trkpt>
<trkpt lat="42.646493" lon="-2.103203">
<ele>1501</ele>
<time>2013-05-04T14:28:40.000Z</time>
</trkpt>
<trkpt lat="42.646505" lon="-2.103103">
<ele>1498</ele>
<time>2013-05-04T14:28:41.000Z</time>
</trkpt>
<trkpt lat="42.646518" lon="-2.103008">
<ele>1496</ele>
<time>2013-05-04T14:28:42.000Z</time>
</trkpt>
<trkpt lat="42.646534" lon="-2.102917">
<ele>1493</ele>
<time>2013-05-04T14:28:43.000Z</time>
</trkpt>
<trkpt lat="42.646553" lon="-2.102824">
<ele>1490</ele>
<time>2013-05-04T14:28:44.000Z</time>
</trkpt>
<trkpt lat="42.646577" lon="-2.102727">
<ele>1487</ele>
<time>2013-05-04T14:28:45.000Z</time>
</trkpt>
<trkpt lat="42.646603" lon="-2.102626">
<ele>1485</ele>
<time>2013-05-04T14:28:46.000Z</time>
</trkpt>
<trkpt lat="42.64663" lon="-2.10253">
<ele>1483</ele>
<time>2013-05-04T14:28:47.000Z</time>
</trkpt>
<trkpt lat="42.646654" lon="-2.102439">
<ele>1481</ele>
<time>2013-05-04T14:28:48.000Z</time>
</trkpt>
<trkpt lat="42.646676" lon="-2.102356">
<ele>1480</ele>
<time>2013-05-04T14:28:49.000Z</time>
</trkpt>
<trkpt lat="42.646695" lon="-2.102276">
<ele>1478</ele>
<time>2013-05-04T14:28:50.000Z</time>
</trkpt>
<trkpt lat="42.646716" lon="-2.102191">
<ele>1475</ele>
<time>2013-05-04T14:28:51.000Z</time>
</trkpt>
<trkpt lat="42.646739" lon="-2.102096">
<ele>1471</ele>
<time>2013-05-04T14:28:52.000Z</time>
</trkpt>
<trkpt lat="42.646766" lon="-2.101991">
<ele>1468</ele>
<time>2013-05-04T14:28:53.000Z</time>
</trkpt>
<trkpt lat="42.646792" lon="-2.101889">
<ele>1465</ele>
<time>2013-05-04T14:28:54.000Z</time>
</trkpt>
<trkpt lat="42.646812" lon="-2.101791">
<ele>1463</ele>
<time>2013-05-04T14:28:55.000Z</time>
</trkpt>
<trkpt lat="42.646828" lon="-2.101695">
<ele>1462</ele>
<time>2013-05-04T14:28:56.000Z</time>
</trkpt>
<trkpt lat="42.646846" lon="-2.101594">
<ele>1460</ele>
<time>2013-05-04T14:28:57.000Z</time>
</trkpt>
<trkpt lat="42.646865" lon="-2.101491">
<ele>1459</ele>
<time>2013-05-04T14:28:58.000Z</time>
</trkpt>
<trkpt lat="42.646882" lon="-2.101394">
<ele>1458</ele>
<time>2013-05-04T14:28:59.000Z</time>
</trkpt>
<trkpt lat="42.646896" lon="-2.101297">
<ele>1456</ele>
<time>2013-05-04T14:29:00.000Z</time>
</trkpt>
<trkpt lat="42.646904" lon="-2.101203">
<ele>1455</ele>
<time>2013-05-04T14:29:01.000Z</time>
</trkpt>
<trkpt lat="42.646908" lon="-2.101111">
<ele>1453</ele>
<time>2013-05-04T14:29:02.000Z</time>
</trkpt>
<trkpt lat="42.646916" lon="-2.101017">
<ele>1450</ele>
<time>2013-05-04T14:29:03.000Z</time>
</trkpt>
<trkpt lat="42.646929" lon="-2.100917">
<ele>1448</ele>
<time>2013-05-04T14:29:04.000Z</time>
</trkpt>
<trkpt lat="42.646946" lon="-2.100813">
<ele>1445</ele>
<time>2013-05-04T14:29:05.000Z</time>
</trkpt>
<trkpt lat="42.646962" lon="-2.100708">
<ele>1444</ele>
<time>2013-05-04T14:29:06.000Z</time>
</trkpt>
<trkpt lat="42.646974" lon="-2.100607">
<ele>1443</ele>
<time>2013-05-04T14:29:07.000Z</time>
</trkpt>
<trkpt lat="42.646988" lon="-2.100502">
<ele>1442</ele>
<time>2013-05-04T14:29:08.000Z</time>
</trkpt>
<trkpt lat="42.647003" lon="-2.100395">
<ele>1440</ele>
<time>2013-05-04T14:29:09.000Z</time>
</trkpt>
<trkpt lat="42.647023" lon="-2.100285">
<ele>1440</ele>
<time>2013-05-04T14:29:10.000Z</time>
</trkpt>
<trkpt lat="42.647045" lon="-2.100175">
<ele>1439</ele>
<time>2013-05-04T14:29:11.000Z</time>
</trkpt>
<trkpt lat="42.647066" lon="-2.100065">
<ele>1438</ele>
<time>2013-05-04T14:29:12.000Z</time>
</trkpt>
<trkpt lat="42.647087" lon="-2.099959">
<ele>1437</ele>
<time>2013-05-04T14:29:13.000Z</time>
</trkpt>
<trkpt lat="42.647108" lon="-2.099861">
<ele>1436</ele>
<time>2013-05-04T14:29:14.000Z</time>
</trkpt>
<trkpt lat="42.647129" lon="-2.099772">
<ele>1434</ele>
<time>2013-05-04T14:29:15.000Z</time>
</trkpt>
<trkpt lat="42.647149" lon="-2.099689">
<ele>1432</ele>
<time>2013-05-04T14:29:16.000Z</time>
</trkpt>
<trkpt lat="42.647172" lon="-2.099595">
<ele>1430</ele>
<time>2013-05-04T14:29:17.000Z</time>
</trkpt>
<trkpt lat="42.647197" lon="-2.099484">
<ele>1428</ele>
<time>2013-05-04T14:29:18.000Z</time>
</trkpt>
<trkpt lat="42.647218" lon="-2.099367">
<ele>1427</ele>
<time>2013-05-04T14:29:19.000Z</time>
</trkpt>
<trkpt lat="42.647237" lon="-2.099262">
<ele>1427</ele>
<time>2013-05-04T14:29:20.000Z</time>
</trkpt>
<trkpt lat="42.647252" lon="-2.099178">
<ele>1426</ele>
<time>2013-05-04T14:29:21.000Z</time>
</trkpt>
<trkpt lat="42.647269" lon="-2.099098">
<ele>1426</ele>
<time>2013-05-04T14:29:22.000Z</time>
</trkpt>
<trkpt lat="42.647286" lon="-2.099015">
<ele>1425</ele>
<time>2013-05-04T14:29:23.000Z</time>
</trkpt>
<trkpt lat="42.647306" lon="-2.09892">
<ele>1422</ele>
<time>2013-05-04T14:29:24.000Z</time>
</trkpt>
<trkpt lat="42.647327" lon="-2.098814">
<ele>1419</ele>
<time>2013-05-04T14:29:25.000Z</time>
</trkpt>
<trkpt lat="42.647346" lon="-2.098707">
<ele>1418</ele>
<time>2013-05-04T14:29:26.000Z</time>
</trkpt>
<trkpt lat="42.647363" lon="-2.098605">
<ele>1416</ele>
<time>2013-05-04T14:29:27.000Z</time>
</trkpt>
<trkpt lat="42.647376" lon="-2.098514">
<ele>1415</ele>
<time>2013-05-04T14:29:28.000Z</time>
</trkpt>
<trkpt lat="42.647388" lon="-2.098425">
<ele>1413</ele>
<time>2013-05-04T14:29:29.000Z</time>
</trkpt>
<trkpt lat="42.647398" lon="-2.09833">
<ele>1412</ele>
<time>2013-05-04T14:29:30.000Z</time>
</trkpt>
<trkpt lat="42.647405" lon="-2.098229">
<ele>1409</ele>
<time>2013-05-04T14:29:31.000Z</time>
</trkpt>
<trkpt lat="42.647412" lon="-2.098126">
<ele>1407</ele>
<time>2013-05-04T14:29:32.000Z</time>
</trkpt>
<trkpt lat="42.647416" lon="-2.098025">
<ele>1405</ele>
<time>2013-05-04T14:29:33.000Z</time>
</trkpt>
<trkpt lat="42.647421" lon="-2.097927">
<ele>1403</ele>
<time>2013-05-04T14:29:34.000Z</time>
</trkpt>
<trkpt lat="42.647427" lon="-2.097833">
<ele>1400</ele>
<time>2013-05-04T14:29:35.000Z</time>
</trkpt>
<trkpt lat="42.647436" lon="-2.097739">
<ele>1398</ele>
<time>2013-05-04T14:29:36.000Z</time>
</trkpt>
<trkpt lat="42.647449" lon="-2.097638">
<ele>1395</ele>
<time>2013-05-04T14:29:37.000Z</time>
</trkpt>
<trkpt lat="42.647464" lon="-2.097531">
<ele>1392</ele>
<time>2013-05-04T14:29:38.000Z</time>
</trkpt>
<trkpt lat="42.647475" lon="-2.09742">
<ele>1390</ele>
<time>2013-05-04T14:29:39.000Z</time>
</trkpt>
<trkpt lat="42.64748" lon="-2.097313">
<ele>1388</ele>
<time>2013-05-04T14:29:40.000Z</time>
</trkpt>
<trkpt lat="42.64748" lon="-2.097206">
<ele>1387</ele>
<time>2013-05-04T14:29:41.000Z</time>
</trkpt>
<trkpt lat="42.647476" lon="-2.097111">
<ele>1386</ele>
<time>2013-05-04T14:29:42.000Z</time>
</trkpt>
<trkpt lat="42.647474" lon="-2.097027">
<ele>1384</ele>
<time>2013-05-04T14:29:43.000Z</time>
</trkpt>
<trkpt lat="42.647469" lon="-2.096934">
<ele>1381</ele>
<time>2013-05-04T14:29:44.000Z</time>
</trkpt>
<trkpt lat="42.647465" lon="-2.096841">
<ele>1378</ele>
<time>2013-05-04T14:29:45.000Z</time>
</trkpt>
<trkpt lat="42.647457" lon="-2.096744">
<ele>1374</ele>
<time>2013-05-04T14:29:46.000Z</time>
</trkpt>
<trkpt lat="42.647446" lon="-2.096643">
<ele>1371</ele>
<time>2013-05-04T14:29:47.000Z</time>
</trkpt>
<trkpt lat="42.647431" lon="-2.096531">
<ele>1370</ele>
<time>2013-05-04T14:29:48.000Z</time>
</trkpt>
<trkpt lat="42.647413" lon="-2.096414">
<ele>1368</ele>
<time>2013-05-04T14:29:49.000Z</time>
</trkpt>
<trkpt lat="42.647397" lon="-2.096294">
<ele>1367</ele>
<time>2013-05-04T14:29:50.000Z</time>
</trkpt>
<trkpt lat="42.647382" lon="-2.09618">
<ele>1365</ele>
<time>2013-05-04T14:29:51.000Z</time>
</trkpt>
<trkpt lat="42.647367" lon="-2.09606">
<ele>1363</ele>
<time>2013-05-04T14:29:52.000Z</time>
</trkpt>
<trkpt lat="42.647348" lon="-2.095938">
<ele>1360</ele>
<time>2013-05-04T14:29:53.000Z</time>
</trkpt>
<trkpt lat="42.64733" lon="-2.095804">
<ele>1358</ele>
<time>2013-05-04T14:29:54.000Z</time>
</trkpt>
<trkpt lat="42.647313" lon="-2.09568">
<ele>1356</ele>
<time>2013-05-04T14:29:55.000Z</time>
</trkpt>
<trkpt lat="42.647302" lon="-2.095567">
<ele>1353</ele>
<time>2013-05-04T14:29:56.000Z</time>
</trkpt>
<trkpt lat="42.647292" lon="-2.095464">
<ele>1351</ele>
<time>2013-05-04T14:29:57.000Z</time>
</trkpt>
<trkpt lat="42.647283" lon="-2.095396">
<ele>1344</ele>
<time>2013-05-04T14:29:58.000Z</time>
</trkpt>
<trkpt lat="42.647271" lon="-2.095317">
<ele>1340</ele>
<time>2013-05-04T14:29:59.000Z</time>
</trkpt>
<trkpt lat="42.647258" lon="-2.095227">
<ele>1337</ele>
<time>2013-05-04T14:30:00.000Z</time>
</trkpt>
<trkpt lat="42.64725" lon="-2.095148">
<ele>1332</ele>
<time>2013-05-04T14:30:01.000Z</time>
</trkpt>
<trkpt lat="42.647242" lon="-2.095066">
<ele>1328</ele>
<time>2013-05-04T14:30:02.000Z</time>
</trkpt>
<trkpt lat="42.647232" lon="-2.094961">
<ele>1325</ele>
<time>2013-05-04T14:30:03.000Z</time>
</trkpt>
<trkpt lat="42.64722" lon="-2.094852">
<ele>1322</ele>
<time>2013-05-04T14:30:04.000Z</time>
</trkpt>
<trkpt lat="42.647209" lon="-2.094737">
<ele>1320</ele>
<time>2013-05-04T14:30:05.000Z</time>
</trkpt>
<trkpt lat="42.647201" lon="-2.094624">
<ele>1319</ele>
<time>2013-05-04T14:30:06.000Z</time>
</trkpt>
<trkpt lat="42.647198" lon="-2.094531">
<ele>1316</ele>
<time>2013-05-04T14:30:07.000Z</time>
</trkpt>
<trkpt lat="42.647198" lon="-2.094446">
<ele>1312</ele>
<time>2013-05-04T14:30:08.000Z</time>
</trkpt>
<trkpt lat="42.647198" lon="-2.094352">
<ele>1307</ele>
<time>2013-05-04T14:30:09.000Z</time>
</trkpt>
<trkpt lat="42.647198" lon="-2.094263">
<ele>1301</ele>
<time>2013-05-04T14:30:10.000Z</time>
</trkpt>
<trkpt lat="42.647196" lon="-2.094154">
<ele>1299</ele>
<time>2013-05-04T14:30:11.000Z</time>
</trkpt>
<trkpt lat="42.647193" lon="-2.09406">
<ele>1295</ele>
<time>2013-05-04T14:30:12.000Z</time>
</trkpt>
<trkpt lat="42.647195" lon="-2.093977">
<ele>1291</ele>
<time>2013-05-04T14:30:13.000Z</time>
</trkpt>
<trkpt lat="42.647199" lon="-2.093886">
<ele>1286</ele>
<time>2013-05-04T14:30:14.000Z</time>
</trkpt>
<trkpt lat="42.647204" lon="-2.09379">
<ele>1282</ele>
<time>2013-05-04T14:30:15.000Z</time>
</trkpt>
<trkpt lat="42.647209" lon="-2.093678">
<ele>1279</ele>
<time>2013-05-04T14:30:16.000Z</time>
</trkpt>
<trkpt lat="42.647212" lon="-2.093567">
<ele>1277</ele>
<time>2013-05-04T14:30:17.000Z</time>
</trkpt>
<trkpt lat="42.647213" lon="-2.093467">
<ele>1275</ele>
<time>2013-05-04T14:30:18.000Z</time>
</trkpt>
<trkpt lat="42.647214" lon="-2.09337">
<ele>1273</ele>
<time>2013-05-04T14:30:19.000Z</time>
</trkpt>
<trkpt lat="42.647215" lon="-2.09327">
<ele>1270</ele>
<time>2013-05-04T14:30:20.000Z</time>
</trkpt>
<trkpt lat="42.647216" lon="-2.09316">
<ele>1267</ele>
<time>2013-05-04T14:30:21.000Z</time>
</trkpt>
<trkpt lat="42.647216" lon="-2.093048">
<ele>1265</ele>
<time>2013-05-04T14:30:22.000Z</time>
</trkpt>
<trkpt lat="42.647213" lon="-2.092938">
<ele>1262</ele>
<time>2013-05-04T14:30:23.000Z</time>
</trkpt>
<trkpt lat="42.647203" lon="-2.09283">
<ele>1260</ele>
<time>2013-05-04T14:30:24.000Z</time>
</trkpt>
<trkpt lat="42.64719" lon="-2.092726">
<ele>1258</ele>
<time>2013-05-04T14:30:25.000Z</time>
</trkpt>
<trkpt lat="42.647176" lon="-2.092618">
<ele>1254</ele>
<time>2013-05-04T14:30:26.000Z</time>
</trkpt>
<trkpt lat="42.647161" lon="-2.092506">
<ele>1251</ele>
<time>2013-05-04T14:30:27.000Z</time>
</trkpt>
<trkpt lat="42.647146" lon="-2.09239">
<ele>1248</ele>
<time>2013-05-04T14:30:28.000Z</time>
</trkpt>
<trkpt lat="42.647127" lon="-2.09228">
<ele>1246</ele>
<time>2013-05-04T14:30:29.000Z</time>
</trkpt>
<trkpt lat="42.647103" lon="-2.092162">
<ele>1243</ele>
<time>2013-05-04T14:30:30.000Z</time>
</trkpt>
<trkpt lat="42.647074" lon="-2.092034">
<ele>1242</ele>
<time>2013-05-04T14:30:31.000Z</time>
</trkpt>
<trkpt lat="42.647044" lon="-2.091896">
<ele>1242</ele>
<time>2013-05-04T14:30:32.000Z</time>
</trkpt>
<trkpt lat="42.647022" lon="-2.091773">
<ele>1238</ele>
<time>2013-05-04T14:30:33.000Z</time>
</trkpt>
<trkpt lat="42.647006" lon="-2.091634">
<ele>1235</ele>
<time>2013-05-04T14:30:34.000Z</time>
</trkpt>
<trkpt lat="42.647003" lon="-2.091544">
<ele>1226</ele>
<time>2013-05-04T14:30:35.000Z</time>
</trkpt>
<trkpt lat="42.646999" lon="-2.091464">
<ele>1222</ele>
<time>2013-05-04T14:30:36.000Z</time>
</trkpt>
<trkpt lat="42.646985" lon="-2.091358">
<ele>1220</ele>
<time>2013-05-04T14:30:37.000Z</time>
</trkpt>
<trkpt lat="42.646966" lon="-2.091241">
<ele>1219</ele>
<time>2013-05-04T14:30:38.000Z</time>
</trkpt>
<trkpt lat="42.646951" lon="-2.091132">
<ele>1215</ele>
<time>2013-05-04T14:30:39.000Z</time>
</trkpt>
<trkpt lat="42.646938" lon="-2.091006">
<ele>1213</ele>
<time>2013-05-04T14:30:40.000Z</time>
</trkpt>
<trkpt lat="42.646927" lon="-2.090889">
<ele>1212</ele>
<time>2013-05-04T14:30:41.000Z</time>
</trkpt>
<trkpt lat="42.646916" lon="-2.090772">
<ele>1209</ele>
<time>2013-05-04T14:30:42.000Z</time>
</trkpt>
<trkpt lat="42.6469" lon="-2.090655">
<ele>1206</ele>
<time>2013-05-04T14:30:43.000Z</time>
</trkpt>
<trkpt lat="42.646882" lon="-2.090539">
<ele>1202</ele>
<time>2013-05-04T14:30:44.000Z</time>
</trkpt>
<trkpt lat="42.646864" lon="-2.090423">
<ele>1198</ele>
<time>2013-05-04T14:30:45.000Z</time>
</trkpt>
<trkpt lat="42.64685" lon="-2.090297">
<ele>1194</ele>
<time>2013-05-04T14:30:46.000Z</time>
</trkpt>
<trkpt lat="42.646836" lon="-2.090167">
<ele>1191</ele>
<time>2013-05-04T14:30:47.000Z</time>
</trkpt>
<trkpt lat="42.646822" lon="-2.090047">
<ele>1190</ele>
<time>2013-05-04T14:30:48.000Z</time>
</trkpt>
<trkpt lat="42.646805" lon="-2.089934">
<ele>1190</ele>
<time>2013-05-04T14:30:49.000Z</time>
</trkpt>
<trkpt lat="42.646787" lon="-2.089822">
<ele>1189</ele>
<time>2013-05-04T14:30:50.000Z</time>
</trkpt>
<trkpt lat="42.646766" lon="-2.089697">
<ele>1187</ele>
<time>2013-05-04T14:30:51.000Z</time>
</trkpt>
<trkpt lat="42.646744" lon="-2.089565">
<ele>1186</ele>
<time>2013-05-04T14:30:52.000Z</time>
</trkpt>
<trkpt lat="42.646724" lon="-2.089436">
<ele>1185</ele>
<time>2013-05-04T14:30:53.000Z</time>
</trkpt>
<trkpt lat="42.646703" lon="-2.089301">
<ele>1186</ele>
<time>2013-05-04T14:30:54.000Z</time>
</trkpt>
<trkpt lat="42.646681" lon="-2.089167">
<ele>1188</ele>
<time>2013-05-04T14:30:55.000Z</time>
</trkpt>
<trkpt lat="42.646664" lon="-2.089054">
<ele>1189</ele>
<time>2013-05-04T14:30:56.000Z</time>
</trkpt>
<trkpt lat="42.646649" lon="-2.088958">
<ele>1191</ele>
<time>2013-05-04T14:30:57.000Z</time>
</trkpt>
<trkpt lat="42.646635" lon="-2.08888">
<ele>1189</ele>
<time>2013-05-04T14:30:58.000Z</time>
</trkpt>
<trkpt lat="42.646618" lon="-2.088787">
<ele>1187</ele>
<time>2013-05-04T14:30:59.000Z</time>
</trkpt>
<trkpt lat="42.646599" lon="-2.088673">
<ele>1185</ele>
<time>2013-05-04T14:31:00.000Z</time>
</trkpt>
<trkpt lat="42.646585" lon="-2.088556">
<ele>1182</ele>
<time>2013-05-04T14:31:01.000Z</time>
</trkpt>
<trkpt lat="42.646576" lon="-2.088441">
<ele>1182</ele>
<time>2013-05-04T14:31:02.000Z</time>
</trkpt>
<trkpt lat="42.646572" lon="-2.088342">
<ele>1179</ele>
<time>2013-05-04T14:31:03.000Z</time>
</trkpt>
<trkpt lat="42.646571" lon="-2.08825">
<ele>1177</ele>
<time>2013-05-04T14:31:04.000Z</time>
</trkpt>
<trkpt lat="42.646571" lon="-2.088163">
<ele>1173</ele>
<time>2013-05-04T14:31:05.000Z</time>
</trkpt>
<trkpt lat="42.646574" lon="-2.08808">
<ele>1168</ele>
<time>2013-05-04T14:31:06.000Z</time>
</trkpt>
<trkpt lat="42.646577" lon="-2.087981">
<ele>1165</ele>
<time>2013-05-04T14:31:07.000Z</time>
</trkpt>
<trkpt lat="42.646584" lon="-2.087872">
<ele>1163</ele>
<time>2013-05-04T14:31:08.000Z</time>
</trkpt>
<trkpt lat="42.646593" lon="-2.087766">
<ele>1161</ele>
<time>2013-05-04T14:31:09.000Z</time>
</trkpt>
<trkpt lat="42.646602" lon="-2.087669">
<ele>1160</ele>
<time>2013-05-04T14:31:10.000Z</time>
</trkpt>
<trkpt lat="42.646603" lon="-2.087573">
<ele>1160</ele>
<time>2013-05-04T14:31:11.000Z</time>
</trkpt>
<trkpt lat="42.646602" lon="-2.087475">
<ele>1158</ele>
<time>2013-05-04T14:31:12.000Z</time>
</trkpt>
<trkpt lat="42.646598" lon="-2.087372">
<ele>1156</ele>
<time>2013-05-04T14:31:13.000Z</time>
</trkpt>
<trkpt lat="42.646593" lon="-2.087263">
<ele>1154</ele>
<time>2013-05-04T14:31:14.000Z</time>
</trkpt>
<trkpt lat="42.646587" lon="-2.087147">
<ele>1153</ele>
<time>2013-05-04T14:31:15.000Z</time>
</trkpt>
<trkpt lat="42.646581" lon="-2.08703">
<ele>1152</ele>
<time>2013-05-04T14:31:16.000Z</time>
</trkpt>
<trkpt lat="42.646575" lon="-2.086913">
<ele>1152</ele>
<time>2013-05-04T14:31:17.000Z</time>
</trkpt>
<trkpt lat="42.646566" lon="-2.086796">
<ele>1152</ele>
<time>2013-05-04T14:31:18.000Z</time>
</trkpt>
<trkpt lat="42.646557" lon="-2.086687">
<ele>1152</ele>
<time>2013-05-04T14:31:19.000Z</time>
</trkpt>
<trkpt lat="42.646544" lon="-2.086581">
<ele>1151</ele>
<time>2013-05-04T14:31:20.000Z</time>
</trkpt>
<trkpt lat="42.646528" lon="-2.086474">
<ele>1150</ele>
<time>2013-05-04T14:31:21.000Z</time>
</trkpt>
<trkpt lat="42.646508" lon="-2.086356">
<ele>1149</ele>
<time>2013-05-04T14:31:22.000Z</time>
</trkpt>
<trkpt lat="42.646489" lon="-2.086235">
<ele>1147</ele>
<time>2013-05-04T14:31:23.000Z</time>
</trkpt>
<trkpt lat="42.646473" lon="-2.086113">
<ele>1144</ele>
<time>2013-05-04T14:31:24.000Z</time>
</trkpt>
<trkpt lat="42.646457" lon="-2.085991">
<ele>1142</ele>
<time>2013-05-04T14:31:25.000Z</time>
</trkpt>
<trkpt lat="42.646438" lon="-2.085877">
<ele>1141</ele>
<time>2013-05-04T14:31:26.000Z</time>
</trkpt>
<trkpt lat="42.646419" lon="-2.085768">
<ele>1140</ele>
<time>2013-05-04T14:31:27.000Z</time>
</trkpt>
<trkpt lat="42.6464" lon="-2.085662">
<ele>1139</ele>
<time>2013-05-04T14:31:28.000Z</time>
</trkpt>
<trkpt lat="42.646379" lon="-2.085543">
<ele>1138</ele>
<time>2013-05-04T14:31:29.000Z</time>
</trkpt>
<trkpt lat="42.646362" lon="-2.085414">
<ele>1137</ele>
<time>2013-05-04T14:31:30.000Z</time>
</trkpt>
<trkpt lat="42.646349" lon="-2.085282">
<ele>1135</ele>
<time>2013-05-04T14:31:31.000Z</time>
</trkpt>
<trkpt lat="42.64634" lon="-2.085169">
<ele>1135</ele>
<time>2013-05-04T14:31:32.000Z</time>
</trkpt>
<trkpt lat="42.646333" lon="-2.085082">
<ele>1135</ele>
<time>2013-05-04T14:31:33.000Z</time>
</trkpt>
<trkpt lat="42.646325" lon="-2.084997">
<ele>1135</ele>
<time>2013-05-04T14:31:34.000Z</time>
</trkpt>
<trkpt lat="42.646315" lon="-2.084901">
<ele>1134</ele>
<time>2013-05-04T14:31:35.000Z</time>
</trkpt>
<trkpt lat="42.646307" lon="-2.084785">
<ele>1132</ele>
<time>2013-05-04T14:31:36.000Z</time>
</trkpt>
<trkpt lat="42.646304" lon="-2.084669">
<ele>1131</ele>
<time>2013-05-04T14:31:37.000Z</time>
</trkpt>
<trkpt lat="42.646308" lon="-2.084566">
<ele>1129</ele>
<time>2013-05-04T14:31:38.000Z</time>
</trkpt>
<trkpt lat="42.646315" lon="-2.084484">
<ele>1126</ele>
<time>2013-05-04T14:31:39.000Z</time>
</trkpt>
<trkpt lat="42.64632" lon="-2.084403">
<ele>1125</ele>
<time>2013-05-04T14:31:40.000Z</time>
</trkpt>
<trkpt lat="42.646321" lon="-2.084317">
<ele>1123</ele>
<time>2013-05-04T14:31:41.000Z</time>
</trkpt>
<trkpt lat="42.646319" lon="-2.084211">
<ele>1121</ele>
<time>2013-05-04T14:31:42.000Z</time>
</trkpt>
<trkpt lat="42.646316" lon="-2.084075">
<ele>1120</ele>
<time>2013-05-04T14:31:43.000Z</time>
</trkpt>
<trkpt lat="42.646315" lon="-2.083948">
<ele>1120</ele>
<time>2013-05-04T14:31:44.000Z</time>
</trkpt>
<trkpt lat="42.646315" lon="-2.08384">
<ele>1120</ele>
<time>2013-05-04T14:31:45.000Z</time>
</trkpt>
<trkpt lat="42.646319" lon="-2.08375">
<ele>1120</ele>
<time>2013-05-04T14:31:46.000Z</time>
</trkpt>
<trkpt lat="42.646325" lon="-2.08367">
<ele>1119</ele>
<time>2013-05-04T14:31:47.000Z</time>
</trkpt>
<trkpt lat="42.646332" lon="-2.083579">
<ele>1118</ele>
<time>2013-05-04T14:31:48.000Z</time>
</trkpt>
<trkpt lat="42.646339" lon="-2.083478">
<ele>1116</ele>
<time>2013-05-04T14:31:49.000Z</time>
</trkpt>
<trkpt lat="42.646343" lon="-2.083366">
<ele>1115</ele>
<time>2013-05-04T14:31:50.000Z</time>
</trkpt>
<trkpt lat="42.646346" lon="-2.083258">
<ele>1114</ele>
<time>2013-05-04T14:31:51.000Z</time>
</trkpt>
<trkpt lat="42.646347" lon="-2.083159">
<ele>1113</ele>
<time>2013-05-04T14:31:52.000Z</time>
</trkpt>
<trkpt lat="42.646347" lon="-2.083073">
<ele>1113</ele>
<time>2013-05-04T14:31:53.000Z</time>
</trkpt>
<trkpt lat="42.646344" lon="-2.082995">
<ele>1112</ele>
<time>2013-05-04T14:31:54.000Z</time>
</trkpt>
<trkpt lat="42.646341" lon="-2.082912">
<ele>1110</ele>
<time>2013-05-04T14:31:55.000Z</time>
</trkpt>
<trkpt lat="42.646335" lon="-2.082802">
<ele>1109</ele>
<time>2013-05-04T14:31:56.000Z</time>
</trkpt>
<trkpt lat="42.646329" lon="-2.082693">
<ele>1108</ele>
<time>2013-05-04T14:31:57.000Z</time>
</trkpt>
<trkpt lat="42.646324" lon="-2.082597">
<ele>1107</ele>
<time>2013-05-04T14:31:58.000Z</time>
</trkpt>
<trkpt lat="42.646316" lon="-2.082507">
<ele>1107</ele>
<time>2013-05-04T14:31:59.000Z</time>
</trkpt>
<trkpt lat="42.646304" lon="-2.082419">
<ele>1106</ele>
<time>2013-05-04T14:32:00.000Z</time>
</trkpt>
<trkpt lat="42.646285" lon="-2.082321">
<ele>1104</ele>
<time>2013-05-04T14:32:01.000Z</time>
</trkpt>
<trkpt lat="42.646264" lon="-2.082208">
<ele>1102</ele>
<time>2013-05-04T14:32:02.000Z</time>
</trkpt>
<trkpt lat="42.646245" lon="-2.082103">
<ele>1099</ele>
<time>2013-05-04T14:32:03.000Z</time>
</trkpt>
<trkpt lat="42.646226" lon="-2.082009">
<ele>1097</ele>
<time>2013-05-04T14:32:04.000Z</time>
</trkpt>
<trkpt lat="42.646208" lon="-2.081916">
<ele>1096</ele>
<time>2013-05-04T14:32:05.000Z</time>
</trkpt>
<trkpt lat="42.646184" lon="-2.081824">
<ele>1095</ele>
<time>2013-05-04T14:32:06.000Z</time>
</trkpt>
<trkpt lat="42.646158" lon="-2.081734">
<ele>1091</ele>
<time>2013-05-04T14:32:07.000Z</time>
</trkpt>
<trkpt lat="42.646127" lon="-2.081642">
<ele>1088</ele>
<time>2013-05-04T14:32:08.000Z</time>
</trkpt>
<trkpt lat="42.646094" lon="-2.081539">
<ele>1086</ele>
<time>2013-05-04T14:32:09.000Z</time>
</trkpt>
<trkpt lat="42.646067" lon="-2.081439">
<ele>1085</ele>
<time>2013-05-04T14:32:10.000Z</time>
</trkpt>
<trkpt lat="42.646046" lon="-2.081334">
<ele>1084</ele>
<time>2013-05-04T14:32:11.000Z</time>
</trkpt>
<trkpt lat="42.64603" lon="-2.081232">
<ele>1084</ele>
<time>2013-05-04T14:32:12.000Z</time>
</trkpt>
<trkpt lat="42.646015" lon="-2.08113">
<ele>1082</ele>
<time>2013-05-04T14:32:13.000Z</time>
</trkpt>
<trkpt lat="42.645999" lon="-2.081027">
<ele>1080</ele>
<time>2013-05-04T14:32:14.000Z</time>
</trkpt>
<trkpt lat="42.645986" lon="-2.080921">
<ele>1078</ele>
<time>2013-05-04T14:32:15.000Z</time>
</trkpt>
<trkpt lat="42.64598" lon="-2.080814">
<ele>1075</ele>
<time>2013-05-04T14:32:16.000Z</time>
</trkpt>
<trkpt lat="42.64598" lon="-2.0807">
<ele>1075</ele>
<time>2013-05-04T14:32:17.000Z</time>
</trkpt>
<trkpt lat="42.645982" lon="-2.080598">
<ele>1072</ele>
<time>2013-05-04T14:32:18.000Z</time>
</trkpt>
<trkpt lat="42.64598" lon="-2.080499">
<ele>1070</ele>
<time>2013-05-04T14:32:19.000Z</time>
</trkpt>
<trkpt lat="42.645971" lon="-2.080388">
<ele>1069</ele>
<time>2013-05-04T14:32:20.000Z</time>
</trkpt>
<trkpt lat="42.645953" lon="-2.080269">
<ele>1067</ele>
<time>2013-05-04T14:32:21.000Z</time>
</trkpt>
<trkpt lat="42.645931" lon="-2.080143">
<ele>1066</ele>
<time>2013-05-04T14:32:22.000Z</time>
</trkpt>
<trkpt lat="42.64591" lon="-2.080021">
<ele>1064</ele>
<time>2013-05-04T14:32:23.000Z</time>
</trkpt>
<trkpt lat="42.645895" lon="-2.079896">
<ele>1062</ele>
<time>2013-05-04T14:32:24.000Z</time>
</trkpt>
<trkpt lat="42.645882" lon="-2.079772">
<ele>1062</ele>
<time>2013-05-04T14:32:25.000Z</time>
</trkpt>
<trkpt lat="42.645871" lon="-2.079656">
<ele>1061</ele>
<time>2013-05-04T14:32:26.000Z</time>
</trkpt>
<trkpt lat="42.64586" lon="-2.079544">
<ele>1059</ele>
<time>2013-05-04T14:32:27.000Z</time>
</trkpt>
<trkpt lat="42.645845" lon="-2.079431">
<ele>1057</ele>
<time>2013-05-04T14:32:28.000Z</time>
</trkpt>
<trkpt lat="42.64583" lon="-2.079313">
<ele>1053</ele>
<time>2013-05-04T14:32:29.000Z</time>
</trkpt>
<trkpt lat="42.645819" lon="-2.079188">
<ele>1049</ele>
<time>2013-05-04T14:32:30.000Z</time>
</trkpt>
<trkpt lat="42.645815" lon="-2.079063">
<ele>1045</ele>
<time>2013-05-04T14:32:31.000Z</time>
</trkpt>
<trkpt lat="42.645819" lon="-2.07894">
<ele>1042</ele>
<time>2013-05-04T14:32:32.000Z</time>
</trkpt>
<trkpt lat="42.645829" lon="-2.078829">
<ele>1039</ele>
<time>2013-05-04T14:32:33.000Z</time>
</trkpt>
<trkpt lat="42.645839" lon="-2.078723">
<ele>1039</ele>
<time>2013-05-04T14:32:34.000Z</time>
</trkpt>
<trkpt lat="42.645846" lon="-2.078624">
<ele>1037</ele>
<time>2013-05-04T14:32:35.000Z</time>
</trkpt>
<trkpt lat="42.645857" lon="-2.078521">
<ele>1035</ele>
<time>2013-05-04T14:32:36.000Z</time>
</trkpt>
<trkpt lat="42.645872" lon="-2.078414">
<ele>1032</ele>
<time>2013-05-04T14:32:37.000Z</time>
</trkpt>
<trkpt lat="42.645892" lon="-2.078301">
<ele>1028</ele>
<time>2013-05-04T14:32:38.000Z</time>
</trkpt>
<trkpt lat="42.645909" lon="-2.078184">
<ele>1025</ele>
<time>2013-05-04T14:32:39.000Z</time>
</trkpt>
<trkpt lat="42.645923" lon="-2.078069">
<ele>1023</ele>
<time>2013-05-04T14:32:40.000Z</time>
</trkpt>
<trkpt lat="42.645933" lon="-2.077959">
<ele>1020</ele>
<time>2013-05-04T14:32:41.000Z</time>
</trkpt>
<trkpt lat="42.645942" lon="-2.077855">
<ele>1018</ele>
<time>2013-05-04T14:32:42.000Z</time>
</trkpt>
<trkpt lat="42.645949" lon="-2.077747">
<ele>1016</ele>
<time>2013-05-04T14:32:43.000Z</time>
</trkpt>
<trkpt lat="42.645953" lon="-2.077632">
<ele>1015</ele>
<time>2013-05-04T14:32:44.000Z</time>
</trkpt>
<trkpt lat="42.64595" lon="-2.077518">
<ele>1013</ele>
<time>2013-05-04T14:32:45.000Z</time>
</trkpt>
<trkpt lat="42.645939" lon="-2.077409">
<ele>1011</ele>
<time>2013-05-04T14:32:46.000Z</time>
</trkpt>
<trkpt lat="42.645924" lon="-2.077303">
<ele>1008</ele>
<time>2013-05-04T14:32:47.000Z</time>
</trkpt>
<trkpt lat="42.64591" lon="-2.077194">
<ele>1006</ele>
<time>2013-05-04T14:32:48.000Z</time>
</trkpt>
<trkpt lat="42.645894" lon="-2.077083">
<ele>1005</ele>
<time>2013-05-04T14:32:49.000Z</time>
</trkpt>
<trkpt lat="42.645877" lon="-2.076982">
<ele>1005</ele>
<time>2013-05-04T14:32:50.000Z</time>
</trkpt>
<trkpt lat="42.645855" lon="-2.076882">
<ele>1003</ele>
<time>2013-05-04T14:32:51.000Z</time>
</trkpt>
<trkpt lat="42.645828" lon="-2.076775">
<ele>1002</ele>
<time>2013-05-04T14:32:52.000Z</time>
</trkpt>
<trkpt lat="42.645801" lon="-2.076658">
<ele>999</ele>
<time>2013-05-04T14:32:53.000Z</time>
</trkpt>
<trkpt lat="42.645781" lon="-2.076545">
<ele>999</ele>
<time>2013-05-04T14:32:54.000Z</time>
</trkpt>
<trkpt lat="42.645769" lon="-2.076461">
<ele>996</ele>
<time>2013-05-04T14:32:55.000Z</time>
</trkpt>
<trkpt lat="42.645759" lon="-2.076386">
<ele>994</ele>
<time>2013-05-04T14:32:56.000Z</time>
</trkpt>
<trkpt lat="42.645747" lon="-2.076294">
<ele>995</ele>
<time>2013-05-04T14:32:57.000Z</time>
</trkpt>
<trkpt lat="42.645731" lon="-2.076204">
<ele>993</ele>
<time>2013-05-04T14:32:58.000Z</time>
</trkpt>
<trkpt lat="42.645712" lon="-2.076099">
<ele>990</ele>
<time>2013-05-04T14:32:59.000Z</time>
</trkpt>
<trkpt lat="42.645693" lon="-2.075983">
<ele>987</ele>
<time>2013-05-04T14:33:00.000Z</time>
</trkpt>
<trkpt lat="42.645677" lon="-2.075869">
<ele>986</ele>
<time>2013-05-04T14:33:01.000Z</time>
</trkpt>
<trkpt lat="42.645661" lon="-2.075768">
<ele>985</ele>
<time>2013-05-04T14:33:02.000Z</time>
</trkpt>
<trkpt lat="42.645649" lon="-2.07569">
<ele>982</ele>
<time>2013-05-04T14:33:03.000Z</time>
</trkpt>
<trkpt lat="42.645637" lon="-2.075612">
<ele>981</ele>
<time>2013-05-04T14:33:04.000Z</time>
</trkpt>
<trkpt lat="42.645627" lon="-2.075545">
<ele>978</ele>
<time>2013-05-04T14:33:05.000Z</time>
</trkpt>
<trkpt lat="42.645617" lon="-2.07547">
<ele>975</ele>
<time>2013-05-04T14:33:06.000Z</time>
</trkpt>
<trkpt lat="42.645603" lon="-2.075381">
<ele>974</ele>
<time>2013-05-04T14:33:07.000Z</time>
</trkpt>
<trkpt lat="42.645592" lon="-2.075306">
<ele>972</ele>
<time>2013-05-04T14:33:08.000Z</time>
</trkpt>
<trkpt lat="42.645586" lon="-2.075235">
<ele>971</ele>
<time>2013-05-04T14:33:09.000Z</time>
</trkpt>
<trkpt lat="42.645581" lon="-2.075164">
<ele>970</ele>
<time>2013-05-04T14:33:10.000Z</time>
</trkpt>
<trkpt lat="42.645577" lon="-2.075093">
<ele>968</ele>
<time>2013-05-04T14:33:11.000Z</time>
</trkpt>
<trkpt lat="42.645572" lon="-2.075013">
<ele>967</ele>
<time>2013-05-04T14:33:12.000Z</time>
</trkpt>
<trkpt lat="42.645564" lon="-2.074926">
<ele>964</ele>
<time>2013-05-04T14:33:13.000Z</time>
</trkpt>
<trkpt lat="42.645552" lon="-2.07483">
<ele>964</ele>
<time>2013-05-04T14:33:14.000Z</time>
</trkpt>
<trkpt lat="42.645541" lon="-2.074743">
<ele>965</ele>
<time>2013-05-04T14:33:15.000Z</time>
</trkpt>
<trkpt lat="42.645528" lon="-2.074657">
<ele>965</ele>
<time>2013-05-04T14:33:16.000Z</time>
</trkpt>
<trkpt lat="42.645515" lon="-2.074571">
<ele>965</ele>
<time>2013-05-04T14:33:17.000Z</time>
</trkpt>
<trkpt lat="42.645499" lon="-2.074482">
<ele>963</ele>
<time>2013-05-04T14:33:18.000Z</time>
</trkpt>
<trkpt lat="42.645481" lon="-2.074385">
<ele>962</ele>
<time>2013-05-04T14:33:19.000Z</time>
</trkpt>
<trkpt lat="42.645465" lon="-2.074311">
<ele>957</ele>
<time>2013-05-04T14:33:20.000Z</time>
</trkpt>
<trkpt lat="42.64545" lon="-2.074248">
<ele>953</ele>
<time>2013-05-04T14:33:21.000Z</time>
</trkpt>
<trkpt lat="42.645436" lon="-2.074185">
<ele>951</ele>
<time>2013-05-04T14:33:22.000Z</time>
</trkpt>
<trkpt lat="42.645418" lon="-2.074113">
<ele>949</ele>
<time>2013-05-04T14:33:23.000Z</time>
</trkpt>
<trkpt lat="42.645396" lon="-2.074028">
<ele>949</ele>
<time>2013-05-04T14:33:24.000Z</time>
</trkpt>
<trkpt lat="42.645375" lon="-2.073955">
<ele>949</ele>
<time>2013-05-04T14:33:25.000Z</time>
</trkpt>
<trkpt lat="42.645361" lon="-2.073905">
<ele>944</ele>
<time>2013-05-04T14:33:26.000Z</time>
</trkpt>
<trkpt lat="42.645348" lon="-2.073853">
<ele>939</ele>
<time>2013-05-04T14:33:27.000Z</time>
</trkpt>
<trkpt lat="42.645336" lon="-2.073788">
<ele>934</ele>
<time>2013-05-04T14:33:28.000Z</time>
</trkpt>
<trkpt lat="42.645322" lon="-2.073717">
<ele>932</ele>
<time>2013-05-04T14:33:29.000Z</time>
</trkpt>
<trkpt lat="42.645307" lon="-2.073645">
<ele>931</ele>
<time>2013-05-04T14:33:30.000Z</time>
</trkpt>
<trkpt lat="42.645291" lon="-2.073567">
<ele>931</ele>
<time>2013-05-04T14:33:31.000Z</time>
</trkpt>
<trkpt lat="42.645271" lon="-2.073483">
<ele>929</ele>
<time>2013-05-04T14:33:32.000Z</time>
</trkpt>
<trkpt lat="42.645249" lon="-2.073391">
<ele>928</ele>
<time>2013-05-04T14:33:33.000Z</time>
</trkpt>
<trkpt lat="42.645223" lon="-2.073301">
<ele>925</ele>
<time>2013-05-04T14:33:34.000Z</time>
</trkpt>
<trkpt lat="42.645182" lon="-2.073231">
<ele>923</ele>
<time>2013-05-04T14:33:35.000Z</time>
</trkpt>
<trkpt lat="42.645141" lon="-2.073174">
<ele>921</ele>
<time>2013-05-04T14:33:36.000Z</time>
</trkpt>
<trkpt lat="42.6451" lon="-2.073123">
<ele>919</ele>
<time>2013-05-04T14:33:37.000Z</time>
</trkpt>
<trkpt lat="42.645061" lon="-2.073077">
<ele>917</ele>
<time>2013-05-04T14:33:38.000Z</time>
</trkpt>
<trkpt lat="42.645018" lon="-2.073021">
<ele>914</ele>
<time>2013-05-04T14:33:39.000Z</time>
</trkpt>
<trkpt lat="42.644975" lon="-2.072963">
<ele>911</ele>
<time>2013-05-04T14:33:40.000Z</time>
</trkpt>
<trkpt lat="42.64493" lon="-2.072892">
<ele>909</ele>
<time>2013-05-04T14:33:41.000Z</time>
</trkpt>
<trkpt lat="42.644889" lon="-2.072831">
<ele>909</ele>
<time>2013-05-04T14:33:42.000Z</time>
</trkpt>
<trkpt lat="42.64485" lon="-2.072768">
<ele>908</ele>
<time>2013-05-04T14:33:43.000Z</time>
</trkpt>
<trkpt lat="42.644811" lon="-2.072698">
<ele>906</ele>
<time>2013-05-04T14:33:44.000Z</time>
</trkpt>
<trkpt lat="42.644776" lon="-2.072621">
<ele>904</ele>
<time>2013-05-04T14:33:45.000Z</time>
</trkpt>
<trkpt lat="42.644745" lon="-2.072539">
<ele>902</ele>
<time>2013-05-04T14:33:46.000Z</time>
</trkpt>
<trkpt lat="42.644723" lon="-2.072466">
<ele>898</ele>
<time>2013-05-04T14:33:47.000Z</time>
</trkpt>
<trkpt lat="42.644704" lon="-2.072386">
<ele>894</ele>
<time>2013-05-04T14:33:48.000Z</time>
</trkpt>
<trkpt lat="42.644689" lon="-2.072307">
<ele>891</ele>
<time>2013-05-04T14:33:49.000Z</time>
</trkpt>
<trkpt lat="42.644676" lon="-2.072227">
<ele>891</ele>
<time>2013-05-04T14:33:50.000Z</time>
</trkpt>
<trkpt lat="42.644666" lon="-2.072166">
<ele>887</ele>
<time>2013-05-04T14:33:51.000Z</time>
</trkpt>
<trkpt lat="42.644658" lon="-2.072101">
<ele>885</ele>
<time>2013-05-04T14:33:52.000Z</time>
</trkpt>
<trkpt lat="42.644648" lon="-2.072028">
<ele>883</ele>
<time>2013-05-04T14:33:53.000Z</time>
</trkpt>
<trkpt lat="42.64464" lon="-2.071947">
<ele>880</ele>
<time>2013-05-04T14:33:54.000Z</time>
</trkpt>
<trkpt lat="42.644632" lon="-2.071864">
<ele>879</ele>
<time>2013-05-04T14:33:55.000Z</time>
</trkpt>
<trkpt lat="42.644627" lon="-2.071782">
<ele>878</ele>
<time>2013-05-04T14:33:56.000Z</time>
</trkpt>
<trkpt lat="42.644624" lon="-2.071704">
<ele>878</ele>
<time>2013-05-04T14:33:57.000Z</time>
</trkpt>
<trkpt lat="42.644621" lon="-2.071629">
<ele>875</ele>
<time>2013-05-04T14:33:58.000Z</time>
</trkpt>
<trkpt lat="42.644617" lon="-2.071549">
<ele>873</ele>
<time>2013-05-04T14:33:59.000Z</time>
</trkpt>
<trkpt lat="42.644613" lon="-2.071469">
<ele>871</ele>
<time>2013-05-04T14:34:00.000Z</time>
</trkpt>
<trkpt lat="42.644608" lon="-2.071383">
<ele>869</ele>
<time>2013-05-04T14:34:01.000Z</time>
</trkpt>
<trkpt lat="42.644604" lon="-2.07131">
<ele>867</ele>
<time>2013-05-04T14:34:02.000Z</time>
</trkpt>
<trkpt lat="42.644599" lon="-2.071248">
<ele>863</ele>
<time>2013-05-04T14:34:03.000Z</time>
</trkpt>
<trkpt lat="42.644596" lon="-2.071177">
<ele>860</ele>
<time>2013-05-04T14:34:04.000Z</time>
</trkpt>
<trkpt lat="42.644594" lon="-2.071103">
<ele>856</ele>
<time>2013-05-04T14:34:05.000Z</time>
</trkpt>
<trkpt lat="42.644587" lon="-2.071031">
<ele>854</ele>
<time>2013-05-04T14:34:06.000Z</time>
</trkpt>
<trkpt lat="42.644576" lon="-2.070943">
<ele>853</ele>
<time>2013-05-04T14:34:07.000Z</time>
</trkpt>
<trkpt lat="42.64456" lon="-2.070852">
<ele>853</ele>
<time>2013-05-04T14:34:08.000Z</time>
</trkpt>
<trkpt lat="42.644545" lon="-2.070766">
<ele>852</ele>
<time>2013-05-04T14:34:09.000Z</time>
</trkpt>
<trkpt lat="42.644531" lon="-2.070687">
<ele>851</ele>
<time>2013-05-04T14:34:10.000Z</time>
</trkpt>
<trkpt lat="42.644524" lon="-2.070614">
<ele>848</ele>
<time>2013-05-04T14:34:11.000Z</time>
</trkpt>
<trkpt lat="42.644522" lon="-2.070536">
<ele>846</ele>
<time>2013-05-04T14:34:12.000Z</time>
</trkpt>
<trkpt lat="42.644523" lon="-2.070437">
<ele>844</ele>
<time>2013-05-04T14:34:13.000Z</time>
</trkpt>
<trkpt lat="42.644524" lon="-2.070345">
<ele>843</ele>
<time>2013-05-04T14:34:14.000Z</time>
</trkpt>
<trkpt lat="42.644523" lon="-2.070267">
<ele>841</ele>
<time>2013-05-04T14:34:15.000Z</time>
</trkpt>
<trkpt lat="42.644518" lon="-2.070199">
<ele>839</ele>
<time>2013-05-04T14:34:16.000Z</time>
</trkpt>
<trkpt lat="42.644514" lon="-2.070128">
<ele>835</ele>
<time>2013-05-04T14:34:17.000Z</time>
</trkpt>
<trkpt lat="42.644511" lon="-2.070056">
<ele>833</ele>
<time>2013-05-04T14:34:18.000Z</time>
</trkpt>
<trkpt lat="42.644512" lon="-2.069977">
<ele>828</ele>
<time>2013-05-04T14:34:19.000Z</time>
</trkpt>
<trkpt lat="42.644513" lon="-2.069888">
<ele>827</ele>
<time>2013-05-04T14:34:20.000Z</time>
</trkpt>
<trkpt lat="42.644513" lon="-2.069799">
<ele>826</ele>
<time>2013-05-04T14:34:21.000Z</time>
</trkpt>
<trkpt lat="42.644514" lon="-2.069709">
<ele>824</ele>
<time>2013-05-04T14:34:22.000Z</time>
</trkpt>
<trkpt lat="42.644514" lon="-2.069619">
<ele>822</ele>
<time>2013-05-04T14:34:23.000Z</time>
</trkpt>
<trkpt lat="42.644514" lon="-2.06952">
<ele>820</ele>
<time>2013-05-04T14:34:24.000Z</time>
</trkpt>
<trkpt lat="42.644513" lon="-2.069423">
<ele>818</ele>
<time>2013-05-04T14:34:25.000Z</time>
</trkpt>
<trkpt lat="42.644515" lon="-2.06933">
<ele>815</ele>
<time>2013-05-04T14:34:26.000Z</time>
</trkpt>
<trkpt lat="42.644516" lon="-2.069238">
<ele>814</ele>
<time>2013-05-04T14:34:27.000Z</time>
</trkpt>
<trkpt lat="42.644517" lon="-2.069151">
<ele>812</ele>
<time>2013-05-04T14:34:28.000Z</time>
</trkpt>
<trkpt lat="42.644519" lon="-2.069065">
<ele>809</ele>
<time>2013-05-04T14:34:29.000Z</time>
</trkpt>
<trkpt lat="42.644518" lon="-2.068977">
<ele>806</ele>
<time>2013-05-04T14:34:30.000Z</time>
</trkpt>
<trkpt lat="42.644515" lon="-2.068886">
<ele>805</ele>
<time>2013-05-04T14:34:31.000Z</time>
</trkpt>
<trkpt lat="42.644512" lon="-2.068795">
<ele>803</ele>
<time>2013-05-04T14:34:32.000Z</time>
</trkpt>
<trkpt lat="42.64451" lon="-2.068707">
<ele>802</ele>
<time>2013-05-04T14:34:33.000Z</time>
</trkpt>
<trkpt lat="42.644508" lon="-2.068623">
<ele>799</ele>
<time>2013-05-04T14:34:34.000Z</time>
</trkpt>
<trkpt lat="42.644507" lon="-2.068537">
<ele>797</ele>
<time>2013-05-04T14:34:35.000Z</time>
</trkpt>
<trkpt lat="42.644504" lon="-2.068445">
<ele>796</ele>
<time>2013-05-04T14:34:36.000Z</time>
</trkpt>
<trkpt lat="42.644501" lon="-2.068355">
<ele>794</ele>
<time>2013-05-04T14:34:37.000Z</time>
</trkpt>
<trkpt lat="42.644495" lon="-2.068261">
<ele>793</ele>
<time>2013-05-04T14:34:38.000Z</time>
</trkpt>
<trkpt lat="42.644486" lon="-2.068166">
<ele>792</ele>
<time>2013-05-04T14:34:39.000Z</time>
</trkpt>
<trkpt lat="42.644475" lon="-2.068072">
<ele>791</ele>
<time>2013-05-04T14:34:40.000Z</time>
</trkpt>
<trkpt lat="42.644462" lon="-2.067976">
<ele>790</ele>
<time>2013-05-04T14:34:41.000Z</time>
</trkpt>
<trkpt lat="42.644446" lon="-2.067875">
<ele>788</ele>
<time>2013-05-04T14:34:42.000Z</time>
</trkpt>
<trkpt lat="42.644432" lon="-2.067788">
<ele>786</ele>
<time>2013-05-04T14:34:43.000Z</time>
</trkpt>
<trkpt lat="42.644417" lon="-2.067703">
<ele>783</ele>
<time>2013-05-04T14:34:44.000Z</time>
</trkpt>
<trkpt lat="42.644404" lon="-2.067626">
<ele>780</ele>
<time>2013-05-04T14:34:45.000Z</time>
</trkpt>
<trkpt lat="42.64439" lon="-2.067549">
<ele>777</ele>
<time>2013-05-04T14:34:46.000Z</time>
</trkpt>
<trkpt lat="42.644374" lon="-2.067463">
<ele>775</ele>
<time>2013-05-04T14:34:47.000Z</time>
</trkpt>
<trkpt lat="42.644359" lon="-2.067377">
<ele>773</ele>
<time>2013-05-04T14:34:48.000Z</time>
</trkpt>
<trkpt lat="42.644346" lon="-2.067294">
<ele>770</ele>
<time>2013-05-04T14:34:49.000Z</time>
</trkpt>
<trkpt lat="42.644335" lon="-2.06721">
<ele>767</ele>
<time>2013-05-04T14:34:50.000Z</time>
</trkpt>
<trkpt lat="42.644323" lon="-2.067127">
<ele>766</ele>
<time>2013-05-04T14:34:51.000Z</time>
</trkpt>
<trkpt lat="42.644313" lon="-2.067047">
<ele>764</ele>
<time>2013-05-04T14:34:52.000Z</time>
</trkpt>
<trkpt lat="42.644304" lon="-2.066969">
<ele>762</ele>
<time>2013-05-04T14:34:53.000Z</time>
</trkpt>
<trkpt lat="42.644296" lon="-2.066889">
<ele>758</ele>
<time>2013-05-04T14:34:54.000Z</time>
</trkpt>
<trkpt lat="42.64429" lon="-2.066806">
<ele>755</ele>
<time>2013-05-04T14:34:55.000Z</time>
</trkpt>
<trkpt lat="42.644285" lon="-2.066725">
<ele>748</ele>
<time>2013-05-04T14:34:56.000Z</time>
</trkpt>
<trkpt lat="42.644283" lon="-2.066641">
<ele>745</ele>
<time>2013-05-04T14:34:57.000Z</time>
</trkpt>
<trkpt lat="42.644295" lon="-2.066561">
<ele>743</ele>
<time>2013-05-04T14:34:58.000Z</time>
</trkpt>
<trkpt lat="42.64431" lon="-2.066483">
<ele>741</ele>
<time>2013-05-04T14:34:59.000Z</time>
</trkpt>
<trkpt lat="42.644328" lon="-2.066411">
<ele>739</ele>
<time>2013-05-04T14:35:00.000Z</time>
</trkpt>
<trkpt lat="42.64435" lon="-2.066327">
<ele>736</ele>
<time>2013-05-04T14:35:01.000Z</time>
</trkpt>
<trkpt lat="42.644373" lon="-2.066241">
<ele>734</ele>
<time>2013-05-04T14:35:02.000Z</time>
</trkpt>
<trkpt lat="42.644398" lon="-2.066165">
<ele>731</ele>
<time>2013-05-04T14:35:03.000Z</time>
</trkpt>
<trkpt lat="42.644438" lon="-2.066099">
<ele>728</ele>
<time>2013-05-04T14:35:04.000Z</time>
</trkpt>
<trkpt lat="42.644487" lon="-2.066025">
<ele>725</ele>
<time>2013-05-04T14:35:05.000Z</time>
</trkpt>
<trkpt lat="42.644543" lon="-2.065947">
<ele>723</ele>
<time>2013-05-04T14:35:06.000Z</time>
</trkpt>
<trkpt lat="42.644598" lon="-2.065873">
<ele>721</ele>
<time>2013-05-04T14:35:07.000Z</time>
</trkpt>
<trkpt lat="42.644648" lon="-2.065804">
<ele>720</ele>
<time>2013-05-04T14:35:08.000Z</time>
</trkpt>
<trkpt lat="42.644693" lon="-2.065744">
<ele>717</ele>
<time>2013-05-04T14:35:09.000Z</time>
</trkpt>
<trkpt lat="42.644731" lon="-2.065686">
<ele>714</ele>
<time>2013-05-04T14:35:10.000Z</time>
</trkpt>
<trkpt lat="42.644773" lon="-2.065623">
<ele>712</ele>
<time>2013-05-04T14:35:11.000Z</time>
</trkpt>
<trkpt lat="42.644823" lon="-2.065553">
<ele>709</ele>
<time>2013-05-04T14:35:12.000Z</time>
</trkpt>
<trkpt lat="42.644878" lon="-2.065475">
<ele>708</ele>
<time>2013-05-04T14:35:13.000Z</time>
</trkpt>
<trkpt lat="42.644924" lon="-2.065406">
<ele>706</ele>
<time>2013-05-04T14:35:14.000Z</time>
</trkpt>
<trkpt lat="42.644967" lon="-2.065341">
<ele>704</ele>
<time>2013-05-04T14:35:15.000Z</time>
</trkpt>
<trkpt lat="42.64501" lon="-2.065276">
<ele>701</ele>
<time>2013-05-04T14:35:16.000Z</time>
</trkpt>
<trkpt lat="42.64505" lon="-2.065209">
<ele>699</ele>
<time>2013-05-04T14:35:17.000Z</time>
</trkpt>
<trkpt lat="42.645088" lon="-2.065137">
<ele>697</ele>
<time>2013-05-04T14:35:18.000Z</time>
</trkpt>
<trkpt lat="42.645124" lon="-2.065063">
<ele>695</ele>
<time>2013-05-04T14:35:19.000Z</time>
</trkpt>
<trkpt lat="42.645158" lon="-2.064988">
<ele>694</ele>
<time>2013-05-04T14:35:20.000Z</time>
</trkpt>
<trkpt lat="42.645192" lon="-2.06491">
<ele>692</ele>
<time>2013-05-04T14:35:21.000Z</time>
</trkpt>
<trkpt lat="42.645227" lon="-2.064833">
<ele>689</ele>
<time>2013-05-04T14:35:22.000Z</time>
</trkpt>
<trkpt lat="42.645266" lon="-2.064753">
<ele>687</ele>
<time>2013-05-04T14:35:23.000Z</time>
</trkpt>
<trkpt lat="42.645306" lon="-2.064682">
<ele>684</ele>
<time>2013-05-04T14:35:24.000Z</time>
</trkpt>
<trkpt lat="42.645352" lon="-2.064611">
<ele>683</ele>
<time>2013-05-04T14:35:25.000Z</time>
</trkpt>
<trkpt lat="42.645403" lon="-2.064543">
<ele>682</ele>
<time>2013-05-04T14:35:26.000Z</time>
</trkpt>
<trkpt lat="42.645452" lon="-2.064481">
<ele>682</ele>
<time>2013-05-04T14:35:27.000Z</time>
</trkpt>
<trkpt lat="42.645508" lon="-2.064412">
<ele>681</ele>
<time>2013-05-04T14:35:28.000Z</time>
</trkpt>
<trkpt lat="42.645566" lon="-2.064347">
<ele>681</ele>
<time>2013-05-04T14:35:29.000Z</time>
</trkpt>
<trkpt lat="42.645633" lon="-2.064286">
<ele>684</ele>
<time>2013-05-04T14:35:30.000Z</time>
</trkpt>
<trkpt lat="42.645697" lon="-2.064223">
<ele>683</ele>
<time>2013-05-04T14:35:31.000Z</time>
</trkpt>
<trkpt lat="42.645743" lon="-2.064147">
<ele>682</ele>
<time>2013-05-04T14:35:32.000Z</time>
</trkpt>
<trkpt lat="42.645778" lon="-2.064079">
<ele>681</ele>
<time>2013-05-04T14:35:33.000Z</time>
</trkpt>
<trkpt lat="42.645817" lon="-2.06401">
<ele>678</ele>
<time>2013-05-04T14:35:34.000Z</time>
</trkpt>
<trkpt lat="42.645875" lon="-2.063953">
<ele>677</ele>
<time>2013-05-04T14:35:35.000Z</time>
</trkpt>
<trkpt lat="42.645937" lon="-2.063895">
<ele>677</ele>
<time>2013-05-04T14:35:36.000Z</time>
</trkpt>
<trkpt lat="42.646007" lon="-2.063862">
<ele>677</ele>
<time>2013-05-04T14:35:37.000Z</time>
</trkpt>
<trkpt lat="42.646075" lon="-2.063855">
<ele>678</ele>
<time>2013-05-04T14:35:38.000Z</time>
</trkpt>
<trkpt lat="42.646139" lon="-2.063862">
<ele>677</ele>
<time>2013-05-04T14:35:39.000Z</time>
</trkpt>
<trkpt lat="42.646213" lon="-2.063869">
<ele>677</ele>
<time>2013-05-04T14:35:40.000Z</time>
</trkpt>
<trkpt lat="42.646305" lon="-2.063885">
<ele>674</ele>
<time>2013-05-04T14:35:41.000Z</time>
</trkpt>
<trkpt lat="42.646382" lon="-2.063889">
<ele>675</ele>
<time>2013-05-04T14:35:42.000Z</time>
</trkpt>
<trkpt lat="42.646456" lon="-2.063895">
<ele>675</ele>
<time>2013-05-04T14:35:43.000Z</time>
</trkpt>
<trkpt lat="42.646528" lon="-2.0639">
<ele>672</ele>
<time>2013-05-04T14:35:44.000Z</time>
</trkpt>
<trkpt lat="42.646591" lon="-2.063887">
<ele>669</ele>
<time>2013-05-04T14:35:45.000Z</time>
</trkpt>
<trkpt lat="42.646649" lon="-2.063848">
<ele>666</ele>
<time>2013-05-04T14:35:46.000Z</time>
</trkpt>
<trkpt lat="42.646695" lon="-2.063786">
<ele>665</ele>
<time>2013-05-04T14:35:47.000Z</time>
</trkpt>
<trkpt lat="42.646716" lon="-2.063719">
<ele>664</ele>
<time>2013-05-04T14:35:48.000Z</time>
</trkpt>
<trkpt lat="42.646713" lon="-2.063669">
<ele>659</ele>
<time>2013-05-04T14:35:49.000Z</time>
</trkpt>
<trkpt lat="42.646698" lon="-2.063628">
<ele>657</ele>
<time>2013-05-04T14:35:50.000Z</time>
</trkpt>
<trkpt lat="42.646663" lon="-2.063601">
<ele>655</ele>
<time>2013-05-04T14:35:51.000Z</time>
</trkpt>
<trkpt lat="42.646621" lon="-2.063595">
<ele>654</ele>
<time>2013-05-04T14:35:52.000Z</time>
</trkpt>
<trkpt lat="42.646574" lon="-2.063614">
<ele>652</ele>
<time>2013-05-04T14:35:53.000Z</time>
</trkpt>
<trkpt lat="42.646524" lon="-2.063664">
<ele>651</ele>
<time>2013-05-04T14:35:54.000Z</time>
</trkpt>
<trkpt lat="42.646477" lon="-2.063749">
<ele>650</ele>
<time>2013-05-04T14:35:55.000Z</time>
</trkpt>
<trkpt lat="42.646421" lon="-2.063863">
<ele>649</ele>
<time>2013-05-04T14:35:56.000Z</time>
</trkpt>
<trkpt lat="42.646383" lon="-2.063958">
<ele>647</ele>
<time>2013-05-04T14:35:57.000Z</time>
</trkpt>
<trkpt lat="42.646349" lon="-2.064042">
<ele>645</ele>
<time>2013-05-04T14:35:58.000Z</time>
</trkpt>
<trkpt lat="42.64632" lon="-2.064128">
<ele>644</ele>
<time>2013-05-04T14:35:59.000Z</time>
</trkpt>
<trkpt lat="42.646302" lon="-2.064227">
<ele>641</ele>
<time>2013-05-04T14:36:00.000Z</time>
</trkpt>
<trkpt lat="42.646281" lon="-2.064339">
<ele>638</ele>
<time>2013-05-04T14:36:01.000Z</time>
</trkpt>
<trkpt lat="42.646258" lon="-2.064443">
<ele>636</ele>
<time>2013-05-04T14:36:02.000Z</time>
</trkpt>
<trkpt lat="42.646212" lon="-2.064531">
<ele>636</ele>
<time>2013-05-04T14:36:03.000Z</time>
</trkpt>
<trkpt lat="42.64616" lon="-2.06459">
<ele>634</ele>
<time>2013-05-04T14:36:04.000Z</time>
</trkpt>
<trkpt lat="42.646102" lon="-2.064621">
<ele>633</ele>
<time>2013-05-04T14:36:05.000Z</time>
</trkpt>
<trkpt lat="42.646052" lon="-2.064613">
<ele>631</ele>
<time>2013-05-04T14:36:06.000Z</time>
</trkpt>
<trkpt lat="42.646018" lon="-2.06458">
<ele>630</ele>
<time>2013-05-04T14:36:07.000Z</time>
</trkpt>
<trkpt lat="42.646" lon="-2.064503">
<ele>628</ele>
<time>2013-05-04T14:36:08.000Z</time>
</trkpt>
<trkpt lat="42.645996" lon="-2.064424">
<ele>625</ele>
<time>2013-05-04T14:36:09.000Z</time>
</trkpt>
<trkpt lat="42.645996" lon="-2.064347">
<ele>623</ele>
<time>2013-05-04T14:36:10.000Z</time>
</trkpt>
<trkpt lat="42.645997" lon="-2.064284">
<ele>621</ele>
<time>2013-05-04T14:36:11.000Z</time>
</trkpt>
<trkpt lat="42.645997" lon="-2.064237">
<ele>622</ele>
<time>2013-05-04T14:36:12.000Z</time>
</trkpt>
<trkpt lat="42.646002" lon="-2.064188">
<ele>623</ele>
<time>2013-05-04T14:36:13.000Z</time>
</trkpt>
<trkpt lat="42.646003" lon="-2.064165">
<ele>616</ele>
<time>2013-05-04T14:36:33.000Z</time>
</trkpt>
<trkpt lat="42.646032" lon="-2.064139">
<ele>624</ele>
<time>2013-05-04T14:36:34.000Z</time>
</trkpt>
<trkpt lat="42.646067" lon="-2.064122">
<ele>626</ele>
<time>2013-05-04T14:36:46.000Z</time>
</trkpt>
<trkpt lat="42.646075" lon="-2.064096">
<ele>624</ele>
<time>2013-05-04T14:36:47.000Z</time>
</trkpt>
<trkpt lat="42.646105" lon="-2.064054">
<ele>619</ele>
<time>2013-05-04T14:36:52.000Z</time>
</trkpt>
<trkpt lat="42.646116" lon="-2.064035">
<ele>617</ele>
<time>2013-05-04T14:36:53.000Z</time>
</trkpt>
<trkpt lat="42.646136" lon="-2.063984">
<ele>614</ele>
<time>2013-05-04T14:36:56.000Z</time>
</trkpt>
<trkpt lat="42.646138" lon="-2.063966">
<ele>613</ele>
<time>2013-05-04T14:36:57.000Z</time>
</trkpt>
<trkpt lat="42.646127" lon="-2.063907">
<ele>619</ele>
<time>2013-05-04T14:37:01.000Z</time>
</trkpt>
<trkpt lat="42.646117" lon="-2.063892">
<ele>619</ele>
<time>2013-05-04T14:37:02.000Z</time>
</trkpt>
<trkpt lat="42.646078" lon="-2.06386">
<ele>619</ele>
<time>2013-05-04T14:37:05.000Z</time>
</trkpt>
<trkpt lat="42.646064" lon="-2.063847">
<ele>620</ele>
<time>2013-05-04T14:37:06.000Z</time>
</trkpt>
<trkpt lat="42.646028" lon="-2.063812">
<ele>622</ele>
<time>2013-05-04T14:37:10.000Z</time>
</trkpt>
<trkpt lat="42.64602" lon="-2.063805">
<ele>623</ele>
<time>2013-05-04T14:37:11.000Z</time>
</trkpt>
<trkpt lat="42.645988" lon="-2.063771">
<ele>620</ele>
<time>2013-05-04T14:37:14.000Z</time>
</trkpt>
<trkpt lat="42.645977" lon="-2.063755">
<ele>619</ele>
<time>2013-05-04T14:37:15.000Z</time>
</trkpt>
<trkpt lat="42.645952" lon="-2.063718">
<ele>618</ele>
<time>2013-05-04T14:37:18.000Z</time>
</trkpt>
<trkpt lat="42.645945" lon="-2.063709">
<ele>619</ele>
<time>2013-05-04T14:37:19.000Z</time>
</trkpt>
<trkpt lat="42.645922" lon="-2.063676">
<ele>620</ele>
<time>2013-05-04T14:37:22.000Z</time>
</trkpt>
<trkpt lat="42.645913" lon="-2.063663">
<ele>621</ele>
<time>2013-05-04T14:37:23.000Z</time>
</trkpt>
<trkpt lat="42.645887" lon="-2.063614">
<ele>622</ele>
<time>2013-05-04T14:37:27.000Z</time>
</trkpt>
<trkpt lat="42.645879" lon="-2.063603">
<ele>623</ele>
<time>2013-05-04T14:37:28.000Z</time>
</trkpt>
<trkpt lat="42.645846" lon="-2.063566">
<ele>621</ele>
<time>2013-05-04T14:37:31.000Z</time>
</trkpt>
<trkpt lat="42.645836" lon="-2.063554">
<ele>622</ele>
<time>2013-05-04T14:37:32.000Z</time>
</trkpt>
<trkpt lat="42.645807" lon="-2.06352">
<ele>622</ele>
<time>2013-05-04T14:37:35.000Z</time>
</trkpt>
<trkpt lat="42.645796" lon="-2.063509">
<ele>622</ele>
<time>2013-05-04T14:37:36.000Z</time>
</trkpt>
<trkpt lat="42.645761" lon="-2.06348">
<ele>622</ele>
<time>2013-05-04T14:37:39.000Z</time>
</trkpt>
<trkpt lat="42.645746" lon="-2.063468">
<ele>619</ele>
<time>2013-05-04T14:37:40.000Z</time>
</trkpt>
<trkpt lat="42.64571" lon="-2.063442">
<ele>622</ele>
<time>2013-05-04T14:37:43.000Z</time>
</trkpt>
<trkpt lat="42.645698" lon="-2.063434">
<ele>622</ele>
<time>2013-05-04T14:37:44.000Z</time>
</trkpt>
<trkpt lat="42.645657" lon="-2.063426">
<ele>619</ele>
<time>2013-05-04T14:37:50.000Z</time>
</trkpt>
<trkpt lat="42.645644" lon="-2.063413">
<ele>620</ele>
<time>2013-05-04T14:37:51.000Z</time>
</trkpt>
<trkpt lat="42.645614" lon="-2.063379">
<ele>620</ele>
<time>2013-05-04T14:37:53.000Z</time>
</trkpt>
<trkpt lat="42.645609" lon="-2.063363">
<ele>618</ele>
<time>2013-05-04T14:37:54.000Z</time>
</trkpt>
<trkpt lat="42.645615" lon="-2.063304">
<ele>616</ele>
<time>2013-05-04T14:37:58.000Z</time>
</trkpt>
<trkpt lat="42.645624" lon="-2.063296">
<ele>617</ele>
<time>2013-05-04T14:37:59.000Z</time>
</trkpt>
<trkpt lat="42.645664" lon="-2.063294">
<ele>617</ele>
<time>2013-05-04T14:38:02.000Z</time>
</trkpt>
<trkpt lat="42.645675" lon="-2.063298">
<ele>617</ele>
<time>2013-05-04T14:38:03.000Z</time>
</trkpt>
<trkpt lat="42.645709" lon="-2.063331">
<ele>614</ele>
<time>2013-05-04T14:38:06.000Z</time>
</trkpt>
<trkpt lat="42.64572" lon="-2.063347">
<ele>613</ele>
<time>2013-05-04T14:38:07.000Z</time>
</trkpt>
<trkpt lat="42.64575" lon="-2.063389">
<ele>614</ele>
<time>2013-05-04T14:38:10.000Z</time>
</trkpt>
<trkpt lat="42.645758" lon="-2.0634">
<ele>616</ele>
<time>2013-05-04T14:38:11.000Z</time>
</trkpt>
<trkpt lat="42.645783" lon="-2.063431">
<ele>614</ele>
<time>2013-05-04T14:38:14.000Z</time>
</trkpt>
<trkpt lat="42.645796" lon="-2.063444">
<ele>616</ele>
<time>2013-05-04T14:38:15.000Z</time>
</trkpt>
<trkpt lat="42.645818" lon="-2.063468">
<ele>617</ele>
<time>2013-05-04T14:38:17.000Z</time>
</trkpt>
<trkpt lat="42.645831" lon="-2.063484">
<ele>616</ele>
<time>2013-05-04T14:38:18.000Z</time>
</trkpt>
<trkpt lat="42.645854" lon="-2.063523">
<ele>616</ele>
<time>2013-05-04T14:38:21.000Z</time>
</trkpt>
<trkpt lat="42.645861" lon="-2.063533">
<ele>614</ele>
<time>2013-05-04T14:38:22.000Z</time>
</trkpt>
<trkpt lat="42.645887" lon="-2.063564">
<ele>615</ele>
<time>2013-05-04T14:38:25.000Z</time>
</trkpt>
<trkpt lat="42.645901" lon="-2.063578">
<ele>613</ele>
<time>2013-05-04T14:38:26.000Z</time>
</trkpt>
<trkpt lat="42.645933" lon="-2.063603">
<ele>613</ele>
<time>2013-05-04T14:38:28.000Z</time>
</trkpt>
<trkpt lat="42.645947" lon="-2.063613">
<ele>611</ele>
<time>2013-05-04T14:38:29.000Z</time>
</trkpt>
<trkpt lat="42.645985" lon="-2.063633">
<ele>615</ele>
<time>2013-05-04T14:38:32.000Z</time>
</trkpt>
<trkpt lat="42.645998" lon="-2.06363">
<ele>614</ele>
<time>2013-05-04T14:38:33.000Z</time>
</trkpt>
<trkpt lat="42.646033" lon="-2.063607">
<ele>613</ele>
<time>2013-05-04T14:38:36.000Z</time>
</trkpt>
<trkpt lat="42.646039" lon="-2.063606">
<ele>613</ele>
<time>2013-05-04T14:38:37.000Z</time>
</trkpt>
<trkpt lat="42.646069" lon="-2.06361">
<ele>612</ele>
<time>2013-05-04T14:38:41.000Z</time>
</trkpt>
<trkpt lat="42.646087" lon="-2.063602">
<ele>611</ele>
<time>2013-05-04T14:38:42.000Z</time>
</trkpt>
<trkpt lat="42.646114" lon="-2.063569">
<ele>611</ele>
<time>2013-05-04T14:38:54.000Z</time>
</trkpt>
<trkpt lat="42.64616" lon="-2.063562">
<ele>615</ele>
<time>2013-05-04T14:38:55.000Z</time>
</trkpt>
<trkpt lat="42.64616" lon="-2.063562">
<ele>615</ele>
<time>2013-05-04T14:39:00.000Z</time>
</trkpt>
<trkpt lat="42.646202" lon="-2.063593">
<ele>610</ele>
<time>2013-05-04T14:39:01.000Z</time>
</trkpt>
<trkpt lat="42.646202" lon="-2.063593">
<ele>610</ele>
<time>2013-05-04T14:40:43.000Z</time>
</trkpt>
</trkseg>
</trk>
</gpx>
